<?xml version="1.0" encoding="UTF-8" standalone="no" ?>
<gpx xmlns="http://www.topografix.com/GPX/1/1" xmlns:xsi="http://www.w3.org/2001/XMLSchema-instance" xsi:schemaLocation="http://www.topografix.com/GPX/1/1 http://www.topografix.com/GPX/1/1/gpx.xsd" version="1.1" creator="VisuGPX - https://www.visugpx.com">
  <metadata>
    <name>Champagnat Cyclisme</name>
  </metadata>
  <trk>
    <name><![CDATA[Champagnat Cyclisme]]></name>
    <trkseg>
      <trkpt lat="46.48262" lon="5.36823">
        <ele>278.39999389648</ele>
        <time>2020-07-31T04:30:58.000Z</time>
      </trkpt>
      <trkpt lat="46.48252" lon="5.36812">
        <ele>277.60000610352</ele>
        <time>2020-07-31T04:30:59.000Z</time>
      </trkpt>
      <trkpt lat="46.48241" lon="5.36802">
        <ele>277</ele>
        <time>2020-07-31T04:31:00.000Z</time>
      </trkpt>
      <trkpt lat="46.48219" lon="5.36784">
        <ele>275.39999389648</ele>
        <time>2020-07-31T04:31:02.000Z</time>
      </trkpt>
      <trkpt lat="46.48198" lon="5.36766">
        <ele>273.60000610352</ele>
        <time>2020-07-31T04:31:04.000Z</time>
      </trkpt>
      <trkpt lat="46.48187" lon="5.36757">
        <ele>272.39999389648</ele>
        <time>2020-07-31T04:31:05.000Z</time>
      </trkpt>
      <trkpt lat="46.48176" lon="5.36748">
        <ele>271.20001220703</ele>
        <time>2020-07-31T04:31:06.000Z</time>
      </trkpt>
      <trkpt lat="46.48166" lon="5.36739">
        <ele>270</ele>
        <time>2020-07-31T04:31:07.000Z</time>
      </trkpt>
      <trkpt lat="46.48155" lon="5.3673">
        <ele>269</ele>
        <time>2020-07-31T04:31:08.000Z</time>
      </trkpt>
      <trkpt lat="46.48136" lon="5.36714">
        <ele>267.60000610352</ele>
        <time>2020-07-31T04:31:10.000Z</time>
      </trkpt>
      <trkpt lat="46.48127" lon="5.36708">
        <ele>267</ele>
        <time>2020-07-31T04:31:11.000Z</time>
      </trkpt>
      <trkpt lat="46.4812" lon="5.36702">
        <ele>266.60000610352</ele>
        <time>2020-07-31T04:31:12.000Z</time>
      </trkpt>
      <trkpt lat="46.48114" lon="5.36696">
        <ele>266</ele>
        <time>2020-07-31T04:31:13.000Z</time>
      </trkpt>
      <trkpt lat="46.48112" lon="5.36689">
        <ele>265.79998779297</ele>
        <time>2020-07-31T04:31:14.000Z</time>
      </trkpt>
      <trkpt lat="46.48114" lon="5.36676">
        <ele>265.39999389648</ele>
        <time>2020-07-31T04:31:16.000Z</time>
      </trkpt>
      <trkpt lat="46.48122" lon="5.36667">
        <ele>265.39999389648</ele>
        <time>2020-07-31T04:31:18.000Z</time>
      </trkpt>
      <trkpt lat="46.48126" lon="5.36663">
        <ele>265.39999389648</ele>
        <time>2020-07-31T04:31:19.000Z</time>
      </trkpt>
      <trkpt lat="46.48131" lon="5.36659">
        <ele>265</ele>
        <time>2020-07-31T04:31:20.000Z</time>
      </trkpt>
      <trkpt lat="46.48135" lon="5.36654">
        <ele>264.79998779297</ele>
        <time>2020-07-31T04:31:21.000Z</time>
      </trkpt>
      <trkpt lat="46.4814" lon="5.36649">
        <ele>264.79998779297</ele>
        <time>2020-07-31T04:31:22.000Z</time>
      </trkpt>
      <trkpt lat="46.48148" lon="5.36639">
        <ele>264.79998779297</ele>
        <time>2020-07-31T04:31:24.000Z</time>
      </trkpt>
      <trkpt lat="46.48152" lon="5.36633">
        <ele>264.79998779297</ele>
        <time>2020-07-31T04:31:25.000Z</time>
      </trkpt>
      <trkpt lat="46.48157" lon="5.36628">
        <ele>264.79998779297</ele>
        <time>2020-07-31T04:31:26.000Z</time>
      </trkpt>
      <trkpt lat="46.48164" lon="5.36619">
        <ele>265.20001220703</ele>
        <time>2020-07-31T04:31:28.000Z</time>
      </trkpt>
      <trkpt lat="46.48174" lon="5.3661">
        <ele>265.20001220703</ele>
        <time>2020-07-31T04:31:30.000Z</time>
      </trkpt>
      <trkpt lat="46.48186" lon="5.36604">
        <ele>264.79998779297</ele>
        <time>2020-07-31T04:31:32.000Z</time>
      </trkpt>
      <trkpt lat="46.48193" lon="5.36603">
        <ele>264.60000610352</ele>
        <time>2020-07-31T04:31:33.000Z</time>
      </trkpt>
      <trkpt lat="46.482" lon="5.36602">
        <ele>264.39999389648</ele>
        <time>2020-07-31T04:31:34.000Z</time>
      </trkpt>
      <trkpt lat="46.48213" lon="5.36595">
        <ele>264</ele>
        <time>2020-07-31T04:31:36.000Z</time>
      </trkpt>
      <trkpt lat="46.48217" lon="5.36588">
        <ele>263.79998779297</ele>
        <time>2020-07-31T04:31:37.000Z</time>
      </trkpt>
      <trkpt lat="46.4822" lon="5.36579">
        <ele>263.79998779297</ele>
        <time>2020-07-31T04:31:38.000Z</time>
      </trkpt>
      <trkpt lat="46.48226" lon="5.36561">
        <ele>263.39999389648</ele>
        <time>2020-07-31T04:31:40.000Z</time>
      </trkpt>
      <trkpt lat="46.48236" lon="5.36547">
        <ele>263</ele>
        <time>2020-07-31T04:31:42.000Z</time>
      </trkpt>
      <trkpt lat="46.48242" lon="5.36541">
        <ele>262.79998779297</ele>
        <time>2020-07-31T04:31:43.000Z</time>
      </trkpt>
      <trkpt lat="46.48248" lon="5.36535">
        <ele>262.79998779297</ele>
        <time>2020-07-31T04:31:44.000Z</time>
      </trkpt>
      <trkpt lat="46.48254" lon="5.36528">
        <ele>262.79998779297</ele>
        <time>2020-07-31T04:31:45.000Z</time>
      </trkpt>
      <trkpt lat="46.4826" lon="5.36522">
        <ele>262.79998779297</ele>
        <time>2020-07-31T04:31:46.000Z</time>
      </trkpt>
      <trkpt lat="46.48272" lon="5.36508">
        <ele>262.39999389648</ele>
        <time>2020-07-31T04:31:48.000Z</time>
      </trkpt>
      <trkpt lat="46.48285" lon="5.36495">
        <ele>261.79998779297</ele>
        <time>2020-07-31T04:31:50.000Z</time>
      </trkpt>
      <trkpt lat="46.48297" lon="5.36482">
        <ele>261.39999389648</ele>
        <time>2020-07-31T04:31:52.000Z</time>
      </trkpt>
      <trkpt lat="46.4831" lon="5.36468">
        <ele>261</ele>
        <time>2020-07-31T04:31:54.000Z</time>
      </trkpt>
      <trkpt lat="46.48316" lon="5.36461">
        <ele>260.79998779297</ele>
        <time>2020-07-31T04:31:55.000Z</time>
      </trkpt>
      <trkpt lat="46.48323" lon="5.36454">
        <ele>260.60000610352</ele>
        <time>2020-07-31T04:31:56.000Z</time>
      </trkpt>
      <trkpt lat="46.48336" lon="5.36439">
        <ele>260.39999389648</ele>
        <time>2020-07-31T04:31:58.000Z</time>
      </trkpt>
      <trkpt lat="46.48349" lon="5.36424">
        <ele>260</ele>
        <time>2020-07-31T04:32:00.000Z</time>
      </trkpt>
      <trkpt lat="46.48356" lon="5.36417">
        <ele>259.60000610352</ele>
        <time>2020-07-31T04:32:01.000Z</time>
      </trkpt>
      <trkpt lat="46.48362" lon="5.3641">
        <ele>259.39999389648</ele>
        <time>2020-07-31T04:32:02.000Z</time>
      </trkpt>
      <trkpt lat="46.48376" lon="5.36396">
        <ele>258.79998779297</ele>
        <time>2020-07-31T04:32:04.000Z</time>
      </trkpt>
      <trkpt lat="46.48382" lon="5.36389">
        <ele>258.39999389648</ele>
        <time>2020-07-31T04:32:05.000Z</time>
      </trkpt>
      <trkpt lat="46.48389" lon="5.36382">
        <ele>258</ele>
        <time>2020-07-31T04:32:06.000Z</time>
      </trkpt>
      <trkpt lat="46.48402" lon="5.36369">
        <ele>257.39999389648</ele>
        <time>2020-07-31T04:32:08.000Z</time>
      </trkpt>
      <trkpt lat="46.48416" lon="5.36358">
        <ele>256.79998779297</ele>
        <time>2020-07-31T04:32:10.000Z</time>
      </trkpt>
      <trkpt lat="46.4843" lon="5.36351">
        <ele>256.39999389648</ele>
        <time>2020-07-31T04:32:12.000Z</time>
      </trkpt>
      <trkpt lat="46.48444" lon="5.36347">
        <ele>256.20001220703</ele>
        <time>2020-07-31T04:32:14.000Z</time>
      </trkpt>
      <trkpt lat="46.48452" lon="5.36346">
        <ele>256</ele>
        <time>2020-07-31T04:32:15.000Z</time>
      </trkpt>
      <trkpt lat="46.48459" lon="5.36344">
        <ele>256</ele>
        <time>2020-07-31T04:32:16.000Z</time>
      </trkpt>
      <trkpt lat="46.48473" lon="5.36342">
        <ele>256</ele>
        <time>2020-07-31T04:32:18.000Z</time>
      </trkpt>
      <trkpt lat="46.48487" lon="5.3634">
        <ele>255.80000305176</ele>
        <time>2020-07-31T04:32:20.000Z</time>
      </trkpt>
      <trkpt lat="46.48501" lon="5.36337">
        <ele>255.80000305176</ele>
        <time>2020-07-31T04:32:22.000Z</time>
      </trkpt>
      <trkpt lat="46.48514" lon="5.36335">
        <ele>255.80000305176</ele>
        <time>2020-07-31T04:32:24.000Z</time>
      </trkpt>
      <trkpt lat="46.48521" lon="5.36334">
        <ele>255.80000305176</ele>
        <time>2020-07-31T04:32:25.000Z</time>
      </trkpt>
      <trkpt lat="46.48528" lon="5.36333">
        <ele>255.80000305176</ele>
        <time>2020-07-31T04:32:26.000Z</time>
      </trkpt>
      <trkpt lat="46.48541" lon="5.36331">
        <ele>255.80000305176</ele>
        <time>2020-07-31T04:32:28.000Z</time>
      </trkpt>
      <trkpt lat="46.48555" lon="5.36329">
        <ele>255.80000305176</ele>
        <time>2020-07-31T04:32:30.000Z</time>
      </trkpt>
      <trkpt lat="46.48569" lon="5.36327">
        <ele>255.60000610352</ele>
        <time>2020-07-31T04:32:32.000Z</time>
      </trkpt>
      <trkpt lat="46.48584" lon="5.36324">
        <ele>255.60000610352</ele>
        <time>2020-07-31T04:32:34.000Z</time>
      </trkpt>
      <trkpt lat="46.48591" lon="5.36323">
        <ele>255.60000610352</ele>
        <time>2020-07-31T04:32:35.000Z</time>
      </trkpt>
      <trkpt lat="46.48599" lon="5.36322">
        <ele>255.39999389648</ele>
        <time>2020-07-31T04:32:36.000Z</time>
      </trkpt>
      <trkpt lat="46.48615" lon="5.36318">
        <ele>255.39999389648</ele>
        <time>2020-07-31T04:32:38.000Z</time>
      </trkpt>
      <trkpt lat="46.48622" lon="5.36312">
        <ele>255</ele>
        <time>2020-07-31T04:32:39.000Z</time>
      </trkpt>
      <trkpt lat="46.48628" lon="5.36304">
        <ele>254.80000305176</ele>
        <time>2020-07-31T04:32:40.000Z</time>
      </trkpt>
      <trkpt lat="46.48633" lon="5.36293">
        <ele>254.60000610352</ele>
        <time>2020-07-31T04:32:41.000Z</time>
      </trkpt>
      <trkpt lat="46.48635" lon="5.36281">
        <ele>254.19999694824</ele>
        <time>2020-07-31T04:32:42.000Z</time>
      </trkpt>
      <trkpt lat="46.48637" lon="5.36268">
        <ele>253.80000305176</ele>
        <time>2020-07-31T04:32:43.000Z</time>
      </trkpt>
      <trkpt lat="46.4864" lon="5.36242">
        <ele>253.19999694824</ele>
        <time>2020-07-31T04:32:45.000Z</time>
      </trkpt>
      <trkpt lat="46.48643" lon="5.36216">
        <ele>252.39999389648</ele>
        <time>2020-07-31T04:32:47.000Z</time>
      </trkpt>
      <trkpt lat="46.48644" lon="5.36203">
        <ele>251.19999694824</ele>
        <time>2020-07-31T04:32:48.000Z</time>
      </trkpt>
      <trkpt lat="46.48645" lon="5.3619">
        <ele>250.60000610352</ele>
        <time>2020-07-31T04:32:49.000Z</time>
      </trkpt>
      <trkpt lat="46.48647" lon="5.36165">
        <ele>249.60000610352</ele>
        <time>2020-07-31T04:32:51.000Z</time>
      </trkpt>
      <trkpt lat="46.48649" lon="5.36141">
        <ele>249</ele>
        <time>2020-07-31T04:32:53.000Z</time>
      </trkpt>
      <trkpt lat="46.48651" lon="5.36129">
        <ele>248.60000610352</ele>
        <time>2020-07-31T04:32:54.000Z</time>
      </trkpt>
      <trkpt lat="46.48653" lon="5.36118">
        <ele>248.39999389648</ele>
        <time>2020-07-31T04:32:55.000Z</time>
      </trkpt>
      <trkpt lat="46.48658" lon="5.36095">
        <ele>248</ele>
        <time>2020-07-31T04:32:57.000Z</time>
      </trkpt>
      <trkpt lat="46.48663" lon="5.36074">
        <ele>247.80000305176</ele>
        <time>2020-07-31T04:32:59.000Z</time>
      </trkpt>
      <trkpt lat="46.48666" lon="5.36054">
        <ele>247.80000305176</ele>
        <time>2020-07-31T04:33:01.000Z</time>
      </trkpt>
      <trkpt lat="46.48668" lon="5.36044">
        <ele>247.80000305176</ele>
        <time>2020-07-31T04:33:02.000Z</time>
      </trkpt>
      <trkpt lat="46.48671" lon="5.36036">
        <ele>247.80000305176</ele>
        <time>2020-07-31T04:33:03.000Z</time>
      </trkpt>
      <trkpt lat="46.48673" lon="5.36027">
        <ele>247.80000305176</ele>
        <time>2020-07-31T04:33:04.000Z</time>
      </trkpt>
      <trkpt lat="46.48675" lon="5.36019">
        <ele>247.80000305176</ele>
        <time>2020-07-31T04:33:05.000Z</time>
      </trkpt>
      <trkpt lat="46.48678" lon="5.36003">
        <ele>247.80000305176</ele>
        <time>2020-07-31T04:33:07.000Z</time>
      </trkpt>
      <trkpt lat="46.4868" lon="5.35988">
        <ele>248</ele>
        <time>2020-07-31T04:33:09.000Z</time>
      </trkpt>
      <trkpt lat="46.48681" lon="5.35981">
        <ele>248.39999389648</ele>
        <time>2020-07-31T04:33:10.000Z</time>
      </trkpt>
      <trkpt lat="46.48682" lon="5.35973">
        <ele>248.60000610352</ele>
        <time>2020-07-31T04:33:11.000Z</time>
      </trkpt>
      <trkpt lat="46.48684" lon="5.35955">
        <ele>249.39999389648</ele>
        <time>2020-07-31T04:33:13.000Z</time>
      </trkpt>
      <trkpt lat="46.48686" lon="5.35945">
        <ele>249.60000610352</ele>
        <time>2020-07-31T04:33:14.000Z</time>
      </trkpt>
      <trkpt lat="46.48687" lon="5.35936">
        <ele>250</ele>
        <time>2020-07-31T04:33:15.000Z</time>
      </trkpt>
      <trkpt lat="46.48691" lon="5.35918">
        <ele>250.60000610352</ele>
        <time>2020-07-31T04:33:17.000Z</time>
      </trkpt>
      <trkpt lat="46.48693" lon="5.35909">
        <ele>250.60000610352</ele>
        <time>2020-07-31T04:33:18.000Z</time>
      </trkpt>
      <trkpt lat="46.48697" lon="5.359">
        <ele>250.60000610352</ele>
        <time>2020-07-31T04:33:19.000Z</time>
      </trkpt>
      <trkpt lat="46.487" lon="5.3589">
        <ele>250.60000610352</ele>
        <time>2020-07-31T04:33:20.000Z</time>
      </trkpt>
      <trkpt lat="46.48703" lon="5.35881">
        <ele>250.60000610352</ele>
        <time>2020-07-31T04:33:21.000Z</time>
      </trkpt>
      <trkpt lat="46.48711" lon="5.35863">
        <ele>250.60000610352</ele>
        <time>2020-07-31T04:33:23.000Z</time>
      </trkpt>
      <trkpt lat="46.48719" lon="5.35844">
        <ele>250.60000610352</ele>
        <time>2020-07-31T04:33:25.000Z</time>
      </trkpt>
      <trkpt lat="46.48722" lon="5.35834">
        <ele>250.60000610352</ele>
        <time>2020-07-31T04:33:26.000Z</time>
      </trkpt>
      <trkpt lat="46.48727" lon="5.35825">
        <ele>250.39999389648</ele>
        <time>2020-07-31T04:33:27.000Z</time>
      </trkpt>
      <trkpt lat="46.48735" lon="5.35808">
        <ele>249.60000610352</ele>
        <time>2020-07-31T04:33:29.000Z</time>
      </trkpt>
      <trkpt lat="46.48743" lon="5.3579">
        <ele>249</ele>
        <time>2020-07-31T04:33:31.000Z</time>
      </trkpt>
      <trkpt lat="46.48747" lon="5.3578">
        <ele>248.60000610352</ele>
        <time>2020-07-31T04:33:32.000Z</time>
      </trkpt>
      <trkpt lat="46.4875" lon="5.35771">
        <ele>248.39999389648</ele>
        <time>2020-07-31T04:33:33.000Z</time>
      </trkpt>
      <trkpt lat="46.48754" lon="5.35762">
        <ele>248.19999694824</ele>
        <time>2020-07-31T04:33:34.000Z</time>
      </trkpt>
      <trkpt lat="46.48758" lon="5.35753">
        <ele>248</ele>
        <time>2020-07-31T04:33:35.000Z</time>
      </trkpt>
      <trkpt lat="46.48765" lon="5.35736">
        <ele>247.60000610352</ele>
        <time>2020-07-31T04:33:37.000Z</time>
      </trkpt>
      <trkpt lat="46.48773" lon="5.35719">
        <ele>247.39999389648</ele>
        <time>2020-07-31T04:33:39.000Z</time>
      </trkpt>
      <trkpt lat="46.4878" lon="5.35702">
        <ele>247.19999694824</ele>
        <time>2020-07-31T04:33:41.000Z</time>
      </trkpt>
      <trkpt lat="46.48788" lon="5.35686">
        <ele>247</ele>
        <time>2020-07-31T04:33:43.000Z</time>
      </trkpt>
      <trkpt lat="46.48794" lon="5.35671">
        <ele>246.80000305176</ele>
        <time>2020-07-31T04:33:45.000Z</time>
      </trkpt>
      <trkpt lat="46.48801" lon="5.35655">
        <ele>246.80000305176</ele>
        <time>2020-07-31T04:33:47.000Z</time>
      </trkpt>
      <trkpt lat="46.48804" lon="5.35648">
        <ele>246.80000305176</ele>
        <time>2020-07-31T04:33:48.000Z</time>
      </trkpt>
      <trkpt lat="46.48808" lon="5.3564">
        <ele>246.80000305176</ele>
        <time>2020-07-31T04:33:49.000Z</time>
      </trkpt>
      <trkpt lat="46.48814" lon="5.35625">
        <ele>247</ele>
        <time>2020-07-31T04:33:51.000Z</time>
      </trkpt>
      <trkpt lat="46.4882" lon="5.3561">
        <ele>247</ele>
        <time>2020-07-31T04:33:53.000Z</time>
      </trkpt>
      <trkpt lat="46.48826" lon="5.35595">
        <ele>247</ele>
        <time>2020-07-31T04:33:55.000Z</time>
      </trkpt>
      <trkpt lat="46.48833" lon="5.35581">
        <ele>247.19999694824</ele>
        <time>2020-07-31T04:33:57.000Z</time>
      </trkpt>
      <trkpt lat="46.48836" lon="5.35574">
        <ele>247.19999694824</ele>
        <time>2020-07-31T04:33:58.000Z</time>
      </trkpt>
      <trkpt lat="46.48839" lon="5.35567">
        <ele>247.19999694824</ele>
        <time>2020-07-31T04:33:59.000Z</time>
      </trkpt>
      <trkpt lat="46.48846" lon="5.35553">
        <ele>247.39999389648</ele>
        <time>2020-07-31T04:34:01.000Z</time>
      </trkpt>
      <trkpt lat="46.48852" lon="5.3554">
        <ele>247.39999389648</ele>
        <time>2020-07-31T04:34:03.000Z</time>
      </trkpt>
      <trkpt lat="46.48858" lon="5.35526">
        <ele>247.39999389648</ele>
        <time>2020-07-31T04:34:05.000Z</time>
      </trkpt>
      <trkpt lat="46.48865" lon="5.35511">
        <ele>247.60000610352</ele>
        <time>2020-07-31T04:34:07.000Z</time>
      </trkpt>
      <trkpt lat="46.48868" lon="5.35504">
        <ele>247.60000610352</ele>
        <time>2020-07-31T04:34:08.000Z</time>
      </trkpt>
      <trkpt lat="46.48872" lon="5.35496">
        <ele>247.60000610352</ele>
        <time>2020-07-31T04:34:09.000Z</time>
      </trkpt>
      <trkpt lat="46.48878" lon="5.3548">
        <ele>247.60000610352</ele>
        <time>2020-07-31T04:34:11.000Z</time>
      </trkpt>
      <trkpt lat="46.48885" lon="5.35465">
        <ele>247.60000610352</ele>
        <time>2020-07-31T04:34:13.000Z</time>
      </trkpt>
      <trkpt lat="46.48892" lon="5.35449">
        <ele>247.60000610352</ele>
        <time>2020-07-31T04:34:15.000Z</time>
      </trkpt>
      <trkpt lat="46.48898" lon="5.35433">
        <ele>247.19999694824</ele>
        <time>2020-07-31T04:34:17.000Z</time>
      </trkpt>
      <trkpt lat="46.48905" lon="5.35418">
        <ele>247</ele>
        <time>2020-07-31T04:34:19.000Z</time>
      </trkpt>
      <trkpt lat="46.48911" lon="5.35402">
        <ele>247</ele>
        <time>2020-07-31T04:34:21.000Z</time>
      </trkpt>
      <trkpt lat="46.48919" lon="5.35386">
        <ele>246.80000305176</ele>
        <time>2020-07-31T04:34:23.000Z</time>
      </trkpt>
      <trkpt lat="46.48926" lon="5.3537">
        <ele>246.80000305176</ele>
        <time>2020-07-31T04:34:25.000Z</time>
      </trkpt>
      <trkpt lat="46.4893" lon="5.35361">
        <ele>246.60000610352</ele>
        <time>2020-07-31T04:34:26.000Z</time>
      </trkpt>
      <trkpt lat="46.48933" lon="5.35353">
        <ele>246.60000610352</ele>
        <time>2020-07-31T04:34:27.000Z</time>
      </trkpt>
      <trkpt lat="46.4894" lon="5.35337">
        <ele>246.39999389648</ele>
        <time>2020-07-31T04:34:29.000Z</time>
      </trkpt>
      <trkpt lat="46.48943" lon="5.35329">
        <ele>246.19999694824</ele>
        <time>2020-07-31T04:34:30.000Z</time>
      </trkpt>
      <trkpt lat="46.48946" lon="5.35321">
        <ele>246.19999694824</ele>
        <time>2020-07-31T04:34:31.000Z</time>
      </trkpt>
      <trkpt lat="46.48953" lon="5.35306">
        <ele>245.80000305176</ele>
        <time>2020-07-31T04:34:33.000Z</time>
      </trkpt>
      <trkpt lat="46.4896" lon="5.35291">
        <ele>245.60000610352</ele>
        <time>2020-07-31T04:34:35.000Z</time>
      </trkpt>
      <trkpt lat="46.48966" lon="5.35276">
        <ele>245.60000610352</ele>
        <time>2020-07-31T04:34:37.000Z</time>
      </trkpt>
      <trkpt lat="46.48972" lon="5.35263">
        <ele>245.60000610352</ele>
        <time>2020-07-31T04:34:39.000Z</time>
      </trkpt>
      <trkpt lat="46.48978" lon="5.35249">
        <ele>245.60000610352</ele>
        <time>2020-07-31T04:34:41.000Z</time>
      </trkpt>
      <trkpt lat="46.48984" lon="5.35235">
        <ele>245.60000610352</ele>
        <time>2020-07-31T04:34:43.000Z</time>
      </trkpt>
      <trkpt lat="46.48991" lon="5.35221">
        <ele>245.80000305176</ele>
        <time>2020-07-31T04:34:45.000Z</time>
      </trkpt>
      <trkpt lat="46.48997" lon="5.35208">
        <ele>246</ele>
        <time>2020-07-31T04:34:47.000Z</time>
      </trkpt>
      <trkpt lat="46.49002" lon="5.35195">
        <ele>246.19999694824</ele>
        <time>2020-07-31T04:34:49.000Z</time>
      </trkpt>
      <trkpt lat="46.49007" lon="5.35182">
        <ele>246.60000610352</ele>
        <time>2020-07-31T04:34:51.000Z</time>
      </trkpt>
      <trkpt lat="46.49012" lon="5.35168">
        <ele>246.80000305176</ele>
        <time>2020-07-31T04:34:53.000Z</time>
      </trkpt>
      <trkpt lat="46.49018" lon="5.35154">
        <ele>247.19999694824</ele>
        <time>2020-07-31T04:34:55.000Z</time>
      </trkpt>
      <trkpt lat="46.49021" lon="5.35147">
        <ele>247.39999389648</ele>
        <time>2020-07-31T04:34:56.000Z</time>
      </trkpt>
      <trkpt lat="46.49024" lon="5.3514">
        <ele>247.60000610352</ele>
        <time>2020-07-31T04:34:57.000Z</time>
      </trkpt>
      <trkpt lat="46.49031" lon="5.35125">
        <ele>247.80000305176</ele>
        <time>2020-07-31T04:34:59.000Z</time>
      </trkpt>
      <trkpt lat="46.49036" lon="5.35109">
        <ele>248</ele>
        <time>2020-07-31T04:35:01.000Z</time>
      </trkpt>
      <trkpt lat="46.49038" lon="5.35101">
        <ele>248</ele>
        <time>2020-07-31T04:35:02.000Z</time>
      </trkpt>
      <trkpt lat="46.4904" lon="5.35092">
        <ele>248</ele>
        <time>2020-07-31T04:35:03.000Z</time>
      </trkpt>
      <trkpt lat="46.49044" lon="5.35075">
        <ele>248</ele>
        <time>2020-07-31T04:35:05.000Z</time>
      </trkpt>
      <trkpt lat="46.49048" lon="5.35057">
        <ele>248</ele>
        <time>2020-07-31T04:35:07.000Z</time>
      </trkpt>
      <trkpt lat="46.49052" lon="5.35039">
        <ele>248</ele>
        <time>2020-07-31T04:35:09.000Z</time>
      </trkpt>
      <trkpt lat="46.49055" lon="5.3502">
        <ele>247.80000305176</ele>
        <time>2020-07-31T04:35:11.000Z</time>
      </trkpt>
      <trkpt lat="46.49059" lon="5.35001">
        <ele>247.60000610352</ele>
        <time>2020-07-31T04:35:13.000Z</time>
      </trkpt>
      <trkpt lat="46.49063" lon="5.34981">
        <ele>247.19999694824</ele>
        <time>2020-07-31T04:35:15.000Z</time>
      </trkpt>
      <trkpt lat="46.49067" lon="5.34961">
        <ele>246.80000305176</ele>
        <time>2020-07-31T04:35:17.000Z</time>
      </trkpt>
      <trkpt lat="46.49071" lon="5.34941">
        <ele>246.19999694824</ele>
        <time>2020-07-31T04:35:19.000Z</time>
      </trkpt>
      <trkpt lat="46.49075" lon="5.3492">
        <ele>245.80000305176</ele>
        <time>2020-07-31T04:35:21.000Z</time>
      </trkpt>
      <trkpt lat="46.49079" lon="5.34899">
        <ele>245.39999389648</ele>
        <time>2020-07-31T04:35:23.000Z</time>
      </trkpt>
      <trkpt lat="46.49083" lon="5.34878">
        <ele>245</ele>
        <time>2020-07-31T04:35:25.000Z</time>
      </trkpt>
      <trkpt lat="46.49087" lon="5.34857">
        <ele>244.60000610352</ele>
        <time>2020-07-31T04:35:27.000Z</time>
      </trkpt>
      <trkpt lat="46.49089" lon="5.34846">
        <ele>244.39999389648</ele>
        <time>2020-07-31T04:35:28.000Z</time>
      </trkpt>
      <trkpt lat="46.49091" lon="5.34836">
        <ele>244.19999694824</ele>
        <time>2020-07-31T04:35:29.000Z</time>
      </trkpt>
      <trkpt lat="46.49095" lon="5.34815">
        <ele>244</ele>
        <time>2020-07-31T04:35:31.000Z</time>
      </trkpt>
      <trkpt lat="46.49099" lon="5.34794">
        <ele>243.60000610352</ele>
        <time>2020-07-31T04:35:33.000Z</time>
      </trkpt>
      <trkpt lat="46.49103" lon="5.34773">
        <ele>243.19999694824</ele>
        <time>2020-07-31T04:35:35.000Z</time>
      </trkpt>
      <trkpt lat="46.49107" lon="5.34752">
        <ele>242.80000305176</ele>
        <time>2020-07-31T04:35:37.000Z</time>
      </trkpt>
      <trkpt lat="46.49111" lon="5.34731">
        <ele>242.39999389648</ele>
        <time>2020-07-31T04:35:39.000Z</time>
      </trkpt>
      <trkpt lat="46.49115" lon="5.34709">
        <ele>242.19999694824</ele>
        <time>2020-07-31T04:35:41.000Z</time>
      </trkpt>
      <trkpt lat="46.49119" lon="5.34688">
        <ele>242</ele>
        <time>2020-07-31T04:35:43.000Z</time>
      </trkpt>
      <trkpt lat="46.4912" lon="5.34677">
        <ele>241.80000305176</ele>
        <time>2020-07-31T04:35:44.000Z</time>
      </trkpt>
      <trkpt lat="46.49122" lon="5.34667">
        <ele>241.39999389648</ele>
        <time>2020-07-31T04:35:45.000Z</time>
      </trkpt>
      <trkpt lat="46.49124" lon="5.34657">
        <ele>241.19999694824</ele>
        <time>2020-07-31T04:35:46.000Z</time>
      </trkpt>
      <trkpt lat="46.49126" lon="5.34648">
        <ele>241.19999694824</ele>
        <time>2020-07-31T04:35:47.000Z</time>
      </trkpt>
      <trkpt lat="46.4913" lon="5.34631">
        <ele>241</ele>
        <time>2020-07-31T04:35:49.000Z</time>
      </trkpt>
      <trkpt lat="46.49133" lon="5.34616">
        <ele>241</ele>
        <time>2020-07-31T04:35:51.000Z</time>
      </trkpt>
      <trkpt lat="46.49135" lon="5.34608">
        <ele>241</ele>
        <time>2020-07-31T04:35:52.000Z</time>
      </trkpt>
      <trkpt lat="46.49136" lon="5.346">
        <ele>241</ele>
        <time>2020-07-31T04:35:53.000Z</time>
      </trkpt>
      <trkpt lat="46.4914" lon="5.34583">
        <ele>241</ele>
        <time>2020-07-31T04:35:55.000Z</time>
      </trkpt>
      <trkpt lat="46.49143" lon="5.34564">
        <ele>241.60000610352</ele>
        <time>2020-07-31T04:35:57.000Z</time>
      </trkpt>
      <trkpt lat="46.49145" lon="5.34554">
        <ele>241.60000610352</ele>
        <time>2020-07-31T04:35:58.000Z</time>
      </trkpt>
      <trkpt lat="46.49147" lon="5.34544">
        <ele>241.80000305176</ele>
        <time>2020-07-31T04:35:59.000Z</time>
      </trkpt>
      <trkpt lat="46.49151" lon="5.34522">
        <ele>241.80000305176</ele>
        <time>2020-07-31T04:36:01.000Z</time>
      </trkpt>
      <trkpt lat="46.49155" lon="5.34501">
        <ele>242</ele>
        <time>2020-07-31T04:36:03.000Z</time>
      </trkpt>
      <trkpt lat="46.4916" lon="5.3448">
        <ele>242</ele>
        <time>2020-07-31T04:36:05.000Z</time>
      </trkpt>
      <trkpt lat="46.49162" lon="5.3447">
        <ele>242</ele>
        <time>2020-07-31T04:36:06.000Z</time>
      </trkpt>
      <trkpt lat="46.49164" lon="5.3446">
        <ele>242</ele>
        <time>2020-07-31T04:36:07.000Z</time>
      </trkpt>
      <trkpt lat="46.49168" lon="5.34439">
        <ele>241.39999389648</ele>
        <time>2020-07-31T04:36:09.000Z</time>
      </trkpt>
      <trkpt lat="46.49171" lon="5.3442">
        <ele>240.80000305176</ele>
        <time>2020-07-31T04:36:11.000Z</time>
      </trkpt>
      <trkpt lat="46.49175" lon="5.34401">
        <ele>240.80000305176</ele>
        <time>2020-07-31T04:36:13.000Z</time>
      </trkpt>
      <trkpt lat="46.49178" lon="5.34384">
        <ele>240.80000305176</ele>
        <time>2020-07-31T04:36:15.000Z</time>
      </trkpt>
      <trkpt lat="46.49181" lon="5.34368">
        <ele>240.80000305176</ele>
        <time>2020-07-31T04:36:17.000Z</time>
      </trkpt>
      <trkpt lat="46.49184" lon="5.34352">
        <ele>240.80000305176</ele>
        <time>2020-07-31T04:36:19.000Z</time>
      </trkpt>
      <trkpt lat="46.49187" lon="5.34337">
        <ele>241.19999694824</ele>
        <time>2020-07-31T04:36:21.000Z</time>
      </trkpt>
      <trkpt lat="46.4919" lon="5.3432">
        <ele>241.80000305176</ele>
        <time>2020-07-31T04:36:23.000Z</time>
      </trkpt>
      <trkpt lat="46.49193" lon="5.34301">
        <ele>242.39999389648</ele>
        <time>2020-07-31T04:36:25.000Z</time>
      </trkpt>
      <trkpt lat="46.49197" lon="5.34282">
        <ele>242.60000610352</ele>
        <time>2020-07-31T04:36:27.000Z</time>
      </trkpt>
      <trkpt lat="46.49201" lon="5.34262">
        <ele>242.60000610352</ele>
        <time>2020-07-31T04:36:29.000Z</time>
      </trkpt>
      <trkpt lat="46.49205" lon="5.34242">
        <ele>242.60000610352</ele>
        <time>2020-07-31T04:36:31.000Z</time>
      </trkpt>
      <trkpt lat="46.49208" lon="5.34222">
        <ele>242.60000610352</ele>
        <time>2020-07-31T04:36:33.000Z</time>
      </trkpt>
      <trkpt lat="46.49212" lon="5.34203">
        <ele>242.39999389648</ele>
        <time>2020-07-31T04:36:35.000Z</time>
      </trkpt>
      <trkpt lat="46.49216" lon="5.34184">
        <ele>241.80000305176</ele>
        <time>2020-07-31T04:36:37.000Z</time>
      </trkpt>
      <trkpt lat="46.49217" lon="5.34175">
        <ele>241.60000610352</ele>
        <time>2020-07-31T04:36:38.000Z</time>
      </trkpt>
      <trkpt lat="46.49219" lon="5.34165">
        <ele>241.39999389648</ele>
        <time>2020-07-31T04:36:39.000Z</time>
      </trkpt>
      <trkpt lat="46.49222" lon="5.34148">
        <ele>241.39999389648</ele>
        <time>2020-07-31T04:36:41.000Z</time>
      </trkpt>
      <trkpt lat="46.49225" lon="5.34131">
        <ele>241.19999694824</ele>
        <time>2020-07-31T04:36:43.000Z</time>
      </trkpt>
      <trkpt lat="46.49228" lon="5.34116">
        <ele>241.19999694824</ele>
        <time>2020-07-31T04:36:45.000Z</time>
      </trkpt>
      <trkpt lat="46.49231" lon="5.34101">
        <ele>241.19999694824</ele>
        <time>2020-07-31T04:36:47.000Z</time>
      </trkpt>
      <trkpt lat="46.49234" lon="5.34088">
        <ele>241.39999389648</ele>
        <time>2020-07-31T04:36:49.000Z</time>
      </trkpt>
      <trkpt lat="46.49237" lon="5.34074">
        <ele>241.80000305176</ele>
        <time>2020-07-31T04:36:51.000Z</time>
      </trkpt>
      <trkpt lat="46.49239" lon="5.34061">
        <ele>242.39999389648</ele>
        <time>2020-07-31T04:36:53.000Z</time>
      </trkpt>
      <trkpt lat="46.4924" lon="5.34055">
        <ele>242.60000610352</ele>
        <time>2020-07-31T04:36:54.000Z</time>
      </trkpt>
      <trkpt lat="46.49241" lon="5.34047">
        <ele>242.80000305176</ele>
        <time>2020-07-31T04:36:55.000Z</time>
      </trkpt>
      <trkpt lat="46.49243" lon="5.34039">
        <ele>243.19999694824</ele>
        <time>2020-07-31T04:36:56.000Z</time>
      </trkpt>
      <trkpt lat="46.49244" lon="5.34031">
        <ele>243.60000610352</ele>
        <time>2020-07-31T04:36:57.000Z</time>
      </trkpt>
      <trkpt lat="46.49246" lon="5.34023">
        <ele>244</ele>
        <time>2020-07-31T04:36:58.000Z</time>
      </trkpt>
      <trkpt lat="46.49248" lon="5.34014">
        <ele>244.19999694824</ele>
        <time>2020-07-31T04:36:59.000Z</time>
      </trkpt>
      <trkpt lat="46.49251" lon="5.33996">
        <ele>244.60000610352</ele>
        <time>2020-07-31T04:37:01.000Z</time>
      </trkpt>
      <trkpt lat="46.49255" lon="5.33979">
        <ele>244.60000610352</ele>
        <time>2020-07-31T04:37:03.000Z</time>
      </trkpt>
      <trkpt lat="46.49256" lon="5.33971">
        <ele>244.60000610352</ele>
        <time>2020-07-31T04:37:04.000Z</time>
      </trkpt>
      <trkpt lat="46.49258" lon="5.33962">
        <ele>244.60000610352</ele>
        <time>2020-07-31T04:37:05.000Z</time>
      </trkpt>
      <trkpt lat="46.49261" lon="5.33945">
        <ele>244.60000610352</ele>
        <time>2020-07-31T04:37:07.000Z</time>
      </trkpt>
      <trkpt lat="46.49265" lon="5.33929">
        <ele>244.60000610352</ele>
        <time>2020-07-31T04:37:09.000Z</time>
      </trkpt>
      <trkpt lat="46.49268" lon="5.33912">
        <ele>244.60000610352</ele>
        <time>2020-07-31T04:37:11.000Z</time>
      </trkpt>
      <trkpt lat="46.49271" lon="5.33896">
        <ele>244.60000610352</ele>
        <time>2020-07-31T04:37:13.000Z</time>
      </trkpt>
      <trkpt lat="46.49274" lon="5.3388">
        <ele>244.60000610352</ele>
        <time>2020-07-31T04:37:15.000Z</time>
      </trkpt>
      <trkpt lat="46.49277" lon="5.33864">
        <ele>244.60000610352</ele>
        <time>2020-07-31T04:37:17.000Z</time>
      </trkpt>
      <trkpt lat="46.4928" lon="5.33849">
        <ele>244.60000610352</ele>
        <time>2020-07-31T04:37:19.000Z</time>
      </trkpt>
      <trkpt lat="46.49283" lon="5.33832">
        <ele>244.60000610352</ele>
        <time>2020-07-31T04:37:21.000Z</time>
      </trkpt>
      <trkpt lat="46.49286" lon="5.33815">
        <ele>244.60000610352</ele>
        <time>2020-07-31T04:37:23.000Z</time>
      </trkpt>
      <trkpt lat="46.49288" lon="5.33807">
        <ele>244.60000610352</ele>
        <time>2020-07-31T04:37:24.000Z</time>
      </trkpt>
      <trkpt lat="46.49289" lon="5.33799">
        <ele>244.60000610352</ele>
        <time>2020-07-31T04:37:25.000Z</time>
      </trkpt>
      <trkpt lat="46.49293" lon="5.33781">
        <ele>244.60000610352</ele>
        <time>2020-07-31T04:37:27.000Z</time>
      </trkpt>
      <trkpt lat="46.49296" lon="5.33764">
        <ele>244.39999389648</ele>
        <time>2020-07-31T04:37:29.000Z</time>
      </trkpt>
      <trkpt lat="46.49298" lon="5.33746">
        <ele>244.39999389648</ele>
        <time>2020-07-31T04:37:31.000Z</time>
      </trkpt>
      <trkpt lat="46.49299" lon="5.33737">
        <ele>244.39999389648</ele>
        <time>2020-07-31T04:37:32.000Z</time>
      </trkpt>
      <trkpt lat="46.493" lon="5.33727">
        <ele>244.39999389648</ele>
        <time>2020-07-31T04:37:33.000Z</time>
      </trkpt>
      <trkpt lat="46.49301" lon="5.33709">
        <ele>244.39999389648</ele>
        <time>2020-07-31T04:37:35.000Z</time>
      </trkpt>
      <trkpt lat="46.49302" lon="5.33689">
        <ele>244.19999694824</ele>
        <time>2020-07-31T04:37:37.000Z</time>
      </trkpt>
      <trkpt lat="46.49303" lon="5.33669">
        <ele>243.80000305176</ele>
        <time>2020-07-31T04:37:39.000Z</time>
      </trkpt>
      <trkpt lat="46.49304" lon="5.33658">
        <ele>243.60000610352</ele>
        <time>2020-07-31T04:37:40.000Z</time>
      </trkpt>
      <trkpt lat="46.49304" lon="5.33648">
        <ele>243.39999389648</ele>
        <time>2020-07-31T04:37:41.000Z</time>
      </trkpt>
      <trkpt lat="46.49306" lon="5.33628">
        <ele>243.39999389648</ele>
        <time>2020-07-31T04:37:43.000Z</time>
      </trkpt>
      <trkpt lat="46.49308" lon="5.33609">
        <ele>243</ele>
        <time>2020-07-31T04:37:45.000Z</time>
      </trkpt>
      <trkpt lat="46.4931" lon="5.33599">
        <ele>242.80000305176</ele>
        <time>2020-07-31T04:37:46.000Z</time>
      </trkpt>
      <trkpt lat="46.49312" lon="5.3359">
        <ele>242.60000610352</ele>
        <time>2020-07-31T04:37:47.000Z</time>
      </trkpt>
      <trkpt lat="46.49316" lon="5.33571">
        <ele>242.39999389648</ele>
        <time>2020-07-31T04:37:49.000Z</time>
      </trkpt>
      <trkpt lat="46.49318" lon="5.33552">
        <ele>242.19999694824</ele>
        <time>2020-07-31T04:37:51.000Z</time>
      </trkpt>
      <trkpt lat="46.49318" lon="5.33533">
        <ele>242.19999694824</ele>
        <time>2020-07-31T04:37:53.000Z</time>
      </trkpt>
      <trkpt lat="46.49317" lon="5.33514">
        <ele>242.19999694824</ele>
        <time>2020-07-31T04:37:55.000Z</time>
      </trkpt>
      <trkpt lat="46.49315" lon="5.33496">
        <ele>242.19999694824</ele>
        <time>2020-07-31T04:37:57.000Z</time>
      </trkpt>
      <trkpt lat="46.49312" lon="5.33477">
        <ele>242.19999694824</ele>
        <time>2020-07-31T04:37:59.000Z</time>
      </trkpt>
      <trkpt lat="46.4931" lon="5.33459">
        <ele>242.19999694824</ele>
        <time>2020-07-31T04:38:01.000Z</time>
      </trkpt>
      <trkpt lat="46.49308" lon="5.3345">
        <ele>242.19999694824</ele>
        <time>2020-07-31T04:38:02.000Z</time>
      </trkpt>
      <trkpt lat="46.49305" lon="5.33432">
        <ele>242.39999389648</ele>
        <time>2020-07-31T04:38:04.000Z</time>
      </trkpt>
      <trkpt lat="46.49302" lon="5.33414">
        <ele>242.39999389648</ele>
        <time>2020-07-31T04:38:06.000Z</time>
      </trkpt>
      <trkpt lat="46.49298" lon="5.33395">
        <ele>242.60000610352</ele>
        <time>2020-07-31T04:38:08.000Z</time>
      </trkpt>
      <trkpt lat="46.49296" lon="5.33386">
        <ele>242.60000610352</ele>
        <time>2020-07-31T04:38:09.000Z</time>
      </trkpt>
      <trkpt lat="46.49294" lon="5.33376">
        <ele>242.60000610352</ele>
        <time>2020-07-31T04:38:10.000Z</time>
      </trkpt>
      <trkpt lat="46.49288" lon="5.33345">
        <ele>242.60000610352</ele>
        <time>2020-07-31T04:38:13.000Z</time>
      </trkpt>
      <trkpt lat="46.49284" lon="5.33325">
        <ele>242.60000610352</ele>
        <time>2020-07-31T04:38:15.000Z</time>
      </trkpt>
      <trkpt lat="46.4928" lon="5.33303">
        <ele>242.19999694824</ele>
        <time>2020-07-31T04:38:17.000Z</time>
      </trkpt>
      <trkpt lat="46.49276" lon="5.33283">
        <ele>241.60000610352</ele>
        <time>2020-07-31T04:38:19.000Z</time>
      </trkpt>
      <trkpt lat="46.49273" lon="5.33262">
        <ele>241</ele>
        <time>2020-07-31T04:38:21.000Z</time>
      </trkpt>
      <trkpt lat="46.49268" lon="5.33242">
        <ele>240.80000305176</ele>
        <time>2020-07-31T04:38:23.000Z</time>
      </trkpt>
      <trkpt lat="46.49262" lon="5.33222">
        <ele>240.39999389648</ele>
        <time>2020-07-31T04:38:25.000Z</time>
      </trkpt>
      <trkpt lat="46.49254" lon="5.33204">
        <ele>240</ele>
        <time>2020-07-31T04:38:27.000Z</time>
      </trkpt>
      <trkpt lat="46.49249" lon="5.33196">
        <ele>240</ele>
        <time>2020-07-31T04:38:28.000Z</time>
      </trkpt>
      <trkpt lat="46.49243" lon="5.3319">
        <ele>239.80000305176</ele>
        <time>2020-07-31T04:38:29.000Z</time>
      </trkpt>
      <trkpt lat="46.49236" lon="5.33184">
        <ele>239.80000305176</ele>
        <time>2020-07-31T04:38:30.000Z</time>
      </trkpt>
      <trkpt lat="46.4923" lon="5.33179">
        <ele>239.60000610352</ele>
        <time>2020-07-31T04:38:31.000Z</time>
      </trkpt>
      <trkpt lat="46.49216" lon="5.33169">
        <ele>239.39999389648</ele>
        <time>2020-07-31T04:38:33.000Z</time>
      </trkpt>
      <trkpt lat="46.49195" lon="5.33153">
        <ele>239.19999694824</ele>
        <time>2020-07-31T04:38:36.000Z</time>
      </trkpt>
      <trkpt lat="46.49189" lon="5.33147">
        <ele>238.80000305176</ele>
        <time>2020-07-31T04:38:37.000Z</time>
      </trkpt>
      <trkpt lat="46.49182" lon="5.33141">
        <ele>238.80000305176</ele>
        <time>2020-07-31T04:38:38.000Z</time>
      </trkpt>
      <trkpt lat="46.49176" lon="5.33134">
        <ele>238.80000305176</ele>
        <time>2020-07-31T04:38:39.000Z</time>
      </trkpt>
      <trkpt lat="46.4917" lon="5.33128">
        <ele>238.60000610352</ele>
        <time>2020-07-31T04:38:40.000Z</time>
      </trkpt>
      <trkpt lat="46.49165" lon="5.3312">
        <ele>238.19999694824</ele>
        <time>2020-07-31T04:38:41.000Z</time>
      </trkpt>
      <trkpt lat="46.4916" lon="5.33112">
        <ele>237.80000305176</ele>
        <time>2020-07-31T04:38:42.000Z</time>
      </trkpt>
      <trkpt lat="46.49156" lon="5.33103">
        <ele>237.80000305176</ele>
        <time>2020-07-31T04:38:43.000Z</time>
      </trkpt>
      <trkpt lat="46.49153" lon="5.33094">
        <ele>237.60000610352</ele>
        <time>2020-07-31T04:38:44.000Z</time>
      </trkpt>
      <trkpt lat="46.49148" lon="5.33075">
        <ele>237.39999389648</ele>
        <time>2020-07-31T04:38:46.000Z</time>
      </trkpt>
      <trkpt lat="46.49145" lon="5.33066">
        <ele>237.39999389648</ele>
        <time>2020-07-31T04:38:47.000Z</time>
      </trkpt>
      <trkpt lat="46.49143" lon="5.33057">
        <ele>237.39999389648</ele>
        <time>2020-07-31T04:38:48.000Z</time>
      </trkpt>
      <trkpt lat="46.49141" lon="5.33048">
        <ele>237.39999389648</ele>
        <time>2020-07-31T04:38:49.000Z</time>
      </trkpt>
      <trkpt lat="46.49139" lon="5.33039">
        <ele>237.39999389648</ele>
        <time>2020-07-31T04:38:50.000Z</time>
      </trkpt>
      <trkpt lat="46.49137" lon="5.3303">
        <ele>237.39999389648</ele>
        <time>2020-07-31T04:38:51.000Z</time>
      </trkpt>
      <trkpt lat="46.49136" lon="5.3302">
        <ele>237.39999389648</ele>
        <time>2020-07-31T04:38:52.000Z</time>
      </trkpt>
      <trkpt lat="46.49135" lon="5.3301">
        <ele>237.19999694824</ele>
        <time>2020-07-31T04:38:53.000Z</time>
      </trkpt>
      <trkpt lat="46.49132" lon="5.32989">
        <ele>237.19999694824</ele>
        <time>2020-07-31T04:38:55.000Z</time>
      </trkpt>
      <trkpt lat="46.49129" lon="5.32968">
        <ele>237.19999694824</ele>
        <time>2020-07-31T04:38:57.000Z</time>
      </trkpt>
      <trkpt lat="46.49128" lon="5.32957">
        <ele>237</ele>
        <time>2020-07-31T04:38:58.000Z</time>
      </trkpt>
      <trkpt lat="46.49128" lon="5.32946">
        <ele>237</ele>
        <time>2020-07-31T04:38:59.000Z</time>
      </trkpt>
      <trkpt lat="46.49127" lon="5.32924">
        <ele>237</ele>
        <time>2020-07-31T04:39:01.000Z</time>
      </trkpt>
      <trkpt lat="46.49127" lon="5.32902">
        <ele>236.80000305176</ele>
        <time>2020-07-31T04:39:03.000Z</time>
      </trkpt>
      <trkpt lat="46.49129" lon="5.32892">
        <ele>236.39999389648</ele>
        <time>2020-07-31T04:39:04.000Z</time>
      </trkpt>
      <trkpt lat="46.49131" lon="5.32882">
        <ele>236.19999694824</ele>
        <time>2020-07-31T04:39:05.000Z</time>
      </trkpt>
      <trkpt lat="46.49136" lon="5.32863">
        <ele>235.80000305176</ele>
        <time>2020-07-31T04:39:07.000Z</time>
      </trkpt>
      <trkpt lat="46.49142" lon="5.32844">
        <ele>235.60000610352</ele>
        <time>2020-07-31T04:39:09.000Z</time>
      </trkpt>
      <trkpt lat="46.49144" lon="5.32834">
        <ele>235.60000610352</ele>
        <time>2020-07-31T04:39:10.000Z</time>
      </trkpt>
      <trkpt lat="46.49146" lon="5.32824">
        <ele>235.60000610352</ele>
        <time>2020-07-31T04:39:11.000Z</time>
      </trkpt>
      <trkpt lat="46.49146" lon="5.32803">
        <ele>235.60000610352</ele>
        <time>2020-07-31T04:39:13.000Z</time>
      </trkpt>
      <trkpt lat="46.49144" lon="5.32785">
        <ele>235.60000610352</ele>
        <time>2020-07-31T04:39:15.000Z</time>
      </trkpt>
      <trkpt lat="46.49141" lon="5.32767">
        <ele>235.60000610352</ele>
        <time>2020-07-31T04:39:17.000Z</time>
      </trkpt>
      <trkpt lat="46.49138" lon="5.32749">
        <ele>235.80000305176</ele>
        <time>2020-07-31T04:39:19.000Z</time>
      </trkpt>
      <trkpt lat="46.4913" lon="5.32723">
        <ele>236.39999389648</ele>
        <time>2020-07-31T04:39:22.000Z</time>
      </trkpt>
      <trkpt lat="46.49127" lon="5.32715">
        <ele>236.39999389648</ele>
        <time>2020-07-31T04:39:23.000Z</time>
      </trkpt>
      <trkpt lat="46.49122" lon="5.32707">
        <ele>236.60000610352</ele>
        <time>2020-07-31T04:39:24.000Z</time>
      </trkpt>
      <trkpt lat="46.49117" lon="5.32701">
        <ele>236.60000610352</ele>
        <time>2020-07-31T04:39:25.000Z</time>
      </trkpt>
      <trkpt lat="46.49104" lon="5.32695">
        <ele>236.60000610352</ele>
        <time>2020-07-31T04:39:27.000Z</time>
      </trkpt>
      <trkpt lat="46.49089" lon="5.32696">
        <ele>236.60000610352</ele>
        <time>2020-07-31T04:39:29.000Z</time>
      </trkpt>
      <trkpt lat="46.49072" lon="5.32701">
        <ele>236.60000610352</ele>
        <time>2020-07-31T04:39:31.000Z</time>
      </trkpt>
      <trkpt lat="46.49055" lon="5.32704">
        <ele>236.60000610352</ele>
        <time>2020-07-31T04:39:33.000Z</time>
      </trkpt>
      <trkpt lat="46.49037" lon="5.32708">
        <ele>236.19999694824</ele>
        <time>2020-07-31T04:39:35.000Z</time>
      </trkpt>
      <trkpt lat="46.49028" lon="5.3271">
        <ele>235.80000305176</ele>
        <time>2020-07-31T04:39:36.000Z</time>
      </trkpt>
      <trkpt lat="46.49018" lon="5.32711">
        <ele>235.60000610352</ele>
        <time>2020-07-31T04:39:37.000Z</time>
      </trkpt>
      <trkpt lat="46.49009" lon="5.32712">
        <ele>235</ele>
        <time>2020-07-31T04:39:38.000Z</time>
      </trkpt>
      <trkpt lat="46.48999" lon="5.32713">
        <ele>234.39999389648</ele>
        <time>2020-07-31T04:39:39.000Z</time>
      </trkpt>
      <trkpt lat="46.48989" lon="5.32713">
        <ele>234</ele>
        <time>2020-07-31T04:39:40.000Z</time>
      </trkpt>
      <trkpt lat="46.48979" lon="5.32712">
        <ele>233.39999389648</ele>
        <time>2020-07-31T04:39:41.000Z</time>
      </trkpt>
      <trkpt lat="46.48969" lon="5.32709">
        <ele>232.80000305176</ele>
        <time>2020-07-31T04:39:42.000Z</time>
      </trkpt>
      <trkpt lat="46.48959" lon="5.32703">
        <ele>232.19999694824</ele>
        <time>2020-07-31T04:39:43.000Z</time>
      </trkpt>
      <trkpt lat="46.4895" lon="5.32695">
        <ele>231.60000610352</ele>
        <time>2020-07-31T04:39:44.000Z</time>
      </trkpt>
      <trkpt lat="46.48941" lon="5.32685">
        <ele>231</ele>
        <time>2020-07-31T04:39:45.000Z</time>
      </trkpt>
      <trkpt lat="46.48934" lon="5.32675">
        <ele>230.39999389648</ele>
        <time>2020-07-31T04:39:46.000Z</time>
      </trkpt>
      <trkpt lat="46.48927" lon="5.32665">
        <ele>229.60000610352</ele>
        <time>2020-07-31T04:39:47.000Z</time>
      </trkpt>
      <trkpt lat="46.48922" lon="5.32653">
        <ele>228.80000305176</ele>
        <time>2020-07-31T04:39:48.000Z</time>
      </trkpt>
      <trkpt lat="46.48919" lon="5.32639">
        <ele>228.19999694824</ele>
        <time>2020-07-31T04:39:49.000Z</time>
      </trkpt>
      <trkpt lat="46.4892" lon="5.32624">
        <ele>227.60000610352</ele>
        <time>2020-07-31T04:39:50.000Z</time>
      </trkpt>
      <trkpt lat="46.48924" lon="5.32609">
        <ele>226.80000305176</ele>
        <time>2020-07-31T04:39:51.000Z</time>
      </trkpt>
      <trkpt lat="46.48929" lon="5.32596">
        <ele>226</ele>
        <time>2020-07-31T04:39:52.000Z</time>
      </trkpt>
      <trkpt lat="46.48936" lon="5.32585">
        <ele>225</ele>
        <time>2020-07-31T04:39:53.000Z</time>
      </trkpt>
      <trkpt lat="46.48944" lon="5.32575">
        <ele>224.19999694824</ele>
        <time>2020-07-31T04:39:54.000Z</time>
      </trkpt>
      <trkpt lat="46.48951" lon="5.32563">
        <ele>223.80000305176</ele>
        <time>2020-07-31T04:39:55.000Z</time>
      </trkpt>
      <trkpt lat="46.48955" lon="5.32552">
        <ele>223.39999389648</ele>
        <time>2020-07-31T04:39:56.000Z</time>
      </trkpt>
      <trkpt lat="46.48958" lon="5.32538">
        <ele>223</ele>
        <time>2020-07-31T04:39:57.000Z</time>
      </trkpt>
      <trkpt lat="46.48957" lon="5.32525">
        <ele>222</ele>
        <time>2020-07-31T04:39:58.000Z</time>
      </trkpt>
      <trkpt lat="46.48955" lon="5.32512">
        <ele>221</ele>
        <time>2020-07-31T04:39:59.000Z</time>
      </trkpt>
      <trkpt lat="46.48948" lon="5.32487">
        <ele>219.60000610352</ele>
        <time>2020-07-31T04:40:01.000Z</time>
      </trkpt>
      <trkpt lat="46.48941" lon="5.32465">
        <ele>219</ele>
        <time>2020-07-31T04:40:03.000Z</time>
      </trkpt>
      <trkpt lat="46.48934" lon="5.32441">
        <ele>218.80000305176</ele>
        <time>2020-07-31T04:40:05.000Z</time>
      </trkpt>
      <trkpt lat="46.48931" lon="5.3243">
        <ele>218.80000305176</ele>
        <time>2020-07-31T04:40:06.000Z</time>
      </trkpt>
      <trkpt lat="46.48929" lon="5.32419">
        <ele>218.80000305176</ele>
        <time>2020-07-31T04:40:07.000Z</time>
      </trkpt>
      <trkpt lat="46.48923" lon="5.324">
        <ele>218.80000305176</ele>
        <time>2020-07-31T04:40:09.000Z</time>
      </trkpt>
      <trkpt lat="46.48918" lon="5.3238">
        <ele>218.80000305176</ele>
        <time>2020-07-31T04:40:11.000Z</time>
      </trkpt>
      <trkpt lat="46.48912" lon="5.32361">
        <ele>218.80000305176</ele>
        <time>2020-07-31T04:40:13.000Z</time>
      </trkpt>
      <trkpt lat="46.48908" lon="5.32352">
        <ele>218.80000305176</ele>
        <time>2020-07-31T04:40:14.000Z</time>
      </trkpt>
      <trkpt lat="46.48904" lon="5.32344">
        <ele>219</ele>
        <time>2020-07-31T04:40:15.000Z</time>
      </trkpt>
      <trkpt lat="46.48897" lon="5.32328">
        <ele>219</ele>
        <time>2020-07-31T04:40:17.000Z</time>
      </trkpt>
      <trkpt lat="46.48892" lon="5.3232">
        <ele>219.19999694824</ele>
        <time>2020-07-31T04:40:18.000Z</time>
      </trkpt>
      <trkpt lat="46.48888" lon="5.32314">
        <ele>219.39999389648</ele>
        <time>2020-07-31T04:40:19.000Z</time>
      </trkpt>
      <trkpt lat="46.48881" lon="5.32302">
        <ele>219.60000610352</ele>
        <time>2020-07-31T04:40:21.000Z</time>
      </trkpt>
      <trkpt lat="46.48877" lon="5.32296">
        <ele>219.80000305176</ele>
        <time>2020-07-31T04:40:22.000Z</time>
      </trkpt>
      <trkpt lat="46.48874" lon="5.32291">
        <ele>220</ele>
        <time>2020-07-31T04:40:23.000Z</time>
      </trkpt>
      <trkpt lat="46.48867" lon="5.32281">
        <ele>220.60000610352</ele>
        <time>2020-07-31T04:40:25.000Z</time>
      </trkpt>
      <trkpt lat="46.48861" lon="5.32273">
        <ele>221.39999389648</ele>
        <time>2020-07-31T04:40:27.000Z</time>
      </trkpt>
      <trkpt lat="46.48858" lon="5.32269">
        <ele>222</ele>
        <time>2020-07-31T04:40:28.000Z</time>
      </trkpt>
      <trkpt lat="46.48855" lon="5.32264">
        <ele>222.60000610352</ele>
        <time>2020-07-31T04:40:29.000Z</time>
      </trkpt>
      <trkpt lat="46.48852" lon="5.3226">
        <ele>223.19999694824</ele>
        <time>2020-07-31T04:40:30.000Z</time>
      </trkpt>
      <trkpt lat="46.4885" lon="5.32256">
        <ele>223.80000305176</ele>
        <time>2020-07-31T04:40:31.000Z</time>
      </trkpt>
      <trkpt lat="46.48847" lon="5.32251">
        <ele>224.19999694824</ele>
        <time>2020-07-31T04:40:32.000Z</time>
      </trkpt>
      <trkpt lat="46.48844" lon="5.32247">
        <ele>225.19999694824</ele>
        <time>2020-07-31T04:40:33.000Z</time>
      </trkpt>
      <trkpt lat="46.48839" lon="5.32237">
        <ele>226.60000610352</ele>
        <time>2020-07-31T04:40:35.000Z</time>
      </trkpt>
      <trkpt lat="46.48837" lon="5.32231">
        <ele>227</ele>
        <time>2020-07-31T04:40:36.000Z</time>
      </trkpt>
      <trkpt lat="46.48835" lon="5.32225">
        <ele>227.39999389648</ele>
        <time>2020-07-31T04:40:37.000Z</time>
      </trkpt>
      <trkpt lat="46.48833" lon="5.32217">
        <ele>227.80000305176</ele>
        <time>2020-07-31T04:40:38.000Z</time>
      </trkpt>
      <trkpt lat="46.48832" lon="5.3221">
        <ele>228.19999694824</ele>
        <time>2020-07-31T04:40:39.000Z</time>
      </trkpt>
      <trkpt lat="46.4883" lon="5.32201">
        <ele>228.19999694824</ele>
        <time>2020-07-31T04:40:40.000Z</time>
      </trkpt>
      <trkpt lat="46.48829" lon="5.32193">
        <ele>228.19999694824</ele>
        <time>2020-07-31T04:40:41.000Z</time>
      </trkpt>
      <trkpt lat="46.48828" lon="5.32184">
        <ele>228.39999389648</ele>
        <time>2020-07-31T04:40:42.000Z</time>
      </trkpt>
      <trkpt lat="46.48827" lon="5.32174">
        <ele>228.39999389648</ele>
        <time>2020-07-31T04:40:43.000Z</time>
      </trkpt>
      <trkpt lat="46.48826" lon="5.32155">
        <ele>228.39999389648</ele>
        <time>2020-07-31T04:40:45.000Z</time>
      </trkpt>
      <trkpt lat="46.48827" lon="5.32134">
        <ele>228.39999389648</ele>
        <time>2020-07-31T04:40:47.000Z</time>
      </trkpt>
      <trkpt lat="46.48831" lon="5.32102">
        <ele>227.60000610352</ele>
        <time>2020-07-31T04:40:50.000Z</time>
      </trkpt>
      <trkpt lat="46.48835" lon="5.32082">
        <ele>227</ele>
        <time>2020-07-31T04:40:52.000Z</time>
      </trkpt>
      <trkpt lat="46.48837" lon="5.32071">
        <ele>226.60000610352</ele>
        <time>2020-07-31T04:40:53.000Z</time>
      </trkpt>
      <trkpt lat="46.48839" lon="5.32061">
        <ele>226.39999389648</ele>
        <time>2020-07-31T04:40:54.000Z</time>
      </trkpt>
      <trkpt lat="46.48843" lon="5.3204">
        <ele>225.60000610352</ele>
        <time>2020-07-31T04:40:56.000Z</time>
      </trkpt>
      <trkpt lat="46.48846" lon="5.32018">
        <ele>224.80000305176</ele>
        <time>2020-07-31T04:40:58.000Z</time>
      </trkpt>
      <trkpt lat="46.48848" lon="5.32008">
        <ele>224.60000610352</ele>
        <time>2020-07-31T04:40:59.000Z</time>
      </trkpt>
      <trkpt lat="46.48849" lon="5.31997">
        <ele>224.39999389648</ele>
        <time>2020-07-31T04:41:00.000Z</time>
      </trkpt>
      <trkpt lat="46.4885" lon="5.31987">
        <ele>224.19999694824</ele>
        <time>2020-07-31T04:41:01.000Z</time>
      </trkpt>
      <trkpt lat="46.4885" lon="5.31976">
        <ele>224</ele>
        <time>2020-07-31T04:41:02.000Z</time>
      </trkpt>
      <trkpt lat="46.48849" lon="5.31954">
        <ele>223.80000305176</ele>
        <time>2020-07-31T04:41:04.000Z</time>
      </trkpt>
      <trkpt lat="46.48848" lon="5.31932">
        <ele>223.60000610352</ele>
        <time>2020-07-31T04:41:06.000Z</time>
      </trkpt>
      <trkpt lat="46.48847" lon="5.31921">
        <ele>223.39999389648</ele>
        <time>2020-07-31T04:41:07.000Z</time>
      </trkpt>
      <trkpt lat="46.48846" lon="5.3191">
        <ele>223.39999389648</ele>
        <time>2020-07-31T04:41:08.000Z</time>
      </trkpt>
      <trkpt lat="46.48843" lon="5.31888">
        <ele>223.19999694824</ele>
        <time>2020-07-31T04:41:10.000Z</time>
      </trkpt>
      <trkpt lat="46.4884" lon="5.31877">
        <ele>223</ele>
        <time>2020-07-31T04:41:11.000Z</time>
      </trkpt>
      <trkpt lat="46.48836" lon="5.31868">
        <ele>222.80000305176</ele>
        <time>2020-07-31T04:41:12.000Z</time>
      </trkpt>
      <trkpt lat="46.48824" lon="5.31854">
        <ele>222.39999389648</ele>
        <time>2020-07-31T04:41:14.000Z</time>
      </trkpt>
      <trkpt lat="46.48817" lon="5.3185">
        <ele>222.19999694824</ele>
        <time>2020-07-31T04:41:15.000Z</time>
      </trkpt>
      <trkpt lat="46.4881" lon="5.31847">
        <ele>222</ele>
        <time>2020-07-31T04:41:16.000Z</time>
      </trkpt>
      <trkpt lat="46.48796" lon="5.31839">
        <ele>221.39999389648</ele>
        <time>2020-07-31T04:41:18.000Z</time>
      </trkpt>
      <trkpt lat="46.48791" lon="5.31832">
        <ele>221.39999389648</ele>
        <time>2020-07-31T04:41:19.000Z</time>
      </trkpt>
      <trkpt lat="46.48784" lon="5.31813">
        <ele>221.19999694824</ele>
        <time>2020-07-31T04:41:21.000Z</time>
      </trkpt>
      <trkpt lat="46.48784" lon="5.31803">
        <ele>221.19999694824</ele>
        <time>2020-07-31T04:41:22.000Z</time>
      </trkpt>
      <trkpt lat="46.48783" lon="5.31793">
        <ele>221.19999694824</ele>
        <time>2020-07-31T04:41:23.000Z</time>
      </trkpt>
      <trkpt lat="46.48783" lon="5.31784">
        <ele>221.19999694824</ele>
        <time>2020-07-31T04:41:24.000Z</time>
      </trkpt>
      <trkpt lat="46.48782" lon="5.31755">
        <ele>221.19999694824</ele>
        <time>2020-07-31T04:41:27.000Z</time>
      </trkpt>
      <trkpt lat="46.48781" lon="5.31746">
        <ele>221.19999694824</ele>
        <time>2020-07-31T04:41:28.000Z</time>
      </trkpt>
      <trkpt lat="46.4878" lon="5.31737">
        <ele>221.19999694824</ele>
        <time>2020-07-31T04:41:29.000Z</time>
      </trkpt>
      <trkpt lat="46.48779" lon="5.31728">
        <ele>221.19999694824</ele>
        <time>2020-07-31T04:41:30.000Z</time>
      </trkpt>
      <trkpt lat="46.48776" lon="5.3172">
        <ele>221.39999389648</ele>
        <time>2020-07-31T04:41:31.000Z</time>
      </trkpt>
      <trkpt lat="46.48769" lon="5.31706">
        <ele>221.80000305176</ele>
        <time>2020-07-31T04:41:33.000Z</time>
      </trkpt>
      <trkpt lat="46.48763" lon="5.31694">
        <ele>221.80000305176</ele>
        <time>2020-07-31T04:41:35.000Z</time>
      </trkpt>
      <trkpt lat="46.48752" lon="5.31679">
        <ele>222</ele>
        <time>2020-07-31T04:41:38.000Z</time>
      </trkpt>
      <trkpt lat="46.48747" lon="5.31674">
        <ele>222.19999694824</ele>
        <time>2020-07-31T04:41:39.000Z</time>
      </trkpt>
      <trkpt lat="46.48739" lon="5.31664">
        <ele>222.39999389648</ele>
        <time>2020-07-31T04:41:41.000Z</time>
      </trkpt>
      <trkpt lat="46.48734" lon="5.31659">
        <ele>222.60000610352</ele>
        <time>2020-07-31T04:41:42.000Z</time>
      </trkpt>
      <trkpt lat="46.48722" lon="5.31645">
        <ele>223.19999694824</ele>
        <time>2020-07-31T04:41:45.000Z</time>
      </trkpt>
      <trkpt lat="46.48718" lon="5.3164">
        <ele>223.19999694824</ele>
        <time>2020-07-31T04:41:46.000Z</time>
      </trkpt>
      <trkpt lat="46.48707" lon="5.31625">
        <ele>223.39999389648</ele>
        <time>2020-07-31T04:41:49.000Z</time>
      </trkpt>
      <trkpt lat="46.48703" lon="5.31621">
        <ele>223.39999389648</ele>
        <time>2020-07-31T04:41:50.000Z</time>
      </trkpt>
      <trkpt lat="46.48695" lon="5.3161">
        <ele>223.39999389648</ele>
        <time>2020-07-31T04:41:52.000Z</time>
      </trkpt>
      <trkpt lat="46.48687" lon="5.316">
        <ele>223.39999389648</ele>
        <time>2020-07-31T04:41:54.000Z</time>
      </trkpt>
      <trkpt lat="46.48677" lon="5.3159">
        <ele>223.39999389648</ele>
        <time>2020-07-31T04:41:56.000Z</time>
      </trkpt>
      <trkpt lat="46.48673" lon="5.31585">
        <ele>223.39999389648</ele>
        <time>2020-07-31T04:41:57.000Z</time>
      </trkpt>
      <trkpt lat="46.48668" lon="5.31579">
        <ele>223.39999389648</ele>
        <time>2020-07-31T04:41:58.000Z</time>
      </trkpt>
      <trkpt lat="46.48659" lon="5.31569">
        <ele>223.39999389648</ele>
        <time>2020-07-31T04:42:00.000Z</time>
      </trkpt>
      <trkpt lat="46.48651" lon="5.31559">
        <ele>223.19999694824</ele>
        <time>2020-07-31T04:42:02.000Z</time>
      </trkpt>
      <trkpt lat="46.48647" lon="5.31554">
        <ele>223.19999694824</ele>
        <time>2020-07-31T04:42:03.000Z</time>
      </trkpt>
      <trkpt lat="46.48643" lon="5.31549">
        <ele>223</ele>
        <time>2020-07-31T04:42:04.000Z</time>
      </trkpt>
      <trkpt lat="46.48634" lon="5.31538">
        <ele>223.19999694824</ele>
        <time>2020-07-31T04:42:06.000Z</time>
      </trkpt>
      <trkpt lat="46.48627" lon="5.31525">
        <ele>223</ele>
        <time>2020-07-31T04:42:08.000Z</time>
      </trkpt>
      <trkpt lat="46.48621" lon="5.31507">
        <ele>223</ele>
        <time>2020-07-31T04:42:10.000Z</time>
      </trkpt>
      <trkpt lat="46.4862" lon="5.31488">
        <ele>223</ele>
        <time>2020-07-31T04:42:12.000Z</time>
      </trkpt>
      <trkpt lat="46.48618" lon="5.31466">
        <ele>222.80000305176</ele>
        <time>2020-07-31T04:42:14.000Z</time>
      </trkpt>
      <trkpt lat="46.48615" lon="5.31445">
        <ele>222.60000610352</ele>
        <time>2020-07-31T04:42:16.000Z</time>
      </trkpt>
      <trkpt lat="46.48612" lon="5.31436">
        <ele>222.60000610352</ele>
        <time>2020-07-31T04:42:17.000Z</time>
      </trkpt>
      <trkpt lat="46.48609" lon="5.31429">
        <ele>222.60000610352</ele>
        <time>2020-07-31T04:42:18.000Z</time>
      </trkpt>
      <trkpt lat="46.48601" lon="5.31414">
        <ele>222.60000610352</ele>
        <time>2020-07-31T04:42:20.000Z</time>
      </trkpt>
      <trkpt lat="46.48597" lon="5.31408">
        <ele>222.60000610352</ele>
        <time>2020-07-31T04:42:21.000Z</time>
      </trkpt>
      <trkpt lat="46.48592" lon="5.31403">
        <ele>222.60000610352</ele>
        <time>2020-07-31T04:42:22.000Z</time>
      </trkpt>
      <trkpt lat="46.48584" lon="5.31392">
        <ele>222.80000305176</ele>
        <time>2020-07-31T04:42:24.000Z</time>
      </trkpt>
      <trkpt lat="46.48577" lon="5.31382">
        <ele>223.39999389648</ele>
        <time>2020-07-31T04:42:26.000Z</time>
      </trkpt>
      <trkpt lat="46.48574" lon="5.31377">
        <ele>224</ele>
        <time>2020-07-31T04:42:27.000Z</time>
      </trkpt>
      <trkpt lat="46.48571" lon="5.31371">
        <ele>224.19999694824</ele>
        <time>2020-07-31T04:42:28.000Z</time>
      </trkpt>
      <trkpt lat="46.48569" lon="5.31365">
        <ele>225</ele>
        <time>2020-07-31T04:42:29.000Z</time>
      </trkpt>
      <trkpt lat="46.48567" lon="5.31358">
        <ele>225.39999389648</ele>
        <time>2020-07-31T04:42:30.000Z</time>
      </trkpt>
      <trkpt lat="46.48566" lon="5.31353">
        <ele>225.80000305176</ele>
        <time>2020-07-31T04:42:31.000Z</time>
      </trkpt>
      <trkpt lat="46.48565" lon="5.31347">
        <ele>226.19999694824</ele>
        <time>2020-07-31T04:42:32.000Z</time>
      </trkpt>
      <trkpt lat="46.48564" lon="5.31341">
        <ele>226.39999389648</ele>
        <time>2020-07-31T04:42:33.000Z</time>
      </trkpt>
      <trkpt lat="46.48563" lon="5.31335">
        <ele>226.80000305176</ele>
        <time>2020-07-31T04:42:34.000Z</time>
      </trkpt>
      <trkpt lat="46.48562" lon="5.31324">
        <ele>227.19999694824</ele>
        <time>2020-07-31T04:42:36.000Z</time>
      </trkpt>
      <trkpt lat="46.48562" lon="5.31317">
        <ele>227.60000610352</ele>
        <time>2020-07-31T04:42:37.000Z</time>
      </trkpt>
      <trkpt lat="46.4856" lon="5.31304">
        <ele>228.19999694824</ele>
        <time>2020-07-31T04:42:39.000Z</time>
      </trkpt>
      <trkpt lat="46.48559" lon="5.31297">
        <ele>228.39999389648</ele>
        <time>2020-07-31T04:42:40.000Z</time>
      </trkpt>
      <trkpt lat="46.48558" lon="5.31289">
        <ele>228.80000305176</ele>
        <time>2020-07-31T04:42:41.000Z</time>
      </trkpt>
      <trkpt lat="46.48557" lon="5.31273">
        <ele>229.19999694824</ele>
        <time>2020-07-31T04:42:43.000Z</time>
      </trkpt>
      <trkpt lat="46.48557" lon="5.31257">
        <ele>229.39999389648</ele>
        <time>2020-07-31T04:42:45.000Z</time>
      </trkpt>
      <trkpt lat="46.48558" lon="5.31249">
        <ele>229.39999389648</ele>
        <time>2020-07-31T04:42:46.000Z</time>
      </trkpt>
      <trkpt lat="46.48559" lon="5.31242">
        <ele>229.60000610352</ele>
        <time>2020-07-31T04:42:47.000Z</time>
      </trkpt>
      <trkpt lat="46.4856" lon="5.31235">
        <ele>229.60000610352</ele>
        <time>2020-07-31T04:42:48.000Z</time>
      </trkpt>
      <trkpt lat="46.48565" lon="5.31222">
        <ele>229.60000610352</ele>
        <time>2020-07-31T04:42:50.000Z</time>
      </trkpt>
      <trkpt lat="46.48568" lon="5.31216">
        <ele>229.60000610352</ele>
        <time>2020-07-31T04:42:51.000Z</time>
      </trkpt>
      <trkpt lat="46.4857" lon="5.3121">
        <ele>229.60000610352</ele>
        <time>2020-07-31T04:42:52.000Z</time>
      </trkpt>
      <trkpt lat="46.48573" lon="5.31204">
        <ele>229.60000610352</ele>
        <time>2020-07-31T04:42:53.000Z</time>
      </trkpt>
      <trkpt lat="46.48579" lon="5.31192">
        <ele>229.80000305176</ele>
        <time>2020-07-31T04:42:55.000Z</time>
      </trkpt>
      <trkpt lat="46.48584" lon="5.3118">
        <ele>230</ele>
        <time>2020-07-31T04:42:57.000Z</time>
      </trkpt>
      <trkpt lat="46.4859" lon="5.31168">
        <ele>230.19999694824</ele>
        <time>2020-07-31T04:42:59.000Z</time>
      </trkpt>
      <trkpt lat="46.48592" lon="5.31163">
        <ele>230.39999389648</ele>
        <time>2020-07-31T04:43:00.000Z</time>
      </trkpt>
      <trkpt lat="46.48595" lon="5.31157">
        <ele>230.60000610352</ele>
        <time>2020-07-31T04:43:01.000Z</time>
      </trkpt>
      <trkpt lat="46.48598" lon="5.31151">
        <ele>230.80000305176</ele>
        <time>2020-07-31T04:43:02.000Z</time>
      </trkpt>
      <trkpt lat="46.48603" lon="5.3114">
        <ele>231.19999694824</ele>
        <time>2020-07-31T04:43:04.000Z</time>
      </trkpt>
      <trkpt lat="46.48608" lon="5.31128">
        <ele>231.39999389648</ele>
        <time>2020-07-31T04:43:06.000Z</time>
      </trkpt>
      <trkpt lat="46.48611" lon="5.31123">
        <ele>231.60000610352</ele>
        <time>2020-07-31T04:43:07.000Z</time>
      </trkpt>
      <trkpt lat="46.48613" lon="5.31117">
        <ele>231.80000305176</ele>
        <time>2020-07-31T04:43:08.000Z</time>
      </trkpt>
      <trkpt lat="46.48618" lon="5.31106">
        <ele>232.19999694824</ele>
        <time>2020-07-31T04:43:10.000Z</time>
      </trkpt>
      <trkpt lat="46.48624" lon="5.31094">
        <ele>232.39999389648</ele>
        <time>2020-07-31T04:43:12.000Z</time>
      </trkpt>
      <trkpt lat="46.48626" lon="5.31089">
        <ele>232.80000305176</ele>
        <time>2020-07-31T04:43:13.000Z</time>
      </trkpt>
      <trkpt lat="46.48629" lon="5.31083">
        <ele>233</ele>
        <time>2020-07-31T04:43:14.000Z</time>
      </trkpt>
      <trkpt lat="46.48635" lon="5.31071">
        <ele>233.19999694824</ele>
        <time>2020-07-31T04:43:16.000Z</time>
      </trkpt>
      <trkpt lat="46.4864" lon="5.3106">
        <ele>233.39999389648</ele>
        <time>2020-07-31T04:43:18.000Z</time>
      </trkpt>
      <trkpt lat="46.48648" lon="5.31042">
        <ele>233.80000305176</ele>
        <time>2020-07-31T04:43:21.000Z</time>
      </trkpt>
      <trkpt lat="46.48651" lon="5.31036">
        <ele>233.80000305176</ele>
        <time>2020-07-31T04:43:22.000Z</time>
      </trkpt>
      <trkpt lat="46.48656" lon="5.31025">
        <ele>234</ele>
        <time>2020-07-31T04:43:24.000Z</time>
      </trkpt>
      <trkpt lat="46.48659" lon="5.31019">
        <ele>234.19999694824</ele>
        <time>2020-07-31T04:43:25.000Z</time>
      </trkpt>
      <trkpt lat="46.48665" lon="5.31007">
        <ele>234.80000305176</ele>
        <time>2020-07-31T04:43:27.000Z</time>
      </trkpt>
      <trkpt lat="46.48668" lon="5.31001">
        <ele>234.80000305176</ele>
        <time>2020-07-31T04:43:28.000Z</time>
      </trkpt>
      <trkpt lat="46.48673" lon="5.30989">
        <ele>235</ele>
        <time>2020-07-31T04:43:30.000Z</time>
      </trkpt>
      <trkpt lat="46.48683" lon="5.30971">
        <ele>235.39999389648</ele>
        <time>2020-07-31T04:43:33.000Z</time>
      </trkpt>
      <trkpt lat="46.48689" lon="5.30957">
        <ele>235.60000610352</ele>
        <time>2020-07-31T04:43:35.000Z</time>
      </trkpt>
      <trkpt lat="46.48692" lon="5.3095">
        <ele>235.60000610352</ele>
        <time>2020-07-31T04:43:36.000Z</time>
      </trkpt>
      <trkpt lat="46.48696" lon="5.30943">
        <ele>235.60000610352</ele>
        <time>2020-07-31T04:43:37.000Z</time>
      </trkpt>
      <trkpt lat="46.48704" lon="5.30928">
        <ele>235.60000610352</ele>
        <time>2020-07-31T04:43:39.000Z</time>
      </trkpt>
      <trkpt lat="46.48709" lon="5.30921">
        <ele>235.60000610352</ele>
        <time>2020-07-31T04:43:40.000Z</time>
      </trkpt>
      <trkpt lat="46.48714" lon="5.30915">
        <ele>235.60000610352</ele>
        <time>2020-07-31T04:43:41.000Z</time>
      </trkpt>
      <trkpt lat="46.48719" lon="5.30907">
        <ele>235.60000610352</ele>
        <time>2020-07-31T04:43:42.000Z</time>
      </trkpt>
      <trkpt lat="46.48723" lon="5.30898">
        <ele>235.80000305176</ele>
        <time>2020-07-31T04:43:43.000Z</time>
      </trkpt>
      <trkpt lat="46.48724" lon="5.30888">
        <ele>235.80000305176</ele>
        <time>2020-07-31T04:43:44.000Z</time>
      </trkpt>
      <trkpt lat="46.48724" lon="5.30877">
        <ele>235.60000610352</ele>
        <time>2020-07-31T04:43:45.000Z</time>
      </trkpt>
      <trkpt lat="46.48718" lon="5.30859">
        <ele>235</ele>
        <time>2020-07-31T04:43:47.000Z</time>
      </trkpt>
      <trkpt lat="46.48707" lon="5.30845">
        <ele>234</ele>
        <time>2020-07-31T04:43:49.000Z</time>
      </trkpt>
      <trkpt lat="46.48701" lon="5.30839">
        <ele>233.60000610352</ele>
        <time>2020-07-31T04:43:50.000Z</time>
      </trkpt>
      <trkpt lat="46.48694" lon="5.30834">
        <ele>233.19999694824</ele>
        <time>2020-07-31T04:43:51.000Z</time>
      </trkpt>
      <trkpt lat="46.48687" lon="5.30829">
        <ele>232.39999389648</ele>
        <time>2020-07-31T04:43:52.000Z</time>
      </trkpt>
      <trkpt lat="46.48679" lon="5.30825">
        <ele>231.80000305176</ele>
        <time>2020-07-31T04:43:53.000Z</time>
      </trkpt>
      <trkpt lat="46.48665" lon="5.30816">
        <ele>231.19999694824</ele>
        <time>2020-07-31T04:43:55.000Z</time>
      </trkpt>
      <trkpt lat="46.48649" lon="5.30806">
        <ele>230.80000305176</ele>
        <time>2020-07-31T04:43:57.000Z</time>
      </trkpt>
      <trkpt lat="46.48634" lon="5.30796">
        <ele>230.39999389648</ele>
        <time>2020-07-31T04:43:59.000Z</time>
      </trkpt>
      <trkpt lat="46.48627" lon="5.30791">
        <ele>230.19999694824</ele>
        <time>2020-07-31T04:44:00.000Z</time>
      </trkpt>
      <trkpt lat="46.4862" lon="5.30786">
        <ele>229.80000305176</ele>
        <time>2020-07-31T04:44:01.000Z</time>
      </trkpt>
      <trkpt lat="46.48607" lon="5.30776">
        <ele>229.39999389648</ele>
        <time>2020-07-31T04:44:03.000Z</time>
      </trkpt>
      <trkpt lat="46.48601" lon="5.30771">
        <ele>229.39999389648</ele>
        <time>2020-07-31T04:44:04.000Z</time>
      </trkpt>
      <trkpt lat="46.48595" lon="5.30766">
        <ele>229.39999389648</ele>
        <time>2020-07-31T04:44:05.000Z</time>
      </trkpt>
      <trkpt lat="46.48584" lon="5.30756">
        <ele>229.19999694824</ele>
        <time>2020-07-31T04:44:07.000Z</time>
      </trkpt>
      <trkpt lat="46.48574" lon="5.30745">
        <ele>229.19999694824</ele>
        <time>2020-07-31T04:44:09.000Z</time>
      </trkpt>
      <trkpt lat="46.4857" lon="5.30739">
        <ele>229.19999694824</ele>
        <time>2020-07-31T04:44:10.000Z</time>
      </trkpt>
      <trkpt lat="46.48566" lon="5.30733">
        <ele>229.19999694824</ele>
        <time>2020-07-31T04:44:11.000Z</time>
      </trkpt>
      <trkpt lat="46.48559" lon="5.3072">
        <ele>229.80000305176</ele>
        <time>2020-07-31T04:44:13.000Z</time>
      </trkpt>
      <trkpt lat="46.48556" lon="5.30713">
        <ele>230.39999389648</ele>
        <time>2020-07-31T04:44:14.000Z</time>
      </trkpt>
      <trkpt lat="46.48554" lon="5.30706">
        <ele>230.60000610352</ele>
        <time>2020-07-31T04:44:15.000Z</time>
      </trkpt>
      <trkpt lat="46.48552" lon="5.30699">
        <ele>230.80000305176</ele>
        <time>2020-07-31T04:44:16.000Z</time>
      </trkpt>
      <trkpt lat="46.48549" lon="5.30685">
        <ele>231.39999389648</ele>
        <time>2020-07-31T04:44:18.000Z</time>
      </trkpt>
      <trkpt lat="46.48547" lon="5.30672">
        <ele>231.80000305176</ele>
        <time>2020-07-31T04:44:20.000Z</time>
      </trkpt>
      <trkpt lat="46.48547" lon="5.30667">
        <ele>232.19999694824</ele>
        <time>2020-07-31T04:44:21.000Z</time>
      </trkpt>
      <trkpt lat="46.48547" lon="5.30661">
        <ele>232.39999389648</ele>
        <time>2020-07-31T04:44:22.000Z</time>
      </trkpt>
      <trkpt lat="46.48547" lon="5.30656">
        <ele>232.60000610352</ele>
        <time>2020-07-31T04:44:23.000Z</time>
      </trkpt>
      <trkpt lat="46.48548" lon="5.30646">
        <ele>233</ele>
        <time>2020-07-31T04:44:25.000Z</time>
      </trkpt>
      <trkpt lat="46.48548" lon="5.3064">
        <ele>233.60000610352</ele>
        <time>2020-07-31T04:44:26.000Z</time>
      </trkpt>
      <trkpt lat="46.48548" lon="5.30628">
        <ele>234.19999694824</ele>
        <time>2020-07-31T04:44:28.000Z</time>
      </trkpt>
      <trkpt lat="46.4855" lon="5.30616">
        <ele>234.80000305176</ele>
        <time>2020-07-31T04:44:30.000Z</time>
      </trkpt>
      <trkpt lat="46.48551" lon="5.30599">
        <ele>235.80000305176</ele>
        <time>2020-07-31T04:44:33.000Z</time>
      </trkpt>
      <trkpt lat="46.48553" lon="5.30589">
        <ele>236.19999694824</ele>
        <time>2020-07-31T04:44:35.000Z</time>
      </trkpt>
      <trkpt lat="46.48556" lon="5.30571">
        <ele>236.80000305176</ele>
        <time>2020-07-31T04:44:38.000Z</time>
      </trkpt>
      <trkpt lat="46.48558" lon="5.3056">
        <ele>237</ele>
        <time>2020-07-31T04:44:40.000Z</time>
      </trkpt>
      <trkpt lat="46.4856" lon="5.30546">
        <ele>237.60000610352</ele>
        <time>2020-07-31T04:44:42.000Z</time>
      </trkpt>
      <trkpt lat="46.48561" lon="5.30538">
        <ele>237.80000305176</ele>
        <time>2020-07-31T04:44:43.000Z</time>
      </trkpt>
      <trkpt lat="46.48561" lon="5.30526">
        <ele>237.80000305176</ele>
        <time>2020-07-31T04:44:45.000Z</time>
      </trkpt>
      <trkpt lat="46.48561" lon="5.3052">
        <ele>237.80000305176</ele>
        <time>2020-07-31T04:44:46.000Z</time>
      </trkpt>
      <trkpt lat="46.4856" lon="5.30515">
        <ele>237.80000305176</ele>
        <time>2020-07-31T04:44:47.000Z</time>
      </trkpt>
      <trkpt lat="46.48558" lon="5.30511">
        <ele>238.19999694824</ele>
        <time>2020-07-31T04:44:48.000Z</time>
      </trkpt>
      <trkpt lat="46.48555" lon="5.30507">
        <ele>238.19999694824</ele>
        <time>2020-07-31T04:44:49.000Z</time>
      </trkpt>
      <trkpt lat="46.48548" lon="5.30503">
        <ele>238.60000610352</ele>
        <time>2020-07-31T04:44:51.000Z</time>
      </trkpt>
      <trkpt lat="46.48545" lon="5.30504">
        <ele>238.80000305176</ele>
        <time>2020-07-31T04:44:52.000Z</time>
      </trkpt>
      <trkpt lat="46.4854" lon="5.30506">
        <ele>239</ele>
        <time>2020-07-31T04:44:53.000Z</time>
      </trkpt>
      <trkpt lat="46.48536" lon="5.30508">
        <ele>239.19999694824</ele>
        <time>2020-07-31T04:44:54.000Z</time>
      </trkpt>
      <trkpt lat="46.48532" lon="5.30509">
        <ele>239.19999694824</ele>
        <time>2020-07-31T04:44:55.000Z</time>
      </trkpt>
      <trkpt lat="46.48522" lon="5.30515">
        <ele>239.19999694824</ele>
        <time>2020-07-31T04:44:57.000Z</time>
      </trkpt>
      <trkpt lat="46.48513" lon="5.30522">
        <ele>239.19999694824</ele>
        <time>2020-07-31T04:44:59.000Z</time>
      </trkpt>
      <trkpt lat="46.48503" lon="5.30529">
        <ele>239.19999694824</ele>
        <time>2020-07-31T04:45:01.000Z</time>
      </trkpt>
      <trkpt lat="46.48494" lon="5.30538">
        <ele>239.19999694824</ele>
        <time>2020-07-31T04:45:03.000Z</time>
      </trkpt>
      <trkpt lat="46.48489" lon="5.30543">
        <ele>239.19999694824</ele>
        <time>2020-07-31T04:45:04.000Z</time>
      </trkpt>
      <trkpt lat="46.48483" lon="5.30548">
        <ele>239.19999694824</ele>
        <time>2020-07-31T04:45:05.000Z</time>
      </trkpt>
      <trkpt lat="46.48472" lon="5.30557">
        <ele>239.19999694824</ele>
        <time>2020-07-31T04:45:07.000Z</time>
      </trkpt>
      <trkpt lat="46.48461" lon="5.30567">
        <ele>239.19999694824</ele>
        <time>2020-07-31T04:45:09.000Z</time>
      </trkpt>
      <trkpt lat="46.4845" lon="5.30578">
        <ele>238.80000305176</ele>
        <time>2020-07-31T04:45:11.000Z</time>
      </trkpt>
      <trkpt lat="46.48439" lon="5.30588">
        <ele>238.60000610352</ele>
        <time>2020-07-31T04:45:13.000Z</time>
      </trkpt>
      <trkpt lat="46.48427" lon="5.30599">
        <ele>238.39999389648</ele>
        <time>2020-07-31T04:45:15.000Z</time>
      </trkpt>
      <trkpt lat="46.48416" lon="5.3061">
        <ele>238.19999694824</ele>
        <time>2020-07-31T04:45:17.000Z</time>
      </trkpt>
      <trkpt lat="46.48404" lon="5.30621">
        <ele>237.80000305176</ele>
        <time>2020-07-31T04:45:19.000Z</time>
      </trkpt>
      <trkpt lat="46.48392" lon="5.30632">
        <ele>237.60000610352</ele>
        <time>2020-07-31T04:45:21.000Z</time>
      </trkpt>
      <trkpt lat="46.48386" lon="5.30638">
        <ele>237.80000305176</ele>
        <time>2020-07-31T04:45:22.000Z</time>
      </trkpt>
      <trkpt lat="46.4838" lon="5.30644">
        <ele>237.39999389648</ele>
        <time>2020-07-31T04:45:23.000Z</time>
      </trkpt>
      <trkpt lat="46.48368" lon="5.30655">
        <ele>237.39999389648</ele>
        <time>2020-07-31T04:45:25.000Z</time>
      </trkpt>
      <trkpt lat="46.48356" lon="5.30666">
        <ele>237.19999694824</ele>
        <time>2020-07-31T04:45:27.000Z</time>
      </trkpt>
      <trkpt lat="46.48344" lon="5.30676">
        <ele>237.19999694824</ele>
        <time>2020-07-31T04:45:29.000Z</time>
      </trkpt>
      <trkpt lat="46.48332" lon="5.30685">
        <ele>236.60000610352</ele>
        <time>2020-07-31T04:45:31.000Z</time>
      </trkpt>
      <trkpt lat="46.48325" lon="5.30689">
        <ele>236.80000305176</ele>
        <time>2020-07-31T04:45:32.000Z</time>
      </trkpt>
      <trkpt lat="46.48319" lon="5.30692">
        <ele>236.60000610352</ele>
        <time>2020-07-31T04:45:33.000Z</time>
      </trkpt>
      <trkpt lat="46.48305" lon="5.30695">
        <ele>236.39999389648</ele>
        <time>2020-07-31T04:45:35.000Z</time>
      </trkpt>
      <trkpt lat="46.48298" lon="5.30695">
        <ele>236.39999389648</ele>
        <time>2020-07-31T04:45:36.000Z</time>
      </trkpt>
      <trkpt lat="46.48292" lon="5.30695">
        <ele>236.39999389648</ele>
        <time>2020-07-31T04:45:37.000Z</time>
      </trkpt>
      <trkpt lat="46.48278" lon="5.30692">
        <ele>236.19999694824</ele>
        <time>2020-07-31T04:45:39.000Z</time>
      </trkpt>
      <trkpt lat="46.48265" lon="5.3069">
        <ele>236.19999694824</ele>
        <time>2020-07-31T04:45:41.000Z</time>
      </trkpt>
      <trkpt lat="46.48247" lon="5.30685">
        <ele>236.19999694824</ele>
        <time>2020-07-31T04:45:44.000Z</time>
      </trkpt>
      <trkpt lat="46.48235" lon="5.30683">
        <ele>236.19999694824</ele>
        <time>2020-07-31T04:45:46.000Z</time>
      </trkpt>
      <trkpt lat="46.48224" lon="5.30682">
        <ele>236.39999389648</ele>
        <time>2020-07-31T04:45:48.000Z</time>
      </trkpt>
      <trkpt lat="46.48213" lon="5.30683">
        <ele>236.80000305176</ele>
        <time>2020-07-31T04:45:50.000Z</time>
      </trkpt>
      <trkpt lat="46.48202" lon="5.30686">
        <ele>237.39999389648</ele>
        <time>2020-07-31T04:45:52.000Z</time>
      </trkpt>
      <trkpt lat="46.48191" lon="5.30691">
        <ele>237.80000305176</ele>
        <time>2020-07-31T04:45:54.000Z</time>
      </trkpt>
      <trkpt lat="46.48186" lon="5.30693">
        <ele>237.80000305176</ele>
        <time>2020-07-31T04:45:55.000Z</time>
      </trkpt>
      <trkpt lat="46.48181" lon="5.30696">
        <ele>238.19999694824</ele>
        <time>2020-07-31T04:45:56.000Z</time>
      </trkpt>
      <trkpt lat="46.48166" lon="5.30705">
        <ele>238.80000305176</ele>
        <time>2020-07-31T04:45:59.000Z</time>
      </trkpt>
      <trkpt lat="46.48161" lon="5.30708">
        <ele>239.19999694824</ele>
        <time>2020-07-31T04:46:00.000Z</time>
      </trkpt>
      <trkpt lat="46.48156" lon="5.30711">
        <ele>239.39999389648</ele>
        <time>2020-07-31T04:46:01.000Z</time>
      </trkpt>
      <trkpt lat="46.48147" lon="5.30716">
        <ele>239.80000305176</ele>
        <time>2020-07-31T04:46:03.000Z</time>
      </trkpt>
      <trkpt lat="46.48142" lon="5.30719">
        <ele>239.80000305176</ele>
        <time>2020-07-31T04:46:04.000Z</time>
      </trkpt>
      <trkpt lat="46.48136" lon="5.30722">
        <ele>240</ele>
        <time>2020-07-31T04:46:05.000Z</time>
      </trkpt>
      <trkpt lat="46.48131" lon="5.30724">
        <ele>240.19999694824</ele>
        <time>2020-07-31T04:46:06.000Z</time>
      </trkpt>
      <trkpt lat="46.48126" lon="5.30728">
        <ele>240.39999389648</ele>
        <time>2020-07-31T04:46:07.000Z</time>
      </trkpt>
      <trkpt lat="46.48109" lon="5.30737">
        <ele>240.80000305176</ele>
        <time>2020-07-31T04:46:10.000Z</time>
      </trkpt>
      <trkpt lat="46.48099" lon="5.30742">
        <ele>241</ele>
        <time>2020-07-31T04:46:12.000Z</time>
      </trkpt>
      <trkpt lat="46.48088" lon="5.30748">
        <ele>241</ele>
        <time>2020-07-31T04:46:14.000Z</time>
      </trkpt>
      <trkpt lat="46.48071" lon="5.30757">
        <ele>241</ele>
        <time>2020-07-31T04:46:17.000Z</time>
      </trkpt>
      <trkpt lat="46.4806" lon="5.30764">
        <ele>241.39999389648</ele>
        <time>2020-07-31T04:46:19.000Z</time>
      </trkpt>
      <trkpt lat="46.48048" lon="5.3077">
        <ele>241.39999389648</ele>
        <time>2020-07-31T04:46:21.000Z</time>
      </trkpt>
      <trkpt lat="46.48042" lon="5.30774">
        <ele>241.39999389648</ele>
        <time>2020-07-31T04:46:22.000Z</time>
      </trkpt>
      <trkpt lat="46.48036" lon="5.30777">
        <ele>241.39999389648</ele>
        <time>2020-07-31T04:46:23.000Z</time>
      </trkpt>
      <trkpt lat="46.48024" lon="5.30784">
        <ele>241.39999389648</ele>
        <time>2020-07-31T04:46:25.000Z</time>
      </trkpt>
      <trkpt lat="46.48004" lon="5.30795">
        <ele>241.39999389648</ele>
        <time>2020-07-31T04:46:28.000Z</time>
      </trkpt>
      <trkpt lat="46.47991" lon="5.30802">
        <ele>241</ele>
        <time>2020-07-31T04:46:30.000Z</time>
      </trkpt>
      <trkpt lat="46.47984" lon="5.30806">
        <ele>240.80000305176</ele>
        <time>2020-07-31T04:46:31.000Z</time>
      </trkpt>
      <trkpt lat="46.47977" lon="5.30809">
        <ele>240.60000610352</ele>
        <time>2020-07-31T04:46:32.000Z</time>
      </trkpt>
      <trkpt lat="46.47962" lon="5.30814">
        <ele>240.19999694824</ele>
        <time>2020-07-31T04:46:34.000Z</time>
      </trkpt>
      <trkpt lat="46.47948" lon="5.30817">
        <ele>239.80000305176</ele>
        <time>2020-07-31T04:46:36.000Z</time>
      </trkpt>
      <trkpt lat="46.47927" lon="5.30816">
        <ele>239.39999389648</ele>
        <time>2020-07-31T04:46:39.000Z</time>
      </trkpt>
      <trkpt lat="46.47916" lon="5.30813">
        <ele>239.19999694824</ele>
        <time>2020-07-31T04:46:41.000Z</time>
      </trkpt>
      <trkpt lat="46.47906" lon="5.3081">
        <ele>239.19999694824</ele>
        <time>2020-07-31T04:46:43.000Z</time>
      </trkpt>
      <trkpt lat="46.47896" lon="5.30806">
        <ele>239.19999694824</ele>
        <time>2020-07-31T04:46:45.000Z</time>
      </trkpt>
      <trkpt lat="46.47887" lon="5.30803">
        <ele>239.19999694824</ele>
        <time>2020-07-31T04:46:47.000Z</time>
      </trkpt>
      <trkpt lat="46.47883" lon="5.30802">
        <ele>239.60000610352</ele>
        <time>2020-07-31T04:46:48.000Z</time>
      </trkpt>
      <trkpt lat="46.47878" lon="5.30801">
        <ele>240.60000610352</ele>
        <time>2020-07-31T04:46:49.000Z</time>
      </trkpt>
      <trkpt lat="46.47869" lon="5.30799">
        <ele>241.39999389648</ele>
        <time>2020-07-31T04:46:51.000Z</time>
      </trkpt>
      <trkpt lat="46.4786" lon="5.30799">
        <ele>242.19999694824</ele>
        <time>2020-07-31T04:46:53.000Z</time>
      </trkpt>
      <trkpt lat="46.47856" lon="5.30799">
        <ele>242.60000610352</ele>
        <time>2020-07-31T04:46:54.000Z</time>
      </trkpt>
      <trkpt lat="46.47852" lon="5.308">
        <ele>242.80000305176</ele>
        <time>2020-07-31T04:46:55.000Z</time>
      </trkpt>
      <trkpt lat="46.47844" lon="5.30802">
        <ele>243.60000610352</ele>
        <time>2020-07-31T04:46:57.000Z</time>
      </trkpt>
      <trkpt lat="46.4784" lon="5.30804">
        <ele>244</ele>
        <time>2020-07-31T04:46:58.000Z</time>
      </trkpt>
      <trkpt lat="46.47837" lon="5.30807">
        <ele>244.19999694824</ele>
        <time>2020-07-31T04:46:59.000Z</time>
      </trkpt>
      <trkpt lat="46.47829" lon="5.30811">
        <ele>244.80000305176</ele>
        <time>2020-07-31T04:47:01.000Z</time>
      </trkpt>
      <trkpt lat="46.47825" lon="5.30814">
        <ele>245</ele>
        <time>2020-07-31T04:47:02.000Z</time>
      </trkpt>
      <trkpt lat="46.47822" lon="5.30818">
        <ele>245.39999389648</ele>
        <time>2020-07-31T04:47:03.000Z</time>
      </trkpt>
      <trkpt lat="46.47815" lon="5.30826">
        <ele>245.80000305176</ele>
        <time>2020-07-31T04:47:05.000Z</time>
      </trkpt>
      <trkpt lat="46.47809" lon="5.30835">
        <ele>246.19999694824</ele>
        <time>2020-07-31T04:47:07.000Z</time>
      </trkpt>
      <trkpt lat="46.47806" lon="5.3084">
        <ele>246.39999389648</ele>
        <time>2020-07-31T04:47:08.000Z</time>
      </trkpt>
      <trkpt lat="46.47802" lon="5.30845">
        <ele>246.80000305176</ele>
        <time>2020-07-31T04:47:09.000Z</time>
      </trkpt>
      <trkpt lat="46.47796" lon="5.30856">
        <ele>247.19999694824</ele>
        <time>2020-07-31T04:47:11.000Z</time>
      </trkpt>
      <trkpt lat="46.47793" lon="5.30861">
        <ele>247.19999694824</ele>
        <time>2020-07-31T04:47:12.000Z</time>
      </trkpt>
      <trkpt lat="46.47789" lon="5.30867">
        <ele>247.39999389648</ele>
        <time>2020-07-31T04:47:13.000Z</time>
      </trkpt>
      <trkpt lat="46.47782" lon="5.30878">
        <ele>247.60000610352</ele>
        <time>2020-07-31T04:47:15.000Z</time>
      </trkpt>
      <trkpt lat="46.47777" lon="5.30883">
        <ele>247.60000610352</ele>
        <time>2020-07-31T04:47:16.000Z</time>
      </trkpt>
      <trkpt lat="46.47773" lon="5.30888">
        <ele>247.60000610352</ele>
        <time>2020-07-31T04:47:17.000Z</time>
      </trkpt>
      <trkpt lat="46.47762" lon="5.30897">
        <ele>247.60000610352</ele>
        <time>2020-07-31T04:47:19.000Z</time>
      </trkpt>
      <trkpt lat="46.4775" lon="5.30904">
        <ele>247.60000610352</ele>
        <time>2020-07-31T04:47:21.000Z</time>
      </trkpt>
      <trkpt lat="46.47743" lon="5.30906">
        <ele>247.60000610352</ele>
        <time>2020-07-31T04:47:22.000Z</time>
      </trkpt>
      <trkpt lat="46.47735" lon="5.30907">
        <ele>247.39999389648</ele>
        <time>2020-07-31T04:47:23.000Z</time>
      </trkpt>
      <trkpt lat="46.47718" lon="5.30906">
        <ele>247</ele>
        <time>2020-07-31T04:47:25.000Z</time>
      </trkpt>
      <trkpt lat="46.47701" lon="5.309">
        <ele>246.60000610352</ele>
        <time>2020-07-31T04:47:27.000Z</time>
      </trkpt>
      <trkpt lat="46.47693" lon="5.30897">
        <ele>246.19999694824</ele>
        <time>2020-07-31T04:47:28.000Z</time>
      </trkpt>
      <trkpt lat="46.47685" lon="5.30894">
        <ele>245.80000305176</ele>
        <time>2020-07-31T04:47:29.000Z</time>
      </trkpt>
      <trkpt lat="46.47676" lon="5.30891">
        <ele>245.39999389648</ele>
        <time>2020-07-31T04:47:30.000Z</time>
      </trkpt>
      <trkpt lat="46.47668" lon="5.3089">
        <ele>244.80000305176</ele>
        <time>2020-07-31T04:47:31.000Z</time>
      </trkpt>
      <trkpt lat="46.47659" lon="5.30889">
        <ele>244</ele>
        <time>2020-07-31T04:47:32.000Z</time>
      </trkpt>
      <trkpt lat="46.47651" lon="5.3089">
        <ele>243.19999694824</ele>
        <time>2020-07-31T04:47:33.000Z</time>
      </trkpt>
      <trkpt lat="46.47642" lon="5.30892">
        <ele>242.60000610352</ele>
        <time>2020-07-31T04:47:34.000Z</time>
      </trkpt>
      <trkpt lat="46.47634" lon="5.30895">
        <ele>242</ele>
        <time>2020-07-31T04:47:35.000Z</time>
      </trkpt>
      <trkpt lat="46.47625" lon="5.30898">
        <ele>241.39999389648</ele>
        <time>2020-07-31T04:47:36.000Z</time>
      </trkpt>
      <trkpt lat="46.47617" lon="5.30902">
        <ele>241</ele>
        <time>2020-07-31T04:47:37.000Z</time>
      </trkpt>
      <trkpt lat="46.47609" lon="5.30906">
        <ele>240.60000610352</ele>
        <time>2020-07-31T04:47:38.000Z</time>
      </trkpt>
      <trkpt lat="46.476" lon="5.30909">
        <ele>240.19999694824</ele>
        <time>2020-07-31T04:47:39.000Z</time>
      </trkpt>
      <trkpt lat="46.47592" lon="5.30913">
        <ele>240</ele>
        <time>2020-07-31T04:47:40.000Z</time>
      </trkpt>
      <trkpt lat="46.47583" lon="5.30916">
        <ele>239.80000305176</ele>
        <time>2020-07-31T04:47:41.000Z</time>
      </trkpt>
      <trkpt lat="46.47566" lon="5.30924">
        <ele>239.39999389648</ele>
        <time>2020-07-31T04:47:43.000Z</time>
      </trkpt>
      <trkpt lat="46.47549" lon="5.30932">
        <ele>239</ele>
        <time>2020-07-31T04:47:45.000Z</time>
      </trkpt>
      <trkpt lat="46.47533" lon="5.30942">
        <ele>238.19999694824</ele>
        <time>2020-07-31T04:47:47.000Z</time>
      </trkpt>
      <trkpt lat="46.47517" lon="5.30952">
        <ele>237.80000305176</ele>
        <time>2020-07-31T04:47:49.000Z</time>
      </trkpt>
      <trkpt lat="46.47501" lon="5.30962">
        <ele>237.39999389648</ele>
        <time>2020-07-31T04:47:51.000Z</time>
      </trkpt>
      <trkpt lat="46.47493" lon="5.30967">
        <ele>237.19999694824</ele>
        <time>2020-07-31T04:47:52.000Z</time>
      </trkpt>
      <trkpt lat="46.47485" lon="5.30972">
        <ele>237</ele>
        <time>2020-07-31T04:47:53.000Z</time>
      </trkpt>
      <trkpt lat="46.4747" lon="5.30982">
        <ele>236.39999389648</ele>
        <time>2020-07-31T04:47:55.000Z</time>
      </trkpt>
      <trkpt lat="46.47455" lon="5.30992">
        <ele>236.39999389648</ele>
        <time>2020-07-31T04:47:57.000Z</time>
      </trkpt>
      <trkpt lat="46.47448" lon="5.30996">
        <ele>236.19999694824</ele>
        <time>2020-07-31T04:47:58.000Z</time>
      </trkpt>
      <trkpt lat="46.47441" lon="5.31001">
        <ele>236.19999694824</ele>
        <time>2020-07-31T04:47:59.000Z</time>
      </trkpt>
      <trkpt lat="46.47428" lon="5.3101">
        <ele>236.19999694824</ele>
        <time>2020-07-31T04:48:01.000Z</time>
      </trkpt>
      <trkpt lat="46.47416" lon="5.31018">
        <ele>236.19999694824</ele>
        <time>2020-07-31T04:48:03.000Z</time>
      </trkpt>
      <trkpt lat="46.4741" lon="5.31022">
        <ele>236.19999694824</ele>
        <time>2020-07-31T04:48:04.000Z</time>
      </trkpt>
      <trkpt lat="46.47404" lon="5.31025">
        <ele>236.19999694824</ele>
        <time>2020-07-31T04:48:05.000Z</time>
      </trkpt>
      <trkpt lat="46.47394" lon="5.31032">
        <ele>236.60000610352</ele>
        <time>2020-07-31T04:48:07.000Z</time>
      </trkpt>
      <trkpt lat="46.47383" lon="5.31039">
        <ele>237.19999694824</ele>
        <time>2020-07-31T04:48:09.000Z</time>
      </trkpt>
      <trkpt lat="46.47374" lon="5.31046">
        <ele>238</ele>
        <time>2020-07-31T04:48:11.000Z</time>
      </trkpt>
      <trkpt lat="46.47369" lon="5.31049">
        <ele>238.39999389648</ele>
        <time>2020-07-31T04:48:12.000Z</time>
      </trkpt>
      <trkpt lat="46.47364" lon="5.31053">
        <ele>239</ele>
        <time>2020-07-31T04:48:13.000Z</time>
      </trkpt>
      <trkpt lat="46.47355" lon="5.31059">
        <ele>239.60000610352</ele>
        <time>2020-07-31T04:48:15.000Z</time>
      </trkpt>
      <trkpt lat="46.47351" lon="5.31062">
        <ele>240.39999389648</ele>
        <time>2020-07-31T04:48:16.000Z</time>
      </trkpt>
      <trkpt lat="46.47347" lon="5.31066">
        <ele>240.80000305176</ele>
        <time>2020-07-31T04:48:17.000Z</time>
      </trkpt>
      <trkpt lat="46.47343" lon="5.3107">
        <ele>241</ele>
        <time>2020-07-31T04:48:18.000Z</time>
      </trkpt>
      <trkpt lat="46.47339" lon="5.31074">
        <ele>241.19999694824</ele>
        <time>2020-07-31T04:48:19.000Z</time>
      </trkpt>
      <trkpt lat="46.47331" lon="5.3108">
        <ele>242</ele>
        <time>2020-07-31T04:48:21.000Z</time>
      </trkpt>
      <trkpt lat="46.47323" lon="5.31088">
        <ele>242.60000610352</ele>
        <time>2020-07-31T04:48:23.000Z</time>
      </trkpt>
      <trkpt lat="46.47319" lon="5.31095">
        <ele>242.80000305176</ele>
        <time>2020-07-31T04:48:24.000Z</time>
      </trkpt>
      <trkpt lat="46.47316" lon="5.311">
        <ele>243</ele>
        <time>2020-07-31T04:48:25.000Z</time>
      </trkpt>
      <trkpt lat="46.47312" lon="5.31105">
        <ele>243</ele>
        <time>2020-07-31T04:48:26.000Z</time>
      </trkpt>
      <trkpt lat="46.47308" lon="5.3111">
        <ele>243.19999694824</ele>
        <time>2020-07-31T04:48:27.000Z</time>
      </trkpt>
      <trkpt lat="46.47301" lon="5.3112">
        <ele>243</ele>
        <time>2020-07-31T04:48:29.000Z</time>
      </trkpt>
      <trkpt lat="46.47293" lon="5.31131">
        <ele>243.19999694824</ele>
        <time>2020-07-31T04:48:31.000Z</time>
      </trkpt>
      <trkpt lat="46.47285" lon="5.31142">
        <ele>243.19999694824</ele>
        <time>2020-07-31T04:48:33.000Z</time>
      </trkpt>
      <trkpt lat="46.47277" lon="5.31154">
        <ele>243.19999694824</ele>
        <time>2020-07-31T04:48:35.000Z</time>
      </trkpt>
      <trkpt lat="46.47269" lon="5.31166">
        <ele>243.39999389648</ele>
        <time>2020-07-31T04:48:37.000Z</time>
      </trkpt>
      <trkpt lat="46.47261" lon="5.31177">
        <ele>243.39999389648</ele>
        <time>2020-07-31T04:48:39.000Z</time>
      </trkpt>
      <trkpt lat="46.47255" lon="5.31188">
        <ele>243.39999389648</ele>
        <time>2020-07-31T04:48:41.000Z</time>
      </trkpt>
      <trkpt lat="46.47249" lon="5.31198">
        <ele>243.39999389648</ele>
        <time>2020-07-31T04:48:43.000Z</time>
      </trkpt>
      <trkpt lat="46.47243" lon="5.31209">
        <ele>243.80000305176</ele>
        <time>2020-07-31T04:48:45.000Z</time>
      </trkpt>
      <trkpt lat="46.4724" lon="5.31213">
        <ele>244</ele>
        <time>2020-07-31T04:48:46.000Z</time>
      </trkpt>
      <trkpt lat="46.47237" lon="5.31218">
        <ele>244</ele>
        <time>2020-07-31T04:48:47.000Z</time>
      </trkpt>
      <trkpt lat="46.47231" lon="5.31228">
        <ele>244.19999694824</ele>
        <time>2020-07-31T04:48:49.000Z</time>
      </trkpt>
      <trkpt lat="46.47224" lon="5.31237">
        <ele>244.19999694824</ele>
        <time>2020-07-31T04:48:51.000Z</time>
      </trkpt>
      <trkpt lat="46.47221" lon="5.31243">
        <ele>244.39999389648</ele>
        <time>2020-07-31T04:48:52.000Z</time>
      </trkpt>
      <trkpt lat="46.47217" lon="5.31248">
        <ele>244.39999389648</ele>
        <time>2020-07-31T04:48:53.000Z</time>
      </trkpt>
      <trkpt lat="46.4721" lon="5.31258">
        <ele>244.60000610352</ele>
        <time>2020-07-31T04:48:55.000Z</time>
      </trkpt>
      <trkpt lat="46.47202" lon="5.31269">
        <ele>244.80000305176</ele>
        <time>2020-07-31T04:48:57.000Z</time>
      </trkpt>
      <trkpt lat="46.47194" lon="5.3128">
        <ele>244.80000305176</ele>
        <time>2020-07-31T04:48:59.000Z</time>
      </trkpt>
      <trkpt lat="46.47182" lon="5.31297">
        <ele>244.80000305176</ele>
        <time>2020-07-31T04:49:02.000Z</time>
      </trkpt>
      <trkpt lat="46.47175" lon="5.31307">
        <ele>245</ele>
        <time>2020-07-31T04:49:04.000Z</time>
      </trkpt>
      <trkpt lat="46.47171" lon="5.31312">
        <ele>245</ele>
        <time>2020-07-31T04:49:05.000Z</time>
      </trkpt>
      <trkpt lat="46.47168" lon="5.31318">
        <ele>245</ele>
        <time>2020-07-31T04:49:06.000Z</time>
      </trkpt>
      <trkpt lat="46.47164" lon="5.31322">
        <ele>245</ele>
        <time>2020-07-31T04:49:07.000Z</time>
      </trkpt>
      <trkpt lat="46.47157" lon="5.31331">
        <ele>245.19999694824</ele>
        <time>2020-07-31T04:49:09.000Z</time>
      </trkpt>
      <trkpt lat="46.47154" lon="5.31334">
        <ele>245.19999694824</ele>
        <time>2020-07-31T04:49:10.000Z</time>
      </trkpt>
      <trkpt lat="46.4715" lon="5.31339">
        <ele>245.19999694824</ele>
        <time>2020-07-31T04:49:11.000Z</time>
      </trkpt>
      <trkpt lat="46.47142" lon="5.3135">
        <ele>245.60000610352</ele>
        <time>2020-07-31T04:49:13.000Z</time>
      </trkpt>
      <trkpt lat="46.47133" lon="5.31363">
        <ele>245.60000610352</ele>
        <time>2020-07-31T04:49:15.000Z</time>
      </trkpt>
      <trkpt lat="46.47122" lon="5.31377">
        <ele>245.60000610352</ele>
        <time>2020-07-31T04:49:17.000Z</time>
      </trkpt>
      <trkpt lat="46.47112" lon="5.3139">
        <ele>245.60000610352</ele>
        <time>2020-07-31T04:49:19.000Z</time>
      </trkpt>
      <trkpt lat="46.47102" lon="5.31404">
        <ele>245.60000610352</ele>
        <time>2020-07-31T04:49:21.000Z</time>
      </trkpt>
      <trkpt lat="46.47092" lon="5.31417">
        <ele>245.60000610352</ele>
        <time>2020-07-31T04:49:23.000Z</time>
      </trkpt>
      <trkpt lat="46.47087" lon="5.31423">
        <ele>245.39999389648</ele>
        <time>2020-07-31T04:49:24.000Z</time>
      </trkpt>
      <trkpt lat="46.47083" lon="5.31429">
        <ele>245.39999389648</ele>
        <time>2020-07-31T04:49:25.000Z</time>
      </trkpt>
      <trkpt lat="46.47073" lon="5.31441">
        <ele>245.39999389648</ele>
        <time>2020-07-31T04:49:27.000Z</time>
      </trkpt>
      <trkpt lat="46.47062" lon="5.31454">
        <ele>245.39999389648</ele>
        <time>2020-07-31T04:49:29.000Z</time>
      </trkpt>
      <trkpt lat="46.47052" lon="5.31467">
        <ele>245.39999389648</ele>
        <time>2020-07-31T04:49:31.000Z</time>
      </trkpt>
      <trkpt lat="46.47046" lon="5.31474">
        <ele>245.39999389648</ele>
        <time>2020-07-31T04:49:32.000Z</time>
      </trkpt>
      <trkpt lat="46.47041" lon="5.31482">
        <ele>245.39999389648</ele>
        <time>2020-07-31T04:49:33.000Z</time>
      </trkpt>
      <trkpt lat="46.47031" lon="5.31494">
        <ele>245.39999389648</ele>
        <time>2020-07-31T04:49:35.000Z</time>
      </trkpt>
      <trkpt lat="46.47022" lon="5.31506">
        <ele>245.39999389648</ele>
        <time>2020-07-31T04:49:37.000Z</time>
      </trkpt>
      <trkpt lat="46.47012" lon="5.31519">
        <ele>245.39999389648</ele>
        <time>2020-07-31T04:49:39.000Z</time>
      </trkpt>
      <trkpt lat="46.47003" lon="5.31532">
        <ele>245.39999389648</ele>
        <time>2020-07-31T04:49:41.000Z</time>
      </trkpt>
      <trkpt lat="46.46994" lon="5.31544">
        <ele>245.39999389648</ele>
        <time>2020-07-31T04:49:43.000Z</time>
      </trkpt>
      <trkpt lat="46.4699" lon="5.3155">
        <ele>245.80000305176</ele>
        <time>2020-07-31T04:49:44.000Z</time>
      </trkpt>
      <trkpt lat="46.46985" lon="5.31555">
        <ele>245.80000305176</ele>
        <time>2020-07-31T04:49:45.000Z</time>
      </trkpt>
      <trkpt lat="46.46981" lon="5.31559">
        <ele>246</ele>
        <time>2020-07-31T04:49:46.000Z</time>
      </trkpt>
      <trkpt lat="46.46972" lon="5.3157">
        <ele>246.19999694824</ele>
        <time>2020-07-31T04:49:48.000Z</time>
      </trkpt>
      <trkpt lat="46.46962" lon="5.31582">
        <ele>246.60000610352</ele>
        <time>2020-07-31T04:49:50.000Z</time>
      </trkpt>
      <trkpt lat="46.46953" lon="5.31594">
        <ele>246.80000305176</ele>
        <time>2020-07-31T04:49:52.000Z</time>
      </trkpt>
      <trkpt lat="46.46941" lon="5.31609">
        <ele>246.80000305176</ele>
        <time>2020-07-31T04:49:55.000Z</time>
      </trkpt>
      <trkpt lat="46.46937" lon="5.31614">
        <ele>246.80000305176</ele>
        <time>2020-07-31T04:49:56.000Z</time>
      </trkpt>
      <trkpt lat="46.46928" lon="5.31624">
        <ele>246.80000305176</ele>
        <time>2020-07-31T04:49:58.000Z</time>
      </trkpt>
      <trkpt lat="46.4692" lon="5.31634">
        <ele>246.80000305176</ele>
        <time>2020-07-31T04:50:00.000Z</time>
      </trkpt>
      <trkpt lat="46.46912" lon="5.31643">
        <ele>246.80000305176</ele>
        <time>2020-07-31T04:50:02.000Z</time>
      </trkpt>
      <trkpt lat="46.46908" lon="5.31647">
        <ele>246.80000305176</ele>
        <time>2020-07-31T04:50:03.000Z</time>
      </trkpt>
      <trkpt lat="46.46899" lon="5.31656">
        <ele>246.80000305176</ele>
        <time>2020-07-31T04:50:05.000Z</time>
      </trkpt>
      <trkpt lat="46.46885" lon="5.31673">
        <ele>246.80000305176</ele>
        <time>2020-07-31T04:50:08.000Z</time>
      </trkpt>
      <trkpt lat="46.46875" lon="5.31686">
        <ele>246.80000305176</ele>
        <time>2020-07-31T04:50:10.000Z</time>
      </trkpt>
      <trkpt lat="46.46869" lon="5.31692">
        <ele>246.60000610352</ele>
        <time>2020-07-31T04:50:11.000Z</time>
      </trkpt>
      <trkpt lat="46.46858" lon="5.31707">
        <ele>246.60000610352</ele>
        <time>2020-07-31T04:50:13.000Z</time>
      </trkpt>
      <trkpt lat="46.46852" lon="5.31715">
        <ele>246.39999389648</ele>
        <time>2020-07-31T04:50:14.000Z</time>
      </trkpt>
      <trkpt lat="46.4684" lon="5.31731">
        <ele>246</ele>
        <time>2020-07-31T04:50:16.000Z</time>
      </trkpt>
      <trkpt lat="46.46823" lon="5.31753">
        <ele>245.80000305176</ele>
        <time>2020-07-31T04:50:19.000Z</time>
      </trkpt>
      <trkpt lat="46.46817" lon="5.3176">
        <ele>245.60000610352</ele>
        <time>2020-07-31T04:50:20.000Z</time>
      </trkpt>
      <trkpt lat="46.46811" lon="5.31767">
        <ele>245.60000610352</ele>
        <time>2020-07-31T04:50:21.000Z</time>
      </trkpt>
      <trkpt lat="46.468" lon="5.31782">
        <ele>245.39999389648</ele>
        <time>2020-07-31T04:50:23.000Z</time>
      </trkpt>
      <trkpt lat="46.46789" lon="5.31797">
        <ele>245.39999389648</ele>
        <time>2020-07-31T04:50:25.000Z</time>
      </trkpt>
      <trkpt lat="46.46778" lon="5.31811">
        <ele>245.19999694824</ele>
        <time>2020-07-31T04:50:27.000Z</time>
      </trkpt>
      <trkpt lat="46.46761" lon="5.3183">
        <ele>245</ele>
        <time>2020-07-31T04:50:30.000Z</time>
      </trkpt>
      <trkpt lat="46.4675" lon="5.31842">
        <ele>244.80000305176</ele>
        <time>2020-07-31T04:50:32.000Z</time>
      </trkpt>
      <trkpt lat="46.46738" lon="5.31854">
        <ele>244.80000305176</ele>
        <time>2020-07-31T04:50:34.000Z</time>
      </trkpt>
      <trkpt lat="46.46731" lon="5.31861">
        <ele>244.80000305176</ele>
        <time>2020-07-31T04:50:35.000Z</time>
      </trkpt>
      <trkpt lat="46.46725" lon="5.31866">
        <ele>244.80000305176</ele>
        <time>2020-07-31T04:50:36.000Z</time>
      </trkpt>
      <trkpt lat="46.46711" lon="5.31877">
        <ele>244.60000610352</ele>
        <time>2020-07-31T04:50:38.000Z</time>
      </trkpt>
      <trkpt lat="46.46693" lon="5.31893">
        <ele>244.60000610352</ele>
        <time>2020-07-31T04:50:41.000Z</time>
      </trkpt>
      <trkpt lat="46.4668" lon="5.31903">
        <ele>244.60000610352</ele>
        <time>2020-07-31T04:50:43.000Z</time>
      </trkpt>
      <trkpt lat="46.46669" lon="5.31913">
        <ele>244.60000610352</ele>
        <time>2020-07-31T04:50:45.000Z</time>
      </trkpt>
      <trkpt lat="46.46663" lon="5.31919">
        <ele>244.80000305176</ele>
        <time>2020-07-31T04:50:46.000Z</time>
      </trkpt>
      <trkpt lat="46.46652" lon="5.3193">
        <ele>244.80000305176</ele>
        <time>2020-07-31T04:50:48.000Z</time>
      </trkpt>
      <trkpt lat="46.46643" lon="5.31942">
        <ele>245</ele>
        <time>2020-07-31T04:50:50.000Z</time>
      </trkpt>
      <trkpt lat="46.46633" lon="5.31955">
        <ele>245</ele>
        <time>2020-07-31T04:50:52.000Z</time>
      </trkpt>
      <trkpt lat="46.4662" lon="5.31978">
        <ele>245.80000305176</ele>
        <time>2020-07-31T04:50:55.000Z</time>
      </trkpt>
      <trkpt lat="46.46616" lon="5.31985">
        <ele>245.80000305176</ele>
        <time>2020-07-31T04:50:56.000Z</time>
      </trkpt>
      <trkpt lat="46.46611" lon="5.31993">
        <ele>246</ele>
        <time>2020-07-31T04:50:57.000Z</time>
      </trkpt>
      <trkpt lat="46.46598" lon="5.32017">
        <ele>246.19999694824</ele>
        <time>2020-07-31T04:51:00.000Z</time>
      </trkpt>
      <trkpt lat="46.46593" lon="5.32025">
        <ele>246.39999389648</ele>
        <time>2020-07-31T04:51:01.000Z</time>
      </trkpt>
      <trkpt lat="46.46589" lon="5.32033">
        <ele>246.39999389648</ele>
        <time>2020-07-31T04:51:02.000Z</time>
      </trkpt>
      <trkpt lat="46.4658" lon="5.3205">
        <ele>246.39999389648</ele>
        <time>2020-07-31T04:51:04.000Z</time>
      </trkpt>
      <trkpt lat="46.46571" lon="5.32066">
        <ele>246.39999389648</ele>
        <time>2020-07-31T04:51:06.000Z</time>
      </trkpt>
      <trkpt lat="46.46567" lon="5.32074">
        <ele>246.39999389648</ele>
        <time>2020-07-31T04:51:07.000Z</time>
      </trkpt>
      <trkpt lat="46.46553" lon="5.32098">
        <ele>246.39999389648</ele>
        <time>2020-07-31T04:51:10.000Z</time>
      </trkpt>
      <trkpt lat="46.46545" lon="5.32113">
        <ele>246.19999694824</ele>
        <time>2020-07-31T04:51:12.000Z</time>
      </trkpt>
      <trkpt lat="46.46536" lon="5.32128">
        <ele>246.19999694824</ele>
        <time>2020-07-31T04:51:14.000Z</time>
      </trkpt>
      <trkpt lat="46.46528" lon="5.32144">
        <ele>246.19999694824</ele>
        <time>2020-07-31T04:51:16.000Z</time>
      </trkpt>
      <trkpt lat="46.46519" lon="5.32159">
        <ele>246.19999694824</ele>
        <time>2020-07-31T04:51:18.000Z</time>
      </trkpt>
      <trkpt lat="46.46507" lon="5.32182">
        <ele>246.19999694824</ele>
        <time>2020-07-31T04:51:21.000Z</time>
      </trkpt>
      <trkpt lat="46.46499" lon="5.32197">
        <ele>246.19999694824</ele>
        <time>2020-07-31T04:51:23.000Z</time>
      </trkpt>
      <trkpt lat="46.46491" lon="5.32212">
        <ele>246.19999694824</ele>
        <time>2020-07-31T04:51:25.000Z</time>
      </trkpt>
      <trkpt lat="46.46482" lon="5.32227">
        <ele>246.39999389648</ele>
        <time>2020-07-31T04:51:27.000Z</time>
      </trkpt>
      <trkpt lat="46.46474" lon="5.32242">
        <ele>246.39999389648</ele>
        <time>2020-07-31T04:51:29.000Z</time>
      </trkpt>
      <trkpt lat="46.46466" lon="5.32256">
        <ele>246.60000610352</ele>
        <time>2020-07-31T04:51:31.000Z</time>
      </trkpt>
      <trkpt lat="46.46454" lon="5.32279">
        <ele>246.80000305176</ele>
        <time>2020-07-31T04:51:34.000Z</time>
      </trkpt>
      <trkpt lat="46.46446" lon="5.32293">
        <ele>246.80000305176</ele>
        <time>2020-07-31T04:51:36.000Z</time>
      </trkpt>
      <trkpt lat="46.46438" lon="5.32308">
        <ele>247</ele>
        <time>2020-07-31T04:51:38.000Z</time>
      </trkpt>
      <trkpt lat="46.4643" lon="5.32322">
        <ele>247</ele>
        <time>2020-07-31T04:51:40.000Z</time>
      </trkpt>
      <trkpt lat="46.46422" lon="5.32338">
        <ele>247</ele>
        <time>2020-07-31T04:51:42.000Z</time>
      </trkpt>
      <trkpt lat="46.46413" lon="5.32353">
        <ele>247</ele>
        <time>2020-07-31T04:51:44.000Z</time>
      </trkpt>
      <trkpt lat="46.46402" lon="5.32375">
        <ele>247.19999694824</ele>
        <time>2020-07-31T04:51:47.000Z</time>
      </trkpt>
      <trkpt lat="46.46398" lon="5.32382">
        <ele>247.19999694824</ele>
        <time>2020-07-31T04:51:48.000Z</time>
      </trkpt>
      <trkpt lat="46.46391" lon="5.32397">
        <ele>247.19999694824</ele>
        <time>2020-07-31T04:51:50.000Z</time>
      </trkpt>
      <trkpt lat="46.46387" lon="5.32404">
        <ele>247.19999694824</ele>
        <time>2020-07-31T04:51:51.000Z</time>
      </trkpt>
      <trkpt lat="46.46378" lon="5.32428">
        <ele>247.19999694824</ele>
        <time>2020-07-31T04:51:54.000Z</time>
      </trkpt>
      <trkpt lat="46.46375" lon="5.32436">
        <ele>247.19999694824</ele>
        <time>2020-07-31T04:51:55.000Z</time>
      </trkpt>
      <trkpt lat="46.46372" lon="5.32445">
        <ele>247.19999694824</ele>
        <time>2020-07-31T04:51:56.000Z</time>
      </trkpt>
      <trkpt lat="46.46369" lon="5.32453">
        <ele>247.19999694824</ele>
        <time>2020-07-31T04:51:57.000Z</time>
      </trkpt>
      <trkpt lat="46.4636" lon="5.32477">
        <ele>247.19999694824</ele>
        <time>2020-07-31T04:52:00.000Z</time>
      </trkpt>
      <trkpt lat="46.46354" lon="5.32493">
        <ele>247.19999694824</ele>
        <time>2020-07-31T04:52:02.000Z</time>
      </trkpt>
      <trkpt lat="46.46347" lon="5.3251">
        <ele>247.39999389648</ele>
        <time>2020-07-31T04:52:04.000Z</time>
      </trkpt>
      <trkpt lat="46.4634" lon="5.32526">
        <ele>247.39999389648</ele>
        <time>2020-07-31T04:52:06.000Z</time>
      </trkpt>
      <trkpt lat="46.46337" lon="5.32535">
        <ele>247.39999389648</ele>
        <time>2020-07-31T04:52:07.000Z</time>
      </trkpt>
      <trkpt lat="46.46331" lon="5.32554">
        <ele>247.39999389648</ele>
        <time>2020-07-31T04:52:09.000Z</time>
      </trkpt>
      <trkpt lat="46.46327" lon="5.32573">
        <ele>247.19999694824</ele>
        <time>2020-07-31T04:52:11.000Z</time>
      </trkpt>
      <trkpt lat="46.46323" lon="5.32594">
        <ele>247.19999694824</ele>
        <time>2020-07-31T04:52:13.000Z</time>
      </trkpt>
      <trkpt lat="46.4632" lon="5.32615">
        <ele>247.19999694824</ele>
        <time>2020-07-31T04:52:15.000Z</time>
      </trkpt>
      <trkpt lat="46.46319" lon="5.32636">
        <ele>247.19999694824</ele>
        <time>2020-07-31T04:52:17.000Z</time>
      </trkpt>
      <trkpt lat="46.46319" lon="5.32658">
        <ele>247</ele>
        <time>2020-07-31T04:52:19.000Z</time>
      </trkpt>
      <trkpt lat="46.4632" lon="5.32678">
        <ele>246.80000305176</ele>
        <time>2020-07-31T04:52:21.000Z</time>
      </trkpt>
      <trkpt lat="46.4632" lon="5.32699">
        <ele>246.60000610352</ele>
        <time>2020-07-31T04:52:23.000Z</time>
      </trkpt>
      <trkpt lat="46.46321" lon="5.32719">
        <ele>246.39999389648</ele>
        <time>2020-07-31T04:52:25.000Z</time>
      </trkpt>
      <trkpt lat="46.46321" lon="5.32729">
        <ele>246.39999389648</ele>
        <time>2020-07-31T04:52:26.000Z</time>
      </trkpt>
      <trkpt lat="46.4632" lon="5.32739">
        <ele>246.39999389648</ele>
        <time>2020-07-31T04:52:27.000Z</time>
      </trkpt>
      <trkpt lat="46.46318" lon="5.32759">
        <ele>246.39999389648</ele>
        <time>2020-07-31T04:52:29.000Z</time>
      </trkpt>
      <trkpt lat="46.46316" lon="5.32769">
        <ele>246.39999389648</ele>
        <time>2020-07-31T04:52:30.000Z</time>
      </trkpt>
      <trkpt lat="46.46314" lon="5.32778">
        <ele>246.39999389648</ele>
        <time>2020-07-31T04:52:31.000Z</time>
      </trkpt>
      <trkpt lat="46.46303" lon="5.32803">
        <ele>246.39999389648</ele>
        <time>2020-07-31T04:52:34.000Z</time>
      </trkpt>
      <trkpt lat="46.46299" lon="5.3281">
        <ele>246.39999389648</ele>
        <time>2020-07-31T04:52:35.000Z</time>
      </trkpt>
      <trkpt lat="46.46294" lon="5.32817">
        <ele>246.39999389648</ele>
        <time>2020-07-31T04:52:36.000Z</time>
      </trkpt>
      <trkpt lat="46.46285" lon="5.3283">
        <ele>246.60000610352</ele>
        <time>2020-07-31T04:52:38.000Z</time>
      </trkpt>
      <trkpt lat="46.46274" lon="5.32843">
        <ele>246.60000610352</ele>
        <time>2020-07-31T04:52:40.000Z</time>
      </trkpt>
      <trkpt lat="46.46269" lon="5.3285">
        <ele>246.60000610352</ele>
        <time>2020-07-31T04:52:41.000Z</time>
      </trkpt>
      <trkpt lat="46.46264" lon="5.32857">
        <ele>246.60000610352</ele>
        <time>2020-07-31T04:52:42.000Z</time>
      </trkpt>
      <trkpt lat="46.46254" lon="5.32872">
        <ele>246.60000610352</ele>
        <time>2020-07-31T04:52:44.000Z</time>
      </trkpt>
      <trkpt lat="46.46244" lon="5.32887">
        <ele>246.60000610352</ele>
        <time>2020-07-31T04:52:46.000Z</time>
      </trkpt>
      <trkpt lat="46.46234" lon="5.32902">
        <ele>246.60000610352</ele>
        <time>2020-07-31T04:52:48.000Z</time>
      </trkpt>
      <trkpt lat="46.46229" lon="5.3291">
        <ele>246.60000610352</ele>
        <time>2020-07-31T04:52:49.000Z</time>
      </trkpt>
      <trkpt lat="46.46224" lon="5.32917">
        <ele>246.60000610352</ele>
        <time>2020-07-31T04:52:50.000Z</time>
      </trkpt>
      <trkpt lat="46.46209" lon="5.32939">
        <ele>246.19999694824</ele>
        <time>2020-07-31T04:52:53.000Z</time>
      </trkpt>
      <trkpt lat="46.46197" lon="5.32951">
        <ele>246</ele>
        <time>2020-07-31T04:52:55.000Z</time>
      </trkpt>
      <trkpt lat="46.46192" lon="5.32956">
        <ele>245.80000305176</ele>
        <time>2020-07-31T04:52:56.000Z</time>
      </trkpt>
      <trkpt lat="46.46186" lon="5.32961">
        <ele>245.80000305176</ele>
        <time>2020-07-31T04:52:57.000Z</time>
      </trkpt>
      <trkpt lat="46.46174" lon="5.32969">
        <ele>245.80000305176</ele>
        <time>2020-07-31T04:52:59.000Z</time>
      </trkpt>
      <trkpt lat="46.46162" lon="5.32976">
        <ele>245.80000305176</ele>
        <time>2020-07-31T04:53:01.000Z</time>
      </trkpt>
      <trkpt lat="46.46156" lon="5.32979">
        <ele>245.80000305176</ele>
        <time>2020-07-31T04:53:02.000Z</time>
      </trkpt>
      <trkpt lat="46.46151" lon="5.32982">
        <ele>245.80000305176</ele>
        <time>2020-07-31T04:53:03.000Z</time>
      </trkpt>
      <trkpt lat="46.4614" lon="5.32989">
        <ele>246</ele>
        <time>2020-07-31T04:53:05.000Z</time>
      </trkpt>
      <trkpt lat="46.46129" lon="5.32994">
        <ele>246</ele>
        <time>2020-07-31T04:53:07.000Z</time>
      </trkpt>
      <trkpt lat="46.46119" lon="5.33">
        <ele>246.39999389648</ele>
        <time>2020-07-31T04:53:09.000Z</time>
      </trkpt>
      <trkpt lat="46.46109" lon="5.33006">
        <ele>246.80000305176</ele>
        <time>2020-07-31T04:53:11.000Z</time>
      </trkpt>
      <trkpt lat="46.46104" lon="5.3301">
        <ele>247.19999694824</ele>
        <time>2020-07-31T04:53:12.000Z</time>
      </trkpt>
      <trkpt lat="46.46099" lon="5.33012">
        <ele>247.19999694824</ele>
        <time>2020-07-31T04:53:13.000Z</time>
      </trkpt>
      <trkpt lat="46.46093" lon="5.33015">
        <ele>247.39999389648</ele>
        <time>2020-07-31T04:53:14.000Z</time>
      </trkpt>
      <trkpt lat="46.46088" lon="5.33019">
        <ele>247.60000610352</ele>
        <time>2020-07-31T04:53:15.000Z</time>
      </trkpt>
      <trkpt lat="46.46083" lon="5.33022">
        <ele>247.60000610352</ele>
        <time>2020-07-31T04:53:16.000Z</time>
      </trkpt>
      <trkpt lat="46.46077" lon="5.33026">
        <ele>247.80000305176</ele>
        <time>2020-07-31T04:53:17.000Z</time>
      </trkpt>
      <trkpt lat="46.46066" lon="5.33035">
        <ele>248</ele>
        <time>2020-07-31T04:53:19.000Z</time>
      </trkpt>
      <trkpt lat="46.46055" lon="5.33045">
        <ele>248.19999694824</ele>
        <time>2020-07-31T04:53:21.000Z</time>
      </trkpt>
      <trkpt lat="46.46044" lon="5.33057">
        <ele>248.19999694824</ele>
        <time>2020-07-31T04:53:23.000Z</time>
      </trkpt>
      <trkpt lat="46.46038" lon="5.33062">
        <ele>248.19999694824</ele>
        <time>2020-07-31T04:53:24.000Z</time>
      </trkpt>
      <trkpt lat="46.46026" lon="5.33073">
        <ele>248.19999694824</ele>
        <time>2020-07-31T04:53:26.000Z</time>
      </trkpt>
      <trkpt lat="46.46015" lon="5.33084">
        <ele>248.19999694824</ele>
        <time>2020-07-31T04:53:28.000Z</time>
      </trkpt>
      <trkpt lat="46.46004" lon="5.33095">
        <ele>248.19999694824</ele>
        <time>2020-07-31T04:53:30.000Z</time>
      </trkpt>
      <trkpt lat="46.45993" lon="5.33107">
        <ele>248.19999694824</ele>
        <time>2020-07-31T04:53:32.000Z</time>
      </trkpt>
      <trkpt lat="46.45988" lon="5.33112">
        <ele>248.19999694824</ele>
        <time>2020-07-31T04:53:33.000Z</time>
      </trkpt>
      <trkpt lat="46.45983" lon="5.33118">
        <ele>248.19999694824</ele>
        <time>2020-07-31T04:53:34.000Z</time>
      </trkpt>
      <trkpt lat="46.45967" lon="5.33135">
        <ele>248.19999694824</ele>
        <time>2020-07-31T04:53:37.000Z</time>
      </trkpt>
      <trkpt lat="46.45957" lon="5.33146">
        <ele>248.19999694824</ele>
        <time>2020-07-31T04:53:39.000Z</time>
      </trkpt>
      <trkpt lat="46.45947" lon="5.33156">
        <ele>248.19999694824</ele>
        <time>2020-07-31T04:53:41.000Z</time>
      </trkpt>
      <trkpt lat="46.45933" lon="5.33172">
        <ele>248.39999389648</ele>
        <time>2020-07-31T04:53:44.000Z</time>
      </trkpt>
      <trkpt lat="46.45924" lon="5.33182">
        <ele>248.60000610352</ele>
        <time>2020-07-31T04:53:46.000Z</time>
      </trkpt>
      <trkpt lat="46.45914" lon="5.33193">
        <ele>248.80000305176</ele>
        <time>2020-07-31T04:53:48.000Z</time>
      </trkpt>
      <trkpt lat="46.45905" lon="5.33204">
        <ele>249</ele>
        <time>2020-07-31T04:53:50.000Z</time>
      </trkpt>
      <trkpt lat="46.45895" lon="5.33215">
        <ele>249</ele>
        <time>2020-07-31T04:53:52.000Z</time>
      </trkpt>
      <trkpt lat="46.45886" lon="5.33224">
        <ele>249.19999694824</ele>
        <time>2020-07-31T04:53:54.000Z</time>
      </trkpt>
      <trkpt lat="46.45876" lon="5.33235">
        <ele>249.39999389648</ele>
        <time>2020-07-31T04:53:56.000Z</time>
      </trkpt>
      <trkpt lat="46.45867" lon="5.33247">
        <ele>249.39999389648</ele>
        <time>2020-07-31T04:53:58.000Z</time>
      </trkpt>
      <trkpt lat="46.45859" lon="5.3326">
        <ele>249.60000610352</ele>
        <time>2020-07-31T04:54:00.000Z</time>
      </trkpt>
      <trkpt lat="46.45846" lon="5.3328">
        <ele>249.80000305176</ele>
        <time>2020-07-31T04:54:03.000Z</time>
      </trkpt>
      <trkpt lat="46.45839" lon="5.33294">
        <ele>249.80000305176</ele>
        <time>2020-07-31T04:54:05.000Z</time>
      </trkpt>
      <trkpt lat="46.45831" lon="5.33308">
        <ele>249.80000305176</ele>
        <time>2020-07-31T04:54:07.000Z</time>
      </trkpt>
      <trkpt lat="46.45824" lon="5.33322">
        <ele>249.80000305176</ele>
        <time>2020-07-31T04:54:09.000Z</time>
      </trkpt>
      <trkpt lat="46.45817" lon="5.33337">
        <ele>250</ele>
        <time>2020-07-31T04:54:11.000Z</time>
      </trkpt>
      <trkpt lat="46.45813" lon="5.33344">
        <ele>250</ele>
        <time>2020-07-31T04:54:12.000Z</time>
      </trkpt>
      <trkpt lat="46.45806" lon="5.33357">
        <ele>250</ele>
        <time>2020-07-31T04:54:14.000Z</time>
      </trkpt>
      <trkpt lat="46.45799" lon="5.33371">
        <ele>250</ele>
        <time>2020-07-31T04:54:16.000Z</time>
      </trkpt>
      <trkpt lat="46.45792" lon="5.33385">
        <ele>250</ele>
        <time>2020-07-31T04:54:18.000Z</time>
      </trkpt>
      <trkpt lat="46.45785" lon="5.33399">
        <ele>250</ele>
        <time>2020-07-31T04:54:20.000Z</time>
      </trkpt>
      <trkpt lat="46.45782" lon="5.33406">
        <ele>250</ele>
        <time>2020-07-31T04:54:21.000Z</time>
      </trkpt>
      <trkpt lat="46.45773" lon="5.33427">
        <ele>250.19999694824</ele>
        <time>2020-07-31T04:54:24.000Z</time>
      </trkpt>
      <trkpt lat="46.45767" lon="5.3344">
        <ele>250.19999694824</ele>
        <time>2020-07-31T04:54:26.000Z</time>
      </trkpt>
      <trkpt lat="46.45764" lon="5.33446">
        <ele>250.39999389648</ele>
        <time>2020-07-31T04:54:27.000Z</time>
      </trkpt>
      <trkpt lat="46.45758" lon="5.3346">
        <ele>250.39999389648</ele>
        <time>2020-07-31T04:54:29.000Z</time>
      </trkpt>
      <trkpt lat="46.45752" lon="5.33475">
        <ele>250.60000610352</ele>
        <time>2020-07-31T04:54:31.000Z</time>
      </trkpt>
      <trkpt lat="46.45743" lon="5.33496">
        <ele>250.80000305176</ele>
        <time>2020-07-31T04:54:34.000Z</time>
      </trkpt>
      <trkpt lat="46.4574" lon="5.33504">
        <ele>251</ele>
        <time>2020-07-31T04:54:35.000Z</time>
      </trkpt>
      <trkpt lat="46.45732" lon="5.33526">
        <ele>251.19999694824</ele>
        <time>2020-07-31T04:54:38.000Z</time>
      </trkpt>
      <trkpt lat="46.45729" lon="5.33533">
        <ele>251.19999694824</ele>
        <time>2020-07-31T04:54:39.000Z</time>
      </trkpt>
      <trkpt lat="46.45726" lon="5.3354">
        <ele>251</ele>
        <time>2020-07-31T04:54:40.000Z</time>
      </trkpt>
      <trkpt lat="46.45724" lon="5.33547">
        <ele>251</ele>
        <time>2020-07-31T04:54:41.000Z</time>
      </trkpt>
      <trkpt lat="46.45717" lon="5.33562">
        <ele>251.39999389648</ele>
        <time>2020-07-31T04:54:43.000Z</time>
      </trkpt>
      <trkpt lat="46.4571" lon="5.33577">
        <ele>251.19999694824</ele>
        <time>2020-07-31T04:54:45.000Z</time>
      </trkpt>
      <trkpt lat="46.45701" lon="5.33597">
        <ele>251.60000610352</ele>
        <time>2020-07-31T04:54:48.000Z</time>
      </trkpt>
      <trkpt lat="46.45696" lon="5.3361">
        <ele>252</ele>
        <time>2020-07-31T04:54:50.000Z</time>
      </trkpt>
      <trkpt lat="46.45693" lon="5.33617">
        <ele>252.39999389648</ele>
        <time>2020-07-31T04:54:51.000Z</time>
      </trkpt>
      <trkpt lat="46.45687" lon="5.33632">
        <ele>253</ele>
        <time>2020-07-31T04:54:53.000Z</time>
      </trkpt>
      <trkpt lat="46.45684" lon="5.3364">
        <ele>253.19999694824</ele>
        <time>2020-07-31T04:54:54.000Z</time>
      </trkpt>
      <trkpt lat="46.45681" lon="5.33647">
        <ele>253.39999389648</ele>
        <time>2020-07-31T04:54:55.000Z</time>
      </trkpt>
      <trkpt lat="46.45679" lon="5.33655">
        <ele>253.60000610352</ele>
        <time>2020-07-31T04:54:56.000Z</time>
      </trkpt>
      <trkpt lat="46.45676" lon="5.33662">
        <ele>253.80000305176</ele>
        <time>2020-07-31T04:54:57.000Z</time>
      </trkpt>
      <trkpt lat="46.4567" lon="5.33676">
        <ele>253.80000305176</ele>
        <time>2020-07-31T04:54:59.000Z</time>
      </trkpt>
      <trkpt lat="46.45664" lon="5.3369">
        <ele>254</ele>
        <time>2020-07-31T04:55:01.000Z</time>
      </trkpt>
      <trkpt lat="46.45661" lon="5.33697">
        <ele>254</ele>
        <time>2020-07-31T04:55:02.000Z</time>
      </trkpt>
      <trkpt lat="46.45653" lon="5.33717">
        <ele>254.19999694824</ele>
        <time>2020-07-31T04:55:05.000Z</time>
      </trkpt>
      <trkpt lat="46.4565" lon="5.33724">
        <ele>254.19999694824</ele>
        <time>2020-07-31T04:55:06.000Z</time>
      </trkpt>
      <trkpt lat="46.45647" lon="5.3373">
        <ele>254.19999694824</ele>
        <time>2020-07-31T04:55:07.000Z</time>
      </trkpt>
      <trkpt lat="46.45641" lon="5.33743">
        <ele>254.19999694824</ele>
        <time>2020-07-31T04:55:09.000Z</time>
      </trkpt>
      <trkpt lat="46.45635" lon="5.33756">
        <ele>254.39999389648</ele>
        <time>2020-07-31T04:55:11.000Z</time>
      </trkpt>
      <trkpt lat="46.45629" lon="5.33769">
        <ele>254.80000305176</ele>
        <time>2020-07-31T04:55:13.000Z</time>
      </trkpt>
      <trkpt lat="46.45624" lon="5.33781">
        <ele>255.19999694824</ele>
        <time>2020-07-31T04:55:15.000Z</time>
      </trkpt>
      <trkpt lat="46.45621" lon="5.33787">
        <ele>255.39999389648</ele>
        <time>2020-07-31T04:55:16.000Z</time>
      </trkpt>
      <trkpt lat="46.45614" lon="5.33805">
        <ele>255.80000305176</ele>
        <time>2020-07-31T04:55:19.000Z</time>
      </trkpt>
      <trkpt lat="46.45609" lon="5.33818">
        <ele>256.20001220703</ele>
        <time>2020-07-31T04:55:21.000Z</time>
      </trkpt>
      <trkpt lat="46.45604" lon="5.33831">
        <ele>256.60000610352</ele>
        <time>2020-07-31T04:55:23.000Z</time>
      </trkpt>
      <trkpt lat="46.45598" lon="5.33843">
        <ele>257</ele>
        <time>2020-07-31T04:55:25.000Z</time>
      </trkpt>
      <trkpt lat="46.45595" lon="5.3385">
        <ele>257</ele>
        <time>2020-07-31T04:55:26.000Z</time>
      </trkpt>
      <trkpt lat="46.45593" lon="5.33856">
        <ele>257.20001220703</ele>
        <time>2020-07-31T04:55:27.000Z</time>
      </trkpt>
      <trkpt lat="46.45586" lon="5.33874">
        <ele>257.39999389648</ele>
        <time>2020-07-31T04:55:30.000Z</time>
      </trkpt>
      <trkpt lat="46.45583" lon="5.33879">
        <ele>257.60000610352</ele>
        <time>2020-07-31T04:55:31.000Z</time>
      </trkpt>
      <trkpt lat="46.45581" lon="5.33885">
        <ele>257.79998779297</ele>
        <time>2020-07-31T04:55:32.000Z</time>
      </trkpt>
      <trkpt lat="46.45577" lon="5.33895">
        <ele>258</ele>
        <time>2020-07-31T04:55:34.000Z</time>
      </trkpt>
      <trkpt lat="46.45572" lon="5.33906">
        <ele>258.60000610352</ele>
        <time>2020-07-31T04:55:36.000Z</time>
      </trkpt>
      <trkpt lat="46.4557" lon="5.33912">
        <ele>258.60000610352</ele>
        <time>2020-07-31T04:55:37.000Z</time>
      </trkpt>
      <trkpt lat="46.45568" lon="5.33918">
        <ele>258.79998779297</ele>
        <time>2020-07-31T04:55:38.000Z</time>
      </trkpt>
      <trkpt lat="46.45561" lon="5.33933">
        <ele>259.20001220703</ele>
        <time>2020-07-31T04:55:41.000Z</time>
      </trkpt>
      <trkpt lat="46.45556" lon="5.33943">
        <ele>259.79998779297</ele>
        <time>2020-07-31T04:55:43.000Z</time>
      </trkpt>
      <trkpt lat="46.45554" lon="5.33946">
        <ele>260</ele>
        <time>2020-07-31T04:55:44.000Z</time>
      </trkpt>
      <trkpt lat="46.45552" lon="5.3395">
        <ele>260.20001220703</ele>
        <time>2020-07-31T04:55:45.000Z</time>
      </trkpt>
      <trkpt lat="46.45546" lon="5.33958">
        <ele>260.39999389648</ele>
        <time>2020-07-31T04:55:47.000Z</time>
      </trkpt>
      <trkpt lat="46.45539" lon="5.33969">
        <ele>260.60000610352</ele>
        <time>2020-07-31T04:55:49.000Z</time>
      </trkpt>
      <trkpt lat="46.45536" lon="5.33973">
        <ele>261</ele>
        <time>2020-07-31T04:55:50.000Z</time>
      </trkpt>
      <trkpt lat="46.45532" lon="5.33977">
        <ele>261.20001220703</ele>
        <time>2020-07-31T04:55:51.000Z</time>
      </trkpt>
      <trkpt lat="46.45525" lon="5.33984">
        <ele>261.39999389648</ele>
        <time>2020-07-31T04:55:53.000Z</time>
      </trkpt>
      <trkpt lat="46.45518" lon="5.33991">
        <ele>261.79998779297</ele>
        <time>2020-07-31T04:55:55.000Z</time>
      </trkpt>
      <trkpt lat="46.45514" lon="5.33994">
        <ele>262.20001220703</ele>
        <time>2020-07-31T04:55:56.000Z</time>
      </trkpt>
      <trkpt lat="46.45511" lon="5.33998">
        <ele>262.39999389648</ele>
        <time>2020-07-31T04:55:57.000Z</time>
      </trkpt>
      <trkpt lat="46.45503" lon="5.34004">
        <ele>262.79998779297</ele>
        <time>2020-07-31T04:55:59.000Z</time>
      </trkpt>
      <trkpt lat="46.455" lon="5.34007">
        <ele>263</ele>
        <time>2020-07-31T04:56:00.000Z</time>
      </trkpt>
      <trkpt lat="46.45496" lon="5.34009">
        <ele>263.20001220703</ele>
        <time>2020-07-31T04:56:01.000Z</time>
      </trkpt>
      <trkpt lat="46.45489" lon="5.34014">
        <ele>263.79998779297</ele>
        <time>2020-07-31T04:56:03.000Z</time>
      </trkpt>
      <trkpt lat="46.45486" lon="5.34016">
        <ele>264</ele>
        <time>2020-07-31T04:56:04.000Z</time>
      </trkpt>
      <trkpt lat="46.45482" lon="5.34018">
        <ele>264.20001220703</ele>
        <time>2020-07-31T04:56:05.000Z</time>
      </trkpt>
      <trkpt lat="46.45479" lon="5.3402">
        <ele>264.39999389648</ele>
        <time>2020-07-31T04:56:06.000Z</time>
      </trkpt>
      <trkpt lat="46.45468" lon="5.34025">
        <ele>265</ele>
        <time>2020-07-31T04:56:09.000Z</time>
      </trkpt>
      <trkpt lat="46.45465" lon="5.34026">
        <ele>265</ele>
        <time>2020-07-31T04:56:10.000Z</time>
      </trkpt>
      <trkpt lat="46.45462" lon="5.34027">
        <ele>265.20001220703</ele>
        <time>2020-07-31T04:56:11.000Z</time>
      </trkpt>
      <trkpt lat="46.45458" lon="5.34028">
        <ele>265.39999389648</ele>
        <time>2020-07-31T04:56:12.000Z</time>
      </trkpt>
      <trkpt lat="46.45451" lon="5.34031">
        <ele>265.79998779297</ele>
        <time>2020-07-31T04:56:14.000Z</time>
      </trkpt>
      <trkpt lat="46.45444" lon="5.34034">
        <ele>266.20001220703</ele>
        <time>2020-07-31T04:56:16.000Z</time>
      </trkpt>
      <trkpt lat="46.45437" lon="5.34034">
        <ele>266.39999389648</ele>
        <time>2020-07-31T04:56:18.000Z</time>
      </trkpt>
      <trkpt lat="46.45428" lon="5.34035">
        <ele>266.79998779297</ele>
        <time>2020-07-31T04:56:20.000Z</time>
      </trkpt>
      <trkpt lat="46.45424" lon="5.34035">
        <ele>267</ele>
        <time>2020-07-31T04:56:21.000Z</time>
      </trkpt>
      <trkpt lat="46.45414" lon="5.34036">
        <ele>267.20001220703</ele>
        <time>2020-07-31T04:56:23.000Z</time>
      </trkpt>
      <trkpt lat="46.45409" lon="5.34037">
        <ele>267.39999389648</ele>
        <time>2020-07-31T04:56:24.000Z</time>
      </trkpt>
      <trkpt lat="46.454" lon="5.34038">
        <ele>267.79998779297</ele>
        <time>2020-07-31T04:56:26.000Z</time>
      </trkpt>
      <trkpt lat="46.4539" lon="5.3404">
        <ele>268.39999389648</ele>
        <time>2020-07-31T04:56:28.000Z</time>
      </trkpt>
      <trkpt lat="46.45381" lon="5.34042">
        <ele>268.60000610352</ele>
        <time>2020-07-31T04:56:30.000Z</time>
      </trkpt>
      <trkpt lat="46.45377" lon="5.34042">
        <ele>268.79998779297</ele>
        <time>2020-07-31T04:56:31.000Z</time>
      </trkpt>
      <trkpt lat="46.45372" lon="5.34042">
        <ele>268.79998779297</ele>
        <time>2020-07-31T04:56:32.000Z</time>
      </trkpt>
      <trkpt lat="46.45363" lon="5.34044">
        <ele>269</ele>
        <time>2020-07-31T04:56:34.000Z</time>
      </trkpt>
      <trkpt lat="46.45349" lon="5.34044">
        <ele>269.20001220703</ele>
        <time>2020-07-31T04:56:37.000Z</time>
      </trkpt>
      <trkpt lat="46.4534" lon="5.34044">
        <ele>269.60000610352</ele>
        <time>2020-07-31T04:56:39.000Z</time>
      </trkpt>
      <trkpt lat="46.45331" lon="5.34045">
        <ele>270</ele>
        <time>2020-07-31T04:56:41.000Z</time>
      </trkpt>
      <trkpt lat="46.45327" lon="5.34046">
        <ele>270.20001220703</ele>
        <time>2020-07-31T04:56:42.000Z</time>
      </trkpt>
      <trkpt lat="46.45317" lon="5.34048">
        <ele>270.39999389648</ele>
        <time>2020-07-31T04:56:44.000Z</time>
      </trkpt>
      <trkpt lat="46.45312" lon="5.34049">
        <ele>270.39999389648</ele>
        <time>2020-07-31T04:56:45.000Z</time>
      </trkpt>
      <trkpt lat="46.453" lon="5.34054">
        <ele>270.39999389648</ele>
        <time>2020-07-31T04:56:47.000Z</time>
      </trkpt>
      <trkpt lat="46.45289" lon="5.34058">
        <ele>270.60000610352</ele>
        <time>2020-07-31T04:56:49.000Z</time>
      </trkpt>
      <trkpt lat="46.45283" lon="5.34059">
        <ele>270.60000610352</ele>
        <time>2020-07-31T04:56:50.000Z</time>
      </trkpt>
      <trkpt lat="46.45271" lon="5.34062">
        <ele>270.60000610352</ele>
        <time>2020-07-31T04:56:52.000Z</time>
      </trkpt>
      <trkpt lat="46.45254" lon="5.34067">
        <ele>270.79998779297</ele>
        <time>2020-07-31T04:56:55.000Z</time>
      </trkpt>
      <trkpt lat="46.45237" lon="5.34073">
        <ele>270.79998779297</ele>
        <time>2020-07-31T04:56:58.000Z</time>
      </trkpt>
      <trkpt lat="46.45231" lon="5.34074">
        <ele>270.79998779297</ele>
        <time>2020-07-31T04:56:59.000Z</time>
      </trkpt>
      <trkpt lat="46.45225" lon="5.34076">
        <ele>270.79998779297</ele>
        <time>2020-07-31T04:57:00.000Z</time>
      </trkpt>
      <trkpt lat="46.45214" lon="5.3408">
        <ele>271</ele>
        <time>2020-07-31T04:57:02.000Z</time>
      </trkpt>
      <trkpt lat="46.45209" lon="5.34081">
        <ele>271</ele>
        <time>2020-07-31T04:57:03.000Z</time>
      </trkpt>
      <trkpt lat="46.45193" lon="5.34085">
        <ele>271.20001220703</ele>
        <time>2020-07-31T04:57:06.000Z</time>
      </trkpt>
      <trkpt lat="46.45183" lon="5.34087">
        <ele>271.20001220703</ele>
        <time>2020-07-31T04:57:08.000Z</time>
      </trkpt>
      <trkpt lat="46.45172" lon="5.3409">
        <ele>271.39999389648</ele>
        <time>2020-07-31T04:57:10.000Z</time>
      </trkpt>
      <trkpt lat="46.45161" lon="5.34093">
        <ele>271.60000610352</ele>
        <time>2020-07-31T04:57:12.000Z</time>
      </trkpt>
      <trkpt lat="46.4515" lon="5.34095">
        <ele>272</ele>
        <time>2020-07-31T04:57:14.000Z</time>
      </trkpt>
      <trkpt lat="46.45139" lon="5.34098">
        <ele>272.39999389648</ele>
        <time>2020-07-31T04:57:16.000Z</time>
      </trkpt>
      <trkpt lat="46.45128" lon="5.34101">
        <ele>272.39999389648</ele>
        <time>2020-07-31T04:57:18.000Z</time>
      </trkpt>
      <trkpt lat="46.45122" lon="5.34102">
        <ele>272.39999389648</ele>
        <time>2020-07-31T04:57:19.000Z</time>
      </trkpt>
      <trkpt lat="46.45116" lon="5.34104">
        <ele>272.60000610352</ele>
        <time>2020-07-31T04:57:20.000Z</time>
      </trkpt>
      <trkpt lat="46.45104" lon="5.34106">
        <ele>272.60000610352</ele>
        <time>2020-07-31T04:57:22.000Z</time>
      </trkpt>
      <trkpt lat="46.45092" lon="5.34109">
        <ele>272.60000610352</ele>
        <time>2020-07-31T04:57:24.000Z</time>
      </trkpt>
      <trkpt lat="46.45079" lon="5.34112">
        <ele>272.60000610352</ele>
        <time>2020-07-31T04:57:26.000Z</time>
      </trkpt>
      <trkpt lat="46.45066" lon="5.34114">
        <ele>272.60000610352</ele>
        <time>2020-07-31T04:57:28.000Z</time>
      </trkpt>
      <trkpt lat="46.45052" lon="5.34116">
        <ele>272.60000610352</ele>
        <time>2020-07-31T04:57:30.000Z</time>
      </trkpt>
      <trkpt lat="46.45038" lon="5.34117">
        <ele>272.39999389648</ele>
        <time>2020-07-31T04:57:32.000Z</time>
      </trkpt>
      <trkpt lat="46.45022" lon="5.34117">
        <ele>272.20001220703</ele>
        <time>2020-07-31T04:57:34.000Z</time>
      </trkpt>
      <trkpt lat="46.45006" lon="5.34116">
        <ele>271.79998779297</ele>
        <time>2020-07-31T04:57:36.000Z</time>
      </trkpt>
      <trkpt lat="46.44998" lon="5.34114">
        <ele>271.39999389648</ele>
        <time>2020-07-31T04:57:37.000Z</time>
      </trkpt>
      <trkpt lat="46.4499" lon="5.34113">
        <ele>271.20001220703</ele>
        <time>2020-07-31T04:57:38.000Z</time>
      </trkpt>
      <trkpt lat="46.44982" lon="5.34111">
        <ele>270.79998779297</ele>
        <time>2020-07-31T04:57:39.000Z</time>
      </trkpt>
      <trkpt lat="46.44973" lon="5.34109">
        <ele>270.39999389648</ele>
        <time>2020-07-31T04:57:40.000Z</time>
      </trkpt>
      <trkpt lat="46.44965" lon="5.34107">
        <ele>270</ele>
        <time>2020-07-31T04:57:41.000Z</time>
      </trkpt>
      <trkpt lat="46.44957" lon="5.34104">
        <ele>269.39999389648</ele>
        <time>2020-07-31T04:57:42.000Z</time>
      </trkpt>
      <trkpt lat="46.44948" lon="5.34102">
        <ele>269</ele>
        <time>2020-07-31T04:57:43.000Z</time>
      </trkpt>
      <trkpt lat="46.44931" lon="5.34097">
        <ele>268.20001220703</ele>
        <time>2020-07-31T04:57:45.000Z</time>
      </trkpt>
      <trkpt lat="46.44914" lon="5.34092">
        <ele>267.20001220703</ele>
        <time>2020-07-31T04:57:47.000Z</time>
      </trkpt>
      <trkpt lat="46.44897" lon="5.34087">
        <ele>266.39999389648</ele>
        <time>2020-07-31T04:57:49.000Z</time>
      </trkpt>
      <trkpt lat="46.44879" lon="5.34085">
        <ele>266.20001220703</ele>
        <time>2020-07-31T04:57:51.000Z</time>
      </trkpt>
      <trkpt lat="46.44869" lon="5.34086">
        <ele>265.60000610352</ele>
        <time>2020-07-31T04:57:52.000Z</time>
      </trkpt>
      <trkpt lat="46.4486" lon="5.34088">
        <ele>265.20001220703</ele>
        <time>2020-07-31T04:57:53.000Z</time>
      </trkpt>
      <trkpt lat="46.44851" lon="5.34092">
        <ele>264.79998779297</ele>
        <time>2020-07-31T04:57:54.000Z</time>
      </trkpt>
      <trkpt lat="46.44842" lon="5.34097">
        <ele>264.39999389648</ele>
        <time>2020-07-31T04:57:55.000Z</time>
      </trkpt>
      <trkpt lat="46.44834" lon="5.34102">
        <ele>264</ele>
        <time>2020-07-31T04:57:56.000Z</time>
      </trkpt>
      <trkpt lat="46.44826" lon="5.3411">
        <ele>263.60000610352</ele>
        <time>2020-07-31T04:57:57.000Z</time>
      </trkpt>
      <trkpt lat="46.44811" lon="5.34129">
        <ele>263</ele>
        <time>2020-07-31T04:57:59.000Z</time>
      </trkpt>
      <trkpt lat="46.44805" lon="5.34139">
        <ele>262.20001220703</ele>
        <time>2020-07-31T04:58:00.000Z</time>
      </trkpt>
      <trkpt lat="46.44799" lon="5.34151">
        <ele>261.79998779297</ele>
        <time>2020-07-31T04:58:01.000Z</time>
      </trkpt>
      <trkpt lat="46.44794" lon="5.34163">
        <ele>261.39999389648</ele>
        <time>2020-07-31T04:58:02.000Z</time>
      </trkpt>
      <trkpt lat="46.44788" lon="5.34175">
        <ele>261</ele>
        <time>2020-07-31T04:58:03.000Z</time>
      </trkpt>
      <trkpt lat="46.44778" lon="5.342">
        <ele>260.39999389648</ele>
        <time>2020-07-31T04:58:05.000Z</time>
      </trkpt>
      <trkpt lat="46.44766" lon="5.34225">
        <ele>260</ele>
        <time>2020-07-31T04:58:07.000Z</time>
      </trkpt>
      <trkpt lat="46.44759" lon="5.34237">
        <ele>259.60000610352</ele>
        <time>2020-07-31T04:58:08.000Z</time>
      </trkpt>
      <trkpt lat="46.44752" lon="5.34247">
        <ele>259.20001220703</ele>
        <time>2020-07-31T04:58:09.000Z</time>
      </trkpt>
      <trkpt lat="46.44744" lon="5.34257">
        <ele>258.79998779297</ele>
        <time>2020-07-31T04:58:10.000Z</time>
      </trkpt>
      <trkpt lat="46.44725" lon="5.34272">
        <ele>257.60000610352</ele>
        <time>2020-07-31T04:58:12.000Z</time>
      </trkpt>
      <trkpt lat="46.44705" lon="5.34279">
        <ele>256.20001220703</ele>
        <time>2020-07-31T04:58:14.000Z</time>
      </trkpt>
      <trkpt lat="46.44695" lon="5.34278">
        <ele>255.80000305176</ele>
        <time>2020-07-31T04:58:15.000Z</time>
      </trkpt>
      <trkpt lat="46.44686" lon="5.34277">
        <ele>255.19999694824</ele>
        <time>2020-07-31T04:58:16.000Z</time>
      </trkpt>
      <trkpt lat="46.44679" lon="5.34278">
        <ele>254.60000610352</ele>
        <time>2020-07-31T04:58:17.000Z</time>
      </trkpt>
      <trkpt lat="46.44673" lon="5.34281">
        <ele>254</ele>
        <time>2020-07-31T04:58:18.000Z</time>
      </trkpt>
      <trkpt lat="46.44664" lon="5.34292">
        <ele>253</ele>
        <time>2020-07-31T04:58:20.000Z</time>
      </trkpt>
      <trkpt lat="46.4466" lon="5.34297">
        <ele>252.60000610352</ele>
        <time>2020-07-31T04:58:21.000Z</time>
      </trkpt>
      <trkpt lat="46.44652" lon="5.34302">
        <ele>252.19999694824</ele>
        <time>2020-07-31T04:58:23.000Z</time>
      </trkpt>
      <trkpt lat="46.44647" lon="5.34301">
        <ele>252.19999694824</ele>
        <time>2020-07-31T04:58:24.000Z</time>
      </trkpt>
      <trkpt lat="46.44641" lon="5.34298">
        <ele>252</ele>
        <time>2020-07-31T04:58:25.000Z</time>
      </trkpt>
      <trkpt lat="46.44635" lon="5.34294">
        <ele>252</ele>
        <time>2020-07-31T04:58:26.000Z</time>
      </trkpt>
      <trkpt lat="46.44629" lon="5.34288">
        <ele>251.80000305176</ele>
        <time>2020-07-31T04:58:27.000Z</time>
      </trkpt>
      <trkpt lat="46.44623" lon="5.34283">
        <ele>251.80000305176</ele>
        <time>2020-07-31T04:58:28.000Z</time>
      </trkpt>
      <trkpt lat="46.44617" lon="5.34277">
        <ele>251.60000610352</ele>
        <time>2020-07-31T04:58:29.000Z</time>
      </trkpt>
      <trkpt lat="46.44604" lon="5.34267">
        <ele>251.19999694824</ele>
        <time>2020-07-31T04:58:31.000Z</time>
      </trkpt>
      <trkpt lat="46.44583" lon="5.34253">
        <ele>251.19999694824</ele>
        <time>2020-07-31T04:58:34.000Z</time>
      </trkpt>
      <trkpt lat="46.44576" lon="5.3425">
        <ele>251</ele>
        <time>2020-07-31T04:58:35.000Z</time>
      </trkpt>
      <trkpt lat="46.44568" lon="5.34247">
        <ele>251</ele>
        <time>2020-07-31T04:58:36.000Z</time>
      </trkpt>
      <trkpt lat="46.44561" lon="5.34243">
        <ele>250.60000610352</ele>
        <time>2020-07-31T04:58:37.000Z</time>
      </trkpt>
      <trkpt lat="46.44549" lon="5.34226">
        <ele>250.19999694824</ele>
        <time>2020-07-31T04:58:39.000Z</time>
      </trkpt>
      <trkpt lat="46.44547" lon="5.34214">
        <ele>249.80000305176</ele>
        <time>2020-07-31T04:58:40.000Z</time>
      </trkpt>
      <trkpt lat="46.44546" lon="5.34201">
        <ele>249.39999389648</ele>
        <time>2020-07-31T04:58:41.000Z</time>
      </trkpt>
      <trkpt lat="46.44546" lon="5.34189">
        <ele>249.19999694824</ele>
        <time>2020-07-31T04:58:42.000Z</time>
      </trkpt>
      <trkpt lat="46.44544" lon="5.34163">
        <ele>248.60000610352</ele>
        <time>2020-07-31T04:58:44.000Z</time>
      </trkpt>
      <trkpt lat="46.44542" lon="5.34151">
        <ele>248.19999694824</ele>
        <time>2020-07-31T04:58:45.000Z</time>
      </trkpt>
      <trkpt lat="46.44539" lon="5.34138">
        <ele>247.80000305176</ele>
        <time>2020-07-31T04:58:46.000Z</time>
      </trkpt>
      <trkpt lat="46.44535" lon="5.34125">
        <ele>247.19999694824</ele>
        <time>2020-07-31T04:58:47.000Z</time>
      </trkpt>
      <trkpt lat="46.44532" lon="5.34113">
        <ele>246.60000610352</ele>
        <time>2020-07-31T04:58:48.000Z</time>
      </trkpt>
      <trkpt lat="46.44524" lon="5.34088">
        <ele>246</ele>
        <time>2020-07-31T04:58:50.000Z</time>
      </trkpt>
      <trkpt lat="46.44516" lon="5.34063">
        <ele>245.19999694824</ele>
        <time>2020-07-31T04:58:52.000Z</time>
      </trkpt>
      <trkpt lat="46.44512" lon="5.34052">
        <ele>244.80000305176</ele>
        <time>2020-07-31T04:58:53.000Z</time>
      </trkpt>
      <trkpt lat="46.44507" lon="5.34041">
        <ele>244.60000610352</ele>
        <time>2020-07-31T04:58:54.000Z</time>
      </trkpt>
      <trkpt lat="46.44497" lon="5.34019">
        <ele>244.19999694824</ele>
        <time>2020-07-31T04:58:56.000Z</time>
      </trkpt>
      <trkpt lat="46.44492" lon="5.34009">
        <ele>244</ele>
        <time>2020-07-31T04:58:57.000Z</time>
      </trkpt>
      <trkpt lat="46.44485" lon="5.34">
        <ele>243.60000610352</ele>
        <time>2020-07-31T04:58:58.000Z</time>
      </trkpt>
      <trkpt lat="46.44479" lon="5.33991">
        <ele>243.39999389648</ele>
        <time>2020-07-31T04:58:59.000Z</time>
      </trkpt>
      <trkpt lat="46.44473" lon="5.33983">
        <ele>243.19999694824</ele>
        <time>2020-07-31T04:59:00.000Z</time>
      </trkpt>
      <trkpt lat="46.44459" lon="5.33967">
        <ele>243</ele>
        <time>2020-07-31T04:59:02.000Z</time>
      </trkpt>
      <trkpt lat="46.44444" lon="5.33954">
        <ele>242.80000305176</ele>
        <time>2020-07-31T04:59:04.000Z</time>
      </trkpt>
      <trkpt lat="46.44421" lon="5.33937">
        <ele>242.60000610352</ele>
        <time>2020-07-31T04:59:07.000Z</time>
      </trkpt>
      <trkpt lat="46.44405" lon="5.33926">
        <ele>242.60000610352</ele>
        <time>2020-07-31T04:59:09.000Z</time>
      </trkpt>
      <trkpt lat="46.4439" lon="5.33912">
        <ele>242.39999389648</ele>
        <time>2020-07-31T04:59:11.000Z</time>
      </trkpt>
      <trkpt lat="46.44377" lon="5.33897">
        <ele>242.19999694824</ele>
        <time>2020-07-31T04:59:13.000Z</time>
      </trkpt>
      <trkpt lat="46.44364" lon="5.33881">
        <ele>242.19999694824</ele>
        <time>2020-07-31T04:59:15.000Z</time>
      </trkpt>
      <trkpt lat="46.44352" lon="5.33864">
        <ele>241.80000305176</ele>
        <time>2020-07-31T04:59:17.000Z</time>
      </trkpt>
      <trkpt lat="46.44346" lon="5.33855">
        <ele>241.60000610352</ele>
        <time>2020-07-31T04:59:18.000Z</time>
      </trkpt>
      <trkpt lat="46.44334" lon="5.33839">
        <ele>241.19999694824</ele>
        <time>2020-07-31T04:59:20.000Z</time>
      </trkpt>
      <trkpt lat="46.44322" lon="5.33824">
        <ele>240.80000305176</ele>
        <time>2020-07-31T04:59:22.000Z</time>
      </trkpt>
      <trkpt lat="46.44309" lon="5.3381">
        <ele>240.60000610352</ele>
        <time>2020-07-31T04:59:24.000Z</time>
      </trkpt>
      <trkpt lat="46.44296" lon="5.33797">
        <ele>240.60000610352</ele>
        <time>2020-07-31T04:59:26.000Z</time>
      </trkpt>
      <trkpt lat="46.44276" lon="5.3378">
        <ele>240.39999389648</ele>
        <time>2020-07-31T04:59:29.000Z</time>
      </trkpt>
      <trkpt lat="46.44262" lon="5.3377">
        <ele>240.39999389648</ele>
        <time>2020-07-31T04:59:31.000Z</time>
      </trkpt>
      <trkpt lat="46.44255" lon="5.33765">
        <ele>240.39999389648</ele>
        <time>2020-07-31T04:59:32.000Z</time>
      </trkpt>
      <trkpt lat="46.44248" lon="5.3376">
        <ele>240.39999389648</ele>
        <time>2020-07-31T04:59:33.000Z</time>
      </trkpt>
      <trkpt lat="46.44233" lon="5.3375">
        <ele>240.39999389648</ele>
        <time>2020-07-31T04:59:35.000Z</time>
      </trkpt>
      <trkpt lat="46.44219" lon="5.3374">
        <ele>240.39999389648</ele>
        <time>2020-07-31T04:59:37.000Z</time>
      </trkpt>
      <trkpt lat="46.44198" lon="5.33724">
        <ele>240.39999389648</ele>
        <time>2020-07-31T04:59:40.000Z</time>
      </trkpt>
      <trkpt lat="46.44185" lon="5.33712">
        <ele>240.19999694824</ele>
        <time>2020-07-31T04:59:42.000Z</time>
      </trkpt>
      <trkpt lat="46.44178" lon="5.33705">
        <ele>240.19999694824</ele>
        <time>2020-07-31T04:59:43.000Z</time>
      </trkpt>
      <trkpt lat="46.44166" lon="5.33691">
        <ele>240</ele>
        <time>2020-07-31T04:59:45.000Z</time>
      </trkpt>
      <trkpt lat="46.44159" lon="5.33685">
        <ele>240</ele>
        <time>2020-07-31T04:59:46.000Z</time>
      </trkpt>
      <trkpt lat="46.4414" lon="5.33665">
        <ele>239.80000305176</ele>
        <time>2020-07-31T04:59:49.000Z</time>
      </trkpt>
      <trkpt lat="46.44134" lon="5.33658">
        <ele>239.60000610352</ele>
        <time>2020-07-31T04:59:50.000Z</time>
      </trkpt>
      <trkpt lat="46.44128" lon="5.3365">
        <ele>239.60000610352</ele>
        <time>2020-07-31T04:59:51.000Z</time>
      </trkpt>
      <trkpt lat="46.44122" lon="5.33643">
        <ele>239.60000610352</ele>
        <time>2020-07-31T04:59:52.000Z</time>
      </trkpt>
      <trkpt lat="46.44116" lon="5.33636">
        <ele>239.39999389648</ele>
        <time>2020-07-31T04:59:53.000Z</time>
      </trkpt>
      <trkpt lat="46.44104" lon="5.33622">
        <ele>239.39999389648</ele>
        <time>2020-07-31T04:59:55.000Z</time>
      </trkpt>
      <trkpt lat="46.44093" lon="5.33607">
        <ele>239.19999694824</ele>
        <time>2020-07-31T04:59:57.000Z</time>
      </trkpt>
      <trkpt lat="46.44088" lon="5.33599">
        <ele>239.19999694824</ele>
        <time>2020-07-31T04:59:58.000Z</time>
      </trkpt>
      <trkpt lat="46.44083" lon="5.3359">
        <ele>239.19999694824</ele>
        <time>2020-07-31T04:59:59.000Z</time>
      </trkpt>
      <trkpt lat="46.4408" lon="5.3358">
        <ele>239</ele>
        <time>2020-07-31T05:00:00.000Z</time>
      </trkpt>
      <trkpt lat="46.44074" lon="5.33559">
        <ele>239</ele>
        <time>2020-07-31T05:00:02.000Z</time>
      </trkpt>
      <trkpt lat="46.44071" lon="5.33549">
        <ele>239</ele>
        <time>2020-07-31T05:00:03.000Z</time>
      </trkpt>
      <trkpt lat="46.44069" lon="5.33539">
        <ele>239</ele>
        <time>2020-07-31T05:00:04.000Z</time>
      </trkpt>
      <trkpt lat="46.4406" lon="5.33523">
        <ele>239</ele>
        <time>2020-07-31T05:00:06.000Z</time>
      </trkpt>
      <trkpt lat="46.44046" lon="5.33515">
        <ele>238.80000305176</ele>
        <time>2020-07-31T05:00:08.000Z</time>
      </trkpt>
      <trkpt lat="46.44038" lon="5.33512">
        <ele>238.80000305176</ele>
        <time>2020-07-31T05:00:09.000Z</time>
      </trkpt>
      <trkpt lat="46.44023" lon="5.33508">
        <ele>238.80000305176</ele>
        <time>2020-07-31T05:00:11.000Z</time>
      </trkpt>
      <trkpt lat="46.44001" lon="5.33499">
        <ele>238.60000610352</ele>
        <time>2020-07-31T05:00:14.000Z</time>
      </trkpt>
      <trkpt lat="46.43993" lon="5.33496">
        <ele>238.39999389648</ele>
        <time>2020-07-31T05:00:15.000Z</time>
      </trkpt>
      <trkpt lat="46.43986" lon="5.33492">
        <ele>238.39999389648</ele>
        <time>2020-07-31T05:00:16.000Z</time>
      </trkpt>
      <trkpt lat="46.43972" lon="5.33483">
        <ele>238.19999694824</ele>
        <time>2020-07-31T05:00:18.000Z</time>
      </trkpt>
      <trkpt lat="46.43966" lon="5.33478">
        <ele>238.19999694824</ele>
        <time>2020-07-31T05:00:19.000Z</time>
      </trkpt>
      <trkpt lat="46.43945" lon="5.33465">
        <ele>238.19999694824</ele>
        <time>2020-07-31T05:00:22.000Z</time>
      </trkpt>
      <trkpt lat="46.43931" lon="5.33456">
        <ele>238</ele>
        <time>2020-07-31T05:00:24.000Z</time>
      </trkpt>
      <trkpt lat="46.43917" lon="5.33449">
        <ele>238</ele>
        <time>2020-07-31T05:00:26.000Z</time>
      </trkpt>
      <trkpt lat="46.43902" lon="5.33442">
        <ele>237.80000305176</ele>
        <time>2020-07-31T05:00:28.000Z</time>
      </trkpt>
      <trkpt lat="46.43895" lon="5.3344">
        <ele>237.80000305176</ele>
        <time>2020-07-31T05:00:29.000Z</time>
      </trkpt>
      <trkpt lat="46.43887" lon="5.33437">
        <ele>237.60000610352</ele>
        <time>2020-07-31T05:00:30.000Z</time>
      </trkpt>
      <trkpt lat="46.43865" lon="5.33432">
        <ele>237.39999389648</ele>
        <time>2020-07-31T05:00:33.000Z</time>
      </trkpt>
      <trkpt lat="46.4385" lon="5.3343">
        <ele>237.39999389648</ele>
        <time>2020-07-31T05:00:35.000Z</time>
      </trkpt>
      <trkpt lat="46.43842" lon="5.33429">
        <ele>237.39999389648</ele>
        <time>2020-07-31T05:00:36.000Z</time>
      </trkpt>
      <trkpt lat="46.43835" lon="5.33429">
        <ele>237.39999389648</ele>
        <time>2020-07-31T05:00:37.000Z</time>
      </trkpt>
      <trkpt lat="46.4382" lon="5.33429">
        <ele>237.19999694824</ele>
        <time>2020-07-31T05:00:39.000Z</time>
      </trkpt>
      <trkpt lat="46.43797" lon="5.33431">
        <ele>237.19999694824</ele>
        <time>2020-07-31T05:00:42.000Z</time>
      </trkpt>
      <trkpt lat="46.43782" lon="5.33433">
        <ele>237</ele>
        <time>2020-07-31T05:00:44.000Z</time>
      </trkpt>
      <trkpt lat="46.43768" lon="5.33436">
        <ele>237</ele>
        <time>2020-07-31T05:00:46.000Z</time>
      </trkpt>
      <trkpt lat="46.43753" lon="5.33439">
        <ele>237</ele>
        <time>2020-07-31T05:00:48.000Z</time>
      </trkpt>
      <trkpt lat="46.43738" lon="5.33441">
        <ele>237</ele>
        <time>2020-07-31T05:00:50.000Z</time>
      </trkpt>
      <trkpt lat="46.43723" lon="5.33442">
        <ele>237</ele>
        <time>2020-07-31T05:00:52.000Z</time>
      </trkpt>
      <trkpt lat="46.43708" lon="5.33443">
        <ele>237</ele>
        <time>2020-07-31T05:00:54.000Z</time>
      </trkpt>
      <trkpt lat="46.43686" lon="5.33445">
        <ele>237</ele>
        <time>2020-07-31T05:00:57.000Z</time>
      </trkpt>
      <trkpt lat="46.43672" lon="5.33445">
        <ele>237</ele>
        <time>2020-07-31T05:00:59.000Z</time>
      </trkpt>
      <trkpt lat="46.43665" lon="5.33445">
        <ele>237</ele>
        <time>2020-07-31T05:01:00.000Z</time>
      </trkpt>
      <trkpt lat="46.43657" lon="5.33446">
        <ele>237</ele>
        <time>2020-07-31T05:01:01.000Z</time>
      </trkpt>
      <trkpt lat="46.43643" lon="5.33447">
        <ele>237</ele>
        <time>2020-07-31T05:01:03.000Z</time>
      </trkpt>
      <trkpt lat="46.4363" lon="5.33447">
        <ele>237</ele>
        <time>2020-07-31T05:01:05.000Z</time>
      </trkpt>
      <trkpt lat="46.4361" lon="5.33448">
        <ele>237</ele>
        <time>2020-07-31T05:01:08.000Z</time>
      </trkpt>
      <trkpt lat="46.43604" lon="5.33448">
        <ele>237</ele>
        <time>2020-07-31T05:01:09.000Z</time>
      </trkpt>
      <trkpt lat="46.43592" lon="5.33448">
        <ele>237</ele>
        <time>2020-07-31T05:01:11.000Z</time>
      </trkpt>
      <trkpt lat="46.4358" lon="5.33447">
        <ele>237.19999694824</ele>
        <time>2020-07-31T05:01:13.000Z</time>
      </trkpt>
      <trkpt lat="46.43567" lon="5.33446">
        <ele>237.60000610352</ele>
        <time>2020-07-31T05:01:15.000Z</time>
      </trkpt>
      <trkpt lat="46.43555" lon="5.33444">
        <ele>237.80000305176</ele>
        <time>2020-07-31T05:01:17.000Z</time>
      </trkpt>
      <trkpt lat="46.43548" lon="5.33444">
        <ele>238</ele>
        <time>2020-07-31T05:01:18.000Z</time>
      </trkpt>
      <trkpt lat="46.43536" lon="5.33448">
        <ele>238.19999694824</ele>
        <time>2020-07-31T05:01:20.000Z</time>
      </trkpt>
      <trkpt lat="46.4353" lon="5.33452">
        <ele>238.19999694824</ele>
        <time>2020-07-31T05:01:21.000Z</time>
      </trkpt>
      <trkpt lat="46.43525" lon="5.33458">
        <ele>238.39999389648</ele>
        <time>2020-07-31T05:01:22.000Z</time>
      </trkpt>
      <trkpt lat="46.43519" lon="5.33464">
        <ele>238.39999389648</ele>
        <time>2020-07-31T05:01:23.000Z</time>
      </trkpt>
      <trkpt lat="46.43514" lon="5.33471">
        <ele>238.39999389648</ele>
        <time>2020-07-31T05:01:24.000Z</time>
      </trkpt>
      <trkpt lat="46.43509" lon="5.33478">
        <ele>238.39999389648</ele>
        <time>2020-07-31T05:01:25.000Z</time>
      </trkpt>
      <trkpt lat="46.43504" lon="5.33484">
        <ele>238.39999389648</ele>
        <time>2020-07-31T05:01:26.000Z</time>
      </trkpt>
      <trkpt lat="46.43499" lon="5.33491">
        <ele>238.39999389648</ele>
        <time>2020-07-31T05:01:27.000Z</time>
      </trkpt>
      <trkpt lat="46.43489" lon="5.33504">
        <ele>238.19999694824</ele>
        <time>2020-07-31T05:01:29.000Z</time>
      </trkpt>
      <trkpt lat="46.43479" lon="5.33518">
        <ele>238.19999694824</ele>
        <time>2020-07-31T05:01:31.000Z</time>
      </trkpt>
      <trkpt lat="46.43466" lon="5.33541">
        <ele>238</ele>
        <time>2020-07-31T05:01:34.000Z</time>
      </trkpt>
      <trkpt lat="46.43463" lon="5.3355">
        <ele>238</ele>
        <time>2020-07-31T05:01:35.000Z</time>
      </trkpt>
      <trkpt lat="46.4346" lon="5.33558">
        <ele>238</ele>
        <time>2020-07-31T05:01:36.000Z</time>
      </trkpt>
      <trkpt lat="46.43457" lon="5.33575">
        <ele>238</ele>
        <time>2020-07-31T05:01:38.000Z</time>
      </trkpt>
      <trkpt lat="46.43455" lon="5.33599">
        <ele>238</ele>
        <time>2020-07-31T05:01:41.000Z</time>
      </trkpt>
      <trkpt lat="46.43455" lon="5.33615">
        <ele>238.19999694824</ele>
        <time>2020-07-31T05:01:43.000Z</time>
      </trkpt>
      <trkpt lat="46.43455" lon="5.33622">
        <ele>238.39999389648</ele>
        <time>2020-07-31T05:01:44.000Z</time>
      </trkpt>
      <trkpt lat="46.43455" lon="5.33629">
        <ele>238.60000610352</ele>
        <time>2020-07-31T05:01:45.000Z</time>
      </trkpt>
      <trkpt lat="46.43457" lon="5.33642">
        <ele>239.19999694824</ele>
        <time>2020-07-31T05:01:47.000Z</time>
      </trkpt>
      <trkpt lat="46.43459" lon="5.33648">
        <ele>239.39999389648</ele>
        <time>2020-07-31T05:01:48.000Z</time>
      </trkpt>
      <trkpt lat="46.4346" lon="5.33654">
        <ele>239.80000305176</ele>
        <time>2020-07-31T05:01:49.000Z</time>
      </trkpt>
      <trkpt lat="46.43462" lon="5.33659">
        <ele>240.19999694824</ele>
        <time>2020-07-31T05:01:50.000Z</time>
      </trkpt>
      <trkpt lat="46.43465" lon="5.3367">
        <ele>240.80000305176</ele>
        <time>2020-07-31T05:01:52.000Z</time>
      </trkpt>
      <trkpt lat="46.43466" lon="5.33676">
        <ele>241</ele>
        <time>2020-07-31T05:01:53.000Z</time>
      </trkpt>
      <trkpt lat="46.43471" lon="5.3369">
        <ele>241.80000305176</ele>
        <time>2020-07-31T05:01:56.000Z</time>
      </trkpt>
      <trkpt lat="46.43474" lon="5.33695">
        <ele>242.19999694824</ele>
        <time>2020-07-31T05:01:57.000Z</time>
      </trkpt>
      <trkpt lat="46.43478" lon="5.33703">
        <ele>242.60000610352</ele>
        <time>2020-07-31T05:01:59.000Z</time>
      </trkpt>
      <trkpt lat="46.43482" lon="5.33712">
        <ele>243</ele>
        <time>2020-07-31T05:02:01.000Z</time>
      </trkpt>
      <trkpt lat="46.43484" lon="5.33715">
        <ele>243.19999694824</ele>
        <time>2020-07-31T05:02:02.000Z</time>
      </trkpt>
      <trkpt lat="46.43485" lon="5.33718">
        <ele>243.39999389648</ele>
        <time>2020-07-31T05:02:03.000Z</time>
      </trkpt>
      <trkpt lat="46.43486" lon="5.33722">
        <ele>243.60000610352</ele>
        <time>2020-07-31T05:02:04.000Z</time>
      </trkpt>
      <trkpt lat="46.43492" lon="5.33734">
        <ele>244.19999694824</ele>
        <time>2020-07-31T05:02:07.000Z</time>
      </trkpt>
      <trkpt lat="46.43494" lon="5.33739">
        <ele>244.39999389648</ele>
        <time>2020-07-31T05:02:08.000Z</time>
      </trkpt>
      <trkpt lat="46.43495" lon="5.33744">
        <ele>244.60000610352</ele>
        <time>2020-07-31T05:02:09.000Z</time>
      </trkpt>
      <trkpt lat="46.43496" lon="5.33756">
        <ele>244.80000305176</ele>
        <time>2020-07-31T05:02:11.000Z</time>
      </trkpt>
      <trkpt lat="46.43497" lon="5.33769">
        <ele>245.19999694824</ele>
        <time>2020-07-31T05:02:13.000Z</time>
      </trkpt>
      <trkpt lat="46.43497" lon="5.33781">
        <ele>245.80000305176</ele>
        <time>2020-07-31T05:02:15.000Z</time>
      </trkpt>
      <trkpt lat="46.43499" lon="5.33793">
        <ele>246</ele>
        <time>2020-07-31T05:02:17.000Z</time>
      </trkpt>
      <trkpt lat="46.43499" lon="5.33798">
        <ele>246.19999694824</ele>
        <time>2020-07-31T05:02:18.000Z</time>
      </trkpt>
      <trkpt lat="46.43499" lon="5.33804">
        <ele>246.39999389648</ele>
        <time>2020-07-31T05:02:19.000Z</time>
      </trkpt>
      <trkpt lat="46.43499" lon="5.3381">
        <ele>246.80000305176</ele>
        <time>2020-07-31T05:02:20.000Z</time>
      </trkpt>
      <trkpt lat="46.43497" lon="5.33822">
        <ele>247</ele>
        <time>2020-07-31T05:02:22.000Z</time>
      </trkpt>
      <trkpt lat="46.43496" lon="5.33834">
        <ele>247.39999389648</ele>
        <time>2020-07-31T05:02:24.000Z</time>
      </trkpt>
      <trkpt lat="46.43495" lon="5.3384">
        <ele>247.39999389648</ele>
        <time>2020-07-31T05:02:25.000Z</time>
      </trkpt>
      <trkpt lat="46.43495" lon="5.33846">
        <ele>247.60000610352</ele>
        <time>2020-07-31T05:02:26.000Z</time>
      </trkpt>
      <trkpt lat="46.43494" lon="5.33858">
        <ele>247.80000305176</ele>
        <time>2020-07-31T05:02:28.000Z</time>
      </trkpt>
      <trkpt lat="46.43493" lon="5.33863">
        <ele>248.19999694824</ele>
        <time>2020-07-31T05:02:29.000Z</time>
      </trkpt>
      <trkpt lat="46.43492" lon="5.33873">
        <ele>248.39999389648</ele>
        <time>2020-07-31T05:02:31.000Z</time>
      </trkpt>
      <trkpt lat="46.43491" lon="5.33878">
        <ele>248.60000610352</ele>
        <time>2020-07-31T05:02:32.000Z</time>
      </trkpt>
      <trkpt lat="46.43491" lon="5.33884">
        <ele>248.80000305176</ele>
        <time>2020-07-31T05:02:33.000Z</time>
      </trkpt>
      <trkpt lat="46.4349" lon="5.33894">
        <ele>249.19999694824</ele>
        <time>2020-07-31T05:02:35.000Z</time>
      </trkpt>
      <trkpt lat="46.4349" lon="5.33904">
        <ele>249.80000305176</ele>
        <time>2020-07-31T05:02:37.000Z</time>
      </trkpt>
      <trkpt lat="46.43489" lon="5.33909">
        <ele>250.19999694824</ele>
        <time>2020-07-31T05:02:38.000Z</time>
      </trkpt>
      <trkpt lat="46.43488" lon="5.33914">
        <ele>250.60000610352</ele>
        <time>2020-07-31T05:02:39.000Z</time>
      </trkpt>
      <trkpt lat="46.43488" lon="5.3392">
        <ele>250.80000305176</ele>
        <time>2020-07-31T05:02:40.000Z</time>
      </trkpt>
      <trkpt lat="46.43487" lon="5.33925">
        <ele>251.19999694824</ele>
        <time>2020-07-31T05:02:41.000Z</time>
      </trkpt>
      <trkpt lat="46.43485" lon="5.33936">
        <ele>251.80000305176</ele>
        <time>2020-07-31T05:02:43.000Z</time>
      </trkpt>
      <trkpt lat="46.43485" lon="5.33942">
        <ele>252</ele>
        <time>2020-07-31T05:02:44.000Z</time>
      </trkpt>
      <trkpt lat="46.43484" lon="5.33958">
        <ele>252.60000610352</ele>
        <time>2020-07-31T05:02:47.000Z</time>
      </trkpt>
      <trkpt lat="46.43483" lon="5.33969">
        <ele>253.19999694824</ele>
        <time>2020-07-31T05:02:49.000Z</time>
      </trkpt>
      <trkpt lat="46.43482" lon="5.33975">
        <ele>253.39999389648</ele>
        <time>2020-07-31T05:02:50.000Z</time>
      </trkpt>
      <trkpt lat="46.43482" lon="5.3398">
        <ele>253.60000610352</ele>
        <time>2020-07-31T05:02:51.000Z</time>
      </trkpt>
      <trkpt lat="46.43482" lon="5.33986">
        <ele>253.80000305176</ele>
        <time>2020-07-31T05:02:52.000Z</time>
      </trkpt>
      <trkpt lat="46.43481" lon="5.33997">
        <ele>254.19999694824</ele>
        <time>2020-07-31T05:02:54.000Z</time>
      </trkpt>
      <trkpt lat="46.4348" lon="5.34009">
        <ele>254.80000305176</ele>
        <time>2020-07-31T05:02:56.000Z</time>
      </trkpt>
      <trkpt lat="46.43479" lon="5.34021">
        <ele>255.19999694824</ele>
        <time>2020-07-31T05:02:58.000Z</time>
      </trkpt>
      <trkpt lat="46.43479" lon="5.34027">
        <ele>255.39999389648</ele>
        <time>2020-07-31T05:02:59.000Z</time>
      </trkpt>
      <trkpt lat="46.43478" lon="5.34033">
        <ele>255.60000610352</ele>
        <time>2020-07-31T05:03:00.000Z</time>
      </trkpt>
      <trkpt lat="46.43478" lon="5.34039">
        <ele>255.80000305176</ele>
        <time>2020-07-31T05:03:01.000Z</time>
      </trkpt>
      <trkpt lat="46.43477" lon="5.34052">
        <ele>256</ele>
        <time>2020-07-31T05:03:03.000Z</time>
      </trkpt>
      <trkpt lat="46.43476" lon="5.34064">
        <ele>256.20001220703</ele>
        <time>2020-07-31T05:03:05.000Z</time>
      </trkpt>
      <trkpt lat="46.43474" lon="5.34077">
        <ele>256.39999389648</ele>
        <time>2020-07-31T05:03:07.000Z</time>
      </trkpt>
      <trkpt lat="46.43473" lon="5.34084">
        <ele>256.39999389648</ele>
        <time>2020-07-31T05:03:08.000Z</time>
      </trkpt>
      <trkpt lat="46.43473" lon="5.3409">
        <ele>256.60000610352</ele>
        <time>2020-07-31T05:03:09.000Z</time>
      </trkpt>
      <trkpt lat="46.43472" lon="5.34104">
        <ele>256.60000610352</ele>
        <time>2020-07-31T05:03:11.000Z</time>
      </trkpt>
      <trkpt lat="46.43471" lon="5.34117">
        <ele>256.60000610352</ele>
        <time>2020-07-31T05:03:13.000Z</time>
      </trkpt>
      <trkpt lat="46.4347" lon="5.34124">
        <ele>256.60000610352</ele>
        <time>2020-07-31T05:03:14.000Z</time>
      </trkpt>
      <trkpt lat="46.43468" lon="5.34144">
        <ele>256.79998779297</ele>
        <time>2020-07-31T05:03:17.000Z</time>
      </trkpt>
      <trkpt lat="46.43468" lon="5.34151">
        <ele>256.79998779297</ele>
        <time>2020-07-31T05:03:18.000Z</time>
      </trkpt>
      <trkpt lat="46.43466" lon="5.34164">
        <ele>257</ele>
        <time>2020-07-31T05:03:20.000Z</time>
      </trkpt>
      <trkpt lat="46.43465" lon="5.34177">
        <ele>257.20001220703</ele>
        <time>2020-07-31T05:03:22.000Z</time>
      </trkpt>
      <trkpt lat="46.43463" lon="5.34183">
        <ele>257.39999389648</ele>
        <time>2020-07-31T05:03:23.000Z</time>
      </trkpt>
      <trkpt lat="46.43462" lon="5.34189">
        <ele>257.60000610352</ele>
        <time>2020-07-31T05:03:24.000Z</time>
      </trkpt>
      <trkpt lat="46.4346" lon="5.34195">
        <ele>257.79998779297</ele>
        <time>2020-07-31T05:03:25.000Z</time>
      </trkpt>
      <trkpt lat="46.43455" lon="5.34214">
        <ele>258</ele>
        <time>2020-07-31T05:03:28.000Z</time>
      </trkpt>
      <trkpt lat="46.43453" lon="5.34221">
        <ele>258</ele>
        <time>2020-07-31T05:03:29.000Z</time>
      </trkpt>
      <trkpt lat="46.43452" lon="5.34234">
        <ele>258.20001220703</ele>
        <time>2020-07-31T05:03:31.000Z</time>
      </trkpt>
      <trkpt lat="46.43451" lon="5.34241">
        <ele>258.20001220703</ele>
        <time>2020-07-31T05:03:32.000Z</time>
      </trkpt>
      <trkpt lat="46.43452" lon="5.34255">
        <ele>258.39999389648</ele>
        <time>2020-07-31T05:03:34.000Z</time>
      </trkpt>
      <trkpt lat="46.43452" lon="5.34262">
        <ele>258.39999389648</ele>
        <time>2020-07-31T05:03:35.000Z</time>
      </trkpt>
      <trkpt lat="46.4345" lon="5.34267">
        <ele>258.39999389648</ele>
        <time>2020-07-31T05:03:36.000Z</time>
      </trkpt>
      <trkpt lat="46.4344" lon="5.34271">
        <ele>258.39999389648</ele>
        <time>2020-07-31T05:03:38.000Z</time>
      </trkpt>
      <trkpt lat="46.43426" lon="5.34268">
        <ele>258.39999389648</ele>
        <time>2020-07-31T05:03:40.000Z</time>
      </trkpt>
      <trkpt lat="46.43419" lon="5.34266">
        <ele>258.39999389648</ele>
        <time>2020-07-31T05:03:41.000Z</time>
      </trkpt>
      <trkpt lat="46.4341" lon="5.34263">
        <ele>258.39999389648</ele>
        <time>2020-07-31T05:03:42.000Z</time>
      </trkpt>
      <trkpt lat="46.43402" lon="5.34261">
        <ele>258.39999389648</ele>
        <time>2020-07-31T05:03:43.000Z</time>
      </trkpt>
      <trkpt lat="46.43383" lon="5.34255">
        <ele>258.20001220703</ele>
        <time>2020-07-31T05:03:45.000Z</time>
      </trkpt>
      <trkpt lat="46.43363" lon="5.34249">
        <ele>256.60000610352</ele>
        <time>2020-07-31T05:03:47.000Z</time>
      </trkpt>
      <trkpt lat="46.43352" lon="5.34245">
        <ele>255.80000305176</ele>
        <time>2020-07-31T05:03:48.000Z</time>
      </trkpt>
      <trkpt lat="46.43342" lon="5.34241">
        <ele>254.60000610352</ele>
        <time>2020-07-31T05:03:49.000Z</time>
      </trkpt>
      <trkpt lat="46.43332" lon="5.34237">
        <ele>253.39999389648</ele>
        <time>2020-07-31T05:03:50.000Z</time>
      </trkpt>
      <trkpt lat="46.43322" lon="5.34232">
        <ele>252.19999694824</ele>
        <time>2020-07-31T05:03:51.000Z</time>
      </trkpt>
      <trkpt lat="46.43312" lon="5.34226">
        <ele>251</ele>
        <time>2020-07-31T05:03:52.000Z</time>
      </trkpt>
      <trkpt lat="46.43303" lon="5.34219">
        <ele>249.80000305176</ele>
        <time>2020-07-31T05:03:53.000Z</time>
      </trkpt>
      <trkpt lat="46.43293" lon="5.34212">
        <ele>248.60000610352</ele>
        <time>2020-07-31T05:03:54.000Z</time>
      </trkpt>
      <trkpt lat="46.43284" lon="5.34205">
        <ele>247.60000610352</ele>
        <time>2020-07-31T05:03:55.000Z</time>
      </trkpt>
      <trkpt lat="46.43275" lon="5.34197">
        <ele>247</ele>
        <time>2020-07-31T05:03:56.000Z</time>
      </trkpt>
      <trkpt lat="46.43266" lon="5.34189">
        <ele>246.39999389648</ele>
        <time>2020-07-31T05:03:57.000Z</time>
      </trkpt>
      <trkpt lat="46.43257" lon="5.34181">
        <ele>246</ele>
        <time>2020-07-31T05:03:58.000Z</time>
      </trkpt>
      <trkpt lat="46.4324" lon="5.34165">
        <ele>244.60000610352</ele>
        <time>2020-07-31T05:04:00.000Z</time>
      </trkpt>
      <trkpt lat="46.43232" lon="5.34158">
        <ele>243.80000305176</ele>
        <time>2020-07-31T05:04:01.000Z</time>
      </trkpt>
      <trkpt lat="46.43224" lon="5.3415">
        <ele>243</ele>
        <time>2020-07-31T05:04:02.000Z</time>
      </trkpt>
      <trkpt lat="46.43209" lon="5.34135">
        <ele>242</ele>
        <time>2020-07-31T05:04:04.000Z</time>
      </trkpt>
      <trkpt lat="46.43202" lon="5.34127">
        <ele>241.60000610352</ele>
        <time>2020-07-31T05:04:05.000Z</time>
      </trkpt>
      <trkpt lat="46.43195" lon="5.34119">
        <ele>241.39999389648</ele>
        <time>2020-07-31T05:04:06.000Z</time>
      </trkpt>
      <trkpt lat="46.43182" lon="5.34104">
        <ele>241.19999694824</ele>
        <time>2020-07-31T05:04:08.000Z</time>
      </trkpt>
      <trkpt lat="46.43176" lon="5.34096">
        <ele>241.19999694824</ele>
        <time>2020-07-31T05:04:09.000Z</time>
      </trkpt>
      <trkpt lat="46.43165" lon="5.3408">
        <ele>241</ele>
        <time>2020-07-31T05:04:11.000Z</time>
      </trkpt>
      <trkpt lat="46.4315" lon="5.34057">
        <ele>241</ele>
        <time>2020-07-31T05:04:14.000Z</time>
      </trkpt>
      <trkpt lat="46.43141" lon="5.34042">
        <ele>241.60000610352</ele>
        <time>2020-07-31T05:04:16.000Z</time>
      </trkpt>
      <trkpt lat="46.43137" lon="5.34034">
        <ele>241.80000305176</ele>
        <time>2020-07-31T05:04:17.000Z</time>
      </trkpt>
      <trkpt lat="46.43123" lon="5.34013">
        <ele>243</ele>
        <time>2020-07-31T05:04:20.000Z</time>
      </trkpt>
      <trkpt lat="46.43113" lon="5.34">
        <ele>243.80000305176</ele>
        <time>2020-07-31T05:04:22.000Z</time>
      </trkpt>
      <trkpt lat="46.43109" lon="5.33993">
        <ele>244.19999694824</ele>
        <time>2020-07-31T05:04:23.000Z</time>
      </trkpt>
      <trkpt lat="46.43098" lon="5.33981">
        <ele>244.80000305176</ele>
        <time>2020-07-31T05:04:25.000Z</time>
      </trkpt>
      <trkpt lat="46.43093" lon="5.33975">
        <ele>245</ele>
        <time>2020-07-31T05:04:26.000Z</time>
      </trkpt>
      <trkpt lat="46.43087" lon="5.3397">
        <ele>245.19999694824</ele>
        <time>2020-07-31T05:04:27.000Z</time>
      </trkpt>
      <trkpt lat="46.43081" lon="5.33965">
        <ele>245.39999389648</ele>
        <time>2020-07-31T05:04:28.000Z</time>
      </trkpt>
      <trkpt lat="46.43069" lon="5.33954">
        <ele>245.39999389648</ele>
        <time>2020-07-31T05:04:30.000Z</time>
      </trkpt>
      <trkpt lat="46.43052" lon="5.33937">
        <ele>245.60000610352</ele>
        <time>2020-07-31T05:04:33.000Z</time>
      </trkpt>
      <trkpt lat="46.43041" lon="5.33926">
        <ele>245.60000610352</ele>
        <time>2020-07-31T05:04:35.000Z</time>
      </trkpt>
      <trkpt lat="46.4303" lon="5.33916">
        <ele>245.60000610352</ele>
        <time>2020-07-31T05:04:37.000Z</time>
      </trkpt>
      <trkpt lat="46.43018" lon="5.33906">
        <ele>245.60000610352</ele>
        <time>2020-07-31T05:04:39.000Z</time>
      </trkpt>
      <trkpt lat="46.43006" lon="5.33896">
        <ele>245.60000610352</ele>
        <time>2020-07-31T05:04:41.000Z</time>
      </trkpt>
      <trkpt lat="46.42994" lon="5.33886">
        <ele>245.60000610352</ele>
        <time>2020-07-31T05:04:43.000Z</time>
      </trkpt>
      <trkpt lat="46.42981" lon="5.33877">
        <ele>245.39999389648</ele>
        <time>2020-07-31T05:04:45.000Z</time>
      </trkpt>
      <trkpt lat="46.42969" lon="5.33869">
        <ele>245.39999389648</ele>
        <time>2020-07-31T05:04:47.000Z</time>
      </trkpt>
      <trkpt lat="46.42956" lon="5.33861">
        <ele>245.39999389648</ele>
        <time>2020-07-31T05:04:49.000Z</time>
      </trkpt>
      <trkpt lat="46.42943" lon="5.33854">
        <ele>245.39999389648</ele>
        <time>2020-07-31T05:04:51.000Z</time>
      </trkpt>
      <trkpt lat="46.4293" lon="5.33846">
        <ele>245.19999694824</ele>
        <time>2020-07-31T05:04:53.000Z</time>
      </trkpt>
      <trkpt lat="46.42923" lon="5.33843">
        <ele>245.19999694824</ele>
        <time>2020-07-31T05:04:54.000Z</time>
      </trkpt>
      <trkpt lat="46.42916" lon="5.33842">
        <ele>245.19999694824</ele>
        <time>2020-07-31T05:04:55.000Z</time>
      </trkpt>
      <trkpt lat="46.42901" lon="5.33839">
        <ele>245.19999694824</ele>
        <time>2020-07-31T05:04:57.000Z</time>
      </trkpt>
      <trkpt lat="46.42894" lon="5.33838">
        <ele>245.19999694824</ele>
        <time>2020-07-31T05:04:58.000Z</time>
      </trkpt>
      <trkpt lat="46.42879" lon="5.33838">
        <ele>245.19999694824</ele>
        <time>2020-07-31T05:05:00.000Z</time>
      </trkpt>
      <trkpt lat="46.42864" lon="5.33836">
        <ele>245</ele>
        <time>2020-07-31T05:05:02.000Z</time>
      </trkpt>
      <trkpt lat="46.42843" lon="5.33835">
        <ele>244.80000305176</ele>
        <time>2020-07-31T05:05:05.000Z</time>
      </trkpt>
      <trkpt lat="46.42835" lon="5.33834">
        <ele>244.60000610352</ele>
        <time>2020-07-31T05:05:06.000Z</time>
      </trkpt>
      <trkpt lat="46.42821" lon="5.33832">
        <ele>244</ele>
        <time>2020-07-31T05:05:08.000Z</time>
      </trkpt>
      <trkpt lat="46.42807" lon="5.33831">
        <ele>243.60000610352</ele>
        <time>2020-07-31T05:05:10.000Z</time>
      </trkpt>
      <trkpt lat="46.42794" lon="5.33829">
        <ele>243.39999389648</ele>
        <time>2020-07-31T05:05:12.000Z</time>
      </trkpt>
      <trkpt lat="46.42783" lon="5.33826">
        <ele>243.39999389648</ele>
        <time>2020-07-31T05:05:14.000Z</time>
      </trkpt>
      <trkpt lat="46.42768" lon="5.33821">
        <ele>243.39999389648</ele>
        <time>2020-07-31T05:05:17.000Z</time>
      </trkpt>
      <trkpt lat="46.42759" lon="5.33817">
        <ele>244</ele>
        <time>2020-07-31T05:05:19.000Z</time>
      </trkpt>
      <trkpt lat="46.4275" lon="5.33812">
        <ele>244.80000305176</ele>
        <time>2020-07-31T05:05:21.000Z</time>
      </trkpt>
      <trkpt lat="46.42746" lon="5.3381">
        <ele>245.39999389648</ele>
        <time>2020-07-31T05:05:22.000Z</time>
      </trkpt>
      <trkpt lat="46.42742" lon="5.33808">
        <ele>245.80000305176</ele>
        <time>2020-07-31T05:05:23.000Z</time>
      </trkpt>
      <trkpt lat="46.42734" lon="5.33803">
        <ele>246.60000610352</ele>
        <time>2020-07-31T05:05:25.000Z</time>
      </trkpt>
      <trkpt lat="46.42729" lon="5.33801">
        <ele>247</ele>
        <time>2020-07-31T05:05:26.000Z</time>
      </trkpt>
      <trkpt lat="46.42725" lon="5.33799">
        <ele>247.19999694824</ele>
        <time>2020-07-31T05:05:27.000Z</time>
      </trkpt>
      <trkpt lat="46.42717" lon="5.33796">
        <ele>247.60000610352</ele>
        <time>2020-07-31T05:05:29.000Z</time>
      </trkpt>
      <trkpt lat="46.42712" lon="5.33795">
        <ele>248</ele>
        <time>2020-07-31T05:05:30.000Z</time>
      </trkpt>
      <trkpt lat="46.42698" lon="5.33794">
        <ele>248.80000305176</ele>
        <time>2020-07-31T05:05:33.000Z</time>
      </trkpt>
      <trkpt lat="46.42688" lon="5.33794">
        <ele>249.39999389648</ele>
        <time>2020-07-31T05:05:35.000Z</time>
      </trkpt>
      <trkpt lat="46.42679" lon="5.33793">
        <ele>249.60000610352</ele>
        <time>2020-07-31T05:05:37.000Z</time>
      </trkpt>
      <trkpt lat="46.42674" lon="5.33793">
        <ele>249.80000305176</ele>
        <time>2020-07-31T05:05:38.000Z</time>
      </trkpt>
      <trkpt lat="46.4267" lon="5.33793">
        <ele>249.80000305176</ele>
        <time>2020-07-31T05:05:39.000Z</time>
      </trkpt>
      <trkpt lat="46.42665" lon="5.33794">
        <ele>250</ele>
        <time>2020-07-31T05:05:40.000Z</time>
      </trkpt>
      <trkpt lat="46.4266" lon="5.33795">
        <ele>250</ele>
        <time>2020-07-31T05:05:41.000Z</time>
      </trkpt>
      <trkpt lat="46.4265" lon="5.33796">
        <ele>250.19999694824</ele>
        <time>2020-07-31T05:05:43.000Z</time>
      </trkpt>
      <trkpt lat="46.4264" lon="5.33797">
        <ele>250.60000610352</ele>
        <time>2020-07-31T05:05:45.000Z</time>
      </trkpt>
      <trkpt lat="46.42635" lon="5.33798">
        <ele>250.60000610352</ele>
        <time>2020-07-31T05:05:46.000Z</time>
      </trkpt>
      <trkpt lat="46.42619" lon="5.338">
        <ele>250.80000305176</ele>
        <time>2020-07-31T05:05:49.000Z</time>
      </trkpt>
      <trkpt lat="46.42614" lon="5.338">
        <ele>251</ele>
        <time>2020-07-31T05:05:50.000Z</time>
      </trkpt>
      <trkpt lat="46.42608" lon="5.33801">
        <ele>251</ele>
        <time>2020-07-31T05:05:51.000Z</time>
      </trkpt>
      <trkpt lat="46.42603" lon="5.338">
        <ele>251</ele>
        <time>2020-07-31T05:05:52.000Z</time>
      </trkpt>
      <trkpt lat="46.42592" lon="5.33799">
        <ele>251</ele>
        <time>2020-07-31T05:05:54.000Z</time>
      </trkpt>
      <trkpt lat="46.42578" lon="5.33794">
        <ele>251</ele>
        <time>2020-07-31T05:05:57.000Z</time>
      </trkpt>
      <trkpt lat="46.42569" lon="5.33789">
        <ele>251</ele>
        <time>2020-07-31T05:05:59.000Z</time>
      </trkpt>
      <trkpt lat="46.42565" lon="5.33787">
        <ele>251.19999694824</ele>
        <time>2020-07-31T05:06:00.000Z</time>
      </trkpt>
      <trkpt lat="46.42556" lon="5.33781">
        <ele>251.19999694824</ele>
        <time>2020-07-31T05:06:02.000Z</time>
      </trkpt>
      <trkpt lat="46.42545" lon="5.33773">
        <ele>251.80000305176</ele>
        <time>2020-07-31T05:06:05.000Z</time>
      </trkpt>
      <trkpt lat="46.42541" lon="5.3377">
        <ele>252</ele>
        <time>2020-07-31T05:06:06.000Z</time>
      </trkpt>
      <trkpt lat="46.42538" lon="5.33768">
        <ele>252.39999389648</ele>
        <time>2020-07-31T05:06:07.000Z</time>
      </trkpt>
      <trkpt lat="46.42531" lon="5.33762">
        <ele>252.80000305176</ele>
        <time>2020-07-31T05:06:09.000Z</time>
      </trkpt>
      <trkpt lat="46.42525" lon="5.33757">
        <ele>253.19999694824</ele>
        <time>2020-07-31T05:06:11.000Z</time>
      </trkpt>
      <trkpt lat="46.42518" lon="5.33753">
        <ele>253.80000305176</ele>
        <time>2020-07-31T05:06:13.000Z</time>
      </trkpt>
      <trkpt lat="46.42511" lon="5.33748">
        <ele>254.39999389648</ele>
        <time>2020-07-31T05:06:15.000Z</time>
      </trkpt>
      <trkpt lat="46.42504" lon="5.33743">
        <ele>255</ele>
        <time>2020-07-31T05:06:17.000Z</time>
      </trkpt>
      <trkpt lat="46.42501" lon="5.33741">
        <ele>255.19999694824</ele>
        <time>2020-07-31T05:06:18.000Z</time>
      </trkpt>
      <trkpt lat="46.42498" lon="5.33738">
        <ele>255.60000610352</ele>
        <time>2020-07-31T05:06:19.000Z</time>
      </trkpt>
      <trkpt lat="46.42491" lon="5.33733">
        <ele>256.20001220703</ele>
        <time>2020-07-31T05:06:21.000Z</time>
      </trkpt>
      <trkpt lat="46.42487" lon="5.3373">
        <ele>256.60000610352</ele>
        <time>2020-07-31T05:06:22.000Z</time>
      </trkpt>
      <trkpt lat="46.42484" lon="5.33727">
        <ele>256.79998779297</ele>
        <time>2020-07-31T05:06:23.000Z</time>
      </trkpt>
      <trkpt lat="46.42477" lon="5.3372">
        <ele>257.20001220703</ele>
        <time>2020-07-31T05:06:25.000Z</time>
      </trkpt>
      <trkpt lat="46.42473" lon="5.33717">
        <ele>257.39999389648</ele>
        <time>2020-07-31T05:06:26.000Z</time>
      </trkpt>
      <trkpt lat="46.42469" lon="5.33713">
        <ele>257.79998779297</ele>
        <time>2020-07-31T05:06:27.000Z</time>
      </trkpt>
      <trkpt lat="46.42464" lon="5.3371">
        <ele>258</ele>
        <time>2020-07-31T05:06:28.000Z</time>
      </trkpt>
      <trkpt lat="46.42451" lon="5.33701">
        <ele>258.39999389648</ele>
        <time>2020-07-31T05:06:31.000Z</time>
      </trkpt>
      <trkpt lat="46.42446" lon="5.33698">
        <ele>258.60000610352</ele>
        <time>2020-07-31T05:06:32.000Z</time>
      </trkpt>
      <trkpt lat="46.42437" lon="5.33692">
        <ele>258.79998779297</ele>
        <time>2020-07-31T05:06:34.000Z</time>
      </trkpt>
      <trkpt lat="46.42423" lon="5.33684">
        <ele>258.79998779297</ele>
        <time>2020-07-31T05:06:37.000Z</time>
      </trkpt>
      <trkpt lat="46.42413" lon="5.3368">
        <ele>258.79998779297</ele>
        <time>2020-07-31T05:06:39.000Z</time>
      </trkpt>
      <trkpt lat="46.42408" lon="5.33678">
        <ele>259</ele>
        <time>2020-07-31T05:06:40.000Z</time>
      </trkpt>
      <trkpt lat="46.42403" lon="5.33676">
        <ele>259</ele>
        <time>2020-07-31T05:06:41.000Z</time>
      </trkpt>
      <trkpt lat="46.42393" lon="5.33675">
        <ele>259</ele>
        <time>2020-07-31T05:06:43.000Z</time>
      </trkpt>
      <trkpt lat="46.42384" lon="5.33676">
        <ele>259</ele>
        <time>2020-07-31T05:06:45.000Z</time>
      </trkpt>
      <trkpt lat="46.42379" lon="5.33678">
        <ele>259</ele>
        <time>2020-07-31T05:06:46.000Z</time>
      </trkpt>
      <trkpt lat="46.42374" lon="5.3368">
        <ele>259</ele>
        <time>2020-07-31T05:06:47.000Z</time>
      </trkpt>
      <trkpt lat="46.42362" lon="5.33687">
        <ele>259.20001220703</ele>
        <time>2020-07-31T05:06:50.000Z</time>
      </trkpt>
      <trkpt lat="46.42358" lon="5.3369">
        <ele>259.39999389648</ele>
        <time>2020-07-31T05:06:51.000Z</time>
      </trkpt>
      <trkpt lat="46.42355" lon="5.33693">
        <ele>259.39999389648</ele>
        <time>2020-07-31T05:06:52.000Z</time>
      </trkpt>
      <trkpt lat="46.42348" lon="5.33698">
        <ele>259.79998779297</ele>
        <time>2020-07-31T05:06:54.000Z</time>
      </trkpt>
      <trkpt lat="46.42337" lon="5.33704">
        <ele>260</ele>
        <time>2020-07-31T05:06:57.000Z</time>
      </trkpt>
      <trkpt lat="46.4233" lon="5.33708">
        <ele>261</ele>
        <time>2020-07-31T05:06:59.000Z</time>
      </trkpt>
      <trkpt lat="46.42324" lon="5.33712">
        <ele>261.60000610352</ele>
        <time>2020-07-31T05:07:01.000Z</time>
      </trkpt>
      <trkpt lat="46.42321" lon="5.33714">
        <ele>261.60000610352</ele>
        <time>2020-07-31T05:07:02.000Z</time>
      </trkpt>
      <trkpt lat="46.42318" lon="5.33716">
        <ele>262</ele>
        <time>2020-07-31T05:07:03.000Z</time>
      </trkpt>
      <trkpt lat="46.42316" lon="5.33719">
        <ele>262.20001220703</ele>
        <time>2020-07-31T05:07:04.000Z</time>
      </trkpt>
      <trkpt lat="46.42314" lon="5.33721">
        <ele>262.39999389648</ele>
        <time>2020-07-31T05:07:05.000Z</time>
      </trkpt>
      <trkpt lat="46.42309" lon="5.33727">
        <ele>262.79998779297</ele>
        <time>2020-07-31T05:07:07.000Z</time>
      </trkpt>
      <trkpt lat="46.42307" lon="5.3373">
        <ele>263</ele>
        <time>2020-07-31T05:07:08.000Z</time>
      </trkpt>
      <trkpt lat="46.42305" lon="5.33734">
        <ele>263.20001220703</ele>
        <time>2020-07-31T05:07:09.000Z</time>
      </trkpt>
      <trkpt lat="46.42303" lon="5.33738">
        <ele>263.79998779297</ele>
        <time>2020-07-31T05:07:10.000Z</time>
      </trkpt>
      <trkpt lat="46.42299" lon="5.33745">
        <ele>264.39999389648</ele>
        <time>2020-07-31T05:07:12.000Z</time>
      </trkpt>
      <trkpt lat="46.42297" lon="5.33749">
        <ele>264.39999389648</ele>
        <time>2020-07-31T05:07:13.000Z</time>
      </trkpt>
      <trkpt lat="46.42294" lon="5.33753">
        <ele>264.79998779297</ele>
        <time>2020-07-31T05:07:14.000Z</time>
      </trkpt>
      <trkpt lat="46.42292" lon="5.33758">
        <ele>265</ele>
        <time>2020-07-31T05:07:15.000Z</time>
      </trkpt>
      <trkpt lat="46.4229" lon="5.33762">
        <ele>265.20001220703</ele>
        <time>2020-07-31T05:07:16.000Z</time>
      </trkpt>
      <trkpt lat="46.42288" lon="5.33767">
        <ele>265.39999389648</ele>
        <time>2020-07-31T05:07:17.000Z</time>
      </trkpt>
      <trkpt lat="46.42283" lon="5.33776">
        <ele>265.79998779297</ele>
        <time>2020-07-31T05:07:19.000Z</time>
      </trkpt>
      <trkpt lat="46.42281" lon="5.33781">
        <ele>266</ele>
        <time>2020-07-31T05:07:20.000Z</time>
      </trkpt>
      <trkpt lat="46.42278" lon="5.33786">
        <ele>266.20001220703</ele>
        <time>2020-07-31T05:07:21.000Z</time>
      </trkpt>
      <trkpt lat="46.42274" lon="5.33796">
        <ele>266.60000610352</ele>
        <time>2020-07-31T05:07:23.000Z</time>
      </trkpt>
      <trkpt lat="46.42269" lon="5.33806">
        <ele>266.79998779297</ele>
        <time>2020-07-31T05:07:25.000Z</time>
      </trkpt>
      <trkpt lat="46.42264" lon="5.33817">
        <ele>267</ele>
        <time>2020-07-31T05:07:27.000Z</time>
      </trkpt>
      <trkpt lat="46.42258" lon="5.33828">
        <ele>267.20001220703</ele>
        <time>2020-07-31T05:07:29.000Z</time>
      </trkpt>
      <trkpt lat="46.42252" lon="5.33839">
        <ele>267.39999389648</ele>
        <time>2020-07-31T05:07:31.000Z</time>
      </trkpt>
      <trkpt lat="46.42249" lon="5.33844">
        <ele>267.60000610352</ele>
        <time>2020-07-31T05:07:32.000Z</time>
      </trkpt>
      <trkpt lat="46.42247" lon="5.33849">
        <ele>267.60000610352</ele>
        <time>2020-07-31T05:07:33.000Z</time>
      </trkpt>
      <trkpt lat="46.42242" lon="5.33859">
        <ele>267.79998779297</ele>
        <time>2020-07-31T05:07:35.000Z</time>
      </trkpt>
      <trkpt lat="46.42237" lon="5.33869">
        <ele>268</ele>
        <time>2020-07-31T05:07:37.000Z</time>
      </trkpt>
      <trkpt lat="46.42232" lon="5.33879">
        <ele>268.39999389648</ele>
        <time>2020-07-31T05:07:39.000Z</time>
      </trkpt>
      <trkpt lat="46.42229" lon="5.33884">
        <ele>268.20001220703</ele>
        <time>2020-07-31T05:07:40.000Z</time>
      </trkpt>
      <trkpt lat="46.42222" lon="5.33898">
        <ele>268.60000610352</ele>
        <time>2020-07-31T05:07:43.000Z</time>
      </trkpt>
      <trkpt lat="46.42217" lon="5.33908">
        <ele>269</ele>
        <time>2020-07-31T05:07:45.000Z</time>
      </trkpt>
      <trkpt lat="46.42214" lon="5.33912">
        <ele>269.20001220703</ele>
        <time>2020-07-31T05:07:46.000Z</time>
      </trkpt>
      <trkpt lat="46.42211" lon="5.33916">
        <ele>269.39999389648</ele>
        <time>2020-07-31T05:07:47.000Z</time>
      </trkpt>
      <trkpt lat="46.42205" lon="5.33923">
        <ele>270</ele>
        <time>2020-07-31T05:07:49.000Z</time>
      </trkpt>
      <trkpt lat="46.42198" lon="5.33929">
        <ele>270.20001220703</ele>
        <time>2020-07-31T05:07:51.000Z</time>
      </trkpt>
      <trkpt lat="46.42191" lon="5.33934">
        <ele>270.39999389648</ele>
        <time>2020-07-31T05:07:53.000Z</time>
      </trkpt>
      <trkpt lat="46.42183" lon="5.33936">
        <ele>270.79998779297</ele>
        <time>2020-07-31T05:07:55.000Z</time>
      </trkpt>
      <trkpt lat="46.42176" lon="5.33937">
        <ele>271.39999389648</ele>
        <time>2020-07-31T05:07:57.000Z</time>
      </trkpt>
      <trkpt lat="46.42168" lon="5.33935">
        <ele>271.79998779297</ele>
        <time>2020-07-31T05:07:59.000Z</time>
      </trkpt>
      <trkpt lat="46.42164" lon="5.33934">
        <ele>272</ele>
        <time>2020-07-31T05:08:00.000Z</time>
      </trkpt>
      <trkpt lat="46.42161" lon="5.33932">
        <ele>272.20001220703</ele>
        <time>2020-07-31T05:08:01.000Z</time>
      </trkpt>
      <trkpt lat="46.42157" lon="5.33931">
        <ele>272.60000610352</ele>
        <time>2020-07-31T05:08:02.000Z</time>
      </trkpt>
      <trkpt lat="46.42153" lon="5.3393">
        <ele>272.79998779297</ele>
        <time>2020-07-31T05:08:03.000Z</time>
      </trkpt>
      <trkpt lat="46.42146" lon="5.33926">
        <ele>273</ele>
        <time>2020-07-31T05:08:05.000Z</time>
      </trkpt>
      <trkpt lat="46.42137" lon="5.33922">
        <ele>273.60000610352</ele>
        <time>2020-07-31T05:08:07.000Z</time>
      </trkpt>
      <trkpt lat="46.42128" lon="5.33918">
        <ele>274.20001220703</ele>
        <time>2020-07-31T05:08:09.000Z</time>
      </trkpt>
      <trkpt lat="46.42118" lon="5.33914">
        <ele>274.60000610352</ele>
        <time>2020-07-31T05:08:11.000Z</time>
      </trkpt>
      <trkpt lat="46.42113" lon="5.33911">
        <ele>274.60000610352</ele>
        <time>2020-07-31T05:08:12.000Z</time>
      </trkpt>
      <trkpt lat="46.42108" lon="5.33909">
        <ele>274.60000610352</ele>
        <time>2020-07-31T05:08:13.000Z</time>
      </trkpt>
      <trkpt lat="46.42098" lon="5.33905">
        <ele>274.79998779297</ele>
        <time>2020-07-31T05:08:15.000Z</time>
      </trkpt>
      <trkpt lat="46.42092" lon="5.33903">
        <ele>274.79998779297</ele>
        <time>2020-07-31T05:08:16.000Z</time>
      </trkpt>
      <trkpt lat="46.42087" lon="5.33902">
        <ele>274.79998779297</ele>
        <time>2020-07-31T05:08:17.000Z</time>
      </trkpt>
      <trkpt lat="46.42075" lon="5.33901">
        <ele>274.79998779297</ele>
        <time>2020-07-31T05:08:19.000Z</time>
      </trkpt>
      <trkpt lat="46.42064" lon="5.339">
        <ele>274.60000610352</ele>
        <time>2020-07-31T05:08:21.000Z</time>
      </trkpt>
      <trkpt lat="46.42052" lon="5.339">
        <ele>274.60000610352</ele>
        <time>2020-07-31T05:08:23.000Z</time>
      </trkpt>
      <trkpt lat="46.42041" lon="5.33901">
        <ele>274.39999389648</ele>
        <time>2020-07-31T05:08:25.000Z</time>
      </trkpt>
      <trkpt lat="46.42028" lon="5.33901">
        <ele>274.39999389648</ele>
        <time>2020-07-31T05:08:27.000Z</time>
      </trkpt>
      <trkpt lat="46.42015" lon="5.339">
        <ele>274.39999389648</ele>
        <time>2020-07-31T05:08:29.000Z</time>
      </trkpt>
      <trkpt lat="46.42008" lon="5.33899">
        <ele>274.39999389648</ele>
        <time>2020-07-31T05:08:30.000Z</time>
      </trkpt>
      <trkpt lat="46.42001" lon="5.33896">
        <ele>274.39999389648</ele>
        <time>2020-07-31T05:08:31.000Z</time>
      </trkpt>
      <trkpt lat="46.41987" lon="5.33887">
        <ele>274.20001220703</ele>
        <time>2020-07-31T05:08:33.000Z</time>
      </trkpt>
      <trkpt lat="46.4198" lon="5.33882">
        <ele>274</ele>
        <time>2020-07-31T05:08:34.000Z</time>
      </trkpt>
      <trkpt lat="46.41972" lon="5.33877">
        <ele>273.79998779297</ele>
        <time>2020-07-31T05:08:35.000Z</time>
      </trkpt>
      <trkpt lat="46.41964" lon="5.33873">
        <ele>273.20001220703</ele>
        <time>2020-07-31T05:08:36.000Z</time>
      </trkpt>
      <trkpt lat="46.41955" lon="5.33871">
        <ele>273</ele>
        <time>2020-07-31T05:08:37.000Z</time>
      </trkpt>
      <trkpt lat="46.41946" lon="5.3387">
        <ele>272.39999389648</ele>
        <time>2020-07-31T05:08:38.000Z</time>
      </trkpt>
      <trkpt lat="46.41937" lon="5.33869">
        <ele>271.79998779297</ele>
        <time>2020-07-31T05:08:39.000Z</time>
      </trkpt>
      <trkpt lat="46.41918" lon="5.33872">
        <ele>271</ele>
        <time>2020-07-31T05:08:41.000Z</time>
      </trkpt>
      <trkpt lat="46.41909" lon="5.33874">
        <ele>270.39999389648</ele>
        <time>2020-07-31T05:08:42.000Z</time>
      </trkpt>
      <trkpt lat="46.41899" lon="5.33876">
        <ele>269.79998779297</ele>
        <time>2020-07-31T05:08:43.000Z</time>
      </trkpt>
      <trkpt lat="46.4189" lon="5.33878">
        <ele>269</ele>
        <time>2020-07-31T05:08:44.000Z</time>
      </trkpt>
      <trkpt lat="46.41881" lon="5.33879">
        <ele>268</ele>
        <time>2020-07-31T05:08:45.000Z</time>
      </trkpt>
      <trkpt lat="46.41873" lon="5.33879">
        <ele>267.20001220703</ele>
        <time>2020-07-31T05:08:46.000Z</time>
      </trkpt>
      <trkpt lat="46.41865" lon="5.33879">
        <ele>266.60000610352</ele>
        <time>2020-07-31T05:08:47.000Z</time>
      </trkpt>
      <trkpt lat="46.41857" lon="5.3388">
        <ele>266.20001220703</ele>
        <time>2020-07-31T05:08:48.000Z</time>
      </trkpt>
      <trkpt lat="46.41838" lon="5.33878">
        <ele>266</ele>
        <time>2020-07-31T05:08:51.000Z</time>
      </trkpt>
      <trkpt lat="46.41832" lon="5.33877">
        <ele>265.79998779297</ele>
        <time>2020-07-31T05:08:52.000Z</time>
      </trkpt>
      <trkpt lat="46.41826" lon="5.33876">
        <ele>265.79998779297</ele>
        <time>2020-07-31T05:08:53.000Z</time>
      </trkpt>
      <trkpt lat="46.41817" lon="5.33874">
        <ele>265.79998779297</ele>
        <time>2020-07-31T05:08:55.000Z</time>
      </trkpt>
      <trkpt lat="46.41809" lon="5.3387">
        <ele>266</ele>
        <time>2020-07-31T05:08:57.000Z</time>
      </trkpt>
      <trkpt lat="46.418" lon="5.33866">
        <ele>266.79998779297</ele>
        <time>2020-07-31T05:08:59.000Z</time>
      </trkpt>
      <trkpt lat="46.41796" lon="5.33865">
        <ele>267.60000610352</ele>
        <time>2020-07-31T05:09:00.000Z</time>
      </trkpt>
      <trkpt lat="46.41787" lon="5.33861">
        <ele>268.60000610352</ele>
        <time>2020-07-31T05:09:02.000Z</time>
      </trkpt>
      <trkpt lat="46.41779" lon="5.33858">
        <ele>269.39999389648</ele>
        <time>2020-07-31T05:09:04.000Z</time>
      </trkpt>
      <trkpt lat="46.41774" lon="5.33857">
        <ele>270.20001220703</ele>
        <time>2020-07-31T05:09:05.000Z</time>
      </trkpt>
      <trkpt lat="46.4177" lon="5.33857">
        <ele>270.79998779297</ele>
        <time>2020-07-31T05:09:06.000Z</time>
      </trkpt>
      <trkpt lat="46.41761" lon="5.33857">
        <ele>271.39999389648</ele>
        <time>2020-07-31T05:09:08.000Z</time>
      </trkpt>
      <trkpt lat="46.41753" lon="5.33858">
        <ele>272.20001220703</ele>
        <time>2020-07-31T05:09:10.000Z</time>
      </trkpt>
      <trkpt lat="46.41749" lon="5.33859">
        <ele>272.39999389648</ele>
        <time>2020-07-31T05:09:11.000Z</time>
      </trkpt>
      <trkpt lat="46.41745" lon="5.3386">
        <ele>272.79998779297</ele>
        <time>2020-07-31T05:09:12.000Z</time>
      </trkpt>
      <trkpt lat="46.41737" lon="5.33864">
        <ele>273.60000610352</ele>
        <time>2020-07-31T05:09:14.000Z</time>
      </trkpt>
      <trkpt lat="46.4173" lon="5.33867">
        <ele>274</ele>
        <time>2020-07-31T05:09:16.000Z</time>
      </trkpt>
      <trkpt lat="46.41724" lon="5.33869">
        <ele>274.60000610352</ele>
        <time>2020-07-31T05:09:18.000Z</time>
      </trkpt>
      <trkpt lat="46.41718" lon="5.3387">
        <ele>275.20001220703</ele>
        <time>2020-07-31T05:09:20.000Z</time>
      </trkpt>
      <trkpt lat="46.41712" lon="5.3387">
        <ele>275.79998779297</ele>
        <time>2020-07-31T05:09:22.000Z</time>
      </trkpt>
      <trkpt lat="46.41706" lon="5.33871">
        <ele>276.20001220703</ele>
        <time>2020-07-31T05:09:24.000Z</time>
      </trkpt>
      <trkpt lat="46.417" lon="5.33872">
        <ele>277</ele>
        <time>2020-07-31T05:09:26.000Z</time>
      </trkpt>
      <trkpt lat="46.41694" lon="5.33874">
        <ele>277.39999389648</ele>
        <time>2020-07-31T05:09:28.000Z</time>
      </trkpt>
      <trkpt lat="46.41687" lon="5.33874">
        <ele>278</ele>
        <time>2020-07-31T05:09:30.000Z</time>
      </trkpt>
      <trkpt lat="46.41682" lon="5.33872">
        <ele>278.60000610352</ele>
        <time>2020-07-31T05:09:32.000Z</time>
      </trkpt>
      <trkpt lat="46.41679" lon="5.33871">
        <ele>278.79998779297</ele>
        <time>2020-07-31T05:09:33.000Z</time>
      </trkpt>
      <trkpt lat="46.41675" lon="5.33871">
        <ele>279.20001220703</ele>
        <time>2020-07-31T05:09:34.000Z</time>
      </trkpt>
      <trkpt lat="46.41667" lon="5.33867">
        <ele>279.60000610352</ele>
        <time>2020-07-31T05:09:36.000Z</time>
      </trkpt>
      <trkpt lat="46.41657" lon="5.33865">
        <ele>280</ele>
        <time>2020-07-31T05:09:38.000Z</time>
      </trkpt>
      <trkpt lat="46.41652" lon="5.33864">
        <ele>280.39999389648</ele>
        <time>2020-07-31T05:09:39.000Z</time>
      </trkpt>
      <trkpt lat="46.41647" lon="5.33865">
        <ele>280.60000610352</ele>
        <time>2020-07-31T05:09:40.000Z</time>
      </trkpt>
      <trkpt lat="46.41638" lon="5.33868">
        <ele>280.79998779297</ele>
        <time>2020-07-31T05:09:42.000Z</time>
      </trkpt>
      <trkpt lat="46.41628" lon="5.33871">
        <ele>281</ele>
        <time>2020-07-31T05:09:44.000Z</time>
      </trkpt>
      <trkpt lat="46.41623" lon="5.33873">
        <ele>281</ele>
        <time>2020-07-31T05:09:45.000Z</time>
      </trkpt>
      <trkpt lat="46.41618" lon="5.33874">
        <ele>281.20001220703</ele>
        <time>2020-07-31T05:09:46.000Z</time>
      </trkpt>
      <trkpt lat="46.41607" lon="5.33876">
        <ele>281.39999389648</ele>
        <time>2020-07-31T05:09:48.000Z</time>
      </trkpt>
      <trkpt lat="46.41597" lon="5.33877">
        <ele>281.60000610352</ele>
        <time>2020-07-31T05:09:50.000Z</time>
      </trkpt>
      <trkpt lat="46.41586" lon="5.33876">
        <ele>282</ele>
        <time>2020-07-31T05:09:52.000Z</time>
      </trkpt>
      <trkpt lat="46.41576" lon="5.33874">
        <ele>282</ele>
        <time>2020-07-31T05:09:54.000Z</time>
      </trkpt>
      <trkpt lat="46.4157" lon="5.33873">
        <ele>282</ele>
        <time>2020-07-31T05:09:55.000Z</time>
      </trkpt>
      <trkpt lat="46.41552" lon="5.3387">
        <ele>282</ele>
        <time>2020-07-31T05:09:58.000Z</time>
      </trkpt>
      <trkpt lat="46.41546" lon="5.33869">
        <ele>282</ele>
        <time>2020-07-31T05:09:59.000Z</time>
      </trkpt>
      <trkpt lat="46.41539" lon="5.33868">
        <ele>282</ele>
        <time>2020-07-31T05:10:00.000Z</time>
      </trkpt>
      <trkpt lat="46.41518" lon="5.33865">
        <ele>281.79998779297</ele>
        <time>2020-07-31T05:10:03.000Z</time>
      </trkpt>
      <trkpt lat="46.41511" lon="5.33862">
        <ele>281.60000610352</ele>
        <time>2020-07-31T05:10:04.000Z</time>
      </trkpt>
      <trkpt lat="46.41504" lon="5.33859">
        <ele>281.39999389648</ele>
        <time>2020-07-31T05:10:05.000Z</time>
      </trkpt>
      <trkpt lat="46.41497" lon="5.33854">
        <ele>281.39999389648</ele>
        <time>2020-07-31T05:10:06.000Z</time>
      </trkpt>
      <trkpt lat="46.41483" lon="5.33843">
        <ele>280.79998779297</ele>
        <time>2020-07-31T05:10:08.000Z</time>
      </trkpt>
      <trkpt lat="46.41468" lon="5.33833">
        <ele>280</ele>
        <time>2020-07-31T05:10:10.000Z</time>
      </trkpt>
      <trkpt lat="46.41459" lon="5.33828">
        <ele>279.79998779297</ele>
        <time>2020-07-31T05:10:11.000Z</time>
      </trkpt>
      <trkpt lat="46.41442" lon="5.33823">
        <ele>279</ele>
        <time>2020-07-31T05:10:13.000Z</time>
      </trkpt>
      <trkpt lat="46.41433" lon="5.3382">
        <ele>278.79998779297</ele>
        <time>2020-07-31T05:10:14.000Z</time>
      </trkpt>
      <trkpt lat="46.41415" lon="5.33815">
        <ele>278</ele>
        <time>2020-07-31T05:10:16.000Z</time>
      </trkpt>
      <trkpt lat="46.41397" lon="5.33811">
        <ele>277.20001220703</ele>
        <time>2020-07-31T05:10:18.000Z</time>
      </trkpt>
      <trkpt lat="46.41388" lon="5.33808">
        <ele>276.60000610352</ele>
        <time>2020-07-31T05:10:19.000Z</time>
      </trkpt>
      <trkpt lat="46.4137" lon="5.33803">
        <ele>275.39999389648</ele>
        <time>2020-07-31T05:10:21.000Z</time>
      </trkpt>
      <trkpt lat="46.41352" lon="5.33798">
        <ele>273.79998779297</ele>
        <time>2020-07-31T05:10:23.000Z</time>
      </trkpt>
      <trkpt lat="46.41343" lon="5.33795">
        <ele>273.60000610352</ele>
        <time>2020-07-31T05:10:24.000Z</time>
      </trkpt>
      <trkpt lat="46.41334" lon="5.33791">
        <ele>273.20001220703</ele>
        <time>2020-07-31T05:10:25.000Z</time>
      </trkpt>
      <trkpt lat="46.41325" lon="5.33786">
        <ele>273</ele>
        <time>2020-07-31T05:10:26.000Z</time>
      </trkpt>
      <trkpt lat="46.41316" lon="5.3378">
        <ele>272.60000610352</ele>
        <time>2020-07-31T05:10:27.000Z</time>
      </trkpt>
      <trkpt lat="46.41307" lon="5.33772">
        <ele>272.20001220703</ele>
        <time>2020-07-31T05:10:28.000Z</time>
      </trkpt>
      <trkpt lat="46.413" lon="5.33763">
        <ele>272</ele>
        <time>2020-07-31T05:10:29.000Z</time>
      </trkpt>
      <trkpt lat="46.41283" lon="5.33745">
        <ele>271.60000610352</ele>
        <time>2020-07-31T05:10:31.000Z</time>
      </trkpt>
      <trkpt lat="46.41267" lon="5.3373">
        <ele>270.20001220703</ele>
        <time>2020-07-31T05:10:33.000Z</time>
      </trkpt>
      <trkpt lat="46.4125" lon="5.33715">
        <ele>269.20001220703</ele>
        <time>2020-07-31T05:10:35.000Z</time>
      </trkpt>
      <trkpt lat="46.41234" lon="5.337">
        <ele>268.20001220703</ele>
        <time>2020-07-31T05:10:37.000Z</time>
      </trkpt>
      <trkpt lat="46.41226" lon="5.33693">
        <ele>267.60000610352</ele>
        <time>2020-07-31T05:10:38.000Z</time>
      </trkpt>
      <trkpt lat="46.41218" lon="5.33686">
        <ele>267.20001220703</ele>
        <time>2020-07-31T05:10:39.000Z</time>
      </trkpt>
      <trkpt lat="46.41202" lon="5.33672">
        <ele>266.39999389648</ele>
        <time>2020-07-31T05:10:41.000Z</time>
      </trkpt>
      <trkpt lat="46.41187" lon="5.33658">
        <ele>265.79998779297</ele>
        <time>2020-07-31T05:10:43.000Z</time>
      </trkpt>
      <trkpt lat="46.41179" lon="5.33651">
        <ele>265.79998779297</ele>
        <time>2020-07-31T05:10:44.000Z</time>
      </trkpt>
      <trkpt lat="46.41171" lon="5.33644">
        <ele>265.60000610352</ele>
        <time>2020-07-31T05:10:45.000Z</time>
      </trkpt>
      <trkpt lat="46.41164" lon="5.33637">
        <ele>265.39999389648</ele>
        <time>2020-07-31T05:10:46.000Z</time>
      </trkpt>
      <trkpt lat="46.41157" lon="5.3363">
        <ele>265.20001220703</ele>
        <time>2020-07-31T05:10:47.000Z</time>
      </trkpt>
      <trkpt lat="46.41142" lon="5.33618">
        <ele>264.79998779297</ele>
        <time>2020-07-31T05:10:49.000Z</time>
      </trkpt>
      <trkpt lat="46.41127" lon="5.33608">
        <ele>264.79998779297</ele>
        <time>2020-07-31T05:10:51.000Z</time>
      </trkpt>
      <trkpt lat="46.41113" lon="5.33598">
        <ele>264.79998779297</ele>
        <time>2020-07-31T05:10:53.000Z</time>
      </trkpt>
      <trkpt lat="46.411" lon="5.33588">
        <ele>264.79998779297</ele>
        <time>2020-07-31T05:10:55.000Z</time>
      </trkpt>
      <trkpt lat="46.41086" lon="5.33581">
        <ele>265</ele>
        <time>2020-07-31T05:10:57.000Z</time>
      </trkpt>
      <trkpt lat="46.41073" lon="5.33575">
        <ele>265</ele>
        <time>2020-07-31T05:10:59.000Z</time>
      </trkpt>
      <trkpt lat="46.4106" lon="5.33569">
        <ele>265.79998779297</ele>
        <time>2020-07-31T05:11:01.000Z</time>
      </trkpt>
      <trkpt lat="46.41054" lon="5.33566">
        <ele>266.39999389648</ele>
        <time>2020-07-31T05:11:02.000Z</time>
      </trkpt>
      <trkpt lat="46.41048" lon="5.33564">
        <ele>267</ele>
        <time>2020-07-31T05:11:03.000Z</time>
      </trkpt>
      <trkpt lat="46.41041" lon="5.33562">
        <ele>267.20001220703</ele>
        <time>2020-07-31T05:11:04.000Z</time>
      </trkpt>
      <trkpt lat="46.41035" lon="5.3356">
        <ele>267.39999389648</ele>
        <time>2020-07-31T05:11:05.000Z</time>
      </trkpt>
      <trkpt lat="46.41029" lon="5.33558">
        <ele>267.39999389648</ele>
        <time>2020-07-31T05:11:06.000Z</time>
      </trkpt>
      <trkpt lat="46.41024" lon="5.33556">
        <ele>267.60000610352</ele>
        <time>2020-07-31T05:11:07.000Z</time>
      </trkpt>
      <trkpt lat="46.41006" lon="5.33551">
        <ele>268.20001220703</ele>
        <time>2020-07-31T05:11:10.000Z</time>
      </trkpt>
      <trkpt lat="46.41001" lon="5.33549">
        <ele>268.60000610352</ele>
        <time>2020-07-31T05:11:11.000Z</time>
      </trkpt>
      <trkpt lat="46.40995" lon="5.33548">
        <ele>268.79998779297</ele>
        <time>2020-07-31T05:11:12.000Z</time>
      </trkpt>
      <trkpt lat="46.4099" lon="5.33546">
        <ele>269</ele>
        <time>2020-07-31T05:11:13.000Z</time>
      </trkpt>
      <trkpt lat="46.40979" lon="5.33543">
        <ele>269.60000610352</ele>
        <time>2020-07-31T05:11:15.000Z</time>
      </trkpt>
      <trkpt lat="46.40974" lon="5.33541">
        <ele>269.79998779297</ele>
        <time>2020-07-31T05:11:16.000Z</time>
      </trkpt>
      <trkpt lat="46.40969" lon="5.33539">
        <ele>270</ele>
        <time>2020-07-31T05:11:17.000Z</time>
      </trkpt>
      <trkpt lat="46.40958" lon="5.33537">
        <ele>270.39999389648</ele>
        <time>2020-07-31T05:11:19.000Z</time>
      </trkpt>
      <trkpt lat="46.40948" lon="5.33534">
        <ele>271.20001220703</ele>
        <time>2020-07-31T05:11:21.000Z</time>
      </trkpt>
      <trkpt lat="46.40937" lon="5.33531">
        <ele>271.39999389648</ele>
        <time>2020-07-31T05:11:23.000Z</time>
      </trkpt>
      <trkpt lat="46.40926" lon="5.33529">
        <ele>271.79998779297</ele>
        <time>2020-07-31T05:11:25.000Z</time>
      </trkpt>
      <trkpt lat="46.40915" lon="5.33526">
        <ele>272.20001220703</ele>
        <time>2020-07-31T05:11:27.000Z</time>
      </trkpt>
      <trkpt lat="46.40909" lon="5.33524">
        <ele>272.20001220703</ele>
        <time>2020-07-31T05:11:28.000Z</time>
      </trkpt>
      <trkpt lat="46.40903" lon="5.33523">
        <ele>272.39999389648</ele>
        <time>2020-07-31T05:11:29.000Z</time>
      </trkpt>
      <trkpt lat="46.40897" lon="5.33521">
        <ele>272.39999389648</ele>
        <time>2020-07-31T05:11:30.000Z</time>
      </trkpt>
      <trkpt lat="46.40884" lon="5.33518">
        <ele>272.39999389648</ele>
        <time>2020-07-31T05:11:32.000Z</time>
      </trkpt>
      <trkpt lat="46.4087" lon="5.33515">
        <ele>272.39999389648</ele>
        <time>2020-07-31T05:11:34.000Z</time>
      </trkpt>
      <trkpt lat="46.40863" lon="5.33513">
        <ele>272.39999389648</ele>
        <time>2020-07-31T05:11:35.000Z</time>
      </trkpt>
      <trkpt lat="46.40855" lon="5.33511">
        <ele>272.39999389648</ele>
        <time>2020-07-31T05:11:36.000Z</time>
      </trkpt>
      <trkpt lat="46.4084" lon="5.33507">
        <ele>271.79998779297</ele>
        <time>2020-07-31T05:11:38.000Z</time>
      </trkpt>
      <trkpt lat="46.40824" lon="5.33503">
        <ele>271.39999389648</ele>
        <time>2020-07-31T05:11:40.000Z</time>
      </trkpt>
      <trkpt lat="46.40816" lon="5.33501">
        <ele>271</ele>
        <time>2020-07-31T05:11:41.000Z</time>
      </trkpt>
      <trkpt lat="46.40808" lon="5.33498">
        <ele>270.60000610352</ele>
        <time>2020-07-31T05:11:42.000Z</time>
      </trkpt>
      <trkpt lat="46.408" lon="5.33496">
        <ele>270.20001220703</ele>
        <time>2020-07-31T05:11:43.000Z</time>
      </trkpt>
      <trkpt lat="46.40792" lon="5.33493">
        <ele>270</ele>
        <time>2020-07-31T05:11:44.000Z</time>
      </trkpt>
      <trkpt lat="46.40784" lon="5.3349">
        <ele>269.60000610352</ele>
        <time>2020-07-31T05:11:45.000Z</time>
      </trkpt>
      <trkpt lat="46.40767" lon="5.33484">
        <ele>269</ele>
        <time>2020-07-31T05:11:47.000Z</time>
      </trkpt>
      <trkpt lat="46.40759" lon="5.3348">
        <ele>268.39999389648</ele>
        <time>2020-07-31T05:11:48.000Z</time>
      </trkpt>
      <trkpt lat="46.40743" lon="5.33471">
        <ele>267.79998779297</ele>
        <time>2020-07-31T05:11:50.000Z</time>
      </trkpt>
      <trkpt lat="46.40727" lon="5.33463">
        <ele>266.79998779297</ele>
        <time>2020-07-31T05:11:52.000Z</time>
      </trkpt>
      <trkpt lat="46.40703" lon="5.33448">
        <ele>266.20001220703</ele>
        <time>2020-07-31T05:11:55.000Z</time>
      </trkpt>
      <trkpt lat="46.40687" lon="5.33438">
        <ele>265.60000610352</ele>
        <time>2020-07-31T05:11:57.000Z</time>
      </trkpt>
      <trkpt lat="46.40679" lon="5.33433">
        <ele>265.20001220703</ele>
        <time>2020-07-31T05:11:58.000Z</time>
      </trkpt>
      <trkpt lat="46.40671" lon="5.33428">
        <ele>264.60000610352</ele>
        <time>2020-07-31T05:11:59.000Z</time>
      </trkpt>
      <trkpt lat="46.40663" lon="5.33423">
        <ele>263.79998779297</ele>
        <time>2020-07-31T05:12:00.000Z</time>
      </trkpt>
      <trkpt lat="46.40646" lon="5.33413">
        <ele>263.39999389648</ele>
        <time>2020-07-31T05:12:02.000Z</time>
      </trkpt>
      <trkpt lat="46.40637" lon="5.33408">
        <ele>263.39999389648</ele>
        <time>2020-07-31T05:12:03.000Z</time>
      </trkpt>
      <trkpt lat="46.4062" lon="5.33397">
        <ele>262.60000610352</ele>
        <time>2020-07-31T05:12:05.000Z</time>
      </trkpt>
      <trkpt lat="46.40611" lon="5.33392">
        <ele>262.20001220703</ele>
        <time>2020-07-31T05:12:06.000Z</time>
      </trkpt>
      <trkpt lat="46.40602" lon="5.33387">
        <ele>261.79998779297</ele>
        <time>2020-07-31T05:12:07.000Z</time>
      </trkpt>
      <trkpt lat="46.40585" lon="5.33376">
        <ele>261</ele>
        <time>2020-07-31T05:12:09.000Z</time>
      </trkpt>
      <trkpt lat="46.40567" lon="5.33366">
        <ele>260</ele>
        <time>2020-07-31T05:12:11.000Z</time>
      </trkpt>
      <trkpt lat="46.4054" lon="5.33349">
        <ele>258.60000610352</ele>
        <time>2020-07-31T05:12:14.000Z</time>
      </trkpt>
      <trkpt lat="46.40522" lon="5.33337">
        <ele>258</ele>
        <time>2020-07-31T05:12:16.000Z</time>
      </trkpt>
      <trkpt lat="46.40514" lon="5.33329">
        <ele>257.39999389648</ele>
        <time>2020-07-31T05:12:17.000Z</time>
      </trkpt>
      <trkpt lat="46.40506" lon="5.3332">
        <ele>257</ele>
        <time>2020-07-31T05:12:18.000Z</time>
      </trkpt>
      <trkpt lat="46.40499" lon="5.33311">
        <ele>256.20001220703</ele>
        <time>2020-07-31T05:12:19.000Z</time>
      </trkpt>
      <trkpt lat="46.40482" lon="5.33299">
        <ele>255</ele>
        <time>2020-07-31T05:12:21.000Z</time>
      </trkpt>
      <trkpt lat="46.40473" lon="5.33295">
        <ele>254.60000610352</ele>
        <time>2020-07-31T05:12:22.000Z</time>
      </trkpt>
      <trkpt lat="46.40447" lon="5.33283">
        <ele>254</ele>
        <time>2020-07-31T05:12:25.000Z</time>
      </trkpt>
      <trkpt lat="46.4044" lon="5.33277">
        <ele>253.80000305176</ele>
        <time>2020-07-31T05:12:26.000Z</time>
      </trkpt>
      <trkpt lat="46.40432" lon="5.33271">
        <ele>253.60000610352</ele>
        <time>2020-07-31T05:12:27.000Z</time>
      </trkpt>
      <trkpt lat="46.40412" lon="5.33251">
        <ele>253.39999389648</ele>
        <time>2020-07-31T05:12:30.000Z</time>
      </trkpt>
      <trkpt lat="46.40406" lon="5.33244">
        <ele>253.19999694824</ele>
        <time>2020-07-31T05:12:31.000Z</time>
      </trkpt>
      <trkpt lat="46.404" lon="5.33237">
        <ele>253.19999694824</ele>
        <time>2020-07-31T05:12:32.000Z</time>
      </trkpt>
      <trkpt lat="46.40383" lon="5.33215">
        <ele>253.19999694824</ele>
        <time>2020-07-31T05:12:35.000Z</time>
      </trkpt>
      <trkpt lat="46.40372" lon="5.332">
        <ele>253.80000305176</ele>
        <time>2020-07-31T05:12:37.000Z</time>
      </trkpt>
      <trkpt lat="46.40367" lon="5.33193">
        <ele>254</ele>
        <time>2020-07-31T05:12:38.000Z</time>
      </trkpt>
      <trkpt lat="46.40357" lon="5.33179">
        <ele>254.19999694824</ele>
        <time>2020-07-31T05:12:40.000Z</time>
      </trkpt>
      <trkpt lat="46.40351" lon="5.33172">
        <ele>254.39999389648</ele>
        <time>2020-07-31T05:12:41.000Z</time>
      </trkpt>
      <trkpt lat="46.40346" lon="5.33165">
        <ele>254.60000610352</ele>
        <time>2020-07-31T05:12:42.000Z</time>
      </trkpt>
      <trkpt lat="46.40341" lon="5.33158">
        <ele>255</ele>
        <time>2020-07-31T05:12:43.000Z</time>
      </trkpt>
      <trkpt lat="46.40332" lon="5.33144">
        <ele>255.60000610352</ele>
        <time>2020-07-31T05:12:45.000Z</time>
      </trkpt>
      <trkpt lat="46.40327" lon="5.33138">
        <ele>255.60000610352</ele>
        <time>2020-07-31T05:12:46.000Z</time>
      </trkpt>
      <trkpt lat="46.40323" lon="5.33131">
        <ele>255.80000305176</ele>
        <time>2020-07-31T05:12:47.000Z</time>
      </trkpt>
      <trkpt lat="46.40318" lon="5.33124">
        <ele>255.80000305176</ele>
        <time>2020-07-31T05:12:48.000Z</time>
      </trkpt>
      <trkpt lat="46.40313" lon="5.33117">
        <ele>255.80000305176</ele>
        <time>2020-07-31T05:12:49.000Z</time>
      </trkpt>
      <trkpt lat="46.403" lon="5.33097">
        <ele>256.20001220703</ele>
        <time>2020-07-31T05:12:52.000Z</time>
      </trkpt>
      <trkpt lat="46.40291" lon="5.33084">
        <ele>257</ele>
        <time>2020-07-31T05:12:54.000Z</time>
      </trkpt>
      <trkpt lat="46.40286" lon="5.33078">
        <ele>257.20001220703</ele>
        <time>2020-07-31T05:12:55.000Z</time>
      </trkpt>
      <trkpt lat="46.40277" lon="5.33065">
        <ele>257.60000610352</ele>
        <time>2020-07-31T05:12:57.000Z</time>
      </trkpt>
      <trkpt lat="46.40268" lon="5.33052">
        <ele>257.60000610352</ele>
        <time>2020-07-31T05:12:59.000Z</time>
      </trkpt>
      <trkpt lat="46.40259" lon="5.3304">
        <ele>257.60000610352</ele>
        <time>2020-07-31T05:13:01.000Z</time>
      </trkpt>
      <trkpt lat="46.4025" lon="5.33027">
        <ele>257.60000610352</ele>
        <time>2020-07-31T05:13:03.000Z</time>
      </trkpt>
      <trkpt lat="46.4024" lon="5.33014">
        <ele>257.60000610352</ele>
        <time>2020-07-31T05:13:05.000Z</time>
      </trkpt>
      <trkpt lat="46.40236" lon="5.33007">
        <ele>257.60000610352</ele>
        <time>2020-07-31T05:13:06.000Z</time>
      </trkpt>
      <trkpt lat="46.40231" lon="5.33">
        <ele>257.60000610352</ele>
        <time>2020-07-31T05:13:07.000Z</time>
      </trkpt>
      <trkpt lat="46.40221" lon="5.32986">
        <ele>257.60000610352</ele>
        <time>2020-07-31T05:13:09.000Z</time>
      </trkpt>
      <trkpt lat="46.40212" lon="5.32971">
        <ele>257.60000610352</ele>
        <time>2020-07-31T05:13:11.000Z</time>
      </trkpt>
      <trkpt lat="46.40203" lon="5.32956">
        <ele>257.39999389648</ele>
        <time>2020-07-31T05:13:13.000Z</time>
      </trkpt>
      <trkpt lat="46.40195" lon="5.32942">
        <ele>257.20001220703</ele>
        <time>2020-07-31T05:13:15.000Z</time>
      </trkpt>
      <trkpt lat="46.40182" lon="5.3292">
        <ele>257</ele>
        <time>2020-07-31T05:13:18.000Z</time>
      </trkpt>
      <trkpt lat="46.40175" lon="5.32906">
        <ele>257</ele>
        <time>2020-07-31T05:13:20.000Z</time>
      </trkpt>
      <trkpt lat="46.40172" lon="5.32898">
        <ele>256.79998779297</ele>
        <time>2020-07-31T05:13:21.000Z</time>
      </trkpt>
      <trkpt lat="46.40168" lon="5.32891">
        <ele>256.79998779297</ele>
        <time>2020-07-31T05:13:22.000Z</time>
      </trkpt>
      <trkpt lat="46.40161" lon="5.32876">
        <ele>256.79998779297</ele>
        <time>2020-07-31T05:13:24.000Z</time>
      </trkpt>
      <trkpt lat="46.40155" lon="5.32861">
        <ele>256.79998779297</ele>
        <time>2020-07-31T05:13:26.000Z</time>
      </trkpt>
      <trkpt lat="46.40148" lon="5.32846">
        <ele>257</ele>
        <time>2020-07-31T05:13:28.000Z</time>
      </trkpt>
      <trkpt lat="46.40141" lon="5.32831">
        <ele>257</ele>
        <time>2020-07-31T05:13:30.000Z</time>
      </trkpt>
      <trkpt lat="46.40138" lon="5.32823">
        <ele>257</ele>
        <time>2020-07-31T05:13:31.000Z</time>
      </trkpt>
      <trkpt lat="46.40134" lon="5.32815">
        <ele>257</ele>
        <time>2020-07-31T05:13:32.000Z</time>
      </trkpt>
      <trkpt lat="46.40127" lon="5.32799">
        <ele>257.20001220703</ele>
        <time>2020-07-31T05:13:34.000Z</time>
      </trkpt>
      <trkpt lat="46.40121" lon="5.32783">
        <ele>257.20001220703</ele>
        <time>2020-07-31T05:13:36.000Z</time>
      </trkpt>
      <trkpt lat="46.40113" lon="5.32767">
        <ele>257.20001220703</ele>
        <time>2020-07-31T05:13:38.000Z</time>
      </trkpt>
      <trkpt lat="46.40107" lon="5.32751">
        <ele>257.20001220703</ele>
        <time>2020-07-31T05:13:40.000Z</time>
      </trkpt>
      <trkpt lat="46.401" lon="5.32735">
        <ele>257.20001220703</ele>
        <time>2020-07-31T05:13:42.000Z</time>
      </trkpt>
      <trkpt lat="46.40093" lon="5.32719">
        <ele>257</ele>
        <time>2020-07-31T05:13:44.000Z</time>
      </trkpt>
      <trkpt lat="46.4009" lon="5.32711">
        <ele>257</ele>
        <time>2020-07-31T05:13:45.000Z</time>
      </trkpt>
      <trkpt lat="46.40084" lon="5.32694">
        <ele>256.60000610352</ele>
        <time>2020-07-31T05:13:47.000Z</time>
      </trkpt>
      <trkpt lat="46.40077" lon="5.32668">
        <ele>256</ele>
        <time>2020-07-31T05:13:50.000Z</time>
      </trkpt>
      <trkpt lat="46.40073" lon="5.3265">
        <ele>256</ele>
        <time>2020-07-31T05:13:52.000Z</time>
      </trkpt>
      <trkpt lat="46.40069" lon="5.32634">
        <ele>256</ele>
        <time>2020-07-31T05:13:54.000Z</time>
      </trkpt>
      <trkpt lat="46.40066" lon="5.32627">
        <ele>256</ele>
        <time>2020-07-31T05:13:55.000Z</time>
      </trkpt>
      <trkpt lat="46.40062" lon="5.32623">
        <ele>256</ele>
        <time>2020-07-31T05:13:56.000Z</time>
      </trkpt>
      <trkpt lat="46.40052" lon="5.3262">
        <ele>256</ele>
        <time>2020-07-31T05:13:58.000Z</time>
      </trkpt>
      <trkpt lat="46.40047" lon="5.32622">
        <ele>256</ele>
        <time>2020-07-31T05:13:59.000Z</time>
      </trkpt>
      <trkpt lat="46.40039" lon="5.32626">
        <ele>256</ele>
        <time>2020-07-31T05:14:01.000Z</time>
      </trkpt>
      <trkpt lat="46.40035" lon="5.32628">
        <ele>256.20001220703</ele>
        <time>2020-07-31T05:14:02.000Z</time>
      </trkpt>
      <trkpt lat="46.40032" lon="5.32629">
        <ele>256.79998779297</ele>
        <time>2020-07-31T05:14:04.000Z</time>
      </trkpt>
      <trkpt lat="46.40032" lon="5.32629">
        <ele>257</ele>
        <time>2020-07-31T05:14:05.000Z</time>
      </trkpt>
      <trkpt lat="46.40031" lon="5.32629">
        <ele>257.39999389648</ele>
        <time>2020-07-31T05:14:06.000Z</time>
      </trkpt>
      <trkpt lat="46.40029" lon="5.32631">
        <ele>258.79998779297</ele>
        <time>2020-07-31T05:14:20.000Z</time>
      </trkpt>
      <trkpt lat="46.40024" lon="5.32635">
        <ele>258.79998779297</ele>
        <time>2020-07-31T05:14:22.000Z</time>
      </trkpt>
      <trkpt lat="46.40017" lon="5.32641">
        <ele>258.79998779297</ele>
        <time>2020-07-31T05:14:24.000Z</time>
      </trkpt>
      <trkpt lat="46.40007" lon="5.32646">
        <ele>258.79998779297</ele>
        <time>2020-07-31T05:14:26.000Z</time>
      </trkpt>
      <trkpt lat="46.39995" lon="5.32652">
        <ele>258.79998779297</ele>
        <time>2020-07-31T05:14:28.000Z</time>
      </trkpt>
      <trkpt lat="46.39976" lon="5.32661">
        <ele>258.60000610352</ele>
        <time>2020-07-31T05:14:31.000Z</time>
      </trkpt>
      <trkpt lat="46.39962" lon="5.32667">
        <ele>258</ele>
        <time>2020-07-31T05:14:33.000Z</time>
      </trkpt>
      <trkpt lat="46.39948" lon="5.32674">
        <ele>257.20001220703</ele>
        <time>2020-07-31T05:14:35.000Z</time>
      </trkpt>
      <trkpt lat="46.39941" lon="5.32677">
        <ele>257</ele>
        <time>2020-07-31T05:14:36.000Z</time>
      </trkpt>
      <trkpt lat="46.39934" lon="5.3268">
        <ele>256.60000610352</ele>
        <time>2020-07-31T05:14:37.000Z</time>
      </trkpt>
      <trkpt lat="46.3992" lon="5.32687">
        <ele>256.20001220703</ele>
        <time>2020-07-31T05:14:39.000Z</time>
      </trkpt>
      <trkpt lat="46.39899" lon="5.32697">
        <ele>255.39999389648</ele>
        <time>2020-07-31T05:14:42.000Z</time>
      </trkpt>
      <trkpt lat="46.39892" lon="5.327">
        <ele>255</ele>
        <time>2020-07-31T05:14:43.000Z</time>
      </trkpt>
      <trkpt lat="46.39877" lon="5.32707">
        <ele>254.60000610352</ele>
        <time>2020-07-31T05:14:45.000Z</time>
      </trkpt>
      <trkpt lat="46.39869" lon="5.32711">
        <ele>254.39999389648</ele>
        <time>2020-07-31T05:14:46.000Z</time>
      </trkpt>
      <trkpt lat="46.39854" lon="5.32717">
        <ele>254</ele>
        <time>2020-07-31T05:14:48.000Z</time>
      </trkpt>
      <trkpt lat="46.39846" lon="5.32721">
        <ele>253.80000305176</ele>
        <time>2020-07-31T05:14:49.000Z</time>
      </trkpt>
      <trkpt lat="46.39839" lon="5.32724">
        <ele>253.80000305176</ele>
        <time>2020-07-31T05:14:50.000Z</time>
      </trkpt>
      <trkpt lat="46.39816" lon="5.32735">
        <ele>253.19999694824</ele>
        <time>2020-07-31T05:14:53.000Z</time>
      </trkpt>
      <trkpt lat="46.39808" lon="5.32738">
        <ele>252.80000305176</ele>
        <time>2020-07-31T05:14:54.000Z</time>
      </trkpt>
      <trkpt lat="46.398" lon="5.32742">
        <ele>252.39999389648</ele>
        <time>2020-07-31T05:14:55.000Z</time>
      </trkpt>
      <trkpt lat="46.39784" lon="5.3275">
        <ele>252</ele>
        <time>2020-07-31T05:14:57.000Z</time>
      </trkpt>
      <trkpt lat="46.39768" lon="5.32757">
        <ele>251.60000610352</ele>
        <time>2020-07-31T05:14:59.000Z</time>
      </trkpt>
      <trkpt lat="46.3976" lon="5.32762">
        <ele>251.19999694824</ele>
        <time>2020-07-31T05:15:00.000Z</time>
      </trkpt>
      <trkpt lat="46.39744" lon="5.32772">
        <ele>250.80000305176</ele>
        <time>2020-07-31T05:15:02.000Z</time>
      </trkpt>
      <trkpt lat="46.39727" lon="5.32781">
        <ele>250.39999389648</ele>
        <time>2020-07-31T05:15:04.000Z</time>
      </trkpt>
      <trkpt lat="46.39709" lon="5.32791">
        <ele>249.80000305176</ele>
        <time>2020-07-31T05:15:06.000Z</time>
      </trkpt>
      <trkpt lat="46.39692" lon="5.32801">
        <ele>249.19999694824</ele>
        <time>2020-07-31T05:15:08.000Z</time>
      </trkpt>
      <trkpt lat="46.39673" lon="5.32811">
        <ele>248.39999389648</ele>
        <time>2020-07-31T05:15:10.000Z</time>
      </trkpt>
      <trkpt lat="46.39664" lon="5.32816">
        <ele>247.60000610352</ele>
        <time>2020-07-31T05:15:11.000Z</time>
      </trkpt>
      <trkpt lat="46.39654" lon="5.3282">
        <ele>247</ele>
        <time>2020-07-31T05:15:12.000Z</time>
      </trkpt>
      <trkpt lat="46.39644" lon="5.32823">
        <ele>246.39999389648</ele>
        <time>2020-07-31T05:15:13.000Z</time>
      </trkpt>
      <trkpt lat="46.39634" lon="5.32826">
        <ele>245.60000610352</ele>
        <time>2020-07-31T05:15:14.000Z</time>
      </trkpt>
      <trkpt lat="46.39624" lon="5.32828">
        <ele>245.19999694824</ele>
        <time>2020-07-31T05:15:15.000Z</time>
      </trkpt>
      <trkpt lat="46.39614" lon="5.3283">
        <ele>244.80000305176</ele>
        <time>2020-07-31T05:15:16.000Z</time>
      </trkpt>
      <trkpt lat="46.39594" lon="5.32837">
        <ele>244</ele>
        <time>2020-07-31T05:15:18.000Z</time>
      </trkpt>
      <trkpt lat="46.39575" lon="5.32846">
        <ele>242.60000610352</ele>
        <time>2020-07-31T05:15:20.000Z</time>
      </trkpt>
      <trkpt lat="46.39558" lon="5.32856">
        <ele>241.19999694824</ele>
        <time>2020-07-31T05:15:22.000Z</time>
      </trkpt>
      <trkpt lat="46.3955" lon="5.32861">
        <ele>240.39999389648</ele>
        <time>2020-07-31T05:15:23.000Z</time>
      </trkpt>
      <trkpt lat="46.39542" lon="5.32865">
        <ele>240.19999694824</ele>
        <time>2020-07-31T05:15:24.000Z</time>
      </trkpt>
      <trkpt lat="46.39525" lon="5.32872">
        <ele>239.80000305176</ele>
        <time>2020-07-31T05:15:26.000Z</time>
      </trkpt>
      <trkpt lat="46.39509" lon="5.32879">
        <ele>239.80000305176</ele>
        <time>2020-07-31T05:15:28.000Z</time>
      </trkpt>
      <trkpt lat="46.39501" lon="5.32882">
        <ele>239.60000610352</ele>
        <time>2020-07-31T05:15:29.000Z</time>
      </trkpt>
      <trkpt lat="46.39492" lon="5.32886">
        <ele>239.60000610352</ele>
        <time>2020-07-31T05:15:30.000Z</time>
      </trkpt>
      <trkpt lat="46.39475" lon="5.32894">
        <ele>239.39999389648</ele>
        <time>2020-07-31T05:15:32.000Z</time>
      </trkpt>
      <trkpt lat="46.39457" lon="5.32901">
        <ele>239.19999694824</ele>
        <time>2020-07-31T05:15:34.000Z</time>
      </trkpt>
      <trkpt lat="46.39448" lon="5.32904">
        <ele>239</ele>
        <time>2020-07-31T05:15:35.000Z</time>
      </trkpt>
      <trkpt lat="46.39438" lon="5.32906">
        <ele>239</ele>
        <time>2020-07-31T05:15:36.000Z</time>
      </trkpt>
      <trkpt lat="46.39419" lon="5.3291">
        <ele>239</ele>
        <time>2020-07-31T05:15:38.000Z</time>
      </trkpt>
      <trkpt lat="46.394" lon="5.32909">
        <ele>238.60000610352</ele>
        <time>2020-07-31T05:15:40.000Z</time>
      </trkpt>
      <trkpt lat="46.39383" lon="5.32899">
        <ele>237.60000610352</ele>
        <time>2020-07-31T05:15:42.000Z</time>
      </trkpt>
      <trkpt lat="46.39376" lon="5.32894">
        <ele>237</ele>
        <time>2020-07-31T05:15:43.000Z</time>
      </trkpt>
      <trkpt lat="46.3937" lon="5.32889">
        <ele>236.39999389648</ele>
        <time>2020-07-31T05:15:44.000Z</time>
      </trkpt>
      <trkpt lat="46.39365" lon="5.32886">
        <ele>236</ele>
        <time>2020-07-31T05:15:45.000Z</time>
      </trkpt>
      <trkpt lat="46.39361" lon="5.32885">
        <ele>235.80000305176</ele>
        <time>2020-07-31T05:15:46.000Z</time>
      </trkpt>
      <trkpt lat="46.39352" lon="5.32894">
        <ele>235.60000610352</ele>
        <time>2020-07-31T05:15:48.000Z</time>
      </trkpt>
      <trkpt lat="46.3935" lon="5.32902">
        <ele>235.39999389648</ele>
        <time>2020-07-31T05:15:49.000Z</time>
      </trkpt>
      <trkpt lat="46.39346" lon="5.3292">
        <ele>234.80000305176</ele>
        <time>2020-07-31T05:15:51.000Z</time>
      </trkpt>
      <trkpt lat="46.39342" lon="5.32928">
        <ele>234.80000305176</ele>
        <time>2020-07-31T05:15:52.000Z</time>
      </trkpt>
      <trkpt lat="46.39329" lon="5.32938">
        <ele>234.39999389648</ele>
        <time>2020-07-31T05:15:54.000Z</time>
      </trkpt>
      <trkpt lat="46.39321" lon="5.32941">
        <ele>233.80000305176</ele>
        <time>2020-07-31T05:15:55.000Z</time>
      </trkpt>
      <trkpt lat="46.39314" lon="5.32944">
        <ele>233.60000610352</ele>
        <time>2020-07-31T05:15:56.000Z</time>
      </trkpt>
      <trkpt lat="46.39299" lon="5.32951">
        <ele>233.19999694824</ele>
        <time>2020-07-31T05:15:58.000Z</time>
      </trkpt>
      <trkpt lat="46.39276" lon="5.32963">
        <ele>232.60000610352</ele>
        <time>2020-07-31T05:16:01.000Z</time>
      </trkpt>
      <trkpt lat="46.39261" lon="5.3297">
        <ele>231.80000305176</ele>
        <time>2020-07-31T05:16:03.000Z</time>
      </trkpt>
      <trkpt lat="46.39253" lon="5.32974">
        <ele>231.39999389648</ele>
        <time>2020-07-31T05:16:04.000Z</time>
      </trkpt>
      <trkpt lat="46.39246" lon="5.32977">
        <ele>231.19999694824</ele>
        <time>2020-07-31T05:16:05.000Z</time>
      </trkpt>
      <trkpt lat="46.3923" lon="5.32984">
        <ele>231</ele>
        <time>2020-07-31T05:16:07.000Z</time>
      </trkpt>
      <trkpt lat="46.39215" lon="5.3299">
        <ele>230.80000305176</ele>
        <time>2020-07-31T05:16:09.000Z</time>
      </trkpt>
      <trkpt lat="46.392" lon="5.32996">
        <ele>230.39999389648</ele>
        <time>2020-07-31T05:16:11.000Z</time>
      </trkpt>
      <trkpt lat="46.39193" lon="5.32999">
        <ele>230.19999694824</ele>
        <time>2020-07-31T05:16:12.000Z</time>
      </trkpt>
      <trkpt lat="46.39186" lon="5.33002">
        <ele>230.19999694824</ele>
        <time>2020-07-31T05:16:13.000Z</time>
      </trkpt>
      <trkpt lat="46.39172" lon="5.33007">
        <ele>230</ele>
        <time>2020-07-31T05:16:15.000Z</time>
      </trkpt>
      <trkpt lat="46.39158" lon="5.33012">
        <ele>230</ele>
        <time>2020-07-31T05:16:17.000Z</time>
      </trkpt>
      <trkpt lat="46.39144" lon="5.33017">
        <ele>230</ele>
        <time>2020-07-31T05:16:19.000Z</time>
      </trkpt>
      <trkpt lat="46.39137" lon="5.33019">
        <ele>230</ele>
        <time>2020-07-31T05:16:20.000Z</time>
      </trkpt>
      <trkpt lat="46.3913" lon="5.3302">
        <ele>230</ele>
        <time>2020-07-31T05:16:21.000Z</time>
      </trkpt>
      <trkpt lat="46.39116" lon="5.33024">
        <ele>230</ele>
        <time>2020-07-31T05:16:23.000Z</time>
      </trkpt>
      <trkpt lat="46.39102" lon="5.33026">
        <ele>230</ele>
        <time>2020-07-31T05:16:25.000Z</time>
      </trkpt>
      <trkpt lat="46.39088" lon="5.33026">
        <ele>230.19999694824</ele>
        <time>2020-07-31T05:16:27.000Z</time>
      </trkpt>
      <trkpt lat="46.39074" lon="5.33023">
        <ele>230.19999694824</ele>
        <time>2020-07-31T05:16:29.000Z</time>
      </trkpt>
      <trkpt lat="46.39055" lon="5.33017">
        <ele>230.39999389648</ele>
        <time>2020-07-31T05:16:32.000Z</time>
      </trkpt>
      <trkpt lat="46.39048" lon="5.33014">
        <ele>230.39999389648</ele>
        <time>2020-07-31T05:16:33.000Z</time>
      </trkpt>
      <trkpt lat="46.39035" lon="5.33009">
        <ele>230.60000610352</ele>
        <time>2020-07-31T05:16:35.000Z</time>
      </trkpt>
      <trkpt lat="46.39022" lon="5.33005">
        <ele>230.60000610352</ele>
        <time>2020-07-31T05:16:37.000Z</time>
      </trkpt>
      <trkpt lat="46.39008" lon="5.32999">
        <ele>230.60000610352</ele>
        <time>2020-07-31T05:16:39.000Z</time>
      </trkpt>
      <trkpt lat="46.39001" lon="5.32997">
        <ele>230.39999389648</ele>
        <time>2020-07-31T05:16:40.000Z</time>
      </trkpt>
      <trkpt lat="46.38993" lon="5.32994">
        <ele>230.39999389648</ele>
        <time>2020-07-31T05:16:41.000Z</time>
      </trkpt>
      <trkpt lat="46.38979" lon="5.32989">
        <ele>230.19999694824</ele>
        <time>2020-07-31T05:16:43.000Z</time>
      </trkpt>
      <trkpt lat="46.38965" lon="5.32983">
        <ele>230.39999389648</ele>
        <time>2020-07-31T05:16:45.000Z</time>
      </trkpt>
      <trkpt lat="46.3895" lon="5.32978">
        <ele>230</ele>
        <time>2020-07-31T05:16:47.000Z</time>
      </trkpt>
      <trkpt lat="46.38936" lon="5.32973">
        <ele>230</ele>
        <time>2020-07-31T05:16:49.000Z</time>
      </trkpt>
      <trkpt lat="46.38921" lon="5.32967">
        <ele>229.80000305176</ele>
        <time>2020-07-31T05:16:51.000Z</time>
      </trkpt>
      <trkpt lat="46.38907" lon="5.32962">
        <ele>229.80000305176</ele>
        <time>2020-07-31T05:16:53.000Z</time>
      </trkpt>
      <trkpt lat="46.389" lon="5.32959">
        <ele>229.60000610352</ele>
        <time>2020-07-31T05:16:54.000Z</time>
      </trkpt>
      <trkpt lat="46.38893" lon="5.32956">
        <ele>229.60000610352</ele>
        <time>2020-07-31T05:16:55.000Z</time>
      </trkpt>
      <trkpt lat="46.38879" lon="5.3295">
        <ele>229.19999694824</ele>
        <time>2020-07-31T05:16:57.000Z</time>
      </trkpt>
      <trkpt lat="46.38864" lon="5.32944">
        <ele>229.19999694824</ele>
        <time>2020-07-31T05:16:59.000Z</time>
      </trkpt>
      <trkpt lat="46.38851" lon="5.32938">
        <ele>229</ele>
        <time>2020-07-31T05:17:01.000Z</time>
      </trkpt>
      <trkpt lat="46.38844" lon="5.32935">
        <ele>229</ele>
        <time>2020-07-31T05:17:02.000Z</time>
      </trkpt>
      <trkpt lat="46.38837" lon="5.32933">
        <ele>229</ele>
        <time>2020-07-31T05:17:03.000Z</time>
      </trkpt>
      <trkpt lat="46.38824" lon="5.32927">
        <ele>229</ele>
        <time>2020-07-31T05:17:05.000Z</time>
      </trkpt>
      <trkpt lat="46.38811" lon="5.32922">
        <ele>229</ele>
        <time>2020-07-31T05:17:07.000Z</time>
      </trkpt>
      <trkpt lat="46.38798" lon="5.32917">
        <ele>229</ele>
        <time>2020-07-31T05:17:09.000Z</time>
      </trkpt>
      <trkpt lat="46.38786" lon="5.32912">
        <ele>229</ele>
        <time>2020-07-31T05:17:11.000Z</time>
      </trkpt>
      <trkpt lat="46.3878" lon="5.32909">
        <ele>229</ele>
        <time>2020-07-31T05:17:12.000Z</time>
      </trkpt>
      <trkpt lat="46.38774" lon="5.32904">
        <ele>229.19999694824</ele>
        <time>2020-07-31T05:17:13.000Z</time>
      </trkpt>
      <trkpt lat="46.3877" lon="5.32897">
        <ele>229.19999694824</ele>
        <time>2020-07-31T05:17:14.000Z</time>
      </trkpt>
      <trkpt lat="46.38766" lon="5.32888">
        <ele>229.19999694824</ele>
        <time>2020-07-31T05:17:15.000Z</time>
      </trkpt>
      <trkpt lat="46.38763" lon="5.32867">
        <ele>229.19999694824</ele>
        <time>2020-07-31T05:17:17.000Z</time>
      </trkpt>
      <trkpt lat="46.38763" lon="5.32846">
        <ele>229.19999694824</ele>
        <time>2020-07-31T05:17:19.000Z</time>
      </trkpt>
      <trkpt lat="46.38765" lon="5.32824">
        <ele>229.19999694824</ele>
        <time>2020-07-31T05:17:21.000Z</time>
      </trkpt>
      <trkpt lat="46.3877" lon="5.32803">
        <ele>229</ele>
        <time>2020-07-31T05:17:23.000Z</time>
      </trkpt>
      <trkpt lat="46.38772" lon="5.32793">
        <ele>229</ele>
        <time>2020-07-31T05:17:24.000Z</time>
      </trkpt>
      <trkpt lat="46.38776" lon="5.32784">
        <ele>228.60000610352</ele>
        <time>2020-07-31T05:17:25.000Z</time>
      </trkpt>
      <trkpt lat="46.38779" lon="5.32774">
        <ele>228.39999389648</ele>
        <time>2020-07-31T05:17:26.000Z</time>
      </trkpt>
      <trkpt lat="46.38782" lon="5.32765">
        <ele>228.19999694824</ele>
        <time>2020-07-31T05:17:27.000Z</time>
      </trkpt>
      <trkpt lat="46.38787" lon="5.32745">
        <ele>228</ele>
        <time>2020-07-31T05:17:29.000Z</time>
      </trkpt>
      <trkpt lat="46.3879" lon="5.32736">
        <ele>228</ele>
        <time>2020-07-31T05:17:30.000Z</time>
      </trkpt>
      <trkpt lat="46.38791" lon="5.32725">
        <ele>228</ele>
        <time>2020-07-31T05:17:31.000Z</time>
      </trkpt>
      <trkpt lat="46.38792" lon="5.32715">
        <ele>228</ele>
        <time>2020-07-31T05:17:32.000Z</time>
      </trkpt>
      <trkpt lat="46.38793" lon="5.32705">
        <ele>228</ele>
        <time>2020-07-31T05:17:33.000Z</time>
      </trkpt>
      <trkpt lat="46.38794" lon="5.32685">
        <ele>228</ele>
        <time>2020-07-31T05:17:35.000Z</time>
      </trkpt>
      <trkpt lat="46.38792" lon="5.32665">
        <ele>227.80000305176</ele>
        <time>2020-07-31T05:17:37.000Z</time>
      </trkpt>
      <trkpt lat="46.38791" lon="5.32656">
        <ele>227.80000305176</ele>
        <time>2020-07-31T05:17:38.000Z</time>
      </trkpt>
      <trkpt lat="46.38788" lon="5.32647">
        <ele>227.80000305176</ele>
        <time>2020-07-31T05:17:39.000Z</time>
      </trkpt>
      <trkpt lat="46.38785" lon="5.32641">
        <ele>227.80000305176</ele>
        <time>2020-07-31T05:17:40.000Z</time>
      </trkpt>
      <trkpt lat="46.3878" lon="5.32636">
        <ele>228</ele>
        <time>2020-07-31T05:17:41.000Z</time>
      </trkpt>
      <trkpt lat="46.3877" lon="5.32627">
        <ele>228</ele>
        <time>2020-07-31T05:17:43.000Z</time>
      </trkpt>
      <trkpt lat="46.38764" lon="5.32623">
        <ele>228</ele>
        <time>2020-07-31T05:17:44.000Z</time>
      </trkpt>
      <trkpt lat="46.38758" lon="5.32618">
        <ele>228</ele>
        <time>2020-07-31T05:17:45.000Z</time>
      </trkpt>
      <trkpt lat="46.38746" lon="5.32609">
        <ele>228</ele>
        <time>2020-07-31T05:17:47.000Z</time>
      </trkpt>
      <trkpt lat="46.38734" lon="5.326">
        <ele>228</ele>
        <time>2020-07-31T05:17:49.000Z</time>
      </trkpt>
      <trkpt lat="46.38722" lon="5.3259">
        <ele>228.19999694824</ele>
        <time>2020-07-31T05:17:51.000Z</time>
      </trkpt>
      <trkpt lat="46.38711" lon="5.32579">
        <ele>228.19999694824</ele>
        <time>2020-07-31T05:17:53.000Z</time>
      </trkpt>
      <trkpt lat="46.38699" lon="5.32569">
        <ele>228.19999694824</ele>
        <time>2020-07-31T05:17:55.000Z</time>
      </trkpt>
      <trkpt lat="46.38688" lon="5.32557">
        <ele>228.19999694824</ele>
        <time>2020-07-31T05:17:57.000Z</time>
      </trkpt>
      <trkpt lat="46.38672" lon="5.32539">
        <ele>228.19999694824</ele>
        <time>2020-07-31T05:18:00.000Z</time>
      </trkpt>
      <trkpt lat="46.38662" lon="5.32528">
        <ele>228.19999694824</ele>
        <time>2020-07-31T05:18:02.000Z</time>
      </trkpt>
      <trkpt lat="46.38656" lon="5.32523">
        <ele>228.19999694824</ele>
        <time>2020-07-31T05:18:03.000Z</time>
      </trkpt>
      <trkpt lat="46.3865" lon="5.32518">
        <ele>228.19999694824</ele>
        <time>2020-07-31T05:18:04.000Z</time>
      </trkpt>
      <trkpt lat="46.38638" lon="5.32508">
        <ele>228</ele>
        <time>2020-07-31T05:18:06.000Z</time>
      </trkpt>
      <trkpt lat="46.38626" lon="5.32498">
        <ele>228</ele>
        <time>2020-07-31T05:18:08.000Z</time>
      </trkpt>
      <trkpt lat="46.38613" lon="5.32489">
        <ele>228</ele>
        <time>2020-07-31T05:18:10.000Z</time>
      </trkpt>
      <trkpt lat="46.38601" lon="5.32478">
        <ele>227.60000610352</ele>
        <time>2020-07-31T05:18:12.000Z</time>
      </trkpt>
      <trkpt lat="46.38595" lon="5.32473">
        <ele>227.39999389648</ele>
        <time>2020-07-31T05:18:13.000Z</time>
      </trkpt>
      <trkpt lat="46.38589" lon="5.32467">
        <ele>227.19999694824</ele>
        <time>2020-07-31T05:18:14.000Z</time>
      </trkpt>
      <trkpt lat="46.38583" lon="5.32461">
        <ele>227</ele>
        <time>2020-07-31T05:18:15.000Z</time>
      </trkpt>
      <trkpt lat="46.38577" lon="5.32455">
        <ele>227</ele>
        <time>2020-07-31T05:18:16.000Z</time>
      </trkpt>
      <trkpt lat="46.38571" lon="5.32449">
        <ele>227</ele>
        <time>2020-07-31T05:18:17.000Z</time>
      </trkpt>
      <trkpt lat="46.38558" lon="5.32437">
        <ele>226.80000305176</ele>
        <time>2020-07-31T05:18:19.000Z</time>
      </trkpt>
      <trkpt lat="46.38539" lon="5.32421">
        <ele>226.39999389648</ele>
        <time>2020-07-31T05:18:22.000Z</time>
      </trkpt>
      <trkpt lat="46.3852" lon="5.32403">
        <ele>225.80000305176</ele>
        <time>2020-07-31T05:18:25.000Z</time>
      </trkpt>
      <trkpt lat="46.38509" lon="5.32388">
        <ele>225.80000305176</ele>
        <time>2020-07-31T05:18:27.000Z</time>
      </trkpt>
      <trkpt lat="46.38503" lon="5.32382">
        <ele>225.80000305176</ele>
        <time>2020-07-31T05:18:28.000Z</time>
      </trkpt>
      <trkpt lat="46.38496" lon="5.32377">
        <ele>225.80000305176</ele>
        <time>2020-07-31T05:18:29.000Z</time>
      </trkpt>
      <trkpt lat="46.38483" lon="5.32369">
        <ele>225.60000610352</ele>
        <time>2020-07-31T05:18:31.000Z</time>
      </trkpt>
      <trkpt lat="46.3847" lon="5.32364">
        <ele>225.60000610352</ele>
        <time>2020-07-31T05:18:33.000Z</time>
      </trkpt>
      <trkpt lat="46.38455" lon="5.32364">
        <ele>225.60000610352</ele>
        <time>2020-07-31T05:18:35.000Z</time>
      </trkpt>
      <trkpt lat="46.38442" lon="5.32372">
        <ele>225.60000610352</ele>
        <time>2020-07-31T05:18:37.000Z</time>
      </trkpt>
      <trkpt lat="46.38436" lon="5.32379">
        <ele>225.60000610352</ele>
        <time>2020-07-31T05:18:38.000Z</time>
      </trkpt>
      <trkpt lat="46.38431" lon="5.32386">
        <ele>225.60000610352</ele>
        <time>2020-07-31T05:18:39.000Z</time>
      </trkpt>
      <trkpt lat="46.38422" lon="5.32402">
        <ele>225.60000610352</ele>
        <time>2020-07-31T05:18:41.000Z</time>
      </trkpt>
      <trkpt lat="46.38418" lon="5.32411">
        <ele>225.60000610352</ele>
        <time>2020-07-31T05:18:42.000Z</time>
      </trkpt>
      <trkpt lat="46.38415" lon="5.3242">
        <ele>225.60000610352</ele>
        <time>2020-07-31T05:18:43.000Z</time>
      </trkpt>
      <trkpt lat="46.38413" lon="5.32429">
        <ele>225.60000610352</ele>
        <time>2020-07-31T05:18:44.000Z</time>
      </trkpt>
      <trkpt lat="46.38411" lon="5.32439">
        <ele>225.60000610352</ele>
        <time>2020-07-31T05:18:45.000Z</time>
      </trkpt>
      <trkpt lat="46.38409" lon="5.32448">
        <ele>225.60000610352</ele>
        <time>2020-07-31T05:18:46.000Z</time>
      </trkpt>
      <trkpt lat="46.38407" lon="5.32458">
        <ele>225.60000610352</ele>
        <time>2020-07-31T05:18:47.000Z</time>
      </trkpt>
      <trkpt lat="46.38403" lon="5.32478">
        <ele>225.60000610352</ele>
        <time>2020-07-31T05:18:49.000Z</time>
      </trkpt>
      <trkpt lat="46.38395" lon="5.32494">
        <ele>225.60000610352</ele>
        <time>2020-07-31T05:18:51.000Z</time>
      </trkpt>
      <trkpt lat="46.38382" lon="5.325">
        <ele>225.39999389648</ele>
        <time>2020-07-31T05:18:53.000Z</time>
      </trkpt>
      <trkpt lat="46.38368" lon="5.32498">
        <ele>225.39999389648</ele>
        <time>2020-07-31T05:18:55.000Z</time>
      </trkpt>
      <trkpt lat="46.38355" lon="5.32493">
        <ele>225.39999389648</ele>
        <time>2020-07-31T05:18:57.000Z</time>
      </trkpt>
      <trkpt lat="46.38341" lon="5.32488">
        <ele>225.39999389648</ele>
        <time>2020-07-31T05:18:59.000Z</time>
      </trkpt>
      <trkpt lat="46.38327" lon="5.32483">
        <ele>225.39999389648</ele>
        <time>2020-07-31T05:19:01.000Z</time>
      </trkpt>
      <trkpt lat="46.38313" lon="5.32478">
        <ele>225.39999389648</ele>
        <time>2020-07-31T05:19:03.000Z</time>
      </trkpt>
      <trkpt lat="46.38299" lon="5.32474">
        <ele>225.39999389648</ele>
        <time>2020-07-31T05:19:05.000Z</time>
      </trkpt>
      <trkpt lat="46.38286" lon="5.3247">
        <ele>225.39999389648</ele>
        <time>2020-07-31T05:19:07.000Z</time>
      </trkpt>
      <trkpt lat="46.38272" lon="5.32468">
        <ele>225.39999389648</ele>
        <time>2020-07-31T05:19:09.000Z</time>
      </trkpt>
      <trkpt lat="46.38258" lon="5.32467">
        <ele>225.39999389648</ele>
        <time>2020-07-31T05:19:11.000Z</time>
      </trkpt>
      <trkpt lat="46.38251" lon="5.32467">
        <ele>225.39999389648</ele>
        <time>2020-07-31T05:19:12.000Z</time>
      </trkpt>
      <trkpt lat="46.38245" lon="5.32465">
        <ele>225.39999389648</ele>
        <time>2020-07-31T05:19:13.000Z</time>
      </trkpt>
      <trkpt lat="46.38238" lon="5.32463">
        <ele>225.39999389648</ele>
        <time>2020-07-31T05:19:14.000Z</time>
      </trkpt>
      <trkpt lat="46.38225" lon="5.32454">
        <ele>225.39999389648</ele>
        <time>2020-07-31T05:19:16.000Z</time>
      </trkpt>
      <trkpt lat="46.38219" lon="5.32448">
        <ele>225.19999694824</ele>
        <time>2020-07-31T05:19:17.000Z</time>
      </trkpt>
      <trkpt lat="46.38206" lon="5.32437">
        <ele>225</ele>
        <time>2020-07-31T05:19:19.000Z</time>
      </trkpt>
      <trkpt lat="46.38194" lon="5.32426">
        <ele>225</ele>
        <time>2020-07-31T05:19:21.000Z</time>
      </trkpt>
      <trkpt lat="46.38181" lon="5.32415">
        <ele>224.80000305176</ele>
        <time>2020-07-31T05:19:23.000Z</time>
      </trkpt>
      <trkpt lat="46.38175" lon="5.32409">
        <ele>224.60000610352</ele>
        <time>2020-07-31T05:19:24.000Z</time>
      </trkpt>
      <trkpt lat="46.38169" lon="5.32404">
        <ele>224.39999389648</ele>
        <time>2020-07-31T05:19:25.000Z</time>
      </trkpt>
      <trkpt lat="46.38163" lon="5.32399">
        <ele>224.39999389648</ele>
        <time>2020-07-31T05:19:26.000Z</time>
      </trkpt>
      <trkpt lat="46.38152" lon="5.32388">
        <ele>224.39999389648</ele>
        <time>2020-07-31T05:19:28.000Z</time>
      </trkpt>
      <trkpt lat="46.3814" lon="5.32377">
        <ele>224.39999389648</ele>
        <time>2020-07-31T05:19:30.000Z</time>
      </trkpt>
      <trkpt lat="46.38129" lon="5.32365">
        <ele>224.39999389648</ele>
        <time>2020-07-31T05:19:32.000Z</time>
      </trkpt>
      <trkpt lat="46.38124" lon="5.32359">
        <ele>224.39999389648</ele>
        <time>2020-07-31T05:19:33.000Z</time>
      </trkpt>
      <trkpt lat="46.3812" lon="5.32351">
        <ele>224.39999389648</ele>
        <time>2020-07-31T05:19:34.000Z</time>
      </trkpt>
      <trkpt lat="46.38111" lon="5.32335">
        <ele>224.19999694824</ele>
        <time>2020-07-31T05:19:36.000Z</time>
      </trkpt>
      <trkpt lat="46.38103" lon="5.32317">
        <ele>224.19999694824</ele>
        <time>2020-07-31T05:19:38.000Z</time>
      </trkpt>
      <trkpt lat="46.38096" lon="5.323">
        <ele>224.39999389648</ele>
        <time>2020-07-31T05:19:40.000Z</time>
      </trkpt>
      <trkpt lat="46.38092" lon="5.32293">
        <ele>224.39999389648</ele>
        <time>2020-07-31T05:19:41.000Z</time>
      </trkpt>
      <trkpt lat="46.38088" lon="5.32286">
        <ele>224.39999389648</ele>
        <time>2020-07-31T05:19:42.000Z</time>
      </trkpt>
      <trkpt lat="46.38083" lon="5.3228">
        <ele>224.39999389648</ele>
        <time>2020-07-31T05:19:43.000Z</time>
      </trkpt>
      <trkpt lat="46.38077" lon="5.32274">
        <ele>224.39999389648</ele>
        <time>2020-07-31T05:19:44.000Z</time>
      </trkpt>
      <trkpt lat="46.38073" lon="5.3227">
        <ele>224.39999389648</ele>
        <time>2020-07-31T05:19:45.000Z</time>
      </trkpt>
      <trkpt lat="46.38068" lon="5.32266">
        <ele>224.39999389648</ele>
        <time>2020-07-31T05:19:46.000Z</time>
      </trkpt>
      <trkpt lat="46.38064" lon="5.32262">
        <ele>224.39999389648</ele>
        <time>2020-07-31T05:19:47.000Z</time>
      </trkpt>
      <trkpt lat="46.38061" lon="5.32257">
        <ele>224.39999389648</ele>
        <time>2020-07-31T05:19:48.000Z</time>
      </trkpt>
      <trkpt lat="46.38057" lon="5.32243">
        <ele>224.60000610352</ele>
        <time>2020-07-31T05:19:50.000Z</time>
      </trkpt>
      <trkpt lat="46.38055" lon="5.32235">
        <ele>224.60000610352</ele>
        <time>2020-07-31T05:19:51.000Z</time>
      </trkpt>
      <trkpt lat="46.38053" lon="5.32226">
        <ele>225</ele>
        <time>2020-07-31T05:19:52.000Z</time>
      </trkpt>
      <trkpt lat="46.38049" lon="5.32207">
        <ele>225.39999389648</ele>
        <time>2020-07-31T05:19:54.000Z</time>
      </trkpt>
      <trkpt lat="46.38047" lon="5.32197">
        <ele>225.39999389648</ele>
        <time>2020-07-31T05:19:55.000Z</time>
      </trkpt>
      <trkpt lat="46.38045" lon="5.32188">
        <ele>225.39999389648</ele>
        <time>2020-07-31T05:19:56.000Z</time>
      </trkpt>
      <trkpt lat="46.3804" lon="5.3217">
        <ele>225.39999389648</ele>
        <time>2020-07-31T05:19:58.000Z</time>
      </trkpt>
      <trkpt lat="46.38037" lon="5.32161">
        <ele>225.39999389648</ele>
        <time>2020-07-31T05:19:59.000Z</time>
      </trkpt>
      <trkpt lat="46.38034" lon="5.32152">
        <ele>225.39999389648</ele>
        <time>2020-07-31T05:20:00.000Z</time>
      </trkpt>
      <trkpt lat="46.3803" lon="5.32143">
        <ele>225.39999389648</ele>
        <time>2020-07-31T05:20:01.000Z</time>
      </trkpt>
      <trkpt lat="46.38027" lon="5.32134">
        <ele>225.39999389648</ele>
        <time>2020-07-31T05:20:02.000Z</time>
      </trkpt>
      <trkpt lat="46.38018" lon="5.32116">
        <ele>225.39999389648</ele>
        <time>2020-07-31T05:20:04.000Z</time>
      </trkpt>
      <trkpt lat="46.38008" lon="5.32098">
        <ele>225.19999694824</ele>
        <time>2020-07-31T05:20:06.000Z</time>
      </trkpt>
      <trkpt lat="46.37997" lon="5.32082">
        <ele>224.80000305176</ele>
        <time>2020-07-31T05:20:08.000Z</time>
      </trkpt>
      <trkpt lat="46.37987" lon="5.32065">
        <ele>224.39999389648</ele>
        <time>2020-07-31T05:20:10.000Z</time>
      </trkpt>
      <trkpt lat="46.37977" lon="5.32047">
        <ele>224</ele>
        <time>2020-07-31T05:20:12.000Z</time>
      </trkpt>
      <trkpt lat="46.37973" lon="5.32038">
        <ele>223.80000305176</ele>
        <time>2020-07-31T05:20:13.000Z</time>
      </trkpt>
      <trkpt lat="46.37969" lon="5.32028">
        <ele>223.60000610352</ele>
        <time>2020-07-31T05:20:14.000Z</time>
      </trkpt>
      <trkpt lat="46.37965" lon="5.32019">
        <ele>223.39999389648</ele>
        <time>2020-07-31T05:20:15.000Z</time>
      </trkpt>
      <trkpt lat="46.37962" lon="5.3201">
        <ele>223</ele>
        <time>2020-07-31T05:20:16.000Z</time>
      </trkpt>
      <trkpt lat="46.37956" lon="5.3199">
        <ele>222.80000305176</ele>
        <time>2020-07-31T05:20:18.000Z</time>
      </trkpt>
      <trkpt lat="46.37951" lon="5.3197">
        <ele>222.80000305176</ele>
        <time>2020-07-31T05:20:20.000Z</time>
      </trkpt>
      <trkpt lat="46.37946" lon="5.31951">
        <ele>222.80000305176</ele>
        <time>2020-07-31T05:20:22.000Z</time>
      </trkpt>
      <trkpt lat="46.37941" lon="5.31932">
        <ele>222.80000305176</ele>
        <time>2020-07-31T05:20:24.000Z</time>
      </trkpt>
      <trkpt lat="46.37938" lon="5.31923">
        <ele>222.80000305176</ele>
        <time>2020-07-31T05:20:25.000Z</time>
      </trkpt>
      <trkpt lat="46.37935" lon="5.31914">
        <ele>222.80000305176</ele>
        <time>2020-07-31T05:20:26.000Z</time>
      </trkpt>
      <trkpt lat="46.37928" lon="5.31897">
        <ele>222.80000305176</ele>
        <time>2020-07-31T05:20:28.000Z</time>
      </trkpt>
      <trkpt lat="46.37922" lon="5.31882">
        <ele>223</ele>
        <time>2020-07-31T05:20:30.000Z</time>
      </trkpt>
      <trkpt lat="46.37918" lon="5.31874">
        <ele>222.80000305176</ele>
        <time>2020-07-31T05:20:31.000Z</time>
      </trkpt>
      <trkpt lat="46.37914" lon="5.31867">
        <ele>223</ele>
        <time>2020-07-31T05:20:32.000Z</time>
      </trkpt>
      <trkpt lat="46.37904" lon="5.31852">
        <ele>223</ele>
        <time>2020-07-31T05:20:34.000Z</time>
      </trkpt>
      <trkpt lat="46.37894" lon="5.31836">
        <ele>223</ele>
        <time>2020-07-31T05:20:36.000Z</time>
      </trkpt>
      <trkpt lat="46.37883" lon="5.31821">
        <ele>223.19999694824</ele>
        <time>2020-07-31T05:20:38.000Z</time>
      </trkpt>
      <trkpt lat="46.37873" lon="5.31805">
        <ele>223.19999694824</ele>
        <time>2020-07-31T05:20:40.000Z</time>
      </trkpt>
      <trkpt lat="46.37862" lon="5.3179">
        <ele>223</ele>
        <time>2020-07-31T05:20:42.000Z</time>
      </trkpt>
      <trkpt lat="46.37857" lon="5.31782">
        <ele>222.80000305176</ele>
        <time>2020-07-31T05:20:43.000Z</time>
      </trkpt>
      <trkpt lat="46.37852" lon="5.31774">
        <ele>222.60000610352</ele>
        <time>2020-07-31T05:20:44.000Z</time>
      </trkpt>
      <trkpt lat="46.37841" lon="5.3176">
        <ele>222.19999694824</ele>
        <time>2020-07-31T05:20:46.000Z</time>
      </trkpt>
      <trkpt lat="46.3783" lon="5.31744">
        <ele>222</ele>
        <time>2020-07-31T05:20:48.000Z</time>
      </trkpt>
      <trkpt lat="46.3782" lon="5.31729">
        <ele>221.80000305176</ele>
        <time>2020-07-31T05:20:50.000Z</time>
      </trkpt>
      <trkpt lat="46.37816" lon="5.31721">
        <ele>221.80000305176</ele>
        <time>2020-07-31T05:20:51.000Z</time>
      </trkpt>
      <trkpt lat="46.37811" lon="5.31714">
        <ele>221.80000305176</ele>
        <time>2020-07-31T05:20:52.000Z</time>
      </trkpt>
      <trkpt lat="46.37801" lon="5.31699">
        <ele>221.80000305176</ele>
        <time>2020-07-31T05:20:54.000Z</time>
      </trkpt>
      <trkpt lat="46.37791" lon="5.31684">
        <ele>221.60000610352</ele>
        <time>2020-07-31T05:20:56.000Z</time>
      </trkpt>
      <trkpt lat="46.37782" lon="5.3167">
        <ele>221.39999389648</ele>
        <time>2020-07-31T05:20:58.000Z</time>
      </trkpt>
      <trkpt lat="46.37771" lon="5.31655">
        <ele>221.19999694824</ele>
        <time>2020-07-31T05:21:00.000Z</time>
      </trkpt>
      <trkpt lat="46.3776" lon="5.31641">
        <ele>221</ele>
        <time>2020-07-31T05:21:02.000Z</time>
      </trkpt>
      <trkpt lat="46.3775" lon="5.31626">
        <ele>220.80000305176</ele>
        <time>2020-07-31T05:21:04.000Z</time>
      </trkpt>
      <trkpt lat="46.3774" lon="5.31611">
        <ele>220.60000610352</ele>
        <time>2020-07-31T05:21:06.000Z</time>
      </trkpt>
      <trkpt lat="46.37728" lon="5.31597">
        <ele>220.60000610352</ele>
        <time>2020-07-31T05:21:08.000Z</time>
      </trkpt>
      <trkpt lat="46.37717" lon="5.31583">
        <ele>220.60000610352</ele>
        <time>2020-07-31T05:21:10.000Z</time>
      </trkpt>
      <trkpt lat="46.37706" lon="5.31568">
        <ele>220.39999389648</ele>
        <time>2020-07-31T05:21:12.000Z</time>
      </trkpt>
      <trkpt lat="46.37695" lon="5.31552">
        <ele>220.39999389648</ele>
        <time>2020-07-31T05:21:14.000Z</time>
      </trkpt>
      <trkpt lat="46.37685" lon="5.31537">
        <ele>220.39999389648</ele>
        <time>2020-07-31T05:21:16.000Z</time>
      </trkpt>
      <trkpt lat="46.37673" lon="5.31522">
        <ele>220.19999694824</ele>
        <time>2020-07-31T05:21:18.000Z</time>
      </trkpt>
      <trkpt lat="46.37663" lon="5.31508">
        <ele>220.19999694824</ele>
        <time>2020-07-31T05:21:20.000Z</time>
      </trkpt>
      <trkpt lat="46.37657" lon="5.315">
        <ele>220.19999694824</ele>
        <time>2020-07-31T05:21:21.000Z</time>
      </trkpt>
      <trkpt lat="46.37652" lon="5.31492">
        <ele>220.19999694824</ele>
        <time>2020-07-31T05:21:22.000Z</time>
      </trkpt>
      <trkpt lat="46.37641" lon="5.31477">
        <ele>220.19999694824</ele>
        <time>2020-07-31T05:21:24.000Z</time>
      </trkpt>
      <trkpt lat="46.37631" lon="5.31462">
        <ele>220.19999694824</ele>
        <time>2020-07-31T05:21:26.000Z</time>
      </trkpt>
      <trkpt lat="46.37614" lon="5.3144">
        <ele>220.19999694824</ele>
        <time>2020-07-31T05:21:29.000Z</time>
      </trkpt>
      <trkpt lat="46.37604" lon="5.31425">
        <ele>220.19999694824</ele>
        <time>2020-07-31T05:21:31.000Z</time>
      </trkpt>
      <trkpt lat="46.37599" lon="5.31418">
        <ele>220.39999389648</ele>
        <time>2020-07-31T05:21:32.000Z</time>
      </trkpt>
      <trkpt lat="46.37594" lon="5.3141">
        <ele>220.39999389648</ele>
        <time>2020-07-31T05:21:33.000Z</time>
      </trkpt>
      <trkpt lat="46.37583" lon="5.31396">
        <ele>220.39999389648</ele>
        <time>2020-07-31T05:21:35.000Z</time>
      </trkpt>
      <trkpt lat="46.37573" lon="5.31382">
        <ele>220.39999389648</ele>
        <time>2020-07-31T05:21:37.000Z</time>
      </trkpt>
      <trkpt lat="46.37558" lon="5.3136">
        <ele>220.60000610352</ele>
        <time>2020-07-31T05:21:40.000Z</time>
      </trkpt>
      <trkpt lat="46.37548" lon="5.31346">
        <ele>220.60000610352</ele>
        <time>2020-07-31T05:21:42.000Z</time>
      </trkpt>
      <trkpt lat="46.37538" lon="5.31331">
        <ele>220.60000610352</ele>
        <time>2020-07-31T05:21:44.000Z</time>
      </trkpt>
      <trkpt lat="46.37533" lon="5.31324">
        <ele>220.80000305176</ele>
        <time>2020-07-31T05:21:45.000Z</time>
      </trkpt>
      <trkpt lat="46.37528" lon="5.31317">
        <ele>220.80000305176</ele>
        <time>2020-07-31T05:21:46.000Z</time>
      </trkpt>
      <trkpt lat="46.37518" lon="5.31303">
        <ele>220.80000305176</ele>
        <time>2020-07-31T05:21:48.000Z</time>
      </trkpt>
      <trkpt lat="46.37503" lon="5.31281">
        <ele>221</ele>
        <time>2020-07-31T05:21:51.000Z</time>
      </trkpt>
      <trkpt lat="46.37493" lon="5.31266">
        <ele>221</ele>
        <time>2020-07-31T05:21:53.000Z</time>
      </trkpt>
      <trkpt lat="46.37488" lon="5.31259">
        <ele>221</ele>
        <time>2020-07-31T05:21:54.000Z</time>
      </trkpt>
      <trkpt lat="46.37477" lon="5.31244">
        <ele>221</ele>
        <time>2020-07-31T05:21:56.000Z</time>
      </trkpt>
      <trkpt lat="46.37467" lon="5.3123">
        <ele>220.80000305176</ele>
        <time>2020-07-31T05:21:58.000Z</time>
      </trkpt>
      <trkpt lat="46.37453" lon="5.31209">
        <ele>220.80000305176</ele>
        <time>2020-07-31T05:22:01.000Z</time>
      </trkpt>
      <trkpt lat="46.37443" lon="5.31195">
        <ele>220.80000305176</ele>
        <time>2020-07-31T05:22:03.000Z</time>
      </trkpt>
      <trkpt lat="46.37433" lon="5.31181">
        <ele>220.80000305176</ele>
        <time>2020-07-31T05:22:05.000Z</time>
      </trkpt>
      <trkpt lat="46.37424" lon="5.31167">
        <ele>220.80000305176</ele>
        <time>2020-07-31T05:22:07.000Z</time>
      </trkpt>
      <trkpt lat="46.37408" lon="5.31144">
        <ele>220.80000305176</ele>
        <time>2020-07-31T05:22:10.000Z</time>
      </trkpt>
      <trkpt lat="46.37398" lon="5.31129">
        <ele>220.80000305176</ele>
        <time>2020-07-31T05:22:12.000Z</time>
      </trkpt>
      <trkpt lat="46.37393" lon="5.31121">
        <ele>220.80000305176</ele>
        <time>2020-07-31T05:22:13.000Z</time>
      </trkpt>
      <trkpt lat="46.37388" lon="5.31113">
        <ele>220.60000610352</ele>
        <time>2020-07-31T05:22:14.000Z</time>
      </trkpt>
      <trkpt lat="46.37377" lon="5.31097">
        <ele>220.60000610352</ele>
        <time>2020-07-31T05:22:16.000Z</time>
      </trkpt>
      <trkpt lat="46.37366" lon="5.31081">
        <ele>220</ele>
        <time>2020-07-31T05:22:18.000Z</time>
      </trkpt>
      <trkpt lat="46.37361" lon="5.31073">
        <ele>220</ele>
        <time>2020-07-31T05:22:19.000Z</time>
      </trkpt>
      <trkpt lat="46.3735" lon="5.31057">
        <ele>219.80000305176</ele>
        <time>2020-07-31T05:22:21.000Z</time>
      </trkpt>
      <trkpt lat="46.37344" lon="5.31049">
        <ele>219.60000610352</ele>
        <time>2020-07-31T05:22:22.000Z</time>
      </trkpt>
      <trkpt lat="46.37334" lon="5.31033">
        <ele>219.39999389648</ele>
        <time>2020-07-31T05:22:24.000Z</time>
      </trkpt>
      <trkpt lat="46.37318" lon="5.3101">
        <ele>219</ele>
        <time>2020-07-31T05:22:27.000Z</time>
      </trkpt>
      <trkpt lat="46.37308" lon="5.30995">
        <ele>219</ele>
        <time>2020-07-31T05:22:29.000Z</time>
      </trkpt>
      <trkpt lat="46.37302" lon="5.30988">
        <ele>218.80000305176</ele>
        <time>2020-07-31T05:22:30.000Z</time>
      </trkpt>
      <trkpt lat="46.37297" lon="5.3098">
        <ele>218.80000305176</ele>
        <time>2020-07-31T05:22:31.000Z</time>
      </trkpt>
      <trkpt lat="46.37292" lon="5.30973">
        <ele>218.80000305176</ele>
        <time>2020-07-31T05:22:32.000Z</time>
      </trkpt>
      <trkpt lat="46.37287" lon="5.30965">
        <ele>218.60000610352</ele>
        <time>2020-07-31T05:22:33.000Z</time>
      </trkpt>
      <trkpt lat="46.37277" lon="5.3095">
        <ele>218.60000610352</ele>
        <time>2020-07-31T05:22:35.000Z</time>
      </trkpt>
      <trkpt lat="46.37267" lon="5.30935">
        <ele>218.60000610352</ele>
        <time>2020-07-31T05:22:37.000Z</time>
      </trkpt>
      <trkpt lat="46.37256" lon="5.30921">
        <ele>218.60000610352</ele>
        <time>2020-07-31T05:22:39.000Z</time>
      </trkpt>
      <trkpt lat="46.37246" lon="5.30906">
        <ele>218.60000610352</ele>
        <time>2020-07-31T05:22:41.000Z</time>
      </trkpt>
      <trkpt lat="46.37241" lon="5.30898">
        <ele>218.60000610352</ele>
        <time>2020-07-31T05:22:42.000Z</time>
      </trkpt>
      <trkpt lat="46.37236" lon="5.30891">
        <ele>218.60000610352</ele>
        <time>2020-07-31T05:22:43.000Z</time>
      </trkpt>
      <trkpt lat="46.37225" lon="5.30876">
        <ele>218.60000610352</ele>
        <time>2020-07-31T05:22:45.000Z</time>
      </trkpt>
      <trkpt lat="46.37215" lon="5.30861">
        <ele>218.39999389648</ele>
        <time>2020-07-31T05:22:47.000Z</time>
      </trkpt>
      <trkpt lat="46.37205" lon="5.30846">
        <ele>218.39999389648</ele>
        <time>2020-07-31T05:22:49.000Z</time>
      </trkpt>
      <trkpt lat="46.37195" lon="5.30831">
        <ele>218.19999694824</ele>
        <time>2020-07-31T05:22:51.000Z</time>
      </trkpt>
      <trkpt lat="46.37186" lon="5.30815">
        <ele>218.19999694824</ele>
        <time>2020-07-31T05:22:53.000Z</time>
      </trkpt>
      <trkpt lat="46.37181" lon="5.30808">
        <ele>218.19999694824</ele>
        <time>2020-07-31T05:22:54.000Z</time>
      </trkpt>
      <trkpt lat="46.37177" lon="5.30799">
        <ele>218.19999694824</ele>
        <time>2020-07-31T05:22:55.000Z</time>
      </trkpt>
      <trkpt lat="46.37168" lon="5.30782">
        <ele>218.19999694824</ele>
        <time>2020-07-31T05:22:57.000Z</time>
      </trkpt>
      <trkpt lat="46.37161" lon="5.30765">
        <ele>218.19999694824</ele>
        <time>2020-07-31T05:22:59.000Z</time>
      </trkpt>
      <trkpt lat="46.37154" lon="5.30747">
        <ele>218.19999694824</ele>
        <time>2020-07-31T05:23:01.000Z</time>
      </trkpt>
      <trkpt lat="46.37147" lon="5.30728">
        <ele>218.39999389648</ele>
        <time>2020-07-31T05:23:03.000Z</time>
      </trkpt>
      <trkpt lat="46.37141" lon="5.30709">
        <ele>218.39999389648</ele>
        <time>2020-07-31T05:23:05.000Z</time>
      </trkpt>
      <trkpt lat="46.37133" lon="5.30679">
        <ele>218.39999389648</ele>
        <time>2020-07-31T05:23:08.000Z</time>
      </trkpt>
      <trkpt lat="46.37128" lon="5.3066">
        <ele>218.39999389648</ele>
        <time>2020-07-31T05:23:10.000Z</time>
      </trkpt>
      <trkpt lat="46.37124" lon="5.3064">
        <ele>218.19999694824</ele>
        <time>2020-07-31T05:23:12.000Z</time>
      </trkpt>
      <trkpt lat="46.3712" lon="5.3062">
        <ele>218.19999694824</ele>
        <time>2020-07-31T05:23:14.000Z</time>
      </trkpt>
      <trkpt lat="46.37118" lon="5.30599">
        <ele>218</ele>
        <time>2020-07-31T05:23:16.000Z</time>
      </trkpt>
      <trkpt lat="46.37117" lon="5.30568">
        <ele>218</ele>
        <time>2020-07-31T05:23:19.000Z</time>
      </trkpt>
      <trkpt lat="46.37118" lon="5.30548">
        <ele>218</ele>
        <time>2020-07-31T05:23:21.000Z</time>
      </trkpt>
      <trkpt lat="46.3712" lon="5.30527">
        <ele>218</ele>
        <time>2020-07-31T05:23:23.000Z</time>
      </trkpt>
      <trkpt lat="46.37122" lon="5.30507">
        <ele>218</ele>
        <time>2020-07-31T05:23:25.000Z</time>
      </trkpt>
      <trkpt lat="46.37123" lon="5.30487">
        <ele>218</ele>
        <time>2020-07-31T05:23:27.000Z</time>
      </trkpt>
      <trkpt lat="46.37125" lon="5.30467">
        <ele>218</ele>
        <time>2020-07-31T05:23:29.000Z</time>
      </trkpt>
      <trkpt lat="46.37127" lon="5.30447">
        <ele>218</ele>
        <time>2020-07-31T05:23:31.000Z</time>
      </trkpt>
      <trkpt lat="46.37128" lon="5.30428">
        <ele>218.19999694824</ele>
        <time>2020-07-31T05:23:33.000Z</time>
      </trkpt>
      <trkpt lat="46.3713" lon="5.30409">
        <ele>218.39999389648</ele>
        <time>2020-07-31T05:23:35.000Z</time>
      </trkpt>
      <trkpt lat="46.37131" lon="5.3039">
        <ele>218.60000610352</ele>
        <time>2020-07-31T05:23:37.000Z</time>
      </trkpt>
      <trkpt lat="46.37133" lon="5.30371">
        <ele>218.80000305176</ele>
        <time>2020-07-31T05:23:39.000Z</time>
      </trkpt>
      <trkpt lat="46.37134" lon="5.30352">
        <ele>219</ele>
        <time>2020-07-31T05:23:41.000Z</time>
      </trkpt>
      <trkpt lat="46.37136" lon="5.30334">
        <ele>219</ele>
        <time>2020-07-31T05:23:43.000Z</time>
      </trkpt>
      <trkpt lat="46.37137" lon="5.30316">
        <ele>219.19999694824</ele>
        <time>2020-07-31T05:23:45.000Z</time>
      </trkpt>
      <trkpt lat="46.37139" lon="5.30298">
        <ele>219.19999694824</ele>
        <time>2020-07-31T05:23:47.000Z</time>
      </trkpt>
      <trkpt lat="46.37141" lon="5.3028">
        <ele>219.39999389648</ele>
        <time>2020-07-31T05:23:49.000Z</time>
      </trkpt>
      <trkpt lat="46.37142" lon="5.30271">
        <ele>219.39999389648</ele>
        <time>2020-07-31T05:23:50.000Z</time>
      </trkpt>
      <trkpt lat="46.37144" lon="5.30263">
        <ele>219.60000610352</ele>
        <time>2020-07-31T05:23:51.000Z</time>
      </trkpt>
      <trkpt lat="46.37147" lon="5.30256">
        <ele>219.60000610352</ele>
        <time>2020-07-31T05:23:52.000Z</time>
      </trkpt>
      <trkpt lat="46.3715" lon="5.30249">
        <ele>219.80000305176</ele>
        <time>2020-07-31T05:23:53.000Z</time>
      </trkpt>
      <trkpt lat="46.37153" lon="5.30243">
        <ele>219.80000305176</ele>
        <time>2020-07-31T05:23:54.000Z</time>
      </trkpt>
      <trkpt lat="46.37161" lon="5.30233">
        <ele>220</ele>
        <time>2020-07-31T05:23:56.000Z</time>
      </trkpt>
      <trkpt lat="46.37165" lon="5.30229">
        <ele>220</ele>
        <time>2020-07-31T05:23:57.000Z</time>
      </trkpt>
      <trkpt lat="46.37169" lon="5.30226">
        <ele>220</ele>
        <time>2020-07-31T05:23:58.000Z</time>
      </trkpt>
      <trkpt lat="46.37177" lon="5.3022">
        <ele>220.60000610352</ele>
        <time>2020-07-31T05:24:00.000Z</time>
      </trkpt>
      <trkpt lat="46.37182" lon="5.30218">
        <ele>221</ele>
        <time>2020-07-31T05:24:01.000Z</time>
      </trkpt>
      <trkpt lat="46.37191" lon="5.30213">
        <ele>222</ele>
        <time>2020-07-31T05:24:03.000Z</time>
      </trkpt>
      <trkpt lat="46.37196" lon="5.30211">
        <ele>222.39999389648</ele>
        <time>2020-07-31T05:24:04.000Z</time>
      </trkpt>
      <trkpt lat="46.372" lon="5.30209">
        <ele>222.80000305176</ele>
        <time>2020-07-31T05:24:05.000Z</time>
      </trkpt>
      <trkpt lat="46.37213" lon="5.30202">
        <ele>223.60000610352</ele>
        <time>2020-07-31T05:24:08.000Z</time>
      </trkpt>
      <trkpt lat="46.37221" lon="5.30198">
        <ele>224.39999389648</ele>
        <time>2020-07-31T05:24:10.000Z</time>
      </trkpt>
      <trkpt lat="46.37225" lon="5.30196">
        <ele>224.60000610352</ele>
        <time>2020-07-31T05:24:11.000Z</time>
      </trkpt>
      <trkpt lat="46.37233" lon="5.30191">
        <ele>225.39999389648</ele>
        <time>2020-07-31T05:24:13.000Z</time>
      </trkpt>
      <trkpt lat="46.37236" lon="5.30189">
        <ele>225.60000610352</ele>
        <time>2020-07-31T05:24:14.000Z</time>
      </trkpt>
      <trkpt lat="46.3724" lon="5.30186">
        <ele>225.80000305176</ele>
        <time>2020-07-31T05:24:15.000Z</time>
      </trkpt>
      <trkpt lat="46.37243" lon="5.30183">
        <ele>226</ele>
        <time>2020-07-31T05:24:16.000Z</time>
      </trkpt>
      <trkpt lat="46.37253" lon="5.30171">
        <ele>226.60000610352</ele>
        <time>2020-07-31T05:24:19.000Z</time>
      </trkpt>
      <trkpt lat="46.37255" lon="5.30166">
        <ele>226.80000305176</ele>
        <time>2020-07-31T05:24:20.000Z</time>
      </trkpt>
      <trkpt lat="46.37258" lon="5.30162">
        <ele>227</ele>
        <time>2020-07-31T05:24:21.000Z</time>
      </trkpt>
      <trkpt lat="46.37261" lon="5.30151">
        <ele>227.39999389648</ele>
        <time>2020-07-31T05:24:23.000Z</time>
      </trkpt>
      <trkpt lat="46.37262" lon="5.30145">
        <ele>227.80000305176</ele>
        <time>2020-07-31T05:24:24.000Z</time>
      </trkpt>
      <trkpt lat="46.37263" lon="5.30139">
        <ele>228</ele>
        <time>2020-07-31T05:24:25.000Z</time>
      </trkpt>
      <trkpt lat="46.37263" lon="5.30133">
        <ele>228.19999694824</ele>
        <time>2020-07-31T05:24:26.000Z</time>
      </trkpt>
      <trkpt lat="46.37264" lon="5.30127">
        <ele>228.39999389648</ele>
        <time>2020-07-31T05:24:27.000Z</time>
      </trkpt>
      <trkpt lat="46.37264" lon="5.30115">
        <ele>229</ele>
        <time>2020-07-31T05:24:29.000Z</time>
      </trkpt>
      <trkpt lat="46.37264" lon="5.30109">
        <ele>229</ele>
        <time>2020-07-31T05:24:30.000Z</time>
      </trkpt>
      <trkpt lat="46.37263" lon="5.30103">
        <ele>229</ele>
        <time>2020-07-31T05:24:31.000Z</time>
      </trkpt>
      <trkpt lat="46.37263" lon="5.30091">
        <ele>229.19999694824</ele>
        <time>2020-07-31T05:24:33.000Z</time>
      </trkpt>
      <trkpt lat="46.37262" lon="5.3008">
        <ele>229.39999389648</ele>
        <time>2020-07-31T05:24:35.000Z</time>
      </trkpt>
      <trkpt lat="46.37262" lon="5.30068">
        <ele>229.39999389648</ele>
        <time>2020-07-31T05:24:37.000Z</time>
      </trkpt>
      <trkpt lat="46.37261" lon="5.30057">
        <ele>229.60000610352</ele>
        <time>2020-07-31T05:24:39.000Z</time>
      </trkpt>
      <trkpt lat="46.37261" lon="5.30046">
        <ele>230</ele>
        <time>2020-07-31T05:24:41.000Z</time>
      </trkpt>
      <trkpt lat="46.37261" lon="5.30034">
        <ele>230.39999389648</ele>
        <time>2020-07-31T05:24:43.000Z</time>
      </trkpt>
      <trkpt lat="46.37261" lon="5.30023">
        <ele>230.80000305176</ele>
        <time>2020-07-31T05:24:45.000Z</time>
      </trkpt>
      <trkpt lat="46.37262" lon="5.30018">
        <ele>231.19999694824</ele>
        <time>2020-07-31T05:24:46.000Z</time>
      </trkpt>
      <trkpt lat="46.37262" lon="5.30012">
        <ele>231.39999389648</ele>
        <time>2020-07-31T05:24:47.000Z</time>
      </trkpt>
      <trkpt lat="46.37265" lon="5.30002">
        <ele>231.80000305176</ele>
        <time>2020-07-31T05:24:49.000Z</time>
      </trkpt>
      <trkpt lat="46.3727" lon="5.29992">
        <ele>232</ele>
        <time>2020-07-31T05:24:51.000Z</time>
      </trkpt>
      <trkpt lat="46.37273" lon="5.29989">
        <ele>232.19999694824</ele>
        <time>2020-07-31T05:24:52.000Z</time>
      </trkpt>
      <trkpt lat="46.37277" lon="5.29986">
        <ele>232.39999389648</ele>
        <time>2020-07-31T05:24:53.000Z</time>
      </trkpt>
      <trkpt lat="46.3728" lon="5.29983">
        <ele>232.80000305176</ele>
        <time>2020-07-31T05:24:54.000Z</time>
      </trkpt>
      <trkpt lat="46.37287" lon="5.29978">
        <ele>233</ele>
        <time>2020-07-31T05:24:56.000Z</time>
      </trkpt>
      <trkpt lat="46.37294" lon="5.29974">
        <ele>233.19999694824</ele>
        <time>2020-07-31T05:24:58.000Z</time>
      </trkpt>
      <trkpt lat="46.37301" lon="5.29971">
        <ele>233.80000305176</ele>
        <time>2020-07-31T05:25:00.000Z</time>
      </trkpt>
      <trkpt lat="46.37308" lon="5.29966">
        <ele>234.39999389648</ele>
        <time>2020-07-31T05:25:02.000Z</time>
      </trkpt>
      <trkpt lat="46.37316" lon="5.29955">
        <ele>235</ele>
        <time>2020-07-31T05:25:05.000Z</time>
      </trkpt>
      <trkpt lat="46.37318" lon="5.29951">
        <ele>235.39999389648</ele>
        <time>2020-07-31T05:25:06.000Z</time>
      </trkpt>
      <trkpt lat="46.37319" lon="5.29945">
        <ele>235.80000305176</ele>
        <time>2020-07-31T05:25:07.000Z</time>
      </trkpt>
      <trkpt lat="46.37318" lon="5.29934">
        <ele>236.19999694824</ele>
        <time>2020-07-31T05:25:09.000Z</time>
      </trkpt>
      <trkpt lat="46.37317" lon="5.29929">
        <ele>236.60000610352</ele>
        <time>2020-07-31T05:25:10.000Z</time>
      </trkpt>
      <trkpt lat="46.37315" lon="5.29924">
        <ele>236.80000305176</ele>
        <time>2020-07-31T05:25:11.000Z</time>
      </trkpt>
      <trkpt lat="46.3731" lon="5.29916">
        <ele>237.39999389648</ele>
        <time>2020-07-31T05:25:13.000Z</time>
      </trkpt>
      <trkpt lat="46.37307" lon="5.29913">
        <ele>237.60000610352</ele>
        <time>2020-07-31T05:25:14.000Z</time>
      </trkpt>
      <trkpt lat="46.37303" lon="5.2991">
        <ele>237.80000305176</ele>
        <time>2020-07-31T05:25:15.000Z</time>
      </trkpt>
      <trkpt lat="46.373" lon="5.29908">
        <ele>238</ele>
        <time>2020-07-31T05:25:16.000Z</time>
      </trkpt>
      <trkpt lat="46.37296" lon="5.29906">
        <ele>238.19999694824</ele>
        <time>2020-07-31T05:25:17.000Z</time>
      </trkpt>
      <trkpt lat="46.37293" lon="5.29904">
        <ele>238.60000610352</ele>
        <time>2020-07-31T05:25:18.000Z</time>
      </trkpt>
      <trkpt lat="46.37284" lon="5.29902">
        <ele>239</ele>
        <time>2020-07-31T05:25:20.000Z</time>
      </trkpt>
      <trkpt lat="46.3728" lon="5.29902">
        <ele>239.19999694824</ele>
        <time>2020-07-31T05:25:21.000Z</time>
      </trkpt>
      <trkpt lat="46.37277" lon="5.29902">
        <ele>239.39999389648</ele>
        <time>2020-07-31T05:25:22.000Z</time>
      </trkpt>
      <trkpt lat="46.37273" lon="5.29903">
        <ele>239.60000610352</ele>
        <time>2020-07-31T05:25:23.000Z</time>
      </trkpt>
      <trkpt lat="46.37266" lon="5.29904">
        <ele>239.80000305176</ele>
        <time>2020-07-31T05:25:25.000Z</time>
      </trkpt>
      <trkpt lat="46.37259" lon="5.29906">
        <ele>240.19999694824</ele>
        <time>2020-07-31T05:25:27.000Z</time>
      </trkpt>
      <trkpt lat="46.37251" lon="5.29907">
        <ele>240.39999389648</ele>
        <time>2020-07-31T05:25:29.000Z</time>
      </trkpt>
      <trkpt lat="46.37243" lon="5.29909">
        <ele>240.80000305176</ele>
        <time>2020-07-31T05:25:31.000Z</time>
      </trkpt>
      <trkpt lat="46.37235" lon="5.29912">
        <ele>241.60000610352</ele>
        <time>2020-07-31T05:25:33.000Z</time>
      </trkpt>
      <trkpt lat="46.37231" lon="5.29914">
        <ele>241.80000305176</ele>
        <time>2020-07-31T05:25:34.000Z</time>
      </trkpt>
      <trkpt lat="46.37226" lon="5.29916">
        <ele>242.19999694824</ele>
        <time>2020-07-31T05:25:35.000Z</time>
      </trkpt>
      <trkpt lat="46.37217" lon="5.2992">
        <ele>242.60000610352</ele>
        <time>2020-07-31T05:25:37.000Z</time>
      </trkpt>
      <trkpt lat="46.37208" lon="5.29924">
        <ele>243</ele>
        <time>2020-07-31T05:25:39.000Z</time>
      </trkpt>
      <trkpt lat="46.37198" lon="5.29927">
        <ele>243.19999694824</ele>
        <time>2020-07-31T05:25:41.000Z</time>
      </trkpt>
      <trkpt lat="46.37193" lon="5.29928">
        <ele>243.19999694824</ele>
        <time>2020-07-31T05:25:42.000Z</time>
      </trkpt>
      <trkpt lat="46.37184" lon="5.29928">
        <ele>243.39999389648</ele>
        <time>2020-07-31T05:25:44.000Z</time>
      </trkpt>
      <trkpt lat="46.37179" lon="5.29927">
        <ele>243.39999389648</ele>
        <time>2020-07-31T05:25:45.000Z</time>
      </trkpt>
      <trkpt lat="46.37175" lon="5.29926">
        <ele>243.39999389648</ele>
        <time>2020-07-31T05:25:46.000Z</time>
      </trkpt>
      <trkpt lat="46.3717" lon="5.29924">
        <ele>243.39999389648</ele>
        <time>2020-07-31T05:25:47.000Z</time>
      </trkpt>
      <trkpt lat="46.37166" lon="5.29921">
        <ele>243.39999389648</ele>
        <time>2020-07-31T05:25:48.000Z</time>
      </trkpt>
      <trkpt lat="46.37158" lon="5.29915">
        <ele>243.60000610352</ele>
        <time>2020-07-31T05:25:50.000Z</time>
      </trkpt>
      <trkpt lat="46.37154" lon="5.29912">
        <ele>243.60000610352</ele>
        <time>2020-07-31T05:25:51.000Z</time>
      </trkpt>
      <trkpt lat="46.37146" lon="5.29905">
        <ele>243.60000610352</ele>
        <time>2020-07-31T05:25:53.000Z</time>
      </trkpt>
      <trkpt lat="46.37137" lon="5.29898">
        <ele>243.60000610352</ele>
        <time>2020-07-31T05:25:55.000Z</time>
      </trkpt>
      <trkpt lat="46.37131" lon="5.29893">
        <ele>243.60000610352</ele>
        <time>2020-07-31T05:25:56.000Z</time>
      </trkpt>
      <trkpt lat="46.37119" lon="5.29885">
        <ele>243.60000610352</ele>
        <time>2020-07-31T05:25:58.000Z</time>
      </trkpt>
      <trkpt lat="46.37106" lon="5.29876">
        <ele>243.60000610352</ele>
        <time>2020-07-31T05:26:00.000Z</time>
      </trkpt>
      <trkpt lat="46.37093" lon="5.29867">
        <ele>243.39999389648</ele>
        <time>2020-07-31T05:26:02.000Z</time>
      </trkpt>
      <trkpt lat="46.37079" lon="5.29857">
        <ele>242.80000305176</ele>
        <time>2020-07-31T05:26:04.000Z</time>
      </trkpt>
      <trkpt lat="46.37072" lon="5.29853">
        <ele>241.80000305176</ele>
        <time>2020-07-31T05:26:05.000Z</time>
      </trkpt>
      <trkpt lat="46.37065" lon="5.29848">
        <ele>241.19999694824</ele>
        <time>2020-07-31T05:26:06.000Z</time>
      </trkpt>
      <trkpt lat="46.3705" lon="5.29838">
        <ele>240.60000610352</ele>
        <time>2020-07-31T05:26:08.000Z</time>
      </trkpt>
      <trkpt lat="46.37035" lon="5.29827">
        <ele>239.60000610352</ele>
        <time>2020-07-31T05:26:10.000Z</time>
      </trkpt>
      <trkpt lat="46.37027" lon="5.29822">
        <ele>239.19999694824</ele>
        <time>2020-07-31T05:26:11.000Z</time>
      </trkpt>
      <trkpt lat="46.37019" lon="5.29819">
        <ele>239</ele>
        <time>2020-07-31T05:26:12.000Z</time>
      </trkpt>
      <trkpt lat="46.37003" lon="5.29817">
        <ele>238.39999389648</ele>
        <time>2020-07-31T05:26:14.000Z</time>
      </trkpt>
      <trkpt lat="46.36995" lon="5.29818">
        <ele>238.19999694824</ele>
        <time>2020-07-31T05:26:15.000Z</time>
      </trkpt>
      <trkpt lat="46.36987" lon="5.29818">
        <ele>238</ele>
        <time>2020-07-31T05:26:16.000Z</time>
      </trkpt>
      <trkpt lat="46.36966" lon="5.29815">
        <ele>237.80000305176</ele>
        <time>2020-07-31T05:26:19.000Z</time>
      </trkpt>
      <trkpt lat="46.36959" lon="5.29813">
        <ele>237.80000305176</ele>
        <time>2020-07-31T05:26:20.000Z</time>
      </trkpt>
      <trkpt lat="46.36953" lon="5.29812">
        <ele>237.80000305176</ele>
        <time>2020-07-31T05:26:21.000Z</time>
      </trkpt>
      <trkpt lat="46.3694" lon="5.2981">
        <ele>237.80000305176</ele>
        <time>2020-07-31T05:26:23.000Z</time>
      </trkpt>
      <trkpt lat="46.36929" lon="5.29811">
        <ele>237.80000305176</ele>
        <time>2020-07-31T05:26:25.000Z</time>
      </trkpt>
      <trkpt lat="46.36918" lon="5.29813">
        <ele>238.39999389648</ele>
        <time>2020-07-31T05:26:27.000Z</time>
      </trkpt>
      <trkpt lat="46.36908" lon="5.29816">
        <ele>239.19999694824</ele>
        <time>2020-07-31T05:26:29.000Z</time>
      </trkpt>
      <trkpt lat="46.36897" lon="5.29819">
        <ele>240.39999389648</ele>
        <time>2020-07-31T05:26:31.000Z</time>
      </trkpt>
      <trkpt lat="46.36887" lon="5.29822">
        <ele>241.39999389648</ele>
        <time>2020-07-31T05:26:33.000Z</time>
      </trkpt>
      <trkpt lat="46.36877" lon="5.29825">
        <ele>242.80000305176</ele>
        <time>2020-07-31T05:26:35.000Z</time>
      </trkpt>
      <trkpt lat="46.36867" lon="5.29828">
        <ele>243.60000610352</ele>
        <time>2020-07-31T05:26:37.000Z</time>
      </trkpt>
      <trkpt lat="46.36862" lon="5.29829">
        <ele>244</ele>
        <time>2020-07-31T05:26:38.000Z</time>
      </trkpt>
      <trkpt lat="46.36857" lon="5.29831">
        <ele>244.19999694824</ele>
        <time>2020-07-31T05:26:39.000Z</time>
      </trkpt>
      <trkpt lat="46.36847" lon="5.29835">
        <ele>244.80000305176</ele>
        <time>2020-07-31T05:26:41.000Z</time>
      </trkpt>
      <trkpt lat="46.36842" lon="5.29837">
        <ele>245</ele>
        <time>2020-07-31T05:26:42.000Z</time>
      </trkpt>
      <trkpt lat="46.36831" lon="5.2984">
        <ele>245.39999389648</ele>
        <time>2020-07-31T05:26:44.000Z</time>
      </trkpt>
      <trkpt lat="46.36821" lon="5.29843">
        <ele>246</ele>
        <time>2020-07-31T05:26:46.000Z</time>
      </trkpt>
      <trkpt lat="46.36809" lon="5.29843">
        <ele>246.19999694824</ele>
        <time>2020-07-31T05:26:48.000Z</time>
      </trkpt>
      <trkpt lat="46.36796" lon="5.2984">
        <ele>246.19999694824</ele>
        <time>2020-07-31T05:26:50.000Z</time>
      </trkpt>
      <trkpt lat="46.36783" lon="5.29835">
        <ele>246.19999694824</ele>
        <time>2020-07-31T05:26:52.000Z</time>
      </trkpt>
      <trkpt lat="46.3677" lon="5.29827">
        <ele>246.19999694824</ele>
        <time>2020-07-31T05:26:54.000Z</time>
      </trkpt>
      <trkpt lat="46.36763" lon="5.29823">
        <ele>246.19999694824</ele>
        <time>2020-07-31T05:26:55.000Z</time>
      </trkpt>
      <trkpt lat="46.3675" lon="5.29813">
        <ele>245.80000305176</ele>
        <time>2020-07-31T05:26:57.000Z</time>
      </trkpt>
      <trkpt lat="46.36737" lon="5.29803">
        <ele>245.19999694824</ele>
        <time>2020-07-31T05:26:59.000Z</time>
      </trkpt>
      <trkpt lat="46.36723" lon="5.29792">
        <ele>245</ele>
        <time>2020-07-31T05:27:01.000Z</time>
      </trkpt>
      <trkpt lat="46.36717" lon="5.29786">
        <ele>244.60000610352</ele>
        <time>2020-07-31T05:27:02.000Z</time>
      </trkpt>
      <trkpt lat="46.3671" lon="5.2978">
        <ele>244.39999389648</ele>
        <time>2020-07-31T05:27:03.000Z</time>
      </trkpt>
      <trkpt lat="46.36704" lon="5.29775">
        <ele>243.80000305176</ele>
        <time>2020-07-31T05:27:04.000Z</time>
      </trkpt>
      <trkpt lat="46.36697" lon="5.2977">
        <ele>243.60000610352</ele>
        <time>2020-07-31T05:27:05.000Z</time>
      </trkpt>
      <trkpt lat="46.36683" lon="5.29762">
        <ele>243.19999694824</ele>
        <time>2020-07-31T05:27:07.000Z</time>
      </trkpt>
      <trkpt lat="46.36677" lon="5.29758">
        <ele>243.19999694824</ele>
        <time>2020-07-31T05:27:08.000Z</time>
      </trkpt>
      <trkpt lat="46.36664" lon="5.2975">
        <ele>243</ele>
        <time>2020-07-31T05:27:10.000Z</time>
      </trkpt>
      <trkpt lat="46.36651" lon="5.29743">
        <ele>243</ele>
        <time>2020-07-31T05:27:12.000Z</time>
      </trkpt>
      <trkpt lat="46.36638" lon="5.29737">
        <ele>243</ele>
        <time>2020-07-31T05:27:14.000Z</time>
      </trkpt>
      <trkpt lat="46.36625" lon="5.29731">
        <ele>243</ele>
        <time>2020-07-31T05:27:16.000Z</time>
      </trkpt>
      <trkpt lat="46.36612" lon="5.29725">
        <ele>243</ele>
        <time>2020-07-31T05:27:18.000Z</time>
      </trkpt>
      <trkpt lat="46.36594" lon="5.29716">
        <ele>243</ele>
        <time>2020-07-31T05:27:21.000Z</time>
      </trkpt>
      <trkpt lat="46.36582" lon="5.2971">
        <ele>243.19999694824</ele>
        <time>2020-07-31T05:27:23.000Z</time>
      </trkpt>
      <trkpt lat="46.36577" lon="5.29707">
        <ele>243.19999694824</ele>
        <time>2020-07-31T05:27:24.000Z</time>
      </trkpt>
      <trkpt lat="46.36571" lon="5.29705">
        <ele>243.19999694824</ele>
        <time>2020-07-31T05:27:25.000Z</time>
      </trkpt>
      <trkpt lat="46.3656" lon="5.297">
        <ele>243.39999389648</ele>
        <time>2020-07-31T05:27:27.000Z</time>
      </trkpt>
      <trkpt lat="46.36548" lon="5.29695">
        <ele>243.60000610352</ele>
        <time>2020-07-31T05:27:29.000Z</time>
      </trkpt>
      <trkpt lat="46.36535" lon="5.2969">
        <ele>244</ele>
        <time>2020-07-31T05:27:31.000Z</time>
      </trkpt>
      <trkpt lat="46.36529" lon="5.29688">
        <ele>244.19999694824</ele>
        <time>2020-07-31T05:27:32.000Z</time>
      </trkpt>
      <trkpt lat="46.36516" lon="5.29684">
        <ele>244.39999389648</ele>
        <time>2020-07-31T05:27:34.000Z</time>
      </trkpt>
      <trkpt lat="46.36503" lon="5.29679">
        <ele>244.39999389648</ele>
        <time>2020-07-31T05:27:36.000Z</time>
      </trkpt>
      <trkpt lat="46.3649" lon="5.29673">
        <ele>244.39999389648</ele>
        <time>2020-07-31T05:27:38.000Z</time>
      </trkpt>
      <trkpt lat="46.36478" lon="5.29667">
        <ele>244.39999389648</ele>
        <time>2020-07-31T05:27:40.000Z</time>
      </trkpt>
      <trkpt lat="46.36459" lon="5.29655">
        <ele>244.39999389648</ele>
        <time>2020-07-31T05:27:43.000Z</time>
      </trkpt>
      <trkpt lat="46.36448" lon="5.29647">
        <ele>244.39999389648</ele>
        <time>2020-07-31T05:27:45.000Z</time>
      </trkpt>
      <trkpt lat="46.36437" lon="5.29639">
        <ele>244.39999389648</ele>
        <time>2020-07-31T05:27:47.000Z</time>
      </trkpt>
      <trkpt lat="46.36431" lon="5.29635">
        <ele>244.39999389648</ele>
        <time>2020-07-31T05:27:48.000Z</time>
      </trkpt>
      <trkpt lat="46.3642" lon="5.29626">
        <ele>244.39999389648</ele>
        <time>2020-07-31T05:27:50.000Z</time>
      </trkpt>
      <trkpt lat="46.36415" lon="5.29622">
        <ele>244.39999389648</ele>
        <time>2020-07-31T05:27:51.000Z</time>
      </trkpt>
      <trkpt lat="46.36399" lon="5.29609">
        <ele>244.60000610352</ele>
        <time>2020-07-31T05:27:54.000Z</time>
      </trkpt>
      <trkpt lat="46.36389" lon="5.29599">
        <ele>244.80000305176</ele>
        <time>2020-07-31T05:27:56.000Z</time>
      </trkpt>
      <trkpt lat="46.36384" lon="5.29593">
        <ele>245</ele>
        <time>2020-07-31T05:27:57.000Z</time>
      </trkpt>
      <trkpt lat="46.36376" lon="5.29581">
        <ele>245.39999389648</ele>
        <time>2020-07-31T05:27:59.000Z</time>
      </trkpt>
      <trkpt lat="46.36368" lon="5.29568">
        <ele>245.80000305176</ele>
        <time>2020-07-31T05:28:01.000Z</time>
      </trkpt>
      <trkpt lat="46.36362" lon="5.29553">
        <ele>245.80000305176</ele>
        <time>2020-07-31T05:28:03.000Z</time>
      </trkpt>
      <trkpt lat="46.36355" lon="5.29539">
        <ele>246.19999694824</ele>
        <time>2020-07-31T05:28:05.000Z</time>
      </trkpt>
      <trkpt lat="46.36346" lon="5.29526">
        <ele>246.39999389648</ele>
        <time>2020-07-31T05:28:07.000Z</time>
      </trkpt>
      <trkpt lat="46.36336" lon="5.29514">
        <ele>246.39999389648</ele>
        <time>2020-07-31T05:28:09.000Z</time>
      </trkpt>
      <trkpt lat="46.36325" lon="5.29502">
        <ele>246.39999389648</ele>
        <time>2020-07-31T05:28:11.000Z</time>
      </trkpt>
      <trkpt lat="46.36318" lon="5.29497">
        <ele>246.39999389648</ele>
        <time>2020-07-31T05:28:12.000Z</time>
      </trkpt>
      <trkpt lat="46.36312" lon="5.29491">
        <ele>246.39999389648</ele>
        <time>2020-07-31T05:28:13.000Z</time>
      </trkpt>
      <trkpt lat="46.36298" lon="5.29482">
        <ele>246.39999389648</ele>
        <time>2020-07-31T05:28:15.000Z</time>
      </trkpt>
      <trkpt lat="46.36291" lon="5.29478">
        <ele>246.39999389648</ele>
        <time>2020-07-31T05:28:16.000Z</time>
      </trkpt>
      <trkpt lat="46.36283" lon="5.29475">
        <ele>246.39999389648</ele>
        <time>2020-07-31T05:28:17.000Z</time>
      </trkpt>
      <trkpt lat="46.36267" lon="5.2947">
        <ele>246</ele>
        <time>2020-07-31T05:28:19.000Z</time>
      </trkpt>
      <trkpt lat="46.3625" lon="5.29466">
        <ele>245</ele>
        <time>2020-07-31T05:28:21.000Z</time>
      </trkpt>
      <trkpt lat="46.36242" lon="5.29466">
        <ele>244.60000610352</ele>
        <time>2020-07-31T05:28:22.000Z</time>
      </trkpt>
      <trkpt lat="46.36226" lon="5.29472">
        <ele>243.80000305176</ele>
        <time>2020-07-31T05:28:24.000Z</time>
      </trkpt>
      <trkpt lat="46.36219" lon="5.29477">
        <ele>243.60000610352</ele>
        <time>2020-07-31T05:28:25.000Z</time>
      </trkpt>
      <trkpt lat="46.36213" lon="5.29483">
        <ele>243.60000610352</ele>
        <time>2020-07-31T05:28:26.000Z</time>
      </trkpt>
      <trkpt lat="46.36206" lon="5.29489">
        <ele>243.39999389648</ele>
        <time>2020-07-31T05:28:27.000Z</time>
      </trkpt>
      <trkpt lat="46.36195" lon="5.29501">
        <ele>243.39999389648</ele>
        <time>2020-07-31T05:28:29.000Z</time>
      </trkpt>
      <trkpt lat="46.36183" lon="5.29511">
        <ele>243.39999389648</ele>
        <time>2020-07-31T05:28:31.000Z</time>
      </trkpt>
      <trkpt lat="46.3617" lon="5.29519">
        <ele>243.39999389648</ele>
        <time>2020-07-31T05:28:33.000Z</time>
      </trkpt>
      <trkpt lat="46.36157" lon="5.29526">
        <ele>244.19999694824</ele>
        <time>2020-07-31T05:28:35.000Z</time>
      </trkpt>
      <trkpt lat="46.36149" lon="5.29528">
        <ele>244.39999389648</ele>
        <time>2020-07-31T05:28:36.000Z</time>
      </trkpt>
      <trkpt lat="46.36141" lon="5.29529">
        <ele>244.60000610352</ele>
        <time>2020-07-31T05:28:37.000Z</time>
      </trkpt>
      <trkpt lat="46.36117" lon="5.29533">
        <ele>244.60000610352</ele>
        <time>2020-07-31T05:28:40.000Z</time>
      </trkpt>
      <trkpt lat="46.361" lon="5.29535">
        <ele>244.60000610352</ele>
        <time>2020-07-31T05:28:42.000Z</time>
      </trkpt>
      <trkpt lat="46.36092" lon="5.29535">
        <ele>244.60000610352</ele>
        <time>2020-07-31T05:28:43.000Z</time>
      </trkpt>
      <trkpt lat="46.36076" lon="5.29537">
        <ele>244.60000610352</ele>
        <time>2020-07-31T05:28:45.000Z</time>
      </trkpt>
      <trkpt lat="46.36059" lon="5.29539">
        <ele>244.19999694824</ele>
        <time>2020-07-31T05:28:47.000Z</time>
      </trkpt>
      <trkpt lat="46.36044" lon="5.29541">
        <ele>243.60000610352</ele>
        <time>2020-07-31T05:28:49.000Z</time>
      </trkpt>
      <trkpt lat="46.36036" lon="5.29542">
        <ele>243.60000610352</ele>
        <time>2020-07-31T05:28:50.000Z</time>
      </trkpt>
      <trkpt lat="46.36028" lon="5.29543">
        <ele>243.39999389648</ele>
        <time>2020-07-31T05:28:51.000Z</time>
      </trkpt>
      <trkpt lat="46.36013" lon="5.29544">
        <ele>243</ele>
        <time>2020-07-31T05:28:53.000Z</time>
      </trkpt>
      <trkpt lat="46.35997" lon="5.29546">
        <ele>243</ele>
        <time>2020-07-31T05:28:55.000Z</time>
      </trkpt>
      <trkpt lat="46.35982" lon="5.29549">
        <ele>242.80000305176</ele>
        <time>2020-07-31T05:28:57.000Z</time>
      </trkpt>
      <trkpt lat="46.3596" lon="5.29552">
        <ele>242.80000305176</ele>
        <time>2020-07-31T05:29:00.000Z</time>
      </trkpt>
      <trkpt lat="46.35946" lon="5.29553">
        <ele>242.80000305176</ele>
        <time>2020-07-31T05:29:02.000Z</time>
      </trkpt>
      <trkpt lat="46.35931" lon="5.29554">
        <ele>242.80000305176</ele>
        <time>2020-07-31T05:29:04.000Z</time>
      </trkpt>
      <trkpt lat="46.35918" lon="5.29555">
        <ele>242.80000305176</ele>
        <time>2020-07-31T05:29:06.000Z</time>
      </trkpt>
      <trkpt lat="46.35904" lon="5.29554">
        <ele>243</ele>
        <time>2020-07-31T05:29:08.000Z</time>
      </trkpt>
      <trkpt lat="46.35885" lon="5.2955">
        <ele>243.39999389648</ele>
        <time>2020-07-31T05:29:11.000Z</time>
      </trkpt>
      <trkpt lat="46.35873" lon="5.29548">
        <ele>243.60000610352</ele>
        <time>2020-07-31T05:29:13.000Z</time>
      </trkpt>
      <trkpt lat="46.35858" lon="5.29545">
        <ele>244.19999694824</ele>
        <time>2020-07-31T05:29:16.000Z</time>
      </trkpt>
      <trkpt lat="46.35854" lon="5.29544">
        <ele>244.39999389648</ele>
        <time>2020-07-31T05:29:17.000Z</time>
      </trkpt>
      <trkpt lat="46.35849" lon="5.29543">
        <ele>244.39999389648</ele>
        <time>2020-07-31T05:29:18.000Z</time>
      </trkpt>
      <trkpt lat="46.35844" lon="5.29542">
        <ele>244.80000305176</ele>
        <time>2020-07-31T05:29:19.000Z</time>
      </trkpt>
      <trkpt lat="46.35838" lon="5.29541">
        <ele>245.19999694824</ele>
        <time>2020-07-31T05:29:20.000Z</time>
      </trkpt>
      <trkpt lat="46.35827" lon="5.29541">
        <ele>245.80000305176</ele>
        <time>2020-07-31T05:29:22.000Z</time>
      </trkpt>
      <trkpt lat="46.35815" lon="5.2954">
        <ele>246.60000610352</ele>
        <time>2020-07-31T05:29:24.000Z</time>
      </trkpt>
      <trkpt lat="46.35809" lon="5.2954">
        <ele>247</ele>
        <time>2020-07-31T05:29:25.000Z</time>
      </trkpt>
      <trkpt lat="46.35798" lon="5.2954">
        <ele>247.60000610352</ele>
        <time>2020-07-31T05:29:27.000Z</time>
      </trkpt>
      <trkpt lat="46.35786" lon="5.29541">
        <ele>248</ele>
        <time>2020-07-31T05:29:29.000Z</time>
      </trkpt>
      <trkpt lat="46.3578" lon="5.29542">
        <ele>248.19999694824</ele>
        <time>2020-07-31T05:29:30.000Z</time>
      </trkpt>
      <trkpt lat="46.35764" lon="5.29541">
        <ele>248.19999694824</ele>
        <time>2020-07-31T05:29:33.000Z</time>
      </trkpt>
      <trkpt lat="46.35754" lon="5.29541">
        <ele>248.39999389648</ele>
        <time>2020-07-31T05:29:35.000Z</time>
      </trkpt>
      <trkpt lat="46.35749" lon="5.29542">
        <ele>248.39999389648</ele>
        <time>2020-07-31T05:29:36.000Z</time>
      </trkpt>
      <trkpt lat="46.35744" lon="5.29542">
        <ele>248.60000610352</ele>
        <time>2020-07-31T05:29:37.000Z</time>
      </trkpt>
      <trkpt lat="46.35735" lon="5.29544">
        <ele>248.60000610352</ele>
        <time>2020-07-31T05:29:39.000Z</time>
      </trkpt>
      <trkpt lat="46.35726" lon="5.29545">
        <ele>248.80000305176</ele>
        <time>2020-07-31T05:29:41.000Z</time>
      </trkpt>
      <trkpt lat="46.35722" lon="5.29547">
        <ele>249</ele>
        <time>2020-07-31T05:29:42.000Z</time>
      </trkpt>
      <trkpt lat="46.35718" lon="5.29548">
        <ele>249</ele>
        <time>2020-07-31T05:29:43.000Z</time>
      </trkpt>
      <trkpt lat="46.3571" lon="5.29553">
        <ele>249.19999694824</ele>
        <time>2020-07-31T05:29:45.000Z</time>
      </trkpt>
      <trkpt lat="46.35699" lon="5.29563">
        <ele>249.39999389648</ele>
        <time>2020-07-31T05:29:47.000Z</time>
      </trkpt>
      <trkpt lat="46.35693" lon="5.29568">
        <ele>249.39999389648</ele>
        <time>2020-07-31T05:29:48.000Z</time>
      </trkpt>
      <trkpt lat="46.35682" lon="5.29577">
        <ele>249.80000305176</ele>
        <time>2020-07-31T05:29:50.000Z</time>
      </trkpt>
      <trkpt lat="46.35671" lon="5.29587">
        <ele>250</ele>
        <time>2020-07-31T05:29:52.000Z</time>
      </trkpt>
      <trkpt lat="46.35665" lon="5.29591">
        <ele>250</ele>
        <time>2020-07-31T05:29:53.000Z</time>
      </trkpt>
      <trkpt lat="46.35659" lon="5.29595">
        <ele>250.19999694824</ele>
        <time>2020-07-31T05:29:54.000Z</time>
      </trkpt>
      <trkpt lat="46.35653" lon="5.29598">
        <ele>250.19999694824</ele>
        <time>2020-07-31T05:29:55.000Z</time>
      </trkpt>
      <trkpt lat="46.35634" lon="5.29606">
        <ele>250.19999694824</ele>
        <time>2020-07-31T05:29:58.000Z</time>
      </trkpt>
      <trkpt lat="46.35621" lon="5.29613">
        <ele>250.39999389648</ele>
        <time>2020-07-31T05:30:00.000Z</time>
      </trkpt>
      <trkpt lat="46.35614" lon="5.29616">
        <ele>250.39999389648</ele>
        <time>2020-07-31T05:30:01.000Z</time>
      </trkpt>
      <trkpt lat="46.35601" lon="5.29623">
        <ele>250.39999389648</ele>
        <time>2020-07-31T05:30:03.000Z</time>
      </trkpt>
      <trkpt lat="46.35588" lon="5.29629">
        <ele>250.39999389648</ele>
        <time>2020-07-31T05:30:05.000Z</time>
      </trkpt>
      <trkpt lat="46.35568" lon="5.29636">
        <ele>250.39999389648</ele>
        <time>2020-07-31T05:30:08.000Z</time>
      </trkpt>
      <trkpt lat="46.35562" lon="5.29638">
        <ele>250.39999389648</ele>
        <time>2020-07-31T05:30:09.000Z</time>
      </trkpt>
      <trkpt lat="46.35555" lon="5.29639">
        <ele>250.39999389648</ele>
        <time>2020-07-31T05:30:10.000Z</time>
      </trkpt>
      <trkpt lat="46.35541" lon="5.29642">
        <ele>250.39999389648</ele>
        <time>2020-07-31T05:30:12.000Z</time>
      </trkpt>
      <trkpt lat="46.35527" lon="5.29645">
        <ele>250.39999389648</ele>
        <time>2020-07-31T05:30:14.000Z</time>
      </trkpt>
      <trkpt lat="46.35513" lon="5.29648">
        <ele>250.39999389648</ele>
        <time>2020-07-31T05:30:16.000Z</time>
      </trkpt>
      <trkpt lat="46.35505" lon="5.2965">
        <ele>250.39999389648</ele>
        <time>2020-07-31T05:30:17.000Z</time>
      </trkpt>
      <trkpt lat="46.35493" lon="5.29661">
        <ele>250.39999389648</ele>
        <time>2020-07-31T05:30:19.000Z</time>
      </trkpt>
      <trkpt lat="46.35489" lon="5.29669">
        <ele>250.39999389648</ele>
        <time>2020-07-31T05:30:20.000Z</time>
      </trkpt>
      <trkpt lat="46.35485" lon="5.29677">
        <ele>250.19999694824</ele>
        <time>2020-07-31T05:30:21.000Z</time>
      </trkpt>
      <trkpt lat="46.3548" lon="5.29684">
        <ele>249.80000305176</ele>
        <time>2020-07-31T05:30:22.000Z</time>
      </trkpt>
      <trkpt lat="46.35475" lon="5.2969">
        <ele>249.60000610352</ele>
        <time>2020-07-31T05:30:23.000Z</time>
      </trkpt>
      <trkpt lat="46.35463" lon="5.29693">
        <ele>249.39999389648</ele>
        <time>2020-07-31T05:30:25.000Z</time>
      </trkpt>
      <trkpt lat="46.35457" lon="5.29692">
        <ele>249.39999389648</ele>
        <time>2020-07-31T05:30:26.000Z</time>
      </trkpt>
      <trkpt lat="46.35451" lon="5.29691">
        <ele>249.39999389648</ele>
        <time>2020-07-31T05:30:27.000Z</time>
      </trkpt>
      <trkpt lat="46.35438" lon="5.29687">
        <ele>249.39999389648</ele>
        <time>2020-07-31T05:30:29.000Z</time>
      </trkpt>
      <trkpt lat="46.35426" lon="5.29683">
        <ele>249.39999389648</ele>
        <time>2020-07-31T05:30:31.000Z</time>
      </trkpt>
      <trkpt lat="46.35406" lon="5.29677">
        <ele>249.60000610352</ele>
        <time>2020-07-31T05:30:34.000Z</time>
      </trkpt>
      <trkpt lat="46.35399" lon="5.29675">
        <ele>249.80000305176</ele>
        <time>2020-07-31T05:30:35.000Z</time>
      </trkpt>
      <trkpt lat="46.35386" lon="5.2967">
        <ele>250.19999694824</ele>
        <time>2020-07-31T05:30:37.000Z</time>
      </trkpt>
      <trkpt lat="46.35373" lon="5.29666">
        <ele>250.39999389648</ele>
        <time>2020-07-31T05:30:39.000Z</time>
      </trkpt>
      <trkpt lat="46.3536" lon="5.29662">
        <ele>250.60000610352</ele>
        <time>2020-07-31T05:30:41.000Z</time>
      </trkpt>
      <trkpt lat="46.35347" lon="5.29659">
        <ele>250.60000610352</ele>
        <time>2020-07-31T05:30:43.000Z</time>
      </trkpt>
      <trkpt lat="46.35334" lon="5.29655">
        <ele>250.60000610352</ele>
        <time>2020-07-31T05:30:45.000Z</time>
      </trkpt>
      <trkpt lat="46.35321" lon="5.29651">
        <ele>250.60000610352</ele>
        <time>2020-07-31T05:30:47.000Z</time>
      </trkpt>
      <trkpt lat="46.35302" lon="5.29647">
        <ele>250.60000610352</ele>
        <time>2020-07-31T05:30:50.000Z</time>
      </trkpt>
      <trkpt lat="46.35288" lon="5.29645">
        <ele>250.39999389648</ele>
        <time>2020-07-31T05:30:52.000Z</time>
      </trkpt>
      <trkpt lat="46.35282" lon="5.29644">
        <ele>250.39999389648</ele>
        <time>2020-07-31T05:30:53.000Z</time>
      </trkpt>
      <trkpt lat="46.35275" lon="5.29644">
        <ele>250.39999389648</ele>
        <time>2020-07-31T05:30:54.000Z</time>
      </trkpt>
      <trkpt lat="46.35254" lon="5.29643">
        <ele>250.39999389648</ele>
        <time>2020-07-31T05:30:57.000Z</time>
      </trkpt>
      <trkpt lat="46.3524" lon="5.29643">
        <ele>250.39999389648</ele>
        <time>2020-07-31T05:30:59.000Z</time>
      </trkpt>
      <trkpt lat="46.35226" lon="5.29644">
        <ele>250.39999389648</ele>
        <time>2020-07-31T05:31:01.000Z</time>
      </trkpt>
      <trkpt lat="46.35219" lon="5.29645">
        <ele>250.19999694824</ele>
        <time>2020-07-31T05:31:02.000Z</time>
      </trkpt>
      <trkpt lat="46.35212" lon="5.29646">
        <ele>250</ele>
        <time>2020-07-31T05:31:03.000Z</time>
      </trkpt>
      <trkpt lat="46.35198" lon="5.29649">
        <ele>249.80000305176</ele>
        <time>2020-07-31T05:31:05.000Z</time>
      </trkpt>
      <trkpt lat="46.35176" lon="5.29653">
        <ele>249.60000610352</ele>
        <time>2020-07-31T05:31:08.000Z</time>
      </trkpt>
      <trkpt lat="46.35168" lon="5.29654">
        <ele>249.60000610352</ele>
        <time>2020-07-31T05:31:09.000Z</time>
      </trkpt>
      <trkpt lat="46.3516" lon="5.29655">
        <ele>249.60000610352</ele>
        <time>2020-07-31T05:31:10.000Z</time>
      </trkpt>
      <trkpt lat="46.35144" lon="5.29657">
        <ele>249.39999389648</ele>
        <time>2020-07-31T05:31:12.000Z</time>
      </trkpt>
      <trkpt lat="46.35127" lon="5.29659">
        <ele>249.19999694824</ele>
        <time>2020-07-31T05:31:14.000Z</time>
      </trkpt>
      <trkpt lat="46.35119" lon="5.2966">
        <ele>249</ele>
        <time>2020-07-31T05:31:15.000Z</time>
      </trkpt>
      <trkpt lat="46.3511" lon="5.29661">
        <ele>248.80000305176</ele>
        <time>2020-07-31T05:31:16.000Z</time>
      </trkpt>
      <trkpt lat="46.35102" lon="5.29661">
        <ele>248.39999389648</ele>
        <time>2020-07-31T05:31:17.000Z</time>
      </trkpt>
      <trkpt lat="46.35094" lon="5.29662">
        <ele>247.80000305176</ele>
        <time>2020-07-31T05:31:18.000Z</time>
      </trkpt>
      <trkpt lat="46.35078" lon="5.2966">
        <ele>246.80000305176</ele>
        <time>2020-07-31T05:31:20.000Z</time>
      </trkpt>
      <trkpt lat="46.3507" lon="5.29658">
        <ele>246.39999389648</ele>
        <time>2020-07-31T05:31:21.000Z</time>
      </trkpt>
      <trkpt lat="46.35063" lon="5.29656">
        <ele>246.19999694824</ele>
        <time>2020-07-31T05:31:22.000Z</time>
      </trkpt>
      <trkpt lat="46.35055" lon="5.29652">
        <ele>246.19999694824</ele>
        <time>2020-07-31T05:31:23.000Z</time>
      </trkpt>
      <trkpt lat="46.35049" lon="5.29649">
        <ele>246.19999694824</ele>
        <time>2020-07-31T05:31:24.000Z</time>
      </trkpt>
      <trkpt lat="46.35036" lon="5.29641">
        <ele>246.19999694824</ele>
        <time>2020-07-31T05:31:26.000Z</time>
      </trkpt>
      <trkpt lat="46.35029" lon="5.29638">
        <ele>246.19999694824</ele>
        <time>2020-07-31T05:31:27.000Z</time>
      </trkpt>
      <trkpt lat="46.35016" lon="5.29636">
        <ele>246.19999694824</ele>
        <time>2020-07-31T05:31:29.000Z</time>
      </trkpt>
      <trkpt lat="46.3501" lon="5.29635">
        <ele>246.19999694824</ele>
        <time>2020-07-31T05:31:30.000Z</time>
      </trkpt>
      <trkpt lat="46.35004" lon="5.29634">
        <ele>246.19999694824</ele>
        <time>2020-07-31T05:31:31.000Z</time>
      </trkpt>
      <trkpt lat="46.34986" lon="5.29633">
        <ele>247.19999694824</ele>
        <time>2020-07-31T05:31:34.000Z</time>
      </trkpt>
      <trkpt lat="46.34974" lon="5.29634">
        <ele>248</ele>
        <time>2020-07-31T05:31:36.000Z</time>
      </trkpt>
      <trkpt lat="46.34968" lon="5.29637">
        <ele>248.39999389648</ele>
        <time>2020-07-31T05:31:37.000Z</time>
      </trkpt>
      <trkpt lat="46.34951" lon="5.2965">
        <ele>249.19999694824</ele>
        <time>2020-07-31T05:31:40.000Z</time>
      </trkpt>
      <trkpt lat="46.34945" lon="5.29656">
        <ele>249.39999389648</ele>
        <time>2020-07-31T05:31:41.000Z</time>
      </trkpt>
      <trkpt lat="46.34939" lon="5.29662">
        <ele>249.60000610352</ele>
        <time>2020-07-31T05:31:42.000Z</time>
      </trkpt>
      <trkpt lat="46.34925" lon="5.29665">
        <ele>249.80000305176</ele>
        <time>2020-07-31T05:31:44.000Z</time>
      </trkpt>
      <trkpt lat="46.34918" lon="5.29664">
        <ele>249.80000305176</ele>
        <time>2020-07-31T05:31:45.000Z</time>
      </trkpt>
      <trkpt lat="46.34905" lon="5.29657">
        <ele>250</ele>
        <time>2020-07-31T05:31:47.000Z</time>
      </trkpt>
      <trkpt lat="46.34888" lon="5.29644">
        <ele>249.80000305176</ele>
        <time>2020-07-31T05:31:50.000Z</time>
      </trkpt>
      <trkpt lat="46.34882" lon="5.2964">
        <ele>250</ele>
        <time>2020-07-31T05:31:51.000Z</time>
      </trkpt>
      <trkpt lat="46.3487" lon="5.29632">
        <ele>250</ele>
        <time>2020-07-31T05:31:53.000Z</time>
      </trkpt>
      <trkpt lat="46.34864" lon="5.29629">
        <ele>249.80000305176</ele>
        <time>2020-07-31T05:31:54.000Z</time>
      </trkpt>
      <trkpt lat="46.34857" lon="5.29626">
        <ele>250</ele>
        <time>2020-07-31T05:31:55.000Z</time>
      </trkpt>
      <trkpt lat="46.34845" lon="5.2962">
        <ele>249.80000305176</ele>
        <time>2020-07-31T05:31:57.000Z</time>
      </trkpt>
      <trkpt lat="46.34832" lon="5.29616">
        <ele>250</ele>
        <time>2020-07-31T05:31:59.000Z</time>
      </trkpt>
      <trkpt lat="46.34819" lon="5.29614">
        <ele>250</ele>
        <time>2020-07-31T05:32:01.000Z</time>
      </trkpt>
      <trkpt lat="46.34806" lon="5.29614">
        <ele>250</ele>
        <time>2020-07-31T05:32:03.000Z</time>
      </trkpt>
      <trkpt lat="46.34793" lon="5.29614">
        <ele>250</ele>
        <time>2020-07-31T05:32:05.000Z</time>
      </trkpt>
      <trkpt lat="46.34779" lon="5.29615">
        <ele>250</ele>
        <time>2020-07-31T05:32:07.000Z</time>
      </trkpt>
      <trkpt lat="46.34772" lon="5.29616">
        <ele>250</ele>
        <time>2020-07-31T05:32:08.000Z</time>
      </trkpt>
      <trkpt lat="46.34765" lon="5.29618">
        <ele>250</ele>
        <time>2020-07-31T05:32:09.000Z</time>
      </trkpt>
      <trkpt lat="46.3475" lon="5.29622">
        <ele>249.80000305176</ele>
        <time>2020-07-31T05:32:11.000Z</time>
      </trkpt>
      <trkpt lat="46.34743" lon="5.29626">
        <ele>249.80000305176</ele>
        <time>2020-07-31T05:32:12.000Z</time>
      </trkpt>
      <trkpt lat="46.34736" lon="5.2963">
        <ele>249.80000305176</ele>
        <time>2020-07-31T05:32:13.000Z</time>
      </trkpt>
      <trkpt lat="46.34729" lon="5.29635">
        <ele>249.80000305176</ele>
        <time>2020-07-31T05:32:14.000Z</time>
      </trkpt>
      <trkpt lat="46.34714" lon="5.29643">
        <ele>250</ele>
        <time>2020-07-31T05:32:16.000Z</time>
      </trkpt>
      <trkpt lat="46.34706" lon="5.29644">
        <ele>249.80000305176</ele>
        <time>2020-07-31T05:32:17.000Z</time>
      </trkpt>
      <trkpt lat="46.34698" lon="5.29643">
        <ele>249.39999389648</ele>
        <time>2020-07-31T05:32:18.000Z</time>
      </trkpt>
      <trkpt lat="46.3469" lon="5.29642">
        <ele>249.19999694824</ele>
        <time>2020-07-31T05:32:19.000Z</time>
      </trkpt>
      <trkpt lat="46.34674" lon="5.29638">
        <ele>248.80000305176</ele>
        <time>2020-07-31T05:32:21.000Z</time>
      </trkpt>
      <trkpt lat="46.34658" lon="5.29636">
        <ele>248.19999694824</ele>
        <time>2020-07-31T05:32:23.000Z</time>
      </trkpt>
      <trkpt lat="46.3465" lon="5.29635">
        <ele>248</ele>
        <time>2020-07-31T05:32:24.000Z</time>
      </trkpt>
      <trkpt lat="46.34642" lon="5.29634">
        <ele>247.80000305176</ele>
        <time>2020-07-31T05:32:25.000Z</time>
      </trkpt>
      <trkpt lat="46.34627" lon="5.29629">
        <ele>247.39999389648</ele>
        <time>2020-07-31T05:32:27.000Z</time>
      </trkpt>
      <trkpt lat="46.34611" lon="5.29626">
        <ele>247.19999694824</ele>
        <time>2020-07-31T05:32:29.000Z</time>
      </trkpt>
      <trkpt lat="46.34596" lon="5.29622">
        <ele>247</ele>
        <time>2020-07-31T05:32:31.000Z</time>
      </trkpt>
      <trkpt lat="46.34572" lon="5.29618">
        <ele>246.80000305176</ele>
        <time>2020-07-31T05:32:34.000Z</time>
      </trkpt>
      <trkpt lat="46.34557" lon="5.29616">
        <ele>246.60000610352</ele>
        <time>2020-07-31T05:32:36.000Z</time>
      </trkpt>
      <trkpt lat="46.34542" lon="5.29613">
        <ele>246.39999389648</ele>
        <time>2020-07-31T05:32:38.000Z</time>
      </trkpt>
      <trkpt lat="46.34528" lon="5.29611">
        <ele>246.39999389648</ele>
        <time>2020-07-31T05:32:40.000Z</time>
      </trkpt>
      <trkpt lat="46.34521" lon="5.29609">
        <ele>246.39999389648</ele>
        <time>2020-07-31T05:32:41.000Z</time>
      </trkpt>
      <trkpt lat="46.34514" lon="5.29608">
        <ele>246.39999389648</ele>
        <time>2020-07-31T05:32:42.000Z</time>
      </trkpt>
      <trkpt lat="46.345" lon="5.29605">
        <ele>246.19999694824</ele>
        <time>2020-07-31T05:32:44.000Z</time>
      </trkpt>
      <trkpt lat="46.34487" lon="5.29603">
        <ele>246.19999694824</ele>
        <time>2020-07-31T05:32:46.000Z</time>
      </trkpt>
      <trkpt lat="46.34473" lon="5.29599">
        <ele>246.19999694824</ele>
        <time>2020-07-31T05:32:48.000Z</time>
      </trkpt>
      <trkpt lat="46.34467" lon="5.29596">
        <ele>246.39999389648</ele>
        <time>2020-07-31T05:32:49.000Z</time>
      </trkpt>
      <trkpt lat="46.34459" lon="5.29582">
        <ele>247</ele>
        <time>2020-07-31T05:32:51.000Z</time>
      </trkpt>
      <trkpt lat="46.34457" lon="5.29574">
        <ele>247</ele>
        <time>2020-07-31T05:32:52.000Z</time>
      </trkpt>
      <trkpt lat="46.34457" lon="5.29565">
        <ele>247.19999694824</ele>
        <time>2020-07-31T05:32:53.000Z</time>
      </trkpt>
      <trkpt lat="46.34458" lon="5.29549">
        <ele>247.39999389648</ele>
        <time>2020-07-31T05:32:55.000Z</time>
      </trkpt>
      <trkpt lat="46.34459" lon="5.29542">
        <ele>247.39999389648</ele>
        <time>2020-07-31T05:32:56.000Z</time>
      </trkpt>
      <trkpt lat="46.34462" lon="5.29526">
        <ele>247.60000610352</ele>
        <time>2020-07-31T05:32:58.000Z</time>
      </trkpt>
      <trkpt lat="46.34465" lon="5.29511">
        <ele>247.80000305176</ele>
        <time>2020-07-31T05:33:00.000Z</time>
      </trkpt>
      <trkpt lat="46.34467" lon="5.29495">
        <ele>248.60000610352</ele>
        <time>2020-07-31T05:33:02.000Z</time>
      </trkpt>
      <trkpt lat="46.34469" lon="5.29479">
        <ele>249.39999389648</ele>
        <time>2020-07-31T05:33:04.000Z</time>
      </trkpt>
      <trkpt lat="46.3447" lon="5.29471">
        <ele>249.80000305176</ele>
        <time>2020-07-31T05:33:05.000Z</time>
      </trkpt>
      <trkpt lat="46.34467" lon="5.29455">
        <ele>250</ele>
        <time>2020-07-31T05:33:07.000Z</time>
      </trkpt>
      <trkpt lat="46.34464" lon="5.29448">
        <ele>250.19999694824</ele>
        <time>2020-07-31T05:33:08.000Z</time>
      </trkpt>
      <trkpt lat="46.34458" lon="5.29435">
        <ele>250.60000610352</ele>
        <time>2020-07-31T05:33:10.000Z</time>
      </trkpt>
      <trkpt lat="46.34454" lon="5.29429">
        <ele>250.80000305176</ele>
        <time>2020-07-31T05:33:11.000Z</time>
      </trkpt>
      <trkpt lat="46.3445" lon="5.29423">
        <ele>250.80000305176</ele>
        <time>2020-07-31T05:33:12.000Z</time>
      </trkpt>
      <trkpt lat="46.34447" lon="5.29416">
        <ele>251</ele>
        <time>2020-07-31T05:33:13.000Z</time>
      </trkpt>
      <trkpt lat="46.34439" lon="5.29403">
        <ele>251.19999694824</ele>
        <time>2020-07-31T05:33:15.000Z</time>
      </trkpt>
      <trkpt lat="46.34433" lon="5.29388">
        <ele>251.19999694824</ele>
        <time>2020-07-31T05:33:17.000Z</time>
      </trkpt>
      <trkpt lat="46.34427" lon="5.29373">
        <ele>251.39999389648</ele>
        <time>2020-07-31T05:33:19.000Z</time>
      </trkpt>
      <trkpt lat="46.34418" lon="5.29359">
        <ele>251.19999694824</ele>
        <time>2020-07-31T05:33:21.000Z</time>
      </trkpt>
      <trkpt lat="46.34407" lon="5.29347">
        <ele>251.19999694824</ele>
        <time>2020-07-31T05:33:23.000Z</time>
      </trkpt>
      <trkpt lat="46.34395" lon="5.29338">
        <ele>251</ele>
        <time>2020-07-31T05:33:25.000Z</time>
      </trkpt>
      <trkpt lat="46.34381" lon="5.29333">
        <ele>251</ele>
        <time>2020-07-31T05:33:27.000Z</time>
      </trkpt>
      <trkpt lat="46.34367" lon="5.29329">
        <ele>250.80000305176</ele>
        <time>2020-07-31T05:33:29.000Z</time>
      </trkpt>
      <trkpt lat="46.34353" lon="5.29322">
        <ele>250.80000305176</ele>
        <time>2020-07-31T05:33:31.000Z</time>
      </trkpt>
      <trkpt lat="46.34346" lon="5.29317">
        <ele>250.80000305176</ele>
        <time>2020-07-31T05:33:32.000Z</time>
      </trkpt>
      <trkpt lat="46.34339" lon="5.29312">
        <ele>250.60000610352</ele>
        <time>2020-07-31T05:33:33.000Z</time>
      </trkpt>
      <trkpt lat="46.34326" lon="5.29302">
        <ele>250.19999694824</ele>
        <time>2020-07-31T05:33:35.000Z</time>
      </trkpt>
      <trkpt lat="46.34312" lon="5.29295">
        <ele>250</ele>
        <time>2020-07-31T05:33:37.000Z</time>
      </trkpt>
      <trkpt lat="46.34305" lon="5.29293">
        <ele>249.80000305176</ele>
        <time>2020-07-31T05:33:38.000Z</time>
      </trkpt>
      <trkpt lat="46.34298" lon="5.29291">
        <ele>249.60000610352</ele>
        <time>2020-07-31T05:33:39.000Z</time>
      </trkpt>
      <trkpt lat="46.34283" lon="5.29287">
        <ele>249.39999389648</ele>
        <time>2020-07-31T05:33:41.000Z</time>
      </trkpt>
      <trkpt lat="46.34268" lon="5.29283">
        <ele>249</ele>
        <time>2020-07-31T05:33:43.000Z</time>
      </trkpt>
      <trkpt lat="46.34253" lon="5.29279">
        <ele>248.80000305176</ele>
        <time>2020-07-31T05:33:45.000Z</time>
      </trkpt>
      <trkpt lat="46.34245" lon="5.29277">
        <ele>248.80000305176</ele>
        <time>2020-07-31T05:33:46.000Z</time>
      </trkpt>
      <trkpt lat="46.34238" lon="5.29275">
        <ele>248.80000305176</ele>
        <time>2020-07-31T05:33:47.000Z</time>
      </trkpt>
      <trkpt lat="46.34224" lon="5.2927">
        <ele>248.60000610352</ele>
        <time>2020-07-31T05:33:49.000Z</time>
      </trkpt>
      <trkpt lat="46.34217" lon="5.29267">
        <ele>248.60000610352</ele>
        <time>2020-07-31T05:33:50.000Z</time>
      </trkpt>
      <trkpt lat="46.3421" lon="5.29263">
        <ele>248.60000610352</ele>
        <time>2020-07-31T05:33:51.000Z</time>
      </trkpt>
      <trkpt lat="46.34196" lon="5.29258">
        <ele>248.60000610352</ele>
        <time>2020-07-31T05:33:53.000Z</time>
      </trkpt>
      <trkpt lat="46.34172" lon="5.29261">
        <ele>248.39999389648</ele>
        <time>2020-07-31T05:33:56.000Z</time>
      </trkpt>
      <trkpt lat="46.34163" lon="5.29262">
        <ele>248.39999389648</ele>
        <time>2020-07-31T05:33:57.000Z</time>
      </trkpt>
      <trkpt lat="46.34147" lon="5.29264">
        <ele>248.19999694824</ele>
        <time>2020-07-31T05:33:59.000Z</time>
      </trkpt>
      <trkpt lat="46.34131" lon="5.29266">
        <ele>248</ele>
        <time>2020-07-31T05:34:01.000Z</time>
      </trkpt>
      <trkpt lat="46.34123" lon="5.29268">
        <ele>247.80000305176</ele>
        <time>2020-07-31T05:34:02.000Z</time>
      </trkpt>
      <trkpt lat="46.34116" lon="5.29272">
        <ele>247.60000610352</ele>
        <time>2020-07-31T05:34:03.000Z</time>
      </trkpt>
      <trkpt lat="46.34108" lon="5.29276">
        <ele>247.39999389648</ele>
        <time>2020-07-31T05:34:04.000Z</time>
      </trkpt>
      <trkpt lat="46.34096" lon="5.2929">
        <ele>247.39999389648</ele>
        <time>2020-07-31T05:34:06.000Z</time>
      </trkpt>
      <trkpt lat="46.34088" lon="5.29308">
        <ele>247.19999694824</ele>
        <time>2020-07-31T05:34:08.000Z</time>
      </trkpt>
      <trkpt lat="46.34084" lon="5.29318">
        <ele>247.19999694824</ele>
        <time>2020-07-31T05:34:09.000Z</time>
      </trkpt>
      <trkpt lat="46.34079" lon="5.29327">
        <ele>247.19999694824</ele>
        <time>2020-07-31T05:34:10.000Z</time>
      </trkpt>
      <trkpt lat="46.34075" lon="5.29337">
        <ele>247.19999694824</ele>
        <time>2020-07-31T05:34:11.000Z</time>
      </trkpt>
      <trkpt lat="46.3407" lon="5.29345">
        <ele>247.19999694824</ele>
        <time>2020-07-31T05:34:12.000Z</time>
      </trkpt>
      <trkpt lat="46.34058" lon="5.29359">
        <ele>247.19999694824</ele>
        <time>2020-07-31T05:34:14.000Z</time>
      </trkpt>
      <trkpt lat="46.3404" lon="5.29371">
        <ele>247.19999694824</ele>
        <time>2020-07-31T05:34:17.000Z</time>
      </trkpt>
      <trkpt lat="46.34033" lon="5.29373">
        <ele>247.19999694824</ele>
        <time>2020-07-31T05:34:18.000Z</time>
      </trkpt>
      <trkpt lat="46.34027" lon="5.29375">
        <ele>247.19999694824</ele>
        <time>2020-07-31T05:34:19.000Z</time>
      </trkpt>
      <trkpt lat="46.34014" lon="5.29381">
        <ele>247.19999694824</ele>
        <time>2020-07-31T05:34:21.000Z</time>
      </trkpt>
      <trkpt lat="46.34003" lon="5.29389">
        <ele>247.19999694824</ele>
        <time>2020-07-31T05:34:23.000Z</time>
      </trkpt>
      <trkpt lat="46.33998" lon="5.29394">
        <ele>247.60000610352</ele>
        <time>2020-07-31T05:34:24.000Z</time>
      </trkpt>
      <trkpt lat="46.33993" lon="5.29399">
        <ele>248</ele>
        <time>2020-07-31T05:34:25.000Z</time>
      </trkpt>
      <trkpt lat="46.33984" lon="5.2941">
        <ele>248.39999389648</ele>
        <time>2020-07-31T05:34:27.000Z</time>
      </trkpt>
      <trkpt lat="46.3398" lon="5.29416">
        <ele>248.60000610352</ele>
        <time>2020-07-31T05:34:28.000Z</time>
      </trkpt>
      <trkpt lat="46.33976" lon="5.29423">
        <ele>249</ele>
        <time>2020-07-31T05:34:29.000Z</time>
      </trkpt>
      <trkpt lat="46.33972" lon="5.29429">
        <ele>249.19999694824</ele>
        <time>2020-07-31T05:34:30.000Z</time>
      </trkpt>
      <trkpt lat="46.33969" lon="5.29436">
        <ele>249.60000610352</ele>
        <time>2020-07-31T05:34:31.000Z</time>
      </trkpt>
      <trkpt lat="46.33966" lon="5.29443">
        <ele>249.80000305176</ele>
        <time>2020-07-31T05:34:32.000Z</time>
      </trkpt>
      <trkpt lat="46.33963" lon="5.2945">
        <ele>250</ele>
        <time>2020-07-31T05:34:33.000Z</time>
      </trkpt>
      <trkpt lat="46.33959" lon="5.29465">
        <ele>250.60000610352</ele>
        <time>2020-07-31T05:34:35.000Z</time>
      </trkpt>
      <trkpt lat="46.33955" lon="5.2948">
        <ele>251</ele>
        <time>2020-07-31T05:34:37.000Z</time>
      </trkpt>
      <trkpt lat="46.33949" lon="5.29496">
        <ele>251.19999694824</ele>
        <time>2020-07-31T05:34:39.000Z</time>
      </trkpt>
      <trkpt lat="46.33945" lon="5.29503">
        <ele>251.19999694824</ele>
        <time>2020-07-31T05:34:40.000Z</time>
      </trkpt>
      <trkpt lat="46.33939" lon="5.29508">
        <ele>251.39999389648</ele>
        <time>2020-07-31T05:34:41.000Z</time>
      </trkpt>
      <trkpt lat="46.33927" lon="5.29513">
        <ele>251.39999389648</ele>
        <time>2020-07-31T05:34:43.000Z</time>
      </trkpt>
      <trkpt lat="46.3392" lon="5.29515">
        <ele>251.39999389648</ele>
        <time>2020-07-31T05:34:44.000Z</time>
      </trkpt>
      <trkpt lat="46.33913" lon="5.29515">
        <ele>251.39999389648</ele>
        <time>2020-07-31T05:34:45.000Z</time>
      </trkpt>
      <trkpt lat="46.339" lon="5.29516">
        <ele>251.39999389648</ele>
        <time>2020-07-31T05:34:47.000Z</time>
      </trkpt>
      <trkpt lat="46.33886" lon="5.29516">
        <ele>251.39999389648</ele>
        <time>2020-07-31T05:34:49.000Z</time>
      </trkpt>
      <trkpt lat="46.33879" lon="5.29516">
        <ele>251.19999694824</ele>
        <time>2020-07-31T05:34:50.000Z</time>
      </trkpt>
      <trkpt lat="46.33873" lon="5.29516">
        <ele>251.19999694824</ele>
        <time>2020-07-31T05:34:51.000Z</time>
      </trkpt>
      <trkpt lat="46.33859" lon="5.29516">
        <ele>251</ele>
        <time>2020-07-31T05:34:53.000Z</time>
      </trkpt>
      <trkpt lat="46.33846" lon="5.29516">
        <ele>250.80000305176</ele>
        <time>2020-07-31T05:34:55.000Z</time>
      </trkpt>
      <trkpt lat="46.33833" lon="5.29517">
        <ele>250.80000305176</ele>
        <time>2020-07-31T05:34:57.000Z</time>
      </trkpt>
      <trkpt lat="46.3382" lon="5.29517">
        <ele>250.60000610352</ele>
        <time>2020-07-31T05:34:59.000Z</time>
      </trkpt>
      <trkpt lat="46.33813" lon="5.29516">
        <ele>250.60000610352</ele>
        <time>2020-07-31T05:35:00.000Z</time>
      </trkpt>
      <trkpt lat="46.33807" lon="5.29514">
        <ele>250.60000610352</ele>
        <time>2020-07-31T05:35:01.000Z</time>
      </trkpt>
      <trkpt lat="46.33794" lon="5.29508">
        <ele>250.60000610352</ele>
        <time>2020-07-31T05:35:03.000Z</time>
      </trkpt>
      <trkpt lat="46.33789" lon="5.29504">
        <ele>250.60000610352</ele>
        <time>2020-07-31T05:35:04.000Z</time>
      </trkpt>
      <trkpt lat="46.33783" lon="5.295">
        <ele>250.60000610352</ele>
        <time>2020-07-31T05:35:05.000Z</time>
      </trkpt>
      <trkpt lat="46.33772" lon="5.29491">
        <ele>250.60000610352</ele>
        <time>2020-07-31T05:35:07.000Z</time>
      </trkpt>
      <trkpt lat="46.33761" lon="5.2948">
        <ele>250.60000610352</ele>
        <time>2020-07-31T05:35:09.000Z</time>
      </trkpt>
      <trkpt lat="46.3375" lon="5.29469">
        <ele>250.80000305176</ele>
        <time>2020-07-31T05:35:11.000Z</time>
      </trkpt>
      <trkpt lat="46.3374" lon="5.29457">
        <ele>250.80000305176</ele>
        <time>2020-07-31T05:35:13.000Z</time>
      </trkpt>
      <trkpt lat="46.3373" lon="5.29444">
        <ele>251</ele>
        <time>2020-07-31T05:35:15.000Z</time>
      </trkpt>
      <trkpt lat="46.3372" lon="5.29432">
        <ele>251</ele>
        <time>2020-07-31T05:35:17.000Z</time>
      </trkpt>
      <trkpt lat="46.33711" lon="5.29419">
        <ele>251</ele>
        <time>2020-07-31T05:35:19.000Z</time>
      </trkpt>
      <trkpt lat="46.33703" lon="5.29406">
        <ele>251.19999694824</ele>
        <time>2020-07-31T05:35:21.000Z</time>
      </trkpt>
      <trkpt lat="46.33694" lon="5.29393">
        <ele>251.19999694824</ele>
        <time>2020-07-31T05:35:23.000Z</time>
      </trkpt>
      <trkpt lat="46.33685" lon="5.29381">
        <ele>251.19999694824</ele>
        <time>2020-07-31T05:35:25.000Z</time>
      </trkpt>
      <trkpt lat="46.33675" lon="5.29371">
        <ele>251.39999389648</ele>
        <time>2020-07-31T05:35:27.000Z</time>
      </trkpt>
      <trkpt lat="46.33663" lon="5.29365">
        <ele>251.60000610352</ele>
        <time>2020-07-31T05:35:29.000Z</time>
      </trkpt>
      <trkpt lat="46.3365" lon="5.29363">
        <ele>251.80000305176</ele>
        <time>2020-07-31T05:35:31.000Z</time>
      </trkpt>
      <trkpt lat="46.33637" lon="5.29364">
        <ele>251.80000305176</ele>
        <time>2020-07-31T05:35:33.000Z</time>
      </trkpt>
      <trkpt lat="46.33631" lon="5.29366">
        <ele>251.80000305176</ele>
        <time>2020-07-31T05:35:34.000Z</time>
      </trkpt>
      <trkpt lat="46.33624" lon="5.29368">
        <ele>251.80000305176</ele>
        <time>2020-07-31T05:35:35.000Z</time>
      </trkpt>
      <trkpt lat="46.33618" lon="5.2937">
        <ele>251.80000305176</ele>
        <time>2020-07-31T05:35:36.000Z</time>
      </trkpt>
      <trkpt lat="46.33612" lon="5.29371">
        <ele>251.80000305176</ele>
        <time>2020-07-31T05:35:37.000Z</time>
      </trkpt>
      <trkpt lat="46.33606" lon="5.29371">
        <ele>252</ele>
        <time>2020-07-31T05:35:38.000Z</time>
      </trkpt>
      <trkpt lat="46.336" lon="5.2937">
        <ele>252</ele>
        <time>2020-07-31T05:35:39.000Z</time>
      </trkpt>
      <trkpt lat="46.33588" lon="5.29368">
        <ele>252</ele>
        <time>2020-07-31T05:35:41.000Z</time>
      </trkpt>
      <trkpt lat="46.33577" lon="5.29366">
        <ele>252</ele>
        <time>2020-07-31T05:35:43.000Z</time>
      </trkpt>
      <trkpt lat="46.33565" lon="5.29363">
        <ele>252.19999694824</ele>
        <time>2020-07-31T05:35:45.000Z</time>
      </trkpt>
      <trkpt lat="46.33553" lon="5.29359">
        <ele>252.39999389648</ele>
        <time>2020-07-31T05:35:47.000Z</time>
      </trkpt>
      <trkpt lat="46.33541" lon="5.29354">
        <ele>252.80000305176</ele>
        <time>2020-07-31T05:35:49.000Z</time>
      </trkpt>
      <trkpt lat="46.33535" lon="5.29352">
        <ele>253</ele>
        <time>2020-07-31T05:35:50.000Z</time>
      </trkpt>
      <trkpt lat="46.33528" lon="5.2935">
        <ele>253</ele>
        <time>2020-07-31T05:35:51.000Z</time>
      </trkpt>
      <trkpt lat="46.33516" lon="5.29345">
        <ele>253</ele>
        <time>2020-07-31T05:35:53.000Z</time>
      </trkpt>
      <trkpt lat="46.33503" lon="5.29341">
        <ele>253</ele>
        <time>2020-07-31T05:35:55.000Z</time>
      </trkpt>
      <trkpt lat="46.3349" lon="5.29335">
        <ele>253</ele>
        <time>2020-07-31T05:35:57.000Z</time>
      </trkpt>
      <trkpt lat="46.33478" lon="5.29329">
        <ele>253</ele>
        <time>2020-07-31T05:35:59.000Z</time>
      </trkpt>
      <trkpt lat="46.33471" lon="5.29326">
        <ele>253</ele>
        <time>2020-07-31T05:36:00.000Z</time>
      </trkpt>
      <trkpt lat="46.33465" lon="5.29322">
        <ele>253</ele>
        <time>2020-07-31T05:36:01.000Z</time>
      </trkpt>
      <trkpt lat="46.33459" lon="5.29319">
        <ele>253</ele>
        <time>2020-07-31T05:36:02.000Z</time>
      </trkpt>
      <trkpt lat="46.33453" lon="5.29314">
        <ele>253</ele>
        <time>2020-07-31T05:36:03.000Z</time>
      </trkpt>
      <trkpt lat="46.33441" lon="5.29304">
        <ele>253</ele>
        <time>2020-07-31T05:36:05.000Z</time>
      </trkpt>
      <trkpt lat="46.33435" lon="5.29298">
        <ele>253</ele>
        <time>2020-07-31T05:36:06.000Z</time>
      </trkpt>
      <trkpt lat="46.3343" lon="5.29292">
        <ele>252.80000305176</ele>
        <time>2020-07-31T05:36:07.000Z</time>
      </trkpt>
      <trkpt lat="46.33424" lon="5.29279">
        <ele>252.60000610352</ele>
        <time>2020-07-31T05:36:09.000Z</time>
      </trkpt>
      <trkpt lat="46.33425" lon="5.29266">
        <ele>252.60000610352</ele>
        <time>2020-07-31T05:36:11.000Z</time>
      </trkpt>
      <trkpt lat="46.33426" lon="5.2926">
        <ele>252.60000610352</ele>
        <time>2020-07-31T05:36:12.000Z</time>
      </trkpt>
      <trkpt lat="46.33428" lon="5.29255">
        <ele>252.60000610352</ele>
        <time>2020-07-31T05:36:13.000Z</time>
      </trkpt>
      <trkpt lat="46.3343" lon="5.29251">
        <ele>252.60000610352</ele>
        <time>2020-07-31T05:36:14.000Z</time>
      </trkpt>
      <trkpt lat="46.33432" lon="5.29246">
        <ele>252.60000610352</ele>
        <time>2020-07-31T05:36:15.000Z</time>
      </trkpt>
      <trkpt lat="46.33437" lon="5.29239">
        <ele>252.60000610352</ele>
        <time>2020-07-31T05:36:17.000Z</time>
      </trkpt>
      <trkpt lat="46.33439" lon="5.29231">
        <ele>252.80000305176</ele>
        <time>2020-07-31T05:36:19.000Z</time>
      </trkpt>
      <trkpt lat="46.33438" lon="5.29229">
        <ele>253.19999694824</ele>
        <time>2020-07-31T05:36:20.000Z</time>
      </trkpt>
      <trkpt lat="46.33435" lon="5.29232">
        <ele>253.39999389648</ele>
        <time>2020-07-31T05:36:22.000Z</time>
      </trkpt>
      <trkpt lat="46.33433" lon="5.29236">
        <ele>253.39999389648</ele>
        <time>2020-07-31T05:36:23.000Z</time>
      </trkpt>
      <trkpt lat="46.33431" lon="5.29242">
        <ele>253.39999389648</ele>
        <time>2020-07-31T05:36:24.000Z</time>
      </trkpt>
      <trkpt lat="46.33426" lon="5.29254">
        <ele>253.60000610352</ele>
        <time>2020-07-31T05:36:26.000Z</time>
      </trkpt>
      <trkpt lat="46.33421" lon="5.29268">
        <ele>253.60000610352</ele>
        <time>2020-07-31T05:36:28.000Z</time>
      </trkpt>
      <trkpt lat="46.33411" lon="5.29293">
        <ele>253.60000610352</ele>
        <time>2020-07-31T05:36:31.000Z</time>
      </trkpt>
      <trkpt lat="46.33404" lon="5.2931">
        <ele>253.39999389648</ele>
        <time>2020-07-31T05:36:33.000Z</time>
      </trkpt>
      <trkpt lat="46.33398" lon="5.29327">
        <ele>253</ele>
        <time>2020-07-31T05:36:35.000Z</time>
      </trkpt>
      <trkpt lat="46.33391" lon="5.29345">
        <ele>252.39999389648</ele>
        <time>2020-07-31T05:36:37.000Z</time>
      </trkpt>
      <trkpt lat="46.33384" lon="5.29362">
        <ele>252</ele>
        <time>2020-07-31T05:36:39.000Z</time>
      </trkpt>
      <trkpt lat="46.33378" lon="5.2938">
        <ele>251.80000305176</ele>
        <time>2020-07-31T05:36:41.000Z</time>
      </trkpt>
      <trkpt lat="46.33372" lon="5.29398">
        <ele>251.60000610352</ele>
        <time>2020-07-31T05:36:43.000Z</time>
      </trkpt>
      <trkpt lat="46.33366" lon="5.29417">
        <ele>251.39999389648</ele>
        <time>2020-07-31T05:36:45.000Z</time>
      </trkpt>
      <trkpt lat="46.33361" lon="5.29437">
        <ele>251.19999694824</ele>
        <time>2020-07-31T05:36:47.000Z</time>
      </trkpt>
      <trkpt lat="46.33356" lon="5.29458">
        <ele>251</ele>
        <time>2020-07-31T05:36:49.000Z</time>
      </trkpt>
      <trkpt lat="46.33354" lon="5.29469">
        <ele>250.80000305176</ele>
        <time>2020-07-31T05:36:50.000Z</time>
      </trkpt>
      <trkpt lat="46.33352" lon="5.29479">
        <ele>250.80000305176</ele>
        <time>2020-07-31T05:36:51.000Z</time>
      </trkpt>
      <trkpt lat="46.3335" lon="5.2949">
        <ele>250.60000610352</ele>
        <time>2020-07-31T05:36:52.000Z</time>
      </trkpt>
      <trkpt lat="46.33348" lon="5.295">
        <ele>250.39999389648</ele>
        <time>2020-07-31T05:36:53.000Z</time>
      </trkpt>
      <trkpt lat="46.33345" lon="5.29521">
        <ele>250</ele>
        <time>2020-07-31T05:36:55.000Z</time>
      </trkpt>
      <trkpt lat="46.33343" lon="5.29532">
        <ele>249.80000305176</ele>
        <time>2020-07-31T05:36:56.000Z</time>
      </trkpt>
      <trkpt lat="46.33341" lon="5.29542">
        <ele>249.60000610352</ele>
        <time>2020-07-31T05:36:57.000Z</time>
      </trkpt>
      <trkpt lat="46.33338" lon="5.29562">
        <ele>249</ele>
        <time>2020-07-31T05:36:59.000Z</time>
      </trkpt>
      <trkpt lat="46.33335" lon="5.29582">
        <ele>249.19999694824</ele>
        <time>2020-07-31T05:37:01.000Z</time>
      </trkpt>
      <trkpt lat="46.33333" lon="5.29591">
        <ele>249</ele>
        <time>2020-07-31T05:37:02.000Z</time>
      </trkpt>
      <trkpt lat="46.33332" lon="5.29601">
        <ele>249</ele>
        <time>2020-07-31T05:37:03.000Z</time>
      </trkpt>
      <trkpt lat="46.33328" lon="5.2962">
        <ele>248.80000305176</ele>
        <time>2020-07-31T05:37:05.000Z</time>
      </trkpt>
      <trkpt lat="46.33325" lon="5.2964">
        <ele>248.60000610352</ele>
        <time>2020-07-31T05:37:07.000Z</time>
      </trkpt>
      <trkpt lat="46.33322" lon="5.2966">
        <ele>248.19999694824</ele>
        <time>2020-07-31T05:37:09.000Z</time>
      </trkpt>
      <trkpt lat="46.33319" lon="5.29681">
        <ele>248.19999694824</ele>
        <time>2020-07-31T05:37:11.000Z</time>
      </trkpt>
      <trkpt lat="46.33317" lon="5.29692">
        <ele>248</ele>
        <time>2020-07-31T05:37:12.000Z</time>
      </trkpt>
      <trkpt lat="46.33315" lon="5.29703">
        <ele>248</ele>
        <time>2020-07-31T05:37:13.000Z</time>
      </trkpt>
      <trkpt lat="46.33312" lon="5.29726">
        <ele>248</ele>
        <time>2020-07-31T05:37:15.000Z</time>
      </trkpt>
      <trkpt lat="46.3331" lon="5.29737">
        <ele>247.80000305176</ele>
        <time>2020-07-31T05:37:16.000Z</time>
      </trkpt>
      <trkpt lat="46.33308" lon="5.29749">
        <ele>247.80000305176</ele>
        <time>2020-07-31T05:37:17.000Z</time>
      </trkpt>
      <trkpt lat="46.33305" lon="5.29771">
        <ele>247.60000610352</ele>
        <time>2020-07-31T05:37:19.000Z</time>
      </trkpt>
      <trkpt lat="46.33301" lon="5.29793">
        <ele>247.39999389648</ele>
        <time>2020-07-31T05:37:21.000Z</time>
      </trkpt>
      <trkpt lat="46.33298" lon="5.29813">
        <ele>247.19999694824</ele>
        <time>2020-07-31T05:37:23.000Z</time>
      </trkpt>
      <trkpt lat="46.33294" lon="5.29834">
        <ele>247</ele>
        <time>2020-07-31T05:37:25.000Z</time>
      </trkpt>
      <trkpt lat="46.33291" lon="5.29855">
        <ele>246.80000305176</ele>
        <time>2020-07-31T05:37:27.000Z</time>
      </trkpt>
      <trkpt lat="46.33289" lon="5.29865">
        <ele>246.80000305176</ele>
        <time>2020-07-31T05:37:28.000Z</time>
      </trkpt>
      <trkpt lat="46.33287" lon="5.29876">
        <ele>246.60000610352</ele>
        <time>2020-07-31T05:37:29.000Z</time>
      </trkpt>
      <trkpt lat="46.33284" lon="5.29898">
        <ele>246.60000610352</ele>
        <time>2020-07-31T05:37:31.000Z</time>
      </trkpt>
      <trkpt lat="46.3328" lon="5.2992">
        <ele>246.39999389648</ele>
        <time>2020-07-31T05:37:33.000Z</time>
      </trkpt>
      <trkpt lat="46.33277" lon="5.29942">
        <ele>245.80000305176</ele>
        <time>2020-07-31T05:37:35.000Z</time>
      </trkpt>
      <trkpt lat="46.33275" lon="5.29953">
        <ele>245.60000610352</ele>
        <time>2020-07-31T05:37:36.000Z</time>
      </trkpt>
      <trkpt lat="46.33273" lon="5.29964">
        <ele>245.39999389648</ele>
        <time>2020-07-31T05:37:37.000Z</time>
      </trkpt>
      <trkpt lat="46.33271" lon="5.29975">
        <ele>245.19999694824</ele>
        <time>2020-07-31T05:37:38.000Z</time>
      </trkpt>
      <trkpt lat="46.3327" lon="5.29986">
        <ele>245</ele>
        <time>2020-07-31T05:37:39.000Z</time>
      </trkpt>
      <trkpt lat="46.33266" lon="5.30008">
        <ele>244.60000610352</ele>
        <time>2020-07-31T05:37:41.000Z</time>
      </trkpt>
      <trkpt lat="46.33264" lon="5.30018">
        <ele>244.60000610352</ele>
        <time>2020-07-31T05:37:42.000Z</time>
      </trkpt>
      <trkpt lat="46.33262" lon="5.30029">
        <ele>244.19999694824</ele>
        <time>2020-07-31T05:37:43.000Z</time>
      </trkpt>
      <trkpt lat="46.33261" lon="5.30039">
        <ele>244</ele>
        <time>2020-07-31T05:37:44.000Z</time>
      </trkpt>
      <trkpt lat="46.33257" lon="5.3006">
        <ele>243.80000305176</ele>
        <time>2020-07-31T05:37:46.000Z</time>
      </trkpt>
      <trkpt lat="46.33254" lon="5.3008">
        <ele>243.60000610352</ele>
        <time>2020-07-31T05:37:48.000Z</time>
      </trkpt>
      <trkpt lat="46.33251" lon="5.301">
        <ele>243.39999389648</ele>
        <time>2020-07-31T05:37:50.000Z</time>
      </trkpt>
      <trkpt lat="46.33247" lon="5.3012">
        <ele>243.39999389648</ele>
        <time>2020-07-31T05:37:52.000Z</time>
      </trkpt>
      <trkpt lat="46.33244" lon="5.3014">
        <ele>243.39999389648</ele>
        <time>2020-07-31T05:37:54.000Z</time>
      </trkpt>
      <trkpt lat="46.33241" lon="5.3016">
        <ele>243.39999389648</ele>
        <time>2020-07-31T05:37:56.000Z</time>
      </trkpt>
      <trkpt lat="46.33239" lon="5.3018">
        <ele>243.39999389648</ele>
        <time>2020-07-31T05:37:58.000Z</time>
      </trkpt>
      <trkpt lat="46.33236" lon="5.30199">
        <ele>243.60000610352</ele>
        <time>2020-07-31T05:38:00.000Z</time>
      </trkpt>
      <trkpt lat="46.33232" lon="5.3022">
        <ele>243.80000305176</ele>
        <time>2020-07-31T05:38:02.000Z</time>
      </trkpt>
      <trkpt lat="46.33229" lon="5.30242">
        <ele>243.80000305176</ele>
        <time>2020-07-31T05:38:04.000Z</time>
      </trkpt>
      <trkpt lat="46.33225" lon="5.30264">
        <ele>243.80000305176</ele>
        <time>2020-07-31T05:38:06.000Z</time>
      </trkpt>
      <trkpt lat="46.3322" lon="5.30289">
        <ele>243.80000305176</ele>
        <time>2020-07-31T05:38:08.000Z</time>
      </trkpt>
      <trkpt lat="46.33215" lon="5.30314">
        <ele>243.60000610352</ele>
        <time>2020-07-31T05:38:10.000Z</time>
      </trkpt>
      <trkpt lat="46.33209" lon="5.3034">
        <ele>243</ele>
        <time>2020-07-31T05:38:12.000Z</time>
      </trkpt>
      <trkpt lat="46.33203" lon="5.30366">
        <ele>242.19999694824</ele>
        <time>2020-07-31T05:38:14.000Z</time>
      </trkpt>
      <trkpt lat="46.33201" lon="5.30379">
        <ele>241.60000610352</ele>
        <time>2020-07-31T05:38:15.000Z</time>
      </trkpt>
      <trkpt lat="46.33198" lon="5.30393">
        <ele>241</ele>
        <time>2020-07-31T05:38:16.000Z</time>
      </trkpt>
      <trkpt lat="46.33192" lon="5.3042">
        <ele>240</ele>
        <time>2020-07-31T05:38:18.000Z</time>
      </trkpt>
      <trkpt lat="46.33187" lon="5.30448">
        <ele>239</ele>
        <time>2020-07-31T05:38:20.000Z</time>
      </trkpt>
      <trkpt lat="46.33181" lon="5.30477">
        <ele>238.19999694824</ele>
        <time>2020-07-31T05:38:22.000Z</time>
      </trkpt>
      <trkpt lat="46.33178" lon="5.30491">
        <ele>237.80000305176</ele>
        <time>2020-07-31T05:38:23.000Z</time>
      </trkpt>
      <trkpt lat="46.33175" lon="5.30506">
        <ele>237.39999389648</ele>
        <time>2020-07-31T05:38:24.000Z</time>
      </trkpt>
      <trkpt lat="46.33172" lon="5.3052">
        <ele>236.80000305176</ele>
        <time>2020-07-31T05:38:25.000Z</time>
      </trkpt>
      <trkpt lat="46.33169" lon="5.30535">
        <ele>236.39999389648</ele>
        <time>2020-07-31T05:38:26.000Z</time>
      </trkpt>
      <trkpt lat="46.33163" lon="5.30564">
        <ele>234.60000610352</ele>
        <time>2020-07-31T05:38:28.000Z</time>
      </trkpt>
      <trkpt lat="46.33157" lon="5.30594">
        <ele>233.39999389648</ele>
        <time>2020-07-31T05:38:30.000Z</time>
      </trkpt>
      <trkpt lat="46.33152" lon="5.30622">
        <ele>232.19999694824</ele>
        <time>2020-07-31T05:38:32.000Z</time>
      </trkpt>
      <trkpt lat="46.33146" lon="5.3065">
        <ele>231.19999694824</ele>
        <time>2020-07-31T05:38:34.000Z</time>
      </trkpt>
      <trkpt lat="46.33143" lon="5.30664">
        <ele>230.80000305176</ele>
        <time>2020-07-31T05:38:35.000Z</time>
      </trkpt>
      <trkpt lat="46.3314" lon="5.30678">
        <ele>230.39999389648</ele>
        <time>2020-07-31T05:38:36.000Z</time>
      </trkpt>
      <trkpt lat="46.33135" lon="5.30705">
        <ele>229.60000610352</ele>
        <time>2020-07-31T05:38:38.000Z</time>
      </trkpt>
      <trkpt lat="46.3313" lon="5.3073">
        <ele>229.39999389648</ele>
        <time>2020-07-31T05:38:40.000Z</time>
      </trkpt>
      <trkpt lat="46.33125" lon="5.30755">
        <ele>229</ele>
        <time>2020-07-31T05:38:42.000Z</time>
      </trkpt>
      <trkpt lat="46.33122" lon="5.30768">
        <ele>228.80000305176</ele>
        <time>2020-07-31T05:38:43.000Z</time>
      </trkpt>
      <trkpt lat="46.3312" lon="5.30779">
        <ele>228.80000305176</ele>
        <time>2020-07-31T05:38:44.000Z</time>
      </trkpt>
      <trkpt lat="46.33116" lon="5.30803">
        <ele>228.80000305176</ele>
        <time>2020-07-31T05:38:46.000Z</time>
      </trkpt>
      <trkpt lat="46.33111" lon="5.30827">
        <ele>228.80000305176</ele>
        <time>2020-07-31T05:38:48.000Z</time>
      </trkpt>
      <trkpt lat="46.33106" lon="5.3085">
        <ele>228.80000305176</ele>
        <time>2020-07-31T05:38:50.000Z</time>
      </trkpt>
      <trkpt lat="46.33102" lon="5.30873">
        <ele>228.80000305176</ele>
        <time>2020-07-31T05:38:52.000Z</time>
      </trkpt>
      <trkpt lat="46.331" lon="5.30885">
        <ele>228.80000305176</ele>
        <time>2020-07-31T05:38:53.000Z</time>
      </trkpt>
      <trkpt lat="46.33097" lon="5.30896">
        <ele>228.80000305176</ele>
        <time>2020-07-31T05:38:54.000Z</time>
      </trkpt>
      <trkpt lat="46.33093" lon="5.30919">
        <ele>229</ele>
        <time>2020-07-31T05:38:56.000Z</time>
      </trkpt>
      <trkpt lat="46.33089" lon="5.30942">
        <ele>229</ele>
        <time>2020-07-31T05:38:58.000Z</time>
      </trkpt>
      <trkpt lat="46.33084" lon="5.30965">
        <ele>229</ele>
        <time>2020-07-31T05:39:00.000Z</time>
      </trkpt>
      <trkpt lat="46.33081" lon="5.30988">
        <ele>229</ele>
        <time>2020-07-31T05:39:02.000Z</time>
      </trkpt>
      <trkpt lat="46.33076" lon="5.3101">
        <ele>228.80000305176</ele>
        <time>2020-07-31T05:39:04.000Z</time>
      </trkpt>
      <trkpt lat="46.33074" lon="5.31021">
        <ele>228.60000610352</ele>
        <time>2020-07-31T05:39:05.000Z</time>
      </trkpt>
      <trkpt lat="46.33072" lon="5.31032">
        <ele>228.39999389648</ele>
        <time>2020-07-31T05:39:06.000Z</time>
      </trkpt>
      <trkpt lat="46.33067" lon="5.31054">
        <ele>228.19999694824</ele>
        <time>2020-07-31T05:39:08.000Z</time>
      </trkpt>
      <trkpt lat="46.33063" lon="5.31076">
        <ele>227.80000305176</ele>
        <time>2020-07-31T05:39:10.000Z</time>
      </trkpt>
      <trkpt lat="46.3306" lon="5.31086">
        <ele>227.60000610352</ele>
        <time>2020-07-31T05:39:11.000Z</time>
      </trkpt>
      <trkpt lat="46.33058" lon="5.31097">
        <ele>227.39999389648</ele>
        <time>2020-07-31T05:39:12.000Z</time>
      </trkpt>
      <trkpt lat="46.33054" lon="5.31117">
        <ele>227.19999694824</ele>
        <time>2020-07-31T05:39:14.000Z</time>
      </trkpt>
      <trkpt lat="46.33052" lon="5.31126">
        <ele>227.19999694824</ele>
        <time>2020-07-31T05:39:15.000Z</time>
      </trkpt>
      <trkpt lat="46.3305" lon="5.31135">
        <ele>227.19999694824</ele>
        <time>2020-07-31T05:39:16.000Z</time>
      </trkpt>
      <trkpt lat="46.33048" lon="5.31144">
        <ele>227</ele>
        <time>2020-07-31T05:39:17.000Z</time>
      </trkpt>
      <trkpt lat="46.33046" lon="5.31154">
        <ele>227</ele>
        <time>2020-07-31T05:39:18.000Z</time>
      </trkpt>
      <trkpt lat="46.33042" lon="5.31175">
        <ele>226.60000610352</ele>
        <time>2020-07-31T05:39:20.000Z</time>
      </trkpt>
      <trkpt lat="46.33039" lon="5.31185">
        <ele>226.60000610352</ele>
        <time>2020-07-31T05:39:21.000Z</time>
      </trkpt>
      <trkpt lat="46.33037" lon="5.31196">
        <ele>226.39999389648</ele>
        <time>2020-07-31T05:39:22.000Z</time>
      </trkpt>
      <trkpt lat="46.33033" lon="5.31217">
        <ele>226.39999389648</ele>
        <time>2020-07-31T05:39:24.000Z</time>
      </trkpt>
      <trkpt lat="46.33031" lon="5.31227">
        <ele>226.39999389648</ele>
        <time>2020-07-31T05:39:25.000Z</time>
      </trkpt>
      <trkpt lat="46.33029" lon="5.31238">
        <ele>226.39999389648</ele>
        <time>2020-07-31T05:39:26.000Z</time>
      </trkpt>
      <trkpt lat="46.33026" lon="5.31258">
        <ele>226.19999694824</ele>
        <time>2020-07-31T05:39:28.000Z</time>
      </trkpt>
      <trkpt lat="46.33022" lon="5.31277">
        <ele>225.60000610352</ele>
        <time>2020-07-31T05:39:30.000Z</time>
      </trkpt>
      <trkpt lat="46.3302" lon="5.31286">
        <ele>225.60000610352</ele>
        <time>2020-07-31T05:39:31.000Z</time>
      </trkpt>
      <trkpt lat="46.33018" lon="5.31295">
        <ele>225.39999389648</ele>
        <time>2020-07-31T05:39:32.000Z</time>
      </trkpt>
      <trkpt lat="46.33015" lon="5.31304">
        <ele>225.19999694824</ele>
        <time>2020-07-31T05:39:33.000Z</time>
      </trkpt>
      <trkpt lat="46.33012" lon="5.31313">
        <ele>225.19999694824</ele>
        <time>2020-07-31T05:39:34.000Z</time>
      </trkpt>
      <trkpt lat="46.33003" lon="5.31327">
        <ele>225.19999694824</ele>
        <time>2020-07-31T05:39:36.000Z</time>
      </trkpt>
      <trkpt lat="46.32994" lon="5.31339">
        <ele>225.19999694824</ele>
        <time>2020-07-31T05:39:38.000Z</time>
      </trkpt>
      <trkpt lat="46.3299" lon="5.31344">
        <ele>225.19999694824</ele>
        <time>2020-07-31T05:39:39.000Z</time>
      </trkpt>
      <trkpt lat="46.32986" lon="5.31349">
        <ele>225.19999694824</ele>
        <time>2020-07-31T05:39:40.000Z</time>
      </trkpt>
      <trkpt lat="46.32981" lon="5.31355">
        <ele>225.19999694824</ele>
        <time>2020-07-31T05:39:41.000Z</time>
      </trkpt>
      <trkpt lat="46.32976" lon="5.31361">
        <ele>225.39999389648</ele>
        <time>2020-07-31T05:39:42.000Z</time>
      </trkpt>
      <trkpt lat="46.32973" lon="5.31378">
        <ele>225.60000610352</ele>
        <time>2020-07-31T05:39:44.000Z</time>
      </trkpt>
      <trkpt lat="46.32977" lon="5.31396">
        <ele>225.80000305176</ele>
        <time>2020-07-31T05:39:46.000Z</time>
      </trkpt>
      <trkpt lat="46.32982" lon="5.31404">
        <ele>225.80000305176</ele>
        <time>2020-07-31T05:39:47.000Z</time>
      </trkpt>
      <trkpt lat="46.32986" lon="5.31412">
        <ele>225.80000305176</ele>
        <time>2020-07-31T05:39:48.000Z</time>
      </trkpt>
      <trkpt lat="46.32991" lon="5.31431">
        <ele>225.80000305176</ele>
        <time>2020-07-31T05:39:50.000Z</time>
      </trkpt>
      <trkpt lat="46.32995" lon="5.31451">
        <ele>225.80000305176</ele>
        <time>2020-07-31T05:39:52.000Z</time>
      </trkpt>
      <trkpt lat="46.32998" lon="5.31471">
        <ele>225.80000305176</ele>
        <time>2020-07-31T05:39:54.000Z</time>
      </trkpt>
      <trkpt lat="46.33" lon="5.31491">
        <ele>225.60000610352</ele>
        <time>2020-07-31T05:39:56.000Z</time>
      </trkpt>
      <trkpt lat="46.33001" lon="5.31511">
        <ele>225.39999389648</ele>
        <time>2020-07-31T05:39:58.000Z</time>
      </trkpt>
      <trkpt lat="46.33002" lon="5.31531">
        <ele>225.19999694824</ele>
        <time>2020-07-31T05:40:00.000Z</time>
      </trkpt>
      <trkpt lat="46.33003" lon="5.3155">
        <ele>225.19999694824</ele>
        <time>2020-07-31T05:40:02.000Z</time>
      </trkpt>
      <trkpt lat="46.33005" lon="5.31559">
        <ele>225.19999694824</ele>
        <time>2020-07-31T05:40:03.000Z</time>
      </trkpt>
      <trkpt lat="46.33006" lon="5.31568">
        <ele>225.19999694824</ele>
        <time>2020-07-31T05:40:04.000Z</time>
      </trkpt>
      <trkpt lat="46.33011" lon="5.31586">
        <ele>225.19999694824</ele>
        <time>2020-07-31T05:40:06.000Z</time>
      </trkpt>
      <trkpt lat="46.33017" lon="5.31603">
        <ele>225.39999389648</ele>
        <time>2020-07-31T05:40:08.000Z</time>
      </trkpt>
      <trkpt lat="46.3302" lon="5.31612">
        <ele>225.39999389648</ele>
        <time>2020-07-31T05:40:09.000Z</time>
      </trkpt>
      <trkpt lat="46.33023" lon="5.3162">
        <ele>225.39999389648</ele>
        <time>2020-07-31T05:40:10.000Z</time>
      </trkpt>
      <trkpt lat="46.33029" lon="5.31637">
        <ele>225.39999389648</ele>
        <time>2020-07-31T05:40:12.000Z</time>
      </trkpt>
      <trkpt lat="46.33035" lon="5.31654">
        <ele>225.39999389648</ele>
        <time>2020-07-31T05:40:14.000Z</time>
      </trkpt>
      <trkpt lat="46.33041" lon="5.31671">
        <ele>225.39999389648</ele>
        <time>2020-07-31T05:40:16.000Z</time>
      </trkpt>
      <trkpt lat="46.33047" lon="5.31688">
        <ele>225.39999389648</ele>
        <time>2020-07-31T05:40:18.000Z</time>
      </trkpt>
      <trkpt lat="46.33052" lon="5.31705">
        <ele>225.39999389648</ele>
        <time>2020-07-31T05:40:20.000Z</time>
      </trkpt>
      <trkpt lat="46.33056" lon="5.31723">
        <ele>225.19999694824</ele>
        <time>2020-07-31T05:40:22.000Z</time>
      </trkpt>
      <trkpt lat="46.33061" lon="5.31741">
        <ele>225.19999694824</ele>
        <time>2020-07-31T05:40:24.000Z</time>
      </trkpt>
      <trkpt lat="46.33066" lon="5.31759">
        <ele>225.19999694824</ele>
        <time>2020-07-31T05:40:26.000Z</time>
      </trkpt>
      <trkpt lat="46.3307" lon="5.31777">
        <ele>225.19999694824</ele>
        <time>2020-07-31T05:40:28.000Z</time>
      </trkpt>
      <trkpt lat="46.33074" lon="5.31794">
        <ele>225.19999694824</ele>
        <time>2020-07-31T05:40:30.000Z</time>
      </trkpt>
      <trkpt lat="46.33076" lon="5.31803">
        <ele>225.19999694824</ele>
        <time>2020-07-31T05:40:31.000Z</time>
      </trkpt>
      <trkpt lat="46.33078" lon="5.31811">
        <ele>225.19999694824</ele>
        <time>2020-07-31T05:40:32.000Z</time>
      </trkpt>
      <trkpt lat="46.33083" lon="5.31828">
        <ele>225.19999694824</ele>
        <time>2020-07-31T05:40:34.000Z</time>
      </trkpt>
      <trkpt lat="46.33087" lon="5.31845">
        <ele>225.19999694824</ele>
        <time>2020-07-31T05:40:36.000Z</time>
      </trkpt>
      <trkpt lat="46.33091" lon="5.31862">
        <ele>225.39999389648</ele>
        <time>2020-07-31T05:40:38.000Z</time>
      </trkpt>
      <trkpt lat="46.33095" lon="5.31879">
        <ele>225.39999389648</ele>
        <time>2020-07-31T05:40:40.000Z</time>
      </trkpt>
      <trkpt lat="46.331" lon="5.31896">
        <ele>225.39999389648</ele>
        <time>2020-07-31T05:40:42.000Z</time>
      </trkpt>
      <trkpt lat="46.33104" lon="5.31914">
        <ele>225.39999389648</ele>
        <time>2020-07-31T05:40:44.000Z</time>
      </trkpt>
      <trkpt lat="46.33108" lon="5.31931">
        <ele>225.39999389648</ele>
        <time>2020-07-31T05:40:46.000Z</time>
      </trkpt>
      <trkpt lat="46.33112" lon="5.31948">
        <ele>225.39999389648</ele>
        <time>2020-07-31T05:40:48.000Z</time>
      </trkpt>
      <trkpt lat="46.33116" lon="5.31965">
        <ele>225.39999389648</ele>
        <time>2020-07-31T05:40:50.000Z</time>
      </trkpt>
      <trkpt lat="46.33121" lon="5.31982">
        <ele>225.60000610352</ele>
        <time>2020-07-31T05:40:52.000Z</time>
      </trkpt>
      <trkpt lat="46.33123" lon="5.31991">
        <ele>225.60000610352</ele>
        <time>2020-07-31T05:40:53.000Z</time>
      </trkpt>
      <trkpt lat="46.33125" lon="5.31999">
        <ele>225.60000610352</ele>
        <time>2020-07-31T05:40:54.000Z</time>
      </trkpt>
      <trkpt lat="46.33129" lon="5.32017">
        <ele>225.60000610352</ele>
        <time>2020-07-31T05:40:56.000Z</time>
      </trkpt>
      <trkpt lat="46.33134" lon="5.32033">
        <ele>225.39999389648</ele>
        <time>2020-07-31T05:40:58.000Z</time>
      </trkpt>
      <trkpt lat="46.33136" lon="5.32042">
        <ele>225.39999389648</ele>
        <time>2020-07-31T05:40:59.000Z</time>
      </trkpt>
      <trkpt lat="46.33138" lon="5.3205">
        <ele>225.39999389648</ele>
        <time>2020-07-31T05:41:00.000Z</time>
      </trkpt>
      <trkpt lat="46.33142" lon="5.32067">
        <ele>225.39999389648</ele>
        <time>2020-07-31T05:41:02.000Z</time>
      </trkpt>
      <trkpt lat="46.33146" lon="5.32084">
        <ele>225.19999694824</ele>
        <time>2020-07-31T05:41:04.000Z</time>
      </trkpt>
      <trkpt lat="46.33151" lon="5.321">
        <ele>225.19999694824</ele>
        <time>2020-07-31T05:41:06.000Z</time>
      </trkpt>
      <trkpt lat="46.33152" lon="5.32109">
        <ele>225.19999694824</ele>
        <time>2020-07-31T05:41:07.000Z</time>
      </trkpt>
      <trkpt lat="46.33155" lon="5.32117">
        <ele>225.19999694824</ele>
        <time>2020-07-31T05:41:08.000Z</time>
      </trkpt>
      <trkpt lat="46.33159" lon="5.32134">
        <ele>225.19999694824</ele>
        <time>2020-07-31T05:41:10.000Z</time>
      </trkpt>
      <trkpt lat="46.33163" lon="5.3215">
        <ele>225.19999694824</ele>
        <time>2020-07-31T05:41:12.000Z</time>
      </trkpt>
      <trkpt lat="46.33167" lon="5.32166">
        <ele>225.19999694824</ele>
        <time>2020-07-31T05:41:14.000Z</time>
      </trkpt>
      <trkpt lat="46.33169" lon="5.32175">
        <ele>225.19999694824</ele>
        <time>2020-07-31T05:41:15.000Z</time>
      </trkpt>
      <trkpt lat="46.33171" lon="5.32183">
        <ele>225.19999694824</ele>
        <time>2020-07-31T05:41:16.000Z</time>
      </trkpt>
      <trkpt lat="46.33176" lon="5.32198">
        <ele>225.39999389648</ele>
        <time>2020-07-31T05:41:18.000Z</time>
      </trkpt>
      <trkpt lat="46.33182" lon="5.32214">
        <ele>225.39999389648</ele>
        <time>2020-07-31T05:41:20.000Z</time>
      </trkpt>
      <trkpt lat="46.33188" lon="5.3223">
        <ele>225.60000610352</ele>
        <time>2020-07-31T05:41:22.000Z</time>
      </trkpt>
      <trkpt lat="46.33191" lon="5.32237">
        <ele>225.80000305176</ele>
        <time>2020-07-31T05:41:23.000Z</time>
      </trkpt>
      <trkpt lat="46.33195" lon="5.32244">
        <ele>225.80000305176</ele>
        <time>2020-07-31T05:41:24.000Z</time>
      </trkpt>
      <trkpt lat="46.33202" lon="5.32259">
        <ele>226</ele>
        <time>2020-07-31T05:41:26.000Z</time>
      </trkpt>
      <trkpt lat="46.33209" lon="5.32273">
        <ele>226</ele>
        <time>2020-07-31T05:41:28.000Z</time>
      </trkpt>
      <trkpt lat="46.33217" lon="5.32288">
        <ele>226</ele>
        <time>2020-07-31T05:41:30.000Z</time>
      </trkpt>
      <trkpt lat="46.33224" lon="5.32302">
        <ele>226</ele>
        <time>2020-07-31T05:41:32.000Z</time>
      </trkpt>
      <trkpt lat="46.33232" lon="5.32315">
        <ele>226.19999694824</ele>
        <time>2020-07-31T05:41:34.000Z</time>
      </trkpt>
      <trkpt lat="46.33239" lon="5.32329">
        <ele>226.19999694824</ele>
        <time>2020-07-31T05:41:36.000Z</time>
      </trkpt>
      <trkpt lat="46.33246" lon="5.32342">
        <ele>226.19999694824</ele>
        <time>2020-07-31T05:41:38.000Z</time>
      </trkpt>
      <trkpt lat="46.33253" lon="5.32355">
        <ele>226.19999694824</ele>
        <time>2020-07-31T05:41:40.000Z</time>
      </trkpt>
      <trkpt lat="46.3326" lon="5.32369">
        <ele>226.39999389648</ele>
        <time>2020-07-31T05:41:42.000Z</time>
      </trkpt>
      <trkpt lat="46.33267" lon="5.32382">
        <ele>226.60000610352</ele>
        <time>2020-07-31T05:41:44.000Z</time>
      </trkpt>
      <trkpt lat="46.33271" lon="5.32389">
        <ele>226.80000305176</ele>
        <time>2020-07-31T05:41:45.000Z</time>
      </trkpt>
      <trkpt lat="46.33275" lon="5.32396">
        <ele>227</ele>
        <time>2020-07-31T05:41:46.000Z</time>
      </trkpt>
      <trkpt lat="46.33282" lon="5.3241">
        <ele>227</ele>
        <time>2020-07-31T05:41:48.000Z</time>
      </trkpt>
      <trkpt lat="46.33289" lon="5.32424">
        <ele>227.19999694824</ele>
        <time>2020-07-31T05:41:50.000Z</time>
      </trkpt>
      <trkpt lat="46.33297" lon="5.32438">
        <ele>227.39999389648</ele>
        <time>2020-07-31T05:41:52.000Z</time>
      </trkpt>
      <trkpt lat="46.33304" lon="5.32452">
        <ele>227.39999389648</ele>
        <time>2020-07-31T05:41:54.000Z</time>
      </trkpt>
      <trkpt lat="46.33312" lon="5.32466">
        <ele>227.39999389648</ele>
        <time>2020-07-31T05:41:56.000Z</time>
      </trkpt>
      <trkpt lat="46.33319" lon="5.32479">
        <ele>227.60000610352</ele>
        <time>2020-07-31T05:41:58.000Z</time>
      </trkpt>
      <trkpt lat="46.33326" lon="5.32493">
        <ele>227.60000610352</ele>
        <time>2020-07-31T05:42:00.000Z</time>
      </trkpt>
      <trkpt lat="46.33333" lon="5.32507">
        <ele>227.60000610352</ele>
        <time>2020-07-31T05:42:02.000Z</time>
      </trkpt>
      <trkpt lat="46.33339" lon="5.3252">
        <ele>227.60000610352</ele>
        <time>2020-07-31T05:42:04.000Z</time>
      </trkpt>
      <trkpt lat="46.33347" lon="5.32533">
        <ele>227.80000305176</ele>
        <time>2020-07-31T05:42:06.000Z</time>
      </trkpt>
      <trkpt lat="46.33353" lon="5.32546">
        <ele>228.19999694824</ele>
        <time>2020-07-31T05:42:08.000Z</time>
      </trkpt>
      <trkpt lat="46.33357" lon="5.32552">
        <ele>228.39999389648</ele>
        <time>2020-07-31T05:42:09.000Z</time>
      </trkpt>
      <trkpt lat="46.3336" lon="5.32559">
        <ele>228.39999389648</ele>
        <time>2020-07-31T05:42:10.000Z</time>
      </trkpt>
      <trkpt lat="46.33367" lon="5.32571">
        <ele>228.60000610352</ele>
        <time>2020-07-31T05:42:12.000Z</time>
      </trkpt>
      <trkpt lat="46.33374" lon="5.32584">
        <ele>229</ele>
        <time>2020-07-31T05:42:14.000Z</time>
      </trkpt>
      <trkpt lat="46.33381" lon="5.32598">
        <ele>229.19999694824</ele>
        <time>2020-07-31T05:42:16.000Z</time>
      </trkpt>
      <trkpt lat="46.33389" lon="5.32612">
        <ele>229.60000610352</ele>
        <time>2020-07-31T05:42:18.000Z</time>
      </trkpt>
      <trkpt lat="46.33397" lon="5.32625">
        <ele>229.80000305176</ele>
        <time>2020-07-31T05:42:20.000Z</time>
      </trkpt>
      <trkpt lat="46.33406" lon="5.32639">
        <ele>229.80000305176</ele>
        <time>2020-07-31T05:42:22.000Z</time>
      </trkpt>
      <trkpt lat="46.33414" lon="5.32654">
        <ele>229.80000305176</ele>
        <time>2020-07-31T05:42:24.000Z</time>
      </trkpt>
      <trkpt lat="46.33424" lon="5.32667">
        <ele>229.80000305176</ele>
        <time>2020-07-31T05:42:26.000Z</time>
      </trkpt>
      <trkpt lat="46.33433" lon="5.3268">
        <ele>229.80000305176</ele>
        <time>2020-07-31T05:42:28.000Z</time>
      </trkpt>
      <trkpt lat="46.33443" lon="5.32691">
        <ele>229.39999389648</ele>
        <time>2020-07-31T05:42:30.000Z</time>
      </trkpt>
      <trkpt lat="46.33453" lon="5.32701">
        <ele>229.19999694824</ele>
        <time>2020-07-31T05:42:32.000Z</time>
      </trkpt>
      <trkpt lat="46.33458" lon="5.32706">
        <ele>229.19999694824</ele>
        <time>2020-07-31T05:42:33.000Z</time>
      </trkpt>
      <trkpt lat="46.33464" lon="5.3271">
        <ele>229.19999694824</ele>
        <time>2020-07-31T05:42:34.000Z</time>
      </trkpt>
      <trkpt lat="46.33475" lon="5.32719">
        <ele>229.19999694824</ele>
        <time>2020-07-31T05:42:36.000Z</time>
      </trkpt>
      <trkpt lat="46.33486" lon="5.32727">
        <ele>229.19999694824</ele>
        <time>2020-07-31T05:42:38.000Z</time>
      </trkpt>
      <trkpt lat="46.33497" lon="5.32736">
        <ele>229.60000610352</ele>
        <time>2020-07-31T05:42:40.000Z</time>
      </trkpt>
      <trkpt lat="46.33508" lon="5.32743">
        <ele>229.80000305176</ele>
        <time>2020-07-31T05:42:42.000Z</time>
      </trkpt>
      <trkpt lat="46.33514" lon="5.32747">
        <ele>230</ele>
        <time>2020-07-31T05:42:43.000Z</time>
      </trkpt>
      <trkpt lat="46.33519" lon="5.32752">
        <ele>230</ele>
        <time>2020-07-31T05:42:44.000Z</time>
      </trkpt>
      <trkpt lat="46.33531" lon="5.32759">
        <ele>230</ele>
        <time>2020-07-31T05:42:46.000Z</time>
      </trkpt>
      <trkpt lat="46.33543" lon="5.32767">
        <ele>230</ele>
        <time>2020-07-31T05:42:48.000Z</time>
      </trkpt>
      <trkpt lat="46.33555" lon="5.32774">
        <ele>230</ele>
        <time>2020-07-31T05:42:50.000Z</time>
      </trkpt>
      <trkpt lat="46.33566" lon="5.32781">
        <ele>230</ele>
        <time>2020-07-31T05:42:52.000Z</time>
      </trkpt>
      <trkpt lat="46.33579" lon="5.32788">
        <ele>229.80000305176</ele>
        <time>2020-07-31T05:42:54.000Z</time>
      </trkpt>
      <trkpt lat="46.33585" lon="5.32792">
        <ele>229.80000305176</ele>
        <time>2020-07-31T05:42:55.000Z</time>
      </trkpt>
      <trkpt lat="46.33591" lon="5.32795">
        <ele>229.80000305176</ele>
        <time>2020-07-31T05:42:56.000Z</time>
      </trkpt>
      <trkpt lat="46.33603" lon="5.32803">
        <ele>229.60000610352</ele>
        <time>2020-07-31T05:42:58.000Z</time>
      </trkpt>
      <trkpt lat="46.33616" lon="5.32811">
        <ele>229.60000610352</ele>
        <time>2020-07-31T05:43:00.000Z</time>
      </trkpt>
      <trkpt lat="46.33622" lon="5.32816">
        <ele>229.60000610352</ele>
        <time>2020-07-31T05:43:01.000Z</time>
      </trkpt>
      <trkpt lat="46.33627" lon="5.32822">
        <ele>229.39999389648</ele>
        <time>2020-07-31T05:43:02.000Z</time>
      </trkpt>
      <trkpt lat="46.33636" lon="5.32835">
        <ele>229.19999694824</ele>
        <time>2020-07-31T05:43:04.000Z</time>
      </trkpt>
      <trkpt lat="46.3364" lon="5.32843">
        <ele>229</ele>
        <time>2020-07-31T05:43:05.000Z</time>
      </trkpt>
      <trkpt lat="46.33644" lon="5.32851">
        <ele>228.80000305176</ele>
        <time>2020-07-31T05:43:06.000Z</time>
      </trkpt>
      <trkpt lat="46.33651" lon="5.32867">
        <ele>228.60000610352</ele>
        <time>2020-07-31T05:43:08.000Z</time>
      </trkpt>
      <trkpt lat="46.33657" lon="5.32884">
        <ele>228.60000610352</ele>
        <time>2020-07-31T05:43:10.000Z</time>
      </trkpt>
      <trkpt lat="46.33662" lon="5.329">
        <ele>228.60000610352</ele>
        <time>2020-07-31T05:43:12.000Z</time>
      </trkpt>
      <trkpt lat="46.33664" lon="5.32909">
        <ele>228.60000610352</ele>
        <time>2020-07-31T05:43:13.000Z</time>
      </trkpt>
      <trkpt lat="46.33667" lon="5.32918">
        <ele>228.60000610352</ele>
        <time>2020-07-31T05:43:14.000Z</time>
      </trkpt>
      <trkpt lat="46.33671" lon="5.32935">
        <ele>228.60000610352</ele>
        <time>2020-07-31T05:43:16.000Z</time>
      </trkpt>
      <trkpt lat="46.33673" lon="5.32954">
        <ele>228.60000610352</ele>
        <time>2020-07-31T05:43:18.000Z</time>
      </trkpt>
      <trkpt lat="46.33674" lon="5.32964">
        <ele>228.60000610352</ele>
        <time>2020-07-31T05:43:19.000Z</time>
      </trkpt>
      <trkpt lat="46.33674" lon="5.32974">
        <ele>228.60000610352</ele>
        <time>2020-07-31T05:43:20.000Z</time>
      </trkpt>
      <trkpt lat="46.33674" lon="5.32993">
        <ele>228.60000610352</ele>
        <time>2020-07-31T05:43:22.000Z</time>
      </trkpt>
      <trkpt lat="46.33673" lon="5.33013">
        <ele>228.60000610352</ele>
        <time>2020-07-31T05:43:24.000Z</time>
      </trkpt>
      <trkpt lat="46.33673" lon="5.33033">
        <ele>228.60000610352</ele>
        <time>2020-07-31T05:43:26.000Z</time>
      </trkpt>
      <trkpt lat="46.33672" lon="5.33053">
        <ele>228.60000610352</ele>
        <time>2020-07-31T05:43:28.000Z</time>
      </trkpt>
      <trkpt lat="46.33672" lon="5.33062">
        <ele>228.60000610352</ele>
        <time>2020-07-31T05:43:29.000Z</time>
      </trkpt>
      <trkpt lat="46.33672" lon="5.33072">
        <ele>228.39999389648</ele>
        <time>2020-07-31T05:43:30.000Z</time>
      </trkpt>
      <trkpt lat="46.33671" lon="5.33092">
        <ele>228.39999389648</ele>
        <time>2020-07-31T05:43:32.000Z</time>
      </trkpt>
      <trkpt lat="46.33671" lon="5.33111">
        <ele>228.39999389648</ele>
        <time>2020-07-31T05:43:34.000Z</time>
      </trkpt>
      <trkpt lat="46.33671" lon="5.3313">
        <ele>228.39999389648</ele>
        <time>2020-07-31T05:43:36.000Z</time>
      </trkpt>
      <trkpt lat="46.33671" lon="5.33149">
        <ele>228.19999694824</ele>
        <time>2020-07-31T05:43:38.000Z</time>
      </trkpt>
      <trkpt lat="46.33672" lon="5.33159">
        <ele>228.19999694824</ele>
        <time>2020-07-31T05:43:39.000Z</time>
      </trkpt>
      <trkpt lat="46.33673" lon="5.33168">
        <ele>228.19999694824</ele>
        <time>2020-07-31T05:43:40.000Z</time>
      </trkpt>
      <trkpt lat="46.33676" lon="5.33188">
        <ele>228.19999694824</ele>
        <time>2020-07-31T05:43:42.000Z</time>
      </trkpt>
      <trkpt lat="46.33681" lon="5.33207">
        <ele>228.19999694824</ele>
        <time>2020-07-31T05:43:44.000Z</time>
      </trkpt>
      <trkpt lat="46.33686" lon="5.33226">
        <ele>228.19999694824</ele>
        <time>2020-07-31T05:43:46.000Z</time>
      </trkpt>
      <trkpt lat="46.33693" lon="5.33243">
        <ele>228</ele>
        <time>2020-07-31T05:43:48.000Z</time>
      </trkpt>
      <trkpt lat="46.337" lon="5.33261">
        <ele>228</ele>
        <time>2020-07-31T05:43:50.000Z</time>
      </trkpt>
      <trkpt lat="46.33707" lon="5.33279">
        <ele>228</ele>
        <time>2020-07-31T05:43:52.000Z</time>
      </trkpt>
      <trkpt lat="46.33711" lon="5.33287">
        <ele>227.80000305176</ele>
        <time>2020-07-31T05:43:53.000Z</time>
      </trkpt>
      <trkpt lat="46.33714" lon="5.33296">
        <ele>227.80000305176</ele>
        <time>2020-07-31T05:43:54.000Z</time>
      </trkpt>
      <trkpt lat="46.33721" lon="5.33313">
        <ele>227.80000305176</ele>
        <time>2020-07-31T05:43:56.000Z</time>
      </trkpt>
      <trkpt lat="46.33728" lon="5.3333">
        <ele>227.60000610352</ele>
        <time>2020-07-31T05:43:58.000Z</time>
      </trkpt>
      <trkpt lat="46.33734" lon="5.33346">
        <ele>227.39999389648</ele>
        <time>2020-07-31T05:44:00.000Z</time>
      </trkpt>
      <trkpt lat="46.33737" lon="5.33355">
        <ele>227.39999389648</ele>
        <time>2020-07-31T05:44:01.000Z</time>
      </trkpt>
      <trkpt lat="46.33741" lon="5.33363">
        <ele>227.39999389648</ele>
        <time>2020-07-31T05:44:02.000Z</time>
      </trkpt>
      <trkpt lat="46.33747" lon="5.33379">
        <ele>227.39999389648</ele>
        <time>2020-07-31T05:44:04.000Z</time>
      </trkpt>
      <trkpt lat="46.33753" lon="5.33396">
        <ele>227.39999389648</ele>
        <time>2020-07-31T05:44:06.000Z</time>
      </trkpt>
      <trkpt lat="46.3376" lon="5.33412">
        <ele>227.39999389648</ele>
        <time>2020-07-31T05:44:08.000Z</time>
      </trkpt>
      <trkpt lat="46.33766" lon="5.33428">
        <ele>227.39999389648</ele>
        <time>2020-07-31T05:44:10.000Z</time>
      </trkpt>
      <trkpt lat="46.33768" lon="5.33436">
        <ele>227.39999389648</ele>
        <time>2020-07-31T05:44:11.000Z</time>
      </trkpt>
      <trkpt lat="46.33771" lon="5.33445">
        <ele>227.39999389648</ele>
        <time>2020-07-31T05:44:12.000Z</time>
      </trkpt>
      <trkpt lat="46.33775" lon="5.33463">
        <ele>227.60000610352</ele>
        <time>2020-07-31T05:44:14.000Z</time>
      </trkpt>
      <trkpt lat="46.33777" lon="5.33481">
        <ele>227.60000610352</ele>
        <time>2020-07-31T05:44:16.000Z</time>
      </trkpt>
      <trkpt lat="46.33778" lon="5.3349">
        <ele>227.80000305176</ele>
        <time>2020-07-31T05:44:17.000Z</time>
      </trkpt>
      <trkpt lat="46.33778" lon="5.33499">
        <ele>227.80000305176</ele>
        <time>2020-07-31T05:44:18.000Z</time>
      </trkpt>
      <trkpt lat="46.33778" lon="5.33517">
        <ele>228</ele>
        <time>2020-07-31T05:44:20.000Z</time>
      </trkpt>
      <trkpt lat="46.33778" lon="5.33535">
        <ele>228.19999694824</ele>
        <time>2020-07-31T05:44:22.000Z</time>
      </trkpt>
      <trkpt lat="46.33778" lon="5.33553">
        <ele>228.19999694824</ele>
        <time>2020-07-31T05:44:24.000Z</time>
      </trkpt>
      <trkpt lat="46.33777" lon="5.33562">
        <ele>228.19999694824</ele>
        <time>2020-07-31T05:44:25.000Z</time>
      </trkpt>
      <trkpt lat="46.33777" lon="5.33571">
        <ele>228.19999694824</ele>
        <time>2020-07-31T05:44:26.000Z</time>
      </trkpt>
      <trkpt lat="46.33777" lon="5.33589">
        <ele>228.39999389648</ele>
        <time>2020-07-31T05:44:28.000Z</time>
      </trkpt>
      <trkpt lat="46.33777" lon="5.33606">
        <ele>228.39999389648</ele>
        <time>2020-07-31T05:44:30.000Z</time>
      </trkpt>
      <trkpt lat="46.33777" lon="5.33623">
        <ele>228.60000610352</ele>
        <time>2020-07-31T05:44:32.000Z</time>
      </trkpt>
      <trkpt lat="46.33777" lon="5.3364">
        <ele>228.60000610352</ele>
        <time>2020-07-31T05:44:34.000Z</time>
      </trkpt>
      <trkpt lat="46.33776" lon="5.33656">
        <ele>229</ele>
        <time>2020-07-31T05:44:36.000Z</time>
      </trkpt>
      <trkpt lat="46.33776" lon="5.33672">
        <ele>229</ele>
        <time>2020-07-31T05:44:38.000Z</time>
      </trkpt>
      <trkpt lat="46.33776" lon="5.33687">
        <ele>229.19999694824</ele>
        <time>2020-07-31T05:44:40.000Z</time>
      </trkpt>
      <trkpt lat="46.33775" lon="5.33703">
        <ele>229.80000305176</ele>
        <time>2020-07-31T05:44:42.000Z</time>
      </trkpt>
      <trkpt lat="46.33775" lon="5.3371">
        <ele>230</ele>
        <time>2020-07-31T05:44:43.000Z</time>
      </trkpt>
      <trkpt lat="46.33774" lon="5.33717">
        <ele>230</ele>
        <time>2020-07-31T05:44:44.000Z</time>
      </trkpt>
      <trkpt lat="46.33774" lon="5.3373">
        <ele>230.60000610352</ele>
        <time>2020-07-31T05:44:46.000Z</time>
      </trkpt>
      <trkpt lat="46.33773" lon="5.33743">
        <ele>230.80000305176</ele>
        <time>2020-07-31T05:44:48.000Z</time>
      </trkpt>
      <trkpt lat="46.33773" lon="5.33749">
        <ele>231</ele>
        <time>2020-07-31T05:44:49.000Z</time>
      </trkpt>
      <trkpt lat="46.33772" lon="5.33755">
        <ele>231.19999694824</ele>
        <time>2020-07-31T05:44:50.000Z</time>
      </trkpt>
      <trkpt lat="46.33771" lon="5.33767">
        <ele>231.80000305176</ele>
        <time>2020-07-31T05:44:52.000Z</time>
      </trkpt>
      <trkpt lat="46.3377" lon="5.33778">
        <ele>232</ele>
        <time>2020-07-31T05:44:54.000Z</time>
      </trkpt>
      <trkpt lat="46.33769" lon="5.33783">
        <ele>232.19999694824</ele>
        <time>2020-07-31T05:44:55.000Z</time>
      </trkpt>
      <trkpt lat="46.33768" lon="5.33789">
        <ele>232.60000610352</ele>
        <time>2020-07-31T05:44:56.000Z</time>
      </trkpt>
      <trkpt lat="46.33767" lon="5.33801">
        <ele>233.19999694824</ele>
        <time>2020-07-31T05:44:58.000Z</time>
      </trkpt>
      <trkpt lat="46.33766" lon="5.33812">
        <ele>234.19999694824</ele>
        <time>2020-07-31T05:45:00.000Z</time>
      </trkpt>
      <trkpt lat="46.33764" lon="5.33824">
        <ele>234.80000305176</ele>
        <time>2020-07-31T05:45:02.000Z</time>
      </trkpt>
      <trkpt lat="46.33763" lon="5.33835">
        <ele>235</ele>
        <time>2020-07-31T05:45:04.000Z</time>
      </trkpt>
      <trkpt lat="46.33762" lon="5.33841">
        <ele>235.39999389648</ele>
        <time>2020-07-31T05:45:05.000Z</time>
      </trkpt>
      <trkpt lat="46.33761" lon="5.33846">
        <ele>235.60000610352</ele>
        <time>2020-07-31T05:45:06.000Z</time>
      </trkpt>
      <trkpt lat="46.33761" lon="5.33857">
        <ele>236</ele>
        <time>2020-07-31T05:45:08.000Z</time>
      </trkpt>
      <trkpt lat="46.33759" lon="5.33867">
        <ele>236.39999389648</ele>
        <time>2020-07-31T05:45:10.000Z</time>
      </trkpt>
      <trkpt lat="46.33759" lon="5.33873">
        <ele>236.60000610352</ele>
        <time>2020-07-31T05:45:11.000Z</time>
      </trkpt>
      <trkpt lat="46.33758" lon="5.33878">
        <ele>236.80000305176</ele>
        <time>2020-07-31T05:45:12.000Z</time>
      </trkpt>
      <trkpt lat="46.33757" lon="5.33888">
        <ele>237.19999694824</ele>
        <time>2020-07-31T05:45:14.000Z</time>
      </trkpt>
      <trkpt lat="46.33756" lon="5.33893">
        <ele>237.39999389648</ele>
        <time>2020-07-31T05:45:15.000Z</time>
      </trkpt>
      <trkpt lat="46.33756" lon="5.33898">
        <ele>237.80000305176</ele>
        <time>2020-07-31T05:45:16.000Z</time>
      </trkpt>
      <trkpt lat="46.33756" lon="5.33908">
        <ele>238.19999694824</ele>
        <time>2020-07-31T05:45:18.000Z</time>
      </trkpt>
      <trkpt lat="46.33756" lon="5.33917">
        <ele>238.60000610352</ele>
        <time>2020-07-31T05:45:20.000Z</time>
      </trkpt>
      <trkpt lat="46.33756" lon="5.33922">
        <ele>238.80000305176</ele>
        <time>2020-07-31T05:45:21.000Z</time>
      </trkpt>
      <trkpt lat="46.33756" lon="5.33927">
        <ele>239.19999694824</ele>
        <time>2020-07-31T05:45:22.000Z</time>
      </trkpt>
      <trkpt lat="46.33757" lon="5.33937">
        <ele>239.60000610352</ele>
        <time>2020-07-31T05:45:24.000Z</time>
      </trkpt>
      <trkpt lat="46.33758" lon="5.33947">
        <ele>240.19999694824</ele>
        <time>2020-07-31T05:45:26.000Z</time>
      </trkpt>
      <trkpt lat="46.33758" lon="5.33957">
        <ele>240.60000610352</ele>
        <time>2020-07-31T05:45:28.000Z</time>
      </trkpt>
      <trkpt lat="46.33759" lon="5.33962">
        <ele>240.80000305176</ele>
        <time>2020-07-31T05:45:29.000Z</time>
      </trkpt>
      <trkpt lat="46.33759" lon="5.33967">
        <ele>241.39999389648</ele>
        <time>2020-07-31T05:45:30.000Z</time>
      </trkpt>
      <trkpt lat="46.3376" lon="5.33977">
        <ele>241.80000305176</ele>
        <time>2020-07-31T05:45:32.000Z</time>
      </trkpt>
      <trkpt lat="46.33761" lon="5.33982">
        <ele>241.80000305176</ele>
        <time>2020-07-31T05:45:33.000Z</time>
      </trkpt>
      <trkpt lat="46.33761" lon="5.33987">
        <ele>242</ele>
        <time>2020-07-31T05:45:34.000Z</time>
      </trkpt>
      <trkpt lat="46.33762" lon="5.33997">
        <ele>242.39999389648</ele>
        <time>2020-07-31T05:45:36.000Z</time>
      </trkpt>
      <trkpt lat="46.33763" lon="5.34007">
        <ele>243</ele>
        <time>2020-07-31T05:45:38.000Z</time>
      </trkpt>
      <trkpt lat="46.33763" lon="5.34012">
        <ele>243.19999694824</ele>
        <time>2020-07-31T05:45:39.000Z</time>
      </trkpt>
      <trkpt lat="46.33764" lon="5.34017">
        <ele>243.39999389648</ele>
        <time>2020-07-31T05:45:40.000Z</time>
      </trkpt>
      <trkpt lat="46.33765" lon="5.34028">
        <ele>243.80000305176</ele>
        <time>2020-07-31T05:45:42.000Z</time>
      </trkpt>
      <trkpt lat="46.33765" lon="5.34033">
        <ele>244</ele>
        <time>2020-07-31T05:45:43.000Z</time>
      </trkpt>
      <trkpt lat="46.33766" lon="5.34038">
        <ele>244.19999694824</ele>
        <time>2020-07-31T05:45:44.000Z</time>
      </trkpt>
      <trkpt lat="46.33767" lon="5.34049">
        <ele>244.60000610352</ele>
        <time>2020-07-31T05:45:46.000Z</time>
      </trkpt>
      <trkpt lat="46.33768" lon="5.34054">
        <ele>245</ele>
        <time>2020-07-31T05:45:47.000Z</time>
      </trkpt>
      <trkpt lat="46.33768" lon="5.34059">
        <ele>245.19999694824</ele>
        <time>2020-07-31T05:45:48.000Z</time>
      </trkpt>
      <trkpt lat="46.3377" lon="5.3407">
        <ele>245.60000610352</ele>
        <time>2020-07-31T05:45:50.000Z</time>
      </trkpt>
      <trkpt lat="46.33771" lon="5.34081">
        <ele>246</ele>
        <time>2020-07-31T05:45:52.000Z</time>
      </trkpt>
      <trkpt lat="46.33772" lon="5.34092">
        <ele>246.19999694824</ele>
        <time>2020-07-31T05:45:54.000Z</time>
      </trkpt>
      <trkpt lat="46.33773" lon="5.34103">
        <ele>246.60000610352</ele>
        <time>2020-07-31T05:45:56.000Z</time>
      </trkpt>
      <trkpt lat="46.33775" lon="5.34114">
        <ele>247.19999694824</ele>
        <time>2020-07-31T05:45:58.000Z</time>
      </trkpt>
      <trkpt lat="46.33775" lon="5.34119">
        <ele>247.80000305176</ele>
        <time>2020-07-31T05:45:59.000Z</time>
      </trkpt>
      <trkpt lat="46.33776" lon="5.34125">
        <ele>248</ele>
        <time>2020-07-31T05:46:00.000Z</time>
      </trkpt>
      <trkpt lat="46.33777" lon="5.34136">
        <ele>248.19999694824</ele>
        <time>2020-07-31T05:46:02.000Z</time>
      </trkpt>
      <trkpt lat="46.33778" lon="5.34148">
        <ele>248.60000610352</ele>
        <time>2020-07-31T05:46:04.000Z</time>
      </trkpt>
      <trkpt lat="46.33778" lon="5.34155">
        <ele>248.80000305176</ele>
        <time>2020-07-31T05:46:05.000Z</time>
      </trkpt>
      <trkpt lat="46.33779" lon="5.34161">
        <ele>249</ele>
        <time>2020-07-31T05:46:06.000Z</time>
      </trkpt>
      <trkpt lat="46.33779" lon="5.34168">
        <ele>249.19999694824</ele>
        <time>2020-07-31T05:46:07.000Z</time>
      </trkpt>
      <trkpt lat="46.33779" lon="5.34174">
        <ele>249.19999694824</ele>
        <time>2020-07-31T05:46:08.000Z</time>
      </trkpt>
      <trkpt lat="46.33779" lon="5.34188">
        <ele>249.60000610352</ele>
        <time>2020-07-31T05:46:10.000Z</time>
      </trkpt>
      <trkpt lat="46.33779" lon="5.34203">
        <ele>249.80000305176</ele>
        <time>2020-07-31T05:46:12.000Z</time>
      </trkpt>
      <trkpt lat="46.33778" lon="5.34218">
        <ele>250</ele>
        <time>2020-07-31T05:46:14.000Z</time>
      </trkpt>
      <trkpt lat="46.33778" lon="5.34225">
        <ele>250</ele>
        <time>2020-07-31T05:46:15.000Z</time>
      </trkpt>
      <trkpt lat="46.33778" lon="5.34233">
        <ele>250</ele>
        <time>2020-07-31T05:46:16.000Z</time>
      </trkpt>
      <trkpt lat="46.33777" lon="5.3425">
        <ele>250</ele>
        <time>2020-07-31T05:46:18.000Z</time>
      </trkpt>
      <trkpt lat="46.33777" lon="5.34266">
        <ele>250</ele>
        <time>2020-07-31T05:46:20.000Z</time>
      </trkpt>
      <trkpt lat="46.33778" lon="5.34283">
        <ele>250</ele>
        <time>2020-07-31T05:46:22.000Z</time>
      </trkpt>
      <trkpt lat="46.33779" lon="5.343">
        <ele>249.80000305176</ele>
        <time>2020-07-31T05:46:24.000Z</time>
      </trkpt>
      <trkpt lat="46.33784" lon="5.34316">
        <ele>249.80000305176</ele>
        <time>2020-07-31T05:46:26.000Z</time>
      </trkpt>
      <trkpt lat="46.33789" lon="5.3433">
        <ele>249.80000305176</ele>
        <time>2020-07-31T05:46:28.000Z</time>
      </trkpt>
      <trkpt lat="46.33796" lon="5.34343">
        <ele>249.80000305176</ele>
        <time>2020-07-31T05:46:30.000Z</time>
      </trkpt>
      <trkpt lat="46.33799" lon="5.34349">
        <ele>249.80000305176</ele>
        <time>2020-07-31T05:46:31.000Z</time>
      </trkpt>
      <trkpt lat="46.33803" lon="5.34355">
        <ele>249.80000305176</ele>
        <time>2020-07-31T05:46:32.000Z</time>
      </trkpt>
      <trkpt lat="46.3381" lon="5.34367">
        <ele>249.80000305176</ele>
        <time>2020-07-31T05:46:34.000Z</time>
      </trkpt>
      <trkpt lat="46.33818" lon="5.34378">
        <ele>250</ele>
        <time>2020-07-31T05:46:36.000Z</time>
      </trkpt>
      <trkpt lat="46.33825" lon="5.3439">
        <ele>250.19999694824</ele>
        <time>2020-07-31T05:46:38.000Z</time>
      </trkpt>
      <trkpt lat="46.33831" lon="5.34401">
        <ele>250.39999389648</ele>
        <time>2020-07-31T05:46:40.000Z</time>
      </trkpt>
      <trkpt lat="46.33834" lon="5.34408">
        <ele>250.60000610352</ele>
        <time>2020-07-31T05:46:41.000Z</time>
      </trkpt>
      <trkpt lat="46.33838" lon="5.34414">
        <ele>250.80000305176</ele>
        <time>2020-07-31T05:46:42.000Z</time>
      </trkpt>
      <trkpt lat="46.33841" lon="5.3442">
        <ele>251</ele>
        <time>2020-07-31T05:46:43.000Z</time>
      </trkpt>
      <trkpt lat="46.33844" lon="5.34427">
        <ele>251.19999694824</ele>
        <time>2020-07-31T05:46:44.000Z</time>
      </trkpt>
      <trkpt lat="46.33849" lon="5.3444">
        <ele>251.39999389648</ele>
        <time>2020-07-31T05:46:46.000Z</time>
      </trkpt>
      <trkpt lat="46.33853" lon="5.34455">
        <ele>251.60000610352</ele>
        <time>2020-07-31T05:46:48.000Z</time>
      </trkpt>
      <trkpt lat="46.33855" lon="5.34463">
        <ele>251.80000305176</ele>
        <time>2020-07-31T05:46:49.000Z</time>
      </trkpt>
      <trkpt lat="46.33856" lon="5.34471">
        <ele>252</ele>
        <time>2020-07-31T05:46:50.000Z</time>
      </trkpt>
      <trkpt lat="46.33857" lon="5.34479">
        <ele>252</ele>
        <time>2020-07-31T05:46:51.000Z</time>
      </trkpt>
      <trkpt lat="46.33858" lon="5.34487">
        <ele>252.19999694824</ele>
        <time>2020-07-31T05:46:52.000Z</time>
      </trkpt>
      <trkpt lat="46.33859" lon="5.34503">
        <ele>252.39999389648</ele>
        <time>2020-07-31T05:46:54.000Z</time>
      </trkpt>
      <trkpt lat="46.33859" lon="5.34511">
        <ele>252.39999389648</ele>
        <time>2020-07-31T05:46:55.000Z</time>
      </trkpt>
      <trkpt lat="46.33859" lon="5.34519">
        <ele>252.60000610352</ele>
        <time>2020-07-31T05:46:56.000Z</time>
      </trkpt>
      <trkpt lat="46.33859" lon="5.34536">
        <ele>252.60000610352</ele>
        <time>2020-07-31T05:46:58.000Z</time>
      </trkpt>
      <trkpt lat="46.33859" lon="5.34552">
        <ele>252.80000305176</ele>
        <time>2020-07-31T05:47:00.000Z</time>
      </trkpt>
      <trkpt lat="46.33859" lon="5.34569">
        <ele>252.80000305176</ele>
        <time>2020-07-31T05:47:02.000Z</time>
      </trkpt>
      <trkpt lat="46.33859" lon="5.34586">
        <ele>253</ele>
        <time>2020-07-31T05:47:04.000Z</time>
      </trkpt>
      <trkpt lat="46.33858" lon="5.34602">
        <ele>253</ele>
        <time>2020-07-31T05:47:06.000Z</time>
      </trkpt>
      <trkpt lat="46.33857" lon="5.34619">
        <ele>253</ele>
        <time>2020-07-31T05:47:08.000Z</time>
      </trkpt>
      <trkpt lat="46.33857" lon="5.34627">
        <ele>253</ele>
        <time>2020-07-31T05:47:09.000Z</time>
      </trkpt>
      <trkpt lat="46.33856" lon="5.34636">
        <ele>253.19999694824</ele>
        <time>2020-07-31T05:47:10.000Z</time>
      </trkpt>
      <trkpt lat="46.33855" lon="5.34653">
        <ele>253.19999694824</ele>
        <time>2020-07-31T05:47:12.000Z</time>
      </trkpt>
      <trkpt lat="46.33854" lon="5.34671">
        <ele>253.19999694824</ele>
        <time>2020-07-31T05:47:14.000Z</time>
      </trkpt>
      <trkpt lat="46.33853" lon="5.34689">
        <ele>253.19999694824</ele>
        <time>2020-07-31T05:47:16.000Z</time>
      </trkpt>
      <trkpt lat="46.33852" lon="5.34698">
        <ele>253.19999694824</ele>
        <time>2020-07-31T05:47:17.000Z</time>
      </trkpt>
      <trkpt lat="46.33851" lon="5.34707">
        <ele>253.19999694824</ele>
        <time>2020-07-31T05:47:18.000Z</time>
      </trkpt>
      <trkpt lat="46.33849" lon="5.34726">
        <ele>253.19999694824</ele>
        <time>2020-07-31T05:47:20.000Z</time>
      </trkpt>
      <trkpt lat="46.33846" lon="5.34744">
        <ele>253.39999389648</ele>
        <time>2020-07-31T05:47:22.000Z</time>
      </trkpt>
      <trkpt lat="46.33843" lon="5.34762">
        <ele>253.39999389648</ele>
        <time>2020-07-31T05:47:24.000Z</time>
      </trkpt>
      <trkpt lat="46.33841" lon="5.34779">
        <ele>253.39999389648</ele>
        <time>2020-07-31T05:47:26.000Z</time>
      </trkpt>
      <trkpt lat="46.33839" lon="5.34788">
        <ele>253.39999389648</ele>
        <time>2020-07-31T05:47:27.000Z</time>
      </trkpt>
      <trkpt lat="46.33838" lon="5.34796">
        <ele>253.39999389648</ele>
        <time>2020-07-31T05:47:28.000Z</time>
      </trkpt>
      <trkpt lat="46.33835" lon="5.34813">
        <ele>253.39999389648</ele>
        <time>2020-07-31T05:47:30.000Z</time>
      </trkpt>
      <trkpt lat="46.33832" lon="5.3483">
        <ele>253.39999389648</ele>
        <time>2020-07-31T05:47:32.000Z</time>
      </trkpt>
      <trkpt lat="46.33829" lon="5.34846">
        <ele>253.39999389648</ele>
        <time>2020-07-31T05:47:34.000Z</time>
      </trkpt>
      <trkpt lat="46.33827" lon="5.34855">
        <ele>253.39999389648</ele>
        <time>2020-07-31T05:47:35.000Z</time>
      </trkpt>
      <trkpt lat="46.33826" lon="5.34863">
        <ele>253.39999389648</ele>
        <time>2020-07-31T05:47:36.000Z</time>
      </trkpt>
      <trkpt lat="46.33824" lon="5.34879">
        <ele>253.60000610352</ele>
        <time>2020-07-31T05:47:38.000Z</time>
      </trkpt>
      <trkpt lat="46.33822" lon="5.34896">
        <ele>253.80000305176</ele>
        <time>2020-07-31T05:47:40.000Z</time>
      </trkpt>
      <trkpt lat="46.33821" lon="5.34913">
        <ele>253.80000305176</ele>
        <time>2020-07-31T05:47:42.000Z</time>
      </trkpt>
      <trkpt lat="46.3382" lon="5.3493">
        <ele>254</ele>
        <time>2020-07-31T05:47:44.000Z</time>
      </trkpt>
      <trkpt lat="46.3382" lon="5.34947">
        <ele>254</ele>
        <time>2020-07-31T05:47:46.000Z</time>
      </trkpt>
      <trkpt lat="46.3382" lon="5.34955">
        <ele>254</ele>
        <time>2020-07-31T05:47:47.000Z</time>
      </trkpt>
      <trkpt lat="46.3382" lon="5.34964">
        <ele>254.19999694824</ele>
        <time>2020-07-31T05:47:48.000Z</time>
      </trkpt>
      <trkpt lat="46.3382" lon="5.34981">
        <ele>254.19999694824</ele>
        <time>2020-07-31T05:47:50.000Z</time>
      </trkpt>
      <trkpt lat="46.33819" lon="5.34998">
        <ele>254.39999389648</ele>
        <time>2020-07-31T05:47:52.000Z</time>
      </trkpt>
      <trkpt lat="46.33819" lon="5.35015">
        <ele>254.60000610352</ele>
        <time>2020-07-31T05:47:54.000Z</time>
      </trkpt>
      <trkpt lat="46.33819" lon="5.35032">
        <ele>254.80000305176</ele>
        <time>2020-07-31T05:47:56.000Z</time>
      </trkpt>
      <trkpt lat="46.33818" lon="5.35049">
        <ele>255</ele>
        <time>2020-07-31T05:47:58.000Z</time>
      </trkpt>
      <trkpt lat="46.33818" lon="5.35066">
        <ele>255</ele>
        <time>2020-07-31T05:48:00.000Z</time>
      </trkpt>
      <trkpt lat="46.33817" lon="5.35074">
        <ele>255.19999694824</ele>
        <time>2020-07-31T05:48:01.000Z</time>
      </trkpt>
      <trkpt lat="46.33817" lon="5.35082">
        <ele>255.19999694824</ele>
        <time>2020-07-31T05:48:02.000Z</time>
      </trkpt>
      <trkpt lat="46.33815" lon="5.35098">
        <ele>255.19999694824</ele>
        <time>2020-07-31T05:48:04.000Z</time>
      </trkpt>
      <trkpt lat="46.33814" lon="5.35114">
        <ele>255.19999694824</ele>
        <time>2020-07-31T05:48:06.000Z</time>
      </trkpt>
      <trkpt lat="46.33812" lon="5.3513">
        <ele>255.39999389648</ele>
        <time>2020-07-31T05:48:08.000Z</time>
      </trkpt>
      <trkpt lat="46.3381" lon="5.35146">
        <ele>255.39999389648</ele>
        <time>2020-07-31T05:48:10.000Z</time>
      </trkpt>
      <trkpt lat="46.33809" lon="5.35162">
        <ele>255.60000610352</ele>
        <time>2020-07-31T05:48:12.000Z</time>
      </trkpt>
      <trkpt lat="46.33807" lon="5.35178">
        <ele>255.80000305176</ele>
        <time>2020-07-31T05:48:14.000Z</time>
      </trkpt>
      <trkpt lat="46.33806" lon="5.35186">
        <ele>255.80000305176</ele>
        <time>2020-07-31T05:48:15.000Z</time>
      </trkpt>
      <trkpt lat="46.33805" lon="5.35194">
        <ele>256</ele>
        <time>2020-07-31T05:48:16.000Z</time>
      </trkpt>
      <trkpt lat="46.33804" lon="5.35209">
        <ele>256.20001220703</ele>
        <time>2020-07-31T05:48:18.000Z</time>
      </trkpt>
      <trkpt lat="46.33803" lon="5.35225">
        <ele>256.39999389648</ele>
        <time>2020-07-31T05:48:20.000Z</time>
      </trkpt>
      <trkpt lat="46.33803" lon="5.3524">
        <ele>256.79998779297</ele>
        <time>2020-07-31T05:48:22.000Z</time>
      </trkpt>
      <trkpt lat="46.33803" lon="5.35248">
        <ele>257</ele>
        <time>2020-07-31T05:48:23.000Z</time>
      </trkpt>
      <trkpt lat="46.33804" lon="5.35256">
        <ele>257</ele>
        <time>2020-07-31T05:48:24.000Z</time>
      </trkpt>
      <trkpt lat="46.33806" lon="5.35272">
        <ele>257.39999389648</ele>
        <time>2020-07-31T05:48:26.000Z</time>
      </trkpt>
      <trkpt lat="46.33809" lon="5.35287">
        <ele>257.39999389648</ele>
        <time>2020-07-31T05:48:28.000Z</time>
      </trkpt>
      <trkpt lat="46.33811" lon="5.35295">
        <ele>257.39999389648</ele>
        <time>2020-07-31T05:48:29.000Z</time>
      </trkpt>
      <trkpt lat="46.33813" lon="5.35303">
        <ele>257.60000610352</ele>
        <time>2020-07-31T05:48:30.000Z</time>
      </trkpt>
      <trkpt lat="46.33816" lon="5.35317">
        <ele>257.60000610352</ele>
        <time>2020-07-31T05:48:32.000Z</time>
      </trkpt>
      <trkpt lat="46.3382" lon="5.35331">
        <ele>257.79998779297</ele>
        <time>2020-07-31T05:48:34.000Z</time>
      </trkpt>
      <trkpt lat="46.33824" lon="5.35344">
        <ele>257.79998779297</ele>
        <time>2020-07-31T05:48:36.000Z</time>
      </trkpt>
      <trkpt lat="46.33826" lon="5.35351">
        <ele>258</ele>
        <time>2020-07-31T05:48:37.000Z</time>
      </trkpt>
      <trkpt lat="46.33828" lon="5.35357">
        <ele>258</ele>
        <time>2020-07-31T05:48:38.000Z</time>
      </trkpt>
      <trkpt lat="46.33829" lon="5.35363">
        <ele>258.20001220703</ele>
        <time>2020-07-31T05:48:39.000Z</time>
      </trkpt>
      <trkpt lat="46.33831" lon="5.3537">
        <ele>258.20001220703</ele>
        <time>2020-07-31T05:48:40.000Z</time>
      </trkpt>
      <trkpt lat="46.33834" lon="5.35382">
        <ele>258.60000610352</ele>
        <time>2020-07-31T05:48:42.000Z</time>
      </trkpt>
      <trkpt lat="46.33838" lon="5.35395">
        <ele>259.20001220703</ele>
        <time>2020-07-31T05:48:44.000Z</time>
      </trkpt>
      <trkpt lat="46.33841" lon="5.35408">
        <ele>259.60000610352</ele>
        <time>2020-07-31T05:48:46.000Z</time>
      </trkpt>
      <trkpt lat="46.33844" lon="5.35421">
        <ele>260</ele>
        <time>2020-07-31T05:48:48.000Z</time>
      </trkpt>
      <trkpt lat="46.33846" lon="5.35428">
        <ele>260.20001220703</ele>
        <time>2020-07-31T05:48:49.000Z</time>
      </trkpt>
      <trkpt lat="46.33848" lon="5.35434">
        <ele>260.60000610352</ele>
        <time>2020-07-31T05:48:50.000Z</time>
      </trkpt>
      <trkpt lat="46.33851" lon="5.35447">
        <ele>260.79998779297</ele>
        <time>2020-07-31T05:48:52.000Z</time>
      </trkpt>
      <trkpt lat="46.33855" lon="5.35459">
        <ele>261</ele>
        <time>2020-07-31T05:48:54.000Z</time>
      </trkpt>
      <trkpt lat="46.33858" lon="5.35472">
        <ele>261.39999389648</ele>
        <time>2020-07-31T05:48:56.000Z</time>
      </trkpt>
      <trkpt lat="46.33862" lon="5.35485">
        <ele>261.60000610352</ele>
        <time>2020-07-31T05:48:58.000Z</time>
      </trkpt>
      <trkpt lat="46.33865" lon="5.35498">
        <ele>262.20001220703</ele>
        <time>2020-07-31T05:49:00.000Z</time>
      </trkpt>
      <trkpt lat="46.33867" lon="5.35504">
        <ele>262.39999389648</ele>
        <time>2020-07-31T05:49:01.000Z</time>
      </trkpt>
      <trkpt lat="46.33868" lon="5.3551">
        <ele>262.60000610352</ele>
        <time>2020-07-31T05:49:02.000Z</time>
      </trkpt>
      <trkpt lat="46.33872" lon="5.35523">
        <ele>263</ele>
        <time>2020-07-31T05:49:04.000Z</time>
      </trkpt>
      <trkpt lat="46.33875" lon="5.35536">
        <ele>263</ele>
        <time>2020-07-31T05:49:06.000Z</time>
      </trkpt>
      <trkpt lat="46.33878" lon="5.35549">
        <ele>263.39999389648</ele>
        <time>2020-07-31T05:49:08.000Z</time>
      </trkpt>
      <trkpt lat="46.3388" lon="5.35563">
        <ele>263.79998779297</ele>
        <time>2020-07-31T05:49:10.000Z</time>
      </trkpt>
      <trkpt lat="46.33883" lon="5.35577">
        <ele>264</ele>
        <time>2020-07-31T05:49:12.000Z</time>
      </trkpt>
      <trkpt lat="46.33885" lon="5.35591">
        <ele>264.20001220703</ele>
        <time>2020-07-31T05:49:14.000Z</time>
      </trkpt>
      <trkpt lat="46.33886" lon="5.35605">
        <ele>264.39999389648</ele>
        <time>2020-07-31T05:49:16.000Z</time>
      </trkpt>
      <trkpt lat="46.33887" lon="5.35619">
        <ele>264.39999389648</ele>
        <time>2020-07-31T05:49:18.000Z</time>
      </trkpt>
      <trkpt lat="46.33888" lon="5.35626">
        <ele>264.60000610352</ele>
        <time>2020-07-31T05:49:19.000Z</time>
      </trkpt>
      <trkpt lat="46.33888" lon="5.35633">
        <ele>264.60000610352</ele>
        <time>2020-07-31T05:49:20.000Z</time>
      </trkpt>
      <trkpt lat="46.33888" lon="5.35647">
        <ele>264.79998779297</ele>
        <time>2020-07-31T05:49:22.000Z</time>
      </trkpt>
      <trkpt lat="46.33888" lon="5.35659">
        <ele>265.20001220703</ele>
        <time>2020-07-31T05:49:24.000Z</time>
      </trkpt>
      <trkpt lat="46.33888" lon="5.35671">
        <ele>265.20001220703</ele>
        <time>2020-07-31T05:49:26.000Z</time>
      </trkpt>
      <trkpt lat="46.33888" lon="5.35677">
        <ele>265.39999389648</ele>
        <time>2020-07-31T05:49:27.000Z</time>
      </trkpt>
      <trkpt lat="46.33888" lon="5.35684">
        <ele>265.39999389648</ele>
        <time>2020-07-31T05:49:28.000Z</time>
      </trkpt>
      <trkpt lat="46.33888" lon="5.3569">
        <ele>265.60000610352</ele>
        <time>2020-07-31T05:49:29.000Z</time>
      </trkpt>
      <trkpt lat="46.33888" lon="5.35695">
        <ele>265.79998779297</ele>
        <time>2020-07-31T05:49:30.000Z</time>
      </trkpt>
      <trkpt lat="46.33888" lon="5.35707">
        <ele>266.39999389648</ele>
        <time>2020-07-31T05:49:32.000Z</time>
      </trkpt>
      <trkpt lat="46.33888" lon="5.35713">
        <ele>266.79998779297</ele>
        <time>2020-07-31T05:49:33.000Z</time>
      </trkpt>
      <trkpt lat="46.33888" lon="5.35718">
        <ele>267</ele>
        <time>2020-07-31T05:49:34.000Z</time>
      </trkpt>
      <trkpt lat="46.33888" lon="5.3573">
        <ele>267.20001220703</ele>
        <time>2020-07-31T05:49:36.000Z</time>
      </trkpt>
      <trkpt lat="46.33888" lon="5.35742">
        <ele>267.39999389648</ele>
        <time>2020-07-31T05:49:38.000Z</time>
      </trkpt>
      <trkpt lat="46.33888" lon="5.35748">
        <ele>267.60000610352</ele>
        <time>2020-07-31T05:49:39.000Z</time>
      </trkpt>
      <trkpt lat="46.33889" lon="5.35753">
        <ele>267.79998779297</ele>
        <time>2020-07-31T05:49:40.000Z</time>
      </trkpt>
      <trkpt lat="46.3389" lon="5.35765">
        <ele>268.20001220703</ele>
        <time>2020-07-31T05:49:42.000Z</time>
      </trkpt>
      <trkpt lat="46.33891" lon="5.35776">
        <ele>268.60000610352</ele>
        <time>2020-07-31T05:49:44.000Z</time>
      </trkpt>
      <trkpt lat="46.33893" lon="5.35788">
        <ele>269</ele>
        <time>2020-07-31T05:49:46.000Z</time>
      </trkpt>
      <trkpt lat="46.33895" lon="5.35799">
        <ele>269.20001220703</ele>
        <time>2020-07-31T05:49:48.000Z</time>
      </trkpt>
      <trkpt lat="46.33896" lon="5.3581">
        <ele>269.39999389648</ele>
        <time>2020-07-31T05:49:50.000Z</time>
      </trkpt>
      <trkpt lat="46.33898" lon="5.3582">
        <ele>269.79998779297</ele>
        <time>2020-07-31T05:49:52.000Z</time>
      </trkpt>
      <trkpt lat="46.33899" lon="5.35826">
        <ele>270.39999389648</ele>
        <time>2020-07-31T05:49:53.000Z</time>
      </trkpt>
      <trkpt lat="46.33899" lon="5.35831">
        <ele>270.60000610352</ele>
        <time>2020-07-31T05:49:54.000Z</time>
      </trkpt>
      <trkpt lat="46.33902" lon="5.35842">
        <ele>270.79998779297</ele>
        <time>2020-07-31T05:49:56.000Z</time>
      </trkpt>
      <trkpt lat="46.33904" lon="5.35853">
        <ele>271.20001220703</ele>
        <time>2020-07-31T05:49:58.000Z</time>
      </trkpt>
      <trkpt lat="46.33907" lon="5.35863">
        <ele>271.60000610352</ele>
        <time>2020-07-31T05:50:00.000Z</time>
      </trkpt>
      <trkpt lat="46.33911" lon="5.35873">
        <ele>272</ele>
        <time>2020-07-31T05:50:02.000Z</time>
      </trkpt>
      <trkpt lat="46.33914" lon="5.35883">
        <ele>272.39999389648</ele>
        <time>2020-07-31T05:50:04.000Z</time>
      </trkpt>
      <trkpt lat="46.33917" lon="5.35893">
        <ele>272.60000610352</ele>
        <time>2020-07-31T05:50:06.000Z</time>
      </trkpt>
      <trkpt lat="46.33921" lon="5.35903">
        <ele>273</ele>
        <time>2020-07-31T05:50:08.000Z</time>
      </trkpt>
      <trkpt lat="46.33924" lon="5.35913">
        <ele>273.60000610352</ele>
        <time>2020-07-31T05:50:10.000Z</time>
      </trkpt>
      <trkpt lat="46.33926" lon="5.35918">
        <ele>273.79998779297</ele>
        <time>2020-07-31T05:50:11.000Z</time>
      </trkpt>
      <trkpt lat="46.33928" lon="5.35923">
        <ele>274</ele>
        <time>2020-07-31T05:50:12.000Z</time>
      </trkpt>
      <trkpt lat="46.33931" lon="5.35933">
        <ele>274.39999389648</ele>
        <time>2020-07-31T05:50:14.000Z</time>
      </trkpt>
      <trkpt lat="46.33934" lon="5.35943">
        <ele>274.79998779297</ele>
        <time>2020-07-31T05:50:16.000Z</time>
      </trkpt>
      <trkpt lat="46.33936" lon="5.35948">
        <ele>275</ele>
        <time>2020-07-31T05:50:17.000Z</time>
      </trkpt>
      <trkpt lat="46.33937" lon="5.35953">
        <ele>275.20001220703</ele>
        <time>2020-07-31T05:50:18.000Z</time>
      </trkpt>
      <trkpt lat="46.33939" lon="5.35958">
        <ele>275.39999389648</ele>
        <time>2020-07-31T05:50:19.000Z</time>
      </trkpt>
      <trkpt lat="46.33941" lon="5.35963">
        <ele>275.60000610352</ele>
        <time>2020-07-31T05:50:20.000Z</time>
      </trkpt>
      <trkpt lat="46.33944" lon="5.35974">
        <ele>276.39999389648</ele>
        <time>2020-07-31T05:50:22.000Z</time>
      </trkpt>
      <trkpt lat="46.33948" lon="5.35985">
        <ele>276.60000610352</ele>
        <time>2020-07-31T05:50:24.000Z</time>
      </trkpt>
      <trkpt lat="46.33951" lon="5.35995">
        <ele>277</ele>
        <time>2020-07-31T05:50:26.000Z</time>
      </trkpt>
      <trkpt lat="46.33955" lon="5.36005">
        <ele>277.39999389648</ele>
        <time>2020-07-31T05:50:28.000Z</time>
      </trkpt>
      <trkpt lat="46.33959" lon="5.36015">
        <ele>277.60000610352</ele>
        <time>2020-07-31T05:50:30.000Z</time>
      </trkpt>
      <trkpt lat="46.33961" lon="5.3602">
        <ele>277.79998779297</ele>
        <time>2020-07-31T05:50:31.000Z</time>
      </trkpt>
      <trkpt lat="46.33963" lon="5.36025">
        <ele>278</ele>
        <time>2020-07-31T05:50:32.000Z</time>
      </trkpt>
      <trkpt lat="46.33967" lon="5.36034">
        <ele>278.39999389648</ele>
        <time>2020-07-31T05:50:34.000Z</time>
      </trkpt>
      <trkpt lat="46.33969" lon="5.36039">
        <ele>278.60000610352</ele>
        <time>2020-07-31T05:50:35.000Z</time>
      </trkpt>
      <trkpt lat="46.33972" lon="5.36044">
        <ele>278.60000610352</ele>
        <time>2020-07-31T05:50:36.000Z</time>
      </trkpt>
      <trkpt lat="46.33977" lon="5.36053">
        <ele>279</ele>
        <time>2020-07-31T05:50:38.000Z</time>
      </trkpt>
      <trkpt lat="46.33982" lon="5.36062">
        <ele>279.39999389648</ele>
        <time>2020-07-31T05:50:40.000Z</time>
      </trkpt>
      <trkpt lat="46.33986" lon="5.3607">
        <ele>279.60000610352</ele>
        <time>2020-07-31T05:50:42.000Z</time>
      </trkpt>
      <trkpt lat="46.33991" lon="5.36079">
        <ele>280</ele>
        <time>2020-07-31T05:50:44.000Z</time>
      </trkpt>
      <trkpt lat="46.33996" lon="5.36088">
        <ele>280.39999389648</ele>
        <time>2020-07-31T05:50:46.000Z</time>
      </trkpt>
      <trkpt lat="46.33998" lon="5.36092">
        <ele>280.79998779297</ele>
        <time>2020-07-31T05:50:47.000Z</time>
      </trkpt>
      <trkpt lat="46.34001" lon="5.36096">
        <ele>281.20001220703</ele>
        <time>2020-07-31T05:50:48.000Z</time>
      </trkpt>
      <trkpt lat="46.34003" lon="5.36099">
        <ele>281.39999389648</ele>
        <time>2020-07-31T05:50:49.000Z</time>
      </trkpt>
      <trkpt lat="46.34004" lon="5.36103">
        <ele>281.60000610352</ele>
        <time>2020-07-31T05:50:50.000Z</time>
      </trkpt>
      <trkpt lat="46.34007" lon="5.36106">
        <ele>282.39999389648</ele>
        <time>2020-07-31T05:50:52.000Z</time>
      </trkpt>
      <trkpt lat="46.34007" lon="5.36106">
        <ele>282.79998779297</ele>
        <time>2020-07-31T05:50:53.000Z</time>
      </trkpt>
      <trkpt lat="46.34007" lon="5.36106">
        <ele>283</ele>
        <time>2020-07-31T05:50:54.000Z</time>
      </trkpt>
      <trkpt lat="46.34008" lon="5.36108">
        <ele>284.79998779297</ele>
        <time>2020-07-31T05:51:09.000Z</time>
      </trkpt>
      <trkpt lat="46.34009" lon="5.3611">
        <ele>284.79998779297</ele>
        <time>2020-07-31T05:51:10.000Z</time>
      </trkpt>
      <trkpt lat="46.34013" lon="5.36115">
        <ele>284.79998779297</ele>
        <time>2020-07-31T05:51:12.000Z</time>
      </trkpt>
      <trkpt lat="46.34018" lon="5.36122">
        <ele>284.79998779297</ele>
        <time>2020-07-31T05:51:14.000Z</time>
      </trkpt>
      <trkpt lat="46.34024" lon="5.36129">
        <ele>284.79998779297</ele>
        <time>2020-07-31T05:51:16.000Z</time>
      </trkpt>
      <trkpt lat="46.34032" lon="5.36136">
        <ele>284.79998779297</ele>
        <time>2020-07-31T05:51:18.000Z</time>
      </trkpt>
      <trkpt lat="46.34039" lon="5.36143">
        <ele>284.60000610352</ele>
        <time>2020-07-31T05:51:20.000Z</time>
      </trkpt>
      <trkpt lat="46.34047" lon="5.3615">
        <ele>284.20001220703</ele>
        <time>2020-07-31T05:51:22.000Z</time>
      </trkpt>
      <trkpt lat="46.34056" lon="5.36155">
        <ele>284</ele>
        <time>2020-07-31T05:51:24.000Z</time>
      </trkpt>
      <trkpt lat="46.3406" lon="5.36157">
        <ele>283.79998779297</ele>
        <time>2020-07-31T05:51:25.000Z</time>
      </trkpt>
      <trkpt lat="46.34065" lon="5.3616">
        <ele>283.60000610352</ele>
        <time>2020-07-31T05:51:26.000Z</time>
      </trkpt>
      <trkpt lat="46.34069" lon="5.36162">
        <ele>283.60000610352</ele>
        <time>2020-07-31T05:51:27.000Z</time>
      </trkpt>
      <trkpt lat="46.34073" lon="5.36163">
        <ele>283.60000610352</ele>
        <time>2020-07-31T05:51:28.000Z</time>
      </trkpt>
      <trkpt lat="46.34083" lon="5.36166">
        <ele>283.39999389648</ele>
        <time>2020-07-31T05:51:30.000Z</time>
      </trkpt>
      <trkpt lat="46.34088" lon="5.36168">
        <ele>283.39999389648</ele>
        <time>2020-07-31T05:51:31.000Z</time>
      </trkpt>
      <trkpt lat="46.34093" lon="5.36169">
        <ele>283.39999389648</ele>
        <time>2020-07-31T05:51:32.000Z</time>
      </trkpt>
      <trkpt lat="46.34104" lon="5.36172">
        <ele>283.20001220703</ele>
        <time>2020-07-31T05:51:34.000Z</time>
      </trkpt>
      <trkpt lat="46.34114" lon="5.36177">
        <ele>283.20001220703</ele>
        <time>2020-07-31T05:51:36.000Z</time>
      </trkpt>
      <trkpt lat="46.34124" lon="5.36182">
        <ele>283</ele>
        <time>2020-07-31T05:51:38.000Z</time>
      </trkpt>
      <trkpt lat="46.34129" lon="5.36185">
        <ele>283</ele>
        <time>2020-07-31T05:51:39.000Z</time>
      </trkpt>
      <trkpt lat="46.34134" lon="5.36189">
        <ele>283</ele>
        <time>2020-07-31T05:51:40.000Z</time>
      </trkpt>
      <trkpt lat="46.34144" lon="5.36197">
        <ele>282.79998779297</ele>
        <time>2020-07-31T05:51:42.000Z</time>
      </trkpt>
      <trkpt lat="46.34153" lon="5.36206">
        <ele>282.79998779297</ele>
        <time>2020-07-31T05:51:44.000Z</time>
      </trkpt>
      <trkpt lat="46.34162" lon="5.36215">
        <ele>282.79998779297</ele>
        <time>2020-07-31T05:51:46.000Z</time>
      </trkpt>
      <trkpt lat="46.3417" lon="5.36225">
        <ele>282.79998779297</ele>
        <time>2020-07-31T05:51:48.000Z</time>
      </trkpt>
      <trkpt lat="46.34176" lon="5.36236">
        <ele>282.79998779297</ele>
        <time>2020-07-31T05:51:50.000Z</time>
      </trkpt>
      <trkpt lat="46.34179" lon="5.36242">
        <ele>282.79998779297</ele>
        <time>2020-07-31T05:51:51.000Z</time>
      </trkpt>
      <trkpt lat="46.34182" lon="5.36248">
        <ele>282.79998779297</ele>
        <time>2020-07-31T05:51:52.000Z</time>
      </trkpt>
      <trkpt lat="46.34188" lon="5.3626">
        <ele>282.60000610352</ele>
        <time>2020-07-31T05:51:54.000Z</time>
      </trkpt>
      <trkpt lat="46.34193" lon="5.36273">
        <ele>282.60000610352</ele>
        <time>2020-07-31T05:51:56.000Z</time>
      </trkpt>
      <trkpt lat="46.34198" lon="5.36286">
        <ele>282.60000610352</ele>
        <time>2020-07-31T05:51:58.000Z</time>
      </trkpt>
      <trkpt lat="46.342" lon="5.36292">
        <ele>282.79998779297</ele>
        <time>2020-07-31T05:51:59.000Z</time>
      </trkpt>
      <trkpt lat="46.34202" lon="5.36298">
        <ele>282.79998779297</ele>
        <time>2020-07-31T05:52:00.000Z</time>
      </trkpt>
      <trkpt lat="46.34207" lon="5.3631">
        <ele>283</ele>
        <time>2020-07-31T05:52:02.000Z</time>
      </trkpt>
      <trkpt lat="46.34211" lon="5.36323">
        <ele>283.20001220703</ele>
        <time>2020-07-31T05:52:04.000Z</time>
      </trkpt>
      <trkpt lat="46.34215" lon="5.36336">
        <ele>283.39999389648</ele>
        <time>2020-07-31T05:52:06.000Z</time>
      </trkpt>
      <trkpt lat="46.3422" lon="5.36349">
        <ele>283.60000610352</ele>
        <time>2020-07-31T05:52:08.000Z</time>
      </trkpt>
      <trkpt lat="46.34225" lon="5.36363">
        <ele>283.79998779297</ele>
        <time>2020-07-31T05:52:10.000Z</time>
      </trkpt>
      <trkpt lat="46.34229" lon="5.36376">
        <ele>283.79998779297</ele>
        <time>2020-07-31T05:52:12.000Z</time>
      </trkpt>
      <trkpt lat="46.34234" lon="5.3639">
        <ele>284</ele>
        <time>2020-07-31T05:52:14.000Z</time>
      </trkpt>
      <trkpt lat="46.34238" lon="5.36403">
        <ele>284</ele>
        <time>2020-07-31T05:52:16.000Z</time>
      </trkpt>
      <trkpt lat="46.34241" lon="5.36416">
        <ele>284</ele>
        <time>2020-07-31T05:52:18.000Z</time>
      </trkpt>
      <trkpt lat="46.34241" lon="5.36431">
        <ele>284</ele>
        <time>2020-07-31T05:52:20.000Z</time>
      </trkpt>
      <trkpt lat="46.34237" lon="5.36446">
        <ele>284</ele>
        <time>2020-07-31T05:52:22.000Z</time>
      </trkpt>
      <trkpt lat="46.34234" lon="5.36453">
        <ele>284</ele>
        <time>2020-07-31T05:52:23.000Z</time>
      </trkpt>
      <trkpt lat="46.3423" lon="5.36459">
        <ele>284</ele>
        <time>2020-07-31T05:52:24.000Z</time>
      </trkpt>
      <trkpt lat="46.34222" lon="5.3647">
        <ele>284</ele>
        <time>2020-07-31T05:52:26.000Z</time>
      </trkpt>
      <trkpt lat="46.34214" lon="5.36479">
        <ele>284.20001220703</ele>
        <time>2020-07-31T05:52:28.000Z</time>
      </trkpt>
      <trkpt lat="46.34207" lon="5.36487">
        <ele>284.20001220703</ele>
        <time>2020-07-31T05:52:30.000Z</time>
      </trkpt>
      <trkpt lat="46.342" lon="5.36496">
        <ele>284.39999389648</ele>
        <time>2020-07-31T05:52:32.000Z</time>
      </trkpt>
      <trkpt lat="46.34193" lon="5.36504">
        <ele>284.39999389648</ele>
        <time>2020-07-31T05:52:34.000Z</time>
      </trkpt>
      <trkpt lat="46.3419" lon="5.36508">
        <ele>284.39999389648</ele>
        <time>2020-07-31T05:52:35.000Z</time>
      </trkpt>
      <trkpt lat="46.34186" lon="5.36512">
        <ele>284.60000610352</ele>
        <time>2020-07-31T05:52:36.000Z</time>
      </trkpt>
      <trkpt lat="46.34179" lon="5.36519">
        <ele>285.20001220703</ele>
        <time>2020-07-31T05:52:38.000Z</time>
      </trkpt>
      <trkpt lat="46.34173" lon="5.36527">
        <ele>285.60000610352</ele>
        <time>2020-07-31T05:52:40.000Z</time>
      </trkpt>
      <trkpt lat="46.34166" lon="5.36535">
        <ele>286.20001220703</ele>
        <time>2020-07-31T05:52:42.000Z</time>
      </trkpt>
      <trkpt lat="46.3416" lon="5.36544">
        <ele>286.79998779297</ele>
        <time>2020-07-31T05:52:44.000Z</time>
      </trkpt>
      <trkpt lat="46.34154" lon="5.36551">
        <ele>287.20001220703</ele>
        <time>2020-07-31T05:52:46.000Z</time>
      </trkpt>
      <trkpt lat="46.34149" lon="5.36559">
        <ele>287.79998779297</ele>
        <time>2020-07-31T05:52:48.000Z</time>
      </trkpt>
      <trkpt lat="46.34146" lon="5.36563">
        <ele>288</ele>
        <time>2020-07-31T05:52:49.000Z</time>
      </trkpt>
      <trkpt lat="46.34143" lon="5.36567">
        <ele>288.20001220703</ele>
        <time>2020-07-31T05:52:50.000Z</time>
      </trkpt>
      <trkpt lat="46.3414" lon="5.3657">
        <ele>288.39999389648</ele>
        <time>2020-07-31T05:52:51.000Z</time>
      </trkpt>
      <trkpt lat="46.34138" lon="5.36574">
        <ele>288.60000610352</ele>
        <time>2020-07-31T05:52:52.000Z</time>
      </trkpt>
      <trkpt lat="46.34132" lon="5.36581">
        <ele>289</ele>
        <time>2020-07-31T05:52:54.000Z</time>
      </trkpt>
      <trkpt lat="46.34127" lon="5.36587">
        <ele>289.39999389648</ele>
        <time>2020-07-31T05:52:56.000Z</time>
      </trkpt>
      <trkpt lat="46.34121" lon="5.36593">
        <ele>289.79998779297</ele>
        <time>2020-07-31T05:52:58.000Z</time>
      </trkpt>
      <trkpt lat="46.34116" lon="5.36599">
        <ele>290.20001220703</ele>
        <time>2020-07-31T05:53:00.000Z</time>
      </trkpt>
      <trkpt lat="46.3411" lon="5.36604">
        <ele>290.60000610352</ele>
        <time>2020-07-31T05:53:02.000Z</time>
      </trkpt>
      <trkpt lat="46.34104" lon="5.36607">
        <ele>291.20001220703</ele>
        <time>2020-07-31T05:53:04.000Z</time>
      </trkpt>
      <trkpt lat="46.34097" lon="5.3661">
        <ele>291.79998779297</ele>
        <time>2020-07-31T05:53:06.000Z</time>
      </trkpt>
      <trkpt lat="46.34093" lon="5.36611">
        <ele>292</ele>
        <time>2020-07-31T05:53:07.000Z</time>
      </trkpt>
      <trkpt lat="46.3409" lon="5.36612">
        <ele>292.20001220703</ele>
        <time>2020-07-31T05:53:08.000Z</time>
      </trkpt>
      <trkpt lat="46.34082" lon="5.36613">
        <ele>292.79998779297</ele>
        <time>2020-07-31T05:53:10.000Z</time>
      </trkpt>
      <trkpt lat="46.34074" lon="5.36613">
        <ele>293.20001220703</ele>
        <time>2020-07-31T05:53:12.000Z</time>
      </trkpt>
      <trkpt lat="46.34071" lon="5.36612">
        <ele>293.39999389648</ele>
        <time>2020-07-31T05:53:13.000Z</time>
      </trkpt>
      <trkpt lat="46.34067" lon="5.36612">
        <ele>293.60000610352</ele>
        <time>2020-07-31T05:53:14.000Z</time>
      </trkpt>
      <trkpt lat="46.3406" lon="5.36612">
        <ele>293.79998779297</ele>
        <time>2020-07-31T05:53:16.000Z</time>
      </trkpt>
      <trkpt lat="46.34053" lon="5.3661">
        <ele>294.60000610352</ele>
        <time>2020-07-31T05:53:18.000Z</time>
      </trkpt>
      <trkpt lat="46.34047" lon="5.36607">
        <ele>295</ele>
        <time>2020-07-31T05:53:20.000Z</time>
      </trkpt>
      <trkpt lat="46.34044" lon="5.36607">
        <ele>295.20001220703</ele>
        <time>2020-07-31T05:53:21.000Z</time>
      </trkpt>
      <trkpt lat="46.34041" lon="5.36606">
        <ele>295.60000610352</ele>
        <time>2020-07-31T05:53:22.000Z</time>
      </trkpt>
      <trkpt lat="46.34038" lon="5.36605">
        <ele>295.79998779297</ele>
        <time>2020-07-31T05:53:23.000Z</time>
      </trkpt>
      <trkpt lat="46.34035" lon="5.36604">
        <ele>296.20001220703</ele>
        <time>2020-07-31T05:53:24.000Z</time>
      </trkpt>
      <trkpt lat="46.34028" lon="5.36601">
        <ele>296.39999389648</ele>
        <time>2020-07-31T05:53:26.000Z</time>
      </trkpt>
      <trkpt lat="46.34025" lon="5.36599">
        <ele>296.39999389648</ele>
        <time>2020-07-31T05:53:27.000Z</time>
      </trkpt>
      <trkpt lat="46.34022" lon="5.36598">
        <ele>296.60000610352</ele>
        <time>2020-07-31T05:53:28.000Z</time>
      </trkpt>
      <trkpt lat="46.34016" lon="5.36595">
        <ele>296.79998779297</ele>
        <time>2020-07-31T05:53:30.000Z</time>
      </trkpt>
      <trkpt lat="46.3401" lon="5.36593">
        <ele>297.20001220703</ele>
        <time>2020-07-31T05:53:32.000Z</time>
      </trkpt>
      <trkpt lat="46.34003" lon="5.36592">
        <ele>297.60000610352</ele>
        <time>2020-07-31T05:53:34.000Z</time>
      </trkpt>
      <trkpt lat="46.33997" lon="5.36593">
        <ele>298</ele>
        <time>2020-07-31T05:53:36.000Z</time>
      </trkpt>
      <trkpt lat="46.33991" lon="5.36597">
        <ele>298.60000610352</ele>
        <time>2020-07-31T05:53:38.000Z</time>
      </trkpt>
      <trkpt lat="46.33988" lon="5.366">
        <ele>298.79998779297</ele>
        <time>2020-07-31T05:53:39.000Z</time>
      </trkpt>
      <trkpt lat="46.33986" lon="5.36603">
        <ele>299</ele>
        <time>2020-07-31T05:53:40.000Z</time>
      </trkpt>
      <trkpt lat="46.33984" lon="5.36607">
        <ele>299.20001220703</ele>
        <time>2020-07-31T05:53:41.000Z</time>
      </trkpt>
      <trkpt lat="46.33982" lon="5.36611">
        <ele>299.60000610352</ele>
        <time>2020-07-31T05:53:42.000Z</time>
      </trkpt>
      <trkpt lat="46.3398" lon="5.36616">
        <ele>299.79998779297</ele>
        <time>2020-07-31T05:53:43.000Z</time>
      </trkpt>
      <trkpt lat="46.33978" lon="5.3662">
        <ele>300.20001220703</ele>
        <time>2020-07-31T05:53:44.000Z</time>
      </trkpt>
      <trkpt lat="46.33976" lon="5.3663">
        <ele>300.39999389648</ele>
        <time>2020-07-31T05:53:46.000Z</time>
      </trkpt>
      <trkpt lat="46.33974" lon="5.36635">
        <ele>300.79998779297</ele>
        <time>2020-07-31T05:53:47.000Z</time>
      </trkpt>
      <trkpt lat="46.33973" lon="5.3664">
        <ele>301</ele>
        <time>2020-07-31T05:53:48.000Z</time>
      </trkpt>
      <trkpt lat="46.33971" lon="5.3665">
        <ele>301</ele>
        <time>2020-07-31T05:53:50.000Z</time>
      </trkpt>
      <trkpt lat="46.33968" lon="5.3666">
        <ele>301.20001220703</ele>
        <time>2020-07-31T05:53:52.000Z</time>
      </trkpt>
      <trkpt lat="46.33966" lon="5.3667">
        <ele>301.20001220703</ele>
        <time>2020-07-31T05:53:54.000Z</time>
      </trkpt>
      <trkpt lat="46.33962" lon="5.3668">
        <ele>301.39999389648</ele>
        <time>2020-07-31T05:53:56.000Z</time>
      </trkpt>
      <trkpt lat="46.3396" lon="5.36691">
        <ele>301.60000610352</ele>
        <time>2020-07-31T05:53:58.000Z</time>
      </trkpt>
      <trkpt lat="46.33958" lon="5.36701">
        <ele>301.79998779297</ele>
        <time>2020-07-31T05:54:00.000Z</time>
      </trkpt>
      <trkpt lat="46.33955" lon="5.36711">
        <ele>301.79998779297</ele>
        <time>2020-07-31T05:54:02.000Z</time>
      </trkpt>
      <trkpt lat="46.33954" lon="5.36716">
        <ele>302</ele>
        <time>2020-07-31T05:54:03.000Z</time>
      </trkpt>
      <trkpt lat="46.33952" lon="5.36721">
        <ele>302</ele>
        <time>2020-07-31T05:54:04.000Z</time>
      </trkpt>
      <trkpt lat="46.33951" lon="5.36726">
        <ele>302</ele>
        <time>2020-07-31T05:54:05.000Z</time>
      </trkpt>
      <trkpt lat="46.33949" lon="5.36732">
        <ele>302</ele>
        <time>2020-07-31T05:54:06.000Z</time>
      </trkpt>
      <trkpt lat="46.33946" lon="5.36743">
        <ele>302</ele>
        <time>2020-07-31T05:54:08.000Z</time>
      </trkpt>
      <trkpt lat="46.33945" lon="5.36749">
        <ele>302</ele>
        <time>2020-07-31T05:54:09.000Z</time>
      </trkpt>
      <trkpt lat="46.33943" lon="5.36755">
        <ele>302</ele>
        <time>2020-07-31T05:54:10.000Z</time>
      </trkpt>
      <trkpt lat="46.33942" lon="5.36762">
        <ele>302</ele>
        <time>2020-07-31T05:54:11.000Z</time>
      </trkpt>
      <trkpt lat="46.33941" lon="5.36768">
        <ele>302</ele>
        <time>2020-07-31T05:54:12.000Z</time>
      </trkpt>
      <trkpt lat="46.33937" lon="5.36781">
        <ele>301.79998779297</ele>
        <time>2020-07-31T05:54:14.000Z</time>
      </trkpt>
      <trkpt lat="46.33933" lon="5.36793">
        <ele>301.79998779297</ele>
        <time>2020-07-31T05:54:16.000Z</time>
      </trkpt>
      <trkpt lat="46.33931" lon="5.368">
        <ele>301.60000610352</ele>
        <time>2020-07-31T05:54:17.000Z</time>
      </trkpt>
      <trkpt lat="46.33929" lon="5.36806">
        <ele>301.39999389648</ele>
        <time>2020-07-31T05:54:18.000Z</time>
      </trkpt>
      <trkpt lat="46.33926" lon="5.36819">
        <ele>301.39999389648</ele>
        <time>2020-07-31T05:54:20.000Z</time>
      </trkpt>
      <trkpt lat="46.33921" lon="5.36833">
        <ele>301.20001220703</ele>
        <time>2020-07-31T05:54:22.000Z</time>
      </trkpt>
      <trkpt lat="46.33917" lon="5.36847">
        <ele>301.20001220703</ele>
        <time>2020-07-31T05:54:24.000Z</time>
      </trkpt>
      <trkpt lat="46.33912" lon="5.36861">
        <ele>301.20001220703</ele>
        <time>2020-07-31T05:54:26.000Z</time>
      </trkpt>
      <trkpt lat="46.33909" lon="5.36869">
        <ele>301.20001220703</ele>
        <time>2020-07-31T05:54:27.000Z</time>
      </trkpt>
      <trkpt lat="46.33906" lon="5.36877">
        <ele>301.20001220703</ele>
        <time>2020-07-31T05:54:28.000Z</time>
      </trkpt>
      <trkpt lat="46.339" lon="5.36894">
        <ele>301.20001220703</ele>
        <time>2020-07-31T05:54:30.000Z</time>
      </trkpt>
      <trkpt lat="46.33897" lon="5.36903">
        <ele>301</ele>
        <time>2020-07-31T05:54:31.000Z</time>
      </trkpt>
      <trkpt lat="46.33894" lon="5.36912">
        <ele>301</ele>
        <time>2020-07-31T05:54:32.000Z</time>
      </trkpt>
      <trkpt lat="46.33887" lon="5.3693">
        <ele>300.79998779297</ele>
        <time>2020-07-31T05:54:34.000Z</time>
      </trkpt>
      <trkpt lat="46.33882" lon="5.36949">
        <ele>300</ele>
        <time>2020-07-31T05:54:36.000Z</time>
      </trkpt>
      <trkpt lat="46.33878" lon="5.36959">
        <ele>299.60000610352</ele>
        <time>2020-07-31T05:54:37.000Z</time>
      </trkpt>
      <trkpt lat="46.33876" lon="5.36968">
        <ele>299.39999389648</ele>
        <time>2020-07-31T05:54:38.000Z</time>
      </trkpt>
      <trkpt lat="46.33871" lon="5.36986">
        <ele>298.79998779297</ele>
        <time>2020-07-31T05:54:40.000Z</time>
      </trkpt>
      <trkpt lat="46.33867" lon="5.36994">
        <ele>298.39999389648</ele>
        <time>2020-07-31T05:54:41.000Z</time>
      </trkpt>
      <trkpt lat="46.33864" lon="5.37002">
        <ele>298.20001220703</ele>
        <time>2020-07-31T05:54:42.000Z</time>
      </trkpt>
      <trkpt lat="46.33855" lon="5.37019">
        <ele>297.79998779297</ele>
        <time>2020-07-31T05:54:44.000Z</time>
      </trkpt>
      <trkpt lat="46.33847" lon="5.37038">
        <ele>297.60000610352</ele>
        <time>2020-07-31T05:54:46.000Z</time>
      </trkpt>
      <trkpt lat="46.33841" lon="5.37056">
        <ele>297.39999389648</ele>
        <time>2020-07-31T05:54:48.000Z</time>
      </trkpt>
      <trkpt lat="46.33835" lon="5.37073">
        <ele>297.20001220703</ele>
        <time>2020-07-31T05:54:50.000Z</time>
      </trkpt>
      <trkpt lat="46.33834" lon="5.37082">
        <ele>297.20001220703</ele>
        <time>2020-07-31T05:54:51.000Z</time>
      </trkpt>
      <trkpt lat="46.33832" lon="5.37091">
        <ele>297.20001220703</ele>
        <time>2020-07-31T05:54:52.000Z</time>
      </trkpt>
      <trkpt lat="46.33829" lon="5.37107">
        <ele>297.20001220703</ele>
        <time>2020-07-31T05:54:54.000Z</time>
      </trkpt>
      <trkpt lat="46.33826" lon="5.37121">
        <ele>297.20001220703</ele>
        <time>2020-07-31T05:54:56.000Z</time>
      </trkpt>
      <trkpt lat="46.33825" lon="5.37127">
        <ele>297.20001220703</ele>
        <time>2020-07-31T05:54:57.000Z</time>
      </trkpt>
      <trkpt lat="46.33823" lon="5.37134">
        <ele>297.20001220703</ele>
        <time>2020-07-31T05:54:58.000Z</time>
      </trkpt>
      <trkpt lat="46.33821" lon="5.37146">
        <ele>297.20001220703</ele>
        <time>2020-07-31T05:55:00.000Z</time>
      </trkpt>
      <trkpt lat="46.3382" lon="5.37157">
        <ele>297.39999389648</ele>
        <time>2020-07-31T05:55:02.000Z</time>
      </trkpt>
      <trkpt lat="46.33818" lon="5.37168">
        <ele>298.39999389648</ele>
        <time>2020-07-31T05:55:04.000Z</time>
      </trkpt>
      <trkpt lat="46.33818" lon="5.37174">
        <ele>298.79998779297</ele>
        <time>2020-07-31T05:55:05.000Z</time>
      </trkpt>
      <trkpt lat="46.33817" lon="5.37179">
        <ele>299.20001220703</ele>
        <time>2020-07-31T05:55:06.000Z</time>
      </trkpt>
      <trkpt lat="46.33817" lon="5.37184">
        <ele>299.60000610352</ele>
        <time>2020-07-31T05:55:07.000Z</time>
      </trkpt>
      <trkpt lat="46.33816" lon="5.37189">
        <ele>300.20001220703</ele>
        <time>2020-07-31T05:55:08.000Z</time>
      </trkpt>
      <trkpt lat="46.33815" lon="5.37194">
        <ele>300.60000610352</ele>
        <time>2020-07-31T05:55:09.000Z</time>
      </trkpt>
      <trkpt lat="46.33815" lon="5.37199">
        <ele>301.20001220703</ele>
        <time>2020-07-31T05:55:10.000Z</time>
      </trkpt>
      <trkpt lat="46.33815" lon="5.37208">
        <ele>302</ele>
        <time>2020-07-31T05:55:12.000Z</time>
      </trkpt>
      <trkpt lat="46.33814" lon="5.37213">
        <ele>302.20001220703</ele>
        <time>2020-07-31T05:55:13.000Z</time>
      </trkpt>
      <trkpt lat="46.33815" lon="5.37218">
        <ele>303</ele>
        <time>2020-07-31T05:55:14.000Z</time>
      </trkpt>
      <trkpt lat="46.33816" lon="5.37228">
        <ele>303.60000610352</ele>
        <time>2020-07-31T05:55:16.000Z</time>
      </trkpt>
      <trkpt lat="46.33817" lon="5.37238">
        <ele>304</ele>
        <time>2020-07-31T05:55:18.000Z</time>
      </trkpt>
      <trkpt lat="46.33819" lon="5.37248">
        <ele>304.39999389648</ele>
        <time>2020-07-31T05:55:20.000Z</time>
      </trkpt>
      <trkpt lat="46.3382" lon="5.37259">
        <ele>304.79998779297</ele>
        <time>2020-07-31T05:55:22.000Z</time>
      </trkpt>
      <trkpt lat="46.33821" lon="5.37269">
        <ele>305.20001220703</ele>
        <time>2020-07-31T05:55:24.000Z</time>
      </trkpt>
      <trkpt lat="46.33821" lon="5.37279">
        <ele>305.60000610352</ele>
        <time>2020-07-31T05:55:26.000Z</time>
      </trkpt>
      <trkpt lat="46.3382" lon="5.37284">
        <ele>305.60000610352</ele>
        <time>2020-07-31T05:55:27.000Z</time>
      </trkpt>
      <trkpt lat="46.3382" lon="5.37289">
        <ele>305.79998779297</ele>
        <time>2020-07-31T05:55:28.000Z</time>
      </trkpt>
      <trkpt lat="46.33819" lon="5.37299">
        <ele>306.39999389648</ele>
        <time>2020-07-31T05:55:30.000Z</time>
      </trkpt>
      <trkpt lat="46.33816" lon="5.37308">
        <ele>306.79998779297</ele>
        <time>2020-07-31T05:55:32.000Z</time>
      </trkpt>
      <trkpt lat="46.33813" lon="5.37317">
        <ele>307.20001220703</ele>
        <time>2020-07-31T05:55:34.000Z</time>
      </trkpt>
      <trkpt lat="46.33811" lon="5.37321">
        <ele>307.39999389648</ele>
        <time>2020-07-31T05:55:35.000Z</time>
      </trkpt>
      <trkpt lat="46.33809" lon="5.37325">
        <ele>307.39999389648</ele>
        <time>2020-07-31T05:55:36.000Z</time>
      </trkpt>
      <trkpt lat="46.33805" lon="5.37332">
        <ele>307.60000610352</ele>
        <time>2020-07-31T05:55:38.000Z</time>
      </trkpt>
      <trkpt lat="46.33799" lon="5.37339">
        <ele>308</ele>
        <time>2020-07-31T05:55:40.000Z</time>
      </trkpt>
      <trkpt lat="46.33797" lon="5.37341">
        <ele>308.20001220703</ele>
        <time>2020-07-31T05:55:41.000Z</time>
      </trkpt>
      <trkpt lat="46.33794" lon="5.37344">
        <ele>308.39999389648</ele>
        <time>2020-07-31T05:55:42.000Z</time>
      </trkpt>
      <trkpt lat="46.33788" lon="5.37348">
        <ele>309.20001220703</ele>
        <time>2020-07-31T05:55:44.000Z</time>
      </trkpt>
      <trkpt lat="46.33782" lon="5.37351">
        <ele>309.60000610352</ele>
        <time>2020-07-31T05:55:46.000Z</time>
      </trkpt>
      <trkpt lat="46.33776" lon="5.37355">
        <ele>310.20001220703</ele>
        <time>2020-07-31T05:55:48.000Z</time>
      </trkpt>
      <trkpt lat="46.33773" lon="5.37357">
        <ele>310.60000610352</ele>
        <time>2020-07-31T05:55:49.000Z</time>
      </trkpt>
      <trkpt lat="46.3377" lon="5.37359">
        <ele>311</ele>
        <time>2020-07-31T05:55:50.000Z</time>
      </trkpt>
      <trkpt lat="46.33765" lon="5.37364">
        <ele>311.60000610352</ele>
        <time>2020-07-31T05:55:52.000Z</time>
      </trkpt>
      <trkpt lat="46.33759" lon="5.37369">
        <ele>312.20001220703</ele>
        <time>2020-07-31T05:55:54.000Z</time>
      </trkpt>
      <trkpt lat="46.33754" lon="5.37375">
        <ele>312.39999389648</ele>
        <time>2020-07-31T05:55:56.000Z</time>
      </trkpt>
      <trkpt lat="46.33752" lon="5.37379">
        <ele>312.60000610352</ele>
        <time>2020-07-31T05:55:57.000Z</time>
      </trkpt>
      <trkpt lat="46.33749" lon="5.37382">
        <ele>312.79998779297</ele>
        <time>2020-07-31T05:55:58.000Z</time>
      </trkpt>
      <trkpt lat="46.33745" lon="5.37389">
        <ele>313.39999389648</ele>
        <time>2020-07-31T05:56:00.000Z</time>
      </trkpt>
      <trkpt lat="46.33741" lon="5.37396">
        <ele>313.79998779297</ele>
        <time>2020-07-31T05:56:02.000Z</time>
      </trkpt>
      <trkpt lat="46.33737" lon="5.37402">
        <ele>314.20001220703</ele>
        <time>2020-07-31T05:56:04.000Z</time>
      </trkpt>
      <trkpt lat="46.33733" lon="5.37409">
        <ele>314.39999389648</ele>
        <time>2020-07-31T05:56:06.000Z</time>
      </trkpt>
      <trkpt lat="46.33729" lon="5.37414">
        <ele>314.79998779297</ele>
        <time>2020-07-31T05:56:08.000Z</time>
      </trkpt>
      <trkpt lat="46.33724" lon="5.3742">
        <ele>315.20001220703</ele>
        <time>2020-07-31T05:56:10.000Z</time>
      </trkpt>
      <trkpt lat="46.33722" lon="5.37423">
        <ele>315.39999389648</ele>
        <time>2020-07-31T05:56:11.000Z</time>
      </trkpt>
      <trkpt lat="46.3372" lon="5.37426">
        <ele>315.60000610352</ele>
        <time>2020-07-31T05:56:12.000Z</time>
      </trkpt>
      <trkpt lat="46.33715" lon="5.37431">
        <ele>316.20001220703</ele>
        <time>2020-07-31T05:56:14.000Z</time>
      </trkpt>
      <trkpt lat="46.3371" lon="5.37437">
        <ele>316.39999389648</ele>
        <time>2020-07-31T05:56:16.000Z</time>
      </trkpt>
      <trkpt lat="46.33708" lon="5.37439">
        <ele>316.60000610352</ele>
        <time>2020-07-31T05:56:17.000Z</time>
      </trkpt>
      <trkpt lat="46.33705" lon="5.37442">
        <ele>316.79998779297</ele>
        <time>2020-07-31T05:56:18.000Z</time>
      </trkpt>
      <trkpt lat="46.337" lon="5.37446">
        <ele>317.20001220703</ele>
        <time>2020-07-31T05:56:20.000Z</time>
      </trkpt>
      <trkpt lat="46.33695" lon="5.37452">
        <ele>317.60000610352</ele>
        <time>2020-07-31T05:56:22.000Z</time>
      </trkpt>
      <trkpt lat="46.33693" lon="5.37454">
        <ele>318</ele>
        <time>2020-07-31T05:56:23.000Z</time>
      </trkpt>
      <trkpt lat="46.3369" lon="5.37457">
        <ele>318.20001220703</ele>
        <time>2020-07-31T05:56:24.000Z</time>
      </trkpt>
      <trkpt lat="46.33684" lon="5.37462">
        <ele>318.60000610352</ele>
        <time>2020-07-31T05:56:26.000Z</time>
      </trkpt>
      <trkpt lat="46.33682" lon="5.37465">
        <ele>318.79998779297</ele>
        <time>2020-07-31T05:56:27.000Z</time>
      </trkpt>
      <trkpt lat="46.33679" lon="5.37468">
        <ele>319</ele>
        <time>2020-07-31T05:56:28.000Z</time>
      </trkpt>
      <trkpt lat="46.33674" lon="5.37475">
        <ele>319.60000610352</ele>
        <time>2020-07-31T05:56:30.000Z</time>
      </trkpt>
      <trkpt lat="46.33672" lon="5.37478">
        <ele>319.60000610352</ele>
        <time>2020-07-31T05:56:31.000Z</time>
      </trkpt>
      <trkpt lat="46.3367" lon="5.37481">
        <ele>319.60000610352</ele>
        <time>2020-07-31T05:56:32.000Z</time>
      </trkpt>
      <trkpt lat="46.33665" lon="5.37488">
        <ele>320</ele>
        <time>2020-07-31T05:56:34.000Z</time>
      </trkpt>
      <trkpt lat="46.33661" lon="5.37495">
        <ele>320.60000610352</ele>
        <time>2020-07-31T05:56:36.000Z</time>
      </trkpt>
      <trkpt lat="46.33659" lon="5.37499">
        <ele>320.60000610352</ele>
        <time>2020-07-31T05:56:37.000Z</time>
      </trkpt>
      <trkpt lat="46.33658" lon="5.37503">
        <ele>321</ele>
        <time>2020-07-31T05:56:38.000Z</time>
      </trkpt>
      <trkpt lat="46.33654" lon="5.37511">
        <ele>321.20001220703</ele>
        <time>2020-07-31T05:56:40.000Z</time>
      </trkpt>
      <trkpt lat="46.33653" lon="5.37515">
        <ele>321.20001220703</ele>
        <time>2020-07-31T05:56:41.000Z</time>
      </trkpt>
      <trkpt lat="46.33651" lon="5.37519">
        <ele>321.60000610352</ele>
        <time>2020-07-31T05:56:42.000Z</time>
      </trkpt>
      <trkpt lat="46.33647" lon="5.37527">
        <ele>321.60000610352</ele>
        <time>2020-07-31T05:56:44.000Z</time>
      </trkpt>
      <trkpt lat="46.33645" lon="5.37531">
        <ele>321.79998779297</ele>
        <time>2020-07-31T05:56:45.000Z</time>
      </trkpt>
      <trkpt lat="46.33644" lon="5.37535">
        <ele>322.20001220703</ele>
        <time>2020-07-31T05:56:46.000Z</time>
      </trkpt>
      <trkpt lat="46.3364" lon="5.37543">
        <ele>322.60000610352</ele>
        <time>2020-07-31T05:56:48.000Z</time>
      </trkpt>
      <trkpt lat="46.33638" lon="5.37546">
        <ele>323</ele>
        <time>2020-07-31T05:56:49.000Z</time>
      </trkpt>
      <trkpt lat="46.33636" lon="5.3755">
        <ele>323</ele>
        <time>2020-07-31T05:56:50.000Z</time>
      </trkpt>
      <trkpt lat="46.33632" lon="5.37557">
        <ele>323.60000610352</ele>
        <time>2020-07-31T05:56:52.000Z</time>
      </trkpt>
      <trkpt lat="46.33628" lon="5.37564">
        <ele>324.20001220703</ele>
        <time>2020-07-31T05:56:54.000Z</time>
      </trkpt>
      <trkpt lat="46.33623" lon="5.37571">
        <ele>324.39999389648</ele>
        <time>2020-07-31T05:56:56.000Z</time>
      </trkpt>
      <trkpt lat="46.33619" lon="5.37579">
        <ele>324.60000610352</ele>
        <time>2020-07-31T05:56:58.000Z</time>
      </trkpt>
      <trkpt lat="46.33618" lon="5.37583">
        <ele>324.79998779297</ele>
        <time>2020-07-31T05:56:59.000Z</time>
      </trkpt>
      <trkpt lat="46.33616" lon="5.37586">
        <ele>325</ele>
        <time>2020-07-31T05:57:00.000Z</time>
      </trkpt>
      <trkpt lat="46.33612" lon="5.37594">
        <ele>325.39999389648</ele>
        <time>2020-07-31T05:57:02.000Z</time>
      </trkpt>
      <trkpt lat="46.33609" lon="5.37602">
        <ele>325.79998779297</ele>
        <time>2020-07-31T05:57:04.000Z</time>
      </trkpt>
      <trkpt lat="46.33606" lon="5.3761">
        <ele>326.20001220703</ele>
        <time>2020-07-31T05:57:06.000Z</time>
      </trkpt>
      <trkpt lat="46.33604" lon="5.37614">
        <ele>326.39999389648</ele>
        <time>2020-07-31T05:57:07.000Z</time>
      </trkpt>
      <trkpt lat="46.33603" lon="5.37618">
        <ele>326.60000610352</ele>
        <time>2020-07-31T05:57:08.000Z</time>
      </trkpt>
      <trkpt lat="46.336" lon="5.37626">
        <ele>327</ele>
        <time>2020-07-31T05:57:10.000Z</time>
      </trkpt>
      <trkpt lat="46.33599" lon="5.3763">
        <ele>327.39999389648</ele>
        <time>2020-07-31T05:57:11.000Z</time>
      </trkpt>
      <trkpt lat="46.33598" lon="5.37634">
        <ele>327.60000610352</ele>
        <time>2020-07-31T05:57:12.000Z</time>
      </trkpt>
      <trkpt lat="46.33595" lon="5.37642">
        <ele>328.20001220703</ele>
        <time>2020-07-31T05:57:14.000Z</time>
      </trkpt>
      <trkpt lat="46.33593" lon="5.37651">
        <ele>328.39999389648</ele>
        <time>2020-07-31T05:57:16.000Z</time>
      </trkpt>
      <trkpt lat="46.33591" lon="5.37655">
        <ele>328.79998779297</ele>
        <time>2020-07-31T05:57:17.000Z</time>
      </trkpt>
      <trkpt lat="46.3359" lon="5.37659">
        <ele>329</ele>
        <time>2020-07-31T05:57:18.000Z</time>
      </trkpt>
      <trkpt lat="46.33587" lon="5.37667">
        <ele>329.39999389648</ele>
        <time>2020-07-31T05:57:20.000Z</time>
      </trkpt>
      <trkpt lat="46.33585" lon="5.37675">
        <ele>329.79998779297</ele>
        <time>2020-07-31T05:57:22.000Z</time>
      </trkpt>
      <trkpt lat="46.33582" lon="5.37683">
        <ele>330.20001220703</ele>
        <time>2020-07-31T05:57:24.000Z</time>
      </trkpt>
      <trkpt lat="46.33579" lon="5.37691">
        <ele>330.39999389648</ele>
        <time>2020-07-31T05:57:26.000Z</time>
      </trkpt>
      <trkpt lat="46.33576" lon="5.37699">
        <ele>330.79998779297</ele>
        <time>2020-07-31T05:57:28.000Z</time>
      </trkpt>
      <trkpt lat="46.33574" lon="5.37707">
        <ele>331.20001220703</ele>
        <time>2020-07-31T05:57:30.000Z</time>
      </trkpt>
      <trkpt lat="46.33573" lon="5.37711">
        <ele>331.20001220703</ele>
        <time>2020-07-31T05:57:31.000Z</time>
      </trkpt>
      <trkpt lat="46.33571" lon="5.37715">
        <ele>331.60000610352</ele>
        <time>2020-07-31T05:57:32.000Z</time>
      </trkpt>
      <trkpt lat="46.33569" lon="5.37722">
        <ele>331.79998779297</ele>
        <time>2020-07-31T05:57:34.000Z</time>
      </trkpt>
      <trkpt lat="46.33567" lon="5.3773">
        <ele>332</ele>
        <time>2020-07-31T05:57:36.000Z</time>
      </trkpt>
      <trkpt lat="46.33564" lon="5.37737">
        <ele>332.20001220703</ele>
        <time>2020-07-31T05:57:38.000Z</time>
      </trkpt>
      <trkpt lat="46.33563" lon="5.37742">
        <ele>332.39999389648</ele>
        <time>2020-07-31T05:57:39.000Z</time>
      </trkpt>
      <trkpt lat="46.33561" lon="5.37746">
        <ele>332.79998779297</ele>
        <time>2020-07-31T05:57:40.000Z</time>
      </trkpt>
      <trkpt lat="46.33559" lon="5.37754">
        <ele>333.39999389648</ele>
        <time>2020-07-31T05:57:42.000Z</time>
      </trkpt>
      <trkpt lat="46.33555" lon="5.37761">
        <ele>333.60000610352</ele>
        <time>2020-07-31T05:57:44.000Z</time>
      </trkpt>
      <trkpt lat="46.33552" lon="5.37769">
        <ele>333.79998779297</ele>
        <time>2020-07-31T05:57:46.000Z</time>
      </trkpt>
      <trkpt lat="46.33551" lon="5.37773">
        <ele>334</ele>
        <time>2020-07-31T05:57:47.000Z</time>
      </trkpt>
      <trkpt lat="46.3355" lon="5.37778">
        <ele>334.20001220703</ele>
        <time>2020-07-31T05:57:48.000Z</time>
      </trkpt>
      <trkpt lat="46.33547" lon="5.37785">
        <ele>334.79998779297</ele>
        <time>2020-07-31T05:57:50.000Z</time>
      </trkpt>
      <trkpt lat="46.33544" lon="5.37793">
        <ele>335.20001220703</ele>
        <time>2020-07-31T05:57:52.000Z</time>
      </trkpt>
      <trkpt lat="46.33541" lon="5.37801">
        <ele>335.79998779297</ele>
        <time>2020-07-31T05:57:54.000Z</time>
      </trkpt>
      <trkpt lat="46.33538" lon="5.37809">
        <ele>336</ele>
        <time>2020-07-31T05:57:56.000Z</time>
      </trkpt>
      <trkpt lat="46.33537" lon="5.37813">
        <ele>336.39999389648</ele>
        <time>2020-07-31T05:57:57.000Z</time>
      </trkpt>
      <trkpt lat="46.33535" lon="5.37817">
        <ele>336.60000610352</ele>
        <time>2020-07-31T05:57:58.000Z</time>
      </trkpt>
      <trkpt lat="46.33532" lon="5.37825">
        <ele>337.20001220703</ele>
        <time>2020-07-31T05:58:00.000Z</time>
      </trkpt>
      <trkpt lat="46.33531" lon="5.37829">
        <ele>337.39999389648</ele>
        <time>2020-07-31T05:58:01.000Z</time>
      </trkpt>
      <trkpt lat="46.3353" lon="5.37833">
        <ele>337.39999389648</ele>
        <time>2020-07-31T05:58:02.000Z</time>
      </trkpt>
      <trkpt lat="46.33527" lon="5.37841">
        <ele>337.60000610352</ele>
        <time>2020-07-31T05:58:04.000Z</time>
      </trkpt>
      <trkpt lat="46.33524" lon="5.37849">
        <ele>338</ele>
        <time>2020-07-31T05:58:06.000Z</time>
      </trkpt>
      <trkpt lat="46.33522" lon="5.37853">
        <ele>338.39999389648</ele>
        <time>2020-07-31T05:58:07.000Z</time>
      </trkpt>
      <trkpt lat="46.33521" lon="5.37857">
        <ele>338.60000610352</ele>
        <time>2020-07-31T05:58:08.000Z</time>
      </trkpt>
      <trkpt lat="46.33518" lon="5.37865">
        <ele>339.20001220703</ele>
        <time>2020-07-31T05:58:10.000Z</time>
      </trkpt>
      <trkpt lat="46.33515" lon="5.37874">
        <ele>339.39999389648</ele>
        <time>2020-07-31T05:58:12.000Z</time>
      </trkpt>
      <trkpt lat="46.33512" lon="5.37882">
        <ele>339.79998779297</ele>
        <time>2020-07-31T05:58:14.000Z</time>
      </trkpt>
      <trkpt lat="46.33509" lon="5.37891">
        <ele>340.20001220703</ele>
        <time>2020-07-31T05:58:16.000Z</time>
      </trkpt>
      <trkpt lat="46.33506" lon="5.379">
        <ele>340.39999389648</ele>
        <time>2020-07-31T05:58:18.000Z</time>
      </trkpt>
      <trkpt lat="46.33504" lon="5.37904">
        <ele>340.79998779297</ele>
        <time>2020-07-31T05:58:19.000Z</time>
      </trkpt>
      <trkpt lat="46.33502" lon="5.37909">
        <ele>341</ele>
        <time>2020-07-31T05:58:20.000Z</time>
      </trkpt>
      <trkpt lat="46.33499" lon="5.37919">
        <ele>341.79998779297</ele>
        <time>2020-07-31T05:58:22.000Z</time>
      </trkpt>
      <trkpt lat="46.33496" lon="5.37924">
        <ele>341.79998779297</ele>
        <time>2020-07-31T05:58:23.000Z</time>
      </trkpt>
      <trkpt lat="46.33494" lon="5.37929">
        <ele>342</ele>
        <time>2020-07-31T05:58:24.000Z</time>
      </trkpt>
      <trkpt lat="46.33492" lon="5.37935">
        <ele>342</ele>
        <time>2020-07-31T05:58:25.000Z</time>
      </trkpt>
      <trkpt lat="46.33489" lon="5.37942">
        <ele>342</ele>
        <time>2020-07-31T05:58:26.000Z</time>
      </trkpt>
      <trkpt lat="46.33483" lon="5.37955">
        <ele>342</ele>
        <time>2020-07-31T05:58:28.000Z</time>
      </trkpt>
      <trkpt lat="46.33475" lon="5.3797">
        <ele>342</ele>
        <time>2020-07-31T05:58:30.000Z</time>
      </trkpt>
      <trkpt lat="46.33467" lon="5.37987">
        <ele>342</ele>
        <time>2020-07-31T05:58:32.000Z</time>
      </trkpt>
      <trkpt lat="46.33458" lon="5.38006">
        <ele>342</ele>
        <time>2020-07-31T05:58:34.000Z</time>
      </trkpt>
      <trkpt lat="46.33453" lon="5.38016">
        <ele>341.79998779297</ele>
        <time>2020-07-31T05:58:35.000Z</time>
      </trkpt>
      <trkpt lat="46.33449" lon="5.38027">
        <ele>341.39999389648</ele>
        <time>2020-07-31T05:58:36.000Z</time>
      </trkpt>
      <trkpt lat="46.33443" lon="5.38038">
        <ele>340.79998779297</ele>
        <time>2020-07-31T05:58:37.000Z</time>
      </trkpt>
      <trkpt lat="46.33438" lon="5.38049">
        <ele>339.79998779297</ele>
        <time>2020-07-31T05:58:38.000Z</time>
      </trkpt>
      <trkpt lat="46.33433" lon="5.3806">
        <ele>339.20001220703</ele>
        <time>2020-07-31T05:58:39.000Z</time>
      </trkpt>
      <trkpt lat="46.33427" lon="5.38072">
        <ele>338.20001220703</ele>
        <time>2020-07-31T05:58:40.000Z</time>
      </trkpt>
      <trkpt lat="46.33421" lon="5.38084">
        <ele>337.60000610352</ele>
        <time>2020-07-31T05:58:41.000Z</time>
      </trkpt>
      <trkpt lat="46.33415" lon="5.38095">
        <ele>336.79998779297</ele>
        <time>2020-07-31T05:58:42.000Z</time>
      </trkpt>
      <trkpt lat="46.3341" lon="5.38107">
        <ele>336</ele>
        <time>2020-07-31T05:58:43.000Z</time>
      </trkpt>
      <trkpt lat="46.33404" lon="5.3812">
        <ele>334.79998779297</ele>
        <time>2020-07-31T05:58:44.000Z</time>
      </trkpt>
      <trkpt lat="46.33398" lon="5.38132">
        <ele>333.79998779297</ele>
        <time>2020-07-31T05:58:45.000Z</time>
      </trkpt>
      <trkpt lat="46.33392" lon="5.38144">
        <ele>333.39999389648</ele>
        <time>2020-07-31T05:58:46.000Z</time>
      </trkpt>
      <trkpt lat="46.33387" lon="5.38156">
        <ele>332.79998779297</ele>
        <time>2020-07-31T05:58:47.000Z</time>
      </trkpt>
      <trkpt lat="46.33381" lon="5.38168">
        <ele>332.20001220703</ele>
        <time>2020-07-31T05:58:48.000Z</time>
      </trkpt>
      <trkpt lat="46.33375" lon="5.3818">
        <ele>331.20001220703</ele>
        <time>2020-07-31T05:58:49.000Z</time>
      </trkpt>
      <trkpt lat="46.3337" lon="5.38192">
        <ele>330.20001220703</ele>
        <time>2020-07-31T05:58:50.000Z</time>
      </trkpt>
      <trkpt lat="46.33364" lon="5.38204">
        <ele>329.60000610352</ele>
        <time>2020-07-31T05:58:51.000Z</time>
      </trkpt>
      <trkpt lat="46.33358" lon="5.38216">
        <ele>329.39999389648</ele>
        <time>2020-07-31T05:58:52.000Z</time>
      </trkpt>
      <trkpt lat="46.33353" lon="5.38227">
        <ele>329.20001220703</ele>
        <time>2020-07-31T05:58:53.000Z</time>
      </trkpt>
      <trkpt lat="46.33342" lon="5.3825">
        <ele>328.60000610352</ele>
        <time>2020-07-31T05:58:55.000Z</time>
      </trkpt>
      <trkpt lat="46.33333" lon="5.38271">
        <ele>328.20001220703</ele>
        <time>2020-07-31T05:58:57.000Z</time>
      </trkpt>
      <trkpt lat="46.33328" lon="5.3828">
        <ele>328</ele>
        <time>2020-07-31T05:58:58.000Z</time>
      </trkpt>
      <trkpt lat="46.33324" lon="5.38289">
        <ele>328</ele>
        <time>2020-07-31T05:58:59.000Z</time>
      </trkpt>
      <trkpt lat="46.33316" lon="5.38306">
        <ele>327.79998779297</ele>
        <time>2020-07-31T05:59:01.000Z</time>
      </trkpt>
      <trkpt lat="46.33308" lon="5.38322">
        <ele>327.79998779297</ele>
        <time>2020-07-31T05:59:03.000Z</time>
      </trkpt>
      <trkpt lat="46.33304" lon="5.3833">
        <ele>327.79998779297</ele>
        <time>2020-07-31T05:59:04.000Z</time>
      </trkpt>
      <trkpt lat="46.33301" lon="5.38338">
        <ele>327.79998779297</ele>
        <time>2020-07-31T05:59:05.000Z</time>
      </trkpt>
      <trkpt lat="46.33294" lon="5.38353">
        <ele>328.39999389648</ele>
        <time>2020-07-31T05:59:07.000Z</time>
      </trkpt>
      <trkpt lat="46.33287" lon="5.38367">
        <ele>329</ele>
        <time>2020-07-31T05:59:09.000Z</time>
      </trkpt>
      <trkpt lat="46.3328" lon="5.38381">
        <ele>329.39999389648</ele>
        <time>2020-07-31T05:59:11.000Z</time>
      </trkpt>
      <trkpt lat="46.33273" lon="5.38393">
        <ele>330.20001220703</ele>
        <time>2020-07-31T05:59:13.000Z</time>
      </trkpt>
      <trkpt lat="46.3327" lon="5.384">
        <ele>330.60000610352</ele>
        <time>2020-07-31T05:59:14.000Z</time>
      </trkpt>
      <trkpt lat="46.33267" lon="5.38406">
        <ele>331.20001220703</ele>
        <time>2020-07-31T05:59:15.000Z</time>
      </trkpt>
      <trkpt lat="46.33264" lon="5.38413">
        <ele>331.79998779297</ele>
        <time>2020-07-31T05:59:16.000Z</time>
      </trkpt>
      <trkpt lat="46.33261" lon="5.3842">
        <ele>332.20001220703</ele>
        <time>2020-07-31T05:59:17.000Z</time>
      </trkpt>
      <trkpt lat="46.33258" lon="5.38426">
        <ele>332.60000610352</ele>
        <time>2020-07-31T05:59:18.000Z</time>
      </trkpt>
      <trkpt lat="46.33255" lon="5.38432">
        <ele>333</ele>
        <time>2020-07-31T05:59:19.000Z</time>
      </trkpt>
      <trkpt lat="46.33249" lon="5.38446">
        <ele>333.39999389648</ele>
        <time>2020-07-31T05:59:21.000Z</time>
      </trkpt>
      <trkpt lat="46.33242" lon="5.38459">
        <ele>333.79998779297</ele>
        <time>2020-07-31T05:59:23.000Z</time>
      </trkpt>
      <trkpt lat="46.33239" lon="5.38466">
        <ele>334</ele>
        <time>2020-07-31T05:59:24.000Z</time>
      </trkpt>
      <trkpt lat="46.33236" lon="5.38472">
        <ele>334.20001220703</ele>
        <time>2020-07-31T05:59:25.000Z</time>
      </trkpt>
      <trkpt lat="46.3323" lon="5.38485">
        <ele>334.79998779297</ele>
        <time>2020-07-31T05:59:27.000Z</time>
      </trkpt>
      <trkpt lat="46.33227" lon="5.38491">
        <ele>335</ele>
        <time>2020-07-31T05:59:28.000Z</time>
      </trkpt>
      <trkpt lat="46.33224" lon="5.38497">
        <ele>335.60000610352</ele>
        <time>2020-07-31T05:59:29.000Z</time>
      </trkpt>
      <trkpt lat="46.33218" lon="5.38509">
        <ele>336.20001220703</ele>
        <time>2020-07-31T05:59:31.000Z</time>
      </trkpt>
      <trkpt lat="46.33212" lon="5.38521">
        <ele>336.39999389648</ele>
        <time>2020-07-31T05:59:33.000Z</time>
      </trkpt>
      <trkpt lat="46.33205" lon="5.38532">
        <ele>336.60000610352</ele>
        <time>2020-07-31T05:59:35.000Z</time>
      </trkpt>
      <trkpt lat="46.33202" lon="5.38536">
        <ele>337.20001220703</ele>
        <time>2020-07-31T05:59:36.000Z</time>
      </trkpt>
      <trkpt lat="46.33198" lon="5.38541">
        <ele>337.20001220703</ele>
        <time>2020-07-31T05:59:37.000Z</time>
      </trkpt>
      <trkpt lat="46.3319" lon="5.38549">
        <ele>337.60000610352</ele>
        <time>2020-07-31T05:59:39.000Z</time>
      </trkpt>
      <trkpt lat="46.33181" lon="5.38555">
        <ele>338.20001220703</ele>
        <time>2020-07-31T05:59:41.000Z</time>
      </trkpt>
      <trkpt lat="46.3317" lon="5.38563">
        <ele>338.39999389648</ele>
        <time>2020-07-31T05:59:43.000Z</time>
      </trkpt>
      <trkpt lat="46.33159" lon="5.38569">
        <ele>338.39999389648</ele>
        <time>2020-07-31T05:59:45.000Z</time>
      </trkpt>
      <trkpt lat="46.33147" lon="5.38575">
        <ele>338.39999389648</ele>
        <time>2020-07-31T05:59:47.000Z</time>
      </trkpt>
      <trkpt lat="46.33135" lon="5.38581">
        <ele>338.39999389648</ele>
        <time>2020-07-31T05:59:49.000Z</time>
      </trkpt>
      <trkpt lat="46.33123" lon="5.38586">
        <ele>338.39999389648</ele>
        <time>2020-07-31T05:59:51.000Z</time>
      </trkpt>
      <trkpt lat="46.33111" lon="5.3859">
        <ele>337.79998779297</ele>
        <time>2020-07-31T05:59:53.000Z</time>
      </trkpt>
      <trkpt lat="46.33105" lon="5.38593">
        <ele>337.60000610352</ele>
        <time>2020-07-31T05:59:54.000Z</time>
      </trkpt>
      <trkpt lat="46.33099" lon="5.38594">
        <ele>337.20001220703</ele>
        <time>2020-07-31T05:59:55.000Z</time>
      </trkpt>
      <trkpt lat="46.33092" lon="5.38594">
        <ele>336.79998779297</ele>
        <time>2020-07-31T05:59:56.000Z</time>
      </trkpt>
      <trkpt lat="46.33085" lon="5.38594">
        <ele>336.39999389648</ele>
        <time>2020-07-31T05:59:57.000Z</time>
      </trkpt>
      <trkpt lat="46.33078" lon="5.38594">
        <ele>336.20001220703</ele>
        <time>2020-07-31T05:59:58.000Z</time>
      </trkpt>
      <trkpt lat="46.3307" lon="5.38594">
        <ele>335.79998779297</ele>
        <time>2020-07-31T05:59:59.000Z</time>
      </trkpt>
      <trkpt lat="46.33063" lon="5.38595">
        <ele>335.79998779297</ele>
        <time>2020-07-31T06:00:00.000Z</time>
      </trkpt>
      <trkpt lat="46.33055" lon="5.38595">
        <ele>335.60000610352</ele>
        <time>2020-07-31T06:00:01.000Z</time>
      </trkpt>
      <trkpt lat="46.3304" lon="5.38597">
        <ele>335.39999389648</ele>
        <time>2020-07-31T06:00:03.000Z</time>
      </trkpt>
      <trkpt lat="46.33025" lon="5.38599">
        <ele>334.39999389648</ele>
        <time>2020-07-31T06:00:05.000Z</time>
      </trkpt>
      <trkpt lat="46.3301" lon="5.38602">
        <ele>333.79998779297</ele>
        <time>2020-07-31T06:00:07.000Z</time>
      </trkpt>
      <trkpt lat="46.32995" lon="5.38606">
        <ele>333.39999389648</ele>
        <time>2020-07-31T06:00:09.000Z</time>
      </trkpt>
      <trkpt lat="46.32988" lon="5.38608">
        <ele>333.20001220703</ele>
        <time>2020-07-31T06:00:10.000Z</time>
      </trkpt>
      <trkpt lat="46.3298" lon="5.3861">
        <ele>333.20001220703</ele>
        <time>2020-07-31T06:00:11.000Z</time>
      </trkpt>
      <trkpt lat="46.32965" lon="5.38615">
        <ele>332.79998779297</ele>
        <time>2020-07-31T06:00:13.000Z</time>
      </trkpt>
      <trkpt lat="46.3295" lon="5.38621">
        <ele>332.60000610352</ele>
        <time>2020-07-31T06:00:15.000Z</time>
      </trkpt>
      <trkpt lat="46.32943" lon="5.38624">
        <ele>332.60000610352</ele>
        <time>2020-07-31T06:00:16.000Z</time>
      </trkpt>
      <trkpt lat="46.32937" lon="5.38628">
        <ele>332.60000610352</ele>
        <time>2020-07-31T06:00:17.000Z</time>
      </trkpt>
      <trkpt lat="46.32924" lon="5.38634">
        <ele>332.39999389648</ele>
        <time>2020-07-31T06:00:19.000Z</time>
      </trkpt>
      <trkpt lat="46.32912" lon="5.3864">
        <ele>332.39999389648</ele>
        <time>2020-07-31T06:00:21.000Z</time>
      </trkpt>
      <trkpt lat="46.329" lon="5.38646">
        <ele>332.39999389648</ele>
        <time>2020-07-31T06:00:23.000Z</time>
      </trkpt>
      <trkpt lat="46.32889" lon="5.38652">
        <ele>332.60000610352</ele>
        <time>2020-07-31T06:00:25.000Z</time>
      </trkpt>
      <trkpt lat="46.32878" lon="5.38658">
        <ele>332.79998779297</ele>
        <time>2020-07-31T06:00:27.000Z</time>
      </trkpt>
      <trkpt lat="46.32867" lon="5.38664">
        <ele>333.20001220703</ele>
        <time>2020-07-31T06:00:29.000Z</time>
      </trkpt>
      <trkpt lat="46.32855" lon="5.38671">
        <ele>333.60000610352</ele>
        <time>2020-07-31T06:00:31.000Z</time>
      </trkpt>
      <trkpt lat="46.3285" lon="5.38674">
        <ele>334</ele>
        <time>2020-07-31T06:00:32.000Z</time>
      </trkpt>
      <trkpt lat="46.32844" lon="5.38677">
        <ele>334.20001220703</ele>
        <time>2020-07-31T06:00:33.000Z</time>
      </trkpt>
      <trkpt lat="46.32838" lon="5.3868">
        <ele>334.39999389648</ele>
        <time>2020-07-31T06:00:34.000Z</time>
      </trkpt>
      <trkpt lat="46.32832" lon="5.38684">
        <ele>334.60000610352</ele>
        <time>2020-07-31T06:00:35.000Z</time>
      </trkpt>
      <trkpt lat="46.32821" lon="5.3869">
        <ele>334.60000610352</ele>
        <time>2020-07-31T06:00:37.000Z</time>
      </trkpt>
      <trkpt lat="46.32809" lon="5.38697">
        <ele>334.79998779297</ele>
        <time>2020-07-31T06:00:39.000Z</time>
      </trkpt>
      <trkpt lat="46.32798" lon="5.38702">
        <ele>334.79998779297</ele>
        <time>2020-07-31T06:00:41.000Z</time>
      </trkpt>
      <trkpt lat="46.32792" lon="5.38704">
        <ele>334.79998779297</ele>
        <time>2020-07-31T06:00:42.000Z</time>
      </trkpt>
      <trkpt lat="46.32786" lon="5.38706">
        <ele>335</ele>
        <time>2020-07-31T06:00:43.000Z</time>
      </trkpt>
      <trkpt lat="46.32775" lon="5.38708">
        <ele>335.20001220703</ele>
        <time>2020-07-31T06:00:45.000Z</time>
      </trkpt>
      <trkpt lat="46.32764" lon="5.3871">
        <ele>335.39999389648</ele>
        <time>2020-07-31T06:00:47.000Z</time>
      </trkpt>
      <trkpt lat="46.32754" lon="5.3871">
        <ele>335.39999389648</ele>
        <time>2020-07-31T06:00:49.000Z</time>
      </trkpt>
      <trkpt lat="46.32749" lon="5.3871">
        <ele>335.60000610352</ele>
        <time>2020-07-31T06:00:50.000Z</time>
      </trkpt>
      <trkpt lat="46.32744" lon="5.38709">
        <ele>335.60000610352</ele>
        <time>2020-07-31T06:00:51.000Z</time>
      </trkpt>
      <trkpt lat="46.32731" lon="5.38707">
        <ele>335.79998779297</ele>
        <time>2020-07-31T06:00:54.000Z</time>
      </trkpt>
      <trkpt lat="46.32722" lon="5.38705">
        <ele>335.60000610352</ele>
        <time>2020-07-31T06:00:56.000Z</time>
      </trkpt>
      <trkpt lat="46.32718" lon="5.38704">
        <ele>335.79998779297</ele>
        <time>2020-07-31T06:00:57.000Z</time>
      </trkpt>
      <trkpt lat="46.32714" lon="5.38702">
        <ele>336</ele>
        <time>2020-07-31T06:00:58.000Z</time>
      </trkpt>
      <trkpt lat="46.32706" lon="5.387">
        <ele>336.60000610352</ele>
        <time>2020-07-31T06:01:00.000Z</time>
      </trkpt>
      <trkpt lat="46.32699" lon="5.38697">
        <ele>337</ele>
        <time>2020-07-31T06:01:02.000Z</time>
      </trkpt>
      <trkpt lat="46.32689" lon="5.38694">
        <ele>337.20001220703</ele>
        <time>2020-07-31T06:01:04.000Z</time>
      </trkpt>
      <trkpt lat="46.32681" lon="5.38692">
        <ele>337.79998779297</ele>
        <time>2020-07-31T06:01:06.000Z</time>
      </trkpt>
      <trkpt lat="46.32674" lon="5.38688">
        <ele>338.60000610352</ele>
        <time>2020-07-31T06:01:08.000Z</time>
      </trkpt>
      <trkpt lat="46.3267" lon="5.38686">
        <ele>339.20001220703</ele>
        <time>2020-07-31T06:01:09.000Z</time>
      </trkpt>
      <trkpt lat="46.32666" lon="5.38686">
        <ele>339.39999389648</ele>
        <time>2020-07-31T06:01:10.000Z</time>
      </trkpt>
      <trkpt lat="46.32658" lon="5.38683">
        <ele>340.39999389648</ele>
        <time>2020-07-31T06:01:12.000Z</time>
      </trkpt>
      <trkpt lat="46.32655" lon="5.38682">
        <ele>340.60000610352</ele>
        <time>2020-07-31T06:01:13.000Z</time>
      </trkpt>
      <trkpt lat="46.32651" lon="5.3868">
        <ele>340.79998779297</ele>
        <time>2020-07-31T06:01:14.000Z</time>
      </trkpt>
      <trkpt lat="46.32644" lon="5.38679">
        <ele>341.20001220703</ele>
        <time>2020-07-31T06:01:16.000Z</time>
      </trkpt>
      <trkpt lat="46.32637" lon="5.38677">
        <ele>341.60000610352</ele>
        <time>2020-07-31T06:01:18.000Z</time>
      </trkpt>
      <trkpt lat="46.32631" lon="5.38676">
        <ele>342</ele>
        <time>2020-07-31T06:01:20.000Z</time>
      </trkpt>
      <trkpt lat="46.32624" lon="5.38673">
        <ele>342.60000610352</ele>
        <time>2020-07-31T06:01:22.000Z</time>
      </trkpt>
      <trkpt lat="46.32618" lon="5.3867">
        <ele>343.20001220703</ele>
        <time>2020-07-31T06:01:24.000Z</time>
      </trkpt>
      <trkpt lat="46.32614" lon="5.38669">
        <ele>343.60000610352</ele>
        <time>2020-07-31T06:01:25.000Z</time>
      </trkpt>
      <trkpt lat="46.32608" lon="5.38666">
        <ele>344.39999389648</ele>
        <time>2020-07-31T06:01:27.000Z</time>
      </trkpt>
      <trkpt lat="46.32601" lon="5.38665">
        <ele>344.60000610352</ele>
        <time>2020-07-31T06:01:29.000Z</time>
      </trkpt>
      <trkpt lat="46.32597" lon="5.38663">
        <ele>344.79998779297</ele>
        <time>2020-07-31T06:01:30.000Z</time>
      </trkpt>
      <trkpt lat="46.32594" lon="5.38662">
        <ele>345</ele>
        <time>2020-07-31T06:01:31.000Z</time>
      </trkpt>
      <trkpt lat="46.32587" lon="5.3866">
        <ele>345.79998779297</ele>
        <time>2020-07-31T06:01:33.000Z</time>
      </trkpt>
      <trkpt lat="46.32581" lon="5.38658">
        <ele>346.20001220703</ele>
        <time>2020-07-31T06:01:35.000Z</time>
      </trkpt>
      <trkpt lat="46.32574" lon="5.38655">
        <ele>346.39999389648</ele>
        <time>2020-07-31T06:01:37.000Z</time>
      </trkpt>
      <trkpt lat="46.32567" lon="5.38653">
        <ele>346.79998779297</ele>
        <time>2020-07-31T06:01:39.000Z</time>
      </trkpt>
      <trkpt lat="46.3256" lon="5.3865">
        <ele>347.20001220703</ele>
        <time>2020-07-31T06:01:41.000Z</time>
      </trkpt>
      <trkpt lat="46.32553" lon="5.38648">
        <ele>347.60000610352</ele>
        <time>2020-07-31T06:01:43.000Z</time>
      </trkpt>
      <trkpt lat="46.32546" lon="5.38646">
        <ele>347.79998779297</ele>
        <time>2020-07-31T06:01:45.000Z</time>
      </trkpt>
      <trkpt lat="46.3254" lon="5.38644">
        <ele>348</ele>
        <time>2020-07-31T06:01:47.000Z</time>
      </trkpt>
      <trkpt lat="46.32533" lon="5.38642">
        <ele>348.39999389648</ele>
        <time>2020-07-31T06:01:49.000Z</time>
      </trkpt>
      <trkpt lat="46.32526" lon="5.3864">
        <ele>348.79998779297</ele>
        <time>2020-07-31T06:01:51.000Z</time>
      </trkpt>
      <trkpt lat="46.32523" lon="5.38639">
        <ele>349</ele>
        <time>2020-07-31T06:01:52.000Z</time>
      </trkpt>
      <trkpt lat="46.32519" lon="5.38637">
        <ele>349.20001220703</ele>
        <time>2020-07-31T06:01:53.000Z</time>
      </trkpt>
      <trkpt lat="46.32513" lon="5.38634">
        <ele>349.60000610352</ele>
        <time>2020-07-31T06:01:55.000Z</time>
      </trkpt>
      <trkpt lat="46.32507" lon="5.38631">
        <ele>350.20001220703</ele>
        <time>2020-07-31T06:01:57.000Z</time>
      </trkpt>
      <trkpt lat="46.32497" lon="5.38627">
        <ele>350.60000610352</ele>
        <time>2020-07-31T06:02:00.000Z</time>
      </trkpt>
      <trkpt lat="46.32492" lon="5.38624">
        <ele>351.20001220703</ele>
        <time>2020-07-31T06:02:02.000Z</time>
      </trkpt>
      <trkpt lat="46.32489" lon="5.38622">
        <ele>351.60000610352</ele>
        <time>2020-07-31T06:02:03.000Z</time>
      </trkpt>
      <trkpt lat="46.32486" lon="5.3862">
        <ele>351.79998779297</ele>
        <time>2020-07-31T06:02:04.000Z</time>
      </trkpt>
      <trkpt lat="46.32479" lon="5.38616">
        <ele>352.20001220703</ele>
        <time>2020-07-31T06:02:06.000Z</time>
      </trkpt>
      <trkpt lat="46.32472" lon="5.38612">
        <ele>352.39999389648</ele>
        <time>2020-07-31T06:02:08.000Z</time>
      </trkpt>
      <trkpt lat="46.32465" lon="5.38609">
        <ele>352.60000610352</ele>
        <time>2020-07-31T06:02:10.000Z</time>
      </trkpt>
      <trkpt lat="46.32459" lon="5.38605">
        <ele>353.39999389648</ele>
        <time>2020-07-31T06:02:12.000Z</time>
      </trkpt>
      <trkpt lat="46.32456" lon="5.38603">
        <ele>353.79998779297</ele>
        <time>2020-07-31T06:02:13.000Z</time>
      </trkpt>
      <trkpt lat="46.32453" lon="5.38601">
        <ele>354</ele>
        <time>2020-07-31T06:02:14.000Z</time>
      </trkpt>
      <trkpt lat="46.32446" lon="5.38598">
        <ele>354.39999389648</ele>
        <time>2020-07-31T06:02:16.000Z</time>
      </trkpt>
      <trkpt lat="46.3244" lon="5.38595">
        <ele>354.60000610352</ele>
        <time>2020-07-31T06:02:18.000Z</time>
      </trkpt>
      <trkpt lat="46.32434" lon="5.38591">
        <ele>354.79998779297</ele>
        <time>2020-07-31T06:02:20.000Z</time>
      </trkpt>
      <trkpt lat="46.32426" lon="5.38588">
        <ele>355</ele>
        <time>2020-07-31T06:02:22.000Z</time>
      </trkpt>
      <trkpt lat="46.32419" lon="5.38583">
        <ele>355</ele>
        <time>2020-07-31T06:02:24.000Z</time>
      </trkpt>
      <trkpt lat="46.3241" lon="5.38578">
        <ele>355</ele>
        <time>2020-07-31T06:02:26.000Z</time>
      </trkpt>
      <trkpt lat="46.32401" lon="5.38572">
        <ele>355</ele>
        <time>2020-07-31T06:02:28.000Z</time>
      </trkpt>
      <trkpt lat="46.32391" lon="5.38566">
        <ele>354.79998779297</ele>
        <time>2020-07-31T06:02:30.000Z</time>
      </trkpt>
      <trkpt lat="46.32376" lon="5.38558">
        <ele>354.79998779297</ele>
        <time>2020-07-31T06:02:33.000Z</time>
      </trkpt>
      <trkpt lat="46.32366" lon="5.38552">
        <ele>354.60000610352</ele>
        <time>2020-07-31T06:02:35.000Z</time>
      </trkpt>
      <trkpt lat="46.32361" lon="5.38549">
        <ele>354.60000610352</ele>
        <time>2020-07-31T06:02:36.000Z</time>
      </trkpt>
      <trkpt lat="46.32356" lon="5.38545">
        <ele>354.39999389648</ele>
        <time>2020-07-31T06:02:37.000Z</time>
      </trkpt>
      <trkpt lat="46.32345" lon="5.38538">
        <ele>354.20001220703</ele>
        <time>2020-07-31T06:02:39.000Z</time>
      </trkpt>
      <trkpt lat="46.32334" lon="5.38531">
        <ele>353.60000610352</ele>
        <time>2020-07-31T06:02:41.000Z</time>
      </trkpt>
      <trkpt lat="46.32328" lon="5.38527">
        <ele>353.20001220703</ele>
        <time>2020-07-31T06:02:42.000Z</time>
      </trkpt>
      <trkpt lat="46.32322" lon="5.38522">
        <ele>353</ele>
        <time>2020-07-31T06:02:43.000Z</time>
      </trkpt>
      <trkpt lat="46.32315" lon="5.38517">
        <ele>352.60000610352</ele>
        <time>2020-07-31T06:02:44.000Z</time>
      </trkpt>
      <trkpt lat="46.32309" lon="5.3851">
        <ele>352.20001220703</ele>
        <time>2020-07-31T06:02:45.000Z</time>
      </trkpt>
      <trkpt lat="46.32303" lon="5.38503">
        <ele>351.79998779297</ele>
        <time>2020-07-31T06:02:46.000Z</time>
      </trkpt>
      <trkpt lat="46.32297" lon="5.38495">
        <ele>351.60000610352</ele>
        <time>2020-07-31T06:02:47.000Z</time>
      </trkpt>
      <trkpt lat="46.32283" lon="5.38479">
        <ele>351.39999389648</ele>
        <time>2020-07-31T06:02:49.000Z</time>
      </trkpt>
      <trkpt lat="46.32269" lon="5.38464">
        <ele>351</ele>
        <time>2020-07-31T06:02:51.000Z</time>
      </trkpt>
      <trkpt lat="46.32261" lon="5.38458">
        <ele>350.60000610352</ele>
        <time>2020-07-31T06:02:52.000Z</time>
      </trkpt>
      <trkpt lat="46.32253" lon="5.38454">
        <ele>350</ele>
        <time>2020-07-31T06:02:53.000Z</time>
      </trkpt>
      <trkpt lat="46.32244" lon="5.38451">
        <ele>349.39999389648</ele>
        <time>2020-07-31T06:02:54.000Z</time>
      </trkpt>
      <trkpt lat="46.32236" lon="5.38448">
        <ele>348.39999389648</ele>
        <time>2020-07-31T06:02:55.000Z</time>
      </trkpt>
      <trkpt lat="46.32227" lon="5.38446">
        <ele>348</ele>
        <time>2020-07-31T06:02:56.000Z</time>
      </trkpt>
      <trkpt lat="46.32218" lon="5.38444">
        <ele>347.60000610352</ele>
        <time>2020-07-31T06:02:57.000Z</time>
      </trkpt>
      <trkpt lat="46.32209" lon="5.38442">
        <ele>346.60000610352</ele>
        <time>2020-07-31T06:02:58.000Z</time>
      </trkpt>
      <trkpt lat="46.32199" lon="5.3844">
        <ele>344.79998779297</ele>
        <time>2020-07-31T06:02:59.000Z</time>
      </trkpt>
      <trkpt lat="46.3219" lon="5.38438">
        <ele>343.20001220703</ele>
        <time>2020-07-31T06:03:00.000Z</time>
      </trkpt>
      <trkpt lat="46.32181" lon="5.38436">
        <ele>343</ele>
        <time>2020-07-31T06:03:01.000Z</time>
      </trkpt>
      <trkpt lat="46.32163" lon="5.38432">
        <ele>342.60000610352</ele>
        <time>2020-07-31T06:03:03.000Z</time>
      </trkpt>
      <trkpt lat="46.32154" lon="5.38431">
        <ele>342.60000610352</ele>
        <time>2020-07-31T06:03:04.000Z</time>
      </trkpt>
      <trkpt lat="46.32136" lon="5.38429">
        <ele>342.39999389648</ele>
        <time>2020-07-31T06:03:06.000Z</time>
      </trkpt>
      <trkpt lat="46.32119" lon="5.3843">
        <ele>342.39999389648</ele>
        <time>2020-07-31T06:03:08.000Z</time>
      </trkpt>
      <trkpt lat="46.32111" lon="5.38432">
        <ele>342</ele>
        <time>2020-07-31T06:03:09.000Z</time>
      </trkpt>
      <trkpt lat="46.32103" lon="5.38434">
        <ele>341.60000610352</ele>
        <time>2020-07-31T06:03:10.000Z</time>
      </trkpt>
      <trkpt lat="46.32088" lon="5.38439">
        <ele>341.20001220703</ele>
        <time>2020-07-31T06:03:12.000Z</time>
      </trkpt>
      <trkpt lat="46.32074" lon="5.38445">
        <ele>341.20001220703</ele>
        <time>2020-07-31T06:03:14.000Z</time>
      </trkpt>
      <trkpt lat="46.3206" lon="5.38451">
        <ele>341</ele>
        <time>2020-07-31T06:03:16.000Z</time>
      </trkpt>
      <trkpt lat="46.32047" lon="5.38456">
        <ele>341</ele>
        <time>2020-07-31T06:03:18.000Z</time>
      </trkpt>
      <trkpt lat="46.32035" lon="5.38462">
        <ele>341.20001220703</ele>
        <time>2020-07-31T06:03:20.000Z</time>
      </trkpt>
      <trkpt lat="46.32023" lon="5.38467">
        <ele>341.20001220703</ele>
        <time>2020-07-31T06:03:22.000Z</time>
      </trkpt>
      <trkpt lat="46.32017" lon="5.38469">
        <ele>341.20001220703</ele>
        <time>2020-07-31T06:03:23.000Z</time>
      </trkpt>
      <trkpt lat="46.32011" lon="5.38471">
        <ele>341.20001220703</ele>
        <time>2020-07-31T06:03:24.000Z</time>
      </trkpt>
      <trkpt lat="46.31999" lon="5.38474">
        <ele>341.60000610352</ele>
        <time>2020-07-31T06:03:26.000Z</time>
      </trkpt>
      <trkpt lat="46.31987" lon="5.38478">
        <ele>342</ele>
        <time>2020-07-31T06:03:28.000Z</time>
      </trkpt>
      <trkpt lat="46.31975" lon="5.3848">
        <ele>342.60000610352</ele>
        <time>2020-07-31T06:03:30.000Z</time>
      </trkpt>
      <trkpt lat="46.31963" lon="5.38483">
        <ele>343.20001220703</ele>
        <time>2020-07-31T06:03:32.000Z</time>
      </trkpt>
      <trkpt lat="46.31953" lon="5.38484">
        <ele>343.60000610352</ele>
        <time>2020-07-31T06:03:34.000Z</time>
      </trkpt>
      <trkpt lat="46.31942" lon="5.38486">
        <ele>343.79998779297</ele>
        <time>2020-07-31T06:03:36.000Z</time>
      </trkpt>
      <trkpt lat="46.3193" lon="5.38486">
        <ele>344</ele>
        <time>2020-07-31T06:03:38.000Z</time>
      </trkpt>
      <trkpt lat="46.31917" lon="5.38487">
        <ele>344</ele>
        <time>2020-07-31T06:03:40.000Z</time>
      </trkpt>
      <trkpt lat="46.31911" lon="5.38487">
        <ele>344.20001220703</ele>
        <time>2020-07-31T06:03:41.000Z</time>
      </trkpt>
      <trkpt lat="46.31905" lon="5.38488">
        <ele>344.39999389648</ele>
        <time>2020-07-31T06:03:42.000Z</time>
      </trkpt>
      <trkpt lat="46.31894" lon="5.38488">
        <ele>344.60000610352</ele>
        <time>2020-07-31T06:03:44.000Z</time>
      </trkpt>
      <trkpt lat="46.31888" lon="5.38488">
        <ele>344.60000610352</ele>
        <time>2020-07-31T06:03:45.000Z</time>
      </trkpt>
      <trkpt lat="46.31882" lon="5.38489">
        <ele>344.79998779297</ele>
        <time>2020-07-31T06:03:46.000Z</time>
      </trkpt>
      <trkpt lat="46.31871" lon="5.38491">
        <ele>345</ele>
        <time>2020-07-31T06:03:48.000Z</time>
      </trkpt>
      <trkpt lat="46.31855" lon="5.38493">
        <ele>345</ele>
        <time>2020-07-31T06:03:51.000Z</time>
      </trkpt>
      <trkpt lat="46.31844" lon="5.38496">
        <ele>345.20001220703</ele>
        <time>2020-07-31T06:03:53.000Z</time>
      </trkpt>
      <trkpt lat="46.31833" lon="5.38499">
        <ele>345.39999389648</ele>
        <time>2020-07-31T06:03:55.000Z</time>
      </trkpt>
      <trkpt lat="46.3182" lon="5.38501">
        <ele>345.60000610352</ele>
        <time>2020-07-31T06:03:57.000Z</time>
      </trkpt>
      <trkpt lat="46.31807" lon="5.38505">
        <ele>346</ele>
        <time>2020-07-31T06:03:59.000Z</time>
      </trkpt>
      <trkpt lat="46.31801" lon="5.38507">
        <ele>346</ele>
        <time>2020-07-31T06:04:00.000Z</time>
      </trkpt>
      <trkpt lat="46.31795" lon="5.38508">
        <ele>346</ele>
        <time>2020-07-31T06:04:01.000Z</time>
      </trkpt>
      <trkpt lat="46.31783" lon="5.38511">
        <ele>346</ele>
        <time>2020-07-31T06:04:03.000Z</time>
      </trkpt>
      <trkpt lat="46.3177" lon="5.38514">
        <ele>346.20001220703</ele>
        <time>2020-07-31T06:04:05.000Z</time>
      </trkpt>
      <trkpt lat="46.31758" lon="5.38516">
        <ele>346.20001220703</ele>
        <time>2020-07-31T06:04:07.000Z</time>
      </trkpt>
      <trkpt lat="46.31744" lon="5.38518">
        <ele>346.20001220703</ele>
        <time>2020-07-31T06:04:09.000Z</time>
      </trkpt>
      <trkpt lat="46.3173" lon="5.3852">
        <ele>346.20001220703</ele>
        <time>2020-07-31T06:04:11.000Z</time>
      </trkpt>
      <trkpt lat="46.31717" lon="5.3852">
        <ele>346.60000610352</ele>
        <time>2020-07-31T06:04:13.000Z</time>
      </trkpt>
      <trkpt lat="46.31704" lon="5.38519">
        <ele>346.79998779297</ele>
        <time>2020-07-31T06:04:15.000Z</time>
      </trkpt>
      <trkpt lat="46.31698" lon="5.38517">
        <ele>347.20001220703</ele>
        <time>2020-07-31T06:04:16.000Z</time>
      </trkpt>
      <trkpt lat="46.31692" lon="5.38515">
        <ele>347.39999389648</ele>
        <time>2020-07-31T06:04:17.000Z</time>
      </trkpt>
      <trkpt lat="46.3168" lon="5.3851">
        <ele>347.60000610352</ele>
        <time>2020-07-31T06:04:19.000Z</time>
      </trkpt>
      <trkpt lat="46.31667" lon="5.38503">
        <ele>347.60000610352</ele>
        <time>2020-07-31T06:04:21.000Z</time>
      </trkpt>
      <trkpt lat="46.31661" lon="5.38499">
        <ele>347.60000610352</ele>
        <time>2020-07-31T06:04:22.000Z</time>
      </trkpt>
      <trkpt lat="46.31655" lon="5.38495">
        <ele>347.60000610352</ele>
        <time>2020-07-31T06:04:23.000Z</time>
      </trkpt>
      <trkpt lat="46.31643" lon="5.38489">
        <ele>347.60000610352</ele>
        <time>2020-07-31T06:04:25.000Z</time>
      </trkpt>
      <trkpt lat="46.31632" lon="5.38483">
        <ele>347.79998779297</ele>
        <time>2020-07-31T06:04:27.000Z</time>
      </trkpt>
      <trkpt lat="46.31625" lon="5.38481">
        <ele>347.79998779297</ele>
        <time>2020-07-31T06:04:28.000Z</time>
      </trkpt>
      <trkpt lat="46.31619" lon="5.3848">
        <ele>348</ele>
        <time>2020-07-31T06:04:29.000Z</time>
      </trkpt>
      <trkpt lat="46.31605" lon="5.38479">
        <ele>348</ele>
        <time>2020-07-31T06:04:31.000Z</time>
      </trkpt>
      <trkpt lat="46.31591" lon="5.38479">
        <ele>347.79998779297</ele>
        <time>2020-07-31T06:04:33.000Z</time>
      </trkpt>
      <trkpt lat="46.31576" lon="5.3848">
        <ele>347.60000610352</ele>
        <time>2020-07-31T06:04:35.000Z</time>
      </trkpt>
      <trkpt lat="46.31561" lon="5.38484">
        <ele>347.39999389648</ele>
        <time>2020-07-31T06:04:37.000Z</time>
      </trkpt>
      <trkpt lat="46.31545" lon="5.38489">
        <ele>347.39999389648</ele>
        <time>2020-07-31T06:04:39.000Z</time>
      </trkpt>
      <trkpt lat="46.31531" lon="5.38495">
        <ele>347.39999389648</ele>
        <time>2020-07-31T06:04:41.000Z</time>
      </trkpt>
      <trkpt lat="46.31516" lon="5.38502">
        <ele>347</ele>
        <time>2020-07-31T06:04:43.000Z</time>
      </trkpt>
      <trkpt lat="46.31502" lon="5.38509">
        <ele>346.20001220703</ele>
        <time>2020-07-31T06:04:45.000Z</time>
      </trkpt>
      <trkpt lat="46.31495" lon="5.38512">
        <ele>346</ele>
        <time>2020-07-31T06:04:46.000Z</time>
      </trkpt>
      <trkpt lat="46.31488" lon="5.38516">
        <ele>345.60000610352</ele>
        <time>2020-07-31T06:04:47.000Z</time>
      </trkpt>
      <trkpt lat="46.31474" lon="5.38524">
        <ele>345.39999389648</ele>
        <time>2020-07-31T06:04:49.000Z</time>
      </trkpt>
      <trkpt lat="46.31459" lon="5.38532">
        <ele>345.20001220703</ele>
        <time>2020-07-31T06:04:51.000Z</time>
      </trkpt>
      <trkpt lat="46.31452" lon="5.38535">
        <ele>344.79998779297</ele>
        <time>2020-07-31T06:04:52.000Z</time>
      </trkpt>
      <trkpt lat="46.31444" lon="5.38538">
        <ele>344.60000610352</ele>
        <time>2020-07-31T06:04:53.000Z</time>
      </trkpt>
      <trkpt lat="46.31437" lon="5.3854">
        <ele>344.60000610352</ele>
        <time>2020-07-31T06:04:54.000Z</time>
      </trkpt>
      <trkpt lat="46.31429" lon="5.3854">
        <ele>344.20001220703</ele>
        <time>2020-07-31T06:04:55.000Z</time>
      </trkpt>
      <trkpt lat="46.31421" lon="5.38538">
        <ele>344</ele>
        <time>2020-07-31T06:04:56.000Z</time>
      </trkpt>
      <trkpt lat="46.31406" lon="5.3853">
        <ele>344</ele>
        <time>2020-07-31T06:04:58.000Z</time>
      </trkpt>
      <trkpt lat="46.31399" lon="5.38524">
        <ele>343.79998779297</ele>
        <time>2020-07-31T06:04:59.000Z</time>
      </trkpt>
      <trkpt lat="46.31391" lon="5.38516">
        <ele>343.60000610352</ele>
        <time>2020-07-31T06:05:00.000Z</time>
      </trkpt>
      <trkpt lat="46.31384" lon="5.38507">
        <ele>343.60000610352</ele>
        <time>2020-07-31T06:05:01.000Z</time>
      </trkpt>
      <trkpt lat="46.31376" lon="5.38498">
        <ele>343.60000610352</ele>
        <time>2020-07-31T06:05:02.000Z</time>
      </trkpt>
      <trkpt lat="46.31361" lon="5.38481">
        <ele>343.39999389648</ele>
        <time>2020-07-31T06:05:04.000Z</time>
      </trkpt>
      <trkpt lat="46.31346" lon="5.38463">
        <ele>342.39999389648</ele>
        <time>2020-07-31T06:05:06.000Z</time>
      </trkpt>
      <trkpt lat="46.3133" lon="5.38445">
        <ele>340.79998779297</ele>
        <time>2020-07-31T06:05:08.000Z</time>
      </trkpt>
      <trkpt lat="46.31322" lon="5.38437">
        <ele>340.20001220703</ele>
        <time>2020-07-31T06:05:09.000Z</time>
      </trkpt>
      <trkpt lat="46.31312" lon="5.3843">
        <ele>339.79998779297</ele>
        <time>2020-07-31T06:05:10.000Z</time>
      </trkpt>
      <trkpt lat="46.31303" lon="5.38424">
        <ele>339.60000610352</ele>
        <time>2020-07-31T06:05:11.000Z</time>
      </trkpt>
      <trkpt lat="46.31293" lon="5.38419">
        <ele>339.39999389648</ele>
        <time>2020-07-31T06:05:12.000Z</time>
      </trkpt>
      <trkpt lat="46.31283" lon="5.38415">
        <ele>339.20001220703</ele>
        <time>2020-07-31T06:05:13.000Z</time>
      </trkpt>
      <trkpt lat="46.31273" lon="5.38411">
        <ele>338.79998779297</ele>
        <time>2020-07-31T06:05:14.000Z</time>
      </trkpt>
      <trkpt lat="46.31262" lon="5.38408">
        <ele>338.20001220703</ele>
        <time>2020-07-31T06:05:15.000Z</time>
      </trkpt>
      <trkpt lat="46.31251" lon="5.38404">
        <ele>337.39999389648</ele>
        <time>2020-07-31T06:05:16.000Z</time>
      </trkpt>
      <trkpt lat="46.3124" lon="5.384">
        <ele>336.60000610352</ele>
        <time>2020-07-31T06:05:17.000Z</time>
      </trkpt>
      <trkpt lat="46.31229" lon="5.38396">
        <ele>336.20001220703</ele>
        <time>2020-07-31T06:05:18.000Z</time>
      </trkpt>
      <trkpt lat="46.31206" lon="5.38389">
        <ele>335.20001220703</ele>
        <time>2020-07-31T06:05:20.000Z</time>
      </trkpt>
      <trkpt lat="46.31183" lon="5.38382">
        <ele>334.20001220703</ele>
        <time>2020-07-31T06:05:22.000Z</time>
      </trkpt>
      <trkpt lat="46.31171" lon="5.38379">
        <ele>333.60000610352</ele>
        <time>2020-07-31T06:05:23.000Z</time>
      </trkpt>
      <trkpt lat="46.31159" lon="5.38376">
        <ele>332.20001220703</ele>
        <time>2020-07-31T06:05:24.000Z</time>
      </trkpt>
      <trkpt lat="46.31135" lon="5.38371">
        <ele>331</ele>
        <time>2020-07-31T06:05:26.000Z</time>
      </trkpt>
      <trkpt lat="46.31111" lon="5.38366">
        <ele>330.20001220703</ele>
        <time>2020-07-31T06:05:28.000Z</time>
      </trkpt>
      <trkpt lat="46.31099" lon="5.38364">
        <ele>329.60000610352</ele>
        <time>2020-07-31T06:05:29.000Z</time>
      </trkpt>
      <trkpt lat="46.31087" lon="5.38361">
        <ele>329.20001220703</ele>
        <time>2020-07-31T06:05:30.000Z</time>
      </trkpt>
      <trkpt lat="46.31064" lon="5.38356">
        <ele>328.20001220703</ele>
        <time>2020-07-31T06:05:32.000Z</time>
      </trkpt>
      <trkpt lat="46.31039" lon="5.38351">
        <ele>327</ele>
        <time>2020-07-31T06:05:34.000Z</time>
      </trkpt>
      <trkpt lat="46.31015" lon="5.38347">
        <ele>326</ele>
        <time>2020-07-31T06:05:36.000Z</time>
      </trkpt>
      <trkpt lat="46.31002" lon="5.38346">
        <ele>325.39999389648</ele>
        <time>2020-07-31T06:05:37.000Z</time>
      </trkpt>
      <trkpt lat="46.3099" lon="5.38346">
        <ele>324.79998779297</ele>
        <time>2020-07-31T06:05:38.000Z</time>
      </trkpt>
      <trkpt lat="46.30977" lon="5.38346">
        <ele>324.20001220703</ele>
        <time>2020-07-31T06:05:39.000Z</time>
      </trkpt>
      <trkpt lat="46.30966" lon="5.38346">
        <ele>323</ele>
        <time>2020-07-31T06:05:40.000Z</time>
      </trkpt>
      <trkpt lat="46.3094" lon="5.38347">
        <ele>321.39999389648</ele>
        <time>2020-07-31T06:05:42.000Z</time>
      </trkpt>
      <trkpt lat="46.30916" lon="5.3835">
        <ele>320.20001220703</ele>
        <time>2020-07-31T06:05:44.000Z</time>
      </trkpt>
      <trkpt lat="46.30892" lon="5.38355">
        <ele>319.39999389648</ele>
        <time>2020-07-31T06:05:46.000Z</time>
      </trkpt>
      <trkpt lat="46.3088" lon="5.38358">
        <ele>319</ele>
        <time>2020-07-31T06:05:47.000Z</time>
      </trkpt>
      <trkpt lat="46.30869" lon="5.38361">
        <ele>318.60000610352</ele>
        <time>2020-07-31T06:05:48.000Z</time>
      </trkpt>
      <trkpt lat="46.30844" lon="5.38368">
        <ele>317.39999389648</ele>
        <time>2020-07-31T06:05:50.000Z</time>
      </trkpt>
      <trkpt lat="46.30832" lon="5.38373">
        <ele>316.60000610352</ele>
        <time>2020-07-31T06:05:51.000Z</time>
      </trkpt>
      <trkpt lat="46.30819" lon="5.38377">
        <ele>315.39999389648</ele>
        <time>2020-07-31T06:05:52.000Z</time>
      </trkpt>
      <trkpt lat="46.30806" lon="5.38381">
        <ele>313.20001220703</ele>
        <time>2020-07-31T06:05:53.000Z</time>
      </trkpt>
      <trkpt lat="46.30793" lon="5.38382">
        <ele>312.60000610352</ele>
        <time>2020-07-31T06:05:54.000Z</time>
      </trkpt>
      <trkpt lat="46.30781" lon="5.38383">
        <ele>312.20001220703</ele>
        <time>2020-07-31T06:05:55.000Z</time>
      </trkpt>
      <trkpt lat="46.3077" lon="5.38383">
        <ele>312</ele>
        <time>2020-07-31T06:05:56.000Z</time>
      </trkpt>
      <trkpt lat="46.30746" lon="5.38381">
        <ele>311.20001220703</ele>
        <time>2020-07-31T06:05:58.000Z</time>
      </trkpt>
      <trkpt lat="46.30736" lon="5.38382">
        <ele>310.39999389648</ele>
        <time>2020-07-31T06:05:59.000Z</time>
      </trkpt>
      <trkpt lat="46.30726" lon="5.38382">
        <ele>310</ele>
        <time>2020-07-31T06:06:00.000Z</time>
      </trkpt>
      <trkpt lat="46.30708" lon="5.38383">
        <ele>309.60000610352</ele>
        <time>2020-07-31T06:06:02.000Z</time>
      </trkpt>
      <trkpt lat="46.30693" lon="5.38383">
        <ele>309.60000610352</ele>
        <time>2020-07-31T06:06:04.000Z</time>
      </trkpt>
      <trkpt lat="46.30678" lon="5.38383">
        <ele>309.39999389648</ele>
        <time>2020-07-31T06:06:06.000Z</time>
      </trkpt>
      <trkpt lat="46.30665" lon="5.38382">
        <ele>309.39999389648</ele>
        <time>2020-07-31T06:06:08.000Z</time>
      </trkpt>
      <trkpt lat="46.30651" lon="5.3838">
        <ele>310.39999389648</ele>
        <time>2020-07-31T06:06:10.000Z</time>
      </trkpt>
      <trkpt lat="46.30645" lon="5.38378">
        <ele>311.20001220703</ele>
        <time>2020-07-31T06:06:11.000Z</time>
      </trkpt>
      <trkpt lat="46.30638" lon="5.38376">
        <ele>312</ele>
        <time>2020-07-31T06:06:12.000Z</time>
      </trkpt>
      <trkpt lat="46.30631" lon="5.38374">
        <ele>312.79998779297</ele>
        <time>2020-07-31T06:06:13.000Z</time>
      </trkpt>
      <trkpt lat="46.30625" lon="5.38372">
        <ele>313.79998779297</ele>
        <time>2020-07-31T06:06:14.000Z</time>
      </trkpt>
      <trkpt lat="46.30618" lon="5.3837">
        <ele>314.39999389648</ele>
        <time>2020-07-31T06:06:15.000Z</time>
      </trkpt>
      <trkpt lat="46.30605" lon="5.38366">
        <ele>315.20001220703</ele>
        <time>2020-07-31T06:06:17.000Z</time>
      </trkpt>
      <trkpt lat="46.30599" lon="5.38364">
        <ele>315.60000610352</ele>
        <time>2020-07-31T06:06:18.000Z</time>
      </trkpt>
      <trkpt lat="46.30593" lon="5.38362">
        <ele>315.79998779297</ele>
        <time>2020-07-31T06:06:19.000Z</time>
      </trkpt>
      <trkpt lat="46.30588" lon="5.3836">
        <ele>316</ele>
        <time>2020-07-31T06:06:20.000Z</time>
      </trkpt>
      <trkpt lat="46.30582" lon="5.38358">
        <ele>316.20001220703</ele>
        <time>2020-07-31T06:06:21.000Z</time>
      </trkpt>
      <trkpt lat="46.30567" lon="5.38354">
        <ele>316.79998779297</ele>
        <time>2020-07-31T06:06:24.000Z</time>
      </trkpt>
      <trkpt lat="46.30563" lon="5.38353">
        <ele>317.20001220703</ele>
        <time>2020-07-31T06:06:25.000Z</time>
      </trkpt>
      <trkpt lat="46.30558" lon="5.38352">
        <ele>317.39999389648</ele>
        <time>2020-07-31T06:06:26.000Z</time>
      </trkpt>
      <trkpt lat="46.3055" lon="5.38352">
        <ele>317.79998779297</ele>
        <time>2020-07-31T06:06:28.000Z</time>
      </trkpt>
      <trkpt lat="46.30542" lon="5.38353">
        <ele>318.60000610352</ele>
        <time>2020-07-31T06:06:30.000Z</time>
      </trkpt>
      <trkpt lat="46.30538" lon="5.38354">
        <ele>318.79998779297</ele>
        <time>2020-07-31T06:06:31.000Z</time>
      </trkpt>
      <trkpt lat="46.30535" lon="5.38354">
        <ele>319.20001220703</ele>
        <time>2020-07-31T06:06:32.000Z</time>
      </trkpt>
      <trkpt lat="46.30527" lon="5.38357">
        <ele>319.60000610352</ele>
        <time>2020-07-31T06:06:34.000Z</time>
      </trkpt>
      <trkpt lat="46.30524" lon="5.38358">
        <ele>320</ele>
        <time>2020-07-31T06:06:35.000Z</time>
      </trkpt>
      <trkpt lat="46.30516" lon="5.38362">
        <ele>320.39999389648</ele>
        <time>2020-07-31T06:06:37.000Z</time>
      </trkpt>
      <trkpt lat="46.30513" lon="5.38364">
        <ele>320.79998779297</ele>
        <time>2020-07-31T06:06:38.000Z</time>
      </trkpt>
      <trkpt lat="46.30509" lon="5.38367">
        <ele>321</ele>
        <time>2020-07-31T06:06:39.000Z</time>
      </trkpt>
      <trkpt lat="46.30503" lon="5.38374">
        <ele>321.39999389648</ele>
        <time>2020-07-31T06:06:41.000Z</time>
      </trkpt>
      <trkpt lat="46.30497" lon="5.38381">
        <ele>321.79998779297</ele>
        <time>2020-07-31T06:06:43.000Z</time>
      </trkpt>
      <trkpt lat="46.3049" lon="5.38389">
        <ele>322.39999389648</ele>
        <time>2020-07-31T06:06:45.000Z</time>
      </trkpt>
      <trkpt lat="46.30487" lon="5.38393">
        <ele>322.60000610352</ele>
        <time>2020-07-31T06:06:46.000Z</time>
      </trkpt>
      <trkpt lat="46.30484" lon="5.38397">
        <ele>322.60000610352</ele>
        <time>2020-07-31T06:06:47.000Z</time>
      </trkpt>
      <trkpt lat="46.30478" lon="5.38406">
        <ele>322.79998779297</ele>
        <time>2020-07-31T06:06:49.000Z</time>
      </trkpt>
      <trkpt lat="46.30474" lon="5.3841">
        <ele>322.79998779297</ele>
        <time>2020-07-31T06:06:50.000Z</time>
      </trkpt>
      <trkpt lat="46.30471" lon="5.38415">
        <ele>323.20001220703</ele>
        <time>2020-07-31T06:06:51.000Z</time>
      </trkpt>
      <trkpt lat="46.30465" lon="5.38424">
        <ele>324</ele>
        <time>2020-07-31T06:06:53.000Z</time>
      </trkpt>
      <trkpt lat="46.30458" lon="5.38433">
        <ele>324.39999389648</ele>
        <time>2020-07-31T06:06:55.000Z</time>
      </trkpt>
      <trkpt lat="46.30455" lon="5.38437">
        <ele>324.39999389648</ele>
        <time>2020-07-31T06:06:56.000Z</time>
      </trkpt>
      <trkpt lat="46.30452" lon="5.38441">
        <ele>324.39999389648</ele>
        <time>2020-07-31T06:06:57.000Z</time>
      </trkpt>
      <trkpt lat="46.30445" lon="5.3845">
        <ele>324.60000610352</ele>
        <time>2020-07-31T06:06:59.000Z</time>
      </trkpt>
      <trkpt lat="46.30439" lon="5.38458">
        <ele>324.60000610352</ele>
        <time>2020-07-31T06:07:01.000Z</time>
      </trkpt>
      <trkpt lat="46.30433" lon="5.38466">
        <ele>324.79998779297</ele>
        <time>2020-07-31T06:07:03.000Z</time>
      </trkpt>
      <trkpt lat="46.30427" lon="5.38473">
        <ele>325</ele>
        <time>2020-07-31T06:07:05.000Z</time>
      </trkpt>
      <trkpt lat="46.30425" lon="5.38477">
        <ele>325.20001220703</ele>
        <time>2020-07-31T06:07:06.000Z</time>
      </trkpt>
      <trkpt lat="46.30422" lon="5.3848">
        <ele>325.20001220703</ele>
        <time>2020-07-31T06:07:07.000Z</time>
      </trkpt>
      <trkpt lat="46.30417" lon="5.38487">
        <ele>325.60000610352</ele>
        <time>2020-07-31T06:07:09.000Z</time>
      </trkpt>
      <trkpt lat="46.30411" lon="5.38494">
        <ele>326</ele>
        <time>2020-07-31T06:07:11.000Z</time>
      </trkpt>
      <trkpt lat="46.30409" lon="5.38497">
        <ele>326.20001220703</ele>
        <time>2020-07-31T06:07:12.000Z</time>
      </trkpt>
      <trkpt lat="46.30406" lon="5.385">
        <ele>326.60000610352</ele>
        <time>2020-07-31T06:07:13.000Z</time>
      </trkpt>
      <trkpt lat="46.30401" lon="5.38506">
        <ele>327.39999389648</ele>
        <time>2020-07-31T06:07:15.000Z</time>
      </trkpt>
      <trkpt lat="46.30398" lon="5.38509">
        <ele>327.79998779297</ele>
        <time>2020-07-31T06:07:16.000Z</time>
      </trkpt>
      <trkpt lat="46.30395" lon="5.38511">
        <ele>328.20001220703</ele>
        <time>2020-07-31T06:07:17.000Z</time>
      </trkpt>
      <trkpt lat="46.30392" lon="5.38514">
        <ele>328.79998779297</ele>
        <time>2020-07-31T06:07:18.000Z</time>
      </trkpt>
      <trkpt lat="46.30389" lon="5.38516">
        <ele>329</ele>
        <time>2020-07-31T06:07:19.000Z</time>
      </trkpt>
      <trkpt lat="46.30384" lon="5.38521">
        <ele>329.39999389648</ele>
        <time>2020-07-31T06:07:21.000Z</time>
      </trkpt>
      <trkpt lat="46.30379" lon="5.38527">
        <ele>329.60000610352</ele>
        <time>2020-07-31T06:07:23.000Z</time>
      </trkpt>
      <trkpt lat="46.30374" lon="5.38532">
        <ele>329.79998779297</ele>
        <time>2020-07-31T06:07:25.000Z</time>
      </trkpt>
      <trkpt lat="46.30372" lon="5.38535">
        <ele>330.20001220703</ele>
        <time>2020-07-31T06:07:26.000Z</time>
      </trkpt>
      <trkpt lat="46.30369" lon="5.38538">
        <ele>330.60000610352</ele>
        <time>2020-07-31T06:07:27.000Z</time>
      </trkpt>
      <trkpt lat="46.30367" lon="5.38541">
        <ele>331</ele>
        <time>2020-07-31T06:07:28.000Z</time>
      </trkpt>
      <trkpt lat="46.30365" lon="5.38545">
        <ele>331.39999389648</ele>
        <time>2020-07-31T06:07:29.000Z</time>
      </trkpt>
      <trkpt lat="46.3036" lon="5.38551">
        <ele>332.39999389648</ele>
        <time>2020-07-31T06:07:31.000Z</time>
      </trkpt>
      <trkpt lat="46.30355" lon="5.38557">
        <ele>332.79998779297</ele>
        <time>2020-07-31T06:07:33.000Z</time>
      </trkpt>
      <trkpt lat="46.3035" lon="5.38563">
        <ele>333.20001220703</ele>
        <time>2020-07-31T06:07:35.000Z</time>
      </trkpt>
      <trkpt lat="46.30348" lon="5.38567">
        <ele>333.20001220703</ele>
        <time>2020-07-31T06:07:36.000Z</time>
      </trkpt>
      <trkpt lat="46.30345" lon="5.3857">
        <ele>333.39999389648</ele>
        <time>2020-07-31T06:07:37.000Z</time>
      </trkpt>
      <trkpt lat="46.3034" lon="5.38576">
        <ele>333.60000610352</ele>
        <time>2020-07-31T06:07:39.000Z</time>
      </trkpt>
      <trkpt lat="46.30335" lon="5.38583">
        <ele>334</ele>
        <time>2020-07-31T06:07:41.000Z</time>
      </trkpt>
      <trkpt lat="46.3033" lon="5.38589">
        <ele>334.20001220703</ele>
        <time>2020-07-31T06:07:43.000Z</time>
      </trkpt>
      <trkpt lat="46.30324" lon="5.38594">
        <ele>334.39999389648</ele>
        <time>2020-07-31T06:07:45.000Z</time>
      </trkpt>
      <trkpt lat="46.30318" lon="5.386">
        <ele>334.60000610352</ele>
        <time>2020-07-31T06:07:47.000Z</time>
      </trkpt>
      <trkpt lat="46.30312" lon="5.38606">
        <ele>335.20001220703</ele>
        <time>2020-07-31T06:07:49.000Z</time>
      </trkpt>
      <trkpt lat="46.30309" lon="5.38609">
        <ele>335.20001220703</ele>
        <time>2020-07-31T06:07:50.000Z</time>
      </trkpt>
      <trkpt lat="46.30305" lon="5.38613">
        <ele>335.39999389648</ele>
        <time>2020-07-31T06:07:51.000Z</time>
      </trkpt>
      <trkpt lat="46.30298" lon="5.3862">
        <ele>335.39999389648</ele>
        <time>2020-07-31T06:07:53.000Z</time>
      </trkpt>
      <trkpt lat="46.30291" lon="5.38628">
        <ele>335.60000610352</ele>
        <time>2020-07-31T06:07:55.000Z</time>
      </trkpt>
      <trkpt lat="46.30284" lon="5.38635">
        <ele>335.60000610352</ele>
        <time>2020-07-31T06:07:57.000Z</time>
      </trkpt>
      <trkpt lat="46.30277" lon="5.38644">
        <ele>335.79998779297</ele>
        <time>2020-07-31T06:07:59.000Z</time>
      </trkpt>
      <trkpt lat="46.3027" lon="5.38651">
        <ele>335.79998779297</ele>
        <time>2020-07-31T06:08:01.000Z</time>
      </trkpt>
      <trkpt lat="46.30263" lon="5.38658">
        <ele>335.79998779297</ele>
        <time>2020-07-31T06:08:03.000Z</time>
      </trkpt>
      <trkpt lat="46.3026" lon="5.38661">
        <ele>335.79998779297</ele>
        <time>2020-07-31T06:08:04.000Z</time>
      </trkpt>
      <trkpt lat="46.30256" lon="5.38663">
        <ele>335.79998779297</ele>
        <time>2020-07-31T06:08:05.000Z</time>
      </trkpt>
      <trkpt lat="46.3025" lon="5.38668">
        <ele>335.79998779297</ele>
        <time>2020-07-31T06:08:07.000Z</time>
      </trkpt>
      <trkpt lat="46.30243" lon="5.38673">
        <ele>336</ele>
        <time>2020-07-31T06:08:09.000Z</time>
      </trkpt>
      <trkpt lat="46.30236" lon="5.38677">
        <ele>336.20001220703</ele>
        <time>2020-07-31T06:08:11.000Z</time>
      </trkpt>
      <trkpt lat="46.30233" lon="5.38679">
        <ele>336.20001220703</ele>
        <time>2020-07-31T06:08:12.000Z</time>
      </trkpt>
      <trkpt lat="46.30229" lon="5.38682">
        <ele>336.60000610352</ele>
        <time>2020-07-31T06:08:13.000Z</time>
      </trkpt>
      <trkpt lat="46.30222" lon="5.38689">
        <ele>337</ele>
        <time>2020-07-31T06:08:15.000Z</time>
      </trkpt>
      <trkpt lat="46.3022" lon="5.38693">
        <ele>337.20001220703</ele>
        <time>2020-07-31T06:08:16.000Z</time>
      </trkpt>
      <trkpt lat="46.30217" lon="5.38697">
        <ele>337.39999389648</ele>
        <time>2020-07-31T06:08:17.000Z</time>
      </trkpt>
      <trkpt lat="46.30215" lon="5.38702">
        <ele>338</ele>
        <time>2020-07-31T06:08:18.000Z</time>
      </trkpt>
      <trkpt lat="46.30213" lon="5.38707">
        <ele>338.20001220703</ele>
        <time>2020-07-31T06:08:19.000Z</time>
      </trkpt>
      <trkpt lat="46.30211" lon="5.38719">
        <ele>338.39999389648</ele>
        <time>2020-07-31T06:08:21.000Z</time>
      </trkpt>
      <trkpt lat="46.3021" lon="5.38731">
        <ele>338.79998779297</ele>
        <time>2020-07-31T06:08:23.000Z</time>
      </trkpt>
      <trkpt lat="46.30208" lon="5.38742">
        <ele>339.20001220703</ele>
        <time>2020-07-31T06:08:25.000Z</time>
      </trkpt>
      <trkpt lat="46.30207" lon="5.38748">
        <ele>339.60000610352</ele>
        <time>2020-07-31T06:08:26.000Z</time>
      </trkpt>
      <trkpt lat="46.30207" lon="5.38754">
        <ele>340</ele>
        <time>2020-07-31T06:08:27.000Z</time>
      </trkpt>
      <trkpt lat="46.30206" lon="5.3876">
        <ele>340</ele>
        <time>2020-07-31T06:08:28.000Z</time>
      </trkpt>
      <trkpt lat="46.30205" lon="5.38765">
        <ele>340.20001220703</ele>
        <time>2020-07-31T06:08:29.000Z</time>
      </trkpt>
      <trkpt lat="46.30204" lon="5.38777">
        <ele>340.39999389648</ele>
        <time>2020-07-31T06:08:31.000Z</time>
      </trkpt>
      <trkpt lat="46.30204" lon="5.38789">
        <ele>340.39999389648</ele>
        <time>2020-07-31T06:08:33.000Z</time>
      </trkpt>
      <trkpt lat="46.30204" lon="5.38794">
        <ele>340.60000610352</ele>
        <time>2020-07-31T06:08:34.000Z</time>
      </trkpt>
      <trkpt lat="46.30204" lon="5.388">
        <ele>340.79998779297</ele>
        <time>2020-07-31T06:08:35.000Z</time>
      </trkpt>
      <trkpt lat="46.30204" lon="5.38812">
        <ele>341.20001220703</ele>
        <time>2020-07-31T06:08:37.000Z</time>
      </trkpt>
      <trkpt lat="46.30205" lon="5.38824">
        <ele>341.39999389648</ele>
        <time>2020-07-31T06:08:39.000Z</time>
      </trkpt>
      <trkpt lat="46.30205" lon="5.38829">
        <ele>341.60000610352</ele>
        <time>2020-07-31T06:08:40.000Z</time>
      </trkpt>
      <trkpt lat="46.30206" lon="5.38835">
        <ele>341.79998779297</ele>
        <time>2020-07-31T06:08:41.000Z</time>
      </trkpt>
      <trkpt lat="46.30206" lon="5.38846">
        <ele>342.39999389648</ele>
        <time>2020-07-31T06:08:43.000Z</time>
      </trkpt>
      <trkpt lat="46.30207" lon="5.38852">
        <ele>342.60000610352</ele>
        <time>2020-07-31T06:08:44.000Z</time>
      </trkpt>
      <trkpt lat="46.30207" lon="5.38858">
        <ele>342.79998779297</ele>
        <time>2020-07-31T06:08:45.000Z</time>
      </trkpt>
      <trkpt lat="46.30207" lon="5.38869">
        <ele>343.20001220703</ele>
        <time>2020-07-31T06:08:47.000Z</time>
      </trkpt>
      <trkpt lat="46.30207" lon="5.3888">
        <ele>343.20001220703</ele>
        <time>2020-07-31T06:08:49.000Z</time>
      </trkpt>
      <trkpt lat="46.30205" lon="5.38891">
        <ele>343.60000610352</ele>
        <time>2020-07-31T06:08:51.000Z</time>
      </trkpt>
      <trkpt lat="46.30204" lon="5.38897">
        <ele>343.60000610352</ele>
        <time>2020-07-31T06:08:52.000Z</time>
      </trkpt>
      <trkpt lat="46.30202" lon="5.38902">
        <ele>343.79998779297</ele>
        <time>2020-07-31T06:08:53.000Z</time>
      </trkpt>
      <trkpt lat="46.30198" lon="5.38911">
        <ele>344.20001220703</ele>
        <time>2020-07-31T06:08:55.000Z</time>
      </trkpt>
      <trkpt lat="46.30193" lon="5.38919">
        <ele>344.79998779297</ele>
        <time>2020-07-31T06:08:57.000Z</time>
      </trkpt>
      <trkpt lat="46.30191" lon="5.38922">
        <ele>345.20001220703</ele>
        <time>2020-07-31T06:08:58.000Z</time>
      </trkpt>
      <trkpt lat="46.30187" lon="5.38924">
        <ele>345.60000610352</ele>
        <time>2020-07-31T06:08:59.000Z</time>
      </trkpt>
      <trkpt lat="46.3018" lon="5.38926">
        <ele>346</ele>
        <time>2020-07-31T06:09:01.000Z</time>
      </trkpt>
      <trkpt lat="46.30177" lon="5.38926">
        <ele>346.39999389648</ele>
        <time>2020-07-31T06:09:02.000Z</time>
      </trkpt>
      <trkpt lat="46.30173" lon="5.38926">
        <ele>346.60000610352</ele>
        <time>2020-07-31T06:09:03.000Z</time>
      </trkpt>
      <trkpt lat="46.30166" lon="5.38927">
        <ele>346.79998779297</ele>
        <time>2020-07-31T06:09:05.000Z</time>
      </trkpt>
      <trkpt lat="46.30159" lon="5.38926">
        <ele>347</ele>
        <time>2020-07-31T06:09:07.000Z</time>
      </trkpt>
      <trkpt lat="46.30151" lon="5.38926">
        <ele>347</ele>
        <time>2020-07-31T06:09:09.000Z</time>
      </trkpt>
      <trkpt lat="46.30143" lon="5.38925">
        <ele>347.39999389648</ele>
        <time>2020-07-31T06:09:11.000Z</time>
      </trkpt>
      <trkpt lat="46.30138" lon="5.38924">
        <ele>347.20001220703</ele>
        <time>2020-07-31T06:09:12.000Z</time>
      </trkpt>
      <trkpt lat="46.30133" lon="5.38923">
        <ele>347.20001220703</ele>
        <time>2020-07-31T06:09:13.000Z</time>
      </trkpt>
      <trkpt lat="46.30123" lon="5.38918">
        <ele>347.39999389648</ele>
        <time>2020-07-31T06:09:15.000Z</time>
      </trkpt>
      <trkpt lat="46.30112" lon="5.38914">
        <ele>347.39999389648</ele>
        <time>2020-07-31T06:09:17.000Z</time>
      </trkpt>
      <trkpt lat="46.301" lon="5.3891">
        <ele>347.39999389648</ele>
        <time>2020-07-31T06:09:19.000Z</time>
      </trkpt>
      <trkpt lat="46.30088" lon="5.38904">
        <ele>347</ele>
        <time>2020-07-31T06:09:21.000Z</time>
      </trkpt>
      <trkpt lat="46.30082" lon="5.38899">
        <ele>346.60000610352</ele>
        <time>2020-07-31T06:09:22.000Z</time>
      </trkpt>
      <trkpt lat="46.30077" lon="5.38893">
        <ele>346.60000610352</ele>
        <time>2020-07-31T06:09:23.000Z</time>
      </trkpt>
      <trkpt lat="46.30071" lon="5.38887">
        <ele>346.39999389648</ele>
        <time>2020-07-31T06:09:24.000Z</time>
      </trkpt>
      <trkpt lat="46.30064" lon="5.38882">
        <ele>346.20001220703</ele>
        <time>2020-07-31T06:09:25.000Z</time>
      </trkpt>
      <trkpt lat="46.30057" lon="5.38877">
        <ele>346</ele>
        <time>2020-07-31T06:09:26.000Z</time>
      </trkpt>
      <trkpt lat="46.30049" lon="5.38873">
        <ele>345.79998779297</ele>
        <time>2020-07-31T06:09:27.000Z</time>
      </trkpt>
      <trkpt lat="46.30032" lon="5.38866">
        <ele>345.20001220703</ele>
        <time>2020-07-31T06:09:29.000Z</time>
      </trkpt>
      <trkpt lat="46.30014" lon="5.3886">
        <ele>345</ele>
        <time>2020-07-31T06:09:31.000Z</time>
      </trkpt>
      <trkpt lat="46.30005" lon="5.38857">
        <ele>344.79998779297</ele>
        <time>2020-07-31T06:09:32.000Z</time>
      </trkpt>
      <trkpt lat="46.29996" lon="5.38853">
        <ele>344</ele>
        <time>2020-07-31T06:09:33.000Z</time>
      </trkpt>
      <trkpt lat="46.29987" lon="5.3885">
        <ele>343</ele>
        <time>2020-07-31T06:09:34.000Z</time>
      </trkpt>
      <trkpt lat="46.29977" lon="5.38846">
        <ele>342.20001220703</ele>
        <time>2020-07-31T06:09:35.000Z</time>
      </trkpt>
      <trkpt lat="46.29967" lon="5.38843">
        <ele>341.39999389648</ele>
        <time>2020-07-31T06:09:36.000Z</time>
      </trkpt>
      <trkpt lat="46.29957" lon="5.38841">
        <ele>340.20001220703</ele>
        <time>2020-07-31T06:09:37.000Z</time>
      </trkpt>
      <trkpt lat="46.29947" lon="5.3884">
        <ele>339</ele>
        <time>2020-07-31T06:09:38.000Z</time>
      </trkpt>
      <trkpt lat="46.29937" lon="5.38842">
        <ele>338.39999389648</ele>
        <time>2020-07-31T06:09:39.000Z</time>
      </trkpt>
      <trkpt lat="46.29927" lon="5.38843">
        <ele>337.79998779297</ele>
        <time>2020-07-31T06:09:40.000Z</time>
      </trkpt>
      <trkpt lat="46.29917" lon="5.38843">
        <ele>337.39999389648</ele>
        <time>2020-07-31T06:09:41.000Z</time>
      </trkpt>
      <trkpt lat="46.29907" lon="5.38842">
        <ele>336.79998779297</ele>
        <time>2020-07-31T06:09:42.000Z</time>
      </trkpt>
      <trkpt lat="46.29896" lon="5.38839">
        <ele>336</ele>
        <time>2020-07-31T06:09:43.000Z</time>
      </trkpt>
      <trkpt lat="46.29886" lon="5.38834">
        <ele>335.20001220703</ele>
        <time>2020-07-31T06:09:44.000Z</time>
      </trkpt>
      <trkpt lat="46.29876" lon="5.38829">
        <ele>334.39999389648</ele>
        <time>2020-07-31T06:09:45.000Z</time>
      </trkpt>
      <trkpt lat="46.29866" lon="5.38823">
        <ele>333.20001220703</ele>
        <time>2020-07-31T06:09:46.000Z</time>
      </trkpt>
      <trkpt lat="46.29857" lon="5.38816">
        <ele>332.60000610352</ele>
        <time>2020-07-31T06:09:47.000Z</time>
      </trkpt>
      <trkpt lat="46.29847" lon="5.38809">
        <ele>332.39999389648</ele>
        <time>2020-07-31T06:09:48.000Z</time>
      </trkpt>
      <trkpt lat="46.29838" lon="5.388">
        <ele>331.60000610352</ele>
        <time>2020-07-31T06:09:49.000Z</time>
      </trkpt>
      <trkpt lat="46.29829" lon="5.38789">
        <ele>331</ele>
        <time>2020-07-31T06:09:50.000Z</time>
      </trkpt>
      <trkpt lat="46.29821" lon="5.38779">
        <ele>330.20001220703</ele>
        <time>2020-07-31T06:09:51.000Z</time>
      </trkpt>
      <trkpt lat="46.29803" lon="5.38758">
        <ele>328.79998779297</ele>
        <time>2020-07-31T06:09:53.000Z</time>
      </trkpt>
      <trkpt lat="46.29785" lon="5.38736">
        <ele>328.20001220703</ele>
        <time>2020-07-31T06:09:55.000Z</time>
      </trkpt>
      <trkpt lat="46.29766" lon="5.38716">
        <ele>327.20001220703</ele>
        <time>2020-07-31T06:09:57.000Z</time>
      </trkpt>
      <trkpt lat="46.29746" lon="5.38699">
        <ele>326.60000610352</ele>
        <time>2020-07-31T06:09:59.000Z</time>
      </trkpt>
      <trkpt lat="46.29726" lon="5.38683">
        <ele>325.79998779297</ele>
        <time>2020-07-31T06:10:01.000Z</time>
      </trkpt>
      <trkpt lat="46.29716" lon="5.38675">
        <ele>324.60000610352</ele>
        <time>2020-07-31T06:10:02.000Z</time>
      </trkpt>
      <trkpt lat="46.29706" lon="5.38667">
        <ele>324</ele>
        <time>2020-07-31T06:10:03.000Z</time>
      </trkpt>
      <trkpt lat="46.29696" lon="5.3866">
        <ele>323</ele>
        <time>2020-07-31T06:10:04.000Z</time>
      </trkpt>
      <trkpt lat="46.29688" lon="5.38651">
        <ele>321.79998779297</ele>
        <time>2020-07-31T06:10:05.000Z</time>
      </trkpt>
      <trkpt lat="46.2968" lon="5.38641">
        <ele>320.79998779297</ele>
        <time>2020-07-31T06:10:06.000Z</time>
      </trkpt>
      <trkpt lat="46.29675" lon="5.38628">
        <ele>320.20001220703</ele>
        <time>2020-07-31T06:10:07.000Z</time>
      </trkpt>
      <trkpt lat="46.29669" lon="5.386">
        <ele>319.60000610352</ele>
        <time>2020-07-31T06:10:09.000Z</time>
      </trkpt>
      <trkpt lat="46.29663" lon="5.3857">
        <ele>319.20001220703</ele>
        <time>2020-07-31T06:10:11.000Z</time>
      </trkpt>
      <trkpt lat="46.29656" lon="5.3854">
        <ele>319</ele>
        <time>2020-07-31T06:10:13.000Z</time>
      </trkpt>
      <trkpt lat="46.2965" lon="5.38509">
        <ele>318.60000610352</ele>
        <time>2020-07-31T06:10:15.000Z</time>
      </trkpt>
      <trkpt lat="46.29646" lon="5.38494">
        <ele>318.39999389648</ele>
        <time>2020-07-31T06:10:16.000Z</time>
      </trkpt>
      <trkpt lat="46.29643" lon="5.38479">
        <ele>318.39999389648</ele>
        <time>2020-07-31T06:10:17.000Z</time>
      </trkpt>
      <trkpt lat="46.29638" lon="5.3845">
        <ele>317.79998779297</ele>
        <time>2020-07-31T06:10:19.000Z</time>
      </trkpt>
      <trkpt lat="46.29636" lon="5.38435">
        <ele>316.79998779297</ele>
        <time>2020-07-31T06:10:20.000Z</time>
      </trkpt>
      <trkpt lat="46.29633" lon="5.3842">
        <ele>315.79998779297</ele>
        <time>2020-07-31T06:10:21.000Z</time>
      </trkpt>
      <trkpt lat="46.29631" lon="5.38405">
        <ele>315</ele>
        <time>2020-07-31T06:10:22.000Z</time>
      </trkpt>
      <trkpt lat="46.29629" lon="5.38391">
        <ele>313.79998779297</ele>
        <time>2020-07-31T06:10:23.000Z</time>
      </trkpt>
      <trkpt lat="46.29624" lon="5.38362">
        <ele>312.79998779297</ele>
        <time>2020-07-31T06:10:25.000Z</time>
      </trkpt>
      <trkpt lat="46.29623" lon="5.38333">
        <ele>312.39999389648</ele>
        <time>2020-07-31T06:10:27.000Z</time>
      </trkpt>
      <trkpt lat="46.29625" lon="5.38304">
        <ele>312.20001220703</ele>
        <time>2020-07-31T06:10:29.000Z</time>
      </trkpt>
      <trkpt lat="46.29629" lon="5.38275">
        <ele>311.60000610352</ele>
        <time>2020-07-31T06:10:31.000Z</time>
      </trkpt>
      <trkpt lat="46.29631" lon="5.38246">
        <ele>311.39999389648</ele>
        <time>2020-07-31T06:10:33.000Z</time>
      </trkpt>
      <trkpt lat="46.2963" lon="5.38217">
        <ele>311.20001220703</ele>
        <time>2020-07-31T06:10:35.000Z</time>
      </trkpt>
      <trkpt lat="46.29628" lon="5.38203">
        <ele>311.20001220703</ele>
        <time>2020-07-31T06:10:36.000Z</time>
      </trkpt>
      <trkpt lat="46.29623" lon="5.38191">
        <ele>310.79998779297</ele>
        <time>2020-07-31T06:10:37.000Z</time>
      </trkpt>
      <trkpt lat="46.29616" lon="5.38182">
        <ele>310.39999389648</ele>
        <time>2020-07-31T06:10:38.000Z</time>
      </trkpt>
      <trkpt lat="46.29607" lon="5.38174">
        <ele>310</ele>
        <time>2020-07-31T06:10:39.000Z</time>
      </trkpt>
      <trkpt lat="46.29598" lon="5.38167">
        <ele>309.60000610352</ele>
        <time>2020-07-31T06:10:40.000Z</time>
      </trkpt>
      <trkpt lat="46.2959" lon="5.38161">
        <ele>309.39999389648</ele>
        <time>2020-07-31T06:10:41.000Z</time>
      </trkpt>
      <trkpt lat="46.29581" lon="5.38155">
        <ele>309</ele>
        <time>2020-07-31T06:10:42.000Z</time>
      </trkpt>
      <trkpt lat="46.29572" lon="5.38148">
        <ele>308.79998779297</ele>
        <time>2020-07-31T06:10:43.000Z</time>
      </trkpt>
      <trkpt lat="46.29562" lon="5.38142">
        <ele>307.79998779297</ele>
        <time>2020-07-31T06:10:44.000Z</time>
      </trkpt>
      <trkpt lat="46.29553" lon="5.38136">
        <ele>307.39999389648</ele>
        <time>2020-07-31T06:10:45.000Z</time>
      </trkpt>
      <trkpt lat="46.29535" lon="5.38124">
        <ele>307</ele>
        <time>2020-07-31T06:10:47.000Z</time>
      </trkpt>
      <trkpt lat="46.29526" lon="5.38117">
        <ele>306.79998779297</ele>
        <time>2020-07-31T06:10:48.000Z</time>
      </trkpt>
      <trkpt lat="46.29518" lon="5.38111">
        <ele>306.39999389648</ele>
        <time>2020-07-31T06:10:49.000Z</time>
      </trkpt>
      <trkpt lat="46.295" lon="5.38099">
        <ele>305.39999389648</ele>
        <time>2020-07-31T06:10:51.000Z</time>
      </trkpt>
      <trkpt lat="46.29482" lon="5.38087">
        <ele>305</ele>
        <time>2020-07-31T06:10:53.000Z</time>
      </trkpt>
      <trkpt lat="46.29464" lon="5.38077">
        <ele>304.39999389648</ele>
        <time>2020-07-31T06:10:55.000Z</time>
      </trkpt>
      <trkpt lat="46.29446" lon="5.38068">
        <ele>303.79998779297</ele>
        <time>2020-07-31T06:10:57.000Z</time>
      </trkpt>
      <trkpt lat="46.29437" lon="5.38064">
        <ele>303.60000610352</ele>
        <time>2020-07-31T06:10:58.000Z</time>
      </trkpt>
      <trkpt lat="46.29428" lon="5.3806">
        <ele>303.60000610352</ele>
        <time>2020-07-31T06:10:59.000Z</time>
      </trkpt>
      <trkpt lat="46.29409" lon="5.38055">
        <ele>303.39999389648</ele>
        <time>2020-07-31T06:11:01.000Z</time>
      </trkpt>
      <trkpt lat="46.29391" lon="5.3805">
        <ele>303.39999389648</ele>
        <time>2020-07-31T06:11:03.000Z</time>
      </trkpt>
      <trkpt lat="46.29373" lon="5.38045">
        <ele>303.20001220703</ele>
        <time>2020-07-31T06:11:05.000Z</time>
      </trkpt>
      <trkpt lat="46.29355" lon="5.38037">
        <ele>303</ele>
        <time>2020-07-31T06:11:07.000Z</time>
      </trkpt>
      <trkpt lat="46.29338" lon="5.38028">
        <ele>303</ele>
        <time>2020-07-31T06:11:09.000Z</time>
      </trkpt>
      <trkpt lat="46.2933" lon="5.38022">
        <ele>302.79998779297</ele>
        <time>2020-07-31T06:11:10.000Z</time>
      </trkpt>
      <trkpt lat="46.29322" lon="5.38017">
        <ele>302.79998779297</ele>
        <time>2020-07-31T06:11:11.000Z</time>
      </trkpt>
      <trkpt lat="46.29306" lon="5.38007">
        <ele>302.20001220703</ele>
        <time>2020-07-31T06:11:13.000Z</time>
      </trkpt>
      <trkpt lat="46.2929" lon="5.37997">
        <ele>301.79998779297</ele>
        <time>2020-07-31T06:11:15.000Z</time>
      </trkpt>
      <trkpt lat="46.29273" lon="5.37989">
        <ele>301.39999389648</ele>
        <time>2020-07-31T06:11:17.000Z</time>
      </trkpt>
      <trkpt lat="46.29265" lon="5.37986">
        <ele>301.20001220703</ele>
        <time>2020-07-31T06:11:18.000Z</time>
      </trkpt>
      <trkpt lat="46.29257" lon="5.37983">
        <ele>301</ele>
        <time>2020-07-31T06:11:19.000Z</time>
      </trkpt>
      <trkpt lat="46.2924" lon="5.37976">
        <ele>300.79998779297</ele>
        <time>2020-07-31T06:11:21.000Z</time>
      </trkpt>
      <trkpt lat="46.29223" lon="5.3797">
        <ele>300.60000610352</ele>
        <time>2020-07-31T06:11:23.000Z</time>
      </trkpt>
      <trkpt lat="46.29206" lon="5.37964">
        <ele>300</ele>
        <time>2020-07-31T06:11:25.000Z</time>
      </trkpt>
      <trkpt lat="46.2919" lon="5.37958">
        <ele>299.79998779297</ele>
        <time>2020-07-31T06:11:27.000Z</time>
      </trkpt>
      <trkpt lat="46.29174" lon="5.3795">
        <ele>299.39999389648</ele>
        <time>2020-07-31T06:11:29.000Z</time>
      </trkpt>
      <trkpt lat="46.29158" lon="5.37942">
        <ele>299</ele>
        <time>2020-07-31T06:11:31.000Z</time>
      </trkpt>
      <trkpt lat="46.29151" lon="5.37937">
        <ele>299</ele>
        <time>2020-07-31T06:11:32.000Z</time>
      </trkpt>
      <trkpt lat="46.29143" lon="5.37932">
        <ele>298.79998779297</ele>
        <time>2020-07-31T06:11:33.000Z</time>
      </trkpt>
      <trkpt lat="46.29129" lon="5.37922">
        <ele>298.79998779297</ele>
        <time>2020-07-31T06:11:35.000Z</time>
      </trkpt>
      <trkpt lat="46.29115" lon="5.37912">
        <ele>298.79998779297</ele>
        <time>2020-07-31T06:11:37.000Z</time>
      </trkpt>
      <trkpt lat="46.29102" lon="5.37902">
        <ele>298.39999389648</ele>
        <time>2020-07-31T06:11:39.000Z</time>
      </trkpt>
      <trkpt lat="46.29088" lon="5.37893">
        <ele>298</ele>
        <time>2020-07-31T06:11:41.000Z</time>
      </trkpt>
      <trkpt lat="46.29082" lon="5.37888">
        <ele>297.60000610352</ele>
        <time>2020-07-31T06:11:42.000Z</time>
      </trkpt>
      <trkpt lat="46.29075" lon="5.37883">
        <ele>297.39999389648</ele>
        <time>2020-07-31T06:11:43.000Z</time>
      </trkpt>
      <trkpt lat="46.29062" lon="5.37874">
        <ele>297</ele>
        <time>2020-07-31T06:11:45.000Z</time>
      </trkpt>
      <trkpt lat="46.29049" lon="5.37864">
        <ele>296.79998779297</ele>
        <time>2020-07-31T06:11:47.000Z</time>
      </trkpt>
      <trkpt lat="46.29035" lon="5.37854">
        <ele>296.79998779297</ele>
        <time>2020-07-31T06:11:49.000Z</time>
      </trkpt>
      <trkpt lat="46.29021" lon="5.37845">
        <ele>296.79998779297</ele>
        <time>2020-07-31T06:11:51.000Z</time>
      </trkpt>
      <trkpt lat="46.29008" lon="5.37833">
        <ele>296.60000610352</ele>
        <time>2020-07-31T06:11:53.000Z</time>
      </trkpt>
      <trkpt lat="46.29001" lon="5.37827">
        <ele>296.39999389648</ele>
        <time>2020-07-31T06:11:54.000Z</time>
      </trkpt>
      <trkpt lat="46.28995" lon="5.37821">
        <ele>296.20001220703</ele>
        <time>2020-07-31T06:11:55.000Z</time>
      </trkpt>
      <trkpt lat="46.28982" lon="5.37807">
        <ele>296</ele>
        <time>2020-07-31T06:11:57.000Z</time>
      </trkpt>
      <trkpt lat="46.28969" lon="5.37795">
        <ele>295.60000610352</ele>
        <time>2020-07-31T06:11:59.000Z</time>
      </trkpt>
      <trkpt lat="46.28963" lon="5.37789">
        <ele>295.60000610352</ele>
        <time>2020-07-31T06:12:00.000Z</time>
      </trkpt>
      <trkpt lat="46.28956" lon="5.37784">
        <ele>295.20001220703</ele>
        <time>2020-07-31T06:12:01.000Z</time>
      </trkpt>
      <trkpt lat="46.28942" lon="5.37775">
        <ele>295</ele>
        <time>2020-07-31T06:12:03.000Z</time>
      </trkpt>
      <trkpt lat="46.28927" lon="5.37766">
        <ele>295</ele>
        <time>2020-07-31T06:12:05.000Z</time>
      </trkpt>
      <trkpt lat="46.28912" lon="5.37757">
        <ele>294.79998779297</ele>
        <time>2020-07-31T06:12:07.000Z</time>
      </trkpt>
      <trkpt lat="46.28897" lon="5.37748">
        <ele>294.60000610352</ele>
        <time>2020-07-31T06:12:09.000Z</time>
      </trkpt>
      <trkpt lat="46.28882" lon="5.37738">
        <ele>294</ele>
        <time>2020-07-31T06:12:11.000Z</time>
      </trkpt>
      <trkpt lat="46.28868" lon="5.37728">
        <ele>294</ele>
        <time>2020-07-31T06:12:13.000Z</time>
      </trkpt>
      <trkpt lat="46.28854" lon="5.37717">
        <ele>293.60000610352</ele>
        <time>2020-07-31T06:12:15.000Z</time>
      </trkpt>
      <trkpt lat="46.2884" lon="5.37705">
        <ele>293.39999389648</ele>
        <time>2020-07-31T06:12:17.000Z</time>
      </trkpt>
      <trkpt lat="46.28827" lon="5.37693">
        <ele>292.79998779297</ele>
        <time>2020-07-31T06:12:19.000Z</time>
      </trkpt>
      <trkpt lat="46.28813" lon="5.3768">
        <ele>292.39999389648</ele>
        <time>2020-07-31T06:12:21.000Z</time>
      </trkpt>
      <trkpt lat="46.288" lon="5.37668">
        <ele>292</ele>
        <time>2020-07-31T06:12:23.000Z</time>
      </trkpt>
      <trkpt lat="46.28793" lon="5.37662">
        <ele>291.60000610352</ele>
        <time>2020-07-31T06:12:24.000Z</time>
      </trkpt>
      <trkpt lat="46.28786" lon="5.37655">
        <ele>291.60000610352</ele>
        <time>2020-07-31T06:12:25.000Z</time>
      </trkpt>
      <trkpt lat="46.28773" lon="5.37643">
        <ele>291.20001220703</ele>
        <time>2020-07-31T06:12:27.000Z</time>
      </trkpt>
      <trkpt lat="46.2876" lon="5.37631">
        <ele>290.79998779297</ele>
        <time>2020-07-31T06:12:29.000Z</time>
      </trkpt>
      <trkpt lat="46.28747" lon="5.3762">
        <ele>290.60000610352</ele>
        <time>2020-07-31T06:12:31.000Z</time>
      </trkpt>
      <trkpt lat="46.2874" lon="5.37615">
        <ele>290.60000610352</ele>
        <time>2020-07-31T06:12:32.000Z</time>
      </trkpt>
      <trkpt lat="46.28733" lon="5.37611">
        <ele>290.39999389648</ele>
        <time>2020-07-31T06:12:33.000Z</time>
      </trkpt>
      <trkpt lat="46.28726" lon="5.37606">
        <ele>290.39999389648</ele>
        <time>2020-07-31T06:12:34.000Z</time>
      </trkpt>
      <trkpt lat="46.28719" lon="5.37602">
        <ele>290.39999389648</ele>
        <time>2020-07-31T06:12:35.000Z</time>
      </trkpt>
      <trkpt lat="46.28706" lon="5.37594">
        <ele>290.20001220703</ele>
        <time>2020-07-31T06:12:37.000Z</time>
      </trkpt>
      <trkpt lat="46.28692" lon="5.37586">
        <ele>290.20001220703</ele>
        <time>2020-07-31T06:12:39.000Z</time>
      </trkpt>
      <trkpt lat="46.28677" lon="5.37577">
        <ele>290</ele>
        <time>2020-07-31T06:12:41.000Z</time>
      </trkpt>
      <trkpt lat="46.2867" lon="5.37573">
        <ele>290</ele>
        <time>2020-07-31T06:12:42.000Z</time>
      </trkpt>
      <trkpt lat="46.28663" lon="5.37568">
        <ele>289.79998779297</ele>
        <time>2020-07-31T06:12:43.000Z</time>
      </trkpt>
      <trkpt lat="46.28648" lon="5.37558">
        <ele>289.39999389648</ele>
        <time>2020-07-31T06:12:45.000Z</time>
      </trkpt>
      <trkpt lat="46.28633" lon="5.37547">
        <ele>289.20001220703</ele>
        <time>2020-07-31T06:12:47.000Z</time>
      </trkpt>
      <trkpt lat="46.28618" lon="5.37536">
        <ele>288.79998779297</ele>
        <time>2020-07-31T06:12:49.000Z</time>
      </trkpt>
      <trkpt lat="46.2861" lon="5.37531">
        <ele>288.79998779297</ele>
        <time>2020-07-31T06:12:50.000Z</time>
      </trkpt>
      <trkpt lat="46.28602" lon="5.37525">
        <ele>288.60000610352</ele>
        <time>2020-07-31T06:12:51.000Z</time>
      </trkpt>
      <trkpt lat="46.28586" lon="5.37514">
        <ele>288.60000610352</ele>
        <time>2020-07-31T06:12:53.000Z</time>
      </trkpt>
      <trkpt lat="46.28571" lon="5.37504">
        <ele>288.39999389648</ele>
        <time>2020-07-31T06:12:55.000Z</time>
      </trkpt>
      <trkpt lat="46.28563" lon="5.37499">
        <ele>288.39999389648</ele>
        <time>2020-07-31T06:12:56.000Z</time>
      </trkpt>
      <trkpt lat="46.28556" lon="5.37494">
        <ele>288</ele>
        <time>2020-07-31T06:12:57.000Z</time>
      </trkpt>
      <trkpt lat="46.2854" lon="5.37486">
        <ele>287.39999389648</ele>
        <time>2020-07-31T06:12:59.000Z</time>
      </trkpt>
      <trkpt lat="46.28525" lon="5.37481">
        <ele>286.79998779297</ele>
        <time>2020-07-31T06:13:01.000Z</time>
      </trkpt>
      <trkpt lat="46.28508" lon="5.3748">
        <ele>286.60000610352</ele>
        <time>2020-07-31T06:13:03.000Z</time>
      </trkpt>
      <trkpt lat="46.28491" lon="5.37479">
        <ele>286.20001220703</ele>
        <time>2020-07-31T06:13:05.000Z</time>
      </trkpt>
      <trkpt lat="46.28475" lon="5.37478">
        <ele>286</ele>
        <time>2020-07-31T06:13:07.000Z</time>
      </trkpt>
      <trkpt lat="46.28458" lon="5.37477">
        <ele>285.60000610352</ele>
        <time>2020-07-31T06:13:09.000Z</time>
      </trkpt>
      <trkpt lat="46.28442" lon="5.37476">
        <ele>285.39999389648</ele>
        <time>2020-07-31T06:13:11.000Z</time>
      </trkpt>
      <trkpt lat="46.28427" lon="5.37475">
        <ele>285.20001220703</ele>
        <time>2020-07-31T06:13:13.000Z</time>
      </trkpt>
      <trkpt lat="46.28411" lon="5.37472">
        <ele>285</ele>
        <time>2020-07-31T06:13:15.000Z</time>
      </trkpt>
      <trkpt lat="46.28395" lon="5.37467">
        <ele>284.79998779297</ele>
        <time>2020-07-31T06:13:17.000Z</time>
      </trkpt>
      <trkpt lat="46.28387" lon="5.37464">
        <ele>284.79998779297</ele>
        <time>2020-07-31T06:13:18.000Z</time>
      </trkpt>
      <trkpt lat="46.28379" lon="5.37459">
        <ele>284.60000610352</ele>
        <time>2020-07-31T06:13:19.000Z</time>
      </trkpt>
      <trkpt lat="46.28364" lon="5.3745">
        <ele>284.39999389648</ele>
        <time>2020-07-31T06:13:21.000Z</time>
      </trkpt>
      <trkpt lat="46.28349" lon="5.37437">
        <ele>284.20001220703</ele>
        <time>2020-07-31T06:13:23.000Z</time>
      </trkpt>
      <trkpt lat="46.28343" lon="5.37429">
        <ele>284.20001220703</ele>
        <time>2020-07-31T06:13:24.000Z</time>
      </trkpt>
      <trkpt lat="46.28336" lon="5.37422">
        <ele>284</ele>
        <time>2020-07-31T06:13:25.000Z</time>
      </trkpt>
      <trkpt lat="46.28324" lon="5.37406">
        <ele>283.79998779297</ele>
        <time>2020-07-31T06:13:27.000Z</time>
      </trkpt>
      <trkpt lat="46.28312" lon="5.37388">
        <ele>283.39999389648</ele>
        <time>2020-07-31T06:13:29.000Z</time>
      </trkpt>
      <trkpt lat="46.28301" lon="5.3737">
        <ele>283.20001220703</ele>
        <time>2020-07-31T06:13:31.000Z</time>
      </trkpt>
      <trkpt lat="46.28291" lon="5.37351">
        <ele>283</ele>
        <time>2020-07-31T06:13:33.000Z</time>
      </trkpt>
      <trkpt lat="46.28281" lon="5.37333">
        <ele>283</ele>
        <time>2020-07-31T06:13:35.000Z</time>
      </trkpt>
      <trkpt lat="46.2827" lon="5.37315">
        <ele>282.79998779297</ele>
        <time>2020-07-31T06:13:37.000Z</time>
      </trkpt>
      <trkpt lat="46.28261" lon="5.37297">
        <ele>282.39999389648</ele>
        <time>2020-07-31T06:13:39.000Z</time>
      </trkpt>
      <trkpt lat="46.28251" lon="5.3728">
        <ele>282.20001220703</ele>
        <time>2020-07-31T06:13:41.000Z</time>
      </trkpt>
      <trkpt lat="46.28241" lon="5.37263">
        <ele>282.20001220703</ele>
        <time>2020-07-31T06:13:43.000Z</time>
      </trkpt>
      <trkpt lat="46.28232" lon="5.3725">
        <ele>282.20001220703</ele>
        <time>2020-07-31T06:13:45.000Z</time>
      </trkpt>
      <trkpt lat="46.28222" lon="5.37239">
        <ele>282.20001220703</ele>
        <time>2020-07-31T06:13:47.000Z</time>
      </trkpt>
      <trkpt lat="46.28218" lon="5.37235">
        <ele>282.20001220703</ele>
        <time>2020-07-31T06:13:48.000Z</time>
      </trkpt>
      <trkpt lat="46.28213" lon="5.37232">
        <ele>282.20001220703</ele>
        <time>2020-07-31T06:13:49.000Z</time>
      </trkpt>
      <trkpt lat="46.28204" lon="5.37225">
        <ele>282.39999389648</ele>
        <time>2020-07-31T06:13:51.000Z</time>
      </trkpt>
      <trkpt lat="46.28194" lon="5.37221">
        <ele>282.79998779297</ele>
        <time>2020-07-31T06:13:53.000Z</time>
      </trkpt>
      <trkpt lat="46.28184" lon="5.37218">
        <ele>283.79998779297</ele>
        <time>2020-07-31T06:13:55.000Z</time>
      </trkpt>
      <trkpt lat="46.28179" lon="5.37216">
        <ele>284</ele>
        <time>2020-07-31T06:13:56.000Z</time>
      </trkpt>
      <trkpt lat="46.28174" lon="5.37215">
        <ele>284.20001220703</ele>
        <time>2020-07-31T06:13:57.000Z</time>
      </trkpt>
      <trkpt lat="46.28165" lon="5.37214">
        <ele>285</ele>
        <time>2020-07-31T06:13:59.000Z</time>
      </trkpt>
      <trkpt lat="46.2816" lon="5.37213">
        <ele>285.20001220703</ele>
        <time>2020-07-31T06:14:00.000Z</time>
      </trkpt>
      <trkpt lat="46.28155" lon="5.37213">
        <ele>285.20001220703</ele>
        <time>2020-07-31T06:14:01.000Z</time>
      </trkpt>
      <trkpt lat="46.28146" lon="5.37212">
        <ele>285.60000610352</ele>
        <time>2020-07-31T06:14:03.000Z</time>
      </trkpt>
      <trkpt lat="46.28142" lon="5.37212">
        <ele>286.20001220703</ele>
        <time>2020-07-31T06:14:04.000Z</time>
      </trkpt>
      <trkpt lat="46.28137" lon="5.37212">
        <ele>286.60000610352</ele>
        <time>2020-07-31T06:14:05.000Z</time>
      </trkpt>
      <trkpt lat="46.28128" lon="5.37211">
        <ele>287.39999389648</ele>
        <time>2020-07-31T06:14:07.000Z</time>
      </trkpt>
      <trkpt lat="46.28118" lon="5.3721">
        <ele>288.60000610352</ele>
        <time>2020-07-31T06:14:09.000Z</time>
      </trkpt>
      <trkpt lat="46.28113" lon="5.37209">
        <ele>288.79998779297</ele>
        <time>2020-07-31T06:14:10.000Z</time>
      </trkpt>
      <trkpt lat="46.28108" lon="5.37208">
        <ele>289</ele>
        <time>2020-07-31T06:14:11.000Z</time>
      </trkpt>
      <trkpt lat="46.28097" lon="5.37207">
        <ele>289.39999389648</ele>
        <time>2020-07-31T06:14:13.000Z</time>
      </trkpt>
      <trkpt lat="46.28092" lon="5.37206">
        <ele>289.60000610352</ele>
        <time>2020-07-31T06:14:14.000Z</time>
      </trkpt>
      <trkpt lat="46.28087" lon="5.37205">
        <ele>289.79998779297</ele>
        <time>2020-07-31T06:14:15.000Z</time>
      </trkpt>
      <trkpt lat="46.28076" lon="5.37203">
        <ele>290</ele>
        <time>2020-07-31T06:14:17.000Z</time>
      </trkpt>
      <trkpt lat="46.28066" lon="5.372">
        <ele>290.39999389648</ele>
        <time>2020-07-31T06:14:19.000Z</time>
      </trkpt>
      <trkpt lat="46.28061" lon="5.37199">
        <ele>290.39999389648</ele>
        <time>2020-07-31T06:14:20.000Z</time>
      </trkpt>
      <trkpt lat="46.28055" lon="5.37197">
        <ele>290.39999389648</ele>
        <time>2020-07-31T06:14:21.000Z</time>
      </trkpt>
      <trkpt lat="46.28045" lon="5.37194">
        <ele>290.60000610352</ele>
        <time>2020-07-31T06:14:23.000Z</time>
      </trkpt>
      <trkpt lat="46.28035" lon="5.37191">
        <ele>291</ele>
        <time>2020-07-31T06:14:25.000Z</time>
      </trkpt>
      <trkpt lat="46.28025" lon="5.37186">
        <ele>291</ele>
        <time>2020-07-31T06:14:27.000Z</time>
      </trkpt>
      <trkpt lat="46.28014" lon="5.37182">
        <ele>291.20001220703</ele>
        <time>2020-07-31T06:14:29.000Z</time>
      </trkpt>
      <trkpt lat="46.28004" lon="5.37176">
        <ele>291.60000610352</ele>
        <time>2020-07-31T06:14:31.000Z</time>
      </trkpt>
      <trkpt lat="46.27999" lon="5.37174">
        <ele>291.79998779297</ele>
        <time>2020-07-31T06:14:32.000Z</time>
      </trkpt>
      <trkpt lat="46.27994" lon="5.37171">
        <ele>292</ele>
        <time>2020-07-31T06:14:33.000Z</time>
      </trkpt>
      <trkpt lat="46.27984" lon="5.37164">
        <ele>292.20001220703</ele>
        <time>2020-07-31T06:14:35.000Z</time>
      </trkpt>
      <trkpt lat="46.27975" lon="5.37158">
        <ele>292.39999389648</ele>
        <time>2020-07-31T06:14:37.000Z</time>
      </trkpt>
      <trkpt lat="46.27965" lon="5.37152">
        <ele>292.60000610352</ele>
        <time>2020-07-31T06:14:39.000Z</time>
      </trkpt>
      <trkpt lat="46.27956" lon="5.37145">
        <ele>292.60000610352</ele>
        <time>2020-07-31T06:14:41.000Z</time>
      </trkpt>
      <trkpt lat="46.27946" lon="5.37138">
        <ele>292.79998779297</ele>
        <time>2020-07-31T06:14:43.000Z</time>
      </trkpt>
      <trkpt lat="46.27941" lon="5.37135">
        <ele>293</ele>
        <time>2020-07-31T06:14:44.000Z</time>
      </trkpt>
      <trkpt lat="46.27935" lon="5.37132">
        <ele>293.20001220703</ele>
        <time>2020-07-31T06:14:45.000Z</time>
      </trkpt>
      <trkpt lat="46.27924" lon="5.37125">
        <ele>293.39999389648</ele>
        <time>2020-07-31T06:14:47.000Z</time>
      </trkpt>
      <trkpt lat="46.27912" lon="5.37118">
        <ele>293.39999389648</ele>
        <time>2020-07-31T06:14:49.000Z</time>
      </trkpt>
      <trkpt lat="46.279" lon="5.37111">
        <ele>293.39999389648</ele>
        <time>2020-07-31T06:14:51.000Z</time>
      </trkpt>
      <trkpt lat="46.27886" lon="5.37104">
        <ele>293.39999389648</ele>
        <time>2020-07-31T06:14:53.000Z</time>
      </trkpt>
      <trkpt lat="46.27879" lon="5.37101">
        <ele>293.39999389648</ele>
        <time>2020-07-31T06:14:54.000Z</time>
      </trkpt>
      <trkpt lat="46.27871" lon="5.37097">
        <ele>293.39999389648</ele>
        <time>2020-07-31T06:14:55.000Z</time>
      </trkpt>
      <trkpt lat="46.27856" lon="5.37089">
        <ele>293.20001220703</ele>
        <time>2020-07-31T06:14:57.000Z</time>
      </trkpt>
      <trkpt lat="46.2784" lon="5.37082">
        <ele>292.79998779297</ele>
        <time>2020-07-31T06:14:59.000Z</time>
      </trkpt>
      <trkpt lat="46.27824" lon="5.37074">
        <ele>291.79998779297</ele>
        <time>2020-07-31T06:15:01.000Z</time>
      </trkpt>
      <trkpt lat="46.27816" lon="5.3707">
        <ele>291.39999389648</ele>
        <time>2020-07-31T06:15:02.000Z</time>
      </trkpt>
      <trkpt lat="46.27808" lon="5.37066">
        <ele>290.39999389648</ele>
        <time>2020-07-31T06:15:03.000Z</time>
      </trkpt>
      <trkpt lat="46.27791" lon="5.37058">
        <ele>288.79998779297</ele>
        <time>2020-07-31T06:15:05.000Z</time>
      </trkpt>
      <trkpt lat="46.27774" lon="5.3705">
        <ele>288.20001220703</ele>
        <time>2020-07-31T06:15:07.000Z</time>
      </trkpt>
      <trkpt lat="46.27757" lon="5.37042">
        <ele>288</ele>
        <time>2020-07-31T06:15:09.000Z</time>
      </trkpt>
      <trkpt lat="46.2774" lon="5.37033">
        <ele>287.60000610352</ele>
        <time>2020-07-31T06:15:11.000Z</time>
      </trkpt>
      <trkpt lat="46.27732" lon="5.37029">
        <ele>287.39999389648</ele>
        <time>2020-07-31T06:15:12.000Z</time>
      </trkpt>
      <trkpt lat="46.27724" lon="5.37025">
        <ele>287.20001220703</ele>
        <time>2020-07-31T06:15:13.000Z</time>
      </trkpt>
      <trkpt lat="46.27708" lon="5.37017">
        <ele>286.79998779297</ele>
        <time>2020-07-31T06:15:15.000Z</time>
      </trkpt>
      <trkpt lat="46.27693" lon="5.37009">
        <ele>286.60000610352</ele>
        <time>2020-07-31T06:15:17.000Z</time>
      </trkpt>
      <trkpt lat="46.27686" lon="5.37006">
        <ele>286.60000610352</ele>
        <time>2020-07-31T06:15:18.000Z</time>
      </trkpt>
      <trkpt lat="46.2768" lon="5.37002">
        <ele>286.60000610352</ele>
        <time>2020-07-31T06:15:19.000Z</time>
      </trkpt>
      <trkpt lat="46.27667" lon="5.36995">
        <ele>286.60000610352</ele>
        <time>2020-07-31T06:15:21.000Z</time>
      </trkpt>
      <trkpt lat="46.27655" lon="5.36989">
        <ele>286.60000610352</ele>
        <time>2020-07-31T06:15:23.000Z</time>
      </trkpt>
      <trkpt lat="46.27643" lon="5.36982">
        <ele>286.60000610352</ele>
        <time>2020-07-31T06:15:25.000Z</time>
      </trkpt>
      <trkpt lat="46.27631" lon="5.36976">
        <ele>287.20001220703</ele>
        <time>2020-07-31T06:15:27.000Z</time>
      </trkpt>
      <trkpt lat="46.27625" lon="5.36972">
        <ele>287.60000610352</ele>
        <time>2020-07-31T06:15:28.000Z</time>
      </trkpt>
      <trkpt lat="46.27619" lon="5.36969">
        <ele>288.20001220703</ele>
        <time>2020-07-31T06:15:29.000Z</time>
      </trkpt>
      <trkpt lat="46.27608" lon="5.36962">
        <ele>288.60000610352</ele>
        <time>2020-07-31T06:15:31.000Z</time>
      </trkpt>
      <trkpt lat="46.27602" lon="5.36958">
        <ele>288.79998779297</ele>
        <time>2020-07-31T06:15:32.000Z</time>
      </trkpt>
      <trkpt lat="46.27597" lon="5.36954">
        <ele>289.20001220703</ele>
        <time>2020-07-31T06:15:33.000Z</time>
      </trkpt>
      <trkpt lat="46.27585" lon="5.36947">
        <ele>289.60000610352</ele>
        <time>2020-07-31T06:15:35.000Z</time>
      </trkpt>
      <trkpt lat="46.27574" lon="5.3694">
        <ele>289.79998779297</ele>
        <time>2020-07-31T06:15:37.000Z</time>
      </trkpt>
      <trkpt lat="46.27562" lon="5.36932">
        <ele>289.79998779297</ele>
        <time>2020-07-31T06:15:39.000Z</time>
      </trkpt>
      <trkpt lat="46.27551" lon="5.36925">
        <ele>290.20001220703</ele>
        <time>2020-07-31T06:15:41.000Z</time>
      </trkpt>
      <trkpt lat="46.27539" lon="5.36917">
        <ele>290.39999389648</ele>
        <time>2020-07-31T06:15:43.000Z</time>
      </trkpt>
      <trkpt lat="46.27528" lon="5.3691">
        <ele>290.60000610352</ele>
        <time>2020-07-31T06:15:45.000Z</time>
      </trkpt>
      <trkpt lat="46.27517" lon="5.36903">
        <ele>290.79998779297</ele>
        <time>2020-07-31T06:15:47.000Z</time>
      </trkpt>
      <trkpt lat="46.27511" lon="5.36899">
        <ele>291</ele>
        <time>2020-07-31T06:15:48.000Z</time>
      </trkpt>
      <trkpt lat="46.27506" lon="5.36896">
        <ele>291.20001220703</ele>
        <time>2020-07-31T06:15:49.000Z</time>
      </trkpt>
      <trkpt lat="46.27495" lon="5.36889">
        <ele>291.39999389648</ele>
        <time>2020-07-31T06:15:51.000Z</time>
      </trkpt>
      <trkpt lat="46.27485" lon="5.36882">
        <ele>291.60000610352</ele>
        <time>2020-07-31T06:15:53.000Z</time>
      </trkpt>
      <trkpt lat="46.27474" lon="5.36875">
        <ele>292.20001220703</ele>
        <time>2020-07-31T06:15:55.000Z</time>
      </trkpt>
      <trkpt lat="46.27465" lon="5.36868">
        <ele>292.39999389648</ele>
        <time>2020-07-31T06:15:57.000Z</time>
      </trkpt>
      <trkpt lat="46.27455" lon="5.36862">
        <ele>292.79998779297</ele>
        <time>2020-07-31T06:15:59.000Z</time>
      </trkpt>
      <trkpt lat="46.27445" lon="5.36855">
        <ele>292.79998779297</ele>
        <time>2020-07-31T06:16:01.000Z</time>
      </trkpt>
      <trkpt lat="46.27435" lon="5.36848">
        <ele>293.20001220703</ele>
        <time>2020-07-31T06:16:03.000Z</time>
      </trkpt>
      <trkpt lat="46.27431" lon="5.36845">
        <ele>293.39999389648</ele>
        <time>2020-07-31T06:16:04.000Z</time>
      </trkpt>
      <trkpt lat="46.27426" lon="5.36842">
        <ele>293.39999389648</ele>
        <time>2020-07-31T06:16:05.000Z</time>
      </trkpt>
      <trkpt lat="46.27417" lon="5.36835">
        <ele>293.60000610352</ele>
        <time>2020-07-31T06:16:07.000Z</time>
      </trkpt>
      <trkpt lat="46.27407" lon="5.36829">
        <ele>293.79998779297</ele>
        <time>2020-07-31T06:16:09.000Z</time>
      </trkpt>
      <trkpt lat="46.27398" lon="5.36822">
        <ele>293.79998779297</ele>
        <time>2020-07-31T06:16:11.000Z</time>
      </trkpt>
      <trkpt lat="46.27388" lon="5.36815">
        <ele>293.79998779297</ele>
        <time>2020-07-31T06:16:13.000Z</time>
      </trkpt>
      <trkpt lat="46.27383" lon="5.36811">
        <ele>294</ele>
        <time>2020-07-31T06:16:14.000Z</time>
      </trkpt>
      <trkpt lat="46.27379" lon="5.36807">
        <ele>294</ele>
        <time>2020-07-31T06:16:15.000Z</time>
      </trkpt>
      <trkpt lat="46.27369" lon="5.36799">
        <ele>294</ele>
        <time>2020-07-31T06:16:17.000Z</time>
      </trkpt>
      <trkpt lat="46.27359" lon="5.36791">
        <ele>294.20001220703</ele>
        <time>2020-07-31T06:16:19.000Z</time>
      </trkpt>
      <trkpt lat="46.27349" lon="5.36782">
        <ele>294.20001220703</ele>
        <time>2020-07-31T06:16:21.000Z</time>
      </trkpt>
      <trkpt lat="46.27339" lon="5.36773">
        <ele>294.20001220703</ele>
        <time>2020-07-31T06:16:23.000Z</time>
      </trkpt>
      <trkpt lat="46.27329" lon="5.36764">
        <ele>294.20001220703</ele>
        <time>2020-07-31T06:16:25.000Z</time>
      </trkpt>
      <trkpt lat="46.2732" lon="5.36754">
        <ele>294.20001220703</ele>
        <time>2020-07-31T06:16:27.000Z</time>
      </trkpt>
      <trkpt lat="46.2731" lon="5.36745">
        <ele>294.20001220703</ele>
        <time>2020-07-31T06:16:29.000Z</time>
      </trkpt>
      <trkpt lat="46.273" lon="5.36735">
        <ele>294</ele>
        <time>2020-07-31T06:16:31.000Z</time>
      </trkpt>
      <trkpt lat="46.2729" lon="5.36725">
        <ele>293.79998779297</ele>
        <time>2020-07-31T06:16:33.000Z</time>
      </trkpt>
      <trkpt lat="46.27281" lon="5.36715">
        <ele>293.60000610352</ele>
        <time>2020-07-31T06:16:35.000Z</time>
      </trkpt>
      <trkpt lat="46.27272" lon="5.36705">
        <ele>293.60000610352</ele>
        <time>2020-07-31T06:16:37.000Z</time>
      </trkpt>
      <trkpt lat="46.27263" lon="5.36696">
        <ele>293.39999389648</ele>
        <time>2020-07-31T06:16:39.000Z</time>
      </trkpt>
      <trkpt lat="46.27254" lon="5.36687">
        <ele>293.39999389648</ele>
        <time>2020-07-31T06:16:41.000Z</time>
      </trkpt>
      <trkpt lat="46.27245" lon="5.36679">
        <ele>293.60000610352</ele>
        <time>2020-07-31T06:16:43.000Z</time>
      </trkpt>
      <trkpt lat="46.27236" lon="5.36671">
        <ele>294</ele>
        <time>2020-07-31T06:16:45.000Z</time>
      </trkpt>
      <trkpt lat="46.27229" lon="5.36663">
        <ele>294.39999389648</ele>
        <time>2020-07-31T06:16:47.000Z</time>
      </trkpt>
      <trkpt lat="46.27225" lon="5.3666">
        <ele>294.39999389648</ele>
        <time>2020-07-31T06:16:48.000Z</time>
      </trkpt>
      <trkpt lat="46.27222" lon="5.36656">
        <ele>294.60000610352</ele>
        <time>2020-07-31T06:16:49.000Z</time>
      </trkpt>
      <trkpt lat="46.27216" lon="5.36651">
        <ele>294.79998779297</ele>
        <time>2020-07-31T06:16:51.000Z</time>
      </trkpt>
      <trkpt lat="46.27211" lon="5.36644">
        <ele>295</ele>
        <time>2020-07-31T06:16:53.000Z</time>
      </trkpt>
      <trkpt lat="46.27207" lon="5.36639">
        <ele>295.20001220703</ele>
        <time>2020-07-31T06:16:54.000Z</time>
      </trkpt>
      <trkpt lat="46.27204" lon="5.36635">
        <ele>295.39999389648</ele>
        <time>2020-07-31T06:16:55.000Z</time>
      </trkpt>
      <trkpt lat="46.27195" lon="5.36628">
        <ele>296.20001220703</ele>
        <time>2020-07-31T06:16:57.000Z</time>
      </trkpt>
      <trkpt lat="46.27191" lon="5.36625">
        <ele>296.39999389648</ele>
        <time>2020-07-31T06:16:58.000Z</time>
      </trkpt>
      <trkpt lat="46.27187" lon="5.36621">
        <ele>296.79998779297</ele>
        <time>2020-07-31T06:16:59.000Z</time>
      </trkpt>
      <trkpt lat="46.27179" lon="5.36615">
        <ele>297.20001220703</ele>
        <time>2020-07-31T06:17:01.000Z</time>
      </trkpt>
      <trkpt lat="46.27171" lon="5.36608">
        <ele>297.39999389648</ele>
        <time>2020-07-31T06:17:03.000Z</time>
      </trkpt>
      <trkpt lat="46.27162" lon="5.36602">
        <ele>297.60000610352</ele>
        <time>2020-07-31T06:17:05.000Z</time>
      </trkpt>
      <trkpt lat="46.27154" lon="5.36596">
        <ele>297.79998779297</ele>
        <time>2020-07-31T06:17:07.000Z</time>
      </trkpt>
      <trkpt lat="46.27149" lon="5.36593">
        <ele>297.79998779297</ele>
        <time>2020-07-31T06:17:08.000Z</time>
      </trkpt>
      <trkpt lat="46.27145" lon="5.3659">
        <ele>297.79998779297</ele>
        <time>2020-07-31T06:17:09.000Z</time>
      </trkpt>
      <trkpt lat="46.27137" lon="5.36584">
        <ele>298</ele>
        <time>2020-07-31T06:17:11.000Z</time>
      </trkpt>
      <trkpt lat="46.27129" lon="5.36579">
        <ele>298.20001220703</ele>
        <time>2020-07-31T06:17:13.000Z</time>
      </trkpt>
      <trkpt lat="46.2712" lon="5.36574">
        <ele>298.20001220703</ele>
        <time>2020-07-31T06:17:15.000Z</time>
      </trkpt>
      <trkpt lat="46.27112" lon="5.36569">
        <ele>298.39999389648</ele>
        <time>2020-07-31T06:17:17.000Z</time>
      </trkpt>
      <trkpt lat="46.27103" lon="5.36564">
        <ele>298.79998779297</ele>
        <time>2020-07-31T06:17:19.000Z</time>
      </trkpt>
      <trkpt lat="46.27099" lon="5.36562">
        <ele>299</ele>
        <time>2020-07-31T06:17:20.000Z</time>
      </trkpt>
      <trkpt lat="46.27094" lon="5.3656">
        <ele>299</ele>
        <time>2020-07-31T06:17:21.000Z</time>
      </trkpt>
      <trkpt lat="46.27085" lon="5.36555">
        <ele>299.60000610352</ele>
        <time>2020-07-31T06:17:23.000Z</time>
      </trkpt>
      <trkpt lat="46.27076" lon="5.36551">
        <ele>299.79998779297</ele>
        <time>2020-07-31T06:17:25.000Z</time>
      </trkpt>
      <trkpt lat="46.27071" lon="5.36549">
        <ele>300</ele>
        <time>2020-07-31T06:17:26.000Z</time>
      </trkpt>
      <trkpt lat="46.27067" lon="5.36547">
        <ele>300</ele>
        <time>2020-07-31T06:17:27.000Z</time>
      </trkpt>
      <trkpt lat="46.27057" lon="5.36543">
        <ele>300.20001220703</ele>
        <time>2020-07-31T06:17:29.000Z</time>
      </trkpt>
      <trkpt lat="46.27048" lon="5.3654">
        <ele>300.20001220703</ele>
        <time>2020-07-31T06:17:31.000Z</time>
      </trkpt>
      <trkpt lat="46.27043" lon="5.36538">
        <ele>300.20001220703</ele>
        <time>2020-07-31T06:17:32.000Z</time>
      </trkpt>
      <trkpt lat="46.27038" lon="5.36536">
        <ele>300.20001220703</ele>
        <time>2020-07-31T06:17:33.000Z</time>
      </trkpt>
      <trkpt lat="46.27029" lon="5.36532">
        <ele>300.20001220703</ele>
        <time>2020-07-31T06:17:35.000Z</time>
      </trkpt>
      <trkpt lat="46.27019" lon="5.36529">
        <ele>300</ele>
        <time>2020-07-31T06:17:37.000Z</time>
      </trkpt>
      <trkpt lat="46.27009" lon="5.36525">
        <ele>299.79998779297</ele>
        <time>2020-07-31T06:17:39.000Z</time>
      </trkpt>
      <trkpt lat="46.26999" lon="5.36522">
        <ele>299.79998779297</ele>
        <time>2020-07-31T06:17:41.000Z</time>
      </trkpt>
      <trkpt lat="46.26989" lon="5.36519">
        <ele>299.79998779297</ele>
        <time>2020-07-31T06:17:43.000Z</time>
      </trkpt>
      <trkpt lat="46.26979" lon="5.36516">
        <ele>299.79998779297</ele>
        <time>2020-07-31T06:17:45.000Z</time>
      </trkpt>
      <trkpt lat="46.26968" lon="5.36513">
        <ele>299.79998779297</ele>
        <time>2020-07-31T06:17:47.000Z</time>
      </trkpt>
      <trkpt lat="46.26958" lon="5.3651">
        <ele>300.20001220703</ele>
        <time>2020-07-31T06:17:49.000Z</time>
      </trkpt>
      <trkpt lat="46.26947" lon="5.36507">
        <ele>300.20001220703</ele>
        <time>2020-07-31T06:17:51.000Z</time>
      </trkpt>
      <trkpt lat="46.26936" lon="5.36503">
        <ele>300.39999389648</ele>
        <time>2020-07-31T06:17:53.000Z</time>
      </trkpt>
      <trkpt lat="46.26925" lon="5.365">
        <ele>300.60000610352</ele>
        <time>2020-07-31T06:17:55.000Z</time>
      </trkpt>
      <trkpt lat="46.26919" lon="5.36498">
        <ele>300.60000610352</ele>
        <time>2020-07-31T06:17:56.000Z</time>
      </trkpt>
      <trkpt lat="46.26914" lon="5.36496">
        <ele>300.60000610352</ele>
        <time>2020-07-31T06:17:57.000Z</time>
      </trkpt>
      <trkpt lat="46.26902" lon="5.36493">
        <ele>300.60000610352</ele>
        <time>2020-07-31T06:17:59.000Z</time>
      </trkpt>
      <trkpt lat="46.26891" lon="5.36489">
        <ele>300.39999389648</ele>
        <time>2020-07-31T06:18:01.000Z</time>
      </trkpt>
      <trkpt lat="46.2688" lon="5.36485">
        <ele>300.39999389648</ele>
        <time>2020-07-31T06:18:03.000Z</time>
      </trkpt>
      <trkpt lat="46.26868" lon="5.36481">
        <ele>300.20001220703</ele>
        <time>2020-07-31T06:18:05.000Z</time>
      </trkpt>
      <trkpt lat="46.26863" lon="5.3648">
        <ele>300</ele>
        <time>2020-07-31T06:18:06.000Z</time>
      </trkpt>
      <trkpt lat="46.26857" lon="5.36478">
        <ele>300</ele>
        <time>2020-07-31T06:18:07.000Z</time>
      </trkpt>
      <trkpt lat="46.26845" lon="5.36474">
        <ele>299.60000610352</ele>
        <time>2020-07-31T06:18:09.000Z</time>
      </trkpt>
      <trkpt lat="46.26833" lon="5.3647">
        <ele>299.39999389648</ele>
        <time>2020-07-31T06:18:11.000Z</time>
      </trkpt>
      <trkpt lat="46.26821" lon="5.36464">
        <ele>299.39999389648</ele>
        <time>2020-07-31T06:18:13.000Z</time>
      </trkpt>
      <trkpt lat="46.26815" lon="5.36461">
        <ele>299.39999389648</ele>
        <time>2020-07-31T06:18:14.000Z</time>
      </trkpt>
      <trkpt lat="46.26809" lon="5.36457">
        <ele>299.39999389648</ele>
        <time>2020-07-31T06:18:15.000Z</time>
      </trkpt>
      <trkpt lat="46.26797" lon="5.36447">
        <ele>299.20001220703</ele>
        <time>2020-07-31T06:18:17.000Z</time>
      </trkpt>
      <trkpt lat="46.26785" lon="5.36434">
        <ele>299.20001220703</ele>
        <time>2020-07-31T06:18:19.000Z</time>
      </trkpt>
      <trkpt lat="46.26774" lon="5.36418">
        <ele>298.79998779297</ele>
        <time>2020-07-31T06:18:21.000Z</time>
      </trkpt>
      <trkpt lat="46.26764" lon="5.36399">
        <ele>298.60000610352</ele>
        <time>2020-07-31T06:18:23.000Z</time>
      </trkpt>
      <trkpt lat="46.26759" lon="5.36389">
        <ele>298.39999389648</ele>
        <time>2020-07-31T06:18:24.000Z</time>
      </trkpt>
      <trkpt lat="46.26754" lon="5.36378">
        <ele>298.20001220703</ele>
        <time>2020-07-31T06:18:25.000Z</time>
      </trkpt>
      <trkpt lat="46.26744" lon="5.36357">
        <ele>298</ele>
        <time>2020-07-31T06:18:27.000Z</time>
      </trkpt>
      <trkpt lat="46.26739" lon="5.36347">
        <ele>297.39999389648</ele>
        <time>2020-07-31T06:18:28.000Z</time>
      </trkpt>
      <trkpt lat="46.26733" lon="5.36337">
        <ele>296.39999389648</ele>
        <time>2020-07-31T06:18:29.000Z</time>
      </trkpt>
      <trkpt lat="46.26727" lon="5.36328">
        <ele>296</ele>
        <time>2020-07-31T06:18:30.000Z</time>
      </trkpt>
      <trkpt lat="46.2672" lon="5.36319">
        <ele>295.79998779297</ele>
        <time>2020-07-31T06:18:31.000Z</time>
      </trkpt>
      <trkpt lat="46.26706" lon="5.36304">
        <ele>295.20001220703</ele>
        <time>2020-07-31T06:18:33.000Z</time>
      </trkpt>
      <trkpt lat="46.26699" lon="5.36298">
        <ele>294.60000610352</ele>
        <time>2020-07-31T06:18:34.000Z</time>
      </trkpt>
      <trkpt lat="46.26691" lon="5.36292">
        <ele>294</ele>
        <time>2020-07-31T06:18:35.000Z</time>
      </trkpt>
      <trkpt lat="46.26676" lon="5.36284">
        <ele>293.60000610352</ele>
        <time>2020-07-31T06:18:37.000Z</time>
      </trkpt>
      <trkpt lat="46.26668" lon="5.36281">
        <ele>293.20001220703</ele>
        <time>2020-07-31T06:18:38.000Z</time>
      </trkpt>
      <trkpt lat="46.2666" lon="5.36279">
        <ele>293</ele>
        <time>2020-07-31T06:18:39.000Z</time>
      </trkpt>
      <trkpt lat="46.26652" lon="5.36278">
        <ele>292.79998779297</ele>
        <time>2020-07-31T06:18:40.000Z</time>
      </trkpt>
      <trkpt lat="46.26644" lon="5.36276">
        <ele>292.79998779297</ele>
        <time>2020-07-31T06:18:41.000Z</time>
      </trkpt>
      <trkpt lat="46.26629" lon="5.36272">
        <ele>292.60000610352</ele>
        <time>2020-07-31T06:18:43.000Z</time>
      </trkpt>
      <trkpt lat="46.26614" lon="5.36268">
        <ele>292.39999389648</ele>
        <time>2020-07-31T06:18:45.000Z</time>
      </trkpt>
      <trkpt lat="46.26607" lon="5.36265">
        <ele>292.39999389648</ele>
        <time>2020-07-31T06:18:46.000Z</time>
      </trkpt>
      <trkpt lat="46.266" lon="5.36262">
        <ele>292.39999389648</ele>
        <time>2020-07-31T06:18:47.000Z</time>
      </trkpt>
      <trkpt lat="46.26587" lon="5.36257">
        <ele>292.60000610352</ele>
        <time>2020-07-31T06:18:49.000Z</time>
      </trkpt>
      <trkpt lat="46.26574" lon="5.3625">
        <ele>292.60000610352</ele>
        <time>2020-07-31T06:18:51.000Z</time>
      </trkpt>
      <trkpt lat="46.26561" lon="5.36244">
        <ele>292.79998779297</ele>
        <time>2020-07-31T06:18:53.000Z</time>
      </trkpt>
      <trkpt lat="46.26555" lon="5.36241">
        <ele>293</ele>
        <time>2020-07-31T06:18:54.000Z</time>
      </trkpt>
      <trkpt lat="46.26549" lon="5.36238">
        <ele>293.20001220703</ele>
        <time>2020-07-31T06:18:55.000Z</time>
      </trkpt>
      <trkpt lat="46.26536" lon="5.36232">
        <ele>293.39999389648</ele>
        <time>2020-07-31T06:18:57.000Z</time>
      </trkpt>
      <trkpt lat="46.26525" lon="5.36226">
        <ele>293.79998779297</ele>
        <time>2020-07-31T06:18:59.000Z</time>
      </trkpt>
      <trkpt lat="46.26519" lon="5.36223">
        <ele>294</ele>
        <time>2020-07-31T06:19:00.000Z</time>
      </trkpt>
      <trkpt lat="46.26513" lon="5.3622">
        <ele>294</ele>
        <time>2020-07-31T06:19:01.000Z</time>
      </trkpt>
      <trkpt lat="46.26502" lon="5.36215">
        <ele>294.20001220703</ele>
        <time>2020-07-31T06:19:03.000Z</time>
      </trkpt>
      <trkpt lat="46.26491" lon="5.36209">
        <ele>294.20001220703</ele>
        <time>2020-07-31T06:19:05.000Z</time>
      </trkpt>
      <trkpt lat="46.26481" lon="5.36204">
        <ele>294.60000610352</ele>
        <time>2020-07-31T06:19:07.000Z</time>
      </trkpt>
      <trkpt lat="46.26476" lon="5.36201">
        <ele>295</ele>
        <time>2020-07-31T06:19:08.000Z</time>
      </trkpt>
      <trkpt lat="46.26471" lon="5.36198">
        <ele>295.20001220703</ele>
        <time>2020-07-31T06:19:09.000Z</time>
      </trkpt>
      <trkpt lat="46.26461" lon="5.36191">
        <ele>295.60000610352</ele>
        <time>2020-07-31T06:19:11.000Z</time>
      </trkpt>
      <trkpt lat="46.26456" lon="5.36187">
        <ele>295.60000610352</ele>
        <time>2020-07-31T06:19:12.000Z</time>
      </trkpt>
      <trkpt lat="46.26451" lon="5.36183">
        <ele>295.79998779297</ele>
        <time>2020-07-31T06:19:13.000Z</time>
      </trkpt>
      <trkpt lat="46.26446" lon="5.36179">
        <ele>296.20001220703</ele>
        <time>2020-07-31T06:19:14.000Z</time>
      </trkpt>
      <trkpt lat="46.26441" lon="5.36175">
        <ele>296.60000610352</ele>
        <time>2020-07-31T06:19:15.000Z</time>
      </trkpt>
      <trkpt lat="46.26431" lon="5.36166">
        <ele>297</ele>
        <time>2020-07-31T06:19:17.000Z</time>
      </trkpt>
      <trkpt lat="46.26421" lon="5.36157">
        <ele>297.20001220703</ele>
        <time>2020-07-31T06:19:19.000Z</time>
      </trkpt>
      <trkpt lat="46.26411" lon="5.36148">
        <ele>297.39999389648</ele>
        <time>2020-07-31T06:19:21.000Z</time>
      </trkpt>
      <trkpt lat="46.26406" lon="5.36143">
        <ele>297.39999389648</ele>
        <time>2020-07-31T06:19:22.000Z</time>
      </trkpt>
      <trkpt lat="46.264" lon="5.36138">
        <ele>297.39999389648</ele>
        <time>2020-07-31T06:19:23.000Z</time>
      </trkpt>
      <trkpt lat="46.2639" lon="5.36128">
        <ele>297.60000610352</ele>
        <time>2020-07-31T06:19:25.000Z</time>
      </trkpt>
      <trkpt lat="46.2638" lon="5.36118">
        <ele>297.79998779297</ele>
        <time>2020-07-31T06:19:27.000Z</time>
      </trkpt>
      <trkpt lat="46.2637" lon="5.36109">
        <ele>297.60000610352</ele>
        <time>2020-07-31T06:19:29.000Z</time>
      </trkpt>
      <trkpt lat="46.2636" lon="5.361">
        <ele>297.60000610352</ele>
        <time>2020-07-31T06:19:31.000Z</time>
      </trkpt>
      <trkpt lat="46.26355" lon="5.36095">
        <ele>297.60000610352</ele>
        <time>2020-07-31T06:19:32.000Z</time>
      </trkpt>
      <trkpt lat="46.2635" lon="5.3609">
        <ele>297.60000610352</ele>
        <time>2020-07-31T06:19:33.000Z</time>
      </trkpt>
      <trkpt lat="46.2634" lon="5.3608">
        <ele>297.60000610352</ele>
        <time>2020-07-31T06:19:35.000Z</time>
      </trkpt>
      <trkpt lat="46.26331" lon="5.36069">
        <ele>297.60000610352</ele>
        <time>2020-07-31T06:19:37.000Z</time>
      </trkpt>
      <trkpt lat="46.26322" lon="5.36057">
        <ele>297.60000610352</ele>
        <time>2020-07-31T06:19:39.000Z</time>
      </trkpt>
      <trkpt lat="46.26318" lon="5.36051">
        <ele>297.79998779297</ele>
        <time>2020-07-31T06:19:40.000Z</time>
      </trkpt>
      <trkpt lat="46.26315" lon="5.36045">
        <ele>297.79998779297</ele>
        <time>2020-07-31T06:19:41.000Z</time>
      </trkpt>
      <trkpt lat="46.26308" lon="5.36032">
        <ele>297.79998779297</ele>
        <time>2020-07-31T06:19:43.000Z</time>
      </trkpt>
      <trkpt lat="46.26301" lon="5.3602">
        <ele>298</ele>
        <time>2020-07-31T06:19:45.000Z</time>
      </trkpt>
      <trkpt lat="46.26294" lon="5.36008">
        <ele>298</ele>
        <time>2020-07-31T06:19:47.000Z</time>
      </trkpt>
      <trkpt lat="46.26287" lon="5.35997">
        <ele>298.39999389648</ele>
        <time>2020-07-31T06:19:49.000Z</time>
      </trkpt>
      <trkpt lat="46.2628" lon="5.35987">
        <ele>298.39999389648</ele>
        <time>2020-07-31T06:19:51.000Z</time>
      </trkpt>
      <trkpt lat="46.26272" lon="5.35977">
        <ele>299.20001220703</ele>
        <time>2020-07-31T06:19:53.000Z</time>
      </trkpt>
      <trkpt lat="46.26268" lon="5.35973">
        <ele>299.39999389648</ele>
        <time>2020-07-31T06:19:54.000Z</time>
      </trkpt>
      <trkpt lat="46.26265" lon="5.35969">
        <ele>300</ele>
        <time>2020-07-31T06:19:55.000Z</time>
      </trkpt>
      <trkpt lat="46.26257" lon="5.3596">
        <ele>301.20001220703</ele>
        <time>2020-07-31T06:19:57.000Z</time>
      </trkpt>
      <trkpt lat="46.2625" lon="5.35952">
        <ele>301.39999389648</ele>
        <time>2020-07-31T06:19:59.000Z</time>
      </trkpt>
      <trkpt lat="46.26242" lon="5.35944">
        <ele>301.60000610352</ele>
        <time>2020-07-31T06:20:01.000Z</time>
      </trkpt>
      <trkpt lat="46.26233" lon="5.35937">
        <ele>301.60000610352</ele>
        <time>2020-07-31T06:20:03.000Z</time>
      </trkpt>
      <trkpt lat="46.26224" lon="5.35931">
        <ele>302.60000610352</ele>
        <time>2020-07-31T06:20:05.000Z</time>
      </trkpt>
      <trkpt lat="46.26214" lon="5.35926">
        <ele>303</ele>
        <time>2020-07-31T06:20:07.000Z</time>
      </trkpt>
      <trkpt lat="46.26204" lon="5.35922">
        <ele>303.20001220703</ele>
        <time>2020-07-31T06:20:09.000Z</time>
      </trkpt>
      <trkpt lat="46.26193" lon="5.35919">
        <ele>303.39999389648</ele>
        <time>2020-07-31T06:20:11.000Z</time>
      </trkpt>
      <trkpt lat="46.26182" lon="5.35917">
        <ele>303.60000610352</ele>
        <time>2020-07-31T06:20:13.000Z</time>
      </trkpt>
      <trkpt lat="46.26171" lon="5.35916">
        <ele>303.60000610352</ele>
        <time>2020-07-31T06:20:15.000Z</time>
      </trkpt>
      <trkpt lat="46.26166" lon="5.35916">
        <ele>303.79998779297</ele>
        <time>2020-07-31T06:20:16.000Z</time>
      </trkpt>
      <trkpt lat="46.2616" lon="5.35916">
        <ele>303.79998779297</ele>
        <time>2020-07-31T06:20:17.000Z</time>
      </trkpt>
      <trkpt lat="46.2615" lon="5.35917">
        <ele>304</ele>
        <time>2020-07-31T06:20:19.000Z</time>
      </trkpt>
      <trkpt lat="46.26139" lon="5.3592">
        <ele>304</ele>
        <time>2020-07-31T06:20:21.000Z</time>
      </trkpt>
      <trkpt lat="46.26134" lon="5.35922">
        <ele>304.20001220703</ele>
        <time>2020-07-31T06:20:22.000Z</time>
      </trkpt>
      <trkpt lat="46.26129" lon="5.35924">
        <ele>304.39999389648</ele>
        <time>2020-07-31T06:20:23.000Z</time>
      </trkpt>
      <trkpt lat="46.26119" lon="5.35929">
        <ele>304.60000610352</ele>
        <time>2020-07-31T06:20:25.000Z</time>
      </trkpt>
      <trkpt lat="46.26115" lon="5.35932">
        <ele>304.79998779297</ele>
        <time>2020-07-31T06:20:26.000Z</time>
      </trkpt>
      <trkpt lat="46.2611" lon="5.35935">
        <ele>304.79998779297</ele>
        <time>2020-07-31T06:20:27.000Z</time>
      </trkpt>
      <trkpt lat="46.26099" lon="5.3594">
        <ele>305</ele>
        <time>2020-07-31T06:20:29.000Z</time>
      </trkpt>
      <trkpt lat="46.2609" lon="5.35944">
        <ele>305.20001220703</ele>
        <time>2020-07-31T06:20:31.000Z</time>
      </trkpt>
      <trkpt lat="46.26074" lon="5.35949">
        <ele>305.60000610352</ele>
        <time>2020-07-31T06:20:34.000Z</time>
      </trkpt>
      <trkpt lat="46.26064" lon="5.3595">
        <ele>305.79998779297</ele>
        <time>2020-07-31T06:20:36.000Z</time>
      </trkpt>
      <trkpt lat="46.26053" lon="5.35952">
        <ele>306</ele>
        <time>2020-07-31T06:20:38.000Z</time>
      </trkpt>
      <trkpt lat="46.26043" lon="5.35953">
        <ele>306.20001220703</ele>
        <time>2020-07-31T06:20:40.000Z</time>
      </trkpt>
      <trkpt lat="46.26033" lon="5.35955">
        <ele>306.79998779297</ele>
        <time>2020-07-31T06:20:42.000Z</time>
      </trkpt>
      <trkpt lat="46.26028" lon="5.35956">
        <ele>306.79998779297</ele>
        <time>2020-07-31T06:20:43.000Z</time>
      </trkpt>
      <trkpt lat="46.26024" lon="5.35957">
        <ele>307</ele>
        <time>2020-07-31T06:20:44.000Z</time>
      </trkpt>
      <trkpt lat="46.26014" lon="5.35958">
        <ele>307.20001220703</ele>
        <time>2020-07-31T06:20:46.000Z</time>
      </trkpt>
      <trkpt lat="46.26004" lon="5.35959">
        <ele>307.39999389648</ele>
        <time>2020-07-31T06:20:48.000Z</time>
      </trkpt>
      <trkpt lat="46.25995" lon="5.35961">
        <ele>307.60000610352</ele>
        <time>2020-07-31T06:20:50.000Z</time>
      </trkpt>
      <trkpt lat="46.25985" lon="5.35961">
        <ele>308</ele>
        <time>2020-07-31T06:20:52.000Z</time>
      </trkpt>
      <trkpt lat="46.25976" lon="5.35962">
        <ele>308.20001220703</ele>
        <time>2020-07-31T06:20:54.000Z</time>
      </trkpt>
      <trkpt lat="46.25966" lon="5.35962">
        <ele>309</ele>
        <time>2020-07-31T06:20:56.000Z</time>
      </trkpt>
      <trkpt lat="46.25957" lon="5.35961">
        <ele>309.60000610352</ele>
        <time>2020-07-31T06:20:58.000Z</time>
      </trkpt>
      <trkpt lat="46.25948" lon="5.35961">
        <ele>309.79998779297</ele>
        <time>2020-07-31T06:21:00.000Z</time>
      </trkpt>
      <trkpt lat="46.25939" lon="5.35959">
        <ele>309.79998779297</ele>
        <time>2020-07-31T06:21:02.000Z</time>
      </trkpt>
      <trkpt lat="46.2593" lon="5.35958">
        <ele>310</ele>
        <time>2020-07-31T06:21:04.000Z</time>
      </trkpt>
      <trkpt lat="46.25921" lon="5.35956">
        <ele>310</ele>
        <time>2020-07-31T06:21:06.000Z</time>
      </trkpt>
      <trkpt lat="46.25917" lon="5.35955">
        <ele>310.20001220703</ele>
        <time>2020-07-31T06:21:07.000Z</time>
      </trkpt>
      <trkpt lat="46.25912" lon="5.35954">
        <ele>310.39999389648</ele>
        <time>2020-07-31T06:21:08.000Z</time>
      </trkpt>
      <trkpt lat="46.25902" lon="5.3595">
        <ele>310.60000610352</ele>
        <time>2020-07-31T06:21:10.000Z</time>
      </trkpt>
      <trkpt lat="46.25894" lon="5.35944">
        <ele>311</ele>
        <time>2020-07-31T06:21:12.000Z</time>
      </trkpt>
      <trkpt lat="46.2589" lon="5.35942">
        <ele>311.20001220703</ele>
        <time>2020-07-31T06:21:13.000Z</time>
      </trkpt>
      <trkpt lat="46.25886" lon="5.3594">
        <ele>311.79998779297</ele>
        <time>2020-07-31T06:21:14.000Z</time>
      </trkpt>
      <trkpt lat="46.25877" lon="5.35935">
        <ele>312.60000610352</ele>
        <time>2020-07-31T06:21:16.000Z</time>
      </trkpt>
      <trkpt lat="46.2587" lon="5.3593">
        <ele>313</ele>
        <time>2020-07-31T06:21:18.000Z</time>
      </trkpt>
      <trkpt lat="46.25866" lon="5.35928">
        <ele>313.20001220703</ele>
        <time>2020-07-31T06:21:19.000Z</time>
      </trkpt>
      <trkpt lat="46.25862" lon="5.35925">
        <ele>313.39999389648</ele>
        <time>2020-07-31T06:21:20.000Z</time>
      </trkpt>
      <trkpt lat="46.25857" lon="5.35923">
        <ele>313.60000610352</ele>
        <time>2020-07-31T06:21:21.000Z</time>
      </trkpt>
      <trkpt lat="46.25853" lon="5.35921">
        <ele>313.60000610352</ele>
        <time>2020-07-31T06:21:22.000Z</time>
      </trkpt>
      <trkpt lat="46.25849" lon="5.35919">
        <ele>313.79998779297</ele>
        <time>2020-07-31T06:21:23.000Z</time>
      </trkpt>
      <trkpt lat="46.25844" lon="5.35917">
        <ele>313.79998779297</ele>
        <time>2020-07-31T06:21:24.000Z</time>
      </trkpt>
      <trkpt lat="46.25835" lon="5.35914">
        <ele>315</ele>
        <time>2020-07-31T06:21:26.000Z</time>
      </trkpt>
      <trkpt lat="46.25826" lon="5.35912">
        <ele>315.60000610352</ele>
        <time>2020-07-31T06:21:28.000Z</time>
      </trkpt>
      <trkpt lat="46.25817" lon="5.35911">
        <ele>315.79998779297</ele>
        <time>2020-07-31T06:21:30.000Z</time>
      </trkpt>
      <trkpt lat="46.25808" lon="5.35909">
        <ele>316</ele>
        <time>2020-07-31T06:21:32.000Z</time>
      </trkpt>
      <trkpt lat="46.25803" lon="5.35909">
        <ele>316</ele>
        <time>2020-07-31T06:21:33.000Z</time>
      </trkpt>
      <trkpt lat="46.25799" lon="5.35908">
        <ele>316.20001220703</ele>
        <time>2020-07-31T06:21:34.000Z</time>
      </trkpt>
      <trkpt lat="46.25787" lon="5.35907">
        <ele>316.60000610352</ele>
        <time>2020-07-31T06:21:37.000Z</time>
      </trkpt>
      <trkpt lat="46.25778" lon="5.35906">
        <ele>317</ele>
        <time>2020-07-31T06:21:39.000Z</time>
      </trkpt>
      <trkpt lat="46.2577" lon="5.35904">
        <ele>317.39999389648</ele>
        <time>2020-07-31T06:21:41.000Z</time>
      </trkpt>
      <trkpt lat="46.2576" lon="5.35903">
        <ele>318</ele>
        <time>2020-07-31T06:21:43.000Z</time>
      </trkpt>
      <trkpt lat="46.2575" lon="5.35901">
        <ele>318.20001220703</ele>
        <time>2020-07-31T06:21:45.000Z</time>
      </trkpt>
      <trkpt lat="46.25741" lon="5.35899">
        <ele>318.20001220703</ele>
        <time>2020-07-31T06:21:47.000Z</time>
      </trkpt>
      <trkpt lat="46.25732" lon="5.35897">
        <ele>318.39999389648</ele>
        <time>2020-07-31T06:21:49.000Z</time>
      </trkpt>
      <trkpt lat="46.25722" lon="5.35895">
        <ele>318.39999389648</ele>
        <time>2020-07-31T06:21:51.000Z</time>
      </trkpt>
      <trkpt lat="46.25711" lon="5.35892">
        <ele>318.39999389648</ele>
        <time>2020-07-31T06:21:53.000Z</time>
      </trkpt>
      <trkpt lat="46.257" lon="5.35889">
        <ele>318.39999389648</ele>
        <time>2020-07-31T06:21:55.000Z</time>
      </trkpt>
      <trkpt lat="46.25689" lon="5.35886">
        <ele>318.39999389648</ele>
        <time>2020-07-31T06:21:57.000Z</time>
      </trkpt>
      <trkpt lat="46.25677" lon="5.35885">
        <ele>318.20001220703</ele>
        <time>2020-07-31T06:21:59.000Z</time>
      </trkpt>
      <trkpt lat="46.25671" lon="5.35884">
        <ele>318</ele>
        <time>2020-07-31T06:22:00.000Z</time>
      </trkpt>
      <trkpt lat="46.25665" lon="5.35883">
        <ele>317.79998779297</ele>
        <time>2020-07-31T06:22:01.000Z</time>
      </trkpt>
      <trkpt lat="46.25652" lon="5.35883">
        <ele>317.60000610352</ele>
        <time>2020-07-31T06:22:03.000Z</time>
      </trkpt>
      <trkpt lat="46.25637" lon="5.35882">
        <ele>317.20001220703</ele>
        <time>2020-07-31T06:22:05.000Z</time>
      </trkpt>
      <trkpt lat="46.25623" lon="5.35882">
        <ele>317</ele>
        <time>2020-07-31T06:22:07.000Z</time>
      </trkpt>
      <trkpt lat="46.25607" lon="5.35882">
        <ele>316.20001220703</ele>
        <time>2020-07-31T06:22:09.000Z</time>
      </trkpt>
      <trkpt lat="46.256" lon="5.35882">
        <ele>315.79998779297</ele>
        <time>2020-07-31T06:22:10.000Z</time>
      </trkpt>
      <trkpt lat="46.25592" lon="5.35882">
        <ele>315.20001220703</ele>
        <time>2020-07-31T06:22:11.000Z</time>
      </trkpt>
      <trkpt lat="46.25576" lon="5.35884">
        <ele>314.60000610352</ele>
        <time>2020-07-31T06:22:13.000Z</time>
      </trkpt>
      <trkpt lat="46.2556" lon="5.35885">
        <ele>313.79998779297</ele>
        <time>2020-07-31T06:22:15.000Z</time>
      </trkpt>
      <trkpt lat="46.25552" lon="5.35886">
        <ele>313.39999389648</ele>
        <time>2020-07-31T06:22:16.000Z</time>
      </trkpt>
      <trkpt lat="46.25544" lon="5.35887">
        <ele>313</ele>
        <time>2020-07-31T06:22:17.000Z</time>
      </trkpt>
      <trkpt lat="46.25536" lon="5.35887">
        <ele>312.39999389648</ele>
        <time>2020-07-31T06:22:18.000Z</time>
      </trkpt>
      <trkpt lat="46.25527" lon="5.35887">
        <ele>311.79998779297</ele>
        <time>2020-07-31T06:22:19.000Z</time>
      </trkpt>
      <trkpt lat="46.2551" lon="5.35886">
        <ele>311.20001220703</ele>
        <time>2020-07-31T06:22:21.000Z</time>
      </trkpt>
      <trkpt lat="46.25493" lon="5.35886">
        <ele>310.20001220703</ele>
        <time>2020-07-31T06:22:23.000Z</time>
      </trkpt>
      <trkpt lat="46.25484" lon="5.35886">
        <ele>309.79998779297</ele>
        <time>2020-07-31T06:22:24.000Z</time>
      </trkpt>
      <trkpt lat="46.25475" lon="5.35887">
        <ele>309.39999389648</ele>
        <time>2020-07-31T06:22:25.000Z</time>
      </trkpt>
      <trkpt lat="46.25458" lon="5.35888">
        <ele>309</ele>
        <time>2020-07-31T06:22:27.000Z</time>
      </trkpt>
      <trkpt lat="46.25441" lon="5.3589">
        <ele>308</ele>
        <time>2020-07-31T06:22:29.000Z</time>
      </trkpt>
      <trkpt lat="46.25424" lon="5.35893">
        <ele>307.20001220703</ele>
        <time>2020-07-31T06:22:31.000Z</time>
      </trkpt>
      <trkpt lat="46.25416" lon="5.35894">
        <ele>306.79998779297</ele>
        <time>2020-07-31T06:22:32.000Z</time>
      </trkpt>
      <trkpt lat="46.25408" lon="5.35895">
        <ele>306.79998779297</ele>
        <time>2020-07-31T06:22:33.000Z</time>
      </trkpt>
      <trkpt lat="46.25393" lon="5.35898">
        <ele>306.60000610352</ele>
        <time>2020-07-31T06:22:35.000Z</time>
      </trkpt>
      <trkpt lat="46.25379" lon="5.35901">
        <ele>306.60000610352</ele>
        <time>2020-07-31T06:22:37.000Z</time>
      </trkpt>
      <trkpt lat="46.25366" lon="5.35904">
        <ele>306.60000610352</ele>
        <time>2020-07-31T06:22:39.000Z</time>
      </trkpt>
      <trkpt lat="46.25354" lon="5.35908">
        <ele>306.60000610352</ele>
        <time>2020-07-31T06:22:41.000Z</time>
      </trkpt>
      <trkpt lat="46.25343" lon="5.35911">
        <ele>306.60000610352</ele>
        <time>2020-07-31T06:22:43.000Z</time>
      </trkpt>
      <trkpt lat="46.25332" lon="5.35914">
        <ele>306.79998779297</ele>
        <time>2020-07-31T06:22:45.000Z</time>
      </trkpt>
      <trkpt lat="46.25326" lon="5.35916">
        <ele>307</ele>
        <time>2020-07-31T06:22:46.000Z</time>
      </trkpt>
      <trkpt lat="46.25321" lon="5.35917">
        <ele>307.39999389648</ele>
        <time>2020-07-31T06:22:47.000Z</time>
      </trkpt>
      <trkpt lat="46.25315" lon="5.35918">
        <ele>308</ele>
        <time>2020-07-31T06:22:48.000Z</time>
      </trkpt>
      <trkpt lat="46.2531" lon="5.35919">
        <ele>308.39999389648</ele>
        <time>2020-07-31T06:22:49.000Z</time>
      </trkpt>
      <trkpt lat="46.25299" lon="5.35921">
        <ele>309.20001220703</ele>
        <time>2020-07-31T06:22:51.000Z</time>
      </trkpt>
      <trkpt lat="46.25288" lon="5.35922">
        <ele>309.79998779297</ele>
        <time>2020-07-31T06:22:53.000Z</time>
      </trkpt>
      <trkpt lat="46.25282" lon="5.35922">
        <ele>310</ele>
        <time>2020-07-31T06:22:54.000Z</time>
      </trkpt>
      <trkpt lat="46.25276" lon="5.35922">
        <ele>310.20001220703</ele>
        <time>2020-07-31T06:22:55.000Z</time>
      </trkpt>
      <trkpt lat="46.25264" lon="5.35921">
        <ele>310.79998779297</ele>
        <time>2020-07-31T06:22:57.000Z</time>
      </trkpt>
      <trkpt lat="46.25253" lon="5.35919">
        <ele>311.20001220703</ele>
        <time>2020-07-31T06:22:59.000Z</time>
      </trkpt>
      <trkpt lat="46.25241" lon="5.35917">
        <ele>311.60000610352</ele>
        <time>2020-07-31T06:23:01.000Z</time>
      </trkpt>
      <trkpt lat="46.25235" lon="5.35916">
        <ele>311.60000610352</ele>
        <time>2020-07-31T06:23:02.000Z</time>
      </trkpt>
      <trkpt lat="46.25229" lon="5.35915">
        <ele>311.79998779297</ele>
        <time>2020-07-31T06:23:03.000Z</time>
      </trkpt>
      <trkpt lat="46.25218" lon="5.35912">
        <ele>311.79998779297</ele>
        <time>2020-07-31T06:23:05.000Z</time>
      </trkpt>
      <trkpt lat="46.25206" lon="5.35907">
        <ele>311.79998779297</ele>
        <time>2020-07-31T06:23:07.000Z</time>
      </trkpt>
      <trkpt lat="46.252" lon="5.35905">
        <ele>311.79998779297</ele>
        <time>2020-07-31T06:23:08.000Z</time>
      </trkpt>
      <trkpt lat="46.25194" lon="5.35902">
        <ele>311.79998779297</ele>
        <time>2020-07-31T06:23:09.000Z</time>
      </trkpt>
      <trkpt lat="46.25182" lon="5.35895">
        <ele>311.79998779297</ele>
        <time>2020-07-31T06:23:11.000Z</time>
      </trkpt>
      <trkpt lat="46.25176" lon="5.3589">
        <ele>311.79998779297</ele>
        <time>2020-07-31T06:23:12.000Z</time>
      </trkpt>
      <trkpt lat="46.2517" lon="5.35885">
        <ele>311.79998779297</ele>
        <time>2020-07-31T06:23:13.000Z</time>
      </trkpt>
      <trkpt lat="46.25165" lon="5.35879">
        <ele>311.60000610352</ele>
        <time>2020-07-31T06:23:14.000Z</time>
      </trkpt>
      <trkpt lat="46.2516" lon="5.35871">
        <ele>311.20001220703</ele>
        <time>2020-07-31T06:23:15.000Z</time>
      </trkpt>
      <trkpt lat="46.25155" lon="5.35863">
        <ele>311</ele>
        <time>2020-07-31T06:23:16.000Z</time>
      </trkpt>
      <trkpt lat="46.2515" lon="5.35854">
        <ele>310.60000610352</ele>
        <time>2020-07-31T06:23:17.000Z</time>
      </trkpt>
      <trkpt lat="46.25146" lon="5.35844">
        <ele>310.20001220703</ele>
        <time>2020-07-31T06:23:18.000Z</time>
      </trkpt>
      <trkpt lat="46.25141" lon="5.35833">
        <ele>310</ele>
        <time>2020-07-31T06:23:19.000Z</time>
      </trkpt>
      <trkpt lat="46.25132" lon="5.35811">
        <ele>309</ele>
        <time>2020-07-31T06:23:21.000Z</time>
      </trkpt>
      <trkpt lat="46.25122" lon="5.35789">
        <ele>308.60000610352</ele>
        <time>2020-07-31T06:23:23.000Z</time>
      </trkpt>
      <trkpt lat="46.25112" lon="5.35765">
        <ele>308.39999389648</ele>
        <time>2020-07-31T06:23:25.000Z</time>
      </trkpt>
      <trkpt lat="46.25101" lon="5.3574">
        <ele>307.79998779297</ele>
        <time>2020-07-31T06:23:27.000Z</time>
      </trkpt>
      <trkpt lat="46.25089" lon="5.35715">
        <ele>306</ele>
        <time>2020-07-31T06:23:29.000Z</time>
      </trkpt>
      <trkpt lat="46.25076" lon="5.35691">
        <ele>304.20001220703</ele>
        <time>2020-07-31T06:23:31.000Z</time>
      </trkpt>
      <trkpt lat="46.25062" lon="5.35668">
        <ele>303</ele>
        <time>2020-07-31T06:23:33.000Z</time>
      </trkpt>
      <trkpt lat="46.25046" lon="5.35646">
        <ele>302.20001220703</ele>
        <time>2020-07-31T06:23:35.000Z</time>
      </trkpt>
      <trkpt lat="46.25039" lon="5.35635">
        <ele>301.60000610352</ele>
        <time>2020-07-31T06:23:36.000Z</time>
      </trkpt>
      <trkpt lat="46.25031" lon="5.35624">
        <ele>301</ele>
        <time>2020-07-31T06:23:37.000Z</time>
      </trkpt>
      <trkpt lat="46.25022" lon="5.35614">
        <ele>300</ele>
        <time>2020-07-31T06:23:38.000Z</time>
      </trkpt>
      <trkpt lat="46.25014" lon="5.35603">
        <ele>299.60000610352</ele>
        <time>2020-07-31T06:23:39.000Z</time>
      </trkpt>
      <trkpt lat="46.25005" lon="5.35594">
        <ele>298.79998779297</ele>
        <time>2020-07-31T06:23:40.000Z</time>
      </trkpt>
      <trkpt lat="46.24996" lon="5.35585">
        <ele>298</ele>
        <time>2020-07-31T06:23:41.000Z</time>
      </trkpt>
      <trkpt lat="46.24986" lon="5.35578">
        <ele>297</ele>
        <time>2020-07-31T06:23:42.000Z</time>
      </trkpt>
      <trkpt lat="46.24977" lon="5.35571">
        <ele>296.20001220703</ele>
        <time>2020-07-31T06:23:43.000Z</time>
      </trkpt>
      <trkpt lat="46.24967" lon="5.35564">
        <ele>295.20001220703</ele>
        <time>2020-07-31T06:23:44.000Z</time>
      </trkpt>
      <trkpt lat="46.24958" lon="5.35557">
        <ele>294.60000610352</ele>
        <time>2020-07-31T06:23:45.000Z</time>
      </trkpt>
      <trkpt lat="46.24949" lon="5.3555">
        <ele>294.20001220703</ele>
        <time>2020-07-31T06:23:46.000Z</time>
      </trkpt>
      <trkpt lat="46.2494" lon="5.35543">
        <ele>293.39999389648</ele>
        <time>2020-07-31T06:23:47.000Z</time>
      </trkpt>
      <trkpt lat="46.24932" lon="5.35536">
        <ele>292.79998779297</ele>
        <time>2020-07-31T06:23:48.000Z</time>
      </trkpt>
      <trkpt lat="46.24923" lon="5.3553">
        <ele>292.39999389648</ele>
        <time>2020-07-31T06:23:49.000Z</time>
      </trkpt>
      <trkpt lat="46.24914" lon="5.35523">
        <ele>291.79998779297</ele>
        <time>2020-07-31T06:23:50.000Z</time>
      </trkpt>
      <trkpt lat="46.24906" lon="5.35516">
        <ele>290.39999389648</ele>
        <time>2020-07-31T06:23:51.000Z</time>
      </trkpt>
      <trkpt lat="46.24889" lon="5.35504">
        <ele>289.79998779297</ele>
        <time>2020-07-31T06:23:53.000Z</time>
      </trkpt>
      <trkpt lat="46.24871" lon="5.35492">
        <ele>289.60000610352</ele>
        <time>2020-07-31T06:23:55.000Z</time>
      </trkpt>
      <trkpt lat="46.24855" lon="5.3548">
        <ele>289.39999389648</ele>
        <time>2020-07-31T06:23:57.000Z</time>
      </trkpt>
      <trkpt lat="46.24847" lon="5.35474">
        <ele>289.39999389648</ele>
        <time>2020-07-31T06:23:58.000Z</time>
      </trkpt>
      <trkpt lat="46.2484" lon="5.35468">
        <ele>289.20001220703</ele>
        <time>2020-07-31T06:23:59.000Z</time>
      </trkpt>
      <trkpt lat="46.24825" lon="5.35453">
        <ele>289.20001220703</ele>
        <time>2020-07-31T06:24:01.000Z</time>
      </trkpt>
      <trkpt lat="46.24811" lon="5.35438">
        <ele>288.79998779297</ele>
        <time>2020-07-31T06:24:03.000Z</time>
      </trkpt>
      <trkpt lat="46.24797" lon="5.35422">
        <ele>288.60000610352</ele>
        <time>2020-07-31T06:24:05.000Z</time>
      </trkpt>
      <trkpt lat="46.24782" lon="5.35408">
        <ele>288.60000610352</ele>
        <time>2020-07-31T06:24:07.000Z</time>
      </trkpt>
      <trkpt lat="46.24766" lon="5.35395">
        <ele>288.39999389648</ele>
        <time>2020-07-31T06:24:09.000Z</time>
      </trkpt>
      <trkpt lat="46.2475" lon="5.35383">
        <ele>288.20001220703</ele>
        <time>2020-07-31T06:24:11.000Z</time>
      </trkpt>
      <trkpt lat="46.24733" lon="5.35371">
        <ele>287.60000610352</ele>
        <time>2020-07-31T06:24:13.000Z</time>
      </trkpt>
      <trkpt lat="46.24725" lon="5.35364">
        <ele>287</ele>
        <time>2020-07-31T06:24:14.000Z</time>
      </trkpt>
      <trkpt lat="46.24716" lon="5.35357">
        <ele>286.60000610352</ele>
        <time>2020-07-31T06:24:15.000Z</time>
      </trkpt>
      <trkpt lat="46.24698" lon="5.35343">
        <ele>286.20001220703</ele>
        <time>2020-07-31T06:24:17.000Z</time>
      </trkpt>
      <trkpt lat="46.24689" lon="5.35336">
        <ele>285.60000610352</ele>
        <time>2020-07-31T06:24:18.000Z</time>
      </trkpt>
      <trkpt lat="46.2468" lon="5.35329">
        <ele>284.79998779297</ele>
        <time>2020-07-31T06:24:19.000Z</time>
      </trkpt>
      <trkpt lat="46.24671" lon="5.35321">
        <ele>283.60000610352</ele>
        <time>2020-07-31T06:24:20.000Z</time>
      </trkpt>
      <trkpt lat="46.24661" lon="5.35314">
        <ele>283</ele>
        <time>2020-07-31T06:24:21.000Z</time>
      </trkpt>
      <trkpt lat="46.24651" lon="5.35307">
        <ele>282.60000610352</ele>
        <time>2020-07-31T06:24:22.000Z</time>
      </trkpt>
      <trkpt lat="46.24642" lon="5.353">
        <ele>282.20001220703</ele>
        <time>2020-07-31T06:24:23.000Z</time>
      </trkpt>
      <trkpt lat="46.24626" lon="5.35287">
        <ele>281.20001220703</ele>
        <time>2020-07-31T06:24:25.000Z</time>
      </trkpt>
      <trkpt lat="46.24619" lon="5.35279">
        <ele>280.39999389648</ele>
        <time>2020-07-31T06:24:26.000Z</time>
      </trkpt>
      <trkpt lat="46.24614" lon="5.35271">
        <ele>280</ele>
        <time>2020-07-31T06:24:27.000Z</time>
      </trkpt>
      <trkpt lat="46.24603" lon="5.35254">
        <ele>278.60000610352</ele>
        <time>2020-07-31T06:24:29.000Z</time>
      </trkpt>
      <trkpt lat="46.24598" lon="5.35245">
        <ele>278.20001220703</ele>
        <time>2020-07-31T06:24:30.000Z</time>
      </trkpt>
      <trkpt lat="46.24595" lon="5.35235">
        <ele>277.79998779297</ele>
        <time>2020-07-31T06:24:31.000Z</time>
      </trkpt>
      <trkpt lat="46.24592" lon="5.35214">
        <ele>277.60000610352</ele>
        <time>2020-07-31T06:24:33.000Z</time>
      </trkpt>
      <trkpt lat="46.24593" lon="5.35191">
        <ele>277.39999389648</ele>
        <time>2020-07-31T06:24:35.000Z</time>
      </trkpt>
      <trkpt lat="46.24596" lon="5.35169">
        <ele>277.20001220703</ele>
        <time>2020-07-31T06:24:37.000Z</time>
      </trkpt>
      <trkpt lat="46.24599" lon="5.35158">
        <ele>277.20001220703</ele>
        <time>2020-07-31T06:24:38.000Z</time>
      </trkpt>
      <trkpt lat="46.246" lon="5.35147">
        <ele>277</ele>
        <time>2020-07-31T06:24:39.000Z</time>
      </trkpt>
      <trkpt lat="46.24598" lon="5.35125">
        <ele>276.79998779297</ele>
        <time>2020-07-31T06:24:41.000Z</time>
      </trkpt>
      <trkpt lat="46.2459" lon="5.35108">
        <ele>276.60000610352</ele>
        <time>2020-07-31T06:24:43.000Z</time>
      </trkpt>
      <trkpt lat="46.24586" lon="5.35102">
        <ele>276.60000610352</ele>
        <time>2020-07-31T06:24:44.000Z</time>
      </trkpt>
      <trkpt lat="46.24581" lon="5.35097">
        <ele>276.60000610352</ele>
        <time>2020-07-31T06:24:45.000Z</time>
      </trkpt>
      <trkpt lat="46.24571" lon="5.3509">
        <ele>276.60000610352</ele>
        <time>2020-07-31T06:24:47.000Z</time>
      </trkpt>
      <trkpt lat="46.24564" lon="5.35085">
        <ele>276.60000610352</ele>
        <time>2020-07-31T06:24:49.000Z</time>
      </trkpt>
      <trkpt lat="46.24556" lon="5.35079">
        <ele>276.60000610352</ele>
        <time>2020-07-31T06:24:51.000Z</time>
      </trkpt>
      <trkpt lat="46.24549" lon="5.35073">
        <ele>276.79998779297</ele>
        <time>2020-07-31T06:24:53.000Z</time>
      </trkpt>
      <trkpt lat="46.24545" lon="5.3507">
        <ele>277.20001220703</ele>
        <time>2020-07-31T06:24:54.000Z</time>
      </trkpt>
      <trkpt lat="46.2454" lon="5.35066">
        <ele>277.60000610352</ele>
        <time>2020-07-31T06:24:55.000Z</time>
      </trkpt>
      <trkpt lat="46.2453" lon="5.35059">
        <ele>278</ele>
        <time>2020-07-31T06:24:57.000Z</time>
      </trkpt>
      <trkpt lat="46.2452" lon="5.35052">
        <ele>278.20001220703</ele>
        <time>2020-07-31T06:24:59.000Z</time>
      </trkpt>
      <trkpt lat="46.24514" lon="5.35048">
        <ele>278.20001220703</ele>
        <time>2020-07-31T06:25:00.000Z</time>
      </trkpt>
      <trkpt lat="46.24508" lon="5.35044">
        <ele>278.20001220703</ele>
        <time>2020-07-31T06:25:01.000Z</time>
      </trkpt>
      <trkpt lat="46.24497" lon="5.35035">
        <ele>278.39999389648</ele>
        <time>2020-07-31T06:25:03.000Z</time>
      </trkpt>
      <trkpt lat="46.24487" lon="5.35027">
        <ele>278.39999389648</ele>
        <time>2020-07-31T06:25:05.000Z</time>
      </trkpt>
      <trkpt lat="46.24477" lon="5.35019">
        <ele>278.60000610352</ele>
        <time>2020-07-31T06:25:07.000Z</time>
      </trkpt>
      <trkpt lat="46.24468" lon="5.35012">
        <ele>278.79998779297</ele>
        <time>2020-07-31T06:25:09.000Z</time>
      </trkpt>
      <trkpt lat="46.24459" lon="5.35004">
        <ele>278.79998779297</ele>
        <time>2020-07-31T06:25:11.000Z</time>
      </trkpt>
      <trkpt lat="46.24455" lon="5.34999">
        <ele>279</ele>
        <time>2020-07-31T06:25:12.000Z</time>
      </trkpt>
      <trkpt lat="46.2445" lon="5.34995">
        <ele>279</ele>
        <time>2020-07-31T06:25:13.000Z</time>
      </trkpt>
      <trkpt lat="46.24441" lon="5.34987">
        <ele>279.39999389648</ele>
        <time>2020-07-31T06:25:15.000Z</time>
      </trkpt>
      <trkpt lat="46.24433" lon="5.3498">
        <ele>279.39999389648</ele>
        <time>2020-07-31T06:25:17.000Z</time>
      </trkpt>
      <trkpt lat="46.24424" lon="5.34973">
        <ele>279.79998779297</ele>
        <time>2020-07-31T06:25:19.000Z</time>
      </trkpt>
      <trkpt lat="46.24415" lon="5.34971">
        <ele>280</ele>
        <time>2020-07-31T06:25:21.000Z</time>
      </trkpt>
      <trkpt lat="46.24405" lon="5.34971">
        <ele>280.60000610352</ele>
        <time>2020-07-31T06:25:23.000Z</time>
      </trkpt>
      <trkpt lat="46.244" lon="5.34971">
        <ele>281</ele>
        <time>2020-07-31T06:25:24.000Z</time>
      </trkpt>
      <trkpt lat="46.24396" lon="5.34971">
        <ele>281.20001220703</ele>
        <time>2020-07-31T06:25:25.000Z</time>
      </trkpt>
      <trkpt lat="46.24387" lon="5.34971">
        <ele>281.60000610352</ele>
        <time>2020-07-31T06:25:27.000Z</time>
      </trkpt>
      <trkpt lat="46.24378" lon="5.3497">
        <ele>281.79998779297</ele>
        <time>2020-07-31T06:25:29.000Z</time>
      </trkpt>
      <trkpt lat="46.24373" lon="5.34971">
        <ele>282</ele>
        <time>2020-07-31T06:25:30.000Z</time>
      </trkpt>
      <trkpt lat="46.24369" lon="5.34971">
        <ele>282.20001220703</ele>
        <time>2020-07-31T06:25:31.000Z</time>
      </trkpt>
      <trkpt lat="46.24365" lon="5.3497">
        <ele>282.60000610352</ele>
        <time>2020-07-31T06:25:32.000Z</time>
      </trkpt>
      <trkpt lat="46.2436" lon="5.3497">
        <ele>282.79998779297</ele>
        <time>2020-07-31T06:25:33.000Z</time>
      </trkpt>
      <trkpt lat="46.24356" lon="5.3497">
        <ele>283</ele>
        <time>2020-07-31T06:25:34.000Z</time>
      </trkpt>
      <trkpt lat="46.24352" lon="5.34969">
        <ele>283.20001220703</ele>
        <time>2020-07-31T06:25:35.000Z</time>
      </trkpt>
      <trkpt lat="46.24343" lon="5.34968">
        <ele>283.79998779297</ele>
        <time>2020-07-31T06:25:37.000Z</time>
      </trkpt>
      <trkpt lat="46.24334" lon="5.34968">
        <ele>284.20001220703</ele>
        <time>2020-07-31T06:25:39.000Z</time>
      </trkpt>
      <trkpt lat="46.2433" lon="5.34968">
        <ele>284.39999389648</ele>
        <time>2020-07-31T06:25:40.000Z</time>
      </trkpt>
      <trkpt lat="46.24326" lon="5.34967">
        <ele>284.39999389648</ele>
        <time>2020-07-31T06:25:41.000Z</time>
      </trkpt>
      <trkpt lat="46.24317" lon="5.34966">
        <ele>285.20001220703</ele>
        <time>2020-07-31T06:25:43.000Z</time>
      </trkpt>
      <trkpt lat="46.24312" lon="5.34965">
        <ele>285.39999389648</ele>
        <time>2020-07-31T06:25:44.000Z</time>
      </trkpt>
      <trkpt lat="46.24307" lon="5.34965">
        <ele>285.60000610352</ele>
        <time>2020-07-31T06:25:45.000Z</time>
      </trkpt>
      <trkpt lat="46.24298" lon="5.34964">
        <ele>286</ele>
        <time>2020-07-31T06:25:47.000Z</time>
      </trkpt>
      <trkpt lat="46.24288" lon="5.34962">
        <ele>286.20001220703</ele>
        <time>2020-07-31T06:25:49.000Z</time>
      </trkpt>
      <trkpt lat="46.24283" lon="5.34961">
        <ele>286.20001220703</ele>
        <time>2020-07-31T06:25:50.000Z</time>
      </trkpt>
      <trkpt lat="46.24278" lon="5.3496">
        <ele>286.39999389648</ele>
        <time>2020-07-31T06:25:51.000Z</time>
      </trkpt>
      <trkpt lat="46.24268" lon="5.34959">
        <ele>286.39999389648</ele>
        <time>2020-07-31T06:25:53.000Z</time>
      </trkpt>
      <trkpt lat="46.24263" lon="5.34958">
        <ele>286.60000610352</ele>
        <time>2020-07-31T06:25:54.000Z</time>
      </trkpt>
      <trkpt lat="46.24258" lon="5.34957">
        <ele>286.60000610352</ele>
        <time>2020-07-31T06:25:55.000Z</time>
      </trkpt>
      <trkpt lat="46.24248" lon="5.34953">
        <ele>286.60000610352</ele>
        <time>2020-07-31T06:25:57.000Z</time>
      </trkpt>
      <trkpt lat="46.24243" lon="5.34951">
        <ele>286.60000610352</ele>
        <time>2020-07-31T06:25:58.000Z</time>
      </trkpt>
      <trkpt lat="46.24238" lon="5.34948">
        <ele>286.60000610352</ele>
        <time>2020-07-31T06:25:59.000Z</time>
      </trkpt>
      <trkpt lat="46.24229" lon="5.34942">
        <ele>286.60000610352</ele>
        <time>2020-07-31T06:26:01.000Z</time>
      </trkpt>
      <trkpt lat="46.24219" lon="5.34936">
        <ele>286.60000610352</ele>
        <time>2020-07-31T06:26:03.000Z</time>
      </trkpt>
      <trkpt lat="46.24215" lon="5.34933">
        <ele>286.60000610352</ele>
        <time>2020-07-31T06:26:04.000Z</time>
      </trkpt>
      <trkpt lat="46.2421" lon="5.3493">
        <ele>286.60000610352</ele>
        <time>2020-07-31T06:26:05.000Z</time>
      </trkpt>
      <trkpt lat="46.24206" lon="5.34928">
        <ele>286.79998779297</ele>
        <time>2020-07-31T06:26:06.000Z</time>
      </trkpt>
      <trkpt lat="46.24201" lon="5.34928">
        <ele>286.79998779297</ele>
        <time>2020-07-31T06:26:07.000Z</time>
      </trkpt>
      <trkpt lat="46.24198" lon="5.34931">
        <ele>286.79998779297</ele>
        <time>2020-07-31T06:26:08.000Z</time>
      </trkpt>
      <trkpt lat="46.24196" lon="5.34936">
        <ele>286.79998779297</ele>
        <time>2020-07-31T06:26:09.000Z</time>
      </trkpt>
      <trkpt lat="46.24192" lon="5.3495">
        <ele>286.79998779297</ele>
        <time>2020-07-31T06:26:11.000Z</time>
      </trkpt>
      <trkpt lat="46.24189" lon="5.34965">
        <ele>286.79998779297</ele>
        <time>2020-07-31T06:26:13.000Z</time>
      </trkpt>
      <trkpt lat="46.24187" lon="5.3498">
        <ele>287</ele>
        <time>2020-07-31T06:26:15.000Z</time>
      </trkpt>
      <trkpt lat="46.24184" lon="5.34994">
        <ele>287.39999389648</ele>
        <time>2020-07-31T06:26:17.000Z</time>
      </trkpt>
      <trkpt lat="46.24183" lon="5.35001">
        <ele>287.60000610352</ele>
        <time>2020-07-31T06:26:18.000Z</time>
      </trkpt>
      <trkpt lat="46.24182" lon="5.35008">
        <ele>287.60000610352</ele>
        <time>2020-07-31T06:26:19.000Z</time>
      </trkpt>
      <trkpt lat="46.2418" lon="5.35021">
        <ele>287.79998779297</ele>
        <time>2020-07-31T06:26:21.000Z</time>
      </trkpt>
      <trkpt lat="46.24177" lon="5.35034">
        <ele>288.20001220703</ele>
        <time>2020-07-31T06:26:23.000Z</time>
      </trkpt>
      <trkpt lat="46.24174" lon="5.35039">
        <ele>288.60000610352</ele>
        <time>2020-07-31T06:26:24.000Z</time>
      </trkpt>
      <trkpt lat="46.2417" lon="5.35043">
        <ele>288.79998779297</ele>
        <time>2020-07-31T06:26:25.000Z</time>
      </trkpt>
      <trkpt lat="46.24162" lon="5.35049">
        <ele>289.39999389648</ele>
        <time>2020-07-31T06:26:27.000Z</time>
      </trkpt>
      <trkpt lat="46.24157" lon="5.35051">
        <ele>289.60000610352</ele>
        <time>2020-07-31T06:26:28.000Z</time>
      </trkpt>
      <trkpt lat="46.24152" lon="5.35052">
        <ele>289.79998779297</ele>
        <time>2020-07-31T06:26:29.000Z</time>
      </trkpt>
      <trkpt lat="46.24143" lon="5.35056">
        <ele>290.20001220703</ele>
        <time>2020-07-31T06:26:31.000Z</time>
      </trkpt>
      <trkpt lat="46.24133" lon="5.35059">
        <ele>290.60000610352</ele>
        <time>2020-07-31T06:26:33.000Z</time>
      </trkpt>
      <trkpt lat="46.24128" lon="5.35059">
        <ele>290.79998779297</ele>
        <time>2020-07-31T06:26:34.000Z</time>
      </trkpt>
      <trkpt lat="46.24123" lon="5.35061">
        <ele>290.79998779297</ele>
        <time>2020-07-31T06:26:35.000Z</time>
      </trkpt>
      <trkpt lat="46.24119" lon="5.35063">
        <ele>291</ele>
        <time>2020-07-31T06:26:36.000Z</time>
      </trkpt>
      <trkpt lat="46.24114" lon="5.35066">
        <ele>291.20001220703</ele>
        <time>2020-07-31T06:26:37.000Z</time>
      </trkpt>
      <trkpt lat="46.24106" lon="5.35073">
        <ele>291.79998779297</ele>
        <time>2020-07-31T06:26:39.000Z</time>
      </trkpt>
      <trkpt lat="46.24102" lon="5.35077">
        <ele>292</ele>
        <time>2020-07-31T06:26:40.000Z</time>
      </trkpt>
      <trkpt lat="46.24099" lon="5.35081">
        <ele>292.20001220703</ele>
        <time>2020-07-31T06:26:41.000Z</time>
      </trkpt>
      <trkpt lat="46.24093" lon="5.35091">
        <ele>292.79998779297</ele>
        <time>2020-07-31T06:26:43.000Z</time>
      </trkpt>
      <trkpt lat="46.2409" lon="5.35096">
        <ele>293</ele>
        <time>2020-07-31T06:26:44.000Z</time>
      </trkpt>
      <trkpt lat="46.24088" lon="5.351">
        <ele>293.20001220703</ele>
        <time>2020-07-31T06:26:45.000Z</time>
      </trkpt>
      <trkpt lat="46.24085" lon="5.35105">
        <ele>293.60000610352</ele>
        <time>2020-07-31T06:26:46.000Z</time>
      </trkpt>
      <trkpt lat="46.24079" lon="5.35113">
        <ele>294.20001220703</ele>
        <time>2020-07-31T06:26:48.000Z</time>
      </trkpt>
      <trkpt lat="46.24074" lon="5.35121">
        <ele>294.39999389648</ele>
        <time>2020-07-31T06:26:50.000Z</time>
      </trkpt>
      <trkpt lat="46.24068" lon="5.35128">
        <ele>295.20001220703</ele>
        <time>2020-07-31T06:26:52.000Z</time>
      </trkpt>
      <trkpt lat="46.24062" lon="5.35137">
        <ele>295.79998779297</ele>
        <time>2020-07-31T06:26:54.000Z</time>
      </trkpt>
      <trkpt lat="46.24057" lon="5.35146">
        <ele>296.20001220703</ele>
        <time>2020-07-31T06:26:56.000Z</time>
      </trkpt>
      <trkpt lat="46.24051" lon="5.35155">
        <ele>296.79998779297</ele>
        <time>2020-07-31T06:26:58.000Z</time>
      </trkpt>
      <trkpt lat="46.24048" lon="5.3516">
        <ele>297.20001220703</ele>
        <time>2020-07-31T06:26:59.000Z</time>
      </trkpt>
      <trkpt lat="46.24045" lon="5.35164">
        <ele>297.39999389648</ele>
        <time>2020-07-31T06:27:00.000Z</time>
      </trkpt>
      <trkpt lat="46.24039" lon="5.35172">
        <ele>298.20001220703</ele>
        <time>2020-07-31T06:27:02.000Z</time>
      </trkpt>
      <trkpt lat="46.24034" lon="5.35179">
        <ele>298.39999389648</ele>
        <time>2020-07-31T06:27:04.000Z</time>
      </trkpt>
      <trkpt lat="46.24031" lon="5.35183">
        <ele>298.60000610352</ele>
        <time>2020-07-31T06:27:05.000Z</time>
      </trkpt>
      <trkpt lat="46.24025" lon="5.3519">
        <ele>299</ele>
        <time>2020-07-31T06:27:07.000Z</time>
      </trkpt>
      <trkpt lat="46.24018" lon="5.35196">
        <ele>299.39999389648</ele>
        <time>2020-07-31T06:27:09.000Z</time>
      </trkpt>
      <trkpt lat="46.24015" lon="5.35199">
        <ele>299.60000610352</ele>
        <time>2020-07-31T06:27:10.000Z</time>
      </trkpt>
      <trkpt lat="46.24011" lon="5.35203">
        <ele>299.79998779297</ele>
        <time>2020-07-31T06:27:11.000Z</time>
      </trkpt>
      <trkpt lat="46.24002" lon="5.35211">
        <ele>299.79998779297</ele>
        <time>2020-07-31T06:27:13.000Z</time>
      </trkpt>
      <trkpt lat="46.23993" lon="5.3522">
        <ele>300</ele>
        <time>2020-07-31T06:27:15.000Z</time>
      </trkpt>
      <trkpt lat="46.23983" lon="5.35229">
        <ele>300</ele>
        <time>2020-07-31T06:27:17.000Z</time>
      </trkpt>
      <trkpt lat="46.23978" lon="5.35233">
        <ele>300</ele>
        <time>2020-07-31T06:27:18.000Z</time>
      </trkpt>
      <trkpt lat="46.23973" lon="5.35237">
        <ele>300</ele>
        <time>2020-07-31T06:27:19.000Z</time>
      </trkpt>
      <trkpt lat="46.23962" lon="5.35241">
        <ele>299.79998779297</ele>
        <time>2020-07-31T06:27:21.000Z</time>
      </trkpt>
      <trkpt lat="46.23951" lon="5.35244">
        <ele>299.60000610352</ele>
        <time>2020-07-31T06:27:23.000Z</time>
      </trkpt>
      <trkpt lat="46.23938" lon="5.35247">
        <ele>299.60000610352</ele>
        <time>2020-07-31T06:27:25.000Z</time>
      </trkpt>
      <trkpt lat="46.23925" lon="5.35249">
        <ele>299.60000610352</ele>
        <time>2020-07-31T06:27:27.000Z</time>
      </trkpt>
      <trkpt lat="46.23912" lon="5.35251">
        <ele>299.39999389648</ele>
        <time>2020-07-31T06:27:29.000Z</time>
      </trkpt>
      <trkpt lat="46.23897" lon="5.35253">
        <ele>299.39999389648</ele>
        <time>2020-07-31T06:27:31.000Z</time>
      </trkpt>
      <trkpt lat="46.23883" lon="5.35255">
        <ele>299</ele>
        <time>2020-07-31T06:27:33.000Z</time>
      </trkpt>
      <trkpt lat="46.23869" lon="5.35258">
        <ele>298.60000610352</ele>
        <time>2020-07-31T06:27:35.000Z</time>
      </trkpt>
      <trkpt lat="46.23855" lon="5.35263">
        <ele>298</ele>
        <time>2020-07-31T06:27:37.000Z</time>
      </trkpt>
      <trkpt lat="46.23848" lon="5.35267">
        <ele>297.60000610352</ele>
        <time>2020-07-31T06:27:38.000Z</time>
      </trkpt>
      <trkpt lat="46.23842" lon="5.3527">
        <ele>297.39999389648</ele>
        <time>2020-07-31T06:27:39.000Z</time>
      </trkpt>
      <trkpt lat="46.23835" lon="5.35274">
        <ele>297.20001220703</ele>
        <time>2020-07-31T06:27:40.000Z</time>
      </trkpt>
      <trkpt lat="46.23829" lon="5.35278">
        <ele>297</ele>
        <time>2020-07-31T06:27:41.000Z</time>
      </trkpt>
      <trkpt lat="46.23824" lon="5.35283">
        <ele>297</ele>
        <time>2020-07-31T06:27:42.000Z</time>
      </trkpt>
      <trkpt lat="46.2382" lon="5.35288">
        <ele>296.60000610352</ele>
        <time>2020-07-31T06:27:43.000Z</time>
      </trkpt>
      <trkpt lat="46.23817" lon="5.35305">
        <ele>296.60000610352</ele>
        <time>2020-07-31T06:27:45.000Z</time>
      </trkpt>
      <trkpt lat="46.23817" lon="5.35314">
        <ele>296.39999389648</ele>
        <time>2020-07-31T06:27:46.000Z</time>
      </trkpt>
      <trkpt lat="46.23816" lon="5.35324">
        <ele>296.39999389648</ele>
        <time>2020-07-31T06:27:47.000Z</time>
      </trkpt>
      <trkpt lat="46.23813" lon="5.35343">
        <ele>296.39999389648</ele>
        <time>2020-07-31T06:27:49.000Z</time>
      </trkpt>
      <trkpt lat="46.23811" lon="5.35352">
        <ele>296.39999389648</ele>
        <time>2020-07-31T06:27:50.000Z</time>
      </trkpt>
      <trkpt lat="46.23807" lon="5.3536">
        <ele>296.39999389648</ele>
        <time>2020-07-31T06:27:51.000Z</time>
      </trkpt>
      <trkpt lat="46.23799" lon="5.35374">
        <ele>296.39999389648</ele>
        <time>2020-07-31T06:27:53.000Z</time>
      </trkpt>
      <trkpt lat="46.23795" lon="5.3538">
        <ele>296.60000610352</ele>
        <time>2020-07-31T06:27:54.000Z</time>
      </trkpt>
      <trkpt lat="46.23791" lon="5.35387">
        <ele>296.60000610352</ele>
        <time>2020-07-31T06:27:55.000Z</time>
      </trkpt>
      <trkpt lat="46.23783" lon="5.35399">
        <ele>296.79998779297</ele>
        <time>2020-07-31T06:27:57.000Z</time>
      </trkpt>
      <trkpt lat="46.23775" lon="5.35412">
        <ele>297.20001220703</ele>
        <time>2020-07-31T06:27:59.000Z</time>
      </trkpt>
      <trkpt lat="46.23768" lon="5.35425">
        <ele>297.39999389648</ele>
        <time>2020-07-31T06:28:01.000Z</time>
      </trkpt>
      <trkpt lat="46.23761" lon="5.35436">
        <ele>297.39999389648</ele>
        <time>2020-07-31T06:28:03.000Z</time>
      </trkpt>
      <trkpt lat="46.23754" lon="5.35446">
        <ele>297.79998779297</ele>
        <time>2020-07-31T06:28:05.000Z</time>
      </trkpt>
      <trkpt lat="46.23751" lon="5.3545">
        <ele>298.20001220703</ele>
        <time>2020-07-31T06:28:06.000Z</time>
      </trkpt>
      <trkpt lat="46.23748" lon="5.35455">
        <ele>298.39999389648</ele>
        <time>2020-07-31T06:28:07.000Z</time>
      </trkpt>
      <trkpt lat="46.2374" lon="5.35464">
        <ele>299.39999389648</ele>
        <time>2020-07-31T06:28:09.000Z</time>
      </trkpt>
      <trkpt lat="46.23733" lon="5.35473">
        <ele>300</ele>
        <time>2020-07-31T06:28:11.000Z</time>
      </trkpt>
      <trkpt lat="46.23729" lon="5.35477">
        <ele>300.39999389648</ele>
        <time>2020-07-31T06:28:12.000Z</time>
      </trkpt>
      <trkpt lat="46.23725" lon="5.35481">
        <ele>301</ele>
        <time>2020-07-31T06:28:13.000Z</time>
      </trkpt>
      <trkpt lat="46.23717" lon="5.35491">
        <ele>301.60000610352</ele>
        <time>2020-07-31T06:28:15.000Z</time>
      </trkpt>
      <trkpt lat="46.23708" lon="5.35503">
        <ele>301.79998779297</ele>
        <time>2020-07-31T06:28:17.000Z</time>
      </trkpt>
      <trkpt lat="46.237" lon="5.35514">
        <ele>302</ele>
        <time>2020-07-31T06:28:19.000Z</time>
      </trkpt>
      <trkpt lat="46.23697" lon="5.35521">
        <ele>302</ele>
        <time>2020-07-31T06:28:20.000Z</time>
      </trkpt>
      <trkpt lat="46.23693" lon="5.35527">
        <ele>302</ele>
        <time>2020-07-31T06:28:21.000Z</time>
      </trkpt>
      <trkpt lat="46.23685" lon="5.3554">
        <ele>302.20001220703</ele>
        <time>2020-07-31T06:28:23.000Z</time>
      </trkpt>
      <trkpt lat="46.23682" lon="5.35547">
        <ele>302.20001220703</ele>
        <time>2020-07-31T06:28:24.000Z</time>
      </trkpt>
      <trkpt lat="46.2368" lon="5.35554">
        <ele>302.39999389648</ele>
        <time>2020-07-31T06:28:25.000Z</time>
      </trkpt>
      <trkpt lat="46.23677" lon="5.35569">
        <ele>302.60000610352</ele>
        <time>2020-07-31T06:28:27.000Z</time>
      </trkpt>
      <trkpt lat="46.23676" lon="5.35585">
        <ele>302.79998779297</ele>
        <time>2020-07-31T06:28:29.000Z</time>
      </trkpt>
      <trkpt lat="46.23677" lon="5.35602">
        <ele>302.79998779297</ele>
        <time>2020-07-31T06:28:31.000Z</time>
      </trkpt>
      <trkpt lat="46.23679" lon="5.35619">
        <ele>303</ele>
        <time>2020-07-31T06:28:33.000Z</time>
      </trkpt>
      <trkpt lat="46.2368" lon="5.35628">
        <ele>303.20001220703</ele>
        <time>2020-07-31T06:28:34.000Z</time>
      </trkpt>
      <trkpt lat="46.23681" lon="5.35636">
        <ele>303.39999389648</ele>
        <time>2020-07-31T06:28:35.000Z</time>
      </trkpt>
      <trkpt lat="46.23683" lon="5.35654">
        <ele>303.60000610352</ele>
        <time>2020-07-31T06:28:37.000Z</time>
      </trkpt>
      <trkpt lat="46.23685" lon="5.35671">
        <ele>303.60000610352</ele>
        <time>2020-07-31T06:28:39.000Z</time>
      </trkpt>
      <trkpt lat="46.23687" lon="5.35687">
        <ele>303.79998779297</ele>
        <time>2020-07-31T06:28:41.000Z</time>
      </trkpt>
      <trkpt lat="46.23691" lon="5.35704">
        <ele>303.79998779297</ele>
        <time>2020-07-31T06:28:43.000Z</time>
      </trkpt>
      <trkpt lat="46.23696" lon="5.35719">
        <ele>304</ele>
        <time>2020-07-31T06:28:45.000Z</time>
      </trkpt>
      <trkpt lat="46.23699" lon="5.35726">
        <ele>304</ele>
        <time>2020-07-31T06:28:46.000Z</time>
      </trkpt>
      <trkpt lat="46.23701" lon="5.35733">
        <ele>304</ele>
        <time>2020-07-31T06:28:47.000Z</time>
      </trkpt>
      <trkpt lat="46.23707" lon="5.35747">
        <ele>304.20001220703</ele>
        <time>2020-07-31T06:28:49.000Z</time>
      </trkpt>
      <trkpt lat="46.23713" lon="5.35761">
        <ele>304.20001220703</ele>
        <time>2020-07-31T06:28:51.000Z</time>
      </trkpt>
      <trkpt lat="46.23719" lon="5.35774">
        <ele>304.20001220703</ele>
        <time>2020-07-31T06:28:53.000Z</time>
      </trkpt>
      <trkpt lat="46.23726" lon="5.35787">
        <ele>304.60000610352</ele>
        <time>2020-07-31T06:28:55.000Z</time>
      </trkpt>
      <trkpt lat="46.23729" lon="5.35793">
        <ele>304.79998779297</ele>
        <time>2020-07-31T06:28:56.000Z</time>
      </trkpt>
      <trkpt lat="46.23733" lon="5.358">
        <ele>305</ele>
        <time>2020-07-31T06:28:57.000Z</time>
      </trkpt>
      <trkpt lat="46.2374" lon="5.35812">
        <ele>305.20001220703</ele>
        <time>2020-07-31T06:28:59.000Z</time>
      </trkpt>
      <trkpt lat="46.23747" lon="5.35823">
        <ele>305.39999389648</ele>
        <time>2020-07-31T06:29:01.000Z</time>
      </trkpt>
      <trkpt lat="46.23755" lon="5.35834">
        <ele>305.60000610352</ele>
        <time>2020-07-31T06:29:03.000Z</time>
      </trkpt>
      <trkpt lat="46.23762" lon="5.35844">
        <ele>306</ele>
        <time>2020-07-31T06:29:05.000Z</time>
      </trkpt>
      <trkpt lat="46.2377" lon="5.35854">
        <ele>306.39999389648</ele>
        <time>2020-07-31T06:29:07.000Z</time>
      </trkpt>
      <trkpt lat="46.23779" lon="5.35863">
        <ele>306.79998779297</ele>
        <time>2020-07-31T06:29:09.000Z</time>
      </trkpt>
      <trkpt lat="46.23783" lon="5.35867">
        <ele>307.20001220703</ele>
        <time>2020-07-31T06:29:10.000Z</time>
      </trkpt>
      <trkpt lat="46.23788" lon="5.35871">
        <ele>307.79998779297</ele>
        <time>2020-07-31T06:29:11.000Z</time>
      </trkpt>
      <trkpt lat="46.23792" lon="5.35875">
        <ele>307.79998779297</ele>
        <time>2020-07-31T06:29:12.000Z</time>
      </trkpt>
      <trkpt lat="46.23797" lon="5.35878">
        <ele>308</ele>
        <time>2020-07-31T06:29:13.000Z</time>
      </trkpt>
      <trkpt lat="46.23805" lon="5.35886">
        <ele>308.60000610352</ele>
        <time>2020-07-31T06:29:15.000Z</time>
      </trkpt>
      <trkpt lat="46.23813" lon="5.35894">
        <ele>309</ele>
        <time>2020-07-31T06:29:17.000Z</time>
      </trkpt>
      <trkpt lat="46.23818" lon="5.35897">
        <ele>309</ele>
        <time>2020-07-31T06:29:18.000Z</time>
      </trkpt>
      <trkpt lat="46.23822" lon="5.35899">
        <ele>309.20001220703</ele>
        <time>2020-07-31T06:29:19.000Z</time>
      </trkpt>
      <trkpt lat="46.23831" lon="5.35904">
        <ele>309.60000610352</ele>
        <time>2020-07-31T06:29:21.000Z</time>
      </trkpt>
      <trkpt lat="46.23836" lon="5.35905">
        <ele>310</ele>
        <time>2020-07-31T06:29:22.000Z</time>
      </trkpt>
      <trkpt lat="46.23841" lon="5.35907">
        <ele>310.20001220703</ele>
        <time>2020-07-31T06:29:23.000Z</time>
      </trkpt>
      <trkpt lat="46.23846" lon="5.35908">
        <ele>310.39999389648</ele>
        <time>2020-07-31T06:29:24.000Z</time>
      </trkpt>
      <trkpt lat="46.23851" lon="5.35909">
        <ele>310.60000610352</ele>
        <time>2020-07-31T06:29:25.000Z</time>
      </trkpt>
      <trkpt lat="46.23861" lon="5.3591">
        <ele>311.39999389648</ele>
        <time>2020-07-31T06:29:27.000Z</time>
      </trkpt>
      <trkpt lat="46.23866" lon="5.35911">
        <ele>311.60000610352</ele>
        <time>2020-07-31T06:29:28.000Z</time>
      </trkpt>
      <trkpt lat="46.23871" lon="5.35912">
        <ele>311.79998779297</ele>
        <time>2020-07-31T06:29:29.000Z</time>
      </trkpt>
      <trkpt lat="46.2388" lon="5.35915">
        <ele>312.20001220703</ele>
        <time>2020-07-31T06:29:31.000Z</time>
      </trkpt>
      <trkpt lat="46.23889" lon="5.35918">
        <ele>312.20001220703</ele>
        <time>2020-07-31T06:29:33.000Z</time>
      </trkpt>
      <trkpt lat="46.23899" lon="5.35923">
        <ele>312.39999389648</ele>
        <time>2020-07-31T06:29:35.000Z</time>
      </trkpt>
      <trkpt lat="46.23903" lon="5.35926">
        <ele>312.39999389648</ele>
        <time>2020-07-31T06:29:36.000Z</time>
      </trkpt>
      <trkpt lat="46.23908" lon="5.35929">
        <ele>312.60000610352</ele>
        <time>2020-07-31T06:29:37.000Z</time>
      </trkpt>
      <trkpt lat="46.23917" lon="5.35937">
        <ele>312.79998779297</ele>
        <time>2020-07-31T06:29:39.000Z</time>
      </trkpt>
      <trkpt lat="46.23926" lon="5.35945">
        <ele>313.20001220703</ele>
        <time>2020-07-31T06:29:41.000Z</time>
      </trkpt>
      <trkpt lat="46.23934" lon="5.35953">
        <ele>313.39999389648</ele>
        <time>2020-07-31T06:29:43.000Z</time>
      </trkpt>
      <trkpt lat="46.23942" lon="5.35961">
        <ele>313.60000610352</ele>
        <time>2020-07-31T06:29:45.000Z</time>
      </trkpt>
      <trkpt lat="46.2395" lon="5.35969">
        <ele>313.60000610352</ele>
        <time>2020-07-31T06:29:47.000Z</time>
      </trkpt>
      <trkpt lat="46.23958" lon="5.35978">
        <ele>314</ele>
        <time>2020-07-31T06:29:49.000Z</time>
      </trkpt>
      <trkpt lat="46.23962" lon="5.35982">
        <ele>314.20001220703</ele>
        <time>2020-07-31T06:29:50.000Z</time>
      </trkpt>
      <trkpt lat="46.23966" lon="5.35986">
        <ele>314.20001220703</ele>
        <time>2020-07-31T06:29:51.000Z</time>
      </trkpt>
      <trkpt lat="46.23975" lon="5.35993">
        <ele>314.79998779297</ele>
        <time>2020-07-31T06:29:53.000Z</time>
      </trkpt>
      <trkpt lat="46.23982" lon="5.36001">
        <ele>315.20001220703</ele>
        <time>2020-07-31T06:29:55.000Z</time>
      </trkpt>
      <trkpt lat="46.23989" lon="5.36011">
        <ele>315.60000610352</ele>
        <time>2020-07-31T06:29:57.000Z</time>
      </trkpt>
      <trkpt lat="46.23991" lon="5.36017">
        <ele>315.60000610352</ele>
        <time>2020-07-31T06:29:58.000Z</time>
      </trkpt>
      <trkpt lat="46.23992" lon="5.36024">
        <ele>315.79998779297</ele>
        <time>2020-07-31T06:29:59.000Z</time>
      </trkpt>
      <trkpt lat="46.23992" lon="5.36031">
        <ele>316</ele>
        <time>2020-07-31T06:30:00.000Z</time>
      </trkpt>
      <trkpt lat="46.2399" lon="5.36037">
        <ele>316</ele>
        <time>2020-07-31T06:30:01.000Z</time>
      </trkpt>
      <trkpt lat="46.23983" lon="5.36048">
        <ele>316.20001220703</ele>
        <time>2020-07-31T06:30:03.000Z</time>
      </trkpt>
      <trkpt lat="46.23975" lon="5.36055">
        <ele>316.60000610352</ele>
        <time>2020-07-31T06:30:05.000Z</time>
      </trkpt>
      <trkpt lat="46.23966" lon="5.36058">
        <ele>316.79998779297</ele>
        <time>2020-07-31T06:30:07.000Z</time>
      </trkpt>
      <trkpt lat="46.23958" lon="5.36058">
        <ele>317</ele>
        <time>2020-07-31T06:30:09.000Z</time>
      </trkpt>
      <trkpt lat="46.23951" lon="5.36056">
        <ele>317.39999389648</ele>
        <time>2020-07-31T06:30:11.000Z</time>
      </trkpt>
      <trkpt lat="46.23945" lon="5.36051">
        <ele>317.79998779297</ele>
        <time>2020-07-31T06:30:13.000Z</time>
      </trkpt>
      <trkpt lat="46.23941" lon="5.36049">
        <ele>318</ele>
        <time>2020-07-31T06:30:14.000Z</time>
      </trkpt>
      <trkpt lat="46.23938" lon="5.36047">
        <ele>318.39999389648</ele>
        <time>2020-07-31T06:30:15.000Z</time>
      </trkpt>
      <trkpt lat="46.23932" lon="5.36043">
        <ele>319.20001220703</ele>
        <time>2020-07-31T06:30:17.000Z</time>
      </trkpt>
      <trkpt lat="46.23925" lon="5.36039">
        <ele>319.79998779297</ele>
        <time>2020-07-31T06:30:19.000Z</time>
      </trkpt>
      <trkpt lat="46.23922" lon="5.36037">
        <ele>320.20001220703</ele>
        <time>2020-07-31T06:30:20.000Z</time>
      </trkpt>
      <trkpt lat="46.23919" lon="5.36035">
        <ele>320.39999389648</ele>
        <time>2020-07-31T06:30:21.000Z</time>
      </trkpt>
      <trkpt lat="46.23913" lon="5.36033">
        <ele>320.60000610352</ele>
        <time>2020-07-31T06:30:23.000Z</time>
      </trkpt>
      <trkpt lat="46.2391" lon="5.36032">
        <ele>321</ele>
        <time>2020-07-31T06:30:24.000Z</time>
      </trkpt>
      <trkpt lat="46.23907" lon="5.36031">
        <ele>321.39999389648</ele>
        <time>2020-07-31T06:30:25.000Z</time>
      </trkpt>
      <trkpt lat="46.23904" lon="5.3603">
        <ele>321.60000610352</ele>
        <time>2020-07-31T06:30:26.000Z</time>
      </trkpt>
      <trkpt lat="46.23901" lon="5.36029">
        <ele>321.79998779297</ele>
        <time>2020-07-31T06:30:27.000Z</time>
      </trkpt>
      <trkpt lat="46.23895" lon="5.36025">
        <ele>322.20001220703</ele>
        <time>2020-07-31T06:30:29.000Z</time>
      </trkpt>
      <trkpt lat="46.23888" lon="5.36022">
        <ele>322.79998779297</ele>
        <time>2020-07-31T06:30:31.000Z</time>
      </trkpt>
      <trkpt lat="46.2388" lon="5.36019">
        <ele>323.20001220703</ele>
        <time>2020-07-31T06:30:33.000Z</time>
      </trkpt>
      <trkpt lat="46.23877" lon="5.36017">
        <ele>323.20001220703</ele>
        <time>2020-07-31T06:30:34.000Z</time>
      </trkpt>
      <trkpt lat="46.23873" lon="5.36016">
        <ele>323.39999389648</ele>
        <time>2020-07-31T06:30:35.000Z</time>
      </trkpt>
      <trkpt lat="46.23866" lon="5.36012">
        <ele>324</ele>
        <time>2020-07-31T06:30:37.000Z</time>
      </trkpt>
      <trkpt lat="46.23862" lon="5.3601">
        <ele>324.39999389648</ele>
        <time>2020-07-31T06:30:38.000Z</time>
      </trkpt>
      <trkpt lat="46.23859" lon="5.36008">
        <ele>324.60000610352</ele>
        <time>2020-07-31T06:30:39.000Z</time>
      </trkpt>
      <trkpt lat="46.23852" lon="5.36005">
        <ele>325.20001220703</ele>
        <time>2020-07-31T06:30:41.000Z</time>
      </trkpt>
      <trkpt lat="46.23848" lon="5.36004">
        <ele>325.39999389648</ele>
        <time>2020-07-31T06:30:42.000Z</time>
      </trkpt>
      <trkpt lat="46.23845" lon="5.36002">
        <ele>325.79998779297</ele>
        <time>2020-07-31T06:30:43.000Z</time>
      </trkpt>
      <trkpt lat="46.23842" lon="5.36001">
        <ele>326</ele>
        <time>2020-07-31T06:30:44.000Z</time>
      </trkpt>
      <trkpt lat="46.23838" lon="5.36001">
        <ele>326.20001220703</ele>
        <time>2020-07-31T06:30:45.000Z</time>
      </trkpt>
      <trkpt lat="46.23834" lon="5.36">
        <ele>326.60000610352</ele>
        <time>2020-07-31T06:30:46.000Z</time>
      </trkpt>
      <trkpt lat="46.23831" lon="5.36">
        <ele>326.60000610352</ele>
        <time>2020-07-31T06:30:47.000Z</time>
      </trkpt>
      <trkpt lat="46.23824" lon="5.35998">
        <ele>327.20001220703</ele>
        <time>2020-07-31T06:30:49.000Z</time>
      </trkpt>
      <trkpt lat="46.23821" lon="5.35996">
        <ele>327.20001220703</ele>
        <time>2020-07-31T06:30:50.000Z</time>
      </trkpt>
      <trkpt lat="46.23817" lon="5.35994">
        <ele>327.39999389648</ele>
        <time>2020-07-31T06:30:51.000Z</time>
      </trkpt>
      <trkpt lat="46.23814" lon="5.35992">
        <ele>327.79998779297</ele>
        <time>2020-07-31T06:30:52.000Z</time>
      </trkpt>
      <trkpt lat="46.2381" lon="5.3599">
        <ele>328</ele>
        <time>2020-07-31T06:30:53.000Z</time>
      </trkpt>
      <trkpt lat="46.23803" lon="5.35985">
        <ele>328.39999389648</ele>
        <time>2020-07-31T06:30:55.000Z</time>
      </trkpt>
      <trkpt lat="46.23799" lon="5.35983">
        <ele>328.60000610352</ele>
        <time>2020-07-31T06:30:56.000Z</time>
      </trkpt>
      <trkpt lat="46.23795" lon="5.35981">
        <ele>328.79998779297</ele>
        <time>2020-07-31T06:30:57.000Z</time>
      </trkpt>
      <trkpt lat="46.23788" lon="5.35976">
        <ele>329.20001220703</ele>
        <time>2020-07-31T06:30:59.000Z</time>
      </trkpt>
      <trkpt lat="46.2378" lon="5.35972">
        <ele>329.60000610352</ele>
        <time>2020-07-31T06:31:01.000Z</time>
      </trkpt>
      <trkpt lat="46.23776" lon="5.35971">
        <ele>330</ele>
        <time>2020-07-31T06:31:02.000Z</time>
      </trkpt>
      <trkpt lat="46.23772" lon="5.3597">
        <ele>330.20001220703</ele>
        <time>2020-07-31T06:31:03.000Z</time>
      </trkpt>
      <trkpt lat="46.23764" lon="5.3597">
        <ele>330.60000610352</ele>
        <time>2020-07-31T06:31:05.000Z</time>
      </trkpt>
      <trkpt lat="46.23758" lon="5.35973">
        <ele>331.20001220703</ele>
        <time>2020-07-31T06:31:07.000Z</time>
      </trkpt>
      <trkpt lat="46.23751" lon="5.35978">
        <ele>331.60000610352</ele>
        <time>2020-07-31T06:31:09.000Z</time>
      </trkpt>
      <trkpt lat="46.23744" lon="5.35982">
        <ele>332.20001220703</ele>
        <time>2020-07-31T06:31:11.000Z</time>
      </trkpt>
      <trkpt lat="46.23741" lon="5.35983">
        <ele>332.39999389648</ele>
        <time>2020-07-31T06:31:12.000Z</time>
      </trkpt>
      <trkpt lat="46.23737" lon="5.35983">
        <ele>332.60000610352</ele>
        <time>2020-07-31T06:31:13.000Z</time>
      </trkpt>
      <trkpt lat="46.23734" lon="5.35984">
        <ele>333</ele>
        <time>2020-07-31T06:31:14.000Z</time>
      </trkpt>
      <trkpt lat="46.2373" lon="5.35984">
        <ele>333</ele>
        <time>2020-07-31T06:31:15.000Z</time>
      </trkpt>
      <trkpt lat="46.23723" lon="5.35982">
        <ele>333.60000610352</ele>
        <time>2020-07-31T06:31:17.000Z</time>
      </trkpt>
      <trkpt lat="46.23716" lon="5.35978">
        <ele>334</ele>
        <time>2020-07-31T06:31:19.000Z</time>
      </trkpt>
      <trkpt lat="46.23709" lon="5.35974">
        <ele>334.20001220703</ele>
        <time>2020-07-31T06:31:21.000Z</time>
      </trkpt>
      <trkpt lat="46.23701" lon="5.35969">
        <ele>334.60000610352</ele>
        <time>2020-07-31T06:31:23.000Z</time>
      </trkpt>
      <trkpt lat="46.23694" lon="5.35964">
        <ele>335</ele>
        <time>2020-07-31T06:31:25.000Z</time>
      </trkpt>
      <trkpt lat="46.23688" lon="5.35958">
        <ele>335.60000610352</ele>
        <time>2020-07-31T06:31:27.000Z</time>
      </trkpt>
      <trkpt lat="46.23685" lon="5.35956">
        <ele>335.79998779297</ele>
        <time>2020-07-31T06:31:28.000Z</time>
      </trkpt>
      <trkpt lat="46.23682" lon="5.35953">
        <ele>336</ele>
        <time>2020-07-31T06:31:29.000Z</time>
      </trkpt>
      <trkpt lat="46.23679" lon="5.35951">
        <ele>336.39999389648</ele>
        <time>2020-07-31T06:31:30.000Z</time>
      </trkpt>
      <trkpt lat="46.23676" lon="5.35948">
        <ele>336.60000610352</ele>
        <time>2020-07-31T06:31:31.000Z</time>
      </trkpt>
      <trkpt lat="46.23669" lon="5.35942">
        <ele>336.79998779297</ele>
        <time>2020-07-31T06:31:33.000Z</time>
      </trkpt>
      <trkpt lat="46.23663" lon="5.35936">
        <ele>337.39999389648</ele>
        <time>2020-07-31T06:31:35.000Z</time>
      </trkpt>
      <trkpt lat="46.23657" lon="5.3593">
        <ele>338.20001220703</ele>
        <time>2020-07-31T06:31:37.000Z</time>
      </trkpt>
      <trkpt lat="46.23651" lon="5.35924">
        <ele>338.39999389648</ele>
        <time>2020-07-31T06:31:39.000Z</time>
      </trkpt>
      <trkpt lat="46.23644" lon="5.35918">
        <ele>338.79998779297</ele>
        <time>2020-07-31T06:31:41.000Z</time>
      </trkpt>
      <trkpt lat="46.23641" lon="5.35915">
        <ele>339</ele>
        <time>2020-07-31T06:31:42.000Z</time>
      </trkpt>
      <trkpt lat="46.23639" lon="5.35911">
        <ele>339.20001220703</ele>
        <time>2020-07-31T06:31:43.000Z</time>
      </trkpt>
      <trkpt lat="46.23633" lon="5.35904">
        <ele>339.79998779297</ele>
        <time>2020-07-31T06:31:45.000Z</time>
      </trkpt>
      <trkpt lat="46.23627" lon="5.35897">
        <ele>340</ele>
        <time>2020-07-31T06:31:47.000Z</time>
      </trkpt>
      <trkpt lat="46.23621" lon="5.3589">
        <ele>340.39999389648</ele>
        <time>2020-07-31T06:31:49.000Z</time>
      </trkpt>
      <trkpt lat="46.23615" lon="5.35882">
        <ele>341</ele>
        <time>2020-07-31T06:31:51.000Z</time>
      </trkpt>
      <trkpt lat="46.2361" lon="5.35875">
        <ele>341.20001220703</ele>
        <time>2020-07-31T06:31:53.000Z</time>
      </trkpt>
      <trkpt lat="46.23607" lon="5.35871">
        <ele>341.60000610352</ele>
        <time>2020-07-31T06:31:54.000Z</time>
      </trkpt>
      <trkpt lat="46.23604" lon="5.35868">
        <ele>341.79998779297</ele>
        <time>2020-07-31T06:31:55.000Z</time>
      </trkpt>
      <trkpt lat="46.23599" lon="5.35862">
        <ele>342.39999389648</ele>
        <time>2020-07-31T06:31:57.000Z</time>
      </trkpt>
      <trkpt lat="46.23593" lon="5.35855">
        <ele>342.60000610352</ele>
        <time>2020-07-31T06:31:59.000Z</time>
      </trkpt>
      <trkpt lat="46.23588" lon="5.35848">
        <ele>343</ele>
        <time>2020-07-31T06:32:01.000Z</time>
      </trkpt>
      <trkpt lat="46.23585" lon="5.35845">
        <ele>343.39999389648</ele>
        <time>2020-07-31T06:32:02.000Z</time>
      </trkpt>
      <trkpt lat="46.23583" lon="5.35842">
        <ele>343.60000610352</ele>
        <time>2020-07-31T06:32:03.000Z</time>
      </trkpt>
      <trkpt lat="46.23577" lon="5.35837">
        <ele>344.60000610352</ele>
        <time>2020-07-31T06:32:05.000Z</time>
      </trkpt>
      <trkpt lat="46.23574" lon="5.35834">
        <ele>344.79998779297</ele>
        <time>2020-07-31T06:32:06.000Z</time>
      </trkpt>
      <trkpt lat="46.23571" lon="5.35831">
        <ele>345</ele>
        <time>2020-07-31T06:32:07.000Z</time>
      </trkpt>
      <trkpt lat="46.23565" lon="5.35825">
        <ele>345.39999389648</ele>
        <time>2020-07-31T06:32:09.000Z</time>
      </trkpt>
      <trkpt lat="46.2356" lon="5.35819">
        <ele>345.79998779297</ele>
        <time>2020-07-31T06:32:11.000Z</time>
      </trkpt>
      <trkpt lat="46.23554" lon="5.35814">
        <ele>346.39999389648</ele>
        <time>2020-07-31T06:32:13.000Z</time>
      </trkpt>
      <trkpt lat="46.23548" lon="5.35808">
        <ele>346.79998779297</ele>
        <time>2020-07-31T06:32:15.000Z</time>
      </trkpt>
      <trkpt lat="46.23546" lon="5.35806">
        <ele>347.20001220703</ele>
        <time>2020-07-31T06:32:16.000Z</time>
      </trkpt>
      <trkpt lat="46.23543" lon="5.35804">
        <ele>347.39999389648</ele>
        <time>2020-07-31T06:32:17.000Z</time>
      </trkpt>
      <trkpt lat="46.23538" lon="5.358">
        <ele>347.60000610352</ele>
        <time>2020-07-31T06:32:19.000Z</time>
      </trkpt>
      <trkpt lat="46.23532" lon="5.35797">
        <ele>347.79998779297</ele>
        <time>2020-07-31T06:32:21.000Z</time>
      </trkpt>
      <trkpt lat="46.23529" lon="5.35795">
        <ele>348.20001220703</ele>
        <time>2020-07-31T06:32:22.000Z</time>
      </trkpt>
      <trkpt lat="46.23526" lon="5.35793">
        <ele>348.39999389648</ele>
        <time>2020-07-31T06:32:23.000Z</time>
      </trkpt>
      <trkpt lat="46.23519" lon="5.35789">
        <ele>348.79998779297</ele>
        <time>2020-07-31T06:32:25.000Z</time>
      </trkpt>
      <trkpt lat="46.23516" lon="5.35787">
        <ele>349.20001220703</ele>
        <time>2020-07-31T06:32:26.000Z</time>
      </trkpt>
      <trkpt lat="46.23512" lon="5.35785">
        <ele>349.39999389648</ele>
        <time>2020-07-31T06:32:27.000Z</time>
      </trkpt>
      <trkpt lat="46.23505" lon="5.3578">
        <ele>349.60000610352</ele>
        <time>2020-07-31T06:32:29.000Z</time>
      </trkpt>
      <trkpt lat="46.23499" lon="5.35774">
        <ele>350</ele>
        <time>2020-07-31T06:32:31.000Z</time>
      </trkpt>
      <trkpt lat="46.23496" lon="5.35772">
        <ele>350.20001220703</ele>
        <time>2020-07-31T06:32:32.000Z</time>
      </trkpt>
      <trkpt lat="46.23493" lon="5.35769">
        <ele>350.39999389648</ele>
        <time>2020-07-31T06:32:33.000Z</time>
      </trkpt>
      <trkpt lat="46.23486" lon="5.35765">
        <ele>350.79998779297</ele>
        <time>2020-07-31T06:32:35.000Z</time>
      </trkpt>
      <trkpt lat="46.2348" lon="5.35759">
        <ele>351.20001220703</ele>
        <time>2020-07-31T06:32:37.000Z</time>
      </trkpt>
      <trkpt lat="46.23473" lon="5.35755">
        <ele>351.79998779297</ele>
        <time>2020-07-31T06:32:39.000Z</time>
      </trkpt>
      <trkpt lat="46.23467" lon="5.35751">
        <ele>352.39999389648</ele>
        <time>2020-07-31T06:32:41.000Z</time>
      </trkpt>
      <trkpt lat="46.2346" lon="5.35746">
        <ele>352.79998779297</ele>
        <time>2020-07-31T06:32:43.000Z</time>
      </trkpt>
      <trkpt lat="46.23453" lon="5.35741">
        <ele>353</ele>
        <time>2020-07-31T06:32:45.000Z</time>
      </trkpt>
      <trkpt lat="46.23446" lon="5.35737">
        <ele>353.39999389648</ele>
        <time>2020-07-31T06:32:47.000Z</time>
      </trkpt>
      <trkpt lat="46.2344" lon="5.35734">
        <ele>353.79998779297</ele>
        <time>2020-07-31T06:32:49.000Z</time>
      </trkpt>
      <trkpt lat="46.23437" lon="5.35732">
        <ele>354</ele>
        <time>2020-07-31T06:32:50.000Z</time>
      </trkpt>
      <trkpt lat="46.23434" lon="5.3573">
        <ele>354.20001220703</ele>
        <time>2020-07-31T06:32:51.000Z</time>
      </trkpt>
      <trkpt lat="46.2343" lon="5.35729">
        <ele>354.60000610352</ele>
        <time>2020-07-31T06:32:52.000Z</time>
      </trkpt>
      <trkpt lat="46.23427" lon="5.35727">
        <ele>354.79998779297</ele>
        <time>2020-07-31T06:32:53.000Z</time>
      </trkpt>
      <trkpt lat="46.23421" lon="5.35725">
        <ele>355.39999389648</ele>
        <time>2020-07-31T06:32:55.000Z</time>
      </trkpt>
      <trkpt lat="46.23418" lon="5.35723">
        <ele>355.60000610352</ele>
        <time>2020-07-31T06:32:56.000Z</time>
      </trkpt>
      <trkpt lat="46.23414" lon="5.35722">
        <ele>355.79998779297</ele>
        <time>2020-07-31T06:32:57.000Z</time>
      </trkpt>
      <trkpt lat="46.23409" lon="5.35722">
        <ele>356.60000610352</ele>
        <time>2020-07-31T06:32:59.000Z</time>
      </trkpt>
      <trkpt lat="46.23406" lon="5.35722">
        <ele>356.79998779297</ele>
        <time>2020-07-31T06:33:00.000Z</time>
      </trkpt>
      <trkpt lat="46.23404" lon="5.35721">
        <ele>356.79998779297</ele>
        <time>2020-07-31T06:33:01.000Z</time>
      </trkpt>
      <trkpt lat="46.23396" lon="5.35718">
        <ele>357.79998779297</ele>
        <time>2020-07-31T06:33:03.000Z</time>
      </trkpt>
      <trkpt lat="46.23389" lon="5.35715">
        <ele>358.20001220703</ele>
        <time>2020-07-31T06:33:05.000Z</time>
      </trkpt>
      <trkpt lat="46.23385" lon="5.35713">
        <ele>358.39999389648</ele>
        <time>2020-07-31T06:33:06.000Z</time>
      </trkpt>
      <trkpt lat="46.23381" lon="5.35711">
        <ele>358.60000610352</ele>
        <time>2020-07-31T06:33:07.000Z</time>
      </trkpt>
      <trkpt lat="46.23374" lon="5.35709">
        <ele>359</ele>
        <time>2020-07-31T06:33:09.000Z</time>
      </trkpt>
      <trkpt lat="46.23367" lon="5.35706">
        <ele>359.39999389648</ele>
        <time>2020-07-31T06:33:11.000Z</time>
      </trkpt>
      <trkpt lat="46.2336" lon="5.35704">
        <ele>359.79998779297</ele>
        <time>2020-07-31T06:33:13.000Z</time>
      </trkpt>
      <trkpt lat="46.23356" lon="5.35703">
        <ele>360</ele>
        <time>2020-07-31T06:33:14.000Z</time>
      </trkpt>
      <trkpt lat="46.23353" lon="5.35702">
        <ele>360.20001220703</ele>
        <time>2020-07-31T06:33:15.000Z</time>
      </trkpt>
      <trkpt lat="46.23347" lon="5.35701">
        <ele>360.79998779297</ele>
        <time>2020-07-31T06:33:17.000Z</time>
      </trkpt>
      <trkpt lat="46.23343" lon="5.35701">
        <ele>361</ele>
        <time>2020-07-31T06:33:18.000Z</time>
      </trkpt>
      <trkpt lat="46.23339" lon="5.357">
        <ele>361.20001220703</ele>
        <time>2020-07-31T06:33:19.000Z</time>
      </trkpt>
      <trkpt lat="46.23332" lon="5.35699">
        <ele>361.60000610352</ele>
        <time>2020-07-31T06:33:21.000Z</time>
      </trkpt>
      <trkpt lat="46.23324" lon="5.35698">
        <ele>362</ele>
        <time>2020-07-31T06:33:23.000Z</time>
      </trkpt>
      <trkpt lat="46.23317" lon="5.35696">
        <ele>362.60000610352</ele>
        <time>2020-07-31T06:33:25.000Z</time>
      </trkpt>
      <trkpt lat="46.23314" lon="5.35695">
        <ele>362.60000610352</ele>
        <time>2020-07-31T06:33:26.000Z</time>
      </trkpt>
      <trkpt lat="46.2331" lon="5.35694">
        <ele>362.79998779297</ele>
        <time>2020-07-31T06:33:27.000Z</time>
      </trkpt>
      <trkpt lat="46.23304" lon="5.35693">
        <ele>363</ele>
        <time>2020-07-31T06:33:29.000Z</time>
      </trkpt>
      <trkpt lat="46.23301" lon="5.35693">
        <ele>363.39999389648</ele>
        <time>2020-07-31T06:33:30.000Z</time>
      </trkpt>
      <trkpt lat="46.23298" lon="5.35693">
        <ele>363.60000610352</ele>
        <time>2020-07-31T06:33:31.000Z</time>
      </trkpt>
      <trkpt lat="46.23295" lon="5.35694">
        <ele>363.79998779297</ele>
        <time>2020-07-31T06:33:32.000Z</time>
      </trkpt>
      <trkpt lat="46.23291" lon="5.35696">
        <ele>364</ele>
        <time>2020-07-31T06:33:33.000Z</time>
      </trkpt>
      <trkpt lat="46.23285" lon="5.35702">
        <ele>364.20001220703</ele>
        <time>2020-07-31T06:33:35.000Z</time>
      </trkpt>
      <trkpt lat="46.23282" lon="5.35706">
        <ele>364.39999389648</ele>
        <time>2020-07-31T06:33:36.000Z</time>
      </trkpt>
      <trkpt lat="46.23279" lon="5.35709">
        <ele>364.79998779297</ele>
        <time>2020-07-31T06:33:37.000Z</time>
      </trkpt>
      <trkpt lat="46.23273" lon="5.35717">
        <ele>365.39999389648</ele>
        <time>2020-07-31T06:33:39.000Z</time>
      </trkpt>
      <trkpt lat="46.2327" lon="5.35721">
        <ele>365.79998779297</ele>
        <time>2020-07-31T06:33:40.000Z</time>
      </trkpt>
      <trkpt lat="46.23267" lon="5.35725">
        <ele>366</ele>
        <time>2020-07-31T06:33:41.000Z</time>
      </trkpt>
      <trkpt lat="46.23264" lon="5.35727">
        <ele>366.39999389648</ele>
        <time>2020-07-31T06:33:42.000Z</time>
      </trkpt>
      <trkpt lat="46.23261" lon="5.35728">
        <ele>366.60000610352</ele>
        <time>2020-07-31T06:33:43.000Z</time>
      </trkpt>
      <trkpt lat="46.23258" lon="5.35729">
        <ele>366.79998779297</ele>
        <time>2020-07-31T06:33:44.000Z</time>
      </trkpt>
      <trkpt lat="46.23254" lon="5.3573">
        <ele>367</ele>
        <time>2020-07-31T06:33:45.000Z</time>
      </trkpt>
      <trkpt lat="46.23248" lon="5.3573">
        <ele>367.20001220703</ele>
        <time>2020-07-31T06:33:47.000Z</time>
      </trkpt>
      <trkpt lat="46.23245" lon="5.35731">
        <ele>367.20001220703</ele>
        <time>2020-07-31T06:33:48.000Z</time>
      </trkpt>
      <trkpt lat="46.23242" lon="5.35732">
        <ele>367.39999389648</ele>
        <time>2020-07-31T06:33:49.000Z</time>
      </trkpt>
      <trkpt lat="46.23236" lon="5.35734">
        <ele>367.79998779297</ele>
        <time>2020-07-31T06:33:51.000Z</time>
      </trkpt>
      <trkpt lat="46.23229" lon="5.35736">
        <ele>368.60000610352</ele>
        <time>2020-07-31T06:33:53.000Z</time>
      </trkpt>
      <trkpt lat="46.23226" lon="5.35737">
        <ele>369</ele>
        <time>2020-07-31T06:33:54.000Z</time>
      </trkpt>
      <trkpt lat="46.23223" lon="5.35737">
        <ele>369.39999389648</ele>
        <time>2020-07-31T06:33:55.000Z</time>
      </trkpt>
      <trkpt lat="46.23217" lon="5.35739">
        <ele>370</ele>
        <time>2020-07-31T06:33:57.000Z</time>
      </trkpt>
      <trkpt lat="46.23215" lon="5.35738">
        <ele>370.39999389648</ele>
        <time>2020-07-31T06:33:58.000Z</time>
      </trkpt>
      <trkpt lat="46.23212" lon="5.35738">
        <ele>370.79998779297</ele>
        <time>2020-07-31T06:33:59.000Z</time>
      </trkpt>
      <trkpt lat="46.23205" lon="5.35742">
        <ele>371.39999389648</ele>
        <time>2020-07-31T06:34:01.000Z</time>
      </trkpt>
      <trkpt lat="46.23198" lon="5.35746">
        <ele>372</ele>
        <time>2020-07-31T06:34:03.000Z</time>
      </trkpt>
      <trkpt lat="46.23191" lon="5.35751">
        <ele>372.39999389648</ele>
        <time>2020-07-31T06:34:05.000Z</time>
      </trkpt>
      <trkpt lat="46.23187" lon="5.35754">
        <ele>372.60000610352</ele>
        <time>2020-07-31T06:34:06.000Z</time>
      </trkpt>
      <trkpt lat="46.23184" lon="5.35758">
        <ele>372.79998779297</ele>
        <time>2020-07-31T06:34:07.000Z</time>
      </trkpt>
      <trkpt lat="46.23181" lon="5.35762">
        <ele>373.20001220703</ele>
        <time>2020-07-31T06:34:08.000Z</time>
      </trkpt>
      <trkpt lat="46.23178" lon="5.35765">
        <ele>373.39999389648</ele>
        <time>2020-07-31T06:34:09.000Z</time>
      </trkpt>
      <trkpt lat="46.23172" lon="5.35769">
        <ele>373.60000610352</ele>
        <time>2020-07-31T06:34:11.000Z</time>
      </trkpt>
      <trkpt lat="46.23169" lon="5.3577">
        <ele>373.79998779297</ele>
        <time>2020-07-31T06:34:12.000Z</time>
      </trkpt>
      <trkpt lat="46.23166" lon="5.3577">
        <ele>374</ele>
        <time>2020-07-31T06:34:13.000Z</time>
      </trkpt>
      <trkpt lat="46.2316" lon="5.35771">
        <ele>374.20001220703</ele>
        <time>2020-07-31T06:34:15.000Z</time>
      </trkpt>
      <trkpt lat="46.23153" lon="5.35771">
        <ele>374.39999389648</ele>
        <time>2020-07-31T06:34:17.000Z</time>
      </trkpt>
      <trkpt lat="46.23149" lon="5.35772">
        <ele>374.39999389648</ele>
        <time>2020-07-31T06:34:18.000Z</time>
      </trkpt>
      <trkpt lat="46.23144" lon="5.35775">
        <ele>374.60000610352</ele>
        <time>2020-07-31T06:34:19.000Z</time>
      </trkpt>
      <trkpt lat="46.23137" lon="5.35786">
        <ele>374.60000610352</ele>
        <time>2020-07-31T06:34:21.000Z</time>
      </trkpt>
      <trkpt lat="46.23132" lon="5.35801">
        <ele>374.60000610352</ele>
        <time>2020-07-31T06:34:23.000Z</time>
      </trkpt>
      <trkpt lat="46.23127" lon="5.35818">
        <ele>374.60000610352</ele>
        <time>2020-07-31T06:34:25.000Z</time>
      </trkpt>
      <trkpt lat="46.23125" lon="5.35827">
        <ele>374.60000610352</ele>
        <time>2020-07-31T06:34:26.000Z</time>
      </trkpt>
      <trkpt lat="46.23122" lon="5.35836">
        <ele>374.60000610352</ele>
        <time>2020-07-31T06:34:27.000Z</time>
      </trkpt>
      <trkpt lat="46.23115" lon="5.35855">
        <ele>374.20001220703</ele>
        <time>2020-07-31T06:34:29.000Z</time>
      </trkpt>
      <trkpt lat="46.23109" lon="5.35875">
        <ele>373.20001220703</ele>
        <time>2020-07-31T06:34:31.000Z</time>
      </trkpt>
      <trkpt lat="46.23105" lon="5.35886">
        <ele>372.79998779297</ele>
        <time>2020-07-31T06:34:32.000Z</time>
      </trkpt>
      <trkpt lat="46.23101" lon="5.35897">
        <ele>372.39999389648</ele>
        <time>2020-07-31T06:34:33.000Z</time>
      </trkpt>
      <trkpt lat="46.23094" lon="5.35919">
        <ele>371.79998779297</ele>
        <time>2020-07-31T06:34:35.000Z</time>
      </trkpt>
      <trkpt lat="46.2309" lon="5.35931">
        <ele>371.20001220703</ele>
        <time>2020-07-31T06:34:36.000Z</time>
      </trkpt>
      <trkpt lat="46.23087" lon="5.35943">
        <ele>370.39999389648</ele>
        <time>2020-07-31T06:34:37.000Z</time>
      </trkpt>
      <trkpt lat="46.23083" lon="5.35955">
        <ele>369.79998779297</ele>
        <time>2020-07-31T06:34:38.000Z</time>
      </trkpt>
      <trkpt lat="46.23079" lon="5.35967">
        <ele>369.39999389648</ele>
        <time>2020-07-31T06:34:39.000Z</time>
      </trkpt>
      <trkpt lat="46.23072" lon="5.3599">
        <ele>368.39999389648</ele>
        <time>2020-07-31T06:34:41.000Z</time>
      </trkpt>
      <trkpt lat="46.23064" lon="5.36014">
        <ele>367.39999389648</ele>
        <time>2020-07-31T06:34:43.000Z</time>
      </trkpt>
      <trkpt lat="46.2306" lon="5.36026">
        <ele>367</ele>
        <time>2020-07-31T06:34:44.000Z</time>
      </trkpt>
      <trkpt lat="46.23057" lon="5.36038">
        <ele>366.60000610352</ele>
        <time>2020-07-31T06:34:45.000Z</time>
      </trkpt>
      <trkpt lat="46.23049" lon="5.36061">
        <ele>365.60000610352</ele>
        <time>2020-07-31T06:34:47.000Z</time>
      </trkpt>
      <trkpt lat="46.23045" lon="5.36073">
        <ele>365</ele>
        <time>2020-07-31T06:34:48.000Z</time>
      </trkpt>
      <trkpt lat="46.23041" lon="5.36086">
        <ele>364.60000610352</ele>
        <time>2020-07-31T06:34:49.000Z</time>
      </trkpt>
      <trkpt lat="46.23037" lon="5.36098">
        <ele>363.79998779297</ele>
        <time>2020-07-31T06:34:50.000Z</time>
      </trkpt>
      <trkpt lat="46.23033" lon="5.3611">
        <ele>363.20001220703</ele>
        <time>2020-07-31T06:34:51.000Z</time>
      </trkpt>
      <trkpt lat="46.23025" lon="5.36136">
        <ele>362.60000610352</ele>
        <time>2020-07-31T06:34:53.000Z</time>
      </trkpt>
      <trkpt lat="46.23017" lon="5.36163">
        <ele>362.20001220703</ele>
        <time>2020-07-31T06:34:55.000Z</time>
      </trkpt>
      <trkpt lat="46.23012" lon="5.36176">
        <ele>362</ele>
        <time>2020-07-31T06:34:56.000Z</time>
      </trkpt>
      <trkpt lat="46.23008" lon="5.3619">
        <ele>361.60000610352</ele>
        <time>2020-07-31T06:34:57.000Z</time>
      </trkpt>
      <trkpt lat="46.22999" lon="5.36218">
        <ele>359.79998779297</ele>
        <time>2020-07-31T06:34:59.000Z</time>
      </trkpt>
      <trkpt lat="46.2299" lon="5.36245">
        <ele>358.60000610352</ele>
        <time>2020-07-31T06:35:01.000Z</time>
      </trkpt>
      <trkpt lat="46.22981" lon="5.36273">
        <ele>357.20001220703</ele>
        <time>2020-07-31T06:35:03.000Z</time>
      </trkpt>
      <trkpt lat="46.22972" lon="5.36301">
        <ele>356.20001220703</ele>
        <time>2020-07-31T06:35:05.000Z</time>
      </trkpt>
      <trkpt lat="46.22963" lon="5.36329">
        <ele>354.79998779297</ele>
        <time>2020-07-31T06:35:07.000Z</time>
      </trkpt>
      <trkpt lat="46.22954" lon="5.36357">
        <ele>353.39999389648</ele>
        <time>2020-07-31T06:35:09.000Z</time>
      </trkpt>
      <trkpt lat="46.22945" lon="5.36384">
        <ele>352.20001220703</ele>
        <time>2020-07-31T06:35:11.000Z</time>
      </trkpt>
      <trkpt lat="46.22936" lon="5.36412">
        <ele>351.60000610352</ele>
        <time>2020-07-31T06:35:13.000Z</time>
      </trkpt>
      <trkpt lat="46.22932" lon="5.36426">
        <ele>351</ele>
        <time>2020-07-31T06:35:14.000Z</time>
      </trkpt>
      <trkpt lat="46.22927" lon="5.36439">
        <ele>350.60000610352</ele>
        <time>2020-07-31T06:35:15.000Z</time>
      </trkpt>
      <trkpt lat="46.22923" lon="5.36453">
        <ele>349.79998779297</ele>
        <time>2020-07-31T06:35:16.000Z</time>
      </trkpt>
      <trkpt lat="46.22919" lon="5.36466">
        <ele>349.20001220703</ele>
        <time>2020-07-31T06:35:17.000Z</time>
      </trkpt>
      <trkpt lat="46.22915" lon="5.36479">
        <ele>348.60000610352</ele>
        <time>2020-07-31T06:35:18.000Z</time>
      </trkpt>
      <trkpt lat="46.2291" lon="5.36492">
        <ele>347.79998779297</ele>
        <time>2020-07-31T06:35:19.000Z</time>
      </trkpt>
      <trkpt lat="46.22906" lon="5.36505">
        <ele>347.39999389648</ele>
        <time>2020-07-31T06:35:20.000Z</time>
      </trkpt>
      <trkpt lat="46.22902" lon="5.36518">
        <ele>347.20001220703</ele>
        <time>2020-07-31T06:35:21.000Z</time>
      </trkpt>
      <trkpt lat="46.22898" lon="5.36531">
        <ele>347</ele>
        <time>2020-07-31T06:35:22.000Z</time>
      </trkpt>
      <trkpt lat="46.22893" lon="5.36544">
        <ele>346.79998779297</ele>
        <time>2020-07-31T06:35:23.000Z</time>
      </trkpt>
      <trkpt lat="46.22885" lon="5.3657">
        <ele>346.39999389648</ele>
        <time>2020-07-31T06:35:25.000Z</time>
      </trkpt>
      <trkpt lat="46.22877" lon="5.36597">
        <ele>345.39999389648</ele>
        <time>2020-07-31T06:35:27.000Z</time>
      </trkpt>
      <trkpt lat="46.22872" lon="5.3661">
        <ele>345.20001220703</ele>
        <time>2020-07-31T06:35:28.000Z</time>
      </trkpt>
      <trkpt lat="46.22868" lon="5.36623">
        <ele>345</ele>
        <time>2020-07-31T06:35:29.000Z</time>
      </trkpt>
      <trkpt lat="46.22864" lon="5.36636">
        <ele>345</ele>
        <time>2020-07-31T06:35:30.000Z</time>
      </trkpt>
      <trkpt lat="46.2286" lon="5.36649">
        <ele>344.60000610352</ele>
        <time>2020-07-31T06:35:31.000Z</time>
      </trkpt>
      <trkpt lat="46.22851" lon="5.36676">
        <ele>343.79998779297</ele>
        <time>2020-07-31T06:35:33.000Z</time>
      </trkpt>
      <trkpt lat="46.22842" lon="5.36702">
        <ele>342.79998779297</ele>
        <time>2020-07-31T06:35:35.000Z</time>
      </trkpt>
      <trkpt lat="46.22838" lon="5.36715">
        <ele>342.39999389648</ele>
        <time>2020-07-31T06:35:36.000Z</time>
      </trkpt>
      <trkpt lat="46.22833" lon="5.36728">
        <ele>342.20001220703</ele>
        <time>2020-07-31T06:35:37.000Z</time>
      </trkpt>
      <trkpt lat="46.22829" lon="5.36741">
        <ele>342</ele>
        <time>2020-07-31T06:35:38.000Z</time>
      </trkpt>
      <trkpt lat="46.22825" lon="5.36754">
        <ele>341.79998779297</ele>
        <time>2020-07-31T06:35:39.000Z</time>
      </trkpt>
      <trkpt lat="46.22817" lon="5.36779">
        <ele>341.39999389648</ele>
        <time>2020-07-31T06:35:41.000Z</time>
      </trkpt>
      <trkpt lat="46.22809" lon="5.36804">
        <ele>341</ele>
        <time>2020-07-31T06:35:43.000Z</time>
      </trkpt>
      <trkpt lat="46.22801" lon="5.36828">
        <ele>340.39999389648</ele>
        <time>2020-07-31T06:35:45.000Z</time>
      </trkpt>
      <trkpt lat="46.22797" lon="5.3684">
        <ele>340.20001220703</ele>
        <time>2020-07-31T06:35:46.000Z</time>
      </trkpt>
      <trkpt lat="46.22794" lon="5.36852">
        <ele>340</ele>
        <time>2020-07-31T06:35:47.000Z</time>
      </trkpt>
      <trkpt lat="46.22786" lon="5.36876">
        <ele>339.60000610352</ele>
        <time>2020-07-31T06:35:49.000Z</time>
      </trkpt>
      <trkpt lat="46.22777" lon="5.369">
        <ele>339.60000610352</ele>
        <time>2020-07-31T06:35:51.000Z</time>
      </trkpt>
      <trkpt lat="46.22768" lon="5.36925">
        <ele>339.39999389648</ele>
        <time>2020-07-31T06:35:53.000Z</time>
      </trkpt>
      <trkpt lat="46.2276" lon="5.36951">
        <ele>339.39999389648</ele>
        <time>2020-07-31T06:35:55.000Z</time>
      </trkpt>
      <trkpt lat="46.22751" lon="5.36978">
        <ele>338.79998779297</ele>
        <time>2020-07-31T06:35:57.000Z</time>
      </trkpt>
      <trkpt lat="46.22743" lon="5.37005">
        <ele>337.39999389648</ele>
        <time>2020-07-31T06:35:59.000Z</time>
      </trkpt>
      <trkpt lat="46.22734" lon="5.37033">
        <ele>336.79998779297</ele>
        <time>2020-07-31T06:36:01.000Z</time>
      </trkpt>
      <trkpt lat="46.22725" lon="5.37061">
        <ele>336.20001220703</ele>
        <time>2020-07-31T06:36:03.000Z</time>
      </trkpt>
      <trkpt lat="46.22716" lon="5.37091">
        <ele>334.79998779297</ele>
        <time>2020-07-31T06:36:05.000Z</time>
      </trkpt>
      <trkpt lat="46.22708" lon="5.3712">
        <ele>333.79998779297</ele>
        <time>2020-07-31T06:36:07.000Z</time>
      </trkpt>
      <trkpt lat="46.22699" lon="5.37148">
        <ele>332.79998779297</ele>
        <time>2020-07-31T06:36:09.000Z</time>
      </trkpt>
      <trkpt lat="46.22695" lon="5.37162">
        <ele>332.20001220703</ele>
        <time>2020-07-31T06:36:10.000Z</time>
      </trkpt>
      <trkpt lat="46.22691" lon="5.37175">
        <ele>331.60000610352</ele>
        <time>2020-07-31T06:36:11.000Z</time>
      </trkpt>
      <trkpt lat="46.22686" lon="5.37189">
        <ele>330.79998779297</ele>
        <time>2020-07-31T06:36:12.000Z</time>
      </trkpt>
      <trkpt lat="46.22682" lon="5.37201">
        <ele>330</ele>
        <time>2020-07-31T06:36:13.000Z</time>
      </trkpt>
      <trkpt lat="46.22678" lon="5.37214">
        <ele>329.60000610352</ele>
        <time>2020-07-31T06:36:14.000Z</time>
      </trkpt>
      <trkpt lat="46.22674" lon="5.37226">
        <ele>329.39999389648</ele>
        <time>2020-07-31T06:36:15.000Z</time>
      </trkpt>
      <trkpt lat="46.22666" lon="5.37249">
        <ele>329.20001220703</ele>
        <time>2020-07-31T06:36:17.000Z</time>
      </trkpt>
      <trkpt lat="46.22658" lon="5.37273">
        <ele>329.20001220703</ele>
        <time>2020-07-31T06:36:19.000Z</time>
      </trkpt>
      <trkpt lat="46.2265" lon="5.37296">
        <ele>329.20001220703</ele>
        <time>2020-07-31T06:36:21.000Z</time>
      </trkpt>
      <trkpt lat="46.22642" lon="5.3732">
        <ele>329.20001220703</ele>
        <time>2020-07-31T06:36:23.000Z</time>
      </trkpt>
      <trkpt lat="46.22635" lon="5.37343">
        <ele>329</ele>
        <time>2020-07-31T06:36:25.000Z</time>
      </trkpt>
      <trkpt lat="46.22628" lon="5.37365">
        <ele>329</ele>
        <time>2020-07-31T06:36:27.000Z</time>
      </trkpt>
      <trkpt lat="46.22621" lon="5.37387">
        <ele>329.20001220703</ele>
        <time>2020-07-31T06:36:29.000Z</time>
      </trkpt>
      <trkpt lat="46.22614" lon="5.37409">
        <ele>329.20001220703</ele>
        <time>2020-07-31T06:36:31.000Z</time>
      </trkpt>
      <trkpt lat="46.22607" lon="5.3743">
        <ele>329.39999389648</ele>
        <time>2020-07-31T06:36:33.000Z</time>
      </trkpt>
      <trkpt lat="46.22601" lon="5.37451">
        <ele>329.39999389648</ele>
        <time>2020-07-31T06:36:35.000Z</time>
      </trkpt>
      <trkpt lat="46.22598" lon="5.37461">
        <ele>329.39999389648</ele>
        <time>2020-07-31T06:36:36.000Z</time>
      </trkpt>
      <trkpt lat="46.22595" lon="5.37472">
        <ele>329.39999389648</ele>
        <time>2020-07-31T06:36:37.000Z</time>
      </trkpt>
      <trkpt lat="46.22589" lon="5.37493">
        <ele>329.39999389648</ele>
        <time>2020-07-31T06:36:39.000Z</time>
      </trkpt>
      <trkpt lat="46.22584" lon="5.37514">
        <ele>329.39999389648</ele>
        <time>2020-07-31T06:36:41.000Z</time>
      </trkpt>
      <trkpt lat="46.22578" lon="5.37537">
        <ele>329.39999389648</ele>
        <time>2020-07-31T06:36:43.000Z</time>
      </trkpt>
      <trkpt lat="46.22573" lon="5.37559">
        <ele>329.39999389648</ele>
        <time>2020-07-31T06:36:45.000Z</time>
      </trkpt>
      <trkpt lat="46.2257" lon="5.3757">
        <ele>329.39999389648</ele>
        <time>2020-07-31T06:36:46.000Z</time>
      </trkpt>
      <trkpt lat="46.22568" lon="5.37581">
        <ele>329.39999389648</ele>
        <time>2020-07-31T06:36:47.000Z</time>
      </trkpt>
      <trkpt lat="46.22563" lon="5.37603">
        <ele>329.20001220703</ele>
        <time>2020-07-31T06:36:49.000Z</time>
      </trkpt>
      <trkpt lat="46.22559" lon="5.37625">
        <ele>329.20001220703</ele>
        <time>2020-07-31T06:36:51.000Z</time>
      </trkpt>
      <trkpt lat="46.22555" lon="5.37647">
        <ele>328.79998779297</ele>
        <time>2020-07-31T06:36:53.000Z</time>
      </trkpt>
      <trkpt lat="46.22552" lon="5.37668">
        <ele>328.79998779297</ele>
        <time>2020-07-31T06:36:55.000Z</time>
      </trkpt>
      <trkpt lat="46.22549" lon="5.3769">
        <ele>328.79998779297</ele>
        <time>2020-07-31T06:36:57.000Z</time>
      </trkpt>
      <trkpt lat="46.22546" lon="5.37711">
        <ele>328.79998779297</ele>
        <time>2020-07-31T06:36:59.000Z</time>
      </trkpt>
      <trkpt lat="46.22544" lon="5.37731">
        <ele>328.79998779297</ele>
        <time>2020-07-31T06:37:01.000Z</time>
      </trkpt>
      <trkpt lat="46.22542" lon="5.37742">
        <ele>328.79998779297</ele>
        <time>2020-07-31T06:37:02.000Z</time>
      </trkpt>
      <trkpt lat="46.2254" lon="5.37752">
        <ele>328.79998779297</ele>
        <time>2020-07-31T06:37:03.000Z</time>
      </trkpt>
      <trkpt lat="46.22537" lon="5.37771">
        <ele>328.79998779297</ele>
        <time>2020-07-31T06:37:05.000Z</time>
      </trkpt>
      <trkpt lat="46.22532" lon="5.37791">
        <ele>329</ele>
        <time>2020-07-31T06:37:07.000Z</time>
      </trkpt>
      <trkpt lat="46.22528" lon="5.37809">
        <ele>329</ele>
        <time>2020-07-31T06:37:09.000Z</time>
      </trkpt>
      <trkpt lat="46.22526" lon="5.37819">
        <ele>329</ele>
        <time>2020-07-31T06:37:10.000Z</time>
      </trkpt>
      <trkpt lat="46.22524" lon="5.37828">
        <ele>329</ele>
        <time>2020-07-31T06:37:11.000Z</time>
      </trkpt>
      <trkpt lat="46.2252" lon="5.37846">
        <ele>329.20001220703</ele>
        <time>2020-07-31T06:37:13.000Z</time>
      </trkpt>
      <trkpt lat="46.22516" lon="5.37865">
        <ele>329.39999389648</ele>
        <time>2020-07-31T06:37:15.000Z</time>
      </trkpt>
      <trkpt lat="46.22513" lon="5.37883">
        <ele>329.39999389648</ele>
        <time>2020-07-31T06:37:17.000Z</time>
      </trkpt>
      <trkpt lat="46.2251" lon="5.379">
        <ele>329.79998779297</ele>
        <time>2020-07-31T06:37:19.000Z</time>
      </trkpt>
      <trkpt lat="46.22509" lon="5.37909">
        <ele>330</ele>
        <time>2020-07-31T06:37:20.000Z</time>
      </trkpt>
      <trkpt lat="46.22508" lon="5.37918">
        <ele>330.20001220703</ele>
        <time>2020-07-31T06:37:21.000Z</time>
      </trkpt>
      <trkpt lat="46.22508" lon="5.37926">
        <ele>330.20001220703</ele>
        <time>2020-07-31T06:37:22.000Z</time>
      </trkpt>
      <trkpt lat="46.22508" lon="5.37933">
        <ele>330.20001220703</ele>
        <time>2020-07-31T06:37:23.000Z</time>
      </trkpt>
      <trkpt lat="46.22509" lon="5.3794">
        <ele>330.39999389648</ele>
        <time>2020-07-31T06:37:24.000Z</time>
      </trkpt>
      <trkpt lat="46.22511" lon="5.37947">
        <ele>330.60000610352</ele>
        <time>2020-07-31T06:37:25.000Z</time>
      </trkpt>
      <trkpt lat="46.22515" lon="5.3796">
        <ele>331</ele>
        <time>2020-07-31T06:37:27.000Z</time>
      </trkpt>
      <trkpt lat="46.22518" lon="5.37965">
        <ele>331.20001220703</ele>
        <time>2020-07-31T06:37:28.000Z</time>
      </trkpt>
      <trkpt lat="46.22521" lon="5.3797">
        <ele>331.60000610352</ele>
        <time>2020-07-31T06:37:29.000Z</time>
      </trkpt>
      <trkpt lat="46.22524" lon="5.37975">
        <ele>331.79998779297</ele>
        <time>2020-07-31T06:37:30.000Z</time>
      </trkpt>
      <trkpt lat="46.22528" lon="5.37979">
        <ele>332.39999389648</ele>
        <time>2020-07-31T06:37:31.000Z</time>
      </trkpt>
      <trkpt lat="46.22535" lon="5.37989">
        <ele>333.20001220703</ele>
        <time>2020-07-31T06:37:33.000Z</time>
      </trkpt>
      <trkpt lat="46.22541" lon="5.37997">
        <ele>333.79998779297</ele>
        <time>2020-07-31T06:37:35.000Z</time>
      </trkpt>
      <trkpt lat="46.22545" lon="5.38001">
        <ele>334</ele>
        <time>2020-07-31T06:37:36.000Z</time>
      </trkpt>
      <trkpt lat="46.22548" lon="5.38005">
        <ele>334.39999389648</ele>
        <time>2020-07-31T06:37:37.000Z</time>
      </trkpt>
      <trkpt lat="46.22555" lon="5.38013">
        <ele>334.79998779297</ele>
        <time>2020-07-31T06:37:39.000Z</time>
      </trkpt>
      <trkpt lat="46.22562" lon="5.38021">
        <ele>335.20001220703</ele>
        <time>2020-07-31T06:37:41.000Z</time>
      </trkpt>
      <trkpt lat="46.22565" lon="5.38024">
        <ele>335.60000610352</ele>
        <time>2020-07-31T06:37:42.000Z</time>
      </trkpt>
      <trkpt lat="46.22569" lon="5.38028">
        <ele>335.79998779297</ele>
        <time>2020-07-31T06:37:43.000Z</time>
      </trkpt>
      <trkpt lat="46.22575" lon="5.38034">
        <ele>336.20001220703</ele>
        <time>2020-07-31T06:37:45.000Z</time>
      </trkpt>
      <trkpt lat="46.22582" lon="5.38041">
        <ele>336.79998779297</ele>
        <time>2020-07-31T06:37:47.000Z</time>
      </trkpt>
      <trkpt lat="46.22588" lon="5.38048">
        <ele>337.60000610352</ele>
        <time>2020-07-31T06:37:49.000Z</time>
      </trkpt>
      <trkpt lat="46.22595" lon="5.38054">
        <ele>337.79998779297</ele>
        <time>2020-07-31T06:37:51.000Z</time>
      </trkpt>
      <trkpt lat="46.22598" lon="5.38056">
        <ele>337.79998779297</ele>
        <time>2020-07-31T06:37:52.000Z</time>
      </trkpt>
      <trkpt lat="46.22601" lon="5.38059">
        <ele>338.39999389648</ele>
        <time>2020-07-31T06:37:53.000Z</time>
      </trkpt>
      <trkpt lat="46.22608" lon="5.38064">
        <ele>338.79998779297</ele>
        <time>2020-07-31T06:37:55.000Z</time>
      </trkpt>
      <trkpt lat="46.22611" lon="5.38067">
        <ele>339</ele>
        <time>2020-07-31T06:37:56.000Z</time>
      </trkpt>
      <trkpt lat="46.22614" lon="5.38069">
        <ele>339.39999389648</ele>
        <time>2020-07-31T06:37:57.000Z</time>
      </trkpt>
      <trkpt lat="46.22621" lon="5.38072">
        <ele>340</ele>
        <time>2020-07-31T06:37:59.000Z</time>
      </trkpt>
      <trkpt lat="46.22625" lon="5.38074">
        <ele>340.20001220703</ele>
        <time>2020-07-31T06:38:00.000Z</time>
      </trkpt>
      <trkpt lat="46.22628" lon="5.38075">
        <ele>340.39999389648</ele>
        <time>2020-07-31T06:38:01.000Z</time>
      </trkpt>
      <trkpt lat="46.22636" lon="5.38077">
        <ele>340.79998779297</ele>
        <time>2020-07-31T06:38:03.000Z</time>
      </trkpt>
      <trkpt lat="46.22643" lon="5.38079">
        <ele>341.20001220703</ele>
        <time>2020-07-31T06:38:05.000Z</time>
      </trkpt>
      <trkpt lat="46.2265" lon="5.3808">
        <ele>341.79998779297</ele>
        <time>2020-07-31T06:38:07.000Z</time>
      </trkpt>
      <trkpt lat="46.22657" lon="5.3808">
        <ele>342.20001220703</ele>
        <time>2020-07-31T06:38:09.000Z</time>
      </trkpt>
      <trkpt lat="46.2266" lon="5.3808">
        <ele>342.39999389648</ele>
        <time>2020-07-31T06:38:10.000Z</time>
      </trkpt>
      <trkpt lat="46.22663" lon="5.38079">
        <ele>342.39999389648</ele>
        <time>2020-07-31T06:38:11.000Z</time>
      </trkpt>
      <trkpt lat="46.22667" lon="5.38079">
        <ele>342.60000610352</ele>
        <time>2020-07-31T06:38:12.000Z</time>
      </trkpt>
      <trkpt lat="46.2267" lon="5.38078">
        <ele>342.79998779297</ele>
        <time>2020-07-31T06:38:13.000Z</time>
      </trkpt>
      <trkpt lat="46.22677" lon="5.38076">
        <ele>343.20001220703</ele>
        <time>2020-07-31T06:38:15.000Z</time>
      </trkpt>
      <trkpt lat="46.2268" lon="5.38075">
        <ele>343.39999389648</ele>
        <time>2020-07-31T06:38:16.000Z</time>
      </trkpt>
      <trkpt lat="46.22683" lon="5.38074">
        <ele>343.60000610352</ele>
        <time>2020-07-31T06:38:17.000Z</time>
      </trkpt>
      <trkpt lat="46.2269" lon="5.38071">
        <ele>344</ele>
        <time>2020-07-31T06:38:19.000Z</time>
      </trkpt>
      <trkpt lat="46.22693" lon="5.38071">
        <ele>344.20001220703</ele>
        <time>2020-07-31T06:38:20.000Z</time>
      </trkpt>
      <trkpt lat="46.22696" lon="5.3807">
        <ele>344.60000610352</ele>
        <time>2020-07-31T06:38:21.000Z</time>
      </trkpt>
      <trkpt lat="46.22703" lon="5.38069">
        <ele>345.39999389648</ele>
        <time>2020-07-31T06:38:23.000Z</time>
      </trkpt>
      <trkpt lat="46.22707" lon="5.38069">
        <ele>345.60000610352</ele>
        <time>2020-07-31T06:38:24.000Z</time>
      </trkpt>
      <trkpt lat="46.2271" lon="5.38069">
        <ele>345.79998779297</ele>
        <time>2020-07-31T06:38:25.000Z</time>
      </trkpt>
      <trkpt lat="46.22713" lon="5.38069">
        <ele>346.20001220703</ele>
        <time>2020-07-31T06:38:26.000Z</time>
      </trkpt>
      <trkpt lat="46.22717" lon="5.38069">
        <ele>346.39999389648</ele>
        <time>2020-07-31T06:38:27.000Z</time>
      </trkpt>
      <trkpt lat="46.22724" lon="5.3807">
        <ele>346.79998779297</ele>
        <time>2020-07-31T06:38:29.000Z</time>
      </trkpt>
      <trkpt lat="46.22731" lon="5.3807">
        <ele>347</ele>
        <time>2020-07-31T06:38:31.000Z</time>
      </trkpt>
      <trkpt lat="46.22738" lon="5.38071">
        <ele>347.60000610352</ele>
        <time>2020-07-31T06:38:33.000Z</time>
      </trkpt>
      <trkpt lat="46.22742" lon="5.38072">
        <ele>347.79998779297</ele>
        <time>2020-07-31T06:38:34.000Z</time>
      </trkpt>
      <trkpt lat="46.22745" lon="5.38072">
        <ele>348</ele>
        <time>2020-07-31T06:38:35.000Z</time>
      </trkpt>
      <trkpt lat="46.22752" lon="5.38072">
        <ele>348.39999389648</ele>
        <time>2020-07-31T06:38:37.000Z</time>
      </trkpt>
      <trkpt lat="46.22759" lon="5.38073">
        <ele>348.60000610352</ele>
        <time>2020-07-31T06:38:39.000Z</time>
      </trkpt>
      <trkpt lat="46.22763" lon="5.38074">
        <ele>348.79998779297</ele>
        <time>2020-07-31T06:38:40.000Z</time>
      </trkpt>
      <trkpt lat="46.22766" lon="5.38074">
        <ele>348.79998779297</ele>
        <time>2020-07-31T06:38:41.000Z</time>
      </trkpt>
      <trkpt lat="46.22773" lon="5.38073">
        <ele>349.39999389648</ele>
        <time>2020-07-31T06:38:43.000Z</time>
      </trkpt>
      <trkpt lat="46.22779" lon="5.38074">
        <ele>349.79998779297</ele>
        <time>2020-07-31T06:38:45.000Z</time>
      </trkpt>
      <trkpt lat="46.22786" lon="5.38076">
        <ele>350.20001220703</ele>
        <time>2020-07-31T06:38:47.000Z</time>
      </trkpt>
      <trkpt lat="46.22793" lon="5.38078">
        <ele>350.79998779297</ele>
        <time>2020-07-31T06:38:49.000Z</time>
      </trkpt>
      <trkpt lat="46.22796" lon="5.3808">
        <ele>351</ele>
        <time>2020-07-31T06:38:50.000Z</time>
      </trkpt>
      <trkpt lat="46.22799" lon="5.38083">
        <ele>351.39999389648</ele>
        <time>2020-07-31T06:38:51.000Z</time>
      </trkpt>
      <trkpt lat="46.22802" lon="5.3809">
        <ele>351.79998779297</ele>
        <time>2020-07-31T06:38:53.000Z</time>
      </trkpt>
      <trkpt lat="46.22802" lon="5.38094">
        <ele>352</ele>
        <time>2020-07-31T06:38:54.000Z</time>
      </trkpt>
      <trkpt lat="46.228" lon="5.38098">
        <ele>352.20001220703</ele>
        <time>2020-07-31T06:38:55.000Z</time>
      </trkpt>
      <trkpt lat="46.22795" lon="5.38103">
        <ele>352.60000610352</ele>
        <time>2020-07-31T06:38:57.000Z</time>
      </trkpt>
      <trkpt lat="46.22787" lon="5.38106">
        <ele>353</ele>
        <time>2020-07-31T06:38:59.000Z</time>
      </trkpt>
      <trkpt lat="46.2278" lon="5.38109">
        <ele>353.60000610352</ele>
        <time>2020-07-31T06:39:01.000Z</time>
      </trkpt>
      <trkpt lat="46.22776" lon="5.38111">
        <ele>354</ele>
        <time>2020-07-31T06:39:02.000Z</time>
      </trkpt>
      <trkpt lat="46.22773" lon="5.38114">
        <ele>354.39999389648</ele>
        <time>2020-07-31T06:39:03.000Z</time>
      </trkpt>
      <trkpt lat="46.22766" lon="5.38119">
        <ele>355.20001220703</ele>
        <time>2020-07-31T06:39:05.000Z</time>
      </trkpt>
      <trkpt lat="46.2276" lon="5.38124">
        <ele>355.39999389648</ele>
        <time>2020-07-31T06:39:07.000Z</time>
      </trkpt>
      <trkpt lat="46.22754" lon="5.3813">
        <ele>355.60000610352</ele>
        <time>2020-07-31T06:39:09.000Z</time>
      </trkpt>
      <trkpt lat="46.22752" lon="5.38133">
        <ele>355.79998779297</ele>
        <time>2020-07-31T06:39:10.000Z</time>
      </trkpt>
      <trkpt lat="46.22749" lon="5.38137">
        <ele>356</ele>
        <time>2020-07-31T06:39:11.000Z</time>
      </trkpt>
      <trkpt lat="46.22745" lon="5.38144">
        <ele>356.60000610352</ele>
        <time>2020-07-31T06:39:13.000Z</time>
      </trkpt>
      <trkpt lat="46.22741" lon="5.38152">
        <ele>357.20001220703</ele>
        <time>2020-07-31T06:39:15.000Z</time>
      </trkpt>
      <trkpt lat="46.22737" lon="5.38161">
        <ele>357.60000610352</ele>
        <time>2020-07-31T06:39:17.000Z</time>
      </trkpt>
      <trkpt lat="46.22735" lon="5.38166">
        <ele>357.79998779297</ele>
        <time>2020-07-31T06:39:18.000Z</time>
      </trkpt>
      <trkpt lat="46.22733" lon="5.3817">
        <ele>358.39999389648</ele>
        <time>2020-07-31T06:39:19.000Z</time>
      </trkpt>
      <trkpt lat="46.22732" lon="5.3818">
        <ele>358.79998779297</ele>
        <time>2020-07-31T06:39:21.000Z</time>
      </trkpt>
      <trkpt lat="46.22731" lon="5.38191">
        <ele>359</ele>
        <time>2020-07-31T06:39:23.000Z</time>
      </trkpt>
      <trkpt lat="46.22731" lon="5.38196">
        <ele>359.20001220703</ele>
        <time>2020-07-31T06:39:24.000Z</time>
      </trkpt>
      <trkpt lat="46.22731" lon="5.38201">
        <ele>359.39999389648</ele>
        <time>2020-07-31T06:39:25.000Z</time>
      </trkpt>
      <trkpt lat="46.22732" lon="5.38212">
        <ele>359.79998779297</ele>
        <time>2020-07-31T06:39:27.000Z</time>
      </trkpt>
      <trkpt lat="46.22733" lon="5.38222">
        <ele>360.20001220703</ele>
        <time>2020-07-31T06:39:29.000Z</time>
      </trkpt>
      <trkpt lat="46.22732" lon="5.38233">
        <ele>360.60000610352</ele>
        <time>2020-07-31T06:39:31.000Z</time>
      </trkpt>
      <trkpt lat="46.22731" lon="5.38239">
        <ele>360.79998779297</ele>
        <time>2020-07-31T06:39:32.000Z</time>
      </trkpt>
      <trkpt lat="46.2273" lon="5.38244">
        <ele>361</ele>
        <time>2020-07-31T06:39:33.000Z</time>
      </trkpt>
      <trkpt lat="46.22727" lon="5.38252">
        <ele>361.39999389648</ele>
        <time>2020-07-31T06:39:35.000Z</time>
      </trkpt>
      <trkpt lat="46.22722" lon="5.38259">
        <ele>361.79998779297</ele>
        <time>2020-07-31T06:39:37.000Z</time>
      </trkpt>
      <trkpt lat="46.22716" lon="5.38264">
        <ele>362.20001220703</ele>
        <time>2020-07-31T06:39:39.000Z</time>
      </trkpt>
      <trkpt lat="46.22709" lon="5.38267">
        <ele>362.60000610352</ele>
        <time>2020-07-31T06:39:41.000Z</time>
      </trkpt>
      <trkpt lat="46.22705" lon="5.38269">
        <ele>362.79998779297</ele>
        <time>2020-07-31T06:39:42.000Z</time>
      </trkpt>
      <trkpt lat="46.22702" lon="5.3827">
        <ele>363</ele>
        <time>2020-07-31T06:39:43.000Z</time>
      </trkpt>
      <trkpt lat="46.22695" lon="5.38272">
        <ele>363.60000610352</ele>
        <time>2020-07-31T06:39:45.000Z</time>
      </trkpt>
      <trkpt lat="46.22688" lon="5.38273">
        <ele>364</ele>
        <time>2020-07-31T06:39:47.000Z</time>
      </trkpt>
      <trkpt lat="46.22681" lon="5.38274">
        <ele>364.60000610352</ele>
        <time>2020-07-31T06:39:49.000Z</time>
      </trkpt>
      <trkpt lat="46.22675" lon="5.38276">
        <ele>365.20001220703</ele>
        <time>2020-07-31T06:39:51.000Z</time>
      </trkpt>
      <trkpt lat="46.22671" lon="5.38277">
        <ele>365.39999389648</ele>
        <time>2020-07-31T06:39:52.000Z</time>
      </trkpt>
      <trkpt lat="46.22668" lon="5.38278">
        <ele>365.60000610352</ele>
        <time>2020-07-31T06:39:53.000Z</time>
      </trkpt>
      <trkpt lat="46.22665" lon="5.38279">
        <ele>365.79998779297</ele>
        <time>2020-07-31T06:39:54.000Z</time>
      </trkpt>
      <trkpt lat="46.22661" lon="5.38279">
        <ele>366</ele>
        <time>2020-07-31T06:39:55.000Z</time>
      </trkpt>
      <trkpt lat="46.22654" lon="5.3828">
        <ele>366.39999389648</ele>
        <time>2020-07-31T06:39:57.000Z</time>
      </trkpt>
      <trkpt lat="46.22648" lon="5.38281">
        <ele>366.79998779297</ele>
        <time>2020-07-31T06:39:59.000Z</time>
      </trkpt>
      <trkpt lat="46.22641" lon="5.38282">
        <ele>367.20001220703</ele>
        <time>2020-07-31T06:40:01.000Z</time>
      </trkpt>
      <trkpt lat="46.22638" lon="5.38283">
        <ele>367.60000610352</ele>
        <time>2020-07-31T06:40:02.000Z</time>
      </trkpt>
      <trkpt lat="46.22634" lon="5.38284">
        <ele>367.79998779297</ele>
        <time>2020-07-31T06:40:03.000Z</time>
      </trkpt>
      <trkpt lat="46.22631" lon="5.38285">
        <ele>368</ele>
        <time>2020-07-31T06:40:04.000Z</time>
      </trkpt>
      <trkpt lat="46.22627" lon="5.38286">
        <ele>368</ele>
        <time>2020-07-31T06:40:05.000Z</time>
      </trkpt>
      <trkpt lat="46.2262" lon="5.38287">
        <ele>368.39999389648</ele>
        <time>2020-07-31T06:40:07.000Z</time>
      </trkpt>
      <trkpt lat="46.22613" lon="5.38287">
        <ele>368.79998779297</ele>
        <time>2020-07-31T06:40:09.000Z</time>
      </trkpt>
      <trkpt lat="46.22606" lon="5.38288">
        <ele>369.39999389648</ele>
        <time>2020-07-31T06:40:11.000Z</time>
      </trkpt>
      <trkpt lat="46.22603" lon="5.38289">
        <ele>369.60000610352</ele>
        <time>2020-07-31T06:40:12.000Z</time>
      </trkpt>
      <trkpt lat="46.226" lon="5.3829">
        <ele>370</ele>
        <time>2020-07-31T06:40:13.000Z</time>
      </trkpt>
      <trkpt lat="46.22593" lon="5.38293">
        <ele>370.39999389648</ele>
        <time>2020-07-31T06:40:15.000Z</time>
      </trkpt>
      <trkpt lat="46.22586" lon="5.38296">
        <ele>370.79998779297</ele>
        <time>2020-07-31T06:40:17.000Z</time>
      </trkpt>
      <trkpt lat="46.22582" lon="5.38298">
        <ele>371.20001220703</ele>
        <time>2020-07-31T06:40:18.000Z</time>
      </trkpt>
      <trkpt lat="46.22578" lon="5.383">
        <ele>371.39999389648</ele>
        <time>2020-07-31T06:40:19.000Z</time>
      </trkpt>
      <trkpt lat="46.22571" lon="5.38303">
        <ele>371.60000610352</ele>
        <time>2020-07-31T06:40:21.000Z</time>
      </trkpt>
      <trkpt lat="46.22564" lon="5.38306">
        <ele>372</ele>
        <time>2020-07-31T06:40:23.000Z</time>
      </trkpt>
      <trkpt lat="46.22561" lon="5.38308">
        <ele>372.20001220703</ele>
        <time>2020-07-31T06:40:24.000Z</time>
      </trkpt>
      <trkpt lat="46.22557" lon="5.3831">
        <ele>372.39999389648</ele>
        <time>2020-07-31T06:40:25.000Z</time>
      </trkpt>
      <trkpt lat="46.2255" lon="5.38314">
        <ele>372.79998779297</ele>
        <time>2020-07-31T06:40:27.000Z</time>
      </trkpt>
      <trkpt lat="46.22546" lon="5.38316">
        <ele>373</ele>
        <time>2020-07-31T06:40:28.000Z</time>
      </trkpt>
      <trkpt lat="46.22543" lon="5.38317">
        <ele>373.39999389648</ele>
        <time>2020-07-31T06:40:29.000Z</time>
      </trkpt>
      <trkpt lat="46.22535" lon="5.38321">
        <ele>374</ele>
        <time>2020-07-31T06:40:31.000Z</time>
      </trkpt>
      <trkpt lat="46.22529" lon="5.38324">
        <ele>374.39999389648</ele>
        <time>2020-07-31T06:40:33.000Z</time>
      </trkpt>
      <trkpt lat="46.22525" lon="5.38326">
        <ele>374.60000610352</ele>
        <time>2020-07-31T06:40:34.000Z</time>
      </trkpt>
      <trkpt lat="46.22522" lon="5.38328">
        <ele>374.79998779297</ele>
        <time>2020-07-31T06:40:35.000Z</time>
      </trkpt>
      <trkpt lat="46.22518" lon="5.3833">
        <ele>375</ele>
        <time>2020-07-31T06:40:36.000Z</time>
      </trkpt>
      <trkpt lat="46.22514" lon="5.38333">
        <ele>375.20001220703</ele>
        <time>2020-07-31T06:40:37.000Z</time>
      </trkpt>
      <trkpt lat="46.22507" lon="5.38337">
        <ele>375.60000610352</ele>
        <time>2020-07-31T06:40:39.000Z</time>
      </trkpt>
      <trkpt lat="46.225" lon="5.38341">
        <ele>376</ele>
        <time>2020-07-31T06:40:41.000Z</time>
      </trkpt>
      <trkpt lat="46.22493" lon="5.38344">
        <ele>376.79998779297</ele>
        <time>2020-07-31T06:40:43.000Z</time>
      </trkpt>
      <trkpt lat="46.22486" lon="5.38348">
        <ele>377.20001220703</ele>
        <time>2020-07-31T06:40:45.000Z</time>
      </trkpt>
      <trkpt lat="46.22478" lon="5.38352">
        <ele>377.79998779297</ele>
        <time>2020-07-31T06:40:47.000Z</time>
      </trkpt>
      <trkpt lat="46.22471" lon="5.38356">
        <ele>378</ele>
        <time>2020-07-31T06:40:49.000Z</time>
      </trkpt>
      <trkpt lat="46.22464" lon="5.38359">
        <ele>378.39999389648</ele>
        <time>2020-07-31T06:40:51.000Z</time>
      </trkpt>
      <trkpt lat="46.22457" lon="5.38362">
        <ele>378.79998779297</ele>
        <time>2020-07-31T06:40:53.000Z</time>
      </trkpt>
      <trkpt lat="46.2245" lon="5.38365">
        <ele>379.60000610352</ele>
        <time>2020-07-31T06:40:55.000Z</time>
      </trkpt>
      <trkpt lat="46.22446" lon="5.38367">
        <ele>379.79998779297</ele>
        <time>2020-07-31T06:40:56.000Z</time>
      </trkpt>
      <trkpt lat="46.22443" lon="5.38369">
        <ele>380.20001220703</ele>
        <time>2020-07-31T06:40:57.000Z</time>
      </trkpt>
      <trkpt lat="46.22436" lon="5.38372">
        <ele>380.39999389648</ele>
        <time>2020-07-31T06:40:59.000Z</time>
      </trkpt>
      <trkpt lat="46.22429" lon="5.38375">
        <ele>380.60000610352</ele>
        <time>2020-07-31T06:41:01.000Z</time>
      </trkpt>
      <trkpt lat="46.22423" lon="5.38378">
        <ele>380.79998779297</ele>
        <time>2020-07-31T06:41:03.000Z</time>
      </trkpt>
      <trkpt lat="46.22419" lon="5.3838">
        <ele>381</ele>
        <time>2020-07-31T06:41:04.000Z</time>
      </trkpt>
      <trkpt lat="46.22416" lon="5.38381">
        <ele>381.20001220703</ele>
        <time>2020-07-31T06:41:05.000Z</time>
      </trkpt>
      <trkpt lat="46.22409" lon="5.38384">
        <ele>381.79998779297</ele>
        <time>2020-07-31T06:41:07.000Z</time>
      </trkpt>
      <trkpt lat="46.22405" lon="5.38386">
        <ele>382</ele>
        <time>2020-07-31T06:41:08.000Z</time>
      </trkpt>
      <trkpt lat="46.22401" lon="5.38387">
        <ele>382.39999389648</ele>
        <time>2020-07-31T06:41:09.000Z</time>
      </trkpt>
      <trkpt lat="46.22394" lon="5.3839">
        <ele>383</ele>
        <time>2020-07-31T06:41:11.000Z</time>
      </trkpt>
      <trkpt lat="46.22391" lon="5.38391">
        <ele>383.39999389648</ele>
        <time>2020-07-31T06:41:12.000Z</time>
      </trkpt>
      <trkpt lat="46.22387" lon="5.38392">
        <ele>383.60000610352</ele>
        <time>2020-07-31T06:41:13.000Z</time>
      </trkpt>
      <trkpt lat="46.2238" lon="5.38394">
        <ele>383.79998779297</ele>
        <time>2020-07-31T06:41:15.000Z</time>
      </trkpt>
      <trkpt lat="46.22372" lon="5.38396">
        <ele>384.20001220703</ele>
        <time>2020-07-31T06:41:17.000Z</time>
      </trkpt>
      <trkpt lat="46.22369" lon="5.38397">
        <ele>384.79998779297</ele>
        <time>2020-07-31T06:41:18.000Z</time>
      </trkpt>
      <trkpt lat="46.22365" lon="5.38398">
        <ele>385.20001220703</ele>
        <time>2020-07-31T06:41:19.000Z</time>
      </trkpt>
      <trkpt lat="46.22357" lon="5.38401">
        <ele>385.79998779297</ele>
        <time>2020-07-31T06:41:21.000Z</time>
      </trkpt>
      <trkpt lat="46.22348" lon="5.38404">
        <ele>386.20001220703</ele>
        <time>2020-07-31T06:41:23.000Z</time>
      </trkpt>
      <trkpt lat="46.22339" lon="5.38408">
        <ele>386.60000610352</ele>
        <time>2020-07-31T06:41:25.000Z</time>
      </trkpt>
      <trkpt lat="46.22335" lon="5.38411">
        <ele>387</ele>
        <time>2020-07-31T06:41:26.000Z</time>
      </trkpt>
      <trkpt lat="46.2233" lon="5.38414">
        <ele>387.20001220703</ele>
        <time>2020-07-31T06:41:27.000Z</time>
      </trkpt>
      <trkpt lat="46.22326" lon="5.38416">
        <ele>387.39999389648</ele>
        <time>2020-07-31T06:41:28.000Z</time>
      </trkpt>
      <trkpt lat="46.22316" lon="5.3842">
        <ele>387.79998779297</ele>
        <time>2020-07-31T06:41:30.000Z</time>
      </trkpt>
      <trkpt lat="46.22311" lon="5.38422">
        <ele>388</ele>
        <time>2020-07-31T06:41:31.000Z</time>
      </trkpt>
      <trkpt lat="46.22306" lon="5.38423">
        <ele>388.20001220703</ele>
        <time>2020-07-31T06:41:32.000Z</time>
      </trkpt>
      <trkpt lat="46.22302" lon="5.38424">
        <ele>388.39999389648</ele>
        <time>2020-07-31T06:41:33.000Z</time>
      </trkpt>
      <trkpt lat="46.22292" lon="5.38428">
        <ele>389</ele>
        <time>2020-07-31T06:41:35.000Z</time>
      </trkpt>
      <trkpt lat="46.22288" lon="5.3843">
        <ele>389.20001220703</ele>
        <time>2020-07-31T06:41:36.000Z</time>
      </trkpt>
      <trkpt lat="46.22284" lon="5.38433">
        <ele>389.39999389648</ele>
        <time>2020-07-31T06:41:37.000Z</time>
      </trkpt>
      <trkpt lat="46.2228" lon="5.38436">
        <ele>389.60000610352</ele>
        <time>2020-07-31T06:41:38.000Z</time>
      </trkpt>
      <trkpt lat="46.22276" lon="5.38439">
        <ele>389.79998779297</ele>
        <time>2020-07-31T06:41:39.000Z</time>
      </trkpt>
      <trkpt lat="46.22272" lon="5.38443">
        <ele>390.20001220703</ele>
        <time>2020-07-31T06:41:40.000Z</time>
      </trkpt>
      <trkpt lat="46.22268" lon="5.38448">
        <ele>390.60000610352</ele>
        <time>2020-07-31T06:41:41.000Z</time>
      </trkpt>
      <trkpt lat="46.2226" lon="5.38458">
        <ele>391.39999389648</ele>
        <time>2020-07-31T06:41:43.000Z</time>
      </trkpt>
      <trkpt lat="46.22257" lon="5.38463">
        <ele>391.79998779297</ele>
        <time>2020-07-31T06:41:44.000Z</time>
      </trkpt>
      <trkpt lat="46.22253" lon="5.38469">
        <ele>392</ele>
        <time>2020-07-31T06:41:45.000Z</time>
      </trkpt>
      <trkpt lat="46.22249" lon="5.38474">
        <ele>392.60000610352</ele>
        <time>2020-07-31T06:41:46.000Z</time>
      </trkpt>
      <trkpt lat="46.22244" lon="5.38479">
        <ele>393</ele>
        <time>2020-07-31T06:41:47.000Z</time>
      </trkpt>
      <trkpt lat="46.22235" lon="5.38489">
        <ele>393.20001220703</ele>
        <time>2020-07-31T06:41:49.000Z</time>
      </trkpt>
      <trkpt lat="46.2223" lon="5.38493">
        <ele>393.20001220703</ele>
        <time>2020-07-31T06:41:50.000Z</time>
      </trkpt>
      <trkpt lat="46.22225" lon="5.38499">
        <ele>393.20001220703</ele>
        <time>2020-07-31T06:41:51.000Z</time>
      </trkpt>
      <trkpt lat="46.22216" lon="5.38515">
        <ele>393.20001220703</ele>
        <time>2020-07-31T06:41:53.000Z</time>
      </trkpt>
      <trkpt lat="46.22208" lon="5.38535">
        <ele>393.20001220703</ele>
        <time>2020-07-31T06:41:55.000Z</time>
      </trkpt>
      <trkpt lat="46.22206" lon="5.38546">
        <ele>393.20001220703</ele>
        <time>2020-07-31T06:41:56.000Z</time>
      </trkpt>
      <trkpt lat="46.22202" lon="5.38557">
        <ele>393.20001220703</ele>
        <time>2020-07-31T06:41:57.000Z</time>
      </trkpt>
      <trkpt lat="46.2219" lon="5.38576">
        <ele>392.79998779297</ele>
        <time>2020-07-31T06:41:59.000Z</time>
      </trkpt>
      <trkpt lat="46.22172" lon="5.38577">
        <ele>392</ele>
        <time>2020-07-31T06:42:01.000Z</time>
      </trkpt>
      <trkpt lat="46.22164" lon="5.38574">
        <ele>391.39999389648</ele>
        <time>2020-07-31T06:42:02.000Z</time>
      </trkpt>
      <trkpt lat="46.22156" lon="5.3857">
        <ele>390.79998779297</ele>
        <time>2020-07-31T06:42:03.000Z</time>
      </trkpt>
      <trkpt lat="46.22149" lon="5.38569">
        <ele>390.20001220703</ele>
        <time>2020-07-31T06:42:04.000Z</time>
      </trkpt>
      <trkpt lat="46.22143" lon="5.38571">
        <ele>389.20001220703</ele>
        <time>2020-07-31T06:42:05.000Z</time>
      </trkpt>
      <trkpt lat="46.2214" lon="5.38578">
        <ele>388.39999389648</ele>
        <time>2020-07-31T06:42:06.000Z</time>
      </trkpt>
      <trkpt lat="46.22142" lon="5.38584">
        <ele>388</ele>
        <time>2020-07-31T06:42:07.000Z</time>
      </trkpt>
      <trkpt lat="46.22146" lon="5.3859">
        <ele>387.20001220703</ele>
        <time>2020-07-31T06:42:08.000Z</time>
      </trkpt>
      <trkpt lat="46.22152" lon="5.38595">
        <ele>386.79998779297</ele>
        <time>2020-07-31T06:42:09.000Z</time>
      </trkpt>
      <trkpt lat="46.22159" lon="5.386">
        <ele>386.39999389648</ele>
        <time>2020-07-31T06:42:10.000Z</time>
      </trkpt>
      <trkpt lat="46.22166" lon="5.38607">
        <ele>386.20001220703</ele>
        <time>2020-07-31T06:42:11.000Z</time>
      </trkpt>
      <trkpt lat="46.22178" lon="5.38626">
        <ele>385.79998779297</ele>
        <time>2020-07-31T06:42:13.000Z</time>
      </trkpt>
      <trkpt lat="46.22184" lon="5.38637">
        <ele>385.60000610352</ele>
        <time>2020-07-31T06:42:14.000Z</time>
      </trkpt>
      <trkpt lat="46.2219" lon="5.38649">
        <ele>385.20001220703</ele>
        <time>2020-07-31T06:42:15.000Z</time>
      </trkpt>
      <trkpt lat="46.22195" lon="5.38661">
        <ele>384.79998779297</ele>
        <time>2020-07-31T06:42:16.000Z</time>
      </trkpt>
      <trkpt lat="46.22201" lon="5.38674">
        <ele>384.60000610352</ele>
        <time>2020-07-31T06:42:17.000Z</time>
      </trkpt>
      <trkpt lat="46.22213" lon="5.38701">
        <ele>383</ele>
        <time>2020-07-31T06:42:19.000Z</time>
      </trkpt>
      <trkpt lat="46.22224" lon="5.38731">
        <ele>381.20001220703</ele>
        <time>2020-07-31T06:42:21.000Z</time>
      </trkpt>
      <trkpt lat="46.22229" lon="5.38747">
        <ele>379.79998779297</ele>
        <time>2020-07-31T06:42:22.000Z</time>
      </trkpt>
      <trkpt lat="46.22232" lon="5.38764">
        <ele>379</ele>
        <time>2020-07-31T06:42:23.000Z</time>
      </trkpt>
      <trkpt lat="46.22236" lon="5.38781">
        <ele>378.20001220703</ele>
        <time>2020-07-31T06:42:24.000Z</time>
      </trkpt>
      <trkpt lat="46.22239" lon="5.38798">
        <ele>377.20001220703</ele>
        <time>2020-07-31T06:42:25.000Z</time>
      </trkpt>
      <trkpt lat="46.22242" lon="5.38816">
        <ele>376.20001220703</ele>
        <time>2020-07-31T06:42:26.000Z</time>
      </trkpt>
      <trkpt lat="46.22245" lon="5.38834">
        <ele>375.20001220703</ele>
        <time>2020-07-31T06:42:27.000Z</time>
      </trkpt>
      <trkpt lat="46.22253" lon="5.38869">
        <ele>373.39999389648</ele>
        <time>2020-07-31T06:42:29.000Z</time>
      </trkpt>
      <trkpt lat="46.22258" lon="5.38886">
        <ele>372.39999389648</ele>
        <time>2020-07-31T06:42:30.000Z</time>
      </trkpt>
      <trkpt lat="46.22264" lon="5.38902">
        <ele>371.20001220703</ele>
        <time>2020-07-31T06:42:31.000Z</time>
      </trkpt>
      <trkpt lat="46.22278" lon="5.38934">
        <ele>369.79998779297</ele>
        <time>2020-07-31T06:42:33.000Z</time>
      </trkpt>
      <trkpt lat="46.22286" lon="5.38949">
        <ele>368.60000610352</ele>
        <time>2020-07-31T06:42:34.000Z</time>
      </trkpt>
      <trkpt lat="46.22294" lon="5.38964">
        <ele>367.60000610352</ele>
        <time>2020-07-31T06:42:35.000Z</time>
      </trkpt>
      <trkpt lat="46.22311" lon="5.38993">
        <ele>366.20001220703</ele>
        <time>2020-07-31T06:42:37.000Z</time>
      </trkpt>
      <trkpt lat="46.22319" lon="5.39008">
        <ele>365.20001220703</ele>
        <time>2020-07-31T06:42:38.000Z</time>
      </trkpt>
      <trkpt lat="46.22328" lon="5.39023">
        <ele>364.20001220703</ele>
        <time>2020-07-31T06:42:39.000Z</time>
      </trkpt>
      <trkpt lat="46.22336" lon="5.39039">
        <ele>363.39999389648</ele>
        <time>2020-07-31T06:42:40.000Z</time>
      </trkpt>
      <trkpt lat="46.22345" lon="5.39054">
        <ele>362.20001220703</ele>
        <time>2020-07-31T06:42:41.000Z</time>
      </trkpt>
      <trkpt lat="46.22354" lon="5.39068">
        <ele>361.20001220703</ele>
        <time>2020-07-31T06:42:42.000Z</time>
      </trkpt>
      <trkpt lat="46.22364" lon="5.39082">
        <ele>360.60000610352</ele>
        <time>2020-07-31T06:42:43.000Z</time>
      </trkpt>
      <trkpt lat="46.22374" lon="5.39095">
        <ele>359.20001220703</ele>
        <time>2020-07-31T06:42:44.000Z</time>
      </trkpt>
      <trkpt lat="46.22384" lon="5.39108">
        <ele>358.39999389648</ele>
        <time>2020-07-31T06:42:45.000Z</time>
      </trkpt>
      <trkpt lat="46.22395" lon="5.39121">
        <ele>357.39999389648</ele>
        <time>2020-07-31T06:42:46.000Z</time>
      </trkpt>
      <trkpt lat="46.22405" lon="5.39134">
        <ele>356</ele>
        <time>2020-07-31T06:42:47.000Z</time>
      </trkpt>
      <trkpt lat="46.22416" lon="5.39147">
        <ele>354.79998779297</ele>
        <time>2020-07-31T06:42:48.000Z</time>
      </trkpt>
      <trkpt lat="46.22426" lon="5.3916">
        <ele>353.79998779297</ele>
        <time>2020-07-31T06:42:49.000Z</time>
      </trkpt>
      <trkpt lat="46.22448" lon="5.39186">
        <ele>351.60000610352</ele>
        <time>2020-07-31T06:42:51.000Z</time>
      </trkpt>
      <trkpt lat="46.22459" lon="5.39198">
        <ele>350.60000610352</ele>
        <time>2020-07-31T06:42:52.000Z</time>
      </trkpt>
      <trkpt lat="46.2247" lon="5.39211">
        <ele>349.39999389648</ele>
        <time>2020-07-31T06:42:53.000Z</time>
      </trkpt>
      <trkpt lat="46.22481" lon="5.39223">
        <ele>348.60000610352</ele>
        <time>2020-07-31T06:42:54.000Z</time>
      </trkpt>
      <trkpt lat="46.22492" lon="5.39235">
        <ele>347.79998779297</ele>
        <time>2020-07-31T06:42:55.000Z</time>
      </trkpt>
      <trkpt lat="46.22503" lon="5.39246">
        <ele>346.60000610352</ele>
        <time>2020-07-31T06:42:56.000Z</time>
      </trkpt>
      <trkpt lat="46.22515" lon="5.39257">
        <ele>345.60000610352</ele>
        <time>2020-07-31T06:42:57.000Z</time>
      </trkpt>
      <trkpt lat="46.22537" lon="5.39281">
        <ele>343.79998779297</ele>
        <time>2020-07-31T06:42:59.000Z</time>
      </trkpt>
      <trkpt lat="46.22547" lon="5.39294">
        <ele>342.79998779297</ele>
        <time>2020-07-31T06:43:00.000Z</time>
      </trkpt>
      <trkpt lat="46.22556" lon="5.39308">
        <ele>341.79998779297</ele>
        <time>2020-07-31T06:43:01.000Z</time>
      </trkpt>
      <trkpt lat="46.22565" lon="5.39322">
        <ele>341</ele>
        <time>2020-07-31T06:43:02.000Z</time>
      </trkpt>
      <trkpt lat="46.22574" lon="5.39338">
        <ele>340.39999389648</ele>
        <time>2020-07-31T06:43:03.000Z</time>
      </trkpt>
      <trkpt lat="46.22582" lon="5.39354">
        <ele>339.39999389648</ele>
        <time>2020-07-31T06:43:04.000Z</time>
      </trkpt>
      <trkpt lat="46.2259" lon="5.3937">
        <ele>338.60000610352</ele>
        <time>2020-07-31T06:43:05.000Z</time>
      </trkpt>
      <trkpt lat="46.22596" lon="5.39388">
        <ele>337.79998779297</ele>
        <time>2020-07-31T06:43:06.000Z</time>
      </trkpt>
      <trkpt lat="46.22601" lon="5.39408">
        <ele>337</ele>
        <time>2020-07-31T06:43:07.000Z</time>
      </trkpt>
      <trkpt lat="46.22605" lon="5.39428">
        <ele>336</ele>
        <time>2020-07-31T06:43:08.000Z</time>
      </trkpt>
      <trkpt lat="46.22608" lon="5.39447">
        <ele>334.79998779297</ele>
        <time>2020-07-31T06:43:09.000Z</time>
      </trkpt>
      <trkpt lat="46.22611" lon="5.39467">
        <ele>333.60000610352</ele>
        <time>2020-07-31T06:43:10.000Z</time>
      </trkpt>
      <trkpt lat="46.22615" lon="5.39485">
        <ele>332.60000610352</ele>
        <time>2020-07-31T06:43:11.000Z</time>
      </trkpt>
      <trkpt lat="46.22626" lon="5.39522">
        <ele>329.60000610352</ele>
        <time>2020-07-31T06:43:13.000Z</time>
      </trkpt>
      <trkpt lat="46.22632" lon="5.39539">
        <ele>328.39999389648</ele>
        <time>2020-07-31T06:43:14.000Z</time>
      </trkpt>
      <trkpt lat="46.22638" lon="5.39555">
        <ele>327.60000610352</ele>
        <time>2020-07-31T06:43:15.000Z</time>
      </trkpt>
      <trkpt lat="46.22644" lon="5.39571">
        <ele>326.39999389648</ele>
        <time>2020-07-31T06:43:16.000Z</time>
      </trkpt>
      <trkpt lat="46.2265" lon="5.39586">
        <ele>325.39999389648</ele>
        <time>2020-07-31T06:43:17.000Z</time>
      </trkpt>
      <trkpt lat="46.22656" lon="5.39601">
        <ele>325</ele>
        <time>2020-07-31T06:43:18.000Z</time>
      </trkpt>
      <trkpt lat="46.22662" lon="5.39617">
        <ele>324.60000610352</ele>
        <time>2020-07-31T06:43:19.000Z</time>
      </trkpt>
      <trkpt lat="46.22674" lon="5.39648">
        <ele>324</ele>
        <time>2020-07-31T06:43:21.000Z</time>
      </trkpt>
      <trkpt lat="46.22681" lon="5.39664">
        <ele>323.79998779297</ele>
        <time>2020-07-31T06:43:22.000Z</time>
      </trkpt>
      <trkpt lat="46.22687" lon="5.39679">
        <ele>323.60000610352</ele>
        <time>2020-07-31T06:43:23.000Z</time>
      </trkpt>
      <trkpt lat="46.22699" lon="5.39711">
        <ele>323.39999389648</ele>
        <time>2020-07-31T06:43:25.000Z</time>
      </trkpt>
      <trkpt lat="46.22707" lon="5.39744">
        <ele>323</ele>
        <time>2020-07-31T06:43:27.000Z</time>
      </trkpt>
      <trkpt lat="46.22708" lon="5.3976">
        <ele>322.79998779297</ele>
        <time>2020-07-31T06:43:28.000Z</time>
      </trkpt>
      <trkpt lat="46.22707" lon="5.39776">
        <ele>322.20001220703</ele>
        <time>2020-07-31T06:43:29.000Z</time>
      </trkpt>
      <trkpt lat="46.22706" lon="5.39791">
        <ele>321.39999389648</ele>
        <time>2020-07-31T06:43:30.000Z</time>
      </trkpt>
      <trkpt lat="46.22704" lon="5.39807">
        <ele>320.79998779297</ele>
        <time>2020-07-31T06:43:31.000Z</time>
      </trkpt>
      <trkpt lat="46.22702" lon="5.39821">
        <ele>320.20001220703</ele>
        <time>2020-07-31T06:43:32.000Z</time>
      </trkpt>
      <trkpt lat="46.227" lon="5.39836">
        <ele>320</ele>
        <time>2020-07-31T06:43:33.000Z</time>
      </trkpt>
      <trkpt lat="46.22697" lon="5.39866">
        <ele>319.20001220703</ele>
        <time>2020-07-31T06:43:35.000Z</time>
      </trkpt>
      <trkpt lat="46.22693" lon="5.39895">
        <ele>319</ele>
        <time>2020-07-31T06:43:37.000Z</time>
      </trkpt>
      <trkpt lat="46.22689" lon="5.39923">
        <ele>318.79998779297</ele>
        <time>2020-07-31T06:43:39.000Z</time>
      </trkpt>
      <trkpt lat="46.22686" lon="5.39951">
        <ele>318.79998779297</ele>
        <time>2020-07-31T06:43:41.000Z</time>
      </trkpt>
      <trkpt lat="46.22683" lon="5.39978">
        <ele>318.79998779297</ele>
        <time>2020-07-31T06:43:43.000Z</time>
      </trkpt>
      <trkpt lat="46.22679" lon="5.40006">
        <ele>319</ele>
        <time>2020-07-31T06:43:45.000Z</time>
      </trkpt>
      <trkpt lat="46.22676" lon="5.40033">
        <ele>319.20001220703</ele>
        <time>2020-07-31T06:43:47.000Z</time>
      </trkpt>
      <trkpt lat="46.22673" lon="5.4006">
        <ele>319.20001220703</ele>
        <time>2020-07-31T06:43:49.000Z</time>
      </trkpt>
      <trkpt lat="46.2267" lon="5.40085">
        <ele>319.39999389648</ele>
        <time>2020-07-31T06:43:51.000Z</time>
      </trkpt>
      <trkpt lat="46.22669" lon="5.40097">
        <ele>319.60000610352</ele>
        <time>2020-07-31T06:43:52.000Z</time>
      </trkpt>
      <trkpt lat="46.22667" lon="5.40109">
        <ele>319.60000610352</ele>
        <time>2020-07-31T06:43:53.000Z</time>
      </trkpt>
      <trkpt lat="46.22663" lon="5.40134">
        <ele>319.79998779297</ele>
        <time>2020-07-31T06:43:55.000Z</time>
      </trkpt>
      <trkpt lat="46.22659" lon="5.4016">
        <ele>319.79998779297</ele>
        <time>2020-07-31T06:43:57.000Z</time>
      </trkpt>
      <trkpt lat="46.22655" lon="5.40186">
        <ele>319.79998779297</ele>
        <time>2020-07-31T06:43:59.000Z</time>
      </trkpt>
      <trkpt lat="46.22652" lon="5.40212">
        <ele>319.79998779297</ele>
        <time>2020-07-31T06:44:01.000Z</time>
      </trkpt>
      <trkpt lat="46.22649" lon="5.40237">
        <ele>319.79998779297</ele>
        <time>2020-07-31T06:44:03.000Z</time>
      </trkpt>
      <trkpt lat="46.22645" lon="5.40263">
        <ele>319.79998779297</ele>
        <time>2020-07-31T06:44:05.000Z</time>
      </trkpt>
      <trkpt lat="46.22643" lon="5.40276">
        <ele>319.79998779297</ele>
        <time>2020-07-31T06:44:06.000Z</time>
      </trkpt>
      <trkpt lat="46.22641" lon="5.40288">
        <ele>319.79998779297</ele>
        <time>2020-07-31T06:44:07.000Z</time>
      </trkpt>
      <trkpt lat="46.22636" lon="5.40314">
        <ele>319.79998779297</ele>
        <time>2020-07-31T06:44:09.000Z</time>
      </trkpt>
      <trkpt lat="46.22634" lon="5.40326">
        <ele>319.79998779297</ele>
        <time>2020-07-31T06:44:10.000Z</time>
      </trkpt>
      <trkpt lat="46.22633" lon="5.40339">
        <ele>319.60000610352</ele>
        <time>2020-07-31T06:44:11.000Z</time>
      </trkpt>
      <trkpt lat="46.22632" lon="5.40364">
        <ele>319.20001220703</ele>
        <time>2020-07-31T06:44:13.000Z</time>
      </trkpt>
      <trkpt lat="46.22633" lon="5.40376">
        <ele>319</ele>
        <time>2020-07-31T06:44:14.000Z</time>
      </trkpt>
      <trkpt lat="46.22635" lon="5.40389">
        <ele>318.79998779297</ele>
        <time>2020-07-31T06:44:15.000Z</time>
      </trkpt>
      <trkpt lat="46.22637" lon="5.40401">
        <ele>318.79998779297</ele>
        <time>2020-07-31T06:44:16.000Z</time>
      </trkpt>
      <trkpt lat="46.22638" lon="5.40413">
        <ele>318.60000610352</ele>
        <time>2020-07-31T06:44:17.000Z</time>
      </trkpt>
      <trkpt lat="46.22639" lon="5.40425">
        <ele>318.60000610352</ele>
        <time>2020-07-31T06:44:18.000Z</time>
      </trkpt>
      <trkpt lat="46.22641" lon="5.40438">
        <ele>318.39999389648</ele>
        <time>2020-07-31T06:44:19.000Z</time>
      </trkpt>
      <trkpt lat="46.22644" lon="5.40465">
        <ele>318</ele>
        <time>2020-07-31T06:44:21.000Z</time>
      </trkpt>
      <trkpt lat="46.22644" lon="5.40479">
        <ele>318</ele>
        <time>2020-07-31T06:44:22.000Z</time>
      </trkpt>
      <trkpt lat="46.22644" lon="5.40493">
        <ele>317.79998779297</ele>
        <time>2020-07-31T06:44:23.000Z</time>
      </trkpt>
      <trkpt lat="46.22641" lon="5.4052">
        <ele>317.60000610352</ele>
        <time>2020-07-31T06:44:25.000Z</time>
      </trkpt>
      <trkpt lat="46.22638" lon="5.40547">
        <ele>317.39999389648</ele>
        <time>2020-07-31T06:44:27.000Z</time>
      </trkpt>
      <trkpt lat="46.22636" lon="5.40562">
        <ele>317.20001220703</ele>
        <time>2020-07-31T06:44:28.000Z</time>
      </trkpt>
      <trkpt lat="46.22634" lon="5.40576">
        <ele>317</ele>
        <time>2020-07-31T06:44:29.000Z</time>
      </trkpt>
      <trkpt lat="46.2263" lon="5.40605">
        <ele>317</ele>
        <time>2020-07-31T06:44:31.000Z</time>
      </trkpt>
      <trkpt lat="46.22627" lon="5.40634">
        <ele>316.60000610352</ele>
        <time>2020-07-31T06:44:33.000Z</time>
      </trkpt>
      <trkpt lat="46.22623" lon="5.40664">
        <ele>316.20001220703</ele>
        <time>2020-07-31T06:44:35.000Z</time>
      </trkpt>
      <trkpt lat="46.22619" lon="5.40694">
        <ele>315.60000610352</ele>
        <time>2020-07-31T06:44:37.000Z</time>
      </trkpt>
      <trkpt lat="46.22617" lon="5.40709">
        <ele>315.20001220703</ele>
        <time>2020-07-31T06:44:38.000Z</time>
      </trkpt>
      <trkpt lat="46.22615" lon="5.40724">
        <ele>314.79998779297</ele>
        <time>2020-07-31T06:44:39.000Z</time>
      </trkpt>
      <trkpt lat="46.22613" lon="5.40739">
        <ele>314.20001220703</ele>
        <time>2020-07-31T06:44:40.000Z</time>
      </trkpt>
      <trkpt lat="46.2261" lon="5.40753">
        <ele>313.20001220703</ele>
        <time>2020-07-31T06:44:41.000Z</time>
      </trkpt>
      <trkpt lat="46.22606" lon="5.40767">
        <ele>312.60000610352</ele>
        <time>2020-07-31T06:44:42.000Z</time>
      </trkpt>
      <trkpt lat="46.22601" lon="5.40781">
        <ele>312.39999389648</ele>
        <time>2020-07-31T06:44:43.000Z</time>
      </trkpt>
      <trkpt lat="46.2259" lon="5.40805">
        <ele>312</ele>
        <time>2020-07-31T06:44:45.000Z</time>
      </trkpt>
      <trkpt lat="46.22584" lon="5.40817">
        <ele>311.60000610352</ele>
        <time>2020-07-31T06:44:46.000Z</time>
      </trkpt>
      <trkpt lat="46.22579" lon="5.40829">
        <ele>311.39999389648</ele>
        <time>2020-07-31T06:44:47.000Z</time>
      </trkpt>
      <trkpt lat="46.22575" lon="5.40841">
        <ele>311</ele>
        <time>2020-07-31T06:44:48.000Z</time>
      </trkpt>
      <trkpt lat="46.22571" lon="5.40854">
        <ele>310.79998779297</ele>
        <time>2020-07-31T06:44:49.000Z</time>
      </trkpt>
      <trkpt lat="46.22567" lon="5.4088">
        <ele>310.60000610352</ele>
        <time>2020-07-31T06:44:51.000Z</time>
      </trkpt>
      <trkpt lat="46.22563" lon="5.40906">
        <ele>310.60000610352</ele>
        <time>2020-07-31T06:44:53.000Z</time>
      </trkpt>
      <trkpt lat="46.2256" lon="5.40931">
        <ele>310.39999389648</ele>
        <time>2020-07-31T06:44:55.000Z</time>
      </trkpt>
      <trkpt lat="46.22556" lon="5.40955">
        <ele>310.39999389648</ele>
        <time>2020-07-31T06:44:57.000Z</time>
      </trkpt>
      <trkpt lat="46.22554" lon="5.40967">
        <ele>310.39999389648</ele>
        <time>2020-07-31T06:44:58.000Z</time>
      </trkpt>
      <trkpt lat="46.22553" lon="5.40978">
        <ele>310.39999389648</ele>
        <time>2020-07-31T06:44:59.000Z</time>
      </trkpt>
      <trkpt lat="46.22549" lon="5.41">
        <ele>310.60000610352</ele>
        <time>2020-07-31T06:45:01.000Z</time>
      </trkpt>
      <trkpt lat="46.22546" lon="5.41022">
        <ele>310.60000610352</ele>
        <time>2020-07-31T06:45:03.000Z</time>
      </trkpt>
      <trkpt lat="46.22542" lon="5.41042">
        <ele>310.79998779297</ele>
        <time>2020-07-31T06:45:05.000Z</time>
      </trkpt>
      <trkpt lat="46.22538" lon="5.41061">
        <ele>311.39999389648</ele>
        <time>2020-07-31T06:45:07.000Z</time>
      </trkpt>
      <trkpt lat="46.22535" lon="5.41071">
        <ele>311.60000610352</ele>
        <time>2020-07-31T06:45:08.000Z</time>
      </trkpt>
      <trkpt lat="46.22532" lon="5.4108">
        <ele>311.79998779297</ele>
        <time>2020-07-31T06:45:09.000Z</time>
      </trkpt>
      <trkpt lat="46.22528" lon="5.41089">
        <ele>312.20001220703</ele>
        <time>2020-07-31T06:45:10.000Z</time>
      </trkpt>
      <trkpt lat="46.22525" lon="5.41098">
        <ele>312.60000610352</ele>
        <time>2020-07-31T06:45:11.000Z</time>
      </trkpt>
      <trkpt lat="46.22522" lon="5.41107">
        <ele>313</ele>
        <time>2020-07-31T06:45:12.000Z</time>
      </trkpt>
      <trkpt lat="46.22518" lon="5.41116">
        <ele>313.39999389648</ele>
        <time>2020-07-31T06:45:13.000Z</time>
      </trkpt>
      <trkpt lat="46.22512" lon="5.41134">
        <ele>313.79998779297</ele>
        <time>2020-07-31T06:45:15.000Z</time>
      </trkpt>
      <trkpt lat="46.22506" lon="5.41153">
        <ele>314.20001220703</ele>
        <time>2020-07-31T06:45:17.000Z</time>
      </trkpt>
      <trkpt lat="46.22504" lon="5.41163">
        <ele>314.39999389648</ele>
        <time>2020-07-31T06:45:18.000Z</time>
      </trkpt>
      <trkpt lat="46.22503" lon="5.41173">
        <ele>314.39999389648</ele>
        <time>2020-07-31T06:45:19.000Z</time>
      </trkpt>
      <trkpt lat="46.22506" lon="5.41194">
        <ele>314.60000610352</ele>
        <time>2020-07-31T06:45:21.000Z</time>
      </trkpt>
      <trkpt lat="46.22509" lon="5.41204">
        <ele>314.60000610352</ele>
        <time>2020-07-31T06:45:22.000Z</time>
      </trkpt>
      <trkpt lat="46.22512" lon="5.41214">
        <ele>314.60000610352</ele>
        <time>2020-07-31T06:45:23.000Z</time>
      </trkpt>
      <trkpt lat="46.22518" lon="5.41233">
        <ele>314.60000610352</ele>
        <time>2020-07-31T06:45:25.000Z</time>
      </trkpt>
      <trkpt lat="46.22526" lon="5.41252">
        <ele>314.60000610352</ele>
        <time>2020-07-31T06:45:27.000Z</time>
      </trkpt>
      <trkpt lat="46.22529" lon="5.41261">
        <ele>314.60000610352</ele>
        <time>2020-07-31T06:45:28.000Z</time>
      </trkpt>
      <trkpt lat="46.2253" lon="5.41271">
        <ele>314.60000610352</ele>
        <time>2020-07-31T06:45:29.000Z</time>
      </trkpt>
      <trkpt lat="46.22531" lon="5.41281">
        <ele>314.39999389648</ele>
        <time>2020-07-31T06:45:30.000Z</time>
      </trkpt>
      <trkpt lat="46.22531" lon="5.41292">
        <ele>314.39999389648</ele>
        <time>2020-07-31T06:45:31.000Z</time>
      </trkpt>
      <trkpt lat="46.22527" lon="5.41312">
        <ele>314.20001220703</ele>
        <time>2020-07-31T06:45:33.000Z</time>
      </trkpt>
      <trkpt lat="46.22524" lon="5.41322">
        <ele>314.20001220703</ele>
        <time>2020-07-31T06:45:34.000Z</time>
      </trkpt>
      <trkpt lat="46.22521" lon="5.41332">
        <ele>314.20001220703</ele>
        <time>2020-07-31T06:45:35.000Z</time>
      </trkpt>
      <trkpt lat="46.22517" lon="5.41352">
        <ele>314</ele>
        <time>2020-07-31T06:45:37.000Z</time>
      </trkpt>
      <trkpt lat="46.22514" lon="5.41372">
        <ele>314</ele>
        <time>2020-07-31T06:45:39.000Z</time>
      </trkpt>
      <trkpt lat="46.22514" lon="5.41383">
        <ele>314</ele>
        <time>2020-07-31T06:45:40.000Z</time>
      </trkpt>
      <trkpt lat="46.22514" lon="5.41393">
        <ele>313.79998779297</ele>
        <time>2020-07-31T06:45:41.000Z</time>
      </trkpt>
      <trkpt lat="46.22515" lon="5.41414">
        <ele>313.60000610352</ele>
        <time>2020-07-31T06:45:43.000Z</time>
      </trkpt>
      <trkpt lat="46.22516" lon="5.41425">
        <ele>313.39999389648</ele>
        <time>2020-07-31T06:45:44.000Z</time>
      </trkpt>
      <trkpt lat="46.22517" lon="5.41435">
        <ele>313.39999389648</ele>
        <time>2020-07-31T06:45:45.000Z</time>
      </trkpt>
      <trkpt lat="46.2252" lon="5.41456">
        <ele>313.39999389648</ele>
        <time>2020-07-31T06:45:47.000Z</time>
      </trkpt>
      <trkpt lat="46.22522" lon="5.41477">
        <ele>313.20001220703</ele>
        <time>2020-07-31T06:45:49.000Z</time>
      </trkpt>
      <trkpt lat="46.22523" lon="5.41488">
        <ele>313.20001220703</ele>
        <time>2020-07-31T06:45:50.000Z</time>
      </trkpt>
      <trkpt lat="46.22524" lon="5.41499">
        <ele>313.20001220703</ele>
        <time>2020-07-31T06:45:51.000Z</time>
      </trkpt>
      <trkpt lat="46.22524" lon="5.4151">
        <ele>313.20001220703</ele>
        <time>2020-07-31T06:45:52.000Z</time>
      </trkpt>
      <trkpt lat="46.22523" lon="5.4152">
        <ele>313.20001220703</ele>
        <time>2020-07-31T06:45:53.000Z</time>
      </trkpt>
      <trkpt lat="46.22521" lon="5.41541">
        <ele>313.20001220703</ele>
        <time>2020-07-31T06:45:55.000Z</time>
      </trkpt>
      <trkpt lat="46.22518" lon="5.41561">
        <ele>313</ele>
        <time>2020-07-31T06:45:57.000Z</time>
      </trkpt>
      <trkpt lat="46.22516" lon="5.41571">
        <ele>313</ele>
        <time>2020-07-31T06:45:58.000Z</time>
      </trkpt>
      <trkpt lat="46.22514" lon="5.4158">
        <ele>313</ele>
        <time>2020-07-31T06:45:59.000Z</time>
      </trkpt>
      <trkpt lat="46.22512" lon="5.41589">
        <ele>313</ele>
        <time>2020-07-31T06:46:00.000Z</time>
      </trkpt>
      <trkpt lat="46.2251" lon="5.41598">
        <ele>313</ele>
        <time>2020-07-31T06:46:01.000Z</time>
      </trkpt>
      <trkpt lat="46.22505" lon="5.41614">
        <ele>313</ele>
        <time>2020-07-31T06:46:03.000Z</time>
      </trkpt>
      <trkpt lat="46.22502" lon="5.4162">
        <ele>313</ele>
        <time>2020-07-31T06:46:04.000Z</time>
      </trkpt>
      <trkpt lat="46.225" lon="5.41625">
        <ele>313</ele>
        <time>2020-07-31T06:46:05.000Z</time>
      </trkpt>
      <trkpt lat="46.22496" lon="5.41629">
        <ele>313</ele>
        <time>2020-07-31T06:46:07.000Z</time>
      </trkpt>
      <trkpt lat="46.22494" lon="5.41627">
        <ele>313</ele>
        <time>2020-07-31T06:46:09.000Z</time>
      </trkpt>
      <trkpt lat="46.22492" lon="5.41626">
        <ele>313.20001220703</ele>
        <time>2020-07-31T06:46:11.000Z</time>
      </trkpt>
      <trkpt lat="46.22491" lon="5.41627">
        <ele>313.60000610352</ele>
        <time>2020-07-31T06:46:13.000Z</time>
      </trkpt>
      <trkpt lat="46.22491" lon="5.41626">
        <ele>314.20001220703</ele>
        <time>2020-07-31T06:46:14.000Z</time>
      </trkpt>
      <trkpt lat="46.22489" lon="5.41627">
        <ele>314.79998779297</ele>
        <time>2020-07-31T06:47:21.000Z</time>
      </trkpt>
      <trkpt lat="46.2249" lon="5.41632">
        <ele>314.79998779297</ele>
        <time>2020-07-31T06:47:23.000Z</time>
      </trkpt>
      <trkpt lat="46.22495" lon="5.41636">
        <ele>314.79998779297</ele>
        <time>2020-07-31T06:47:25.000Z</time>
      </trkpt>
      <trkpt lat="46.22504" lon="5.41642">
        <ele>314.79998779297</ele>
        <time>2020-07-31T06:47:27.000Z</time>
      </trkpt>
      <trkpt lat="46.22513" lon="5.41651">
        <ele>314.60000610352</ele>
        <time>2020-07-31T06:47:29.000Z</time>
      </trkpt>
      <trkpt lat="46.22523" lon="5.41662">
        <ele>314.60000610352</ele>
        <time>2020-07-31T06:47:31.000Z</time>
      </trkpt>
      <trkpt lat="46.22533" lon="5.41673">
        <ele>314.39999389648</ele>
        <time>2020-07-31T06:47:33.000Z</time>
      </trkpt>
      <trkpt lat="46.22538" lon="5.4168">
        <ele>314.20001220703</ele>
        <time>2020-07-31T06:47:34.000Z</time>
      </trkpt>
      <trkpt lat="46.22542" lon="5.41687">
        <ele>313.79998779297</ele>
        <time>2020-07-31T06:47:35.000Z</time>
      </trkpt>
      <trkpt lat="46.2255" lon="5.41701">
        <ele>313.20001220703</ele>
        <time>2020-07-31T06:47:37.000Z</time>
      </trkpt>
      <trkpt lat="46.22554" lon="5.41707">
        <ele>313.20001220703</ele>
        <time>2020-07-31T06:47:38.000Z</time>
      </trkpt>
      <trkpt lat="46.22559" lon="5.41714">
        <ele>313.20001220703</ele>
        <time>2020-07-31T06:47:39.000Z</time>
      </trkpt>
      <trkpt lat="46.22568" lon="5.41725">
        <ele>313</ele>
        <time>2020-07-31T06:47:41.000Z</time>
      </trkpt>
      <trkpt lat="46.22574" lon="5.41728">
        <ele>313</ele>
        <time>2020-07-31T06:47:42.000Z</time>
      </trkpt>
      <trkpt lat="46.22579" lon="5.41731">
        <ele>313</ele>
        <time>2020-07-31T06:47:43.000Z</time>
      </trkpt>
      <trkpt lat="46.2259" lon="5.41734">
        <ele>313</ele>
        <time>2020-07-31T06:47:45.000Z</time>
      </trkpt>
      <trkpt lat="46.22595" lon="5.41735">
        <ele>313</ele>
        <time>2020-07-31T06:47:46.000Z</time>
      </trkpt>
      <trkpt lat="46.226" lon="5.41735">
        <ele>313.20001220703</ele>
        <time>2020-07-31T06:47:47.000Z</time>
      </trkpt>
      <trkpt lat="46.22611" lon="5.41737">
        <ele>313.20001220703</ele>
        <time>2020-07-31T06:47:49.000Z</time>
      </trkpt>
      <trkpt lat="46.22621" lon="5.41739">
        <ele>313.60000610352</ele>
        <time>2020-07-31T06:47:51.000Z</time>
      </trkpt>
      <trkpt lat="46.22631" lon="5.41741">
        <ele>314.20001220703</ele>
        <time>2020-07-31T06:47:53.000Z</time>
      </trkpt>
      <trkpt lat="46.22637" lon="5.41741">
        <ele>314.39999389648</ele>
        <time>2020-07-31T06:47:54.000Z</time>
      </trkpt>
      <trkpt lat="46.22642" lon="5.41742">
        <ele>314.60000610352</ele>
        <time>2020-07-31T06:47:55.000Z</time>
      </trkpt>
      <trkpt lat="46.22653" lon="5.41744">
        <ele>315.20001220703</ele>
        <time>2020-07-31T06:47:57.000Z</time>
      </trkpt>
      <trkpt lat="46.22658" lon="5.41744">
        <ele>315.39999389648</ele>
        <time>2020-07-31T06:47:58.000Z</time>
      </trkpt>
      <trkpt lat="46.22663" lon="5.41745">
        <ele>315.60000610352</ele>
        <time>2020-07-31T06:47:59.000Z</time>
      </trkpt>
      <trkpt lat="46.22674" lon="5.41746">
        <ele>316.20001220703</ele>
        <time>2020-07-31T06:48:01.000Z</time>
      </trkpt>
      <trkpt lat="46.22685" lon="5.41747">
        <ele>316.39999389648</ele>
        <time>2020-07-31T06:48:03.000Z</time>
      </trkpt>
      <trkpt lat="46.22696" lon="5.41748">
        <ele>316.79998779297</ele>
        <time>2020-07-31T06:48:05.000Z</time>
      </trkpt>
      <trkpt lat="46.22706" lon="5.41748">
        <ele>317.20001220703</ele>
        <time>2020-07-31T06:48:07.000Z</time>
      </trkpt>
      <trkpt lat="46.22717" lon="5.41749">
        <ele>317.39999389648</ele>
        <time>2020-07-31T06:48:09.000Z</time>
      </trkpt>
      <trkpt lat="46.22728" lon="5.41749">
        <ele>317.39999389648</ele>
        <time>2020-07-31T06:48:11.000Z</time>
      </trkpt>
      <trkpt lat="46.22739" lon="5.41749">
        <ele>317.39999389648</ele>
        <time>2020-07-31T06:48:13.000Z</time>
      </trkpt>
      <trkpt lat="46.2275" lon="5.4175">
        <ele>317.39999389648</ele>
        <time>2020-07-31T06:48:15.000Z</time>
      </trkpt>
      <trkpt lat="46.22762" lon="5.41752">
        <ele>317.39999389648</ele>
        <time>2020-07-31T06:48:17.000Z</time>
      </trkpt>
      <trkpt lat="46.22773" lon="5.41754">
        <ele>317.39999389648</ele>
        <time>2020-07-31T06:48:19.000Z</time>
      </trkpt>
      <trkpt lat="46.22778" lon="5.41755">
        <ele>317.39999389648</ele>
        <time>2020-07-31T06:48:20.000Z</time>
      </trkpt>
      <trkpt lat="46.22784" lon="5.41756">
        <ele>317.39999389648</ele>
        <time>2020-07-31T06:48:21.000Z</time>
      </trkpt>
      <trkpt lat="46.22795" lon="5.41758">
        <ele>317.39999389648</ele>
        <time>2020-07-31T06:48:23.000Z</time>
      </trkpt>
      <trkpt lat="46.22801" lon="5.41759">
        <ele>317.39999389648</ele>
        <time>2020-07-31T06:48:24.000Z</time>
      </trkpt>
      <trkpt lat="46.22807" lon="5.41761">
        <ele>317.60000610352</ele>
        <time>2020-07-31T06:48:25.000Z</time>
      </trkpt>
      <trkpt lat="46.22819" lon="5.41763">
        <ele>317.60000610352</ele>
        <time>2020-07-31T06:48:27.000Z</time>
      </trkpt>
      <trkpt lat="46.22831" lon="5.41765">
        <ele>317.60000610352</ele>
        <time>2020-07-31T06:48:29.000Z</time>
      </trkpt>
      <trkpt lat="46.22843" lon="5.41767">
        <ele>317.60000610352</ele>
        <time>2020-07-31T06:48:31.000Z</time>
      </trkpt>
      <trkpt lat="46.22855" lon="5.4177">
        <ele>317.39999389648</ele>
        <time>2020-07-31T06:48:33.000Z</time>
      </trkpt>
      <trkpt lat="46.22861" lon="5.41771">
        <ele>317.39999389648</ele>
        <time>2020-07-31T06:48:34.000Z</time>
      </trkpt>
      <trkpt lat="46.22866" lon="5.41774">
        <ele>317.20001220703</ele>
        <time>2020-07-31T06:48:35.000Z</time>
      </trkpt>
      <trkpt lat="46.22872" lon="5.41777">
        <ele>317.20001220703</ele>
        <time>2020-07-31T06:48:36.000Z</time>
      </trkpt>
      <trkpt lat="46.22878" lon="5.41779">
        <ele>317.20001220703</ele>
        <time>2020-07-31T06:48:37.000Z</time>
      </trkpt>
      <trkpt lat="46.22888" lon="5.41786">
        <ele>317.20001220703</ele>
        <time>2020-07-31T06:48:39.000Z</time>
      </trkpt>
      <trkpt lat="46.22899" lon="5.41794">
        <ele>317.20001220703</ele>
        <time>2020-07-31T06:48:41.000Z</time>
      </trkpt>
      <trkpt lat="46.22904" lon="5.41798">
        <ele>317.20001220703</ele>
        <time>2020-07-31T06:48:42.000Z</time>
      </trkpt>
      <trkpt lat="46.2291" lon="5.41802">
        <ele>317.20001220703</ele>
        <time>2020-07-31T06:48:43.000Z</time>
      </trkpt>
      <trkpt lat="46.22921" lon="5.41811">
        <ele>317.20001220703</ele>
        <time>2020-07-31T06:48:45.000Z</time>
      </trkpt>
      <trkpt lat="46.22932" lon="5.41819">
        <ele>317.39999389648</ele>
        <time>2020-07-31T06:48:47.000Z</time>
      </trkpt>
      <trkpt lat="46.22943" lon="5.41828">
        <ele>317.39999389648</ele>
        <time>2020-07-31T06:48:49.000Z</time>
      </trkpt>
      <trkpt lat="46.22948" lon="5.41833">
        <ele>317.39999389648</ele>
        <time>2020-07-31T06:48:50.000Z</time>
      </trkpt>
      <trkpt lat="46.22954" lon="5.41838">
        <ele>317.39999389648</ele>
        <time>2020-07-31T06:48:51.000Z</time>
      </trkpt>
      <trkpt lat="46.22965" lon="5.41847">
        <ele>317.60000610352</ele>
        <time>2020-07-31T06:48:53.000Z</time>
      </trkpt>
      <trkpt lat="46.22976" lon="5.41857">
        <ele>317.60000610352</ele>
        <time>2020-07-31T06:48:55.000Z</time>
      </trkpt>
      <trkpt lat="46.22988" lon="5.41866">
        <ele>317.60000610352</ele>
        <time>2020-07-31T06:48:57.000Z</time>
      </trkpt>
      <trkpt lat="46.23" lon="5.41875">
        <ele>317.60000610352</ele>
        <time>2020-07-31T06:48:59.000Z</time>
      </trkpt>
      <trkpt lat="46.23012" lon="5.41883">
        <ele>317.60000610352</ele>
        <time>2020-07-31T06:49:01.000Z</time>
      </trkpt>
      <trkpt lat="46.23024" lon="5.41892">
        <ele>317.60000610352</ele>
        <time>2020-07-31T06:49:03.000Z</time>
      </trkpt>
      <trkpt lat="46.23036" lon="5.419">
        <ele>317.60000610352</ele>
        <time>2020-07-31T06:49:05.000Z</time>
      </trkpt>
      <trkpt lat="46.23049" lon="5.41908">
        <ele>317.60000610352</ele>
        <time>2020-07-31T06:49:07.000Z</time>
      </trkpt>
      <trkpt lat="46.23055" lon="5.41912">
        <ele>317.60000610352</ele>
        <time>2020-07-31T06:49:08.000Z</time>
      </trkpt>
      <trkpt lat="46.23061" lon="5.41916">
        <ele>317.60000610352</ele>
        <time>2020-07-31T06:49:09.000Z</time>
      </trkpt>
      <trkpt lat="46.23074" lon="5.41925">
        <ele>317.60000610352</ele>
        <time>2020-07-31T06:49:11.000Z</time>
      </trkpt>
      <trkpt lat="46.23086" lon="5.41933">
        <ele>317.60000610352</ele>
        <time>2020-07-31T06:49:13.000Z</time>
      </trkpt>
      <trkpt lat="46.23098" lon="5.41941">
        <ele>317.60000610352</ele>
        <time>2020-07-31T06:49:15.000Z</time>
      </trkpt>
      <trkpt lat="46.2311" lon="5.41948">
        <ele>317.60000610352</ele>
        <time>2020-07-31T06:49:17.000Z</time>
      </trkpt>
      <trkpt lat="46.23116" lon="5.41951">
        <ele>317.60000610352</ele>
        <time>2020-07-31T06:49:18.000Z</time>
      </trkpt>
      <trkpt lat="46.23122" lon="5.41955">
        <ele>317.60000610352</ele>
        <time>2020-07-31T06:49:19.000Z</time>
      </trkpt>
      <trkpt lat="46.23133" lon="5.41962">
        <ele>317.60000610352</ele>
        <time>2020-07-31T06:49:21.000Z</time>
      </trkpt>
      <trkpt lat="46.23145" lon="5.41969">
        <ele>317.79998779297</ele>
        <time>2020-07-31T06:49:23.000Z</time>
      </trkpt>
      <trkpt lat="46.23157" lon="5.41976">
        <ele>318.20001220703</ele>
        <time>2020-07-31T06:49:25.000Z</time>
      </trkpt>
      <trkpt lat="46.23168" lon="5.41982">
        <ele>318.60000610352</ele>
        <time>2020-07-31T06:49:27.000Z</time>
      </trkpt>
      <trkpt lat="46.2318" lon="5.41989">
        <ele>318.79998779297</ele>
        <time>2020-07-31T06:49:29.000Z</time>
      </trkpt>
      <trkpt lat="46.23186" lon="5.41992">
        <ele>318.79998779297</ele>
        <time>2020-07-31T06:49:30.000Z</time>
      </trkpt>
      <trkpt lat="46.23192" lon="5.41995">
        <ele>318.79998779297</ele>
        <time>2020-07-31T06:49:31.000Z</time>
      </trkpt>
      <trkpt lat="46.23203" lon="5.42002">
        <ele>319</ele>
        <time>2020-07-31T06:49:33.000Z</time>
      </trkpt>
      <trkpt lat="46.23214" lon="5.42008">
        <ele>319</ele>
        <time>2020-07-31T06:49:35.000Z</time>
      </trkpt>
      <trkpt lat="46.23225" lon="5.42015">
        <ele>319</ele>
        <time>2020-07-31T06:49:37.000Z</time>
      </trkpt>
      <trkpt lat="46.23231" lon="5.42019">
        <ele>319.20001220703</ele>
        <time>2020-07-31T06:49:38.000Z</time>
      </trkpt>
      <trkpt lat="46.23236" lon="5.42023">
        <ele>319.20001220703</ele>
        <time>2020-07-31T06:49:39.000Z</time>
      </trkpt>
      <trkpt lat="46.23247" lon="5.42031">
        <ele>319.39999389648</ele>
        <time>2020-07-31T06:49:41.000Z</time>
      </trkpt>
      <trkpt lat="46.23258" lon="5.42039">
        <ele>319.60000610352</ele>
        <time>2020-07-31T06:49:43.000Z</time>
      </trkpt>
      <trkpt lat="46.23268" lon="5.42048">
        <ele>319.79998779297</ele>
        <time>2020-07-31T06:49:45.000Z</time>
      </trkpt>
      <trkpt lat="46.23278" lon="5.42059">
        <ele>319.79998779297</ele>
        <time>2020-07-31T06:49:47.000Z</time>
      </trkpt>
      <trkpt lat="46.23288" lon="5.42069">
        <ele>320</ele>
        <time>2020-07-31T06:49:49.000Z</time>
      </trkpt>
      <trkpt lat="46.23298" lon="5.4208">
        <ele>320.20001220703</ele>
        <time>2020-07-31T06:49:51.000Z</time>
      </trkpt>
      <trkpt lat="46.23308" lon="5.42092">
        <ele>320.39999389648</ele>
        <time>2020-07-31T06:49:53.000Z</time>
      </trkpt>
      <trkpt lat="46.23318" lon="5.42104">
        <ele>320.60000610352</ele>
        <time>2020-07-31T06:49:55.000Z</time>
      </trkpt>
      <trkpt lat="46.23323" lon="5.42109">
        <ele>320.79998779297</ele>
        <time>2020-07-31T06:49:56.000Z</time>
      </trkpt>
      <trkpt lat="46.23328" lon="5.42115">
        <ele>321</ele>
        <time>2020-07-31T06:49:57.000Z</time>
      </trkpt>
      <trkpt lat="46.23338" lon="5.42126">
        <ele>321.20001220703</ele>
        <time>2020-07-31T06:49:59.000Z</time>
      </trkpt>
      <trkpt lat="46.2335" lon="5.42138">
        <ele>321.20001220703</ele>
        <time>2020-07-31T06:50:01.000Z</time>
      </trkpt>
      <trkpt lat="46.23362" lon="5.4215">
        <ele>321.20001220703</ele>
        <time>2020-07-31T06:50:03.000Z</time>
      </trkpt>
      <trkpt lat="46.23375" lon="5.42161">
        <ele>321.20001220703</ele>
        <time>2020-07-31T06:50:05.000Z</time>
      </trkpt>
      <trkpt lat="46.23389" lon="5.42173">
        <ele>321</ele>
        <time>2020-07-31T06:50:07.000Z</time>
      </trkpt>
      <trkpt lat="46.23402" lon="5.42185">
        <ele>320.79998779297</ele>
        <time>2020-07-31T06:50:09.000Z</time>
      </trkpt>
      <trkpt lat="46.23416" lon="5.42197">
        <ele>320.20001220703</ele>
        <time>2020-07-31T06:50:11.000Z</time>
      </trkpt>
      <trkpt lat="46.2343" lon="5.42209">
        <ele>319.79998779297</ele>
        <time>2020-07-31T06:50:13.000Z</time>
      </trkpt>
      <trkpt lat="46.23445" lon="5.42221">
        <ele>319.60000610352</ele>
        <time>2020-07-31T06:50:15.000Z</time>
      </trkpt>
      <trkpt lat="46.2346" lon="5.42232">
        <ele>319.20001220703</ele>
        <time>2020-07-31T06:50:17.000Z</time>
      </trkpt>
      <trkpt lat="46.23475" lon="5.42243">
        <ele>318.60000610352</ele>
        <time>2020-07-31T06:50:19.000Z</time>
      </trkpt>
      <trkpt lat="46.23483" lon="5.42247">
        <ele>318.39999389648</ele>
        <time>2020-07-31T06:50:20.000Z</time>
      </trkpt>
      <trkpt lat="46.2349" lon="5.42251">
        <ele>318.20001220703</ele>
        <time>2020-07-31T06:50:21.000Z</time>
      </trkpt>
      <trkpt lat="46.23505" lon="5.42257">
        <ele>317.60000610352</ele>
        <time>2020-07-31T06:50:23.000Z</time>
      </trkpt>
      <trkpt lat="46.2352" lon="5.42262">
        <ele>317.39999389648</ele>
        <time>2020-07-31T06:50:25.000Z</time>
      </trkpt>
      <trkpt lat="46.23527" lon="5.42264">
        <ele>317.39999389648</ele>
        <time>2020-07-31T06:50:26.000Z</time>
      </trkpt>
      <trkpt lat="46.23535" lon="5.42267">
        <ele>317.39999389648</ele>
        <time>2020-07-31T06:50:27.000Z</time>
      </trkpt>
      <trkpt lat="46.23549" lon="5.42272">
        <ele>317.39999389648</ele>
        <time>2020-07-31T06:50:29.000Z</time>
      </trkpt>
      <trkpt lat="46.23564" lon="5.42277">
        <ele>317.39999389648</ele>
        <time>2020-07-31T06:50:31.000Z</time>
      </trkpt>
      <trkpt lat="46.23578" lon="5.42283">
        <ele>317.39999389648</ele>
        <time>2020-07-31T06:50:33.000Z</time>
      </trkpt>
      <trkpt lat="46.23592" lon="5.42289">
        <ele>317.60000610352</ele>
        <time>2020-07-31T06:50:35.000Z</time>
      </trkpt>
      <trkpt lat="46.23606" lon="5.42295">
        <ele>317.60000610352</ele>
        <time>2020-07-31T06:50:37.000Z</time>
      </trkpt>
      <trkpt lat="46.23621" lon="5.42301">
        <ele>317.60000610352</ele>
        <time>2020-07-31T06:50:39.000Z</time>
      </trkpt>
      <trkpt lat="46.23636" lon="5.42307">
        <ele>317.60000610352</ele>
        <time>2020-07-31T06:50:41.000Z</time>
      </trkpt>
      <trkpt lat="46.23651" lon="5.42313">
        <ele>317.60000610352</ele>
        <time>2020-07-31T06:50:43.000Z</time>
      </trkpt>
      <trkpt lat="46.23666" lon="5.4232">
        <ele>317.60000610352</ele>
        <time>2020-07-31T06:50:45.000Z</time>
      </trkpt>
      <trkpt lat="46.23681" lon="5.42327">
        <ele>317.39999389648</ele>
        <time>2020-07-31T06:50:47.000Z</time>
      </trkpt>
      <trkpt lat="46.23696" lon="5.42333">
        <ele>317</ele>
        <time>2020-07-31T06:50:49.000Z</time>
      </trkpt>
      <trkpt lat="46.23711" lon="5.42339">
        <ele>316.79998779297</ele>
        <time>2020-07-31T06:50:51.000Z</time>
      </trkpt>
      <trkpt lat="46.23726" lon="5.42345">
        <ele>316.39999389648</ele>
        <time>2020-07-31T06:50:53.000Z</time>
      </trkpt>
      <trkpt lat="46.23742" lon="5.42349">
        <ele>316</ele>
        <time>2020-07-31T06:50:55.000Z</time>
      </trkpt>
      <trkpt lat="46.23758" lon="5.42353">
        <ele>315.39999389648</ele>
        <time>2020-07-31T06:50:57.000Z</time>
      </trkpt>
      <trkpt lat="46.23774" lon="5.42355">
        <ele>315.20001220703</ele>
        <time>2020-07-31T06:50:59.000Z</time>
      </trkpt>
      <trkpt lat="46.23789" lon="5.42357">
        <ele>315.20001220703</ele>
        <time>2020-07-31T06:51:01.000Z</time>
      </trkpt>
      <trkpt lat="46.23804" lon="5.42358">
        <ele>315</ele>
        <time>2020-07-31T06:51:03.000Z</time>
      </trkpt>
      <trkpt lat="46.23819" lon="5.42359">
        <ele>314.79998779297</ele>
        <time>2020-07-31T06:51:05.000Z</time>
      </trkpt>
      <trkpt lat="46.23834" lon="5.42359">
        <ele>314.60000610352</ele>
        <time>2020-07-31T06:51:07.000Z</time>
      </trkpt>
      <trkpt lat="46.23848" lon="5.42356">
        <ele>314.39999389648</ele>
        <time>2020-07-31T06:51:09.000Z</time>
      </trkpt>
      <trkpt lat="46.23863" lon="5.42351">
        <ele>314.20001220703</ele>
        <time>2020-07-31T06:51:11.000Z</time>
      </trkpt>
      <trkpt lat="46.2387" lon="5.42349">
        <ele>314.20001220703</ele>
        <time>2020-07-31T06:51:12.000Z</time>
      </trkpt>
      <trkpt lat="46.23878" lon="5.42346">
        <ele>314</ele>
        <time>2020-07-31T06:51:13.000Z</time>
      </trkpt>
      <trkpt lat="46.23892" lon="5.4234">
        <ele>314</ele>
        <time>2020-07-31T06:51:15.000Z</time>
      </trkpt>
      <trkpt lat="46.23906" lon="5.42335">
        <ele>314</ele>
        <time>2020-07-31T06:51:17.000Z</time>
      </trkpt>
      <trkpt lat="46.23921" lon="5.42331">
        <ele>314</ele>
        <time>2020-07-31T06:51:19.000Z</time>
      </trkpt>
      <trkpt lat="46.23928" lon="5.4233">
        <ele>314</ele>
        <time>2020-07-31T06:51:20.000Z</time>
      </trkpt>
      <trkpt lat="46.23936" lon="5.42329">
        <ele>314</ele>
        <time>2020-07-31T06:51:21.000Z</time>
      </trkpt>
      <trkpt lat="46.2395" lon="5.42328">
        <ele>314.20001220703</ele>
        <time>2020-07-31T06:51:23.000Z</time>
      </trkpt>
      <trkpt lat="46.23964" lon="5.42327">
        <ele>314.39999389648</ele>
        <time>2020-07-31T06:51:25.000Z</time>
      </trkpt>
      <trkpt lat="46.23971" lon="5.42326">
        <ele>314.60000610352</ele>
        <time>2020-07-31T06:51:26.000Z</time>
      </trkpt>
      <trkpt lat="46.23978" lon="5.42326">
        <ele>314.60000610352</ele>
        <time>2020-07-31T06:51:27.000Z</time>
      </trkpt>
      <trkpt lat="46.23993" lon="5.42327">
        <ele>314.79998779297</ele>
        <time>2020-07-31T06:51:29.000Z</time>
      </trkpt>
      <trkpt lat="46.24007" lon="5.42328">
        <ele>315</ele>
        <time>2020-07-31T06:51:31.000Z</time>
      </trkpt>
      <trkpt lat="46.24014" lon="5.42328">
        <ele>315.20001220703</ele>
        <time>2020-07-31T06:51:32.000Z</time>
      </trkpt>
      <trkpt lat="46.24021" lon="5.42328">
        <ele>315</ele>
        <time>2020-07-31T06:51:33.000Z</time>
      </trkpt>
      <trkpt lat="46.24028" lon="5.42329">
        <ele>315.20001220703</ele>
        <time>2020-07-31T06:51:34.000Z</time>
      </trkpt>
      <trkpt lat="46.24034" lon="5.42329">
        <ele>315.20001220703</ele>
        <time>2020-07-31T06:51:35.000Z</time>
      </trkpt>
      <trkpt lat="46.24048" lon="5.42329">
        <ele>315.39999389648</ele>
        <time>2020-07-31T06:51:37.000Z</time>
      </trkpt>
      <trkpt lat="46.24061" lon="5.42328">
        <ele>315.60000610352</ele>
        <time>2020-07-31T06:51:39.000Z</time>
      </trkpt>
      <trkpt lat="46.24074" lon="5.42326">
        <ele>315.79998779297</ele>
        <time>2020-07-31T06:51:41.000Z</time>
      </trkpt>
      <trkpt lat="46.24086" lon="5.42322">
        <ele>316</ele>
        <time>2020-07-31T06:51:43.000Z</time>
      </trkpt>
      <trkpt lat="46.24092" lon="5.4232">
        <ele>316</ele>
        <time>2020-07-31T06:51:44.000Z</time>
      </trkpt>
      <trkpt lat="46.24098" lon="5.42318">
        <ele>316.20001220703</ele>
        <time>2020-07-31T06:51:45.000Z</time>
      </trkpt>
      <trkpt lat="46.24109" lon="5.42313">
        <ele>317</ele>
        <time>2020-07-31T06:51:47.000Z</time>
      </trkpt>
      <trkpt lat="46.24115" lon="5.42311">
        <ele>317.20001220703</ele>
        <time>2020-07-31T06:51:48.000Z</time>
      </trkpt>
      <trkpt lat="46.2412" lon="5.42309">
        <ele>317.39999389648</ele>
        <time>2020-07-31T06:51:49.000Z</time>
      </trkpt>
      <trkpt lat="46.24131" lon="5.42306">
        <ele>317.79998779297</ele>
        <time>2020-07-31T06:51:51.000Z</time>
      </trkpt>
      <trkpt lat="46.24141" lon="5.42304">
        <ele>318.20001220703</ele>
        <time>2020-07-31T06:51:53.000Z</time>
      </trkpt>
      <trkpt lat="46.24152" lon="5.42302">
        <ele>318.60000610352</ele>
        <time>2020-07-31T06:51:55.000Z</time>
      </trkpt>
      <trkpt lat="46.24157" lon="5.42302">
        <ele>318.79998779297</ele>
        <time>2020-07-31T06:51:56.000Z</time>
      </trkpt>
      <trkpt lat="46.24163" lon="5.42303">
        <ele>319.20001220703</ele>
        <time>2020-07-31T06:51:57.000Z</time>
      </trkpt>
      <trkpt lat="46.24168" lon="5.42303">
        <ele>319.20001220703</ele>
        <time>2020-07-31T06:51:58.000Z</time>
      </trkpt>
      <trkpt lat="46.24173" lon="5.42304">
        <ele>319.60000610352</ele>
        <time>2020-07-31T06:51:59.000Z</time>
      </trkpt>
      <trkpt lat="46.24183" lon="5.42305">
        <ele>320</ele>
        <time>2020-07-31T06:52:01.000Z</time>
      </trkpt>
      <trkpt lat="46.24188" lon="5.42306">
        <ele>320.20001220703</ele>
        <time>2020-07-31T06:52:02.000Z</time>
      </trkpt>
      <trkpt lat="46.24194" lon="5.42306">
        <ele>320.20001220703</ele>
        <time>2020-07-31T06:52:03.000Z</time>
      </trkpt>
      <trkpt lat="46.24199" lon="5.42307">
        <ele>320.39999389648</ele>
        <time>2020-07-31T06:52:04.000Z</time>
      </trkpt>
      <trkpt lat="46.24204" lon="5.42307">
        <ele>320.39999389648</ele>
        <time>2020-07-31T06:52:05.000Z</time>
      </trkpt>
      <trkpt lat="46.24216" lon="5.42307">
        <ele>320.60000610352</ele>
        <time>2020-07-31T06:52:07.000Z</time>
      </trkpt>
      <trkpt lat="46.24221" lon="5.42307">
        <ele>320.60000610352</ele>
        <time>2020-07-31T06:52:08.000Z</time>
      </trkpt>
      <trkpt lat="46.24227" lon="5.42306">
        <ele>320.60000610352</ele>
        <time>2020-07-31T06:52:09.000Z</time>
      </trkpt>
      <trkpt lat="46.24239" lon="5.42306">
        <ele>320.60000610352</ele>
        <time>2020-07-31T06:52:11.000Z</time>
      </trkpt>
      <trkpt lat="46.2425" lon="5.42306">
        <ele>320.60000610352</ele>
        <time>2020-07-31T06:52:13.000Z</time>
      </trkpt>
      <trkpt lat="46.24257" lon="5.42306">
        <ele>320.60000610352</ele>
        <time>2020-07-31T06:52:14.000Z</time>
      </trkpt>
      <trkpt lat="46.24263" lon="5.42305">
        <ele>320.60000610352</ele>
        <time>2020-07-31T06:52:15.000Z</time>
      </trkpt>
      <trkpt lat="46.24274" lon="5.42304">
        <ele>320.79998779297</ele>
        <time>2020-07-31T06:52:17.000Z</time>
      </trkpt>
      <trkpt lat="46.24287" lon="5.42303">
        <ele>321</ele>
        <time>2020-07-31T06:52:19.000Z</time>
      </trkpt>
      <trkpt lat="46.24292" lon="5.42303">
        <ele>321</ele>
        <time>2020-07-31T06:52:20.000Z</time>
      </trkpt>
      <trkpt lat="46.24298" lon="5.42303">
        <ele>321</ele>
        <time>2020-07-31T06:52:21.000Z</time>
      </trkpt>
      <trkpt lat="46.2431" lon="5.42302">
        <ele>321</ele>
        <time>2020-07-31T06:52:23.000Z</time>
      </trkpt>
      <trkpt lat="46.24322" lon="5.42301">
        <ele>321.20001220703</ele>
        <time>2020-07-31T06:52:25.000Z</time>
      </trkpt>
      <trkpt lat="46.24336" lon="5.42299">
        <ele>321.39999389648</ele>
        <time>2020-07-31T06:52:27.000Z</time>
      </trkpt>
      <trkpt lat="46.24342" lon="5.42299">
        <ele>321.39999389648</ele>
        <time>2020-07-31T06:52:28.000Z</time>
      </trkpt>
      <trkpt lat="46.24348" lon="5.42299">
        <ele>321.39999389648</ele>
        <time>2020-07-31T06:52:29.000Z</time>
      </trkpt>
      <trkpt lat="46.2436" lon="5.42299">
        <ele>321.60000610352</ele>
        <time>2020-07-31T06:52:31.000Z</time>
      </trkpt>
      <trkpt lat="46.24373" lon="5.42299">
        <ele>321.60000610352</ele>
        <time>2020-07-31T06:52:33.000Z</time>
      </trkpt>
      <trkpt lat="46.24387" lon="5.42299">
        <ele>321.60000610352</ele>
        <time>2020-07-31T06:52:35.000Z</time>
      </trkpt>
      <trkpt lat="46.24401" lon="5.42298">
        <ele>321.60000610352</ele>
        <time>2020-07-31T06:52:37.000Z</time>
      </trkpt>
      <trkpt lat="46.24416" lon="5.42298">
        <ele>321.60000610352</ele>
        <time>2020-07-31T06:52:39.000Z</time>
      </trkpt>
      <trkpt lat="46.24431" lon="5.42298">
        <ele>321.60000610352</ele>
        <time>2020-07-31T06:52:41.000Z</time>
      </trkpt>
      <trkpt lat="46.24439" lon="5.42298">
        <ele>321.60000610352</ele>
        <time>2020-07-31T06:52:42.000Z</time>
      </trkpt>
      <trkpt lat="46.24447" lon="5.42298">
        <ele>321.60000610352</ele>
        <time>2020-07-31T06:52:43.000Z</time>
      </trkpt>
      <trkpt lat="46.24463" lon="5.42299">
        <ele>321</ele>
        <time>2020-07-31T06:52:45.000Z</time>
      </trkpt>
      <trkpt lat="46.24478" lon="5.423">
        <ele>320.60000610352</ele>
        <time>2020-07-31T06:52:47.000Z</time>
      </trkpt>
      <trkpt lat="46.24492" lon="5.42302">
        <ele>320.39999389648</ele>
        <time>2020-07-31T06:52:49.000Z</time>
      </trkpt>
      <trkpt lat="46.24506" lon="5.42304">
        <ele>320.20001220703</ele>
        <time>2020-07-31T06:52:51.000Z</time>
      </trkpt>
      <trkpt lat="46.2452" lon="5.42308">
        <ele>320.20001220703</ele>
        <time>2020-07-31T06:52:53.000Z</time>
      </trkpt>
      <trkpt lat="46.24533" lon="5.42312">
        <ele>320</ele>
        <time>2020-07-31T06:52:55.000Z</time>
      </trkpt>
      <trkpt lat="46.24548" lon="5.42315">
        <ele>319.60000610352</ele>
        <time>2020-07-31T06:52:57.000Z</time>
      </trkpt>
      <trkpt lat="46.24562" lon="5.42318">
        <ele>319.60000610352</ele>
        <time>2020-07-31T06:52:59.000Z</time>
      </trkpt>
      <trkpt lat="46.24576" lon="5.42322">
        <ele>319.39999389648</ele>
        <time>2020-07-31T06:53:01.000Z</time>
      </trkpt>
      <trkpt lat="46.24583" lon="5.42324">
        <ele>319.39999389648</ele>
        <time>2020-07-31T06:53:02.000Z</time>
      </trkpt>
      <trkpt lat="46.2459" lon="5.42326">
        <ele>319.39999389648</ele>
        <time>2020-07-31T06:53:03.000Z</time>
      </trkpt>
      <trkpt lat="46.24603" lon="5.42329">
        <ele>319.39999389648</ele>
        <time>2020-07-31T06:53:05.000Z</time>
      </trkpt>
      <trkpt lat="46.24614" lon="5.42332">
        <ele>319.39999389648</ele>
        <time>2020-07-31T06:53:07.000Z</time>
      </trkpt>
      <trkpt lat="46.24619" lon="5.42334">
        <ele>319.39999389648</ele>
        <time>2020-07-31T06:53:08.000Z</time>
      </trkpt>
      <trkpt lat="46.24623" lon="5.42335">
        <ele>319.39999389648</ele>
        <time>2020-07-31T06:53:09.000Z</time>
      </trkpt>
      <trkpt lat="46.24631" lon="5.42341">
        <ele>319.39999389648</ele>
        <time>2020-07-31T06:53:11.000Z</time>
      </trkpt>
      <trkpt lat="46.24634" lon="5.42344">
        <ele>319.60000610352</ele>
        <time>2020-07-31T06:53:13.000Z</time>
      </trkpt>
      <trkpt lat="46.24636" lon="5.42346">
        <ele>319.79998779297</ele>
        <time>2020-07-31T06:53:15.000Z</time>
      </trkpt>
      <trkpt lat="46.24637" lon="5.42348">
        <ele>320.20001220703</ele>
        <time>2020-07-31T06:53:16.000Z</time>
      </trkpt>
      <trkpt lat="46.24639" lon="5.42349">
        <ele>320.39999389648</ele>
        <time>2020-07-31T06:53:17.000Z</time>
      </trkpt>
      <trkpt lat="46.24642" lon="5.42348">
        <ele>320.60000610352</ele>
        <time>2020-07-31T06:53:18.000Z</time>
      </trkpt>
      <trkpt lat="46.24644" lon="5.42345">
        <ele>320.79998779297</ele>
        <time>2020-07-31T06:53:19.000Z</time>
      </trkpt>
      <trkpt lat="46.24648" lon="5.42342">
        <ele>321.20001220703</ele>
        <time>2020-07-31T06:53:20.000Z</time>
      </trkpt>
      <trkpt lat="46.24651" lon="5.42341">
        <ele>321.39999389648</ele>
        <time>2020-07-31T06:53:21.000Z</time>
      </trkpt>
      <trkpt lat="46.24656" lon="5.42341">
        <ele>321.39999389648</ele>
        <time>2020-07-31T06:53:22.000Z</time>
      </trkpt>
      <trkpt lat="46.24661" lon="5.42342">
        <ele>321.39999389648</ele>
        <time>2020-07-31T06:53:23.000Z</time>
      </trkpt>
      <trkpt lat="46.24667" lon="5.42343">
        <ele>321.60000610352</ele>
        <time>2020-07-31T06:53:24.000Z</time>
      </trkpt>
      <trkpt lat="46.24672" lon="5.42343">
        <ele>321.60000610352</ele>
        <time>2020-07-31T06:53:25.000Z</time>
      </trkpt>
      <trkpt lat="46.24679" lon="5.42344">
        <ele>321.60000610352</ele>
        <time>2020-07-31T06:53:26.000Z</time>
      </trkpt>
      <trkpt lat="46.24685" lon="5.42345">
        <ele>321.60000610352</ele>
        <time>2020-07-31T06:53:27.000Z</time>
      </trkpt>
      <trkpt lat="46.24699" lon="5.42346">
        <ele>321.39999389648</ele>
        <time>2020-07-31T06:53:29.000Z</time>
      </trkpt>
      <trkpt lat="46.24713" lon="5.42348">
        <ele>321</ele>
        <time>2020-07-31T06:53:31.000Z</time>
      </trkpt>
      <trkpt lat="46.2472" lon="5.42349">
        <ele>320.60000610352</ele>
        <time>2020-07-31T06:53:32.000Z</time>
      </trkpt>
      <trkpt lat="46.24728" lon="5.4235">
        <ele>320.39999389648</ele>
        <time>2020-07-31T06:53:33.000Z</time>
      </trkpt>
      <trkpt lat="46.24735" lon="5.42351">
        <ele>320.20001220703</ele>
        <time>2020-07-31T06:53:34.000Z</time>
      </trkpt>
      <trkpt lat="46.24742" lon="5.42352">
        <ele>320</ele>
        <time>2020-07-31T06:53:35.000Z</time>
      </trkpt>
      <trkpt lat="46.24756" lon="5.42354">
        <ele>319.79998779297</ele>
        <time>2020-07-31T06:53:37.000Z</time>
      </trkpt>
      <trkpt lat="46.2477" lon="5.42355">
        <ele>319.60000610352</ele>
        <time>2020-07-31T06:53:39.000Z</time>
      </trkpt>
      <trkpt lat="46.24784" lon="5.42357">
        <ele>319.20001220703</ele>
        <time>2020-07-31T06:53:41.000Z</time>
      </trkpt>
      <trkpt lat="46.24798" lon="5.42359">
        <ele>319.20001220703</ele>
        <time>2020-07-31T06:53:43.000Z</time>
      </trkpt>
      <trkpt lat="46.24813" lon="5.42361">
        <ele>319.20001220703</ele>
        <time>2020-07-31T06:53:45.000Z</time>
      </trkpt>
      <trkpt lat="46.24827" lon="5.42364">
        <ele>319.20001220703</ele>
        <time>2020-07-31T06:53:47.000Z</time>
      </trkpt>
      <trkpt lat="46.24841" lon="5.42366">
        <ele>319.39999389648</ele>
        <time>2020-07-31T06:53:49.000Z</time>
      </trkpt>
      <trkpt lat="46.24855" lon="5.42369">
        <ele>319.39999389648</ele>
        <time>2020-07-31T06:53:51.000Z</time>
      </trkpt>
      <trkpt lat="46.24869" lon="5.4237">
        <ele>319.39999389648</ele>
        <time>2020-07-31T06:53:53.000Z</time>
      </trkpt>
      <trkpt lat="46.24876" lon="5.42371">
        <ele>319.39999389648</ele>
        <time>2020-07-31T06:53:54.000Z</time>
      </trkpt>
      <trkpt lat="46.24883" lon="5.42372">
        <ele>319.60000610352</ele>
        <time>2020-07-31T06:53:55.000Z</time>
      </trkpt>
      <trkpt lat="46.24896" lon="5.42374">
        <ele>319.60000610352</ele>
        <time>2020-07-31T06:53:57.000Z</time>
      </trkpt>
      <trkpt lat="46.2491" lon="5.42376">
        <ele>319.39999389648</ele>
        <time>2020-07-31T06:53:59.000Z</time>
      </trkpt>
      <trkpt lat="46.24924" lon="5.42377">
        <ele>319.60000610352</ele>
        <time>2020-07-31T06:54:01.000Z</time>
      </trkpt>
      <trkpt lat="46.24938" lon="5.42379">
        <ele>319.60000610352</ele>
        <time>2020-07-31T06:54:03.000Z</time>
      </trkpt>
      <trkpt lat="46.24945" lon="5.4238">
        <ele>319.60000610352</ele>
        <time>2020-07-31T06:54:04.000Z</time>
      </trkpt>
      <trkpt lat="46.24952" lon="5.4238">
        <ele>319.79998779297</ele>
        <time>2020-07-31T06:54:05.000Z</time>
      </trkpt>
      <trkpt lat="46.24965" lon="5.42382">
        <ele>319.39999389648</ele>
        <time>2020-07-31T06:54:07.000Z</time>
      </trkpt>
      <trkpt lat="46.24979" lon="5.42383">
        <ele>319.39999389648</ele>
        <time>2020-07-31T06:54:09.000Z</time>
      </trkpt>
      <trkpt lat="46.24993" lon="5.42385">
        <ele>319.39999389648</ele>
        <time>2020-07-31T06:54:11.000Z</time>
      </trkpt>
      <trkpt lat="46.25007" lon="5.42387">
        <ele>319.39999389648</ele>
        <time>2020-07-31T06:54:13.000Z</time>
      </trkpt>
      <trkpt lat="46.25021" lon="5.42388">
        <ele>319.39999389648</ele>
        <time>2020-07-31T06:54:15.000Z</time>
      </trkpt>
      <trkpt lat="46.25035" lon="5.4239">
        <ele>319.39999389648</ele>
        <time>2020-07-31T06:54:17.000Z</time>
      </trkpt>
      <trkpt lat="46.25049" lon="5.42391">
        <ele>319.39999389648</ele>
        <time>2020-07-31T06:54:19.000Z</time>
      </trkpt>
      <trkpt lat="46.25063" lon="5.42393">
        <ele>319.20001220703</ele>
        <time>2020-07-31T06:54:21.000Z</time>
      </trkpt>
      <trkpt lat="46.25077" lon="5.42395">
        <ele>319.60000610352</ele>
        <time>2020-07-31T06:54:23.000Z</time>
      </trkpt>
      <trkpt lat="46.25091" lon="5.42396">
        <ele>319.60000610352</ele>
        <time>2020-07-31T06:54:25.000Z</time>
      </trkpt>
      <trkpt lat="46.25098" lon="5.42397">
        <ele>319.60000610352</ele>
        <time>2020-07-31T06:54:26.000Z</time>
      </trkpt>
      <trkpt lat="46.25105" lon="5.42398">
        <ele>319.39999389648</ele>
        <time>2020-07-31T06:54:27.000Z</time>
      </trkpt>
      <trkpt lat="46.25119" lon="5.424">
        <ele>319.60000610352</ele>
        <time>2020-07-31T06:54:29.000Z</time>
      </trkpt>
      <trkpt lat="46.25133" lon="5.42402">
        <ele>319.60000610352</ele>
        <time>2020-07-31T06:54:31.000Z</time>
      </trkpt>
      <trkpt lat="46.25147" lon="5.42403">
        <ele>319.79998779297</ele>
        <time>2020-07-31T06:54:33.000Z</time>
      </trkpt>
      <trkpt lat="46.2516" lon="5.42405">
        <ele>319.79998779297</ele>
        <time>2020-07-31T06:54:35.000Z</time>
      </trkpt>
      <trkpt lat="46.25174" lon="5.42407">
        <ele>319.79998779297</ele>
        <time>2020-07-31T06:54:37.000Z</time>
      </trkpt>
      <trkpt lat="46.25188" lon="5.42408">
        <ele>319.79998779297</ele>
        <time>2020-07-31T06:54:39.000Z</time>
      </trkpt>
      <trkpt lat="46.25201" lon="5.4241">
        <ele>319.79998779297</ele>
        <time>2020-07-31T06:54:41.000Z</time>
      </trkpt>
      <trkpt lat="46.25215" lon="5.42412">
        <ele>319.79998779297</ele>
        <time>2020-07-31T06:54:43.000Z</time>
      </trkpt>
      <trkpt lat="46.25228" lon="5.42414">
        <ele>319.60000610352</ele>
        <time>2020-07-31T06:54:45.000Z</time>
      </trkpt>
      <trkpt lat="46.25242" lon="5.42417">
        <ele>319.79998779297</ele>
        <time>2020-07-31T06:54:47.000Z</time>
      </trkpt>
      <trkpt lat="46.25255" lon="5.42419">
        <ele>319.79998779297</ele>
        <time>2020-07-31T06:54:49.000Z</time>
      </trkpt>
      <trkpt lat="46.25269" lon="5.42421">
        <ele>320</ele>
        <time>2020-07-31T06:54:51.000Z</time>
      </trkpt>
      <trkpt lat="46.25284" lon="5.42423">
        <ele>319.79998779297</ele>
        <time>2020-07-31T06:54:53.000Z</time>
      </trkpt>
      <trkpt lat="46.25298" lon="5.42426">
        <ele>320</ele>
        <time>2020-07-31T06:54:55.000Z</time>
      </trkpt>
      <trkpt lat="46.25313" lon="5.42429">
        <ele>319.79998779297</ele>
        <time>2020-07-31T06:54:57.000Z</time>
      </trkpt>
      <trkpt lat="46.2532" lon="5.4243">
        <ele>319.79998779297</ele>
        <time>2020-07-31T06:54:58.000Z</time>
      </trkpt>
      <trkpt lat="46.25328" lon="5.42431">
        <ele>319.79998779297</ele>
        <time>2020-07-31T06:54:59.000Z</time>
      </trkpt>
      <trkpt lat="46.25343" lon="5.42434">
        <ele>319.39999389648</ele>
        <time>2020-07-31T06:55:01.000Z</time>
      </trkpt>
      <trkpt lat="46.25357" lon="5.42436">
        <ele>319.20001220703</ele>
        <time>2020-07-31T06:55:03.000Z</time>
      </trkpt>
      <trkpt lat="46.25372" lon="5.42438">
        <ele>319.20001220703</ele>
        <time>2020-07-31T06:55:05.000Z</time>
      </trkpt>
      <trkpt lat="46.25387" lon="5.42441">
        <ele>319.20001220703</ele>
        <time>2020-07-31T06:55:07.000Z</time>
      </trkpt>
      <trkpt lat="46.25402" lon="5.42443">
        <ele>319</ele>
        <time>2020-07-31T06:55:09.000Z</time>
      </trkpt>
      <trkpt lat="46.2541" lon="5.42444">
        <ele>319</ele>
        <time>2020-07-31T06:55:10.000Z</time>
      </trkpt>
      <trkpt lat="46.25417" lon="5.42446">
        <ele>319</ele>
        <time>2020-07-31T06:55:11.000Z</time>
      </trkpt>
      <trkpt lat="46.25432" lon="5.42448">
        <ele>319</ele>
        <time>2020-07-31T06:55:13.000Z</time>
      </trkpt>
      <trkpt lat="46.25447" lon="5.4245">
        <ele>319</ele>
        <time>2020-07-31T06:55:15.000Z</time>
      </trkpt>
      <trkpt lat="46.25461" lon="5.42453">
        <ele>319</ele>
        <time>2020-07-31T06:55:17.000Z</time>
      </trkpt>
      <trkpt lat="46.25476" lon="5.42455">
        <ele>319</ele>
        <time>2020-07-31T06:55:19.000Z</time>
      </trkpt>
      <trkpt lat="46.25491" lon="5.42458">
        <ele>319</ele>
        <time>2020-07-31T06:55:21.000Z</time>
      </trkpt>
      <trkpt lat="46.25506" lon="5.4246">
        <ele>319.20001220703</ele>
        <time>2020-07-31T06:55:23.000Z</time>
      </trkpt>
      <trkpt lat="46.2552" lon="5.42462">
        <ele>319.20001220703</ele>
        <time>2020-07-31T06:55:25.000Z</time>
      </trkpt>
      <trkpt lat="46.25535" lon="5.42465">
        <ele>319.20001220703</ele>
        <time>2020-07-31T06:55:27.000Z</time>
      </trkpt>
      <trkpt lat="46.2555" lon="5.42467">
        <ele>319.20001220703</ele>
        <time>2020-07-31T06:55:29.000Z</time>
      </trkpt>
      <trkpt lat="46.25565" lon="5.42469">
        <ele>319.20001220703</ele>
        <time>2020-07-31T06:55:31.000Z</time>
      </trkpt>
      <trkpt lat="46.2558" lon="5.42472">
        <ele>319.20001220703</ele>
        <time>2020-07-31T06:55:33.000Z</time>
      </trkpt>
      <trkpt lat="46.25595" lon="5.42474">
        <ele>319.20001220703</ele>
        <time>2020-07-31T06:55:35.000Z</time>
      </trkpt>
      <trkpt lat="46.2561" lon="5.42476">
        <ele>319.20001220703</ele>
        <time>2020-07-31T06:55:37.000Z</time>
      </trkpt>
      <trkpt lat="46.25624" lon="5.42478">
        <ele>319</ele>
        <time>2020-07-31T06:55:39.000Z</time>
      </trkpt>
      <trkpt lat="46.25639" lon="5.4248">
        <ele>319</ele>
        <time>2020-07-31T06:55:41.000Z</time>
      </trkpt>
      <trkpt lat="46.25646" lon="5.42482">
        <ele>319</ele>
        <time>2020-07-31T06:55:42.000Z</time>
      </trkpt>
      <trkpt lat="46.25654" lon="5.42483">
        <ele>319</ele>
        <time>2020-07-31T06:55:43.000Z</time>
      </trkpt>
      <trkpt lat="46.25668" lon="5.42485">
        <ele>319</ele>
        <time>2020-07-31T06:55:45.000Z</time>
      </trkpt>
      <trkpt lat="46.25683" lon="5.42487">
        <ele>319</ele>
        <time>2020-07-31T06:55:47.000Z</time>
      </trkpt>
      <trkpt lat="46.25697" lon="5.42489">
        <ele>319</ele>
        <time>2020-07-31T06:55:49.000Z</time>
      </trkpt>
      <trkpt lat="46.25711" lon="5.42491">
        <ele>319</ele>
        <time>2020-07-31T06:55:51.000Z</time>
      </trkpt>
      <trkpt lat="46.25718" lon="5.42492">
        <ele>319.20001220703</ele>
        <time>2020-07-31T06:55:52.000Z</time>
      </trkpt>
      <trkpt lat="46.25725" lon="5.42494">
        <ele>319.20001220703</ele>
        <time>2020-07-31T06:55:53.000Z</time>
      </trkpt>
      <trkpt lat="46.25739" lon="5.42496">
        <ele>319.39999389648</ele>
        <time>2020-07-31T06:55:55.000Z</time>
      </trkpt>
      <trkpt lat="46.25754" lon="5.42499">
        <ele>319.39999389648</ele>
        <time>2020-07-31T06:55:57.000Z</time>
      </trkpt>
      <trkpt lat="46.25768" lon="5.42501">
        <ele>319.60000610352</ele>
        <time>2020-07-31T06:55:59.000Z</time>
      </trkpt>
      <trkpt lat="46.25783" lon="5.42503">
        <ele>319.60000610352</ele>
        <time>2020-07-31T06:56:01.000Z</time>
      </trkpt>
      <trkpt lat="46.25797" lon="5.42505">
        <ele>319.60000610352</ele>
        <time>2020-07-31T06:56:03.000Z</time>
      </trkpt>
      <trkpt lat="46.25811" lon="5.42508">
        <ele>319.79998779297</ele>
        <time>2020-07-31T06:56:05.000Z</time>
      </trkpt>
      <trkpt lat="46.25826" lon="5.4251">
        <ele>319.79998779297</ele>
        <time>2020-07-31T06:56:07.000Z</time>
      </trkpt>
      <trkpt lat="46.2584" lon="5.42512">
        <ele>319.79998779297</ele>
        <time>2020-07-31T06:56:09.000Z</time>
      </trkpt>
      <trkpt lat="46.25855" lon="5.42514">
        <ele>320</ele>
        <time>2020-07-31T06:56:11.000Z</time>
      </trkpt>
      <trkpt lat="46.25862" lon="5.42515">
        <ele>320</ele>
        <time>2020-07-31T06:56:12.000Z</time>
      </trkpt>
      <trkpt lat="46.25869" lon="5.42516">
        <ele>320</ele>
        <time>2020-07-31T06:56:13.000Z</time>
      </trkpt>
      <trkpt lat="46.25883" lon="5.42518">
        <ele>320.20001220703</ele>
        <time>2020-07-31T06:56:15.000Z</time>
      </trkpt>
      <trkpt lat="46.25897" lon="5.4252">
        <ele>320.20001220703</ele>
        <time>2020-07-31T06:56:17.000Z</time>
      </trkpt>
      <trkpt lat="46.25911" lon="5.42523">
        <ele>320.20001220703</ele>
        <time>2020-07-31T06:56:19.000Z</time>
      </trkpt>
      <trkpt lat="46.25925" lon="5.42525">
        <ele>320.39999389648</ele>
        <time>2020-07-31T06:56:21.000Z</time>
      </trkpt>
      <trkpt lat="46.25932" lon="5.42526">
        <ele>320.60000610352</ele>
        <time>2020-07-31T06:56:22.000Z</time>
      </trkpt>
      <trkpt lat="46.2594" lon="5.42527">
        <ele>320.60000610352</ele>
        <time>2020-07-31T06:56:23.000Z</time>
      </trkpt>
      <trkpt lat="46.25954" lon="5.4253">
        <ele>320.79998779297</ele>
        <time>2020-07-31T06:56:25.000Z</time>
      </trkpt>
      <trkpt lat="46.25969" lon="5.42532">
        <ele>320.79998779297</ele>
        <time>2020-07-31T06:56:27.000Z</time>
      </trkpt>
      <trkpt lat="46.25984" lon="5.42535">
        <ele>320.79998779297</ele>
        <time>2020-07-31T06:56:29.000Z</time>
      </trkpt>
      <trkpt lat="46.25998" lon="5.42537">
        <ele>320.79998779297</ele>
        <time>2020-07-31T06:56:31.000Z</time>
      </trkpt>
      <trkpt lat="46.26006" lon="5.42538">
        <ele>320.79998779297</ele>
        <time>2020-07-31T06:56:32.000Z</time>
      </trkpt>
      <trkpt lat="46.26013" lon="5.4254">
        <ele>320.79998779297</ele>
        <time>2020-07-31T06:56:33.000Z</time>
      </trkpt>
      <trkpt lat="46.26028" lon="5.42542">
        <ele>320.79998779297</ele>
        <time>2020-07-31T06:56:35.000Z</time>
      </trkpt>
      <trkpt lat="46.26043" lon="5.42544">
        <ele>320.79998779297</ele>
        <time>2020-07-31T06:56:37.000Z</time>
      </trkpt>
      <trkpt lat="46.26057" lon="5.42546">
        <ele>320.79998779297</ele>
        <time>2020-07-31T06:56:39.000Z</time>
      </trkpt>
      <trkpt lat="46.26072" lon="5.42549">
        <ele>320.79998779297</ele>
        <time>2020-07-31T06:56:41.000Z</time>
      </trkpt>
      <trkpt lat="46.26086" lon="5.42551">
        <ele>320.60000610352</ele>
        <time>2020-07-31T06:56:43.000Z</time>
      </trkpt>
      <trkpt lat="46.261" lon="5.42553">
        <ele>320.60000610352</ele>
        <time>2020-07-31T06:56:45.000Z</time>
      </trkpt>
      <trkpt lat="46.26115" lon="5.42555">
        <ele>320.60000610352</ele>
        <time>2020-07-31T06:56:47.000Z</time>
      </trkpt>
      <trkpt lat="46.26129" lon="5.42557">
        <ele>320.60000610352</ele>
        <time>2020-07-31T06:56:49.000Z</time>
      </trkpt>
      <trkpt lat="46.26143" lon="5.42559">
        <ele>320.79998779297</ele>
        <time>2020-07-31T06:56:51.000Z</time>
      </trkpt>
      <trkpt lat="46.26157" lon="5.42561">
        <ele>320.79998779297</ele>
        <time>2020-07-31T06:56:53.000Z</time>
      </trkpt>
      <trkpt lat="46.26171" lon="5.42562">
        <ele>320.79998779297</ele>
        <time>2020-07-31T06:56:55.000Z</time>
      </trkpt>
      <trkpt lat="46.26185" lon="5.42564">
        <ele>321</ele>
        <time>2020-07-31T06:56:57.000Z</time>
      </trkpt>
      <trkpt lat="46.26199" lon="5.42566">
        <ele>321</ele>
        <time>2020-07-31T06:56:59.000Z</time>
      </trkpt>
      <trkpt lat="46.26206" lon="5.42567">
        <ele>321</ele>
        <time>2020-07-31T06:57:00.000Z</time>
      </trkpt>
      <trkpt lat="46.26212" lon="5.42568">
        <ele>321.20001220703</ele>
        <time>2020-07-31T06:57:01.000Z</time>
      </trkpt>
      <trkpt lat="46.26225" lon="5.42569">
        <ele>321.20001220703</ele>
        <time>2020-07-31T06:57:03.000Z</time>
      </trkpt>
      <trkpt lat="46.26239" lon="5.42571">
        <ele>321.20001220703</ele>
        <time>2020-07-31T06:57:05.000Z</time>
      </trkpt>
      <trkpt lat="46.26252" lon="5.42572">
        <ele>321.39999389648</ele>
        <time>2020-07-31T06:57:07.000Z</time>
      </trkpt>
      <trkpt lat="46.26266" lon="5.42573">
        <ele>321.60000610352</ele>
        <time>2020-07-31T06:57:09.000Z</time>
      </trkpt>
      <trkpt lat="46.26272" lon="5.42575">
        <ele>321.60000610352</ele>
        <time>2020-07-31T06:57:10.000Z</time>
      </trkpt>
      <trkpt lat="46.26279" lon="5.42576">
        <ele>321.60000610352</ele>
        <time>2020-07-31T06:57:11.000Z</time>
      </trkpt>
      <trkpt lat="46.26293" lon="5.42578">
        <ele>321.60000610352</ele>
        <time>2020-07-31T06:57:13.000Z</time>
      </trkpt>
      <trkpt lat="46.26306" lon="5.42579">
        <ele>321.79998779297</ele>
        <time>2020-07-31T06:57:15.000Z</time>
      </trkpt>
      <trkpt lat="46.2632" lon="5.42582">
        <ele>321.79998779297</ele>
        <time>2020-07-31T06:57:17.000Z</time>
      </trkpt>
      <trkpt lat="46.26333" lon="5.42584">
        <ele>321.79998779297</ele>
        <time>2020-07-31T06:57:19.000Z</time>
      </trkpt>
      <trkpt lat="46.2634" lon="5.42585">
        <ele>321.79998779297</ele>
        <time>2020-07-31T06:57:20.000Z</time>
      </trkpt>
      <trkpt lat="46.26347" lon="5.42586">
        <ele>321.79998779297</ele>
        <time>2020-07-31T06:57:21.000Z</time>
      </trkpt>
      <trkpt lat="46.26359" lon="5.42588">
        <ele>322</ele>
        <time>2020-07-31T06:57:23.000Z</time>
      </trkpt>
      <trkpt lat="46.26371" lon="5.4259">
        <ele>322</ele>
        <time>2020-07-31T06:57:25.000Z</time>
      </trkpt>
      <trkpt lat="46.26377" lon="5.42591">
        <ele>322.20001220703</ele>
        <time>2020-07-31T06:57:26.000Z</time>
      </trkpt>
      <trkpt lat="46.26384" lon="5.42592">
        <ele>322.20001220703</ele>
        <time>2020-07-31T06:57:27.000Z</time>
      </trkpt>
      <trkpt lat="46.26396" lon="5.42595">
        <ele>322.20001220703</ele>
        <time>2020-07-31T06:57:29.000Z</time>
      </trkpt>
      <trkpt lat="46.26409" lon="5.42596">
        <ele>322.39999389648</ele>
        <time>2020-07-31T06:57:31.000Z</time>
      </trkpt>
      <trkpt lat="46.26416" lon="5.42598">
        <ele>322.39999389648</ele>
        <time>2020-07-31T06:57:32.000Z</time>
      </trkpt>
      <trkpt lat="46.26422" lon="5.42599">
        <ele>322.39999389648</ele>
        <time>2020-07-31T06:57:33.000Z</time>
      </trkpt>
      <trkpt lat="46.26435" lon="5.42601">
        <ele>322.39999389648</ele>
        <time>2020-07-31T06:57:35.000Z</time>
      </trkpt>
      <trkpt lat="46.26449" lon="5.42604">
        <ele>322.60000610352</ele>
        <time>2020-07-31T06:57:37.000Z</time>
      </trkpt>
      <trkpt lat="46.26455" lon="5.42607">
        <ele>322.60000610352</ele>
        <time>2020-07-31T06:57:38.000Z</time>
      </trkpt>
      <trkpt lat="46.26461" lon="5.42609">
        <ele>322.60000610352</ele>
        <time>2020-07-31T06:57:39.000Z</time>
      </trkpt>
      <trkpt lat="46.26474" lon="5.42613">
        <ele>322.60000610352</ele>
        <time>2020-07-31T06:57:41.000Z</time>
      </trkpt>
      <trkpt lat="46.26487" lon="5.42617">
        <ele>322.60000610352</ele>
        <time>2020-07-31T06:57:43.000Z</time>
      </trkpt>
      <trkpt lat="46.26493" lon="5.42618">
        <ele>322.60000610352</ele>
        <time>2020-07-31T06:57:44.000Z</time>
      </trkpt>
      <trkpt lat="46.265" lon="5.4262">
        <ele>322.60000610352</ele>
        <time>2020-07-31T06:57:45.000Z</time>
      </trkpt>
      <trkpt lat="46.26514" lon="5.42622">
        <ele>322.79998779297</ele>
        <time>2020-07-31T06:57:47.000Z</time>
      </trkpt>
      <trkpt lat="46.26528" lon="5.42624">
        <ele>323.39999389648</ele>
        <time>2020-07-31T06:57:49.000Z</time>
      </trkpt>
      <trkpt lat="46.26543" lon="5.42626">
        <ele>323.60000610352</ele>
        <time>2020-07-31T06:57:51.000Z</time>
      </trkpt>
      <trkpt lat="46.2655" lon="5.42627">
        <ele>323.60000610352</ele>
        <time>2020-07-31T06:57:52.000Z</time>
      </trkpt>
      <trkpt lat="46.26557" lon="5.42628">
        <ele>323.60000610352</ele>
        <time>2020-07-31T06:57:53.000Z</time>
      </trkpt>
      <trkpt lat="46.26572" lon="5.42631">
        <ele>323.60000610352</ele>
        <time>2020-07-31T06:57:55.000Z</time>
      </trkpt>
      <trkpt lat="46.26587" lon="5.42634">
        <ele>323.60000610352</ele>
        <time>2020-07-31T06:57:57.000Z</time>
      </trkpt>
      <trkpt lat="46.26601" lon="5.42638">
        <ele>323.60000610352</ele>
        <time>2020-07-31T06:57:59.000Z</time>
      </trkpt>
      <trkpt lat="46.26609" lon="5.4264">
        <ele>323.60000610352</ele>
        <time>2020-07-31T06:58:00.000Z</time>
      </trkpt>
      <trkpt lat="46.26616" lon="5.42642">
        <ele>323.39999389648</ele>
        <time>2020-07-31T06:58:01.000Z</time>
      </trkpt>
      <trkpt lat="46.26631" lon="5.42646">
        <ele>323.39999389648</ele>
        <time>2020-07-31T06:58:03.000Z</time>
      </trkpt>
      <trkpt lat="46.26645" lon="5.4265">
        <ele>323.39999389648</ele>
        <time>2020-07-31T06:58:05.000Z</time>
      </trkpt>
      <trkpt lat="46.26658" lon="5.42653">
        <ele>323.39999389648</ele>
        <time>2020-07-31T06:58:07.000Z</time>
      </trkpt>
      <trkpt lat="46.26665" lon="5.42655">
        <ele>323.39999389648</ele>
        <time>2020-07-31T06:58:08.000Z</time>
      </trkpt>
      <trkpt lat="46.26671" lon="5.42657">
        <ele>323.39999389648</ele>
        <time>2020-07-31T06:58:09.000Z</time>
      </trkpt>
      <trkpt lat="46.26684" lon="5.4266">
        <ele>323.39999389648</ele>
        <time>2020-07-31T06:58:11.000Z</time>
      </trkpt>
      <trkpt lat="46.26697" lon="5.42664">
        <ele>323.39999389648</ele>
        <time>2020-07-31T06:58:13.000Z</time>
      </trkpt>
      <trkpt lat="46.2671" lon="5.42667">
        <ele>323.79998779297</ele>
        <time>2020-07-31T06:58:15.000Z</time>
      </trkpt>
      <trkpt lat="46.26717" lon="5.42669">
        <ele>323.79998779297</ele>
        <time>2020-07-31T06:58:16.000Z</time>
      </trkpt>
      <trkpt lat="46.26723" lon="5.42671">
        <ele>324</ele>
        <time>2020-07-31T06:58:17.000Z</time>
      </trkpt>
      <trkpt lat="46.26737" lon="5.42675">
        <ele>324.20001220703</ele>
        <time>2020-07-31T06:58:19.000Z</time>
      </trkpt>
      <trkpt lat="46.26751" lon="5.42679">
        <ele>324.20001220703</ele>
        <time>2020-07-31T06:58:21.000Z</time>
      </trkpt>
      <trkpt lat="46.26765" lon="5.42683">
        <ele>324.20001220703</ele>
        <time>2020-07-31T06:58:23.000Z</time>
      </trkpt>
      <trkpt lat="46.26779" lon="5.42686">
        <ele>324.20001220703</ele>
        <time>2020-07-31T06:58:25.000Z</time>
      </trkpt>
      <trkpt lat="46.26793" lon="5.42689">
        <ele>324.39999389648</ele>
        <time>2020-07-31T06:58:27.000Z</time>
      </trkpt>
      <trkpt lat="46.26799" lon="5.42691">
        <ele>324.39999389648</ele>
        <time>2020-07-31T06:58:28.000Z</time>
      </trkpt>
      <trkpt lat="46.26806" lon="5.42693">
        <ele>324.39999389648</ele>
        <time>2020-07-31T06:58:29.000Z</time>
      </trkpt>
      <trkpt lat="46.26819" lon="5.42697">
        <ele>324.20001220703</ele>
        <time>2020-07-31T06:58:31.000Z</time>
      </trkpt>
      <trkpt lat="46.26834" lon="5.42701">
        <ele>324.20001220703</ele>
        <time>2020-07-31T06:58:33.000Z</time>
      </trkpt>
      <trkpt lat="46.26841" lon="5.42703">
        <ele>324.20001220703</ele>
        <time>2020-07-31T06:58:34.000Z</time>
      </trkpt>
      <trkpt lat="46.26847" lon="5.42705">
        <ele>324.39999389648</ele>
        <time>2020-07-31T06:58:35.000Z</time>
      </trkpt>
      <trkpt lat="46.26861" lon="5.4271">
        <ele>324.39999389648</ele>
        <time>2020-07-31T06:58:37.000Z</time>
      </trkpt>
      <trkpt lat="46.26873" lon="5.42715">
        <ele>324.39999389648</ele>
        <time>2020-07-31T06:58:39.000Z</time>
      </trkpt>
      <trkpt lat="46.26885" lon="5.4272">
        <ele>324.60000610352</ele>
        <time>2020-07-31T06:58:41.000Z</time>
      </trkpt>
      <trkpt lat="46.26897" lon="5.42725">
        <ele>324.79998779297</ele>
        <time>2020-07-31T06:58:43.000Z</time>
      </trkpt>
      <trkpt lat="46.26909" lon="5.42729">
        <ele>325</ele>
        <time>2020-07-31T06:58:45.000Z</time>
      </trkpt>
      <trkpt lat="46.26921" lon="5.42734">
        <ele>326</ele>
        <time>2020-07-31T06:58:47.000Z</time>
      </trkpt>
      <trkpt lat="46.26934" lon="5.42739">
        <ele>326.39999389648</ele>
        <time>2020-07-31T06:58:49.000Z</time>
      </trkpt>
      <trkpt lat="46.2694" lon="5.42741">
        <ele>326.39999389648</ele>
        <time>2020-07-31T06:58:50.000Z</time>
      </trkpt>
      <trkpt lat="46.26947" lon="5.42743">
        <ele>326.60000610352</ele>
        <time>2020-07-31T06:58:51.000Z</time>
      </trkpt>
      <trkpt lat="46.2696" lon="5.42746">
        <ele>326.60000610352</ele>
        <time>2020-07-31T06:58:53.000Z</time>
      </trkpt>
      <trkpt lat="46.26973" lon="5.4275">
        <ele>326.60000610352</ele>
        <time>2020-07-31T06:58:55.000Z</time>
      </trkpt>
      <trkpt lat="46.26987" lon="5.42753">
        <ele>326.60000610352</ele>
        <time>2020-07-31T06:58:57.000Z</time>
      </trkpt>
      <trkpt lat="46.26999" lon="5.42756">
        <ele>326.60000610352</ele>
        <time>2020-07-31T06:58:59.000Z</time>
      </trkpt>
      <trkpt lat="46.27006" lon="5.42758">
        <ele>326.60000610352</ele>
        <time>2020-07-31T06:59:00.000Z</time>
      </trkpt>
      <trkpt lat="46.27012" lon="5.42759">
        <ele>326.60000610352</ele>
        <time>2020-07-31T06:59:01.000Z</time>
      </trkpt>
      <trkpt lat="46.27025" lon="5.42762">
        <ele>326.39999389648</ele>
        <time>2020-07-31T06:59:03.000Z</time>
      </trkpt>
      <trkpt lat="46.27037" lon="5.42764">
        <ele>326.39999389648</ele>
        <time>2020-07-31T06:59:05.000Z</time>
      </trkpt>
      <trkpt lat="46.27048" lon="5.42766">
        <ele>326.39999389648</ele>
        <time>2020-07-31T06:59:07.000Z</time>
      </trkpt>
      <trkpt lat="46.27054" lon="5.42767">
        <ele>326.60000610352</ele>
        <time>2020-07-31T06:59:08.000Z</time>
      </trkpt>
      <trkpt lat="46.2706" lon="5.42768">
        <ele>326.60000610352</ele>
        <time>2020-07-31T06:59:09.000Z</time>
      </trkpt>
      <trkpt lat="46.27071" lon="5.42769">
        <ele>326.60000610352</ele>
        <time>2020-07-31T06:59:11.000Z</time>
      </trkpt>
      <trkpt lat="46.27082" lon="5.42769">
        <ele>326.79998779297</ele>
        <time>2020-07-31T06:59:13.000Z</time>
      </trkpt>
      <trkpt lat="46.27088" lon="5.4277">
        <ele>327</ele>
        <time>2020-07-31T06:59:14.000Z</time>
      </trkpt>
      <trkpt lat="46.27093" lon="5.4277">
        <ele>327.39999389648</ele>
        <time>2020-07-31T06:59:15.000Z</time>
      </trkpt>
      <trkpt lat="46.27099" lon="5.4277">
        <ele>327.79998779297</ele>
        <time>2020-07-31T06:59:16.000Z</time>
      </trkpt>
      <trkpt lat="46.27104" lon="5.4277">
        <ele>328.20001220703</ele>
        <time>2020-07-31T06:59:17.000Z</time>
      </trkpt>
      <trkpt lat="46.27115" lon="5.42772">
        <ele>328.60000610352</ele>
        <time>2020-07-31T06:59:19.000Z</time>
      </trkpt>
      <trkpt lat="46.27127" lon="5.42773">
        <ele>329.20001220703</ele>
        <time>2020-07-31T06:59:21.000Z</time>
      </trkpt>
      <trkpt lat="46.27132" lon="5.42775">
        <ele>329.39999389648</ele>
        <time>2020-07-31T06:59:22.000Z</time>
      </trkpt>
      <trkpt lat="46.27138" lon="5.42776">
        <ele>329.60000610352</ele>
        <time>2020-07-31T06:59:23.000Z</time>
      </trkpt>
      <trkpt lat="46.27149" lon="5.42779">
        <ele>330</ele>
        <time>2020-07-31T06:59:25.000Z</time>
      </trkpt>
      <trkpt lat="46.2716" lon="5.42783">
        <ele>330.39999389648</ele>
        <time>2020-07-31T06:59:27.000Z</time>
      </trkpt>
      <trkpt lat="46.27166" lon="5.42786">
        <ele>330.39999389648</ele>
        <time>2020-07-31T06:59:28.000Z</time>
      </trkpt>
      <trkpt lat="46.27171" lon="5.42788">
        <ele>330.39999389648</ele>
        <time>2020-07-31T06:59:29.000Z</time>
      </trkpt>
      <trkpt lat="46.27182" lon="5.42794">
        <ele>330.60000610352</ele>
        <time>2020-07-31T06:59:31.000Z</time>
      </trkpt>
      <trkpt lat="46.27194" lon="5.42801">
        <ele>330.79998779297</ele>
        <time>2020-07-31T06:59:33.000Z</time>
      </trkpt>
      <trkpt lat="46.27206" lon="5.42808">
        <ele>330.79998779297</ele>
        <time>2020-07-31T06:59:35.000Z</time>
      </trkpt>
      <trkpt lat="46.27218" lon="5.42815">
        <ele>330.79998779297</ele>
        <time>2020-07-31T06:59:37.000Z</time>
      </trkpt>
      <trkpt lat="46.27231" lon="5.42823">
        <ele>330.79998779297</ele>
        <time>2020-07-31T06:59:39.000Z</time>
      </trkpt>
      <trkpt lat="46.27244" lon="5.42831">
        <ele>330.79998779297</ele>
        <time>2020-07-31T06:59:41.000Z</time>
      </trkpt>
      <trkpt lat="46.2725" lon="5.42835">
        <ele>330.79998779297</ele>
        <time>2020-07-31T06:59:42.000Z</time>
      </trkpt>
      <trkpt lat="46.27256" lon="5.4284">
        <ele>330.79998779297</ele>
        <time>2020-07-31T06:59:43.000Z</time>
      </trkpt>
      <trkpt lat="46.2727" lon="5.42849">
        <ele>330.20001220703</ele>
        <time>2020-07-31T06:59:45.000Z</time>
      </trkpt>
      <trkpt lat="46.27283" lon="5.42858">
        <ele>330</ele>
        <time>2020-07-31T06:59:47.000Z</time>
      </trkpt>
      <trkpt lat="46.27298" lon="5.42868">
        <ele>329.60000610352</ele>
        <time>2020-07-31T06:59:49.000Z</time>
      </trkpt>
      <trkpt lat="46.27305" lon="5.42872">
        <ele>329.39999389648</ele>
        <time>2020-07-31T06:59:50.000Z</time>
      </trkpt>
      <trkpt lat="46.27313" lon="5.42877">
        <ele>329.20001220703</ele>
        <time>2020-07-31T06:59:51.000Z</time>
      </trkpt>
      <trkpt lat="46.27328" lon="5.42885">
        <ele>329</ele>
        <time>2020-07-31T06:59:53.000Z</time>
      </trkpt>
      <trkpt lat="46.27344" lon="5.42892">
        <ele>328.60000610352</ele>
        <time>2020-07-31T06:59:55.000Z</time>
      </trkpt>
      <trkpt lat="46.27352" lon="5.42895">
        <ele>328.20001220703</ele>
        <time>2020-07-31T06:59:56.000Z</time>
      </trkpt>
      <trkpt lat="46.2736" lon="5.42897">
        <ele>327.79998779297</ele>
        <time>2020-07-31T06:59:57.000Z</time>
      </trkpt>
      <trkpt lat="46.27376" lon="5.42902">
        <ele>327</ele>
        <time>2020-07-31T06:59:59.000Z</time>
      </trkpt>
      <trkpt lat="46.27391" lon="5.42908">
        <ele>326.39999389648</ele>
        <time>2020-07-31T07:00:01.000Z</time>
      </trkpt>
      <trkpt lat="46.27407" lon="5.42913">
        <ele>326</ele>
        <time>2020-07-31T07:00:03.000Z</time>
      </trkpt>
      <trkpt lat="46.27414" lon="5.42916">
        <ele>326</ele>
        <time>2020-07-31T07:00:04.000Z</time>
      </trkpt>
      <trkpt lat="46.27422" lon="5.42919">
        <ele>326</ele>
        <time>2020-07-31T07:00:05.000Z</time>
      </trkpt>
      <trkpt lat="46.27437" lon="5.42923">
        <ele>325.79998779297</ele>
        <time>2020-07-31T07:00:07.000Z</time>
      </trkpt>
      <trkpt lat="46.27451" lon="5.42928">
        <ele>325.79998779297</ele>
        <time>2020-07-31T07:00:09.000Z</time>
      </trkpt>
      <trkpt lat="46.27466" lon="5.42933">
        <ele>325.79998779297</ele>
        <time>2020-07-31T07:00:11.000Z</time>
      </trkpt>
      <trkpt lat="46.27481" lon="5.42937">
        <ele>325.79998779297</ele>
        <time>2020-07-31T07:00:13.000Z</time>
      </trkpt>
      <trkpt lat="46.27495" lon="5.42942">
        <ele>325.79998779297</ele>
        <time>2020-07-31T07:00:15.000Z</time>
      </trkpt>
      <trkpt lat="46.2751" lon="5.42946">
        <ele>326</ele>
        <time>2020-07-31T07:00:17.000Z</time>
      </trkpt>
      <trkpt lat="46.27524" lon="5.42951">
        <ele>326</ele>
        <time>2020-07-31T07:00:19.000Z</time>
      </trkpt>
      <trkpt lat="46.27538" lon="5.42955">
        <ele>326</ele>
        <time>2020-07-31T07:00:21.000Z</time>
      </trkpt>
      <trkpt lat="46.27553" lon="5.4296">
        <ele>326.20001220703</ele>
        <time>2020-07-31T07:00:23.000Z</time>
      </trkpt>
      <trkpt lat="46.27567" lon="5.42965">
        <ele>326.39999389648</ele>
        <time>2020-07-31T07:00:25.000Z</time>
      </trkpt>
      <trkpt lat="46.27582" lon="5.4297">
        <ele>326.39999389648</ele>
        <time>2020-07-31T07:00:27.000Z</time>
      </trkpt>
      <trkpt lat="46.27597" lon="5.42975">
        <ele>326.60000610352</ele>
        <time>2020-07-31T07:00:29.000Z</time>
      </trkpt>
      <trkpt lat="46.27604" lon="5.42978">
        <ele>326.60000610352</ele>
        <time>2020-07-31T07:00:30.000Z</time>
      </trkpt>
      <trkpt lat="46.27611" lon="5.4298">
        <ele>326.60000610352</ele>
        <time>2020-07-31T07:00:31.000Z</time>
      </trkpt>
      <trkpt lat="46.27626" lon="5.42985">
        <ele>326.60000610352</ele>
        <time>2020-07-31T07:00:33.000Z</time>
      </trkpt>
      <trkpt lat="46.27641" lon="5.42989">
        <ele>326.60000610352</ele>
        <time>2020-07-31T07:00:35.000Z</time>
      </trkpt>
      <trkpt lat="46.27655" lon="5.42994">
        <ele>326.60000610352</ele>
        <time>2020-07-31T07:00:37.000Z</time>
      </trkpt>
      <trkpt lat="46.27669" lon="5.42999">
        <ele>326.60000610352</ele>
        <time>2020-07-31T07:00:39.000Z</time>
      </trkpt>
      <trkpt lat="46.27683" lon="5.43003">
        <ele>326.60000610352</ele>
        <time>2020-07-31T07:00:41.000Z</time>
      </trkpt>
      <trkpt lat="46.27698" lon="5.43009">
        <ele>326.60000610352</ele>
        <time>2020-07-31T07:00:43.000Z</time>
      </trkpt>
      <trkpt lat="46.27712" lon="5.43014">
        <ele>326.60000610352</ele>
        <time>2020-07-31T07:00:45.000Z</time>
      </trkpt>
      <trkpt lat="46.27726" lon="5.4302">
        <ele>326.60000610352</ele>
        <time>2020-07-31T07:00:47.000Z</time>
      </trkpt>
      <trkpt lat="46.27741" lon="5.43026">
        <ele>326.60000610352</ele>
        <time>2020-07-31T07:00:49.000Z</time>
      </trkpt>
      <trkpt lat="46.27755" lon="5.43032">
        <ele>326.60000610352</ele>
        <time>2020-07-31T07:00:51.000Z</time>
      </trkpt>
      <trkpt lat="46.2777" lon="5.43039">
        <ele>326.60000610352</ele>
        <time>2020-07-31T07:00:53.000Z</time>
      </trkpt>
      <trkpt lat="46.27786" lon="5.43045">
        <ele>326.60000610352</ele>
        <time>2020-07-31T07:00:55.000Z</time>
      </trkpt>
      <trkpt lat="46.27801" lon="5.43049">
        <ele>326.60000610352</ele>
        <time>2020-07-31T07:00:57.000Z</time>
      </trkpt>
      <trkpt lat="46.27818" lon="5.43051">
        <ele>326.39999389648</ele>
        <time>2020-07-31T07:00:59.000Z</time>
      </trkpt>
      <trkpt lat="46.27834" lon="5.43051">
        <ele>326.20001220703</ele>
        <time>2020-07-31T07:01:01.000Z</time>
      </trkpt>
      <trkpt lat="46.2785" lon="5.43049">
        <ele>325.79998779297</ele>
        <time>2020-07-31T07:01:03.000Z</time>
      </trkpt>
      <trkpt lat="46.27858" lon="5.43049">
        <ele>325.79998779297</ele>
        <time>2020-07-31T07:01:04.000Z</time>
      </trkpt>
      <trkpt lat="46.27866" lon="5.4305">
        <ele>325.60000610352</ele>
        <time>2020-07-31T07:01:05.000Z</time>
      </trkpt>
      <trkpt lat="46.27881" lon="5.43051">
        <ele>325.39999389648</ele>
        <time>2020-07-31T07:01:07.000Z</time>
      </trkpt>
      <trkpt lat="46.27896" lon="5.43053">
        <ele>325.20001220703</ele>
        <time>2020-07-31T07:01:09.000Z</time>
      </trkpt>
      <trkpt lat="46.27911" lon="5.43056">
        <ele>325.20001220703</ele>
        <time>2020-07-31T07:01:11.000Z</time>
      </trkpt>
      <trkpt lat="46.27919" lon="5.43057">
        <ele>325</ele>
        <time>2020-07-31T07:01:12.000Z</time>
      </trkpt>
      <trkpt lat="46.27926" lon="5.43059">
        <ele>325</ele>
        <time>2020-07-31T07:01:13.000Z</time>
      </trkpt>
      <trkpt lat="46.27941" lon="5.43062">
        <ele>325</ele>
        <time>2020-07-31T07:01:15.000Z</time>
      </trkpt>
      <trkpt lat="46.27956" lon="5.43065">
        <ele>325</ele>
        <time>2020-07-31T07:01:17.000Z</time>
      </trkpt>
      <trkpt lat="46.2797" lon="5.43068">
        <ele>325.20001220703</ele>
        <time>2020-07-31T07:01:19.000Z</time>
      </trkpt>
      <trkpt lat="46.27985" lon="5.43071">
        <ele>325.20001220703</ele>
        <time>2020-07-31T07:01:21.000Z</time>
      </trkpt>
      <trkpt lat="46.28" lon="5.43074">
        <ele>325.39999389648</ele>
        <time>2020-07-31T07:01:23.000Z</time>
      </trkpt>
      <trkpt lat="46.28014" lon="5.43077">
        <ele>325.39999389648</ele>
        <time>2020-07-31T07:01:25.000Z</time>
      </trkpt>
      <trkpt lat="46.28029" lon="5.43081">
        <ele>325.39999389648</ele>
        <time>2020-07-31T07:01:27.000Z</time>
      </trkpt>
      <trkpt lat="46.28044" lon="5.43084">
        <ele>325.60000610352</ele>
        <time>2020-07-31T07:01:29.000Z</time>
      </trkpt>
      <trkpt lat="46.28058" lon="5.43087">
        <ele>325.60000610352</ele>
        <time>2020-07-31T07:01:31.000Z</time>
      </trkpt>
      <trkpt lat="46.28073" lon="5.4309">
        <ele>325.60000610352</ele>
        <time>2020-07-31T07:01:33.000Z</time>
      </trkpt>
      <trkpt lat="46.28088" lon="5.43093">
        <ele>325.60000610352</ele>
        <time>2020-07-31T07:01:35.000Z</time>
      </trkpt>
      <trkpt lat="46.28103" lon="5.43096">
        <ele>325.79998779297</ele>
        <time>2020-07-31T07:01:37.000Z</time>
      </trkpt>
      <trkpt lat="46.28118" lon="5.43099">
        <ele>325.79998779297</ele>
        <time>2020-07-31T07:01:39.000Z</time>
      </trkpt>
      <trkpt lat="46.28133" lon="5.43102">
        <ele>325.79998779297</ele>
        <time>2020-07-31T07:01:41.000Z</time>
      </trkpt>
      <trkpt lat="46.28148" lon="5.43105">
        <ele>325.79998779297</ele>
        <time>2020-07-31T07:01:43.000Z</time>
      </trkpt>
      <trkpt lat="46.28163" lon="5.43108">
        <ele>325.79998779297</ele>
        <time>2020-07-31T07:01:45.000Z</time>
      </trkpt>
      <trkpt lat="46.28178" lon="5.43112">
        <ele>325.79998779297</ele>
        <time>2020-07-31T07:01:47.000Z</time>
      </trkpt>
      <trkpt lat="46.28193" lon="5.43115">
        <ele>325.79998779297</ele>
        <time>2020-07-31T07:01:49.000Z</time>
      </trkpt>
      <trkpt lat="46.28208" lon="5.43117">
        <ele>325.79998779297</ele>
        <time>2020-07-31T07:01:51.000Z</time>
      </trkpt>
      <trkpt lat="46.28216" lon="5.43119">
        <ele>326</ele>
        <time>2020-07-31T07:01:52.000Z</time>
      </trkpt>
      <trkpt lat="46.28224" lon="5.4312">
        <ele>326</ele>
        <time>2020-07-31T07:01:53.000Z</time>
      </trkpt>
      <trkpt lat="46.28239" lon="5.43123">
        <ele>325.79998779297</ele>
        <time>2020-07-31T07:01:55.000Z</time>
      </trkpt>
      <trkpt lat="46.28254" lon="5.43125">
        <ele>325.79998779297</ele>
        <time>2020-07-31T07:01:57.000Z</time>
      </trkpt>
      <trkpt lat="46.28269" lon="5.43128">
        <ele>325.79998779297</ele>
        <time>2020-07-31T07:01:59.000Z</time>
      </trkpt>
      <trkpt lat="46.28284" lon="5.43131">
        <ele>325.79998779297</ele>
        <time>2020-07-31T07:02:01.000Z</time>
      </trkpt>
      <trkpt lat="46.28299" lon="5.43133">
        <ele>325.79998779297</ele>
        <time>2020-07-31T07:02:03.000Z</time>
      </trkpt>
      <trkpt lat="46.28314" lon="5.43134">
        <ele>326</ele>
        <time>2020-07-31T07:02:05.000Z</time>
      </trkpt>
      <trkpt lat="46.28321" lon="5.43134">
        <ele>326</ele>
        <time>2020-07-31T07:02:06.000Z</time>
      </trkpt>
      <trkpt lat="46.28329" lon="5.43133">
        <ele>326</ele>
        <time>2020-07-31T07:02:07.000Z</time>
      </trkpt>
      <trkpt lat="46.28344" lon="5.43132">
        <ele>326</ele>
        <time>2020-07-31T07:02:09.000Z</time>
      </trkpt>
      <trkpt lat="46.28359" lon="5.4313">
        <ele>326</ele>
        <time>2020-07-31T07:02:11.000Z</time>
      </trkpt>
      <trkpt lat="46.28374" lon="5.43128">
        <ele>326.20001220703</ele>
        <time>2020-07-31T07:02:13.000Z</time>
      </trkpt>
      <trkpt lat="46.28389" lon="5.43126">
        <ele>326.39999389648</ele>
        <time>2020-07-31T07:02:15.000Z</time>
      </trkpt>
      <trkpt lat="46.28396" lon="5.43125">
        <ele>326.60000610352</ele>
        <time>2020-07-31T07:02:16.000Z</time>
      </trkpt>
      <trkpt lat="46.28403" lon="5.43124">
        <ele>326.60000610352</ele>
        <time>2020-07-31T07:02:17.000Z</time>
      </trkpt>
      <trkpt lat="46.28418" lon="5.43122">
        <ele>326.60000610352</ele>
        <time>2020-07-31T07:02:19.000Z</time>
      </trkpt>
      <trkpt lat="46.28432" lon="5.43119">
        <ele>326.60000610352</ele>
        <time>2020-07-31T07:02:21.000Z</time>
      </trkpt>
      <trkpt lat="46.28447" lon="5.43118">
        <ele>326.79998779297</ele>
        <time>2020-07-31T07:02:23.000Z</time>
      </trkpt>
      <trkpt lat="46.28461" lon="5.43116">
        <ele>326.79998779297</ele>
        <time>2020-07-31T07:02:25.000Z</time>
      </trkpt>
      <trkpt lat="46.28476" lon="5.43114">
        <ele>326.79998779297</ele>
        <time>2020-07-31T07:02:27.000Z</time>
      </trkpt>
      <trkpt lat="46.28483" lon="5.43114">
        <ele>326.79998779297</ele>
        <time>2020-07-31T07:02:28.000Z</time>
      </trkpt>
      <trkpt lat="46.28491" lon="5.43113">
        <ele>326.79998779297</ele>
        <time>2020-07-31T07:02:29.000Z</time>
      </trkpt>
      <trkpt lat="46.28505" lon="5.43112">
        <ele>327</ele>
        <time>2020-07-31T07:02:31.000Z</time>
      </trkpt>
      <trkpt lat="46.2852" lon="5.43111">
        <ele>327</ele>
        <time>2020-07-31T07:02:33.000Z</time>
      </trkpt>
      <trkpt lat="46.28535" lon="5.4311">
        <ele>327.20001220703</ele>
        <time>2020-07-31T07:02:35.000Z</time>
      </trkpt>
      <trkpt lat="46.28549" lon="5.4311">
        <ele>327.20001220703</ele>
        <time>2020-07-31T07:02:37.000Z</time>
      </trkpt>
      <trkpt lat="46.28564" lon="5.43109">
        <ele>327.20001220703</ele>
        <time>2020-07-31T07:02:39.000Z</time>
      </trkpt>
      <trkpt lat="46.28578" lon="5.4311">
        <ele>327.39999389648</ele>
        <time>2020-07-31T07:02:41.000Z</time>
      </trkpt>
      <trkpt lat="46.28593" lon="5.4311">
        <ele>327.39999389648</ele>
        <time>2020-07-31T07:02:43.000Z</time>
      </trkpt>
      <trkpt lat="46.28607" lon="5.43111">
        <ele>327.39999389648</ele>
        <time>2020-07-31T07:02:45.000Z</time>
      </trkpt>
      <trkpt lat="46.28622" lon="5.43112">
        <ele>327.39999389648</ele>
        <time>2020-07-31T07:02:47.000Z</time>
      </trkpt>
      <trkpt lat="46.28636" lon="5.43113">
        <ele>327.39999389648</ele>
        <time>2020-07-31T07:02:49.000Z</time>
      </trkpt>
      <trkpt lat="46.28651" lon="5.43115">
        <ele>327.39999389648</ele>
        <time>2020-07-31T07:02:51.000Z</time>
      </trkpt>
      <trkpt lat="46.28665" lon="5.43116">
        <ele>327.60000610352</ele>
        <time>2020-07-31T07:02:53.000Z</time>
      </trkpt>
      <trkpt lat="46.2868" lon="5.43117">
        <ele>327.79998779297</ele>
        <time>2020-07-31T07:02:55.000Z</time>
      </trkpt>
      <trkpt lat="46.28694" lon="5.43119">
        <ele>328</ele>
        <time>2020-07-31T07:02:57.000Z</time>
      </trkpt>
      <trkpt lat="46.28709" lon="5.43121">
        <ele>328</ele>
        <time>2020-07-31T07:02:59.000Z</time>
      </trkpt>
      <trkpt lat="46.28716" lon="5.43122">
        <ele>328</ele>
        <time>2020-07-31T07:03:00.000Z</time>
      </trkpt>
      <trkpt lat="46.28724" lon="5.43122">
        <ele>328</ele>
        <time>2020-07-31T07:03:01.000Z</time>
      </trkpt>
      <trkpt lat="46.28738" lon="5.43124">
        <ele>328.20001220703</ele>
        <time>2020-07-31T07:03:03.000Z</time>
      </trkpt>
      <trkpt lat="46.28753" lon="5.43127">
        <ele>328.20001220703</ele>
        <time>2020-07-31T07:03:05.000Z</time>
      </trkpt>
      <trkpt lat="46.28768" lon="5.4313">
        <ele>328.20001220703</ele>
        <time>2020-07-31T07:03:07.000Z</time>
      </trkpt>
      <trkpt lat="46.28782" lon="5.43134">
        <ele>328.39999389648</ele>
        <time>2020-07-31T07:03:09.000Z</time>
      </trkpt>
      <trkpt lat="46.2879" lon="5.43137">
        <ele>328.39999389648</ele>
        <time>2020-07-31T07:03:10.000Z</time>
      </trkpt>
      <trkpt lat="46.28797" lon="5.43139">
        <ele>328.39999389648</ele>
        <time>2020-07-31T07:03:11.000Z</time>
      </trkpt>
      <trkpt lat="46.28812" lon="5.43145">
        <ele>328.39999389648</ele>
        <time>2020-07-31T07:03:13.000Z</time>
      </trkpt>
      <trkpt lat="46.28826" lon="5.4315">
        <ele>328.60000610352</ele>
        <time>2020-07-31T07:03:15.000Z</time>
      </trkpt>
      <trkpt lat="46.2884" lon="5.43156">
        <ele>328.60000610352</ele>
        <time>2020-07-31T07:03:17.000Z</time>
      </trkpt>
      <trkpt lat="46.28855" lon="5.43162">
        <ele>328.60000610352</ele>
        <time>2020-07-31T07:03:19.000Z</time>
      </trkpt>
      <trkpt lat="46.28869" lon="5.43168">
        <ele>328.60000610352</ele>
        <time>2020-07-31T07:03:21.000Z</time>
      </trkpt>
      <trkpt lat="46.28883" lon="5.43173">
        <ele>328.79998779297</ele>
        <time>2020-07-31T07:03:23.000Z</time>
      </trkpt>
      <trkpt lat="46.28898" lon="5.43179">
        <ele>328.79998779297</ele>
        <time>2020-07-31T07:03:25.000Z</time>
      </trkpt>
      <trkpt lat="46.28912" lon="5.43186">
        <ele>328.79998779297</ele>
        <time>2020-07-31T07:03:27.000Z</time>
      </trkpt>
      <trkpt lat="46.28926" lon="5.43191">
        <ele>328.79998779297</ele>
        <time>2020-07-31T07:03:29.000Z</time>
      </trkpt>
      <trkpt lat="46.28941" lon="5.43197">
        <ele>328.79998779297</ele>
        <time>2020-07-31T07:03:31.000Z</time>
      </trkpt>
      <trkpt lat="46.28948" lon="5.43201">
        <ele>328.79998779297</ele>
        <time>2020-07-31T07:03:32.000Z</time>
      </trkpt>
      <trkpt lat="46.28955" lon="5.43204">
        <ele>328.79998779297</ele>
        <time>2020-07-31T07:03:33.000Z</time>
      </trkpt>
      <trkpt lat="46.28969" lon="5.43211">
        <ele>328.79998779297</ele>
        <time>2020-07-31T07:03:35.000Z</time>
      </trkpt>
      <trkpt lat="46.28983" lon="5.43219">
        <ele>328.79998779297</ele>
        <time>2020-07-31T07:03:37.000Z</time>
      </trkpt>
      <trkpt lat="46.28996" lon="5.43228">
        <ele>328.79998779297</ele>
        <time>2020-07-31T07:03:39.000Z</time>
      </trkpt>
      <trkpt lat="46.29003" lon="5.43233">
        <ele>328.79998779297</ele>
        <time>2020-07-31T07:03:40.000Z</time>
      </trkpt>
      <trkpt lat="46.2901" lon="5.43239">
        <ele>328.79998779297</ele>
        <time>2020-07-31T07:03:41.000Z</time>
      </trkpt>
      <trkpt lat="46.29022" lon="5.4325">
        <ele>328.79998779297</ele>
        <time>2020-07-31T07:03:43.000Z</time>
      </trkpt>
      <trkpt lat="46.29035" lon="5.43262">
        <ele>328.79998779297</ele>
        <time>2020-07-31T07:03:45.000Z</time>
      </trkpt>
      <trkpt lat="46.29047" lon="5.43274">
        <ele>328.79998779297</ele>
        <time>2020-07-31T07:03:47.000Z</time>
      </trkpt>
      <trkpt lat="46.2906" lon="5.43286">
        <ele>328.79998779297</ele>
        <time>2020-07-31T07:03:49.000Z</time>
      </trkpt>
      <trkpt lat="46.29072" lon="5.43298">
        <ele>328.79998779297</ele>
        <time>2020-07-31T07:03:51.000Z</time>
      </trkpt>
      <trkpt lat="46.29084" lon="5.4331">
        <ele>328.79998779297</ele>
        <time>2020-07-31T07:03:53.000Z</time>
      </trkpt>
      <trkpt lat="46.29097" lon="5.4332">
        <ele>328.79998779297</ele>
        <time>2020-07-31T07:03:55.000Z</time>
      </trkpt>
      <trkpt lat="46.29109" lon="5.43331">
        <ele>328.79998779297</ele>
        <time>2020-07-31T07:03:57.000Z</time>
      </trkpt>
      <trkpt lat="46.29121" lon="5.43342">
        <ele>328.79998779297</ele>
        <time>2020-07-31T07:03:59.000Z</time>
      </trkpt>
      <trkpt lat="46.29134" lon="5.43351">
        <ele>329</ele>
        <time>2020-07-31T07:04:01.000Z</time>
      </trkpt>
      <trkpt lat="46.2914" lon="5.43356">
        <ele>329.20001220703</ele>
        <time>2020-07-31T07:04:02.000Z</time>
      </trkpt>
      <trkpt lat="46.29146" lon="5.43361">
        <ele>329.20001220703</ele>
        <time>2020-07-31T07:04:03.000Z</time>
      </trkpt>
      <trkpt lat="46.29159" lon="5.43371">
        <ele>329.20001220703</ele>
        <time>2020-07-31T07:04:05.000Z</time>
      </trkpt>
      <trkpt lat="46.29172" lon="5.43379">
        <ele>329.20001220703</ele>
        <time>2020-07-31T07:04:07.000Z</time>
      </trkpt>
      <trkpt lat="46.29185" lon="5.43388">
        <ele>329.20001220703</ele>
        <time>2020-07-31T07:04:09.000Z</time>
      </trkpt>
      <trkpt lat="46.29198" lon="5.43396">
        <ele>329.39999389648</ele>
        <time>2020-07-31T07:04:11.000Z</time>
      </trkpt>
      <trkpt lat="46.29211" lon="5.43403">
        <ele>329.60000610352</ele>
        <time>2020-07-31T07:04:13.000Z</time>
      </trkpt>
      <trkpt lat="46.29226" lon="5.43409">
        <ele>329.79998779297</ele>
        <time>2020-07-31T07:04:15.000Z</time>
      </trkpt>
      <trkpt lat="46.2924" lon="5.43414">
        <ele>329.79998779297</ele>
        <time>2020-07-31T07:04:17.000Z</time>
      </trkpt>
      <trkpt lat="46.29254" lon="5.43419">
        <ele>329.79998779297</ele>
        <time>2020-07-31T07:04:19.000Z</time>
      </trkpt>
      <trkpt lat="46.29268" lon="5.43424">
        <ele>329.79998779297</ele>
        <time>2020-07-31T07:04:21.000Z</time>
      </trkpt>
      <trkpt lat="46.29282" lon="5.43429">
        <ele>329.79998779297</ele>
        <time>2020-07-31T07:04:23.000Z</time>
      </trkpt>
      <trkpt lat="46.29297" lon="5.43435">
        <ele>329.79998779297</ele>
        <time>2020-07-31T07:04:25.000Z</time>
      </trkpt>
      <trkpt lat="46.29304" lon="5.43439">
        <ele>329.79998779297</ele>
        <time>2020-07-31T07:04:26.000Z</time>
      </trkpt>
      <trkpt lat="46.29311" lon="5.43442">
        <ele>329.79998779297</ele>
        <time>2020-07-31T07:04:27.000Z</time>
      </trkpt>
      <trkpt lat="46.29324" lon="5.43448">
        <ele>329.79998779297</ele>
        <time>2020-07-31T07:04:29.000Z</time>
      </trkpt>
      <trkpt lat="46.29338" lon="5.43455">
        <ele>329.79998779297</ele>
        <time>2020-07-31T07:04:31.000Z</time>
      </trkpt>
      <trkpt lat="46.2935" lon="5.43463">
        <ele>329.79998779297</ele>
        <time>2020-07-31T07:04:33.000Z</time>
      </trkpt>
      <trkpt lat="46.29357" lon="5.43467">
        <ele>329.79998779297</ele>
        <time>2020-07-31T07:04:34.000Z</time>
      </trkpt>
      <trkpt lat="46.29364" lon="5.43472">
        <ele>329.79998779297</ele>
        <time>2020-07-31T07:04:35.000Z</time>
      </trkpt>
      <trkpt lat="46.29377" lon="5.4348">
        <ele>330</ele>
        <time>2020-07-31T07:04:37.000Z</time>
      </trkpt>
      <trkpt lat="46.29383" lon="5.43484">
        <ele>330.20001220703</ele>
        <time>2020-07-31T07:04:38.000Z</time>
      </trkpt>
      <trkpt lat="46.2939" lon="5.43489">
        <ele>330.39999389648</ele>
        <time>2020-07-31T07:04:39.000Z</time>
      </trkpt>
      <trkpt lat="46.29403" lon="5.43498">
        <ele>330.39999389648</ele>
        <time>2020-07-31T07:04:41.000Z</time>
      </trkpt>
      <trkpt lat="46.29416" lon="5.43506">
        <ele>330.79998779297</ele>
        <time>2020-07-31T07:04:43.000Z</time>
      </trkpt>
      <trkpt lat="46.29422" lon="5.4351">
        <ele>330.79998779297</ele>
        <time>2020-07-31T07:04:44.000Z</time>
      </trkpt>
      <trkpt lat="46.29429" lon="5.43514">
        <ele>331</ele>
        <time>2020-07-31T07:04:45.000Z</time>
      </trkpt>
      <trkpt lat="46.29442" lon="5.43522">
        <ele>331.20001220703</ele>
        <time>2020-07-31T07:04:47.000Z</time>
      </trkpt>
      <trkpt lat="46.29449" lon="5.43526">
        <ele>331.39999389648</ele>
        <time>2020-07-31T07:04:48.000Z</time>
      </trkpt>
      <trkpt lat="46.29455" lon="5.4353">
        <ele>331.60000610352</ele>
        <time>2020-07-31T07:04:49.000Z</time>
      </trkpt>
      <trkpt lat="46.29469" lon="5.43537">
        <ele>331.60000610352</ele>
        <time>2020-07-31T07:04:51.000Z</time>
      </trkpt>
      <trkpt lat="46.29475" lon="5.43541">
        <ele>331.79998779297</ele>
        <time>2020-07-31T07:04:52.000Z</time>
      </trkpt>
      <trkpt lat="46.29482" lon="5.43544">
        <ele>331.79998779297</ele>
        <time>2020-07-31T07:04:53.000Z</time>
      </trkpt>
      <trkpt lat="46.29495" lon="5.43551">
        <ele>332</ele>
        <time>2020-07-31T07:04:55.000Z</time>
      </trkpt>
      <trkpt lat="46.29508" lon="5.43558">
        <ele>332.20001220703</ele>
        <time>2020-07-31T07:04:57.000Z</time>
      </trkpt>
      <trkpt lat="46.29522" lon="5.43565">
        <ele>332.39999389648</ele>
        <time>2020-07-31T07:04:59.000Z</time>
      </trkpt>
      <trkpt lat="46.29535" lon="5.43572">
        <ele>332.39999389648</ele>
        <time>2020-07-31T07:05:01.000Z</time>
      </trkpt>
      <trkpt lat="46.29548" lon="5.43579">
        <ele>332.60000610352</ele>
        <time>2020-07-31T07:05:03.000Z</time>
      </trkpt>
      <trkpt lat="46.29561" lon="5.43586">
        <ele>332.79998779297</ele>
        <time>2020-07-31T07:05:05.000Z</time>
      </trkpt>
      <trkpt lat="46.29575" lon="5.43593">
        <ele>332.79998779297</ele>
        <time>2020-07-31T07:05:07.000Z</time>
      </trkpt>
      <trkpt lat="46.29588" lon="5.436">
        <ele>332.79998779297</ele>
        <time>2020-07-31T07:05:09.000Z</time>
      </trkpt>
      <trkpt lat="46.29601" lon="5.43607">
        <ele>332.79998779297</ele>
        <time>2020-07-31T07:05:11.000Z</time>
      </trkpt>
      <trkpt lat="46.29614" lon="5.43614">
        <ele>333</ele>
        <time>2020-07-31T07:05:13.000Z</time>
      </trkpt>
      <trkpt lat="46.29627" lon="5.43621">
        <ele>333</ele>
        <time>2020-07-31T07:05:15.000Z</time>
      </trkpt>
      <trkpt lat="46.2964" lon="5.43628">
        <ele>333.39999389648</ele>
        <time>2020-07-31T07:05:17.000Z</time>
      </trkpt>
      <trkpt lat="46.29653" lon="5.43635">
        <ele>333.39999389648</ele>
        <time>2020-07-31T07:05:19.000Z</time>
      </trkpt>
      <trkpt lat="46.29666" lon="5.43642">
        <ele>333.39999389648</ele>
        <time>2020-07-31T07:05:21.000Z</time>
      </trkpt>
      <trkpt lat="46.2968" lon="5.43648">
        <ele>333.60000610352</ele>
        <time>2020-07-31T07:05:23.000Z</time>
      </trkpt>
      <trkpt lat="46.29693" lon="5.43655">
        <ele>333.60000610352</ele>
        <time>2020-07-31T07:05:25.000Z</time>
      </trkpt>
      <trkpt lat="46.29707" lon="5.43663">
        <ele>333.60000610352</ele>
        <time>2020-07-31T07:05:27.000Z</time>
      </trkpt>
      <trkpt lat="46.29721" lon="5.4367">
        <ele>333.60000610352</ele>
        <time>2020-07-31T07:05:29.000Z</time>
      </trkpt>
      <trkpt lat="46.29734" lon="5.43677">
        <ele>333.60000610352</ele>
        <time>2020-07-31T07:05:31.000Z</time>
      </trkpt>
      <trkpt lat="46.29748" lon="5.43684">
        <ele>333.60000610352</ele>
        <time>2020-07-31T07:05:33.000Z</time>
      </trkpt>
      <trkpt lat="46.29762" lon="5.43691">
        <ele>333.60000610352</ele>
        <time>2020-07-31T07:05:35.000Z</time>
      </trkpt>
      <trkpt lat="46.29775" lon="5.43698">
        <ele>333.60000610352</ele>
        <time>2020-07-31T07:05:37.000Z</time>
      </trkpt>
      <trkpt lat="46.29789" lon="5.43705">
        <ele>333.60000610352</ele>
        <time>2020-07-31T07:05:39.000Z</time>
      </trkpt>
      <trkpt lat="46.29803" lon="5.43712">
        <ele>333.60000610352</ele>
        <time>2020-07-31T07:05:41.000Z</time>
      </trkpt>
      <trkpt lat="46.2981" lon="5.43715">
        <ele>333.60000610352</ele>
        <time>2020-07-31T07:05:42.000Z</time>
      </trkpt>
      <trkpt lat="46.29817" lon="5.43718">
        <ele>333.60000610352</ele>
        <time>2020-07-31T07:05:43.000Z</time>
      </trkpt>
      <trkpt lat="46.2983" lon="5.43725">
        <ele>333.60000610352</ele>
        <time>2020-07-31T07:05:45.000Z</time>
      </trkpt>
      <trkpt lat="46.29844" lon="5.43731">
        <ele>333.60000610352</ele>
        <time>2020-07-31T07:05:47.000Z</time>
      </trkpt>
      <trkpt lat="46.29858" lon="5.43737">
        <ele>333.79998779297</ele>
        <time>2020-07-31T07:05:49.000Z</time>
      </trkpt>
      <trkpt lat="46.29872" lon="5.43743">
        <ele>333.79998779297</ele>
        <time>2020-07-31T07:05:51.000Z</time>
      </trkpt>
      <trkpt lat="46.29885" lon="5.43749">
        <ele>334</ele>
        <time>2020-07-31T07:05:53.000Z</time>
      </trkpt>
      <trkpt lat="46.29899" lon="5.43754">
        <ele>334</ele>
        <time>2020-07-31T07:05:55.000Z</time>
      </trkpt>
      <trkpt lat="46.29913" lon="5.4376">
        <ele>334.20001220703</ele>
        <time>2020-07-31T07:05:57.000Z</time>
      </trkpt>
      <trkpt lat="46.29927" lon="5.43766">
        <ele>334.39999389648</ele>
        <time>2020-07-31T07:05:59.000Z</time>
      </trkpt>
      <trkpt lat="46.29934" lon="5.43769">
        <ele>334.39999389648</ele>
        <time>2020-07-31T07:06:00.000Z</time>
      </trkpt>
      <trkpt lat="46.29941" lon="5.43772">
        <ele>334.39999389648</ele>
        <time>2020-07-31T07:06:01.000Z</time>
      </trkpt>
      <trkpt lat="46.29954" lon="5.43778">
        <ele>334.60000610352</ele>
        <time>2020-07-31T07:06:03.000Z</time>
      </trkpt>
      <trkpt lat="46.29968" lon="5.43784">
        <ele>334.60000610352</ele>
        <time>2020-07-31T07:06:05.000Z</time>
      </trkpt>
      <trkpt lat="46.29983" lon="5.4379">
        <ele>334.60000610352</ele>
        <time>2020-07-31T07:06:07.000Z</time>
      </trkpt>
      <trkpt lat="46.29997" lon="5.43796">
        <ele>334.60000610352</ele>
        <time>2020-07-31T07:06:09.000Z</time>
      </trkpt>
      <trkpt lat="46.30011" lon="5.43803">
        <ele>334.60000610352</ele>
        <time>2020-07-31T07:06:11.000Z</time>
      </trkpt>
      <trkpt lat="46.30025" lon="5.4381">
        <ele>334.79998779297</ele>
        <time>2020-07-31T07:06:13.000Z</time>
      </trkpt>
      <trkpt lat="46.30038" lon="5.43817">
        <ele>334.79998779297</ele>
        <time>2020-07-31T07:06:15.000Z</time>
      </trkpt>
      <trkpt lat="46.30052" lon="5.43824">
        <ele>334.79998779297</ele>
        <time>2020-07-31T07:06:17.000Z</time>
      </trkpt>
      <trkpt lat="46.30066" lon="5.43831">
        <ele>334.79998779297</ele>
        <time>2020-07-31T07:06:19.000Z</time>
      </trkpt>
      <trkpt lat="46.30073" lon="5.43835">
        <ele>334.79998779297</ele>
        <time>2020-07-31T07:06:20.000Z</time>
      </trkpt>
      <trkpt lat="46.3008" lon="5.43838">
        <ele>334.79998779297</ele>
        <time>2020-07-31T07:06:21.000Z</time>
      </trkpt>
      <trkpt lat="46.30093" lon="5.43845">
        <ele>334.79998779297</ele>
        <time>2020-07-31T07:06:23.000Z</time>
      </trkpt>
      <trkpt lat="46.30107" lon="5.43853">
        <ele>335</ele>
        <time>2020-07-31T07:06:25.000Z</time>
      </trkpt>
      <trkpt lat="46.3012" lon="5.4386">
        <ele>335</ele>
        <time>2020-07-31T07:06:27.000Z</time>
      </trkpt>
      <trkpt lat="46.30127" lon="5.43863">
        <ele>335</ele>
        <time>2020-07-31T07:06:28.000Z</time>
      </trkpt>
      <trkpt lat="46.30134" lon="5.43867">
        <ele>335.20001220703</ele>
        <time>2020-07-31T07:06:29.000Z</time>
      </trkpt>
      <trkpt lat="46.30147" lon="5.43874">
        <ele>335.20001220703</ele>
        <time>2020-07-31T07:06:31.000Z</time>
      </trkpt>
      <trkpt lat="46.30161" lon="5.43881">
        <ele>335.60000610352</ele>
        <time>2020-07-31T07:06:33.000Z</time>
      </trkpt>
      <trkpt lat="46.30174" lon="5.43888">
        <ele>335.60000610352</ele>
        <time>2020-07-31T07:06:35.000Z</time>
      </trkpt>
      <trkpt lat="46.30187" lon="5.43895">
        <ele>335.60000610352</ele>
        <time>2020-07-31T07:06:37.000Z</time>
      </trkpt>
      <trkpt lat="46.302" lon="5.43901">
        <ele>335.60000610352</ele>
        <time>2020-07-31T07:06:39.000Z</time>
      </trkpt>
      <trkpt lat="46.30213" lon="5.43908">
        <ele>335.79998779297</ele>
        <time>2020-07-31T07:06:41.000Z</time>
      </trkpt>
      <trkpt lat="46.30227" lon="5.43914">
        <ele>335.79998779297</ele>
        <time>2020-07-31T07:06:43.000Z</time>
      </trkpt>
      <trkpt lat="46.30241" lon="5.43921">
        <ele>335.79998779297</ele>
        <time>2020-07-31T07:06:45.000Z</time>
      </trkpt>
      <trkpt lat="46.30254" lon="5.43928">
        <ele>336</ele>
        <time>2020-07-31T07:06:47.000Z</time>
      </trkpt>
      <trkpt lat="46.30268" lon="5.43935">
        <ele>336</ele>
        <time>2020-07-31T07:06:49.000Z</time>
      </trkpt>
      <trkpt lat="46.30275" lon="5.43938">
        <ele>336</ele>
        <time>2020-07-31T07:06:50.000Z</time>
      </trkpt>
      <trkpt lat="46.30282" lon="5.43942">
        <ele>336</ele>
        <time>2020-07-31T07:06:51.000Z</time>
      </trkpt>
      <trkpt lat="46.30296" lon="5.43948">
        <ele>336</ele>
        <time>2020-07-31T07:06:53.000Z</time>
      </trkpt>
      <trkpt lat="46.3031" lon="5.43956">
        <ele>335.79998779297</ele>
        <time>2020-07-31T07:06:55.000Z</time>
      </trkpt>
      <trkpt lat="46.30324" lon="5.43963">
        <ele>335.79998779297</ele>
        <time>2020-07-31T07:06:57.000Z</time>
      </trkpt>
      <trkpt lat="46.30338" lon="5.43969">
        <ele>335.79998779297</ele>
        <time>2020-07-31T07:06:59.000Z</time>
      </trkpt>
      <trkpt lat="46.30344" lon="5.43972">
        <ele>335.79998779297</ele>
        <time>2020-07-31T07:07:00.000Z</time>
      </trkpt>
      <trkpt lat="46.30351" lon="5.43975">
        <ele>335.79998779297</ele>
        <time>2020-07-31T07:07:01.000Z</time>
      </trkpt>
      <trkpt lat="46.30365" lon="5.43982">
        <ele>335.79998779297</ele>
        <time>2020-07-31T07:07:03.000Z</time>
      </trkpt>
      <trkpt lat="46.30379" lon="5.43989">
        <ele>335.79998779297</ele>
        <time>2020-07-31T07:07:05.000Z</time>
      </trkpt>
      <trkpt lat="46.30392" lon="5.43995">
        <ele>335.60000610352</ele>
        <time>2020-07-31T07:07:07.000Z</time>
      </trkpt>
      <trkpt lat="46.30405" lon="5.44">
        <ele>335.60000610352</ele>
        <time>2020-07-31T07:07:09.000Z</time>
      </trkpt>
      <trkpt lat="46.30412" lon="5.44001">
        <ele>335.60000610352</ele>
        <time>2020-07-31T07:07:10.000Z</time>
      </trkpt>
      <trkpt lat="46.30418" lon="5.43998">
        <ele>335.60000610352</ele>
        <time>2020-07-31T07:07:11.000Z</time>
      </trkpt>
      <trkpt lat="46.30426" lon="5.43985">
        <ele>335.60000610352</ele>
        <time>2020-07-31T07:07:13.000Z</time>
      </trkpt>
      <trkpt lat="46.30427" lon="5.43966">
        <ele>335.79998779297</ele>
        <time>2020-07-31T07:07:15.000Z</time>
      </trkpt>
      <trkpt lat="46.30426" lon="5.43956">
        <ele>335.79998779297</ele>
        <time>2020-07-31T07:07:16.000Z</time>
      </trkpt>
      <trkpt lat="46.30425" lon="5.43946">
        <ele>336</ele>
        <time>2020-07-31T07:07:17.000Z</time>
      </trkpt>
      <trkpt lat="46.30424" lon="5.43924">
        <ele>336</ele>
        <time>2020-07-31T07:07:19.000Z</time>
      </trkpt>
      <trkpt lat="46.30423" lon="5.43903">
        <ele>336.39999389648</ele>
        <time>2020-07-31T07:07:21.000Z</time>
      </trkpt>
      <trkpt lat="46.30423" lon="5.43892">
        <ele>336.39999389648</ele>
        <time>2020-07-31T07:07:22.000Z</time>
      </trkpt>
      <trkpt lat="46.30423" lon="5.43882">
        <ele>336.60000610352</ele>
        <time>2020-07-31T07:07:23.000Z</time>
      </trkpt>
      <trkpt lat="46.30422" lon="5.43862">
        <ele>336.79998779297</ele>
        <time>2020-07-31T07:07:25.000Z</time>
      </trkpt>
      <trkpt lat="46.30421" lon="5.43843">
        <ele>337.20001220703</ele>
        <time>2020-07-31T07:07:27.000Z</time>
      </trkpt>
      <trkpt lat="46.30421" lon="5.43824">
        <ele>337.39999389648</ele>
        <time>2020-07-31T07:07:29.000Z</time>
      </trkpt>
      <trkpt lat="46.3042" lon="5.43805">
        <ele>337.39999389648</ele>
        <time>2020-07-31T07:07:31.000Z</time>
      </trkpt>
      <trkpt lat="46.3042" lon="5.43796">
        <ele>337.60000610352</ele>
        <time>2020-07-31T07:07:32.000Z</time>
      </trkpt>
      <trkpt lat="46.30422" lon="5.43787">
        <ele>338</ele>
        <time>2020-07-31T07:07:33.000Z</time>
      </trkpt>
      <trkpt lat="46.30424" lon="5.43779">
        <ele>338</ele>
        <time>2020-07-31T07:07:34.000Z</time>
      </trkpt>
      <trkpt lat="46.30428" lon="5.43772">
        <ele>338.39999389648</ele>
        <time>2020-07-31T07:07:35.000Z</time>
      </trkpt>
      <trkpt lat="46.30439" lon="5.43763">
        <ele>338.79998779297</ele>
        <time>2020-07-31T07:07:37.000Z</time>
      </trkpt>
      <trkpt lat="46.3045" lon="5.43759">
        <ele>339</ele>
        <time>2020-07-31T07:07:39.000Z</time>
      </trkpt>
      <trkpt lat="46.30463" lon="5.43757">
        <ele>339.20001220703</ele>
        <time>2020-07-31T07:07:41.000Z</time>
      </trkpt>
      <trkpt lat="46.30475" lon="5.43754">
        <ele>339.60000610352</ele>
        <time>2020-07-31T07:07:43.000Z</time>
      </trkpt>
      <trkpt lat="46.30486" lon="5.43752">
        <ele>339.60000610352</ele>
        <time>2020-07-31T07:07:45.000Z</time>
      </trkpt>
      <trkpt lat="46.30498" lon="5.43749">
        <ele>339.79998779297</ele>
        <time>2020-07-31T07:07:47.000Z</time>
      </trkpt>
      <trkpt lat="46.30508" lon="5.43748">
        <ele>340.20001220703</ele>
        <time>2020-07-31T07:07:49.000Z</time>
      </trkpt>
      <trkpt lat="46.30513" lon="5.43748">
        <ele>340.39999389648</ele>
        <time>2020-07-31T07:07:50.000Z</time>
      </trkpt>
      <trkpt lat="46.30518" lon="5.43747">
        <ele>340.39999389648</ele>
        <time>2020-07-31T07:07:51.000Z</time>
      </trkpt>
      <trkpt lat="46.30528" lon="5.43746">
        <ele>340.79998779297</ele>
        <time>2020-07-31T07:07:53.000Z</time>
      </trkpt>
      <trkpt lat="46.30537" lon="5.43744">
        <ele>341.39999389648</ele>
        <time>2020-07-31T07:07:55.000Z</time>
      </trkpt>
      <trkpt lat="46.30547" lon="5.43741">
        <ele>342</ele>
        <time>2020-07-31T07:07:57.000Z</time>
      </trkpt>
      <trkpt lat="46.30557" lon="5.43739">
        <ele>343</ele>
        <time>2020-07-31T07:07:59.000Z</time>
      </trkpt>
      <trkpt lat="46.30562" lon="5.43737">
        <ele>343.60000610352</ele>
        <time>2020-07-31T07:08:00.000Z</time>
      </trkpt>
      <trkpt lat="46.30567" lon="5.43735">
        <ele>344</ele>
        <time>2020-07-31T07:08:01.000Z</time>
      </trkpt>
      <trkpt lat="46.30577" lon="5.43732">
        <ele>344.39999389648</ele>
        <time>2020-07-31T07:08:03.000Z</time>
      </trkpt>
      <trkpt lat="46.30588" lon="5.43729">
        <ele>344.60000610352</ele>
        <time>2020-07-31T07:08:05.000Z</time>
      </trkpt>
      <trkpt lat="46.30593" lon="5.43727">
        <ele>344.79998779297</ele>
        <time>2020-07-31T07:08:06.000Z</time>
      </trkpt>
      <trkpt lat="46.30599" lon="5.43724">
        <ele>345</ele>
        <time>2020-07-31T07:08:07.000Z</time>
      </trkpt>
      <trkpt lat="46.30609" lon="5.4372">
        <ele>345.20001220703</ele>
        <time>2020-07-31T07:08:09.000Z</time>
      </trkpt>
      <trkpt lat="46.30619" lon="5.43717">
        <ele>345.60000610352</ele>
        <time>2020-07-31T07:08:11.000Z</time>
      </trkpt>
      <trkpt lat="46.30629" lon="5.43713">
        <ele>345.79998779297</ele>
        <time>2020-07-31T07:08:13.000Z</time>
      </trkpt>
      <trkpt lat="46.30639" lon="5.43709">
        <ele>345.79998779297</ele>
        <time>2020-07-31T07:08:15.000Z</time>
      </trkpt>
      <trkpt lat="46.30649" lon="5.43705">
        <ele>346</ele>
        <time>2020-07-31T07:08:17.000Z</time>
      </trkpt>
      <trkpt lat="46.30659" lon="5.437">
        <ele>346.20001220703</ele>
        <time>2020-07-31T07:08:19.000Z</time>
      </trkpt>
      <trkpt lat="46.30669" lon="5.43695">
        <ele>346.60000610352</ele>
        <time>2020-07-31T07:08:21.000Z</time>
      </trkpt>
      <trkpt lat="46.3068" lon="5.4369">
        <ele>347</ele>
        <time>2020-07-31T07:08:23.000Z</time>
      </trkpt>
      <trkpt lat="46.30692" lon="5.43686">
        <ele>347</ele>
        <time>2020-07-31T07:08:25.000Z</time>
      </trkpt>
      <trkpt lat="46.30704" lon="5.43681">
        <ele>347</ele>
        <time>2020-07-31T07:08:27.000Z</time>
      </trkpt>
      <trkpt lat="46.30716" lon="5.43675">
        <ele>347</ele>
        <time>2020-07-31T07:08:29.000Z</time>
      </trkpt>
      <trkpt lat="46.30729" lon="5.43668">
        <ele>347</ele>
        <time>2020-07-31T07:08:31.000Z</time>
      </trkpt>
      <trkpt lat="46.30735" lon="5.43664">
        <ele>347</ele>
        <time>2020-07-31T07:08:32.000Z</time>
      </trkpt>
      <trkpt lat="46.30741" lon="5.4366">
        <ele>347</ele>
        <time>2020-07-31T07:08:33.000Z</time>
      </trkpt>
      <trkpt lat="46.30753" lon="5.43651">
        <ele>346.60000610352</ele>
        <time>2020-07-31T07:08:35.000Z</time>
      </trkpt>
      <trkpt lat="46.30765" lon="5.43641">
        <ele>346.60000610352</ele>
        <time>2020-07-31T07:08:37.000Z</time>
      </trkpt>
      <trkpt lat="46.30775" lon="5.43627">
        <ele>346.20001220703</ele>
        <time>2020-07-31T07:08:39.000Z</time>
      </trkpt>
      <trkpt lat="46.30783" lon="5.4361">
        <ele>346</ele>
        <time>2020-07-31T07:08:41.000Z</time>
      </trkpt>
      <trkpt lat="46.30787" lon="5.43601">
        <ele>346</ele>
        <time>2020-07-31T07:08:42.000Z</time>
      </trkpt>
      <trkpt lat="46.30791" lon="5.43592">
        <ele>346</ele>
        <time>2020-07-31T07:08:43.000Z</time>
      </trkpt>
      <trkpt lat="46.30795" lon="5.43583">
        <ele>345.79998779297</ele>
        <time>2020-07-31T07:08:44.000Z</time>
      </trkpt>
      <trkpt lat="46.30798" lon="5.43574">
        <ele>345.79998779297</ele>
        <time>2020-07-31T07:08:45.000Z</time>
      </trkpt>
      <trkpt lat="46.30807" lon="5.43557">
        <ele>345.60000610352</ele>
        <time>2020-07-31T07:08:47.000Z</time>
      </trkpt>
      <trkpt lat="46.30817" lon="5.43542">
        <ele>345.39999389648</ele>
        <time>2020-07-31T07:08:49.000Z</time>
      </trkpt>
      <trkpt lat="46.3083" lon="5.43532">
        <ele>344.79998779297</ele>
        <time>2020-07-31T07:08:51.000Z</time>
      </trkpt>
      <trkpt lat="46.30836" lon="5.43527">
        <ele>344.79998779297</ele>
        <time>2020-07-31T07:08:52.000Z</time>
      </trkpt>
      <trkpt lat="46.30842" lon="5.43522">
        <ele>344.60000610352</ele>
        <time>2020-07-31T07:08:53.000Z</time>
      </trkpt>
      <trkpt lat="46.30848" lon="5.43518">
        <ele>344.60000610352</ele>
        <time>2020-07-31T07:08:54.000Z</time>
      </trkpt>
      <trkpt lat="46.30854" lon="5.43514">
        <ele>344.60000610352</ele>
        <time>2020-07-31T07:08:55.000Z</time>
      </trkpt>
      <trkpt lat="46.30866" lon="5.43505">
        <ele>344.60000610352</ele>
        <time>2020-07-31T07:08:57.000Z</time>
      </trkpt>
      <trkpt lat="46.30878" lon="5.43497">
        <ele>344.60000610352</ele>
        <time>2020-07-31T07:08:59.000Z</time>
      </trkpt>
      <trkpt lat="46.30889" lon="5.43489">
        <ele>344.60000610352</ele>
        <time>2020-07-31T07:09:01.000Z</time>
      </trkpt>
      <trkpt lat="46.30901" lon="5.43482">
        <ele>344.60000610352</ele>
        <time>2020-07-31T07:09:03.000Z</time>
      </trkpt>
      <trkpt lat="46.30914" lon="5.43476">
        <ele>344.79998779297</ele>
        <time>2020-07-31T07:09:05.000Z</time>
      </trkpt>
      <trkpt lat="46.30927" lon="5.43469">
        <ele>345</ele>
        <time>2020-07-31T07:09:07.000Z</time>
      </trkpt>
      <trkpt lat="46.3094" lon="5.43463">
        <ele>345.20001220703</ele>
        <time>2020-07-31T07:09:09.000Z</time>
      </trkpt>
      <trkpt lat="46.30952" lon="5.43456">
        <ele>345.39999389648</ele>
        <time>2020-07-31T07:09:11.000Z</time>
      </trkpt>
      <trkpt lat="46.30964" lon="5.43449">
        <ele>345.39999389648</ele>
        <time>2020-07-31T07:09:13.000Z</time>
      </trkpt>
      <trkpt lat="46.30976" lon="5.43441">
        <ele>345.39999389648</ele>
        <time>2020-07-31T07:09:15.000Z</time>
      </trkpt>
      <trkpt lat="46.30988" lon="5.43434">
        <ele>345.60000610352</ele>
        <time>2020-07-31T07:09:17.000Z</time>
      </trkpt>
      <trkpt lat="46.30999" lon="5.43427">
        <ele>345.79998779297</ele>
        <time>2020-07-31T07:09:19.000Z</time>
      </trkpt>
      <trkpt lat="46.31005" lon="5.43424">
        <ele>345.79998779297</ele>
        <time>2020-07-31T07:09:20.000Z</time>
      </trkpt>
      <trkpt lat="46.3101" lon="5.4342">
        <ele>346</ele>
        <time>2020-07-31T07:09:21.000Z</time>
      </trkpt>
      <trkpt lat="46.31016" lon="5.43416">
        <ele>346.20001220703</ele>
        <time>2020-07-31T07:09:22.000Z</time>
      </trkpt>
      <trkpt lat="46.31021" lon="5.43413">
        <ele>346.39999389648</ele>
        <time>2020-07-31T07:09:23.000Z</time>
      </trkpt>
      <trkpt lat="46.31032" lon="5.43407">
        <ele>346.60000610352</ele>
        <time>2020-07-31T07:09:25.000Z</time>
      </trkpt>
      <trkpt lat="46.31043" lon="5.43402">
        <ele>347</ele>
        <time>2020-07-31T07:09:27.000Z</time>
      </trkpt>
      <trkpt lat="46.31053" lon="5.43397">
        <ele>347.60000610352</ele>
        <time>2020-07-31T07:09:29.000Z</time>
      </trkpt>
      <trkpt lat="46.31059" lon="5.43395">
        <ele>347.79998779297</ele>
        <time>2020-07-31T07:09:30.000Z</time>
      </trkpt>
      <trkpt lat="46.31064" lon="5.43392">
        <ele>348</ele>
        <time>2020-07-31T07:09:31.000Z</time>
      </trkpt>
      <trkpt lat="46.31069" lon="5.4339">
        <ele>348.20001220703</ele>
        <time>2020-07-31T07:09:32.000Z</time>
      </trkpt>
      <trkpt lat="46.31075" lon="5.43388">
        <ele>348.39999389648</ele>
        <time>2020-07-31T07:09:33.000Z</time>
      </trkpt>
      <trkpt lat="46.31085" lon="5.43384">
        <ele>348.79998779297</ele>
        <time>2020-07-31T07:09:35.000Z</time>
      </trkpt>
      <trkpt lat="46.31096" lon="5.4338">
        <ele>349.20001220703</ele>
        <time>2020-07-31T07:09:37.000Z</time>
      </trkpt>
      <trkpt lat="46.31101" lon="5.43378">
        <ele>349.39999389648</ele>
        <time>2020-07-31T07:09:38.000Z</time>
      </trkpt>
      <trkpt lat="46.31106" lon="5.43376">
        <ele>349.60000610352</ele>
        <time>2020-07-31T07:09:39.000Z</time>
      </trkpt>
      <trkpt lat="46.31117" lon="5.43371">
        <ele>349.79998779297</ele>
        <time>2020-07-31T07:09:41.000Z</time>
      </trkpt>
      <trkpt lat="46.31127" lon="5.43366">
        <ele>350.20001220703</ele>
        <time>2020-07-31T07:09:43.000Z</time>
      </trkpt>
      <trkpt lat="46.31132" lon="5.43363">
        <ele>350.39999389648</ele>
        <time>2020-07-31T07:09:44.000Z</time>
      </trkpt>
      <trkpt lat="46.31138" lon="5.4336">
        <ele>350.60000610352</ele>
        <time>2020-07-31T07:09:45.000Z</time>
      </trkpt>
      <trkpt lat="46.31148" lon="5.43354">
        <ele>351</ele>
        <time>2020-07-31T07:09:47.000Z</time>
      </trkpt>
      <trkpt lat="46.31158" lon="5.43347">
        <ele>351.39999389648</ele>
        <time>2020-07-31T07:09:49.000Z</time>
      </trkpt>
      <trkpt lat="46.31163" lon="5.43343">
        <ele>351.60000610352</ele>
        <time>2020-07-31T07:09:50.000Z</time>
      </trkpt>
      <trkpt lat="46.31168" lon="5.43339">
        <ele>351.60000610352</ele>
        <time>2020-07-31T07:09:51.000Z</time>
      </trkpt>
      <trkpt lat="46.31178" lon="5.43332">
        <ele>351.79998779297</ele>
        <time>2020-07-31T07:09:53.000Z</time>
      </trkpt>
      <trkpt lat="46.31189" lon="5.43325">
        <ele>352</ele>
        <time>2020-07-31T07:09:55.000Z</time>
      </trkpt>
      <trkpt lat="46.31199" lon="5.43318">
        <ele>352</ele>
        <time>2020-07-31T07:09:57.000Z</time>
      </trkpt>
      <trkpt lat="46.31209" lon="5.4331">
        <ele>352.20001220703</ele>
        <time>2020-07-31T07:09:59.000Z</time>
      </trkpt>
      <trkpt lat="46.31219" lon="5.43303">
        <ele>352.39999389648</ele>
        <time>2020-07-31T07:10:01.000Z</time>
      </trkpt>
      <trkpt lat="46.3123" lon="5.43296">
        <ele>352.60000610352</ele>
        <time>2020-07-31T07:10:03.000Z</time>
      </trkpt>
      <trkpt lat="46.31241" lon="5.43289">
        <ele>352.79998779297</ele>
        <time>2020-07-31T07:10:05.000Z</time>
      </trkpt>
      <trkpt lat="46.31251" lon="5.43282">
        <ele>353</ele>
        <time>2020-07-31T07:10:07.000Z</time>
      </trkpt>
      <trkpt lat="46.31261" lon="5.43274">
        <ele>353.20001220703</ele>
        <time>2020-07-31T07:10:09.000Z</time>
      </trkpt>
      <trkpt lat="46.31271" lon="5.43266">
        <ele>353.39999389648</ele>
        <time>2020-07-31T07:10:11.000Z</time>
      </trkpt>
      <trkpt lat="46.31276" lon="5.43262">
        <ele>353.39999389648</ele>
        <time>2020-07-31T07:10:12.000Z</time>
      </trkpt>
      <trkpt lat="46.31281" lon="5.43258">
        <ele>353.39999389648</ele>
        <time>2020-07-31T07:10:13.000Z</time>
      </trkpt>
      <trkpt lat="46.31291" lon="5.43251">
        <ele>353.79998779297</ele>
        <time>2020-07-31T07:10:15.000Z</time>
      </trkpt>
      <trkpt lat="46.31301" lon="5.43244">
        <ele>354</ele>
        <time>2020-07-31T07:10:17.000Z</time>
      </trkpt>
      <trkpt lat="46.31306" lon="5.4324">
        <ele>354</ele>
        <time>2020-07-31T07:10:18.000Z</time>
      </trkpt>
      <trkpt lat="46.31312" lon="5.43236">
        <ele>354.20001220703</ele>
        <time>2020-07-31T07:10:19.000Z</time>
      </trkpt>
      <trkpt lat="46.31317" lon="5.43232">
        <ele>354.39999389648</ele>
        <time>2020-07-31T07:10:20.000Z</time>
      </trkpt>
      <trkpt lat="46.31322" lon="5.43229">
        <ele>354.60000610352</ele>
        <time>2020-07-31T07:10:21.000Z</time>
      </trkpt>
      <trkpt lat="46.31332" lon="5.43221">
        <ele>354.79998779297</ele>
        <time>2020-07-31T07:10:23.000Z</time>
      </trkpt>
      <trkpt lat="46.31343" lon="5.43214">
        <ele>354.79998779297</ele>
        <time>2020-07-31T07:10:25.000Z</time>
      </trkpt>
      <trkpt lat="46.31353" lon="5.43208">
        <ele>355</ele>
        <time>2020-07-31T07:10:27.000Z</time>
      </trkpt>
      <trkpt lat="46.31359" lon="5.43205">
        <ele>355.20001220703</ele>
        <time>2020-07-31T07:10:28.000Z</time>
      </trkpt>
      <trkpt lat="46.31365" lon="5.43203">
        <ele>355.39999389648</ele>
        <time>2020-07-31T07:10:29.000Z</time>
      </trkpt>
      <trkpt lat="46.31377" lon="5.432">
        <ele>355.39999389648</ele>
        <time>2020-07-31T07:10:31.000Z</time>
      </trkpt>
      <trkpt lat="46.31389" lon="5.43197">
        <ele>355.79998779297</ele>
        <time>2020-07-31T07:10:33.000Z</time>
      </trkpt>
      <trkpt lat="46.31395" lon="5.43196">
        <ele>355.79998779297</ele>
        <time>2020-07-31T07:10:34.000Z</time>
      </trkpt>
      <trkpt lat="46.31401" lon="5.43196">
        <ele>355.79998779297</ele>
        <time>2020-07-31T07:10:35.000Z</time>
      </trkpt>
      <trkpt lat="46.31413" lon="5.43198">
        <ele>356</ele>
        <time>2020-07-31T07:10:37.000Z</time>
      </trkpt>
      <trkpt lat="46.31419" lon="5.432">
        <ele>356</ele>
        <time>2020-07-31T07:10:38.000Z</time>
      </trkpt>
      <trkpt lat="46.31425" lon="5.43202">
        <ele>356</ele>
        <time>2020-07-31T07:10:39.000Z</time>
      </trkpt>
      <trkpt lat="46.31436" lon="5.43205">
        <ele>356</ele>
        <time>2020-07-31T07:10:41.000Z</time>
      </trkpt>
      <trkpt lat="46.31448" lon="5.43207">
        <ele>356.20001220703</ele>
        <time>2020-07-31T07:10:43.000Z</time>
      </trkpt>
      <trkpt lat="46.31454" lon="5.43207">
        <ele>356.20001220703</ele>
        <time>2020-07-31T07:10:44.000Z</time>
      </trkpt>
      <trkpt lat="46.3146" lon="5.43206">
        <ele>356.20001220703</ele>
        <time>2020-07-31T07:10:45.000Z</time>
      </trkpt>
      <trkpt lat="46.31466" lon="5.43205">
        <ele>356.39999389648</ele>
        <time>2020-07-31T07:10:46.000Z</time>
      </trkpt>
      <trkpt lat="46.31472" lon="5.43205">
        <ele>356.39999389648</ele>
        <time>2020-07-31T07:10:47.000Z</time>
      </trkpt>
      <trkpt lat="46.31478" lon="5.43204">
        <ele>356.60000610352</ele>
        <time>2020-07-31T07:10:48.000Z</time>
      </trkpt>
      <trkpt lat="46.31484" lon="5.43203">
        <ele>356.60000610352</ele>
        <time>2020-07-31T07:10:49.000Z</time>
      </trkpt>
      <trkpt lat="46.31495" lon="5.43202">
        <ele>356.79998779297</ele>
        <time>2020-07-31T07:10:51.000Z</time>
      </trkpt>
      <trkpt lat="46.31508" lon="5.432">
        <ele>356.79998779297</ele>
        <time>2020-07-31T07:10:53.000Z</time>
      </trkpt>
      <trkpt lat="46.31514" lon="5.43199">
        <ele>356.79998779297</ele>
        <time>2020-07-31T07:10:54.000Z</time>
      </trkpt>
      <trkpt lat="46.31519" lon="5.43199">
        <ele>357</ele>
        <time>2020-07-31T07:10:55.000Z</time>
      </trkpt>
      <trkpt lat="46.31531" lon="5.43197">
        <ele>357.20001220703</ele>
        <time>2020-07-31T07:10:57.000Z</time>
      </trkpt>
      <trkpt lat="46.31542" lon="5.43194">
        <ele>357</ele>
        <time>2020-07-31T07:10:59.000Z</time>
      </trkpt>
      <trkpt lat="46.31554" lon="5.43192">
        <ele>357</ele>
        <time>2020-07-31T07:11:01.000Z</time>
      </trkpt>
      <trkpt lat="46.31565" lon="5.4319">
        <ele>357.39999389648</ele>
        <time>2020-07-31T07:11:03.000Z</time>
      </trkpt>
      <trkpt lat="46.3157" lon="5.43189">
        <ele>357.39999389648</ele>
        <time>2020-07-31T07:11:04.000Z</time>
      </trkpt>
      <trkpt lat="46.31576" lon="5.43188">
        <ele>357.39999389648</ele>
        <time>2020-07-31T07:11:05.000Z</time>
      </trkpt>
      <trkpt lat="46.31587" lon="5.43187">
        <ele>357.79998779297</ele>
        <time>2020-07-31T07:11:07.000Z</time>
      </trkpt>
      <trkpt lat="46.31598" lon="5.43186">
        <ele>358.20001220703</ele>
        <time>2020-07-31T07:11:09.000Z</time>
      </trkpt>
      <trkpt lat="46.3161" lon="5.43185">
        <ele>358.39999389648</ele>
        <time>2020-07-31T07:11:11.000Z</time>
      </trkpt>
      <trkpt lat="46.31621" lon="5.43184">
        <ele>358.60000610352</ele>
        <time>2020-07-31T07:11:13.000Z</time>
      </trkpt>
      <trkpt lat="46.31633" lon="5.43184">
        <ele>358.79998779297</ele>
        <time>2020-07-31T07:11:15.000Z</time>
      </trkpt>
      <trkpt lat="46.31644" lon="5.43185">
        <ele>359.20001220703</ele>
        <time>2020-07-31T07:11:17.000Z</time>
      </trkpt>
      <trkpt lat="46.31649" lon="5.43186">
        <ele>359.20001220703</ele>
        <time>2020-07-31T07:11:18.000Z</time>
      </trkpt>
      <trkpt lat="46.31655" lon="5.43187">
        <ele>359.39999389648</ele>
        <time>2020-07-31T07:11:19.000Z</time>
      </trkpt>
      <trkpt lat="46.3166" lon="5.43188">
        <ele>359.60000610352</ele>
        <time>2020-07-31T07:11:20.000Z</time>
      </trkpt>
      <trkpt lat="46.31666" lon="5.43189">
        <ele>359.60000610352</ele>
        <time>2020-07-31T07:11:21.000Z</time>
      </trkpt>
      <trkpt lat="46.31676" lon="5.4319">
        <ele>359.79998779297</ele>
        <time>2020-07-31T07:11:23.000Z</time>
      </trkpt>
      <trkpt lat="46.31687" lon="5.43189">
        <ele>360</ele>
        <time>2020-07-31T07:11:25.000Z</time>
      </trkpt>
      <trkpt lat="46.31692" lon="5.43188">
        <ele>360.39999389648</ele>
        <time>2020-07-31T07:11:26.000Z</time>
      </trkpt>
      <trkpt lat="46.31697" lon="5.43188">
        <ele>360.60000610352</ele>
        <time>2020-07-31T07:11:27.000Z</time>
      </trkpt>
      <trkpt lat="46.31702" lon="5.43187">
        <ele>360.79998779297</ele>
        <time>2020-07-31T07:11:28.000Z</time>
      </trkpt>
      <trkpt lat="46.31706" lon="5.43186">
        <ele>361</ele>
        <time>2020-07-31T07:11:29.000Z</time>
      </trkpt>
      <trkpt lat="46.31716" lon="5.43184">
        <ele>361.39999389648</ele>
        <time>2020-07-31T07:11:31.000Z</time>
      </trkpt>
      <trkpt lat="46.31726" lon="5.4318">
        <ele>361.79998779297</ele>
        <time>2020-07-31T07:11:33.000Z</time>
      </trkpt>
      <trkpt lat="46.31736" lon="5.43177">
        <ele>362.39999389648</ele>
        <time>2020-07-31T07:11:35.000Z</time>
      </trkpt>
      <trkpt lat="46.31747" lon="5.43173">
        <ele>363.20001220703</ele>
        <time>2020-07-31T07:11:37.000Z</time>
      </trkpt>
      <trkpt lat="46.31758" lon="5.43169">
        <ele>363.79998779297</ele>
        <time>2020-07-31T07:11:39.000Z</time>
      </trkpt>
      <trkpt lat="46.31769" lon="5.43165">
        <ele>364</ele>
        <time>2020-07-31T07:11:41.000Z</time>
      </trkpt>
      <trkpt lat="46.3178" lon="5.4316">
        <ele>364.20001220703</ele>
        <time>2020-07-31T07:11:43.000Z</time>
      </trkpt>
      <trkpt lat="46.31786" lon="5.43158">
        <ele>364.39999389648</ele>
        <time>2020-07-31T07:11:44.000Z</time>
      </trkpt>
      <trkpt lat="46.31791" lon="5.43155">
        <ele>364.39999389648</ele>
        <time>2020-07-31T07:11:45.000Z</time>
      </trkpt>
      <trkpt lat="46.31802" lon="5.43151">
        <ele>364.60000610352</ele>
        <time>2020-07-31T07:11:47.000Z</time>
      </trkpt>
      <trkpt lat="46.31813" lon="5.43146">
        <ele>364.79998779297</ele>
        <time>2020-07-31T07:11:49.000Z</time>
      </trkpt>
      <trkpt lat="46.31825" lon="5.43141">
        <ele>364.79998779297</ele>
        <time>2020-07-31T07:11:51.000Z</time>
      </trkpt>
      <trkpt lat="46.31836" lon="5.43137">
        <ele>365.39999389648</ele>
        <time>2020-07-31T07:11:53.000Z</time>
      </trkpt>
      <trkpt lat="46.31847" lon="5.43133">
        <ele>365.79998779297</ele>
        <time>2020-07-31T07:11:55.000Z</time>
      </trkpt>
      <trkpt lat="46.31858" lon="5.43129">
        <ele>365.79998779297</ele>
        <time>2020-07-31T07:11:57.000Z</time>
      </trkpt>
      <trkpt lat="46.31869" lon="5.43125">
        <ele>366</ele>
        <time>2020-07-31T07:11:59.000Z</time>
      </trkpt>
      <trkpt lat="46.3188" lon="5.43121">
        <ele>366.20001220703</ele>
        <time>2020-07-31T07:12:01.000Z</time>
      </trkpt>
      <trkpt lat="46.31891" lon="5.43117">
        <ele>366.20001220703</ele>
        <time>2020-07-31T07:12:03.000Z</time>
      </trkpt>
      <trkpt lat="46.31897" lon="5.43115">
        <ele>366.39999389648</ele>
        <time>2020-07-31T07:12:04.000Z</time>
      </trkpt>
      <trkpt lat="46.31902" lon="5.43113">
        <ele>366.60000610352</ele>
        <time>2020-07-31T07:12:05.000Z</time>
      </trkpt>
      <trkpt lat="46.31913" lon="5.43109">
        <ele>367</ele>
        <time>2020-07-31T07:12:07.000Z</time>
      </trkpt>
      <trkpt lat="46.31924" lon="5.43106">
        <ele>367.20001220703</ele>
        <time>2020-07-31T07:12:09.000Z</time>
      </trkpt>
      <trkpt lat="46.31935" lon="5.43103">
        <ele>367.60000610352</ele>
        <time>2020-07-31T07:12:11.000Z</time>
      </trkpt>
      <trkpt lat="46.31945" lon="5.43099">
        <ele>367.79998779297</ele>
        <time>2020-07-31T07:12:13.000Z</time>
      </trkpt>
      <trkpt lat="46.31956" lon="5.43097">
        <ele>368.20001220703</ele>
        <time>2020-07-31T07:12:15.000Z</time>
      </trkpt>
      <trkpt lat="46.31967" lon="5.43094">
        <ele>368.60000610352</ele>
        <time>2020-07-31T07:12:17.000Z</time>
      </trkpt>
      <trkpt lat="46.31977" lon="5.43091">
        <ele>368.79998779297</ele>
        <time>2020-07-31T07:12:19.000Z</time>
      </trkpt>
      <trkpt lat="46.31987" lon="5.43088">
        <ele>369</ele>
        <time>2020-07-31T07:12:21.000Z</time>
      </trkpt>
      <trkpt lat="46.31998" lon="5.43085">
        <ele>369.39999389648</ele>
        <time>2020-07-31T07:12:23.000Z</time>
      </trkpt>
      <trkpt lat="46.32008" lon="5.43082">
        <ele>369.60000610352</ele>
        <time>2020-07-31T07:12:25.000Z</time>
      </trkpt>
      <trkpt lat="46.32019" lon="5.43078">
        <ele>370</ele>
        <time>2020-07-31T07:12:27.000Z</time>
      </trkpt>
      <trkpt lat="46.32029" lon="5.43075">
        <ele>370.60000610352</ele>
        <time>2020-07-31T07:12:29.000Z</time>
      </trkpt>
      <trkpt lat="46.32034" lon="5.43073">
        <ele>370.60000610352</ele>
        <time>2020-07-31T07:12:30.000Z</time>
      </trkpt>
      <trkpt lat="46.3204" lon="5.43071">
        <ele>370.79998779297</ele>
        <time>2020-07-31T07:12:31.000Z</time>
      </trkpt>
      <trkpt lat="46.3205" lon="5.43067">
        <ele>371</ele>
        <time>2020-07-31T07:12:33.000Z</time>
      </trkpt>
      <trkpt lat="46.3206" lon="5.43063">
        <ele>371.39999389648</ele>
        <time>2020-07-31T07:12:35.000Z</time>
      </trkpt>
      <trkpt lat="46.32065" lon="5.43061">
        <ele>371.60000610352</ele>
        <time>2020-07-31T07:12:36.000Z</time>
      </trkpt>
      <trkpt lat="46.32071" lon="5.43059">
        <ele>371.79998779297</ele>
        <time>2020-07-31T07:12:37.000Z</time>
      </trkpt>
      <trkpt lat="46.32081" lon="5.43056">
        <ele>372</ele>
        <time>2020-07-31T07:12:39.000Z</time>
      </trkpt>
      <trkpt lat="46.32091" lon="5.43052">
        <ele>372.20001220703</ele>
        <time>2020-07-31T07:12:41.000Z</time>
      </trkpt>
      <trkpt lat="46.32096" lon="5.43051">
        <ele>372.20001220703</ele>
        <time>2020-07-31T07:12:42.000Z</time>
      </trkpt>
      <trkpt lat="46.32101" lon="5.43049">
        <ele>372.60000610352</ele>
        <time>2020-07-31T07:12:43.000Z</time>
      </trkpt>
      <trkpt lat="46.32111" lon="5.43047">
        <ele>373</ele>
        <time>2020-07-31T07:12:45.000Z</time>
      </trkpt>
      <trkpt lat="46.32121" lon="5.43044">
        <ele>373.60000610352</ele>
        <time>2020-07-31T07:12:47.000Z</time>
      </trkpt>
      <trkpt lat="46.32126" lon="5.43043">
        <ele>373.79998779297</ele>
        <time>2020-07-31T07:12:48.000Z</time>
      </trkpt>
      <trkpt lat="46.32132" lon="5.43041">
        <ele>373.79998779297</ele>
        <time>2020-07-31T07:12:49.000Z</time>
      </trkpt>
      <trkpt lat="46.32142" lon="5.43039">
        <ele>374.39999389648</ele>
        <time>2020-07-31T07:12:51.000Z</time>
      </trkpt>
      <trkpt lat="46.32153" lon="5.43036">
        <ele>375</ele>
        <time>2020-07-31T07:12:53.000Z</time>
      </trkpt>
      <trkpt lat="46.32164" lon="5.43032">
        <ele>375.39999389648</ele>
        <time>2020-07-31T07:12:55.000Z</time>
      </trkpt>
      <trkpt lat="46.32174" lon="5.43028">
        <ele>375.60000610352</ele>
        <time>2020-07-31T07:12:57.000Z</time>
      </trkpt>
      <trkpt lat="46.32184" lon="5.43024">
        <ele>376</ele>
        <time>2020-07-31T07:12:59.000Z</time>
      </trkpt>
      <trkpt lat="46.32189" lon="5.43022">
        <ele>376</ele>
        <time>2020-07-31T07:13:00.000Z</time>
      </trkpt>
      <trkpt lat="46.32195" lon="5.4302">
        <ele>376.20001220703</ele>
        <time>2020-07-31T07:13:01.000Z</time>
      </trkpt>
      <trkpt lat="46.32205" lon="5.43016">
        <ele>376.39999389648</ele>
        <time>2020-07-31T07:13:03.000Z</time>
      </trkpt>
      <trkpt lat="46.32215" lon="5.43011">
        <ele>376.79998779297</ele>
        <time>2020-07-31T07:13:05.000Z</time>
      </trkpt>
      <trkpt lat="46.32226" lon="5.43007">
        <ele>377.39999389648</ele>
        <time>2020-07-31T07:13:07.000Z</time>
      </trkpt>
      <trkpt lat="46.32236" lon="5.43003">
        <ele>378</ele>
        <time>2020-07-31T07:13:09.000Z</time>
      </trkpt>
      <trkpt lat="46.32245" lon="5.42998">
        <ele>378.20001220703</ele>
        <time>2020-07-31T07:13:11.000Z</time>
      </trkpt>
      <trkpt lat="46.3225" lon="5.42994">
        <ele>378.20001220703</ele>
        <time>2020-07-31T07:13:12.000Z</time>
      </trkpt>
      <trkpt lat="46.32254" lon="5.4299">
        <ele>378.20001220703</ele>
        <time>2020-07-31T07:13:13.000Z</time>
      </trkpt>
      <trkpt lat="46.32257" lon="5.42984">
        <ele>378.39999389648</ele>
        <time>2020-07-31T07:13:14.000Z</time>
      </trkpt>
      <trkpt lat="46.32259" lon="5.42978">
        <ele>378.60000610352</ele>
        <time>2020-07-31T07:13:15.000Z</time>
      </trkpt>
      <trkpt lat="46.32262" lon="5.42963">
        <ele>379.20001220703</ele>
        <time>2020-07-31T07:13:17.000Z</time>
      </trkpt>
      <trkpt lat="46.32264" lon="5.42955">
        <ele>379.60000610352</ele>
        <time>2020-07-31T07:13:18.000Z</time>
      </trkpt>
      <trkpt lat="46.32267" lon="5.42948">
        <ele>379.79998779297</ele>
        <time>2020-07-31T07:13:19.000Z</time>
      </trkpt>
      <trkpt lat="46.3227" lon="5.42941">
        <ele>380</ele>
        <time>2020-07-31T07:13:20.000Z</time>
      </trkpt>
      <trkpt lat="46.32274" lon="5.42935">
        <ele>380.20001220703</ele>
        <time>2020-07-31T07:13:21.000Z</time>
      </trkpt>
      <trkpt lat="46.32283" lon="5.42924">
        <ele>380.20001220703</ele>
        <time>2020-07-31T07:13:23.000Z</time>
      </trkpt>
      <trkpt lat="46.32288" lon="5.4292">
        <ele>380.20001220703</ele>
        <time>2020-07-31T07:13:24.000Z</time>
      </trkpt>
      <trkpt lat="46.32293" lon="5.42916">
        <ele>380.20001220703</ele>
        <time>2020-07-31T07:13:25.000Z</time>
      </trkpt>
      <trkpt lat="46.32304" lon="5.42908">
        <ele>380.39999389648</ele>
        <time>2020-07-31T07:13:27.000Z</time>
      </trkpt>
      <trkpt lat="46.32316" lon="5.42903">
        <ele>380.39999389648</ele>
        <time>2020-07-31T07:13:29.000Z</time>
      </trkpt>
      <trkpt lat="46.32322" lon="5.42901">
        <ele>380.20001220703</ele>
        <time>2020-07-31T07:13:30.000Z</time>
      </trkpt>
      <trkpt lat="46.32329" lon="5.429">
        <ele>380.20001220703</ele>
        <time>2020-07-31T07:13:31.000Z</time>
      </trkpt>
      <trkpt lat="46.32342" lon="5.42898">
        <ele>380</ele>
        <time>2020-07-31T07:13:33.000Z</time>
      </trkpt>
      <trkpt lat="46.32357" lon="5.42895">
        <ele>380</ele>
        <time>2020-07-31T07:13:35.000Z</time>
      </trkpt>
      <trkpt lat="46.32365" lon="5.42893">
        <ele>379.79998779297</ele>
        <time>2020-07-31T07:13:36.000Z</time>
      </trkpt>
      <trkpt lat="46.32373" lon="5.42891">
        <ele>379.60000610352</ele>
        <time>2020-07-31T07:13:37.000Z</time>
      </trkpt>
      <trkpt lat="46.32389" lon="5.42887">
        <ele>379.60000610352</ele>
        <time>2020-07-31T07:13:39.000Z</time>
      </trkpt>
      <trkpt lat="46.32408" lon="5.42888">
        <ele>379</ele>
        <time>2020-07-31T07:13:41.000Z</time>
      </trkpt>
      <trkpt lat="46.32426" lon="5.42895">
        <ele>378.39999389648</ele>
        <time>2020-07-31T07:13:43.000Z</time>
      </trkpt>
      <trkpt lat="46.32435" lon="5.429">
        <ele>378</ele>
        <time>2020-07-31T07:13:44.000Z</time>
      </trkpt>
      <trkpt lat="46.32444" lon="5.42906">
        <ele>377.20001220703</ele>
        <time>2020-07-31T07:13:45.000Z</time>
      </trkpt>
      <trkpt lat="46.32463" lon="5.42915">
        <ele>376</ele>
        <time>2020-07-31T07:13:47.000Z</time>
      </trkpt>
      <trkpt lat="46.32483" lon="5.4292">
        <ele>374.39999389648</ele>
        <time>2020-07-31T07:13:49.000Z</time>
      </trkpt>
      <trkpt lat="46.32493" lon="5.4292">
        <ele>373.20001220703</ele>
        <time>2020-07-31T07:13:50.000Z</time>
      </trkpt>
      <trkpt lat="46.32503" lon="5.42919">
        <ele>372.60000610352</ele>
        <time>2020-07-31T07:13:51.000Z</time>
      </trkpt>
      <trkpt lat="46.32514" lon="5.42919">
        <ele>372</ele>
        <time>2020-07-31T07:13:52.000Z</time>
      </trkpt>
      <trkpt lat="46.32524" lon="5.42919">
        <ele>371.39999389648</ele>
        <time>2020-07-31T07:13:53.000Z</time>
      </trkpt>
      <trkpt lat="46.32535" lon="5.4292">
        <ele>370.79998779297</ele>
        <time>2020-07-31T07:13:54.000Z</time>
      </trkpt>
      <trkpt lat="46.32545" lon="5.42921">
        <ele>370.60000610352</ele>
        <time>2020-07-31T07:13:55.000Z</time>
      </trkpt>
      <trkpt lat="46.32566" lon="5.42925">
        <ele>369.79998779297</ele>
        <time>2020-07-31T07:13:57.000Z</time>
      </trkpt>
      <trkpt lat="46.32586" lon="5.42929">
        <ele>368.60000610352</ele>
        <time>2020-07-31T07:13:59.000Z</time>
      </trkpt>
      <trkpt lat="46.32605" lon="5.42933">
        <ele>367.39999389648</ele>
        <time>2020-07-31T07:14:01.000Z</time>
      </trkpt>
      <trkpt lat="46.32624" lon="5.42937">
        <ele>366.79998779297</ele>
        <time>2020-07-31T07:14:03.000Z</time>
      </trkpt>
      <trkpt lat="46.32643" lon="5.42941">
        <ele>366.20001220703</ele>
        <time>2020-07-31T07:14:05.000Z</time>
      </trkpt>
      <trkpt lat="46.32662" lon="5.42945">
        <ele>365.79998779297</ele>
        <time>2020-07-31T07:14:07.000Z</time>
      </trkpt>
      <trkpt lat="46.3268" lon="5.42949">
        <ele>365.20001220703</ele>
        <time>2020-07-31T07:14:09.000Z</time>
      </trkpt>
      <trkpt lat="46.32689" lon="5.42951">
        <ele>365</ele>
        <time>2020-07-31T07:14:10.000Z</time>
      </trkpt>
      <trkpt lat="46.32698" lon="5.42954">
        <ele>364.79998779297</ele>
        <time>2020-07-31T07:14:11.000Z</time>
      </trkpt>
      <trkpt lat="46.32716" lon="5.42961">
        <ele>364.60000610352</ele>
        <time>2020-07-31T07:14:13.000Z</time>
      </trkpt>
      <trkpt lat="46.32724" lon="5.42965">
        <ele>364.39999389648</ele>
        <time>2020-07-31T07:14:14.000Z</time>
      </trkpt>
      <trkpt lat="46.32732" lon="5.42971">
        <ele>364.39999389648</ele>
        <time>2020-07-31T07:14:15.000Z</time>
      </trkpt>
      <trkpt lat="46.32745" lon="5.42988">
        <ele>364.39999389648</ele>
        <time>2020-07-31T07:14:17.000Z</time>
      </trkpt>
      <trkpt lat="46.32752" lon="5.42997">
        <ele>364.20001220703</ele>
        <time>2020-07-31T07:14:18.000Z</time>
      </trkpt>
      <trkpt lat="46.32758" lon="5.43006">
        <ele>364.20001220703</ele>
        <time>2020-07-31T07:14:19.000Z</time>
      </trkpt>
      <trkpt lat="46.32771" lon="5.4302">
        <ele>364</ele>
        <time>2020-07-31T07:14:21.000Z</time>
      </trkpt>
      <trkpt lat="46.32786" lon="5.43029">
        <ele>363.79998779297</ele>
        <time>2020-07-31T07:14:23.000Z</time>
      </trkpt>
      <trkpt lat="46.32802" lon="5.43039">
        <ele>363.60000610352</ele>
        <time>2020-07-31T07:14:25.000Z</time>
      </trkpt>
      <trkpt lat="46.32818" lon="5.43049">
        <ele>363.60000610352</ele>
        <time>2020-07-31T07:14:27.000Z</time>
      </trkpt>
      <trkpt lat="46.32835" lon="5.43056">
        <ele>363.39999389648</ele>
        <time>2020-07-31T07:14:29.000Z</time>
      </trkpt>
      <trkpt lat="46.32851" lon="5.43063">
        <ele>363.39999389648</ele>
        <time>2020-07-31T07:14:31.000Z</time>
      </trkpt>
      <trkpt lat="46.32867" lon="5.43071">
        <ele>363</ele>
        <time>2020-07-31T07:14:33.000Z</time>
      </trkpt>
      <trkpt lat="46.32883" lon="5.43078">
        <ele>362.20001220703</ele>
        <time>2020-07-31T07:14:35.000Z</time>
      </trkpt>
      <trkpt lat="46.329" lon="5.43081">
        <ele>361.79998779297</ele>
        <time>2020-07-31T07:14:37.000Z</time>
      </trkpt>
      <trkpt lat="46.32908" lon="5.43083">
        <ele>361.79998779297</ele>
        <time>2020-07-31T07:14:38.000Z</time>
      </trkpt>
      <trkpt lat="46.32915" lon="5.43084">
        <ele>361.79998779297</ele>
        <time>2020-07-31T07:14:39.000Z</time>
      </trkpt>
      <trkpt lat="46.3293" lon="5.43086">
        <ele>361.79998779297</ele>
        <time>2020-07-31T07:14:41.000Z</time>
      </trkpt>
      <trkpt lat="46.32943" lon="5.43089">
        <ele>361.79998779297</ele>
        <time>2020-07-31T07:14:43.000Z</time>
      </trkpt>
      <trkpt lat="46.32957" lon="5.43092">
        <ele>362</ele>
        <time>2020-07-31T07:14:45.000Z</time>
      </trkpt>
      <trkpt lat="46.3297" lon="5.43094">
        <ele>362.60000610352</ele>
        <time>2020-07-31T07:14:47.000Z</time>
      </trkpt>
      <trkpt lat="46.32976" lon="5.43095">
        <ele>363</ele>
        <time>2020-07-31T07:14:48.000Z</time>
      </trkpt>
      <trkpt lat="46.32983" lon="5.43096">
        <ele>363.39999389648</ele>
        <time>2020-07-31T07:14:49.000Z</time>
      </trkpt>
      <trkpt lat="46.32996" lon="5.43097">
        <ele>364</ele>
        <time>2020-07-31T07:14:51.000Z</time>
      </trkpt>
      <trkpt lat="46.33003" lon="5.43096">
        <ele>364.39999389648</ele>
        <time>2020-07-31T07:14:52.000Z</time>
      </trkpt>
      <trkpt lat="46.3301" lon="5.43096">
        <ele>364.79998779297</ele>
        <time>2020-07-31T07:14:53.000Z</time>
      </trkpt>
      <trkpt lat="46.33018" lon="5.43094">
        <ele>365</ele>
        <time>2020-07-31T07:14:54.000Z</time>
      </trkpt>
      <trkpt lat="46.33025" lon="5.43092">
        <ele>365.20001220703</ele>
        <time>2020-07-31T07:14:55.000Z</time>
      </trkpt>
      <trkpt lat="46.33039" lon="5.43083">
        <ele>365.20001220703</ele>
        <time>2020-07-31T07:14:57.000Z</time>
      </trkpt>
      <trkpt lat="46.33046" lon="5.43077">
        <ele>365.20001220703</ele>
        <time>2020-07-31T07:14:58.000Z</time>
      </trkpt>
      <trkpt lat="46.33053" lon="5.4307">
        <ele>365.20001220703</ele>
        <time>2020-07-31T07:14:59.000Z</time>
      </trkpt>
      <trkpt lat="46.33068" lon="5.43058">
        <ele>365.20001220703</ele>
        <time>2020-07-31T07:15:01.000Z</time>
      </trkpt>
      <trkpt lat="46.33085" lon="5.43049">
        <ele>365.20001220703</ele>
        <time>2020-07-31T07:15:03.000Z</time>
      </trkpt>
      <trkpt lat="46.33102" lon="5.43039">
        <ele>365</ele>
        <time>2020-07-31T07:15:05.000Z</time>
      </trkpt>
      <trkpt lat="46.33117" lon="5.43022">
        <ele>364.20001220703</ele>
        <time>2020-07-31T07:15:07.000Z</time>
      </trkpt>
      <trkpt lat="46.33127" lon="5.43">
        <ele>363.20001220703</ele>
        <time>2020-07-31T07:15:09.000Z</time>
      </trkpt>
      <trkpt lat="46.33131" lon="5.42989">
        <ele>362.79998779297</ele>
        <time>2020-07-31T07:15:10.000Z</time>
      </trkpt>
      <trkpt lat="46.33135" lon="5.42978">
        <ele>362.20001220703</ele>
        <time>2020-07-31T07:15:11.000Z</time>
      </trkpt>
      <trkpt lat="46.33139" lon="5.42967">
        <ele>361.60000610352</ele>
        <time>2020-07-31T07:15:12.000Z</time>
      </trkpt>
      <trkpt lat="46.33143" lon="5.42958">
        <ele>361.20001220703</ele>
        <time>2020-07-31T07:15:13.000Z</time>
      </trkpt>
      <trkpt lat="46.33148" lon="5.42949">
        <ele>361</ele>
        <time>2020-07-31T07:15:14.000Z</time>
      </trkpt>
      <trkpt lat="46.33153" lon="5.42941">
        <ele>361</ele>
        <time>2020-07-31T07:15:15.000Z</time>
      </trkpt>
      <trkpt lat="46.33165" lon="5.42929">
        <ele>360.79998779297</ele>
        <time>2020-07-31T07:15:17.000Z</time>
      </trkpt>
      <trkpt lat="46.33178" lon="5.42921">
        <ele>360.79998779297</ele>
        <time>2020-07-31T07:15:19.000Z</time>
      </trkpt>
      <trkpt lat="46.33191" lon="5.42916">
        <ele>361.20001220703</ele>
        <time>2020-07-31T07:15:21.000Z</time>
      </trkpt>
      <trkpt lat="46.33205" lon="5.42911">
        <ele>362</ele>
        <time>2020-07-31T07:15:23.000Z</time>
      </trkpt>
      <trkpt lat="46.33219" lon="5.42907">
        <ele>362.39999389648</ele>
        <time>2020-07-31T07:15:25.000Z</time>
      </trkpt>
      <trkpt lat="46.33226" lon="5.42905">
        <ele>362.60000610352</ele>
        <time>2020-07-31T07:15:26.000Z</time>
      </trkpt>
      <trkpt lat="46.33233" lon="5.42902">
        <ele>362.60000610352</ele>
        <time>2020-07-31T07:15:27.000Z</time>
      </trkpt>
      <trkpt lat="46.3324" lon="5.42898">
        <ele>362.60000610352</ele>
        <time>2020-07-31T07:15:28.000Z</time>
      </trkpt>
      <trkpt lat="46.33247" lon="5.42893">
        <ele>362.60000610352</ele>
        <time>2020-07-31T07:15:29.000Z</time>
      </trkpt>
      <trkpt lat="46.33261" lon="5.4288">
        <ele>362.60000610352</ele>
        <time>2020-07-31T07:15:31.000Z</time>
      </trkpt>
      <trkpt lat="46.33267" lon="5.42872">
        <ele>362.60000610352</ele>
        <time>2020-07-31T07:15:32.000Z</time>
      </trkpt>
      <trkpt lat="46.33274" lon="5.42863">
        <ele>362.60000610352</ele>
        <time>2020-07-31T07:15:33.000Z</time>
      </trkpt>
      <trkpt lat="46.33286" lon="5.42844">
        <ele>362.60000610352</ele>
        <time>2020-07-31T07:15:35.000Z</time>
      </trkpt>
      <trkpt lat="46.333" lon="5.42825">
        <ele>362.39999389648</ele>
        <time>2020-07-31T07:15:37.000Z</time>
      </trkpt>
      <trkpt lat="46.33308" lon="5.42819">
        <ele>362.20001220703</ele>
        <time>2020-07-31T07:15:38.000Z</time>
      </trkpt>
      <trkpt lat="46.33318" lon="5.42814">
        <ele>361.60000610352</ele>
        <time>2020-07-31T07:15:39.000Z</time>
      </trkpt>
      <trkpt lat="46.33327" lon="5.42811">
        <ele>361.20001220703</ele>
        <time>2020-07-31T07:15:40.000Z</time>
      </trkpt>
      <trkpt lat="46.33337" lon="5.42807">
        <ele>360.60000610352</ele>
        <time>2020-07-31T07:15:41.000Z</time>
      </trkpt>
      <trkpt lat="46.33346" lon="5.42804">
        <ele>359.60000610352</ele>
        <time>2020-07-31T07:15:42.000Z</time>
      </trkpt>
      <trkpt lat="46.33355" lon="5.428">
        <ele>358.79998779297</ele>
        <time>2020-07-31T07:15:43.000Z</time>
      </trkpt>
      <trkpt lat="46.33365" lon="5.42797">
        <ele>358</ele>
        <time>2020-07-31T07:15:44.000Z</time>
      </trkpt>
      <trkpt lat="46.33374" lon="5.42795">
        <ele>357.20001220703</ele>
        <time>2020-07-31T07:15:45.000Z</time>
      </trkpt>
      <trkpt lat="46.33383" lon="5.42794">
        <ele>356.60000610352</ele>
        <time>2020-07-31T07:15:46.000Z</time>
      </trkpt>
      <trkpt lat="46.33393" lon="5.42794">
        <ele>356</ele>
        <time>2020-07-31T07:15:47.000Z</time>
      </trkpt>
      <trkpt lat="46.33411" lon="5.42795">
        <ele>355</ele>
        <time>2020-07-31T07:15:49.000Z</time>
      </trkpt>
      <trkpt lat="46.33429" lon="5.42797">
        <ele>354</ele>
        <time>2020-07-31T07:15:51.000Z</time>
      </trkpt>
      <trkpt lat="46.33438" lon="5.42798">
        <ele>353.79998779297</ele>
        <time>2020-07-31T07:15:52.000Z</time>
      </trkpt>
      <trkpt lat="46.33446" lon="5.42799">
        <ele>353.60000610352</ele>
        <time>2020-07-31T07:15:53.000Z</time>
      </trkpt>
      <trkpt lat="46.33455" lon="5.42801">
        <ele>353.39999389648</ele>
        <time>2020-07-31T07:15:54.000Z</time>
      </trkpt>
      <trkpt lat="46.33464" lon="5.42803">
        <ele>353.39999389648</ele>
        <time>2020-07-31T07:15:55.000Z</time>
      </trkpt>
      <trkpt lat="46.33482" lon="5.4281">
        <ele>353</ele>
        <time>2020-07-31T07:15:57.000Z</time>
      </trkpt>
      <trkpt lat="46.33491" lon="5.42814">
        <ele>353</ele>
        <time>2020-07-31T07:15:58.000Z</time>
      </trkpt>
      <trkpt lat="46.335" lon="5.42819">
        <ele>352.79998779297</ele>
        <time>2020-07-31T07:15:59.000Z</time>
      </trkpt>
      <trkpt lat="46.33508" lon="5.42825">
        <ele>352.60000610352</ele>
        <time>2020-07-31T07:16:00.000Z</time>
      </trkpt>
      <trkpt lat="46.33515" lon="5.4283">
        <ele>352.20001220703</ele>
        <time>2020-07-31T07:16:01.000Z</time>
      </trkpt>
      <trkpt lat="46.33529" lon="5.42839">
        <ele>351.60000610352</ele>
        <time>2020-07-31T07:16:03.000Z</time>
      </trkpt>
      <trkpt lat="46.33535" lon="5.42842">
        <ele>351</ele>
        <time>2020-07-31T07:16:04.000Z</time>
      </trkpt>
      <trkpt lat="46.33541" lon="5.42842">
        <ele>350</ele>
        <time>2020-07-31T07:16:05.000Z</time>
      </trkpt>
      <trkpt lat="46.33547" lon="5.42842">
        <ele>349.20001220703</ele>
        <time>2020-07-31T07:16:06.000Z</time>
      </trkpt>
      <trkpt lat="46.33553" lon="5.42841">
        <ele>348.79998779297</ele>
        <time>2020-07-31T07:16:07.000Z</time>
      </trkpt>
      <trkpt lat="46.3356" lon="5.42837">
        <ele>348.60000610352</ele>
        <time>2020-07-31T07:16:08.000Z</time>
      </trkpt>
      <trkpt lat="46.33566" lon="5.42832">
        <ele>348.20001220703</ele>
        <time>2020-07-31T07:16:09.000Z</time>
      </trkpt>
      <trkpt lat="46.33572" lon="5.42826">
        <ele>348</ele>
        <time>2020-07-31T07:16:10.000Z</time>
      </trkpt>
      <trkpt lat="46.33579" lon="5.4282">
        <ele>347.79998779297</ele>
        <time>2020-07-31T07:16:11.000Z</time>
      </trkpt>
      <trkpt lat="46.33593" lon="5.42809">
        <ele>347.39999389648</ele>
        <time>2020-07-31T07:16:13.000Z</time>
      </trkpt>
      <trkpt lat="46.33609" lon="5.428">
        <ele>347</ele>
        <time>2020-07-31T07:16:15.000Z</time>
      </trkpt>
      <trkpt lat="46.33617" lon="5.42797">
        <ele>346.60000610352</ele>
        <time>2020-07-31T07:16:16.000Z</time>
      </trkpt>
      <trkpt lat="46.33625" lon="5.42793">
        <ele>346.20001220703</ele>
        <time>2020-07-31T07:16:17.000Z</time>
      </trkpt>
      <trkpt lat="46.3364" lon="5.42787">
        <ele>345.79998779297</ele>
        <time>2020-07-31T07:16:19.000Z</time>
      </trkpt>
      <trkpt lat="46.33656" lon="5.4278">
        <ele>345.60000610352</ele>
        <time>2020-07-31T07:16:21.000Z</time>
      </trkpt>
      <trkpt lat="46.33663" lon="5.42777">
        <ele>345.39999389648</ele>
        <time>2020-07-31T07:16:22.000Z</time>
      </trkpt>
      <trkpt lat="46.33671" lon="5.42773">
        <ele>345.39999389648</ele>
        <time>2020-07-31T07:16:23.000Z</time>
      </trkpt>
      <trkpt lat="46.33685" lon="5.42765">
        <ele>345.39999389648</ele>
        <time>2020-07-31T07:16:25.000Z</time>
      </trkpt>
      <trkpt lat="46.33698" lon="5.42754">
        <ele>345.39999389648</ele>
        <time>2020-07-31T07:16:27.000Z</time>
      </trkpt>
      <trkpt lat="46.33709" lon="5.42741">
        <ele>345.39999389648</ele>
        <time>2020-07-31T07:16:29.000Z</time>
      </trkpt>
      <trkpt lat="46.33714" lon="5.42733">
        <ele>345.39999389648</ele>
        <time>2020-07-31T07:16:30.000Z</time>
      </trkpt>
      <trkpt lat="46.33718" lon="5.42726">
        <ele>345.60000610352</ele>
        <time>2020-07-31T07:16:31.000Z</time>
      </trkpt>
      <trkpt lat="46.33722" lon="5.42718">
        <ele>345.60000610352</ele>
        <time>2020-07-31T07:16:32.000Z</time>
      </trkpt>
      <trkpt lat="46.33725" lon="5.4271">
        <ele>345.79998779297</ele>
        <time>2020-07-31T07:16:33.000Z</time>
      </trkpt>
      <trkpt lat="46.3373" lon="5.42694">
        <ele>346.20001220703</ele>
        <time>2020-07-31T07:16:35.000Z</time>
      </trkpt>
      <trkpt lat="46.33735" lon="5.42676">
        <ele>346.60000610352</ele>
        <time>2020-07-31T07:16:37.000Z</time>
      </trkpt>
      <trkpt lat="46.3374" lon="5.42659">
        <ele>347</ele>
        <time>2020-07-31T07:16:39.000Z</time>
      </trkpt>
      <trkpt lat="46.33745" lon="5.42642">
        <ele>347.60000610352</ele>
        <time>2020-07-31T07:16:41.000Z</time>
      </trkpt>
      <trkpt lat="46.33751" lon="5.42625">
        <ele>348.20001220703</ele>
        <time>2020-07-31T07:16:43.000Z</time>
      </trkpt>
      <trkpt lat="46.33755" lon="5.42617">
        <ele>348.39999389648</ele>
        <time>2020-07-31T07:16:44.000Z</time>
      </trkpt>
      <trkpt lat="46.33759" lon="5.4261">
        <ele>348.39999389648</ele>
        <time>2020-07-31T07:16:45.000Z</time>
      </trkpt>
      <trkpt lat="46.33767" lon="5.42595">
        <ele>348.60000610352</ele>
        <time>2020-07-31T07:16:47.000Z</time>
      </trkpt>
      <trkpt lat="46.33776" lon="5.42581">
        <ele>348.79998779297</ele>
        <time>2020-07-31T07:16:49.000Z</time>
      </trkpt>
      <trkpt lat="46.33785" lon="5.42569">
        <ele>348.79998779297</ele>
        <time>2020-07-31T07:16:51.000Z</time>
      </trkpt>
      <trkpt lat="46.33795" lon="5.42557">
        <ele>349</ele>
        <time>2020-07-31T07:16:53.000Z</time>
      </trkpt>
      <trkpt lat="46.33804" lon="5.42544">
        <ele>349.20001220703</ele>
        <time>2020-07-31T07:16:55.000Z</time>
      </trkpt>
      <trkpt lat="46.33814" lon="5.42533">
        <ele>349.39999389648</ele>
        <time>2020-07-31T07:16:57.000Z</time>
      </trkpt>
      <trkpt lat="46.33823" lon="5.42521">
        <ele>349.60000610352</ele>
        <time>2020-07-31T07:16:59.000Z</time>
      </trkpt>
      <trkpt lat="46.33833" lon="5.4251">
        <ele>349.79998779297</ele>
        <time>2020-07-31T07:17:01.000Z</time>
      </trkpt>
      <trkpt lat="46.33842" lon="5.42499">
        <ele>350.20001220703</ele>
        <time>2020-07-31T07:17:03.000Z</time>
      </trkpt>
      <trkpt lat="46.33852" lon="5.42488">
        <ele>350.39999389648</ele>
        <time>2020-07-31T07:17:05.000Z</time>
      </trkpt>
      <trkpt lat="46.33862" lon="5.42478">
        <ele>350.60000610352</ele>
        <time>2020-07-31T07:17:07.000Z</time>
      </trkpt>
      <trkpt lat="46.33866" lon="5.42472">
        <ele>350.79998779297</ele>
        <time>2020-07-31T07:17:08.000Z</time>
      </trkpt>
      <trkpt lat="46.33871" lon="5.42467">
        <ele>350.79998779297</ele>
        <time>2020-07-31T07:17:09.000Z</time>
      </trkpt>
      <trkpt lat="46.33881" lon="5.42457">
        <ele>351.20001220703</ele>
        <time>2020-07-31T07:17:11.000Z</time>
      </trkpt>
      <trkpt lat="46.33891" lon="5.42447">
        <ele>351.39999389648</ele>
        <time>2020-07-31T07:17:13.000Z</time>
      </trkpt>
      <trkpt lat="46.33901" lon="5.42438">
        <ele>351.79998779297</ele>
        <time>2020-07-31T07:17:15.000Z</time>
      </trkpt>
      <trkpt lat="46.33911" lon="5.42429">
        <ele>352</ele>
        <time>2020-07-31T07:17:17.000Z</time>
      </trkpt>
      <trkpt lat="46.33921" lon="5.42421">
        <ele>352.20001220703</ele>
        <time>2020-07-31T07:17:19.000Z</time>
      </trkpt>
      <trkpt lat="46.33931" lon="5.42412">
        <ele>352.39999389648</ele>
        <time>2020-07-31T07:17:21.000Z</time>
      </trkpt>
      <trkpt lat="46.33941" lon="5.42405">
        <ele>352.79998779297</ele>
        <time>2020-07-31T07:17:23.000Z</time>
      </trkpt>
      <trkpt lat="46.33946" lon="5.42401">
        <ele>352.79998779297</ele>
        <time>2020-07-31T07:17:24.000Z</time>
      </trkpt>
      <trkpt lat="46.3395" lon="5.42397">
        <ele>353</ele>
        <time>2020-07-31T07:17:25.000Z</time>
      </trkpt>
      <trkpt lat="46.33955" lon="5.42393">
        <ele>353.39999389648</ele>
        <time>2020-07-31T07:17:26.000Z</time>
      </trkpt>
      <trkpt lat="46.3396" lon="5.42388">
        <ele>353.39999389648</ele>
        <time>2020-07-31T07:17:27.000Z</time>
      </trkpt>
      <trkpt lat="46.33969" lon="5.4238">
        <ele>353.79998779297</ele>
        <time>2020-07-31T07:17:29.000Z</time>
      </trkpt>
      <trkpt lat="46.33974" lon="5.42376">
        <ele>353.79998779297</ele>
        <time>2020-07-31T07:17:30.000Z</time>
      </trkpt>
      <trkpt lat="46.33979" lon="5.42372">
        <ele>354</ele>
        <time>2020-07-31T07:17:31.000Z</time>
      </trkpt>
      <trkpt lat="46.33989" lon="5.42364">
        <ele>354.20001220703</ele>
        <time>2020-07-31T07:17:33.000Z</time>
      </trkpt>
      <trkpt lat="46.33999" lon="5.42356">
        <ele>354.60000610352</ele>
        <time>2020-07-31T07:17:35.000Z</time>
      </trkpt>
      <trkpt lat="46.3401" lon="5.4235">
        <ele>354.79998779297</ele>
        <time>2020-07-31T07:17:37.000Z</time>
      </trkpt>
      <trkpt lat="46.34015" lon="5.42346">
        <ele>355</ele>
        <time>2020-07-31T07:17:38.000Z</time>
      </trkpt>
      <trkpt lat="46.3402" lon="5.42343">
        <ele>355</ele>
        <time>2020-07-31T07:17:39.000Z</time>
      </trkpt>
      <trkpt lat="46.3403" lon="5.42337">
        <ele>355.39999389648</ele>
        <time>2020-07-31T07:17:41.000Z</time>
      </trkpt>
      <trkpt lat="46.34041" lon="5.42331">
        <ele>355.60000610352</ele>
        <time>2020-07-31T07:17:43.000Z</time>
      </trkpt>
      <trkpt lat="46.34051" lon="5.42326">
        <ele>355.79998779297</ele>
        <time>2020-07-31T07:17:45.000Z</time>
      </trkpt>
      <trkpt lat="46.34062" lon="5.4232">
        <ele>356</ele>
        <time>2020-07-31T07:17:47.000Z</time>
      </trkpt>
      <trkpt lat="46.34072" lon="5.42313">
        <ele>356.60000610352</ele>
        <time>2020-07-31T07:17:49.000Z</time>
      </trkpt>
      <trkpt lat="46.34082" lon="5.42304">
        <ele>356.79998779297</ele>
        <time>2020-07-31T07:17:51.000Z</time>
      </trkpt>
      <trkpt lat="46.34093" lon="5.42293">
        <ele>356.79998779297</ele>
        <time>2020-07-31T07:17:53.000Z</time>
      </trkpt>
      <trkpt lat="46.34104" lon="5.4228">
        <ele>356.79998779297</ele>
        <time>2020-07-31T07:17:55.000Z</time>
      </trkpt>
      <trkpt lat="46.34117" lon="5.42266">
        <ele>356.79998779297</ele>
        <time>2020-07-31T07:17:57.000Z</time>
      </trkpt>
      <trkpt lat="46.34129" lon="5.42252">
        <ele>356.79998779297</ele>
        <time>2020-07-31T07:17:59.000Z</time>
      </trkpt>
      <trkpt lat="46.34136" lon="5.42245">
        <ele>356.79998779297</ele>
        <time>2020-07-31T07:18:00.000Z</time>
      </trkpt>
      <trkpt lat="46.34142" lon="5.42238">
        <ele>356.79998779297</ele>
        <time>2020-07-31T07:18:01.000Z</time>
      </trkpt>
      <trkpt lat="46.34155" lon="5.42224">
        <ele>356.20001220703</ele>
        <time>2020-07-31T07:18:03.000Z</time>
      </trkpt>
      <trkpt lat="46.34168" lon="5.42209">
        <ele>355.39999389648</ele>
        <time>2020-07-31T07:18:05.000Z</time>
      </trkpt>
      <trkpt lat="46.34174" lon="5.42201">
        <ele>354.79998779297</ele>
        <time>2020-07-31T07:18:06.000Z</time>
      </trkpt>
      <trkpt lat="46.34181" lon="5.42194">
        <ele>354.39999389648</ele>
        <time>2020-07-31T07:18:07.000Z</time>
      </trkpt>
      <trkpt lat="46.34193" lon="5.42178">
        <ele>354</ele>
        <time>2020-07-31T07:18:09.000Z</time>
      </trkpt>
      <trkpt lat="46.342" lon="5.42171">
        <ele>353.60000610352</ele>
        <time>2020-07-31T07:18:10.000Z</time>
      </trkpt>
      <trkpt lat="46.34206" lon="5.42164">
        <ele>353.20001220703</ele>
        <time>2020-07-31T07:18:11.000Z</time>
      </trkpt>
      <trkpt lat="46.34213" lon="5.42156">
        <ele>353</ele>
        <time>2020-07-31T07:18:12.000Z</time>
      </trkpt>
      <trkpt lat="46.34219" lon="5.42149">
        <ele>353</ele>
        <time>2020-07-31T07:18:13.000Z</time>
      </trkpt>
      <trkpt lat="46.34231" lon="5.42135">
        <ele>352.79998779297</ele>
        <time>2020-07-31T07:18:15.000Z</time>
      </trkpt>
      <trkpt lat="46.34243" lon="5.42121">
        <ele>352.60000610352</ele>
        <time>2020-07-31T07:18:17.000Z</time>
      </trkpt>
      <trkpt lat="46.34254" lon="5.42108">
        <ele>352.60000610352</ele>
        <time>2020-07-31T07:18:19.000Z</time>
      </trkpt>
      <trkpt lat="46.34259" lon="5.42101">
        <ele>352.60000610352</ele>
        <time>2020-07-31T07:18:20.000Z</time>
      </trkpt>
      <trkpt lat="46.34265" lon="5.42093">
        <ele>352.60000610352</ele>
        <time>2020-07-31T07:18:21.000Z</time>
      </trkpt>
      <trkpt lat="46.34275" lon="5.42079">
        <ele>352.79998779297</ele>
        <time>2020-07-31T07:18:23.000Z</time>
      </trkpt>
      <trkpt lat="46.34285" lon="5.42064">
        <ele>352.79998779297</ele>
        <time>2020-07-31T07:18:25.000Z</time>
      </trkpt>
      <trkpt lat="46.34296" lon="5.4205">
        <ele>353</ele>
        <time>2020-07-31T07:18:27.000Z</time>
      </trkpt>
      <trkpt lat="46.34307" lon="5.42036">
        <ele>353.39999389648</ele>
        <time>2020-07-31T07:18:29.000Z</time>
      </trkpt>
      <trkpt lat="46.34317" lon="5.42022">
        <ele>353.79998779297</ele>
        <time>2020-07-31T07:18:31.000Z</time>
      </trkpt>
      <trkpt lat="46.34327" lon="5.42008">
        <ele>353.79998779297</ele>
        <time>2020-07-31T07:18:33.000Z</time>
      </trkpt>
      <trkpt lat="46.34336" lon="5.41992">
        <ele>354</ele>
        <time>2020-07-31T07:18:35.000Z</time>
      </trkpt>
      <trkpt lat="46.34343" lon="5.41976">
        <ele>354</ele>
        <time>2020-07-31T07:18:37.000Z</time>
      </trkpt>
      <trkpt lat="46.34348" lon="5.41957">
        <ele>354.20001220703</ele>
        <time>2020-07-31T07:18:39.000Z</time>
      </trkpt>
      <trkpt lat="46.3435" lon="5.41936">
        <ele>354.60000610352</ele>
        <time>2020-07-31T07:18:41.000Z</time>
      </trkpt>
      <trkpt lat="46.34354" lon="5.41915">
        <ele>354.79998779297</ele>
        <time>2020-07-31T07:18:43.000Z</time>
      </trkpt>
      <trkpt lat="46.3436" lon="5.41895">
        <ele>354.79998779297</ele>
        <time>2020-07-31T07:18:45.000Z</time>
      </trkpt>
      <trkpt lat="46.34364" lon="5.41886">
        <ele>354.79998779297</ele>
        <time>2020-07-31T07:18:46.000Z</time>
      </trkpt>
      <trkpt lat="46.34369" lon="5.41878">
        <ele>354.79998779297</ele>
        <time>2020-07-31T07:18:47.000Z</time>
      </trkpt>
      <trkpt lat="46.3438" lon="5.41864">
        <ele>354.79998779297</ele>
        <time>2020-07-31T07:18:49.000Z</time>
      </trkpt>
      <trkpt lat="46.34387" lon="5.41859">
        <ele>354.79998779297</ele>
        <time>2020-07-31T07:18:50.000Z</time>
      </trkpt>
      <trkpt lat="46.34393" lon="5.41854">
        <ele>355</ele>
        <time>2020-07-31T07:18:51.000Z</time>
      </trkpt>
      <trkpt lat="46.34405" lon="5.41846">
        <ele>355</ele>
        <time>2020-07-31T07:18:53.000Z</time>
      </trkpt>
      <trkpt lat="46.34418" lon="5.41836">
        <ele>355</ele>
        <time>2020-07-31T07:18:55.000Z</time>
      </trkpt>
      <trkpt lat="46.3443" lon="5.41827">
        <ele>355</ele>
        <time>2020-07-31T07:18:57.000Z</time>
      </trkpt>
      <trkpt lat="46.34441" lon="5.41816">
        <ele>355</ele>
        <time>2020-07-31T07:18:59.000Z</time>
      </trkpt>
      <trkpt lat="46.34452" lon="5.41805">
        <ele>355</ele>
        <time>2020-07-31T07:19:01.000Z</time>
      </trkpt>
      <trkpt lat="46.34463" lon="5.41794">
        <ele>355.39999389648</ele>
        <time>2020-07-31T07:19:03.000Z</time>
      </trkpt>
      <trkpt lat="46.34469" lon="5.41788">
        <ele>355.39999389648</ele>
        <time>2020-07-31T07:19:04.000Z</time>
      </trkpt>
      <trkpt lat="46.34475" lon="5.41782">
        <ele>355.39999389648</ele>
        <time>2020-07-31T07:19:05.000Z</time>
      </trkpt>
      <trkpt lat="46.34487" lon="5.4177">
        <ele>355.60000610352</ele>
        <time>2020-07-31T07:19:07.000Z</time>
      </trkpt>
      <trkpt lat="46.34499" lon="5.41758">
        <ele>355.60000610352</ele>
        <time>2020-07-31T07:19:09.000Z</time>
      </trkpt>
      <trkpt lat="46.34511" lon="5.41746">
        <ele>355.60000610352</ele>
        <time>2020-07-31T07:19:11.000Z</time>
      </trkpt>
      <trkpt lat="46.34523" lon="5.41735">
        <ele>355.20001220703</ele>
        <time>2020-07-31T07:19:13.000Z</time>
      </trkpt>
      <trkpt lat="46.34535" lon="5.41724">
        <ele>355</ele>
        <time>2020-07-31T07:19:15.000Z</time>
      </trkpt>
      <trkpt lat="46.34547" lon="5.41714">
        <ele>355</ele>
        <time>2020-07-31T07:19:17.000Z</time>
      </trkpt>
      <trkpt lat="46.34559" lon="5.41704">
        <ele>355</ele>
        <time>2020-07-31T07:19:19.000Z</time>
      </trkpt>
      <trkpt lat="46.34571" lon="5.41696">
        <ele>355</ele>
        <time>2020-07-31T07:19:21.000Z</time>
      </trkpt>
      <trkpt lat="46.34577" lon="5.41692">
        <ele>355</ele>
        <time>2020-07-31T07:19:22.000Z</time>
      </trkpt>
      <trkpt lat="46.34583" lon="5.41689">
        <ele>355</ele>
        <time>2020-07-31T07:19:23.000Z</time>
      </trkpt>
      <trkpt lat="46.34593" lon="5.41682">
        <ele>355</ele>
        <time>2020-07-31T07:19:25.000Z</time>
      </trkpt>
      <trkpt lat="46.34604" lon="5.41674">
        <ele>355</ele>
        <time>2020-07-31T07:19:27.000Z</time>
      </trkpt>
      <trkpt lat="46.34614" lon="5.41665">
        <ele>355.39999389648</ele>
        <time>2020-07-31T07:19:29.000Z</time>
      </trkpt>
      <trkpt lat="46.34619" lon="5.4166">
        <ele>355.79998779297</ele>
        <time>2020-07-31T07:19:30.000Z</time>
      </trkpt>
      <trkpt lat="46.34623" lon="5.41654">
        <ele>356</ele>
        <time>2020-07-31T07:19:31.000Z</time>
      </trkpt>
      <trkpt lat="46.34632" lon="5.41641">
        <ele>356.79998779297</ele>
        <time>2020-07-31T07:19:33.000Z</time>
      </trkpt>
      <trkpt lat="46.34641" lon="5.41627">
        <ele>357.20001220703</ele>
        <time>2020-07-31T07:19:35.000Z</time>
      </trkpt>
      <trkpt lat="46.3465" lon="5.41613">
        <ele>357.60000610352</ele>
        <time>2020-07-31T07:19:37.000Z</time>
      </trkpt>
      <trkpt lat="46.34658" lon="5.41598">
        <ele>357.79998779297</ele>
        <time>2020-07-31T07:19:39.000Z</time>
      </trkpt>
      <trkpt lat="46.34667" lon="5.41583">
        <ele>357.79998779297</ele>
        <time>2020-07-31T07:19:41.000Z</time>
      </trkpt>
      <trkpt lat="46.34675" lon="5.41568">
        <ele>357.79998779297</ele>
        <time>2020-07-31T07:19:43.000Z</time>
      </trkpt>
      <trkpt lat="46.3468" lon="5.41561">
        <ele>357.79998779297</ele>
        <time>2020-07-31T07:19:44.000Z</time>
      </trkpt>
      <trkpt lat="46.34684" lon="5.41554">
        <ele>357.79998779297</ele>
        <time>2020-07-31T07:19:45.000Z</time>
      </trkpt>
      <trkpt lat="46.34693" lon="5.4154">
        <ele>357.79998779297</ele>
        <time>2020-07-31T07:19:47.000Z</time>
      </trkpt>
      <trkpt lat="46.34702" lon="5.41526">
        <ele>357.79998779297</ele>
        <time>2020-07-31T07:19:49.000Z</time>
      </trkpt>
      <trkpt lat="46.34711" lon="5.41512">
        <ele>357.79998779297</ele>
        <time>2020-07-31T07:19:51.000Z</time>
      </trkpt>
      <trkpt lat="46.34715" lon="5.41505">
        <ele>357.79998779297</ele>
        <time>2020-07-31T07:19:52.000Z</time>
      </trkpt>
      <trkpt lat="46.3472" lon="5.41498">
        <ele>357.79998779297</ele>
        <time>2020-07-31T07:19:53.000Z</time>
      </trkpt>
      <trkpt lat="46.34728" lon="5.41484">
        <ele>357.79998779297</ele>
        <time>2020-07-31T07:19:55.000Z</time>
      </trkpt>
      <trkpt lat="46.34737" lon="5.41471">
        <ele>357.79998779297</ele>
        <time>2020-07-31T07:19:57.000Z</time>
      </trkpt>
      <trkpt lat="46.34742" lon="5.41464">
        <ele>357.79998779297</ele>
        <time>2020-07-31T07:19:58.000Z</time>
      </trkpt>
      <trkpt lat="46.34747" lon="5.41457">
        <ele>357.79998779297</ele>
        <time>2020-07-31T07:19:59.000Z</time>
      </trkpt>
      <trkpt lat="46.34757" lon="5.41443">
        <ele>357.79998779297</ele>
        <time>2020-07-31T07:20:01.000Z</time>
      </trkpt>
      <trkpt lat="46.34767" lon="5.4143">
        <ele>357.79998779297</ele>
        <time>2020-07-31T07:20:03.000Z</time>
      </trkpt>
      <trkpt lat="46.34778" lon="5.41416">
        <ele>357.79998779297</ele>
        <time>2020-07-31T07:20:05.000Z</time>
      </trkpt>
      <trkpt lat="46.34783" lon="5.4141">
        <ele>357.79998779297</ele>
        <time>2020-07-31T07:20:06.000Z</time>
      </trkpt>
      <trkpt lat="46.34788" lon="5.41404">
        <ele>357.79998779297</ele>
        <time>2020-07-31T07:20:07.000Z</time>
      </trkpt>
      <trkpt lat="46.34799" lon="5.41392">
        <ele>358</ele>
        <time>2020-07-31T07:20:09.000Z</time>
      </trkpt>
      <trkpt lat="46.34808" lon="5.41381">
        <ele>358</ele>
        <time>2020-07-31T07:20:11.000Z</time>
      </trkpt>
      <trkpt lat="46.34818" lon="5.41371">
        <ele>358</ele>
        <time>2020-07-31T07:20:13.000Z</time>
      </trkpt>
      <trkpt lat="46.34827" lon="5.41361">
        <ele>358</ele>
        <time>2020-07-31T07:20:15.000Z</time>
      </trkpt>
      <trkpt lat="46.34837" lon="5.41351">
        <ele>358</ele>
        <time>2020-07-31T07:20:17.000Z</time>
      </trkpt>
      <trkpt lat="46.34846" lon="5.4134">
        <ele>358</ele>
        <time>2020-07-31T07:20:19.000Z</time>
      </trkpt>
      <trkpt lat="46.34851" lon="5.41334">
        <ele>358</ele>
        <time>2020-07-31T07:20:20.000Z</time>
      </trkpt>
      <trkpt lat="46.34856" lon="5.41328">
        <ele>358</ele>
        <time>2020-07-31T07:20:21.000Z</time>
      </trkpt>
      <trkpt lat="46.34866" lon="5.41315">
        <ele>358.20001220703</ele>
        <time>2020-07-31T07:20:23.000Z</time>
      </trkpt>
      <trkpt lat="46.34876" lon="5.41302">
        <ele>358.20001220703</ele>
        <time>2020-07-31T07:20:25.000Z</time>
      </trkpt>
      <trkpt lat="46.34885" lon="5.41287">
        <ele>358.20001220703</ele>
        <time>2020-07-31T07:20:27.000Z</time>
      </trkpt>
      <trkpt lat="46.34894" lon="5.41272">
        <ele>358.20001220703</ele>
        <time>2020-07-31T07:20:29.000Z</time>
      </trkpt>
      <trkpt lat="46.34903" lon="5.41256">
        <ele>358.20001220703</ele>
        <time>2020-07-31T07:20:31.000Z</time>
      </trkpt>
      <trkpt lat="46.34912" lon="5.41241">
        <ele>358.20001220703</ele>
        <time>2020-07-31T07:20:33.000Z</time>
      </trkpt>
      <trkpt lat="46.34921" lon="5.41226">
        <ele>358</ele>
        <time>2020-07-31T07:20:35.000Z</time>
      </trkpt>
      <trkpt lat="46.3493" lon="5.41211">
        <ele>358.20001220703</ele>
        <time>2020-07-31T07:20:37.000Z</time>
      </trkpt>
      <trkpt lat="46.34935" lon="5.41203">
        <ele>358.20001220703</ele>
        <time>2020-07-31T07:20:38.000Z</time>
      </trkpt>
      <trkpt lat="46.3494" lon="5.41196">
        <ele>358.20001220703</ele>
        <time>2020-07-31T07:20:39.000Z</time>
      </trkpt>
      <trkpt lat="46.34949" lon="5.41182">
        <ele>358.20001220703</ele>
        <time>2020-07-31T07:20:41.000Z</time>
      </trkpt>
      <trkpt lat="46.3496" lon="5.41169">
        <ele>358.39999389648</ele>
        <time>2020-07-31T07:20:43.000Z</time>
      </trkpt>
      <trkpt lat="46.3497" lon="5.41157">
        <ele>358.39999389648</ele>
        <time>2020-07-31T07:20:45.000Z</time>
      </trkpt>
      <trkpt lat="46.34979" lon="5.41144">
        <ele>358.39999389648</ele>
        <time>2020-07-31T07:20:47.000Z</time>
      </trkpt>
      <trkpt lat="46.34988" lon="5.4113">
        <ele>358.60000610352</ele>
        <time>2020-07-31T07:20:49.000Z</time>
      </trkpt>
      <trkpt lat="46.34992" lon="5.41123">
        <ele>358.79998779297</ele>
        <time>2020-07-31T07:20:50.000Z</time>
      </trkpt>
      <trkpt lat="46.34995" lon="5.41115">
        <ele>358.79998779297</ele>
        <time>2020-07-31T07:20:51.000Z</time>
      </trkpt>
      <trkpt lat="46.35002" lon="5.411">
        <ele>359</ele>
        <time>2020-07-31T07:20:53.000Z</time>
      </trkpt>
      <trkpt lat="46.35008" lon="5.41084">
        <ele>359.20001220703</ele>
        <time>2020-07-31T07:20:55.000Z</time>
      </trkpt>
      <trkpt lat="46.35015" lon="5.41069">
        <ele>359.39999389648</ele>
        <time>2020-07-31T07:20:57.000Z</time>
      </trkpt>
      <trkpt lat="46.35021" lon="5.41054">
        <ele>359.79998779297</ele>
        <time>2020-07-31T07:20:59.000Z</time>
      </trkpt>
      <trkpt lat="46.35028" lon="5.41039">
        <ele>360</ele>
        <time>2020-07-31T07:21:01.000Z</time>
      </trkpt>
      <trkpt lat="46.35034" lon="5.41024">
        <ele>360</ele>
        <time>2020-07-31T07:21:03.000Z</time>
      </trkpt>
      <trkpt lat="46.35041" lon="5.41011">
        <ele>360.39999389648</ele>
        <time>2020-07-31T07:21:05.000Z</time>
      </trkpt>
      <trkpt lat="46.35049" lon="5.40998">
        <ele>361</ele>
        <time>2020-07-31T07:21:07.000Z</time>
      </trkpt>
      <trkpt lat="46.35053" lon="5.40992">
        <ele>361.20001220703</ele>
        <time>2020-07-31T07:21:08.000Z</time>
      </trkpt>
      <trkpt lat="46.35057" lon="5.40987">
        <ele>361.20001220703</ele>
        <time>2020-07-31T07:21:09.000Z</time>
      </trkpt>
      <trkpt lat="46.35064" lon="5.40976">
        <ele>361.20001220703</ele>
        <time>2020-07-31T07:21:11.000Z</time>
      </trkpt>
      <trkpt lat="46.35071" lon="5.40967">
        <ele>361.60000610352</ele>
        <time>2020-07-31T07:21:13.000Z</time>
      </trkpt>
      <trkpt lat="46.35079" lon="5.40959">
        <ele>362.20001220703</ele>
        <time>2020-07-31T07:21:15.000Z</time>
      </trkpt>
      <trkpt lat="46.35086" lon="5.40952">
        <ele>362.79998779297</ele>
        <time>2020-07-31T07:21:17.000Z</time>
      </trkpt>
      <trkpt lat="46.35093" lon="5.40944">
        <ele>363.20001220703</ele>
        <time>2020-07-31T07:21:19.000Z</time>
      </trkpt>
      <trkpt lat="46.351" lon="5.40938">
        <ele>363.79998779297</ele>
        <time>2020-07-31T07:21:21.000Z</time>
      </trkpt>
      <trkpt lat="46.35107" lon="5.40932">
        <ele>364.20001220703</ele>
        <time>2020-07-31T07:21:23.000Z</time>
      </trkpt>
      <trkpt lat="46.35111" lon="5.40929">
        <ele>364.60000610352</ele>
        <time>2020-07-31T07:21:24.000Z</time>
      </trkpt>
      <trkpt lat="46.35114" lon="5.40926">
        <ele>365</ele>
        <time>2020-07-31T07:21:25.000Z</time>
      </trkpt>
      <trkpt lat="46.35122" lon="5.40922">
        <ele>365.39999389648</ele>
        <time>2020-07-31T07:21:27.000Z</time>
      </trkpt>
      <trkpt lat="46.3513" lon="5.40918">
        <ele>366.20001220703</ele>
        <time>2020-07-31T07:21:29.000Z</time>
      </trkpt>
      <trkpt lat="46.35133" lon="5.40916">
        <ele>366.39999389648</ele>
        <time>2020-07-31T07:21:30.000Z</time>
      </trkpt>
      <trkpt lat="46.35137" lon="5.40915">
        <ele>366.79998779297</ele>
        <time>2020-07-31T07:21:31.000Z</time>
      </trkpt>
      <trkpt lat="46.35145" lon="5.40913">
        <ele>367.39999389648</ele>
        <time>2020-07-31T07:21:33.000Z</time>
      </trkpt>
      <trkpt lat="46.35149" lon="5.40912">
        <ele>367.79998779297</ele>
        <time>2020-07-31T07:21:34.000Z</time>
      </trkpt>
      <trkpt lat="46.35153" lon="5.40911">
        <ele>368</ele>
        <time>2020-07-31T07:21:35.000Z</time>
      </trkpt>
      <trkpt lat="46.3516" lon="5.40909">
        <ele>368.39999389648</ele>
        <time>2020-07-31T07:21:37.000Z</time>
      </trkpt>
      <trkpt lat="46.35168" lon="5.40907">
        <ele>369</ele>
        <time>2020-07-31T07:21:39.000Z</time>
      </trkpt>
      <trkpt lat="46.35176" lon="5.40905">
        <ele>369.39999389648</ele>
        <time>2020-07-31T07:21:41.000Z</time>
      </trkpt>
      <trkpt lat="46.35183" lon="5.40904">
        <ele>370</ele>
        <time>2020-07-31T07:21:43.000Z</time>
      </trkpt>
      <trkpt lat="46.35191" lon="5.40903">
        <ele>370.60000610352</ele>
        <time>2020-07-31T07:21:45.000Z</time>
      </trkpt>
      <trkpt lat="46.35198" lon="5.40903">
        <ele>371</ele>
        <time>2020-07-31T07:21:47.000Z</time>
      </trkpt>
      <trkpt lat="46.35206" lon="5.40902">
        <ele>371.39999389648</ele>
        <time>2020-07-31T07:21:49.000Z</time>
      </trkpt>
      <trkpt lat="46.35213" lon="5.40902">
        <ele>371.79998779297</ele>
        <time>2020-07-31T07:21:51.000Z</time>
      </trkpt>
      <trkpt lat="46.3522" lon="5.40901">
        <ele>372.20001220703</ele>
        <time>2020-07-31T07:21:53.000Z</time>
      </trkpt>
      <trkpt lat="46.35227" lon="5.40899">
        <ele>372.60000610352</ele>
        <time>2020-07-31T07:21:55.000Z</time>
      </trkpt>
      <trkpt lat="46.35234" lon="5.40895">
        <ele>372.79998779297</ele>
        <time>2020-07-31T07:21:57.000Z</time>
      </trkpt>
      <trkpt lat="46.3524" lon="5.40889">
        <ele>373.39999389648</ele>
        <time>2020-07-31T07:21:59.000Z</time>
      </trkpt>
      <trkpt lat="46.35247" lon="5.40881">
        <ele>374</ele>
        <time>2020-07-31T07:22:01.000Z</time>
      </trkpt>
      <trkpt lat="46.35253" lon="5.40871">
        <ele>374.79998779297</ele>
        <time>2020-07-31T07:22:03.000Z</time>
      </trkpt>
      <trkpt lat="46.35256" lon="5.40866">
        <ele>375</ele>
        <time>2020-07-31T07:22:04.000Z</time>
      </trkpt>
      <trkpt lat="46.35259" lon="5.4086">
        <ele>375</ele>
        <time>2020-07-31T07:22:05.000Z</time>
      </trkpt>
      <trkpt lat="46.35264" lon="5.40849">
        <ele>375.39999389648</ele>
        <time>2020-07-31T07:22:07.000Z</time>
      </trkpt>
      <trkpt lat="46.3527" lon="5.40838">
        <ele>375.39999389648</ele>
        <time>2020-07-31T07:22:09.000Z</time>
      </trkpt>
      <trkpt lat="46.35275" lon="5.40826">
        <ele>375.39999389648</ele>
        <time>2020-07-31T07:22:11.000Z</time>
      </trkpt>
      <trkpt lat="46.35281" lon="5.40815">
        <ele>375.60000610352</ele>
        <time>2020-07-31T07:22:13.000Z</time>
      </trkpt>
      <trkpt lat="46.35286" lon="5.40802">
        <ele>375.60000610352</ele>
        <time>2020-07-31T07:22:15.000Z</time>
      </trkpt>
      <trkpt lat="46.35292" lon="5.4079">
        <ele>375.60000610352</ele>
        <time>2020-07-31T07:22:17.000Z</time>
      </trkpt>
      <trkpt lat="46.35298" lon="5.40779">
        <ele>375.60000610352</ele>
        <time>2020-07-31T07:22:19.000Z</time>
      </trkpt>
      <trkpt lat="46.35303" lon="5.40768">
        <ele>375.60000610352</ele>
        <time>2020-07-31T07:22:21.000Z</time>
      </trkpt>
      <trkpt lat="46.3531" lon="5.40763">
        <ele>375.60000610352</ele>
        <time>2020-07-31T07:22:23.000Z</time>
      </trkpt>
      <trkpt lat="46.35314" lon="5.40763">
        <ele>375.60000610352</ele>
        <time>2020-07-31T07:22:24.000Z</time>
      </trkpt>
      <trkpt lat="46.35321" lon="5.40769">
        <ele>375.79998779297</ele>
        <time>2020-07-31T07:22:26.000Z</time>
      </trkpt>
      <trkpt lat="46.35324" lon="5.40773">
        <ele>375.79998779297</ele>
        <time>2020-07-31T07:22:27.000Z</time>
      </trkpt>
      <trkpt lat="46.35328" lon="5.40776">
        <ele>375.79998779297</ele>
        <time>2020-07-31T07:22:28.000Z</time>
      </trkpt>
      <trkpt lat="46.35334" lon="5.40782">
        <ele>376</ele>
        <time>2020-07-31T07:22:30.000Z</time>
      </trkpt>
      <trkpt lat="46.35341" lon="5.40785">
        <ele>376.39999389648</ele>
        <time>2020-07-31T07:22:32.000Z</time>
      </trkpt>
      <trkpt lat="46.35346" lon="5.40785">
        <ele>376.60000610352</ele>
        <time>2020-07-31T07:22:33.000Z</time>
      </trkpt>
      <trkpt lat="46.3535" lon="5.40784">
        <ele>377</ele>
        <time>2020-07-31T07:22:34.000Z</time>
      </trkpt>
      <trkpt lat="46.35361" lon="5.4078">
        <ele>377.20001220703</ele>
        <time>2020-07-31T07:22:36.000Z</time>
      </trkpt>
      <trkpt lat="46.35367" lon="5.40779">
        <ele>377.20001220703</ele>
        <time>2020-07-31T07:22:37.000Z</time>
      </trkpt>
      <trkpt lat="46.35373" lon="5.40778">
        <ele>377.39999389648</ele>
        <time>2020-07-31T07:22:38.000Z</time>
      </trkpt>
      <trkpt lat="46.35387" lon="5.40777">
        <ele>377.39999389648</ele>
        <time>2020-07-31T07:22:40.000Z</time>
      </trkpt>
      <trkpt lat="46.35394" lon="5.40775">
        <ele>377.39999389648</ele>
        <time>2020-07-31T07:22:41.000Z</time>
      </trkpt>
      <trkpt lat="46.35401" lon="5.40773">
        <ele>377.39999389648</ele>
        <time>2020-07-31T07:22:42.000Z</time>
      </trkpt>
      <trkpt lat="46.35415" lon="5.40765">
        <ele>377.39999389648</ele>
        <time>2020-07-31T07:22:44.000Z</time>
      </trkpt>
      <trkpt lat="46.35423" lon="5.4076">
        <ele>377</ele>
        <time>2020-07-31T07:22:45.000Z</time>
      </trkpt>
      <trkpt lat="46.35431" lon="5.40755">
        <ele>376.79998779297</ele>
        <time>2020-07-31T07:22:46.000Z</time>
      </trkpt>
      <trkpt lat="46.35447" lon="5.40747">
        <ele>376</ele>
        <time>2020-07-31T07:22:48.000Z</time>
      </trkpt>
      <trkpt lat="46.35456" lon="5.40743">
        <ele>375.79998779297</ele>
        <time>2020-07-31T07:22:49.000Z</time>
      </trkpt>
      <trkpt lat="46.35464" lon="5.40741">
        <ele>375.39999389648</ele>
        <time>2020-07-31T07:22:50.000Z</time>
      </trkpt>
      <trkpt lat="46.35473" lon="5.40741">
        <ele>375</ele>
        <time>2020-07-31T07:22:51.000Z</time>
      </trkpt>
      <trkpt lat="46.35482" lon="5.40741">
        <ele>374.39999389648</ele>
        <time>2020-07-31T07:22:52.000Z</time>
      </trkpt>
      <trkpt lat="46.35499" lon="5.40741">
        <ele>373.20001220703</ele>
        <time>2020-07-31T07:22:54.000Z</time>
      </trkpt>
      <trkpt lat="46.35516" lon="5.40741">
        <ele>372.39999389648</ele>
        <time>2020-07-31T07:22:56.000Z</time>
      </trkpt>
      <trkpt lat="46.35525" lon="5.40741">
        <ele>372</ele>
        <time>2020-07-31T07:22:57.000Z</time>
      </trkpt>
      <trkpt lat="46.35534" lon="5.40742">
        <ele>371.79998779297</ele>
        <time>2020-07-31T07:22:58.000Z</time>
      </trkpt>
      <trkpt lat="46.35543" lon="5.40743">
        <ele>371.20001220703</ele>
        <time>2020-07-31T07:22:59.000Z</time>
      </trkpt>
      <trkpt lat="46.35552" lon="5.40746">
        <ele>371</ele>
        <time>2020-07-31T07:23:00.000Z</time>
      </trkpt>
      <trkpt lat="46.35561" lon="5.40748">
        <ele>370.60000610352</ele>
        <time>2020-07-31T07:23:01.000Z</time>
      </trkpt>
      <trkpt lat="46.3557" lon="5.40752">
        <ele>369.79998779297</ele>
        <time>2020-07-31T07:23:02.000Z</time>
      </trkpt>
      <trkpt lat="46.35579" lon="5.40756">
        <ele>369.60000610352</ele>
        <time>2020-07-31T07:23:03.000Z</time>
      </trkpt>
      <trkpt lat="46.35587" lon="5.4076">
        <ele>369.39999389648</ele>
        <time>2020-07-31T07:23:04.000Z</time>
      </trkpt>
      <trkpt lat="46.35604" lon="5.40767">
        <ele>368.79998779297</ele>
        <time>2020-07-31T07:23:06.000Z</time>
      </trkpt>
      <trkpt lat="46.35613" lon="5.4077">
        <ele>368.20001220703</ele>
        <time>2020-07-31T07:23:07.000Z</time>
      </trkpt>
      <trkpt lat="46.35621" lon="5.40772">
        <ele>367.60000610352</ele>
        <time>2020-07-31T07:23:08.000Z</time>
      </trkpt>
      <trkpt lat="46.3563" lon="5.40775">
        <ele>367.20001220703</ele>
        <time>2020-07-31T07:23:09.000Z</time>
      </trkpt>
      <trkpt lat="46.35638" lon="5.40777">
        <ele>367</ele>
        <time>2020-07-31T07:23:10.000Z</time>
      </trkpt>
      <trkpt lat="46.35656" lon="5.40779">
        <ele>366.60000610352</ele>
        <time>2020-07-31T07:23:12.000Z</time>
      </trkpt>
      <trkpt lat="46.35675" lon="5.40779">
        <ele>366.60000610352</ele>
        <time>2020-07-31T07:23:14.000Z</time>
      </trkpt>
      <trkpt lat="46.35684" lon="5.40778">
        <ele>366.39999389648</ele>
        <time>2020-07-31T07:23:15.000Z</time>
      </trkpt>
      <trkpt lat="46.35693" lon="5.40777">
        <ele>366.20001220703</ele>
        <time>2020-07-31T07:23:16.000Z</time>
      </trkpt>
      <trkpt lat="46.3571" lon="5.40775">
        <ele>366</ele>
        <time>2020-07-31T07:23:18.000Z</time>
      </trkpt>
      <trkpt lat="46.35727" lon="5.40771">
        <ele>365.79998779297</ele>
        <time>2020-07-31T07:23:20.000Z</time>
      </trkpt>
      <trkpt lat="46.35735" lon="5.40767">
        <ele>365.79998779297</ele>
        <time>2020-07-31T07:23:21.000Z</time>
      </trkpt>
      <trkpt lat="46.35742" lon="5.40762">
        <ele>365.79998779297</ele>
        <time>2020-07-31T07:23:22.000Z</time>
      </trkpt>
      <trkpt lat="46.35757" lon="5.40753">
        <ele>365.79998779297</ele>
        <time>2020-07-31T07:23:24.000Z</time>
      </trkpt>
      <trkpt lat="46.35765" lon="5.4075">
        <ele>365.79998779297</ele>
        <time>2020-07-31T07:23:25.000Z</time>
      </trkpt>
      <trkpt lat="46.35772" lon="5.40748">
        <ele>365.79998779297</ele>
        <time>2020-07-31T07:23:26.000Z</time>
      </trkpt>
      <trkpt lat="46.35788" lon="5.40749">
        <ele>365.79998779297</ele>
        <time>2020-07-31T07:23:28.000Z</time>
      </trkpt>
      <trkpt lat="46.35796" lon="5.4075">
        <ele>365.79998779297</ele>
        <time>2020-07-31T07:23:29.000Z</time>
      </trkpt>
      <trkpt lat="46.35804" lon="5.40751">
        <ele>365.79998779297</ele>
        <time>2020-07-31T07:23:30.000Z</time>
      </trkpt>
      <trkpt lat="46.35819" lon="5.40753">
        <ele>366</ele>
        <time>2020-07-31T07:23:32.000Z</time>
      </trkpt>
      <trkpt lat="46.35835" lon="5.40758">
        <ele>366.39999389648</ele>
        <time>2020-07-31T07:23:34.000Z</time>
      </trkpt>
      <trkpt lat="46.35849" lon="5.40763">
        <ele>366.60000610352</ele>
        <time>2020-07-31T07:23:36.000Z</time>
      </trkpt>
      <trkpt lat="46.35864" lon="5.40767">
        <ele>366.79998779297</ele>
        <time>2020-07-31T07:23:38.000Z</time>
      </trkpt>
      <trkpt lat="46.35879" lon="5.40771">
        <ele>366.79998779297</ele>
        <time>2020-07-31T07:23:40.000Z</time>
      </trkpt>
      <trkpt lat="46.35894" lon="5.40775">
        <ele>367</ele>
        <time>2020-07-31T07:23:42.000Z</time>
      </trkpt>
      <trkpt lat="46.35909" lon="5.40779">
        <ele>367</ele>
        <time>2020-07-31T07:23:44.000Z</time>
      </trkpt>
      <trkpt lat="46.35916" lon="5.40783">
        <ele>367</ele>
        <time>2020-07-31T07:23:45.000Z</time>
      </trkpt>
      <trkpt lat="46.35923" lon="5.40787">
        <ele>367</ele>
        <time>2020-07-31T07:23:46.000Z</time>
      </trkpt>
      <trkpt lat="46.35936" lon="5.408">
        <ele>367</ele>
        <time>2020-07-31T07:23:48.000Z</time>
      </trkpt>
      <trkpt lat="46.35941" lon="5.40807">
        <ele>367</ele>
        <time>2020-07-31T07:23:49.000Z</time>
      </trkpt>
      <trkpt lat="46.35947" lon="5.40814">
        <ele>367</ele>
        <time>2020-07-31T07:23:50.000Z</time>
      </trkpt>
      <trkpt lat="46.35958" lon="5.40827">
        <ele>367.20001220703</ele>
        <time>2020-07-31T07:23:52.000Z</time>
      </trkpt>
      <trkpt lat="46.35964" lon="5.40833">
        <ele>367.20001220703</ele>
        <time>2020-07-31T07:23:53.000Z</time>
      </trkpt>
      <trkpt lat="46.3597" lon="5.40839">
        <ele>367.20001220703</ele>
        <time>2020-07-31T07:23:54.000Z</time>
      </trkpt>
      <trkpt lat="46.35981" lon="5.4085">
        <ele>367.39999389648</ele>
        <time>2020-07-31T07:23:56.000Z</time>
      </trkpt>
      <trkpt lat="46.35991" lon="5.40862">
        <ele>367.39999389648</ele>
        <time>2020-07-31T07:23:58.000Z</time>
      </trkpt>
      <trkpt lat="46.36" lon="5.40877">
        <ele>367.60000610352</ele>
        <time>2020-07-31T07:24:00.000Z</time>
      </trkpt>
      <trkpt lat="46.36008" lon="5.40892">
        <ele>367.60000610352</ele>
        <time>2020-07-31T07:24:02.000Z</time>
      </trkpt>
      <trkpt lat="46.36016" lon="5.40907">
        <ele>367.79998779297</ele>
        <time>2020-07-31T07:24:04.000Z</time>
      </trkpt>
      <trkpt lat="46.36026" lon="5.40918">
        <ele>368</ele>
        <time>2020-07-31T07:24:06.000Z</time>
      </trkpt>
      <trkpt lat="46.36031" lon="5.40922">
        <ele>368.20001220703</ele>
        <time>2020-07-31T07:24:07.000Z</time>
      </trkpt>
      <trkpt lat="46.36036" lon="5.40926">
        <ele>368.39999389648</ele>
        <time>2020-07-31T07:24:08.000Z</time>
      </trkpt>
      <trkpt lat="46.36047" lon="5.40933">
        <ele>368.39999389648</ele>
        <time>2020-07-31T07:24:10.000Z</time>
      </trkpt>
      <trkpt lat="46.36053" lon="5.40936">
        <ele>368.39999389648</ele>
        <time>2020-07-31T07:24:11.000Z</time>
      </trkpt>
      <trkpt lat="46.36059" lon="5.40939">
        <ele>368.39999389648</ele>
        <time>2020-07-31T07:24:12.000Z</time>
      </trkpt>
      <trkpt lat="46.36071" lon="5.40945">
        <ele>368.60000610352</ele>
        <time>2020-07-31T07:24:14.000Z</time>
      </trkpt>
      <trkpt lat="46.36083" lon="5.40948">
        <ele>368.79998779297</ele>
        <time>2020-07-31T07:24:16.000Z</time>
      </trkpt>
      <trkpt lat="46.36089" lon="5.40949">
        <ele>368.79998779297</ele>
        <time>2020-07-31T07:24:17.000Z</time>
      </trkpt>
      <trkpt lat="46.36096" lon="5.40949">
        <ele>369</ele>
        <time>2020-07-31T07:24:18.000Z</time>
      </trkpt>
      <trkpt lat="46.36109" lon="5.40946">
        <ele>369</ele>
        <time>2020-07-31T07:24:20.000Z</time>
      </trkpt>
      <trkpt lat="46.36116" lon="5.40945">
        <ele>369</ele>
        <time>2020-07-31T07:24:21.000Z</time>
      </trkpt>
      <trkpt lat="46.36123" lon="5.40944">
        <ele>369.20001220703</ele>
        <time>2020-07-31T07:24:22.000Z</time>
      </trkpt>
      <trkpt lat="46.36137" lon="5.40944">
        <ele>369.39999389648</ele>
        <time>2020-07-31T07:24:24.000Z</time>
      </trkpt>
      <trkpt lat="46.3615" lon="5.40947">
        <ele>369.60000610352</ele>
        <time>2020-07-31T07:24:26.000Z</time>
      </trkpt>
      <trkpt lat="46.36156" lon="5.40949">
        <ele>369.60000610352</ele>
        <time>2020-07-31T07:24:27.000Z</time>
      </trkpt>
      <trkpt lat="46.36162" lon="5.4095">
        <ele>369.79998779297</ele>
        <time>2020-07-31T07:24:28.000Z</time>
      </trkpt>
      <trkpt lat="46.36168" lon="5.40952">
        <ele>370.20001220703</ele>
        <time>2020-07-31T07:24:29.000Z</time>
      </trkpt>
      <trkpt lat="46.36175" lon="5.40954">
        <ele>370.39999389648</ele>
        <time>2020-07-31T07:24:30.000Z</time>
      </trkpt>
      <trkpt lat="46.36187" lon="5.40957">
        <ele>370.60000610352</ele>
        <time>2020-07-31T07:24:32.000Z</time>
      </trkpt>
      <trkpt lat="46.36201" lon="5.4096">
        <ele>370.79998779297</ele>
        <time>2020-07-31T07:24:34.000Z</time>
      </trkpt>
      <trkpt lat="46.36214" lon="5.40963">
        <ele>371</ele>
        <time>2020-07-31T07:24:36.000Z</time>
      </trkpt>
      <trkpt lat="46.3622" lon="5.40964">
        <ele>371.20001220703</ele>
        <time>2020-07-31T07:24:37.000Z</time>
      </trkpt>
      <trkpt lat="46.36226" lon="5.40964">
        <ele>371.20001220703</ele>
        <time>2020-07-31T07:24:38.000Z</time>
      </trkpt>
      <trkpt lat="46.36239" lon="5.40965">
        <ele>371.39999389648</ele>
        <time>2020-07-31T07:24:40.000Z</time>
      </trkpt>
      <trkpt lat="46.36252" lon="5.40964">
        <ele>371.39999389648</ele>
        <time>2020-07-31T07:24:42.000Z</time>
      </trkpt>
      <trkpt lat="46.36265" lon="5.40962">
        <ele>371.39999389648</ele>
        <time>2020-07-31T07:24:44.000Z</time>
      </trkpt>
      <trkpt lat="46.36271" lon="5.4096">
        <ele>371.39999389648</ele>
        <time>2020-07-31T07:24:45.000Z</time>
      </trkpt>
      <trkpt lat="46.36277" lon="5.40958">
        <ele>371.60000610352</ele>
        <time>2020-07-31T07:24:46.000Z</time>
      </trkpt>
      <trkpt lat="46.36289" lon="5.40953">
        <ele>371.60000610352</ele>
        <time>2020-07-31T07:24:48.000Z</time>
      </trkpt>
      <trkpt lat="46.36301" lon="5.40947">
        <ele>371.79998779297</ele>
        <time>2020-07-31T07:24:50.000Z</time>
      </trkpt>
      <trkpt lat="46.36313" lon="5.40941">
        <ele>372</ele>
        <time>2020-07-31T07:24:52.000Z</time>
      </trkpt>
      <trkpt lat="46.36319" lon="5.40939">
        <ele>372</ele>
        <time>2020-07-31T07:24:53.000Z</time>
      </trkpt>
      <trkpt lat="46.36325" lon="5.40938">
        <ele>372.20001220703</ele>
        <time>2020-07-31T07:24:54.000Z</time>
      </trkpt>
      <trkpt lat="46.36338" lon="5.40937">
        <ele>372.20001220703</ele>
        <time>2020-07-31T07:24:56.000Z</time>
      </trkpt>
      <trkpt lat="46.36344" lon="5.40936">
        <ele>372.39999389648</ele>
        <time>2020-07-31T07:24:57.000Z</time>
      </trkpt>
      <trkpt lat="46.3635" lon="5.40936">
        <ele>372.79998779297</ele>
        <time>2020-07-31T07:24:58.000Z</time>
      </trkpt>
      <trkpt lat="46.36362" lon="5.40937">
        <ele>373</ele>
        <time>2020-07-31T07:25:00.000Z</time>
      </trkpt>
      <trkpt lat="46.36375" lon="5.40937">
        <ele>373.20001220703</ele>
        <time>2020-07-31T07:25:02.000Z</time>
      </trkpt>
      <trkpt lat="46.36387" lon="5.40938">
        <ele>373.39999389648</ele>
        <time>2020-07-31T07:25:04.000Z</time>
      </trkpt>
      <trkpt lat="46.364" lon="5.40939">
        <ele>373.60000610352</ele>
        <time>2020-07-31T07:25:06.000Z</time>
      </trkpt>
      <trkpt lat="46.36412" lon="5.40939">
        <ele>373.60000610352</ele>
        <time>2020-07-31T07:25:08.000Z</time>
      </trkpt>
      <trkpt lat="46.36425" lon="5.40941">
        <ele>373.79998779297</ele>
        <time>2020-07-31T07:25:10.000Z</time>
      </trkpt>
      <trkpt lat="46.36438" lon="5.40944">
        <ele>374</ele>
        <time>2020-07-31T07:25:12.000Z</time>
      </trkpt>
      <trkpt lat="46.36451" lon="5.40948">
        <ele>374</ele>
        <time>2020-07-31T07:25:14.000Z</time>
      </trkpt>
      <trkpt lat="46.36464" lon="5.40951">
        <ele>374.20001220703</ele>
        <time>2020-07-31T07:25:16.000Z</time>
      </trkpt>
      <trkpt lat="46.36478" lon="5.40953">
        <ele>374.20001220703</ele>
        <time>2020-07-31T07:25:18.000Z</time>
      </trkpt>
      <trkpt lat="46.36491" lon="5.40954">
        <ele>374.39999389648</ele>
        <time>2020-07-31T07:25:20.000Z</time>
      </trkpt>
      <trkpt lat="46.36497" lon="5.40954">
        <ele>374.39999389648</ele>
        <time>2020-07-31T07:25:21.000Z</time>
      </trkpt>
      <trkpt lat="46.36504" lon="5.40954">
        <ele>374.60000610352</ele>
        <time>2020-07-31T07:25:22.000Z</time>
      </trkpt>
      <trkpt lat="46.36517" lon="5.40955">
        <ele>374.60000610352</ele>
        <time>2020-07-31T07:25:24.000Z</time>
      </trkpt>
      <trkpt lat="46.3653" lon="5.40956">
        <ele>374.79998779297</ele>
        <time>2020-07-31T07:25:26.000Z</time>
      </trkpt>
      <trkpt lat="46.36543" lon="5.40957">
        <ele>375</ele>
        <time>2020-07-31T07:25:28.000Z</time>
      </trkpt>
      <trkpt lat="46.36556" lon="5.40957">
        <ele>375.20001220703</ele>
        <time>2020-07-31T07:25:30.000Z</time>
      </trkpt>
      <trkpt lat="46.36568" lon="5.40958">
        <ele>375.39999389648</ele>
        <time>2020-07-31T07:25:32.000Z</time>
      </trkpt>
      <trkpt lat="46.3658" lon="5.40959">
        <ele>375.60000610352</ele>
        <time>2020-07-31T07:25:34.000Z</time>
      </trkpt>
      <trkpt lat="46.36592" lon="5.4096">
        <ele>376</ele>
        <time>2020-07-31T07:25:36.000Z</time>
      </trkpt>
      <trkpt lat="46.36598" lon="5.40961">
        <ele>376.20001220703</ele>
        <time>2020-07-31T07:25:37.000Z</time>
      </trkpt>
      <trkpt lat="46.36603" lon="5.40962">
        <ele>376.20001220703</ele>
        <time>2020-07-31T07:25:38.000Z</time>
      </trkpt>
      <trkpt lat="46.36615" lon="5.40963">
        <ele>376.20001220703</ele>
        <time>2020-07-31T07:25:40.000Z</time>
      </trkpt>
      <trkpt lat="46.36627" lon="5.40966">
        <ele>376.39999389648</ele>
        <time>2020-07-31T07:25:42.000Z</time>
      </trkpt>
      <trkpt lat="46.36639" lon="5.40969">
        <ele>376.60000610352</ele>
        <time>2020-07-31T07:25:44.000Z</time>
      </trkpt>
      <trkpt lat="46.36644" lon="5.40972">
        <ele>376.60000610352</ele>
        <time>2020-07-31T07:25:45.000Z</time>
      </trkpt>
      <trkpt lat="46.36649" lon="5.40974">
        <ele>376.79998779297</ele>
        <time>2020-07-31T07:25:46.000Z</time>
      </trkpt>
      <trkpt lat="46.3666" lon="5.40979">
        <ele>377</ele>
        <time>2020-07-31T07:25:48.000Z</time>
      </trkpt>
      <trkpt lat="46.36672" lon="5.40983">
        <ele>377.20001220703</ele>
        <time>2020-07-31T07:25:50.000Z</time>
      </trkpt>
      <trkpt lat="46.36683" lon="5.40986">
        <ele>377.39999389648</ele>
        <time>2020-07-31T07:25:52.000Z</time>
      </trkpt>
      <trkpt lat="46.36695" lon="5.40988">
        <ele>377.60000610352</ele>
        <time>2020-07-31T07:25:54.000Z</time>
      </trkpt>
      <trkpt lat="46.367" lon="5.40989">
        <ele>378</ele>
        <time>2020-07-31T07:25:55.000Z</time>
      </trkpt>
      <trkpt lat="46.36705" lon="5.4099">
        <ele>378.39999389648</ele>
        <time>2020-07-31T07:25:56.000Z</time>
      </trkpt>
      <trkpt lat="46.3671" lon="5.4099">
        <ele>379</ele>
        <time>2020-07-31T07:25:57.000Z</time>
      </trkpt>
      <trkpt lat="46.36716" lon="5.4099">
        <ele>379</ele>
        <time>2020-07-31T07:25:58.000Z</time>
      </trkpt>
      <trkpt lat="46.36725" lon="5.4099">
        <ele>379.39999389648</ele>
        <time>2020-07-31T07:26:00.000Z</time>
      </trkpt>
      <trkpt lat="46.36735" lon="5.40991">
        <ele>379.39999389648</ele>
        <time>2020-07-31T07:26:02.000Z</time>
      </trkpt>
      <trkpt lat="46.36744" lon="5.40991">
        <ele>379.60000610352</ele>
        <time>2020-07-31T07:26:04.000Z</time>
      </trkpt>
      <trkpt lat="46.36753" lon="5.40994">
        <ele>380</ele>
        <time>2020-07-31T07:26:06.000Z</time>
      </trkpt>
      <trkpt lat="46.36762" lon="5.40996">
        <ele>380.20001220703</ele>
        <time>2020-07-31T07:26:08.000Z</time>
      </trkpt>
      <trkpt lat="46.36773" lon="5.40997">
        <ele>380.39999389648</ele>
        <time>2020-07-31T07:26:10.000Z</time>
      </trkpt>
      <trkpt lat="46.36783" lon="5.40999">
        <ele>380.60000610352</ele>
        <time>2020-07-31T07:26:12.000Z</time>
      </trkpt>
      <trkpt lat="46.36792" lon="5.40999">
        <ele>381.20001220703</ele>
        <time>2020-07-31T07:26:14.000Z</time>
      </trkpt>
      <trkpt lat="46.36801" lon="5.40999">
        <ele>381.79998779297</ele>
        <time>2020-07-31T07:26:16.000Z</time>
      </trkpt>
      <trkpt lat="46.3681" lon="5.40999">
        <ele>382.39999389648</ele>
        <time>2020-07-31T07:26:18.000Z</time>
      </trkpt>
      <trkpt lat="46.36821" lon="5.40998">
        <ele>382.60000610352</ele>
        <time>2020-07-31T07:26:20.000Z</time>
      </trkpt>
      <trkpt lat="46.36827" lon="5.40997">
        <ele>382.79998779297</ele>
        <time>2020-07-31T07:26:21.000Z</time>
      </trkpt>
      <trkpt lat="46.36833" lon="5.40997">
        <ele>383</ele>
        <time>2020-07-31T07:26:22.000Z</time>
      </trkpt>
      <trkpt lat="46.36845" lon="5.40997">
        <ele>383.39999389648</ele>
        <time>2020-07-31T07:26:24.000Z</time>
      </trkpt>
      <trkpt lat="46.36858" lon="5.40997">
        <ele>383.79998779297</ele>
        <time>2020-07-31T07:26:26.000Z</time>
      </trkpt>
      <trkpt lat="46.3687" lon="5.40998">
        <ele>384.39999389648</ele>
        <time>2020-07-31T07:26:28.000Z</time>
      </trkpt>
      <trkpt lat="46.36877" lon="5.40999">
        <ele>384.60000610352</ele>
        <time>2020-07-31T07:26:29.000Z</time>
      </trkpt>
      <trkpt lat="46.36883" lon="5.40999">
        <ele>384.79998779297</ele>
        <time>2020-07-31T07:26:30.000Z</time>
      </trkpt>
      <trkpt lat="46.36895" lon="5.40999">
        <ele>385</ele>
        <time>2020-07-31T07:26:32.000Z</time>
      </trkpt>
      <trkpt lat="46.36907" lon="5.41">
        <ele>385</ele>
        <time>2020-07-31T07:26:34.000Z</time>
      </trkpt>
      <trkpt lat="46.36921" lon="5.40999">
        <ele>385</ele>
        <time>2020-07-31T07:26:36.000Z</time>
      </trkpt>
      <trkpt lat="46.36927" lon="5.40998">
        <ele>385</ele>
        <time>2020-07-31T07:26:37.000Z</time>
      </trkpt>
      <trkpt lat="46.36934" lon="5.40997">
        <ele>385</ele>
        <time>2020-07-31T07:26:38.000Z</time>
      </trkpt>
      <trkpt lat="46.36947" lon="5.40994">
        <ele>385</ele>
        <time>2020-07-31T07:26:40.000Z</time>
      </trkpt>
      <trkpt lat="46.3696" lon="5.40989">
        <ele>385</ele>
        <time>2020-07-31T07:26:42.000Z</time>
      </trkpt>
      <trkpt lat="46.36966" lon="5.40987">
        <ele>384.79998779297</ele>
        <time>2020-07-31T07:26:43.000Z</time>
      </trkpt>
      <trkpt lat="46.36973" lon="5.40984">
        <ele>384.79998779297</ele>
        <time>2020-07-31T07:26:44.000Z</time>
      </trkpt>
      <trkpt lat="46.36986" lon="5.40979">
        <ele>384.60000610352</ele>
        <time>2020-07-31T07:26:46.000Z</time>
      </trkpt>
      <trkpt lat="46.36999" lon="5.40974">
        <ele>384.39999389648</ele>
        <time>2020-07-31T07:26:48.000Z</time>
      </trkpt>
      <trkpt lat="46.37012" lon="5.4097">
        <ele>384.39999389648</ele>
        <time>2020-07-31T07:26:50.000Z</time>
      </trkpt>
      <trkpt lat="46.37024" lon="5.40967">
        <ele>384.39999389648</ele>
        <time>2020-07-31T07:26:52.000Z</time>
      </trkpt>
      <trkpt lat="46.37029" lon="5.40965">
        <ele>384.39999389648</ele>
        <time>2020-07-31T07:26:53.000Z</time>
      </trkpt>
      <trkpt lat="46.37035" lon="5.40964">
        <ele>384.39999389648</ele>
        <time>2020-07-31T07:26:54.000Z</time>
      </trkpt>
      <trkpt lat="46.37046" lon="5.40963">
        <ele>384.39999389648</ele>
        <time>2020-07-31T07:26:56.000Z</time>
      </trkpt>
      <trkpt lat="46.37057" lon="5.40964">
        <ele>384.39999389648</ele>
        <time>2020-07-31T07:26:58.000Z</time>
      </trkpt>
      <trkpt lat="46.37062" lon="5.40966">
        <ele>384.39999389648</ele>
        <time>2020-07-31T07:26:59.000Z</time>
      </trkpt>
      <trkpt lat="46.37068" lon="5.40968">
        <ele>384.79998779297</ele>
        <time>2020-07-31T07:27:00.000Z</time>
      </trkpt>
      <trkpt lat="46.37079" lon="5.40975">
        <ele>385.39999389648</ele>
        <time>2020-07-31T07:27:02.000Z</time>
      </trkpt>
      <trkpt lat="46.37091" lon="5.40981">
        <ele>385.39999389648</ele>
        <time>2020-07-31T07:27:04.000Z</time>
      </trkpt>
      <trkpt lat="46.37105" lon="5.40986">
        <ele>385.60000610352</ele>
        <time>2020-07-31T07:27:06.000Z</time>
      </trkpt>
      <trkpt lat="46.37118" lon="5.40991">
        <ele>385.60000610352</ele>
        <time>2020-07-31T07:27:08.000Z</time>
      </trkpt>
      <trkpt lat="46.37132" lon="5.40995">
        <ele>385.60000610352</ele>
        <time>2020-07-31T07:27:10.000Z</time>
      </trkpt>
      <trkpt lat="46.37145" lon="5.41">
        <ele>385.60000610352</ele>
        <time>2020-07-31T07:27:12.000Z</time>
      </trkpt>
      <trkpt lat="46.37158" lon="5.41006">
        <ele>385.20001220703</ele>
        <time>2020-07-31T07:27:14.000Z</time>
      </trkpt>
      <trkpt lat="46.37169" lon="5.41012">
        <ele>384.60000610352</ele>
        <time>2020-07-31T07:27:16.000Z</time>
      </trkpt>
      <trkpt lat="46.3718" lon="5.41017">
        <ele>384.60000610352</ele>
        <time>2020-07-31T07:27:18.000Z</time>
      </trkpt>
      <trkpt lat="46.37184" lon="5.4102">
        <ele>384.60000610352</ele>
        <time>2020-07-31T07:27:19.000Z</time>
      </trkpt>
      <trkpt lat="46.37189" lon="5.41022">
        <ele>384.60000610352</ele>
        <time>2020-07-31T07:27:20.000Z</time>
      </trkpt>
      <trkpt lat="46.37199" lon="5.41027">
        <ele>384.60000610352</ele>
        <time>2020-07-31T07:27:22.000Z</time>
      </trkpt>
      <trkpt lat="46.37209" lon="5.41032">
        <ele>384.60000610352</ele>
        <time>2020-07-31T07:27:24.000Z</time>
      </trkpt>
      <trkpt lat="46.37218" lon="5.41036">
        <ele>385.79998779297</ele>
        <time>2020-07-31T07:27:26.000Z</time>
      </trkpt>
      <trkpt lat="46.37228" lon="5.4104">
        <ele>386.39999389648</ele>
        <time>2020-07-31T07:27:28.000Z</time>
      </trkpt>
      <trkpt lat="46.37233" lon="5.41042">
        <ele>386.79998779297</ele>
        <time>2020-07-31T07:27:29.000Z</time>
      </trkpt>
      <trkpt lat="46.37237" lon="5.41044">
        <ele>387</ele>
        <time>2020-07-31T07:27:30.000Z</time>
      </trkpt>
      <trkpt lat="46.37247" lon="5.41047">
        <ele>387.79998779297</ele>
        <time>2020-07-31T07:27:32.000Z</time>
      </trkpt>
      <trkpt lat="46.37252" lon="5.41049">
        <ele>388</ele>
        <time>2020-07-31T07:27:33.000Z</time>
      </trkpt>
      <trkpt lat="46.37256" lon="5.41051">
        <ele>388.20001220703</ele>
        <time>2020-07-31T07:27:34.000Z</time>
      </trkpt>
      <trkpt lat="46.37266" lon="5.41054">
        <ele>388.79998779297</ele>
        <time>2020-07-31T07:27:36.000Z</time>
      </trkpt>
      <trkpt lat="46.3727" lon="5.41055">
        <ele>389.20001220703</ele>
        <time>2020-07-31T07:27:37.000Z</time>
      </trkpt>
      <trkpt lat="46.37275" lon="5.41056">
        <ele>389.39999389648</ele>
        <time>2020-07-31T07:27:38.000Z</time>
      </trkpt>
      <trkpt lat="46.37284" lon="5.41058">
        <ele>389.60000610352</ele>
        <time>2020-07-31T07:27:40.000Z</time>
      </trkpt>
      <trkpt lat="46.37293" lon="5.4106">
        <ele>389.79998779297</ele>
        <time>2020-07-31T07:27:42.000Z</time>
      </trkpt>
      <trkpt lat="46.37302" lon="5.41062">
        <ele>390.20001220703</ele>
        <time>2020-07-31T07:27:44.000Z</time>
      </trkpt>
      <trkpt lat="46.37306" lon="5.41063">
        <ele>390.20001220703</ele>
        <time>2020-07-31T07:27:45.000Z</time>
      </trkpt>
      <trkpt lat="46.37315" lon="5.41065">
        <ele>390.79998779297</ele>
        <time>2020-07-31T07:27:47.000Z</time>
      </trkpt>
      <trkpt lat="46.3732" lon="5.41066">
        <ele>391</ele>
        <time>2020-07-31T07:27:48.000Z</time>
      </trkpt>
      <trkpt lat="46.37324" lon="5.41067">
        <ele>391.39999389648</ele>
        <time>2020-07-31T07:27:49.000Z</time>
      </trkpt>
      <trkpt lat="46.37334" lon="5.41067">
        <ele>391.79998779297</ele>
        <time>2020-07-31T07:27:51.000Z</time>
      </trkpt>
      <trkpt lat="46.37348" lon="5.41061">
        <ele>392.20001220703</ele>
        <time>2020-07-31T07:27:54.000Z</time>
      </trkpt>
      <trkpt lat="46.37352" lon="5.41058">
        <ele>392.79998779297</ele>
        <time>2020-07-31T07:27:55.000Z</time>
      </trkpt>
      <trkpt lat="46.37357" lon="5.41054">
        <ele>393</ele>
        <time>2020-07-31T07:27:56.000Z</time>
      </trkpt>
      <trkpt lat="46.37364" lon="5.41045">
        <ele>393.79998779297</ele>
        <time>2020-07-31T07:27:58.000Z</time>
      </trkpt>
      <trkpt lat="46.37368" lon="5.4104">
        <ele>394</ele>
        <time>2020-07-31T07:27:59.000Z</time>
      </trkpt>
      <trkpt lat="46.37371" lon="5.41034">
        <ele>394.39999389648</ele>
        <time>2020-07-31T07:28:00.000Z</time>
      </trkpt>
      <trkpt lat="46.37378" lon="5.4102">
        <ele>394.79998779297</ele>
        <time>2020-07-31T07:28:02.000Z</time>
      </trkpt>
      <trkpt lat="46.37385" lon="5.41005">
        <ele>394.79998779297</ele>
        <time>2020-07-31T07:28:04.000Z</time>
      </trkpt>
      <trkpt lat="46.37388" lon="5.40996">
        <ele>394.79998779297</ele>
        <time>2020-07-31T07:28:05.000Z</time>
      </trkpt>
      <trkpt lat="46.3739" lon="5.40985">
        <ele>394.79998779297</ele>
        <time>2020-07-31T07:28:06.000Z</time>
      </trkpt>
      <trkpt lat="46.37389" lon="5.40973">
        <ele>394.79998779297</ele>
        <time>2020-07-31T07:28:07.000Z</time>
      </trkpt>
      <trkpt lat="46.37385" lon="5.4095">
        <ele>394.79998779297</ele>
        <time>2020-07-31T07:28:09.000Z</time>
      </trkpt>
      <trkpt lat="46.3738" lon="5.40925">
        <ele>394.39999389648</ele>
        <time>2020-07-31T07:28:11.000Z</time>
      </trkpt>
      <trkpt lat="46.37377" lon="5.40912">
        <ele>393.79998779297</ele>
        <time>2020-07-31T07:28:12.000Z</time>
      </trkpt>
      <trkpt lat="46.37374" lon="5.40899">
        <ele>393.39999389648</ele>
        <time>2020-07-31T07:28:13.000Z</time>
      </trkpt>
      <trkpt lat="46.37372" lon="5.40885">
        <ele>392.60000610352</ele>
        <time>2020-07-31T07:28:14.000Z</time>
      </trkpt>
      <trkpt lat="46.37369" lon="5.40872">
        <ele>391.79998779297</ele>
        <time>2020-07-31T07:28:15.000Z</time>
      </trkpt>
      <trkpt lat="46.37368" lon="5.40859">
        <ele>391.20001220703</ele>
        <time>2020-07-31T07:28:16.000Z</time>
      </trkpt>
      <trkpt lat="46.37367" lon="5.40847">
        <ele>390.79998779297</ele>
        <time>2020-07-31T07:28:17.000Z</time>
      </trkpt>
      <trkpt lat="46.37369" lon="5.40837">
        <ele>390</ele>
        <time>2020-07-31T07:28:18.000Z</time>
      </trkpt>
      <trkpt lat="46.37373" lon="5.40827">
        <ele>389.20001220703</ele>
        <time>2020-07-31T07:28:19.000Z</time>
      </trkpt>
      <trkpt lat="46.37379" lon="5.40821">
        <ele>388.60000610352</ele>
        <time>2020-07-31T07:28:20.000Z</time>
      </trkpt>
      <trkpt lat="46.37386" lon="5.40817">
        <ele>388</ele>
        <time>2020-07-31T07:28:21.000Z</time>
      </trkpt>
      <trkpt lat="46.37394" lon="5.40815">
        <ele>387.39999389648</ele>
        <time>2020-07-31T07:28:22.000Z</time>
      </trkpt>
      <trkpt lat="46.37403" lon="5.40813">
        <ele>386.60000610352</ele>
        <time>2020-07-31T07:28:23.000Z</time>
      </trkpt>
      <trkpt lat="46.37413" lon="5.4081">
        <ele>386.20001220703</ele>
        <time>2020-07-31T07:28:24.000Z</time>
      </trkpt>
      <trkpt lat="46.37422" lon="5.40805">
        <ele>385.39999389648</ele>
        <time>2020-07-31T07:28:25.000Z</time>
      </trkpt>
      <trkpt lat="46.37431" lon="5.40799">
        <ele>385.20001220703</ele>
        <time>2020-07-31T07:28:26.000Z</time>
      </trkpt>
      <trkpt lat="46.37439" lon="5.40792">
        <ele>384.39999389648</ele>
        <time>2020-07-31T07:28:27.000Z</time>
      </trkpt>
      <trkpt lat="46.37447" lon="5.40784">
        <ele>383.60000610352</ele>
        <time>2020-07-31T07:28:28.000Z</time>
      </trkpt>
      <trkpt lat="46.37455" lon="5.40776">
        <ele>383</ele>
        <time>2020-07-31T07:28:29.000Z</time>
      </trkpt>
      <trkpt lat="46.37463" lon="5.40769">
        <ele>382.39999389648</ele>
        <time>2020-07-31T07:28:30.000Z</time>
      </trkpt>
      <trkpt lat="46.37472" lon="5.40764">
        <ele>382</ele>
        <time>2020-07-31T07:28:31.000Z</time>
      </trkpt>
      <trkpt lat="46.37481" lon="5.40759">
        <ele>381.79998779297</ele>
        <time>2020-07-31T07:28:32.000Z</time>
      </trkpt>
      <trkpt lat="46.375" lon="5.40753">
        <ele>381.39999389648</ele>
        <time>2020-07-31T07:28:34.000Z</time>
      </trkpt>
      <trkpt lat="46.37519" lon="5.40748">
        <ele>381.39999389648</ele>
        <time>2020-07-31T07:28:36.000Z</time>
      </trkpt>
      <trkpt lat="46.37529" lon="5.40746">
        <ele>381.39999389648</ele>
        <time>2020-07-31T07:28:37.000Z</time>
      </trkpt>
      <trkpt lat="46.37548" lon="5.40743">
        <ele>381.20001220703</ele>
        <time>2020-07-31T07:28:39.000Z</time>
      </trkpt>
      <trkpt lat="46.37567" lon="5.40744">
        <ele>381</ele>
        <time>2020-07-31T07:28:41.000Z</time>
      </trkpt>
      <trkpt lat="46.37576" lon="5.40745">
        <ele>381</ele>
        <time>2020-07-31T07:28:42.000Z</time>
      </trkpt>
      <trkpt lat="46.37586" lon="5.40747">
        <ele>380.79998779297</ele>
        <time>2020-07-31T07:28:43.000Z</time>
      </trkpt>
      <trkpt lat="46.37595" lon="5.40748">
        <ele>380.79998779297</ele>
        <time>2020-07-31T07:28:44.000Z</time>
      </trkpt>
      <trkpt lat="46.37604" lon="5.40749">
        <ele>380.79998779297</ele>
        <time>2020-07-31T07:28:45.000Z</time>
      </trkpt>
      <trkpt lat="46.37622" lon="5.40752">
        <ele>380.60000610352</ele>
        <time>2020-07-31T07:28:47.000Z</time>
      </trkpt>
      <trkpt lat="46.3764" lon="5.40754">
        <ele>380.39999389648</ele>
        <time>2020-07-31T07:28:49.000Z</time>
      </trkpt>
      <trkpt lat="46.37649" lon="5.40753">
        <ele>380.39999389648</ele>
        <time>2020-07-31T07:28:50.000Z</time>
      </trkpt>
      <trkpt lat="46.37665" lon="5.40742">
        <ele>380.39999389648</ele>
        <time>2020-07-31T07:28:52.000Z</time>
      </trkpt>
      <trkpt lat="46.37673" lon="5.40734">
        <ele>380.39999389648</ele>
        <time>2020-07-31T07:28:53.000Z</time>
      </trkpt>
      <trkpt lat="46.3768" lon="5.40725">
        <ele>380.20001220703</ele>
        <time>2020-07-31T07:28:54.000Z</time>
      </trkpt>
      <trkpt lat="46.37694" lon="5.40705">
        <ele>380</ele>
        <time>2020-07-31T07:28:56.000Z</time>
      </trkpt>
      <trkpt lat="46.37701" lon="5.40695">
        <ele>379.60000610352</ele>
        <time>2020-07-31T07:28:57.000Z</time>
      </trkpt>
      <trkpt lat="46.37709" lon="5.40685">
        <ele>379.39999389648</ele>
        <time>2020-07-31T07:28:58.000Z</time>
      </trkpt>
      <trkpt lat="46.37723" lon="5.40665">
        <ele>379</ele>
        <time>2020-07-31T07:29:00.000Z</time>
      </trkpt>
      <trkpt lat="46.3774" lon="5.40633">
        <ele>378.20001220703</ele>
        <time>2020-07-31T07:29:03.000Z</time>
      </trkpt>
      <trkpt lat="46.37745" lon="5.40621">
        <ele>377.79998779297</ele>
        <time>2020-07-31T07:29:04.000Z</time>
      </trkpt>
      <trkpt lat="46.37753" lon="5.40597">
        <ele>377.39999389648</ele>
        <time>2020-07-31T07:29:06.000Z</time>
      </trkpt>
      <trkpt lat="46.37761" lon="5.40573">
        <ele>377.39999389648</ele>
        <time>2020-07-31T07:29:08.000Z</time>
      </trkpt>
      <trkpt lat="46.37769" lon="5.4055">
        <ele>377.39999389648</ele>
        <time>2020-07-31T07:29:10.000Z</time>
      </trkpt>
      <trkpt lat="46.37777" lon="5.40528">
        <ele>377.39999389648</ele>
        <time>2020-07-31T07:29:12.000Z</time>
      </trkpt>
      <trkpt lat="46.37785" lon="5.40508">
        <ele>377.39999389648</ele>
        <time>2020-07-31T07:29:14.000Z</time>
      </trkpt>
      <trkpt lat="46.37792" lon="5.40488">
        <ele>377.39999389648</ele>
        <time>2020-07-31T07:29:16.000Z</time>
      </trkpt>
      <trkpt lat="46.37797" lon="5.40479">
        <ele>377.39999389648</ele>
        <time>2020-07-31T07:29:17.000Z</time>
      </trkpt>
      <trkpt lat="46.37802" lon="5.4047">
        <ele>377.79998779297</ele>
        <time>2020-07-31T07:29:18.000Z</time>
      </trkpt>
      <trkpt lat="46.37815" lon="5.40456">
        <ele>378.20001220703</ele>
        <time>2020-07-31T07:29:20.000Z</time>
      </trkpt>
      <trkpt lat="46.37821" lon="5.40449">
        <ele>378.39999389648</ele>
        <time>2020-07-31T07:29:21.000Z</time>
      </trkpt>
      <trkpt lat="46.37829" lon="5.40443">
        <ele>378.39999389648</ele>
        <time>2020-07-31T07:29:22.000Z</time>
      </trkpt>
      <trkpt lat="46.37836" lon="5.40436">
        <ele>378.39999389648</ele>
        <time>2020-07-31T07:29:23.000Z</time>
      </trkpt>
      <trkpt lat="46.37852" lon="5.40424">
        <ele>378.39999389648</ele>
        <time>2020-07-31T07:29:25.000Z</time>
      </trkpt>
      <trkpt lat="46.3786" lon="5.40418">
        <ele>378.39999389648</ele>
        <time>2020-07-31T07:29:26.000Z</time>
      </trkpt>
      <trkpt lat="46.37868" lon="5.40411">
        <ele>378.39999389648</ele>
        <time>2020-07-31T07:29:27.000Z</time>
      </trkpt>
      <trkpt lat="46.37884" lon="5.40398">
        <ele>378.39999389648</ele>
        <time>2020-07-31T07:29:29.000Z</time>
      </trkpt>
      <trkpt lat="46.379" lon="5.40384">
        <ele>378.20001220703</ele>
        <time>2020-07-31T07:29:31.000Z</time>
      </trkpt>
      <trkpt lat="46.37916" lon="5.4037">
        <ele>378</ele>
        <time>2020-07-31T07:29:33.000Z</time>
      </trkpt>
      <trkpt lat="46.37925" lon="5.40363">
        <ele>377.79998779297</ele>
        <time>2020-07-31T07:29:34.000Z</time>
      </trkpt>
      <trkpt lat="46.37933" lon="5.40356">
        <ele>377.79998779297</ele>
        <time>2020-07-31T07:29:35.000Z</time>
      </trkpt>
      <trkpt lat="46.37956" lon="5.40331">
        <ele>376.79998779297</ele>
        <time>2020-07-31T07:29:38.000Z</time>
      </trkpt>
      <trkpt lat="46.37962" lon="5.40321">
        <ele>376.39999389648</ele>
        <time>2020-07-31T07:29:39.000Z</time>
      </trkpt>
      <trkpt lat="46.37968" lon="5.40311">
        <ele>376.20001220703</ele>
        <time>2020-07-31T07:29:40.000Z</time>
      </trkpt>
      <trkpt lat="46.3798" lon="5.4029">
        <ele>375.79998779297</ele>
        <time>2020-07-31T07:29:42.000Z</time>
      </trkpt>
      <trkpt lat="46.3799" lon="5.40269">
        <ele>375.60000610352</ele>
        <time>2020-07-31T07:29:44.000Z</time>
      </trkpt>
      <trkpt lat="46.38" lon="5.40248">
        <ele>375.39999389648</ele>
        <time>2020-07-31T07:29:46.000Z</time>
      </trkpt>
      <trkpt lat="46.38006" lon="5.40226">
        <ele>375.39999389648</ele>
        <time>2020-07-31T07:29:48.000Z</time>
      </trkpt>
      <trkpt lat="46.38011" lon="5.40203">
        <ele>375.20001220703</ele>
        <time>2020-07-31T07:29:50.000Z</time>
      </trkpt>
      <trkpt lat="46.38013" lon="5.40192">
        <ele>375.20001220703</ele>
        <time>2020-07-31T07:29:51.000Z</time>
      </trkpt>
      <trkpt lat="46.38016" lon="5.40181">
        <ele>375.20001220703</ele>
        <time>2020-07-31T07:29:52.000Z</time>
      </trkpt>
      <trkpt lat="46.3802" lon="5.40158">
        <ele>375.39999389648</ele>
        <time>2020-07-31T07:29:54.000Z</time>
      </trkpt>
      <trkpt lat="46.38025" lon="5.40136">
        <ele>375.39999389648</ele>
        <time>2020-07-31T07:29:56.000Z</time>
      </trkpt>
      <trkpt lat="46.38031" lon="5.40115">
        <ele>375.39999389648</ele>
        <time>2020-07-31T07:29:58.000Z</time>
      </trkpt>
      <trkpt lat="46.38034" lon="5.40104">
        <ele>375.39999389648</ele>
        <time>2020-07-31T07:29:59.000Z</time>
      </trkpt>
      <trkpt lat="46.38038" lon="5.40094">
        <ele>375.39999389648</ele>
        <time>2020-07-31T07:30:00.000Z</time>
      </trkpt>
      <trkpt lat="46.38043" lon="5.40072">
        <ele>375.60000610352</ele>
        <time>2020-07-31T07:30:02.000Z</time>
      </trkpt>
      <trkpt lat="46.38045" lon="5.40061">
        <ele>375.60000610352</ele>
        <time>2020-07-31T07:30:03.000Z</time>
      </trkpt>
      <trkpt lat="46.38045" lon="5.4005">
        <ele>375.79998779297</ele>
        <time>2020-07-31T07:30:04.000Z</time>
      </trkpt>
      <trkpt lat="46.38046" lon="5.4004">
        <ele>375.79998779297</ele>
        <time>2020-07-31T07:30:05.000Z</time>
      </trkpt>
      <trkpt lat="46.38047" lon="5.40017">
        <ele>376</ele>
        <time>2020-07-31T07:30:07.000Z</time>
      </trkpt>
      <trkpt lat="46.38047" lon="5.39995">
        <ele>376</ele>
        <time>2020-07-31T07:30:09.000Z</time>
      </trkpt>
      <trkpt lat="46.38047" lon="5.39972">
        <ele>376</ele>
        <time>2020-07-31T07:30:11.000Z</time>
      </trkpt>
      <trkpt lat="46.38047" lon="5.39961">
        <ele>376</ele>
        <time>2020-07-31T07:30:12.000Z</time>
      </trkpt>
      <trkpt lat="46.38048" lon="5.3995">
        <ele>376</ele>
        <time>2020-07-31T07:30:13.000Z</time>
      </trkpt>
      <trkpt lat="46.38055" lon="5.39931">
        <ele>376</ele>
        <time>2020-07-31T07:30:15.000Z</time>
      </trkpt>
      <trkpt lat="46.38061" lon="5.39926">
        <ele>376</ele>
        <time>2020-07-31T07:30:16.000Z</time>
      </trkpt>
      <trkpt lat="46.38075" lon="5.39918">
        <ele>376</ele>
        <time>2020-07-31T07:30:18.000Z</time>
      </trkpt>
      <trkpt lat="46.38098" lon="5.39903">
        <ele>376.20001220703</ele>
        <time>2020-07-31T07:30:21.000Z</time>
      </trkpt>
      <trkpt lat="46.38112" lon="5.3989">
        <ele>376.39999389648</ele>
        <time>2020-07-31T07:30:23.000Z</time>
      </trkpt>
      <trkpt lat="46.38125" lon="5.39876">
        <ele>376.60000610352</ele>
        <time>2020-07-31T07:30:25.000Z</time>
      </trkpt>
      <trkpt lat="46.38138" lon="5.39864">
        <ele>376.60000610352</ele>
        <time>2020-07-31T07:30:27.000Z</time>
      </trkpt>
      <trkpt lat="46.38146" lon="5.3986">
        <ele>376.79998779297</ele>
        <time>2020-07-31T07:30:28.000Z</time>
      </trkpt>
      <trkpt lat="46.38153" lon="5.39857">
        <ele>376.79998779297</ele>
        <time>2020-07-31T07:30:29.000Z</time>
      </trkpt>
      <trkpt lat="46.38161" lon="5.39857">
        <ele>377</ele>
        <time>2020-07-31T07:30:30.000Z</time>
      </trkpt>
      <trkpt lat="46.38168" lon="5.39857">
        <ele>377</ele>
        <time>2020-07-31T07:30:31.000Z</time>
      </trkpt>
      <trkpt lat="46.38183" lon="5.39862">
        <ele>377</ele>
        <time>2020-07-31T07:30:33.000Z</time>
      </trkpt>
      <trkpt lat="46.38196" lon="5.39866">
        <ele>377.20001220703</ele>
        <time>2020-07-31T07:30:35.000Z</time>
      </trkpt>
      <trkpt lat="46.38209" lon="5.3987">
        <ele>377.20001220703</ele>
        <time>2020-07-31T07:30:37.000Z</time>
      </trkpt>
      <trkpt lat="46.38215" lon="5.39872">
        <ele>377.39999389648</ele>
        <time>2020-07-31T07:30:38.000Z</time>
      </trkpt>
      <trkpt lat="46.38227" lon="5.39876">
        <ele>377.39999389648</ele>
        <time>2020-07-31T07:30:40.000Z</time>
      </trkpt>
      <trkpt lat="46.38239" lon="5.39879">
        <ele>377.60000610352</ele>
        <time>2020-07-31T07:30:42.000Z</time>
      </trkpt>
      <trkpt lat="46.38245" lon="5.39881">
        <ele>378</ele>
        <time>2020-07-31T07:30:43.000Z</time>
      </trkpt>
      <trkpt lat="46.38251" lon="5.39882">
        <ele>378.39999389648</ele>
        <time>2020-07-31T07:30:44.000Z</time>
      </trkpt>
      <trkpt lat="46.38257" lon="5.39883">
        <ele>378.60000610352</ele>
        <time>2020-07-31T07:30:45.000Z</time>
      </trkpt>
      <trkpt lat="46.38263" lon="5.39883">
        <ele>378.79998779297</ele>
        <time>2020-07-31T07:30:46.000Z</time>
      </trkpt>
      <trkpt lat="46.38269" lon="5.39883">
        <ele>379</ele>
        <time>2020-07-31T07:30:47.000Z</time>
      </trkpt>
      <trkpt lat="46.38275" lon="5.39882">
        <ele>379.20001220703</ele>
        <time>2020-07-31T07:30:48.000Z</time>
      </trkpt>
      <trkpt lat="46.38293" lon="5.39888">
        <ele>380</ele>
        <time>2020-07-31T07:30:51.000Z</time>
      </trkpt>
      <trkpt lat="46.38298" lon="5.39891">
        <ele>380</ele>
        <time>2020-07-31T07:30:52.000Z</time>
      </trkpt>
      <trkpt lat="46.38303" lon="5.39895">
        <ele>380.20001220703</ele>
        <time>2020-07-31T07:30:53.000Z</time>
      </trkpt>
      <trkpt lat="46.38311" lon="5.399">
        <ele>380.79998779297</ele>
        <time>2020-07-31T07:30:55.000Z</time>
      </trkpt>
      <trkpt lat="46.3832" lon="5.39897">
        <ele>380.79998779297</ele>
        <time>2020-07-31T07:30:57.000Z</time>
      </trkpt>
      <trkpt lat="46.38323" lon="5.39893">
        <ele>381</ele>
        <time>2020-07-31T07:30:58.000Z</time>
      </trkpt>
      <trkpt lat="46.38326" lon="5.39889">
        <ele>381</ele>
        <time>2020-07-31T07:30:59.000Z</time>
      </trkpt>
      <trkpt lat="46.38329" lon="5.39884">
        <ele>381</ele>
        <time>2020-07-31T07:31:00.000Z</time>
      </trkpt>
      <trkpt lat="46.38332" lon="5.3988">
        <ele>381.20001220703</ele>
        <time>2020-07-31T07:31:01.000Z</time>
      </trkpt>
      <trkpt lat="46.38335" lon="5.39876">
        <ele>381.39999389648</ele>
        <time>2020-07-31T07:31:02.000Z</time>
      </trkpt>
      <trkpt lat="46.38338" lon="5.39873">
        <ele>381.79998779297</ele>
        <time>2020-07-31T07:31:03.000Z</time>
      </trkpt>
      <trkpt lat="46.38342" lon="5.3987">
        <ele>382.39999389648</ele>
        <time>2020-07-31T07:31:04.000Z</time>
      </trkpt>
      <trkpt lat="46.38346" lon="5.39867">
        <ele>382.79998779297</ele>
        <time>2020-07-31T07:31:05.000Z</time>
      </trkpt>
      <trkpt lat="46.38357" lon="5.3986">
        <ele>384.20001220703</ele>
        <time>2020-07-31T07:31:08.000Z</time>
      </trkpt>
      <trkpt lat="46.38366" lon="5.39856">
        <ele>385</ele>
        <time>2020-07-31T07:31:10.000Z</time>
      </trkpt>
      <trkpt lat="46.3837" lon="5.39854">
        <ele>385.39999389648</ele>
        <time>2020-07-31T07:31:11.000Z</time>
      </trkpt>
      <trkpt lat="46.38379" lon="5.39849">
        <ele>386.20001220703</ele>
        <time>2020-07-31T07:31:13.000Z</time>
      </trkpt>
      <trkpt lat="46.38384" lon="5.39846">
        <ele>386.60000610352</ele>
        <time>2020-07-31T07:31:14.000Z</time>
      </trkpt>
      <trkpt lat="46.38388" lon="5.39844">
        <ele>387.20001220703</ele>
        <time>2020-07-31T07:31:15.000Z</time>
      </trkpt>
      <trkpt lat="46.38398" lon="5.39841">
        <ele>387.79998779297</ele>
        <time>2020-07-31T07:31:17.000Z</time>
      </trkpt>
      <trkpt lat="46.38402" lon="5.39839">
        <ele>388.20001220703</ele>
        <time>2020-07-31T07:31:18.000Z</time>
      </trkpt>
      <trkpt lat="46.38407" lon="5.39837">
        <ele>388.20001220703</ele>
        <time>2020-07-31T07:31:19.000Z</time>
      </trkpt>
      <trkpt lat="46.38417" lon="5.39833">
        <ele>388.60000610352</ele>
        <time>2020-07-31T07:31:21.000Z</time>
      </trkpt>
      <trkpt lat="46.38426" lon="5.3983">
        <ele>389</ele>
        <time>2020-07-31T07:31:23.000Z</time>
      </trkpt>
      <trkpt lat="46.38431" lon="5.39829">
        <ele>389.20001220703</ele>
        <time>2020-07-31T07:31:24.000Z</time>
      </trkpt>
      <trkpt lat="46.38436" lon="5.39828">
        <ele>389.20001220703</ele>
        <time>2020-07-31T07:31:25.000Z</time>
      </trkpt>
      <trkpt lat="46.38445" lon="5.39826">
        <ele>389.60000610352</ele>
        <time>2020-07-31T07:31:27.000Z</time>
      </trkpt>
      <trkpt lat="46.3845" lon="5.39826">
        <ele>389.79998779297</ele>
        <time>2020-07-31T07:31:28.000Z</time>
      </trkpt>
      <trkpt lat="46.38464" lon="5.39824">
        <ele>389.79998779297</ele>
        <time>2020-07-31T07:31:31.000Z</time>
      </trkpt>
      <trkpt lat="46.38474" lon="5.39823">
        <ele>390.20001220703</ele>
        <time>2020-07-31T07:31:33.000Z</time>
      </trkpt>
      <trkpt lat="46.38478" lon="5.39823">
        <ele>390.39999389648</ele>
        <time>2020-07-31T07:31:34.000Z</time>
      </trkpt>
      <trkpt lat="46.38483" lon="5.39823">
        <ele>390.39999389648</ele>
        <time>2020-07-31T07:31:35.000Z</time>
      </trkpt>
      <trkpt lat="46.38488" lon="5.39823">
        <ele>390.79998779297</ele>
        <time>2020-07-31T07:31:36.000Z</time>
      </trkpt>
      <trkpt lat="46.38493" lon="5.39824">
        <ele>390.79998779297</ele>
        <time>2020-07-31T07:31:37.000Z</time>
      </trkpt>
      <trkpt lat="46.38502" lon="5.39826">
        <ele>391</ele>
        <time>2020-07-31T07:31:39.000Z</time>
      </trkpt>
      <trkpt lat="46.38512" lon="5.39827">
        <ele>391.20001220703</ele>
        <time>2020-07-31T07:31:41.000Z</time>
      </trkpt>
      <trkpt lat="46.38517" lon="5.39828">
        <ele>391.20001220703</ele>
        <time>2020-07-31T07:31:42.000Z</time>
      </trkpt>
      <trkpt lat="46.38521" lon="5.39829">
        <ele>391.79998779297</ele>
        <time>2020-07-31T07:31:43.000Z</time>
      </trkpt>
      <trkpt lat="46.38526" lon="5.3983">
        <ele>392</ele>
        <time>2020-07-31T07:31:44.000Z</time>
      </trkpt>
      <trkpt lat="46.38531" lon="5.3983">
        <ele>392.20001220703</ele>
        <time>2020-07-31T07:31:45.000Z</time>
      </trkpt>
      <trkpt lat="46.38541" lon="5.39832">
        <ele>392.39999389648</ele>
        <time>2020-07-31T07:31:47.000Z</time>
      </trkpt>
      <trkpt lat="46.38546" lon="5.39832">
        <ele>392.60000610352</ele>
        <time>2020-07-31T07:31:48.000Z</time>
      </trkpt>
      <trkpt lat="46.38551" lon="5.39833">
        <ele>392.60000610352</ele>
        <time>2020-07-31T07:31:49.000Z</time>
      </trkpt>
      <trkpt lat="46.38561" lon="5.39834">
        <ele>393</ele>
        <time>2020-07-31T07:31:51.000Z</time>
      </trkpt>
      <trkpt lat="46.38571" lon="5.39835">
        <ele>393</ele>
        <time>2020-07-31T07:31:53.000Z</time>
      </trkpt>
      <trkpt lat="46.38582" lon="5.39837">
        <ele>393.20001220703</ele>
        <time>2020-07-31T07:31:55.000Z</time>
      </trkpt>
      <trkpt lat="46.38593" lon="5.39838">
        <ele>393.39999389648</ele>
        <time>2020-07-31T07:31:57.000Z</time>
      </trkpt>
      <trkpt lat="46.38599" lon="5.39838">
        <ele>393.60000610352</ele>
        <time>2020-07-31T07:31:58.000Z</time>
      </trkpt>
      <trkpt lat="46.38605" lon="5.39839">
        <ele>393.60000610352</ele>
        <time>2020-07-31T07:31:59.000Z</time>
      </trkpt>
      <trkpt lat="46.38612" lon="5.3984">
        <ele>393.79998779297</ele>
        <time>2020-07-31T07:32:00.000Z</time>
      </trkpt>
      <trkpt lat="46.38618" lon="5.3984">
        <ele>393.79998779297</ele>
        <time>2020-07-31T07:32:01.000Z</time>
      </trkpt>
      <trkpt lat="46.38631" lon="5.39841">
        <ele>393.79998779297</ele>
        <time>2020-07-31T07:32:03.000Z</time>
      </trkpt>
      <trkpt lat="46.38644" lon="5.39842">
        <ele>394</ele>
        <time>2020-07-31T07:32:05.000Z</time>
      </trkpt>
      <trkpt lat="46.38657" lon="5.39844">
        <ele>394</ele>
        <time>2020-07-31T07:32:07.000Z</time>
      </trkpt>
      <trkpt lat="46.38671" lon="5.39846">
        <ele>394</ele>
        <time>2020-07-31T07:32:09.000Z</time>
      </trkpt>
      <trkpt lat="46.38678" lon="5.39847">
        <ele>394</ele>
        <time>2020-07-31T07:32:10.000Z</time>
      </trkpt>
      <trkpt lat="46.38685" lon="5.39847">
        <ele>394</ele>
        <time>2020-07-31T07:32:11.000Z</time>
      </trkpt>
      <trkpt lat="46.38699" lon="5.39849">
        <ele>394</ele>
        <time>2020-07-31T07:32:13.000Z</time>
      </trkpt>
      <trkpt lat="46.38714" lon="5.3985">
        <ele>393.79998779297</ele>
        <time>2020-07-31T07:32:15.000Z</time>
      </trkpt>
      <trkpt lat="46.38729" lon="5.39851">
        <ele>393.79998779297</ele>
        <time>2020-07-31T07:32:17.000Z</time>
      </trkpt>
      <trkpt lat="46.38736" lon="5.39852">
        <ele>393.79998779297</ele>
        <time>2020-07-31T07:32:18.000Z</time>
      </trkpt>
      <trkpt lat="46.38744" lon="5.39853">
        <ele>393.60000610352</ele>
        <time>2020-07-31T07:32:19.000Z</time>
      </trkpt>
      <trkpt lat="46.3876" lon="5.39854">
        <ele>393.39999389648</ele>
        <time>2020-07-31T07:32:21.000Z</time>
      </trkpt>
      <trkpt lat="46.38775" lon="5.39855">
        <ele>393.20001220703</ele>
        <time>2020-07-31T07:32:23.000Z</time>
      </trkpt>
      <trkpt lat="46.38783" lon="5.39855">
        <ele>393.20001220703</ele>
        <time>2020-07-31T07:32:24.000Z</time>
      </trkpt>
      <trkpt lat="46.38791" lon="5.39856">
        <ele>393</ele>
        <time>2020-07-31T07:32:25.000Z</time>
      </trkpt>
      <trkpt lat="46.38808" lon="5.39857">
        <ele>392.39999389648</ele>
        <time>2020-07-31T07:32:27.000Z</time>
      </trkpt>
      <trkpt lat="46.38823" lon="5.39857">
        <ele>391.20001220703</ele>
        <time>2020-07-31T07:32:29.000Z</time>
      </trkpt>
      <trkpt lat="46.38839" lon="5.39858">
        <ele>390.60000610352</ele>
        <time>2020-07-31T07:32:31.000Z</time>
      </trkpt>
      <trkpt lat="46.38846" lon="5.39858">
        <ele>390.60000610352</ele>
        <time>2020-07-31T07:32:32.000Z</time>
      </trkpt>
      <trkpt lat="46.38853" lon="5.39858">
        <ele>390.60000610352</ele>
        <time>2020-07-31T07:32:33.000Z</time>
      </trkpt>
      <trkpt lat="46.38868" lon="5.39859">
        <ele>390.60000610352</ele>
        <time>2020-07-31T07:32:35.000Z</time>
      </trkpt>
      <trkpt lat="46.38882" lon="5.39859">
        <ele>390.39999389648</ele>
        <time>2020-07-31T07:32:37.000Z</time>
      </trkpt>
      <trkpt lat="46.38897" lon="5.3986">
        <ele>390.79998779297</ele>
        <time>2020-07-31T07:32:39.000Z</time>
      </trkpt>
      <trkpt lat="46.38905" lon="5.3986">
        <ele>391</ele>
        <time>2020-07-31T07:32:40.000Z</time>
      </trkpt>
      <trkpt lat="46.38912" lon="5.39861">
        <ele>391.20001220703</ele>
        <time>2020-07-31T07:32:41.000Z</time>
      </trkpt>
      <trkpt lat="46.38927" lon="5.3986">
        <ele>391.39999389648</ele>
        <time>2020-07-31T07:32:43.000Z</time>
      </trkpt>
      <trkpt lat="46.38942" lon="5.39861">
        <ele>391.39999389648</ele>
        <time>2020-07-31T07:32:45.000Z</time>
      </trkpt>
      <trkpt lat="46.38957" lon="5.39862">
        <ele>391.79998779297</ele>
        <time>2020-07-31T07:32:47.000Z</time>
      </trkpt>
      <trkpt lat="46.38964" lon="5.39863">
        <ele>391.79998779297</ele>
        <time>2020-07-31T07:32:48.000Z</time>
      </trkpt>
      <trkpt lat="46.38972" lon="5.39864">
        <ele>392</ele>
        <time>2020-07-31T07:32:49.000Z</time>
      </trkpt>
      <trkpt lat="46.38988" lon="5.39868">
        <ele>392</ele>
        <time>2020-07-31T07:32:51.000Z</time>
      </trkpt>
      <trkpt lat="46.39004" lon="5.39871">
        <ele>392</ele>
        <time>2020-07-31T07:32:53.000Z</time>
      </trkpt>
      <trkpt lat="46.39021" lon="5.39874">
        <ele>392</ele>
        <time>2020-07-31T07:32:55.000Z</time>
      </trkpt>
      <trkpt lat="46.39038" lon="5.39877">
        <ele>392</ele>
        <time>2020-07-31T07:32:57.000Z</time>
      </trkpt>
      <trkpt lat="46.39054" lon="5.3988">
        <ele>391.79998779297</ele>
        <time>2020-07-31T07:32:59.000Z</time>
      </trkpt>
      <trkpt lat="46.3907" lon="5.39882">
        <ele>390.79998779297</ele>
        <time>2020-07-31T07:33:01.000Z</time>
      </trkpt>
      <trkpt lat="46.39078" lon="5.39884">
        <ele>390.39999389648</ele>
        <time>2020-07-31T07:33:02.000Z</time>
      </trkpt>
      <trkpt lat="46.39086" lon="5.39885">
        <ele>390.20001220703</ele>
        <time>2020-07-31T07:33:03.000Z</time>
      </trkpt>
      <trkpt lat="46.39102" lon="5.39887">
        <ele>390</ele>
        <time>2020-07-31T07:33:05.000Z</time>
      </trkpt>
      <trkpt lat="46.39118" lon="5.3989">
        <ele>390</ele>
        <time>2020-07-31T07:33:07.000Z</time>
      </trkpt>
      <trkpt lat="46.39133" lon="5.39893">
        <ele>390</ele>
        <time>2020-07-31T07:33:09.000Z</time>
      </trkpt>
      <trkpt lat="46.39148" lon="5.39895">
        <ele>390</ele>
        <time>2020-07-31T07:33:11.000Z</time>
      </trkpt>
      <trkpt lat="46.39163" lon="5.39898">
        <ele>390.20001220703</ele>
        <time>2020-07-31T07:33:13.000Z</time>
      </trkpt>
      <trkpt lat="46.39178" lon="5.399">
        <ele>390.39999389648</ele>
        <time>2020-07-31T07:33:15.000Z</time>
      </trkpt>
      <trkpt lat="46.39193" lon="5.39902">
        <ele>391</ele>
        <time>2020-07-31T07:33:17.000Z</time>
      </trkpt>
      <trkpt lat="46.39208" lon="5.39904">
        <ele>391.20001220703</ele>
        <time>2020-07-31T07:33:19.000Z</time>
      </trkpt>
      <trkpt lat="46.39222" lon="5.39907">
        <ele>391.39999389648</ele>
        <time>2020-07-31T07:33:21.000Z</time>
      </trkpt>
      <trkpt lat="46.39236" lon="5.39909">
        <ele>391.60000610352</ele>
        <time>2020-07-31T07:33:23.000Z</time>
      </trkpt>
      <trkpt lat="46.3925" lon="5.39911">
        <ele>391.79998779297</ele>
        <time>2020-07-31T07:33:25.000Z</time>
      </trkpt>
      <trkpt lat="46.39257" lon="5.39913">
        <ele>392</ele>
        <time>2020-07-31T07:33:26.000Z</time>
      </trkpt>
      <trkpt lat="46.39265" lon="5.39914">
        <ele>392</ele>
        <time>2020-07-31T07:33:27.000Z</time>
      </trkpt>
      <trkpt lat="46.39279" lon="5.39917">
        <ele>392.20001220703</ele>
        <time>2020-07-31T07:33:29.000Z</time>
      </trkpt>
      <trkpt lat="46.39293" lon="5.39919">
        <ele>392.60000610352</ele>
        <time>2020-07-31T07:33:31.000Z</time>
      </trkpt>
      <trkpt lat="46.39308" lon="5.39921">
        <ele>392.79998779297</ele>
        <time>2020-07-31T07:33:33.000Z</time>
      </trkpt>
      <trkpt lat="46.39322" lon="5.39923">
        <ele>393</ele>
        <time>2020-07-31T07:33:35.000Z</time>
      </trkpt>
      <trkpt lat="46.39336" lon="5.39926">
        <ele>393.20001220703</ele>
        <time>2020-07-31T07:33:37.000Z</time>
      </trkpt>
      <trkpt lat="46.39351" lon="5.39928">
        <ele>393.39999389648</ele>
        <time>2020-07-31T07:33:39.000Z</time>
      </trkpt>
      <trkpt lat="46.39365" lon="5.39931">
        <ele>393.39999389648</ele>
        <time>2020-07-31T07:33:41.000Z</time>
      </trkpt>
      <trkpt lat="46.39379" lon="5.39933">
        <ele>393.39999389648</ele>
        <time>2020-07-31T07:33:43.000Z</time>
      </trkpt>
      <trkpt lat="46.39386" lon="5.39934">
        <ele>393.39999389648</ele>
        <time>2020-07-31T07:33:44.000Z</time>
      </trkpt>
      <trkpt lat="46.39394" lon="5.39935">
        <ele>393.60000610352</ele>
        <time>2020-07-31T07:33:45.000Z</time>
      </trkpt>
      <trkpt lat="46.39408" lon="5.39938">
        <ele>393.60000610352</ele>
        <time>2020-07-31T07:33:47.000Z</time>
      </trkpt>
      <trkpt lat="46.39423" lon="5.3994">
        <ele>393.79998779297</ele>
        <time>2020-07-31T07:33:49.000Z</time>
      </trkpt>
      <trkpt lat="46.39437" lon="5.39942">
        <ele>393.79998779297</ele>
        <time>2020-07-31T07:33:51.000Z</time>
      </trkpt>
      <trkpt lat="46.39451" lon="5.39945">
        <ele>393.79998779297</ele>
        <time>2020-07-31T07:33:53.000Z</time>
      </trkpt>
      <trkpt lat="46.39465" lon="5.39947">
        <ele>394</ele>
        <time>2020-07-31T07:33:55.000Z</time>
      </trkpt>
      <trkpt lat="46.39478" lon="5.39949">
        <ele>394</ele>
        <time>2020-07-31T07:33:57.000Z</time>
      </trkpt>
      <trkpt lat="46.39492" lon="5.3995">
        <ele>394</ele>
        <time>2020-07-31T07:33:59.000Z</time>
      </trkpt>
      <trkpt lat="46.39512" lon="5.39952">
        <ele>394.20001220703</ele>
        <time>2020-07-31T07:34:02.000Z</time>
      </trkpt>
      <trkpt lat="46.39525" lon="5.39953">
        <ele>394.60000610352</ele>
        <time>2020-07-31T07:34:04.000Z</time>
      </trkpt>
      <trkpt lat="46.39532" lon="5.39953">
        <ele>394.79998779297</ele>
        <time>2020-07-31T07:34:05.000Z</time>
      </trkpt>
      <trkpt lat="46.39539" lon="5.39953">
        <ele>394.79998779297</ele>
        <time>2020-07-31T07:34:06.000Z</time>
      </trkpt>
      <trkpt lat="46.39553" lon="5.39953">
        <ele>395.20001220703</ele>
        <time>2020-07-31T07:34:08.000Z</time>
      </trkpt>
      <trkpt lat="46.3956" lon="5.39953">
        <ele>395.39999389648</ele>
        <time>2020-07-31T07:34:09.000Z</time>
      </trkpt>
      <trkpt lat="46.39567" lon="5.39953">
        <ele>395.39999389648</ele>
        <time>2020-07-31T07:34:10.000Z</time>
      </trkpt>
      <trkpt lat="46.39582" lon="5.39953">
        <ele>395.39999389648</ele>
        <time>2020-07-31T07:34:12.000Z</time>
      </trkpt>
      <trkpt lat="46.39596" lon="5.39953">
        <ele>395.60000610352</ele>
        <time>2020-07-31T07:34:14.000Z</time>
      </trkpt>
      <trkpt lat="46.39611" lon="5.39952">
        <ele>395.60000610352</ele>
        <time>2020-07-31T07:34:16.000Z</time>
      </trkpt>
      <trkpt lat="46.39626" lon="5.39951">
        <ele>395.60000610352</ele>
        <time>2020-07-31T07:34:18.000Z</time>
      </trkpt>
      <trkpt lat="46.39633" lon="5.39949">
        <ele>395.60000610352</ele>
        <time>2020-07-31T07:34:19.000Z</time>
      </trkpt>
      <trkpt lat="46.3964" lon="5.39948">
        <ele>395.60000610352</ele>
        <time>2020-07-31T07:34:20.000Z</time>
      </trkpt>
      <trkpt lat="46.39655" lon="5.39946">
        <ele>395.60000610352</ele>
        <time>2020-07-31T07:34:22.000Z</time>
      </trkpt>
      <trkpt lat="46.39669" lon="5.39944">
        <ele>395.60000610352</ele>
        <time>2020-07-31T07:34:24.000Z</time>
      </trkpt>
      <trkpt lat="46.39683" lon="5.39941">
        <ele>395.60000610352</ele>
        <time>2020-07-31T07:34:26.000Z</time>
      </trkpt>
      <trkpt lat="46.39697" lon="5.39939">
        <ele>395.60000610352</ele>
        <time>2020-07-31T07:34:28.000Z</time>
      </trkpt>
      <trkpt lat="46.39712" lon="5.39937">
        <ele>395.60000610352</ele>
        <time>2020-07-31T07:34:30.000Z</time>
      </trkpt>
      <trkpt lat="46.39719" lon="5.39935">
        <ele>395.60000610352</ele>
        <time>2020-07-31T07:34:31.000Z</time>
      </trkpt>
      <trkpt lat="46.39726" lon="5.39934">
        <ele>395.60000610352</ele>
        <time>2020-07-31T07:34:32.000Z</time>
      </trkpt>
      <trkpt lat="46.3974" lon="5.39932">
        <ele>395.60000610352</ele>
        <time>2020-07-31T07:34:34.000Z</time>
      </trkpt>
      <trkpt lat="46.39755" lon="5.3993">
        <ele>395.60000610352</ele>
        <time>2020-07-31T07:34:36.000Z</time>
      </trkpt>
      <trkpt lat="46.39768" lon="5.39928">
        <ele>395.60000610352</ele>
        <time>2020-07-31T07:34:38.000Z</time>
      </trkpt>
      <trkpt lat="46.39782" lon="5.39925">
        <ele>395.79998779297</ele>
        <time>2020-07-31T07:34:40.000Z</time>
      </trkpt>
      <trkpt lat="46.39789" lon="5.39924">
        <ele>395.79998779297</ele>
        <time>2020-07-31T07:34:41.000Z</time>
      </trkpt>
      <trkpt lat="46.39795" lon="5.39923">
        <ele>395.79998779297</ele>
        <time>2020-07-31T07:34:42.000Z</time>
      </trkpt>
      <trkpt lat="46.39802" lon="5.39921">
        <ele>396</ele>
        <time>2020-07-31T07:34:43.000Z</time>
      </trkpt>
      <trkpt lat="46.39809" lon="5.3992">
        <ele>396</ele>
        <time>2020-07-31T07:34:44.000Z</time>
      </trkpt>
      <trkpt lat="46.39822" lon="5.39917">
        <ele>396.79998779297</ele>
        <time>2020-07-31T07:34:46.000Z</time>
      </trkpt>
      <trkpt lat="46.39829" lon="5.39916">
        <ele>396.79998779297</ele>
        <time>2020-07-31T07:34:47.000Z</time>
      </trkpt>
      <trkpt lat="46.39835" lon="5.39915">
        <ele>397</ele>
        <time>2020-07-31T07:34:48.000Z</time>
      </trkpt>
      <trkpt lat="46.39848" lon="5.39913">
        <ele>397.20001220703</ele>
        <time>2020-07-31T07:34:50.000Z</time>
      </trkpt>
      <trkpt lat="46.39862" lon="5.39911">
        <ele>397.39999389648</ele>
        <time>2020-07-31T07:34:52.000Z</time>
      </trkpt>
      <trkpt lat="46.39869" lon="5.3991">
        <ele>397.39999389648</ele>
        <time>2020-07-31T07:34:53.000Z</time>
      </trkpt>
      <trkpt lat="46.39876" lon="5.39909">
        <ele>397.60000610352</ele>
        <time>2020-07-31T07:34:54.000Z</time>
      </trkpt>
      <trkpt lat="46.3989" lon="5.39908">
        <ele>397.60000610352</ele>
        <time>2020-07-31T07:34:56.000Z</time>
      </trkpt>
      <trkpt lat="46.39905" lon="5.39907">
        <ele>397.60000610352</ele>
        <time>2020-07-31T07:34:58.000Z</time>
      </trkpt>
      <trkpt lat="46.3992" lon="5.39908">
        <ele>397.60000610352</ele>
        <time>2020-07-31T07:35:00.000Z</time>
      </trkpt>
      <trkpt lat="46.39928" lon="5.39908">
        <ele>397.60000610352</ele>
        <time>2020-07-31T07:35:01.000Z</time>
      </trkpt>
      <trkpt lat="46.39936" lon="5.39909">
        <ele>397.60000610352</ele>
        <time>2020-07-31T07:35:02.000Z</time>
      </trkpt>
      <trkpt lat="46.39951" lon="5.39909">
        <ele>397.39999389648</ele>
        <time>2020-07-31T07:35:04.000Z</time>
      </trkpt>
      <trkpt lat="46.39967" lon="5.3991">
        <ele>397.39999389648</ele>
        <time>2020-07-31T07:35:06.000Z</time>
      </trkpt>
      <trkpt lat="46.39982" lon="5.39911">
        <ele>397</ele>
        <time>2020-07-31T07:35:08.000Z</time>
      </trkpt>
      <trkpt lat="46.39998" lon="5.39912">
        <ele>396.79998779297</ele>
        <time>2020-07-31T07:35:10.000Z</time>
      </trkpt>
      <trkpt lat="46.40013" lon="5.39913">
        <ele>396.79998779297</ele>
        <time>2020-07-31T07:35:12.000Z</time>
      </trkpt>
      <trkpt lat="46.40027" lon="5.39914">
        <ele>396.79998779297</ele>
        <time>2020-07-31T07:35:14.000Z</time>
      </trkpt>
      <trkpt lat="46.40042" lon="5.39913">
        <ele>396.79998779297</ele>
        <time>2020-07-31T07:35:16.000Z</time>
      </trkpt>
      <trkpt lat="46.40056" lon="5.3991">
        <ele>396.79998779297</ele>
        <time>2020-07-31T07:35:18.000Z</time>
      </trkpt>
      <trkpt lat="46.40063" lon="5.39908">
        <ele>397</ele>
        <time>2020-07-31T07:35:19.000Z</time>
      </trkpt>
      <trkpt lat="46.4007" lon="5.39905">
        <ele>397</ele>
        <time>2020-07-31T07:35:20.000Z</time>
      </trkpt>
      <trkpt lat="46.40083" lon="5.39899">
        <ele>397.20001220703</ele>
        <time>2020-07-31T07:35:22.000Z</time>
      </trkpt>
      <trkpt lat="46.40095" lon="5.39891">
        <ele>397.39999389648</ele>
        <time>2020-07-31T07:35:24.000Z</time>
      </trkpt>
      <trkpt lat="46.40101" lon="5.39886">
        <ele>397.39999389648</ele>
        <time>2020-07-31T07:35:25.000Z</time>
      </trkpt>
      <trkpt lat="46.40107" lon="5.39882">
        <ele>397.39999389648</ele>
        <time>2020-07-31T07:35:26.000Z</time>
      </trkpt>
      <trkpt lat="46.40119" lon="5.39872">
        <ele>397.79998779297</ele>
        <time>2020-07-31T07:35:28.000Z</time>
      </trkpt>
      <trkpt lat="46.40131" lon="5.39863">
        <ele>398.60000610352</ele>
        <time>2020-07-31T07:35:30.000Z</time>
      </trkpt>
      <trkpt lat="46.40137" lon="5.39859">
        <ele>399</ele>
        <time>2020-07-31T07:35:31.000Z</time>
      </trkpt>
      <trkpt lat="46.40143" lon="5.39854">
        <ele>399.20001220703</ele>
        <time>2020-07-31T07:35:32.000Z</time>
      </trkpt>
      <trkpt lat="46.40149" lon="5.3985">
        <ele>399.39999389648</ele>
        <time>2020-07-31T07:35:33.000Z</time>
      </trkpt>
      <trkpt lat="46.40156" lon="5.39845">
        <ele>399.60000610352</ele>
        <time>2020-07-31T07:35:34.000Z</time>
      </trkpt>
      <trkpt lat="46.40169" lon="5.39837">
        <ele>400</ele>
        <time>2020-07-31T07:35:36.000Z</time>
      </trkpt>
      <trkpt lat="46.40182" lon="5.3983">
        <ele>400.20001220703</ele>
        <time>2020-07-31T07:35:38.000Z</time>
      </trkpt>
      <trkpt lat="46.40197" lon="5.39826">
        <ele>400.39999389648</ele>
        <time>2020-07-31T07:35:40.000Z</time>
      </trkpt>
      <trkpt lat="46.40212" lon="5.39822">
        <ele>400.39999389648</ele>
        <time>2020-07-31T07:35:42.000Z</time>
      </trkpt>
      <trkpt lat="46.40228" lon="5.3982">
        <ele>400.39999389648</ele>
        <time>2020-07-31T07:35:44.000Z</time>
      </trkpt>
      <trkpt lat="46.40235" lon="5.39821">
        <ele>400.39999389648</ele>
        <time>2020-07-31T07:35:45.000Z</time>
      </trkpt>
      <trkpt lat="46.40243" lon="5.39822">
        <ele>400.39999389648</ele>
        <time>2020-07-31T07:35:46.000Z</time>
      </trkpt>
      <trkpt lat="46.40259" lon="5.39824">
        <ele>400.20001220703</ele>
        <time>2020-07-31T07:35:48.000Z</time>
      </trkpt>
      <trkpt lat="46.40274" lon="5.39827">
        <ele>399.60000610352</ele>
        <time>2020-07-31T07:35:50.000Z</time>
      </trkpt>
      <trkpt lat="46.40282" lon="5.3983">
        <ele>399.20001220703</ele>
        <time>2020-07-31T07:35:51.000Z</time>
      </trkpt>
      <trkpt lat="46.40289" lon="5.39834">
        <ele>399</ele>
        <time>2020-07-31T07:35:52.000Z</time>
      </trkpt>
      <trkpt lat="46.40303" lon="5.39842">
        <ele>398.79998779297</ele>
        <time>2020-07-31T07:35:54.000Z</time>
      </trkpt>
      <trkpt lat="46.40316" lon="5.39851">
        <ele>398.79998779297</ele>
        <time>2020-07-31T07:35:56.000Z</time>
      </trkpt>
      <trkpt lat="46.40329" lon="5.39859">
        <ele>398.79998779297</ele>
        <time>2020-07-31T07:35:58.000Z</time>
      </trkpt>
      <trkpt lat="46.40335" lon="5.39862">
        <ele>398.79998779297</ele>
        <time>2020-07-31T07:35:59.000Z</time>
      </trkpt>
      <trkpt lat="46.40341" lon="5.39865">
        <ele>398.79998779297</ele>
        <time>2020-07-31T07:36:00.000Z</time>
      </trkpt>
      <trkpt lat="46.40353" lon="5.39869">
        <ele>399.20001220703</ele>
        <time>2020-07-31T07:36:02.000Z</time>
      </trkpt>
      <trkpt lat="46.40366" lon="5.39873">
        <ele>399.39999389648</ele>
        <time>2020-07-31T07:36:04.000Z</time>
      </trkpt>
      <trkpt lat="46.40371" lon="5.39875">
        <ele>399.60000610352</ele>
        <time>2020-07-31T07:36:05.000Z</time>
      </trkpt>
      <trkpt lat="46.40377" lon="5.39877">
        <ele>399.79998779297</ele>
        <time>2020-07-31T07:36:06.000Z</time>
      </trkpt>
      <trkpt lat="46.40383" lon="5.39879">
        <ele>400.20001220703</ele>
        <time>2020-07-31T07:36:07.000Z</time>
      </trkpt>
      <trkpt lat="46.40389" lon="5.39881">
        <ele>400.39999389648</ele>
        <time>2020-07-31T07:36:08.000Z</time>
      </trkpt>
      <trkpt lat="46.40402" lon="5.39885">
        <ele>401</ele>
        <time>2020-07-31T07:36:10.000Z</time>
      </trkpt>
      <trkpt lat="46.40408" lon="5.39887">
        <ele>401.20001220703</ele>
        <time>2020-07-31T07:36:11.000Z</time>
      </trkpt>
      <trkpt lat="46.40414" lon="5.39889">
        <ele>401.60000610352</ele>
        <time>2020-07-31T07:36:12.000Z</time>
      </trkpt>
      <trkpt lat="46.40426" lon="5.39894">
        <ele>402</ele>
        <time>2020-07-31T07:36:14.000Z</time>
      </trkpt>
      <trkpt lat="46.40439" lon="5.39898">
        <ele>402.20001220703</ele>
        <time>2020-07-31T07:36:16.000Z</time>
      </trkpt>
      <trkpt lat="46.40445" lon="5.399">
        <ele>402.20001220703</ele>
        <time>2020-07-31T07:36:17.000Z</time>
      </trkpt>
      <trkpt lat="46.40451" lon="5.39903">
        <ele>402.39999389648</ele>
        <time>2020-07-31T07:36:18.000Z</time>
      </trkpt>
      <trkpt lat="46.40463" lon="5.39908">
        <ele>402.39999389648</ele>
        <time>2020-07-31T07:36:20.000Z</time>
      </trkpt>
      <trkpt lat="46.40469" lon="5.3991">
        <ele>402.39999389648</ele>
        <time>2020-07-31T07:36:21.000Z</time>
      </trkpt>
      <trkpt lat="46.40475" lon="5.39912">
        <ele>402.60000610352</ele>
        <time>2020-07-31T07:36:22.000Z</time>
      </trkpt>
      <trkpt lat="46.40487" lon="5.39917">
        <ele>402.79998779297</ele>
        <time>2020-07-31T07:36:24.000Z</time>
      </trkpt>
      <trkpt lat="46.40498" lon="5.39924">
        <ele>403</ele>
        <time>2020-07-31T07:36:26.000Z</time>
      </trkpt>
      <trkpt lat="46.4051" lon="5.39931">
        <ele>403</ele>
        <time>2020-07-31T07:36:28.000Z</time>
      </trkpt>
      <trkpt lat="46.40515" lon="5.39935">
        <ele>403.20001220703</ele>
        <time>2020-07-31T07:36:29.000Z</time>
      </trkpt>
      <trkpt lat="46.4052" lon="5.39939">
        <ele>403.20001220703</ele>
        <time>2020-07-31T07:36:30.000Z</time>
      </trkpt>
      <trkpt lat="46.40531" lon="5.39948">
        <ele>403.20001220703</ele>
        <time>2020-07-31T07:36:32.000Z</time>
      </trkpt>
      <trkpt lat="46.40541" lon="5.39957">
        <ele>403.20001220703</ele>
        <time>2020-07-31T07:36:34.000Z</time>
      </trkpt>
      <trkpt lat="46.40546" lon="5.39962">
        <ele>403.39999389648</ele>
        <time>2020-07-31T07:36:35.000Z</time>
      </trkpt>
      <trkpt lat="46.40551" lon="5.39967">
        <ele>403.39999389648</ele>
        <time>2020-07-31T07:36:36.000Z</time>
      </trkpt>
      <trkpt lat="46.40562" lon="5.39977">
        <ele>403.39999389648</ele>
        <time>2020-07-31T07:36:38.000Z</time>
      </trkpt>
      <trkpt lat="46.40572" lon="5.39986">
        <ele>403.79998779297</ele>
        <time>2020-07-31T07:36:40.000Z</time>
      </trkpt>
      <trkpt lat="46.40584" lon="5.39993">
        <ele>404</ele>
        <time>2020-07-31T07:36:42.000Z</time>
      </trkpt>
      <trkpt lat="46.4059" lon="5.39996">
        <ele>404</ele>
        <time>2020-07-31T07:36:43.000Z</time>
      </trkpt>
      <trkpt lat="46.40597" lon="5.39997">
        <ele>404</ele>
        <time>2020-07-31T07:36:44.000Z</time>
      </trkpt>
      <trkpt lat="46.4061" lon="5.4">
        <ele>404.20001220703</ele>
        <time>2020-07-31T07:36:46.000Z</time>
      </trkpt>
      <trkpt lat="46.40617" lon="5.40002">
        <ele>404.20001220703</ele>
        <time>2020-07-31T07:36:47.000Z</time>
      </trkpt>
      <trkpt lat="46.40624" lon="5.40003">
        <ele>404.20001220703</ele>
        <time>2020-07-31T07:36:48.000Z</time>
      </trkpt>
      <trkpt lat="46.40637" lon="5.40008">
        <ele>404.39999389648</ele>
        <time>2020-07-31T07:36:50.000Z</time>
      </trkpt>
      <trkpt lat="46.40643" lon="5.40011">
        <ele>404.39999389648</ele>
        <time>2020-07-31T07:36:51.000Z</time>
      </trkpt>
      <trkpt lat="46.40649" lon="5.40015">
        <ele>404.39999389648</ele>
        <time>2020-07-31T07:36:52.000Z</time>
      </trkpt>
      <trkpt lat="46.40662" lon="5.40023">
        <ele>404.39999389648</ele>
        <time>2020-07-31T07:36:54.000Z</time>
      </trkpt>
      <trkpt lat="46.40674" lon="5.40031">
        <ele>404.60000610352</ele>
        <time>2020-07-31T07:36:56.000Z</time>
      </trkpt>
      <trkpt lat="46.40686" lon="5.4004">
        <ele>404.60000610352</ele>
        <time>2020-07-31T07:36:58.000Z</time>
      </trkpt>
      <trkpt lat="46.40698" lon="5.40048">
        <ele>404.79998779297</ele>
        <time>2020-07-31T07:37:00.000Z</time>
      </trkpt>
      <trkpt lat="46.40711" lon="5.40057">
        <ele>404.79998779297</ele>
        <time>2020-07-31T07:37:02.000Z</time>
      </trkpt>
      <trkpt lat="46.40723" lon="5.40064">
        <ele>404.79998779297</ele>
        <time>2020-07-31T07:37:04.000Z</time>
      </trkpt>
      <trkpt lat="46.40735" lon="5.40071">
        <ele>405</ele>
        <time>2020-07-31T07:37:06.000Z</time>
      </trkpt>
      <trkpt lat="46.40741" lon="5.40075">
        <ele>405</ele>
        <time>2020-07-31T07:37:07.000Z</time>
      </trkpt>
      <trkpt lat="46.40747" lon="5.40079">
        <ele>405</ele>
        <time>2020-07-31T07:37:08.000Z</time>
      </trkpt>
      <trkpt lat="46.40758" lon="5.40088">
        <ele>405.20001220703</ele>
        <time>2020-07-31T07:37:10.000Z</time>
      </trkpt>
      <trkpt lat="46.40764" lon="5.40092">
        <ele>405.20001220703</ele>
        <time>2020-07-31T07:37:11.000Z</time>
      </trkpt>
      <trkpt lat="46.4077" lon="5.40096">
        <ele>405.20001220703</ele>
        <time>2020-07-31T07:37:12.000Z</time>
      </trkpt>
      <trkpt lat="46.40775" lon="5.401">
        <ele>405.39999389648</ele>
        <time>2020-07-31T07:37:13.000Z</time>
      </trkpt>
      <trkpt lat="46.40781" lon="5.40105">
        <ele>405.39999389648</ele>
        <time>2020-07-31T07:37:14.000Z</time>
      </trkpt>
      <trkpt lat="46.40797" lon="5.40117">
        <ele>405.79998779297</ele>
        <time>2020-07-31T07:37:17.000Z</time>
      </trkpt>
      <trkpt lat="46.40809" lon="5.40126">
        <ele>406</ele>
        <time>2020-07-31T07:37:19.000Z</time>
      </trkpt>
      <trkpt lat="46.4082" lon="5.40133">
        <ele>406.20001220703</ele>
        <time>2020-07-31T07:37:21.000Z</time>
      </trkpt>
      <trkpt lat="46.40825" lon="5.40135">
        <ele>406.20001220703</ele>
        <time>2020-07-31T07:37:22.000Z</time>
      </trkpt>
      <trkpt lat="46.40831" lon="5.40137">
        <ele>406.20001220703</ele>
        <time>2020-07-31T07:37:23.000Z</time>
      </trkpt>
      <trkpt lat="46.40843" lon="5.4014">
        <ele>406.39999389648</ele>
        <time>2020-07-31T07:37:25.000Z</time>
      </trkpt>
      <trkpt lat="46.4085" lon="5.40141">
        <ele>406.39999389648</ele>
        <time>2020-07-31T07:37:26.000Z</time>
      </trkpt>
      <trkpt lat="46.40856" lon="5.40142">
        <ele>406.39999389648</ele>
        <time>2020-07-31T07:37:27.000Z</time>
      </trkpt>
      <trkpt lat="46.4087" lon="5.40144">
        <ele>406.60000610352</ele>
        <time>2020-07-31T07:37:29.000Z</time>
      </trkpt>
      <trkpt lat="46.40882" lon="5.40146">
        <ele>406.79998779297</ele>
        <time>2020-07-31T07:37:31.000Z</time>
      </trkpt>
      <trkpt lat="46.40887" lon="5.40147">
        <ele>406.79998779297</ele>
        <time>2020-07-31T07:37:32.000Z</time>
      </trkpt>
      <trkpt lat="46.40893" lon="5.40148">
        <ele>407</ele>
        <time>2020-07-31T07:37:33.000Z</time>
      </trkpt>
      <trkpt lat="46.40903" lon="5.4015">
        <ele>407.39999389648</ele>
        <time>2020-07-31T07:37:35.000Z</time>
      </trkpt>
      <trkpt lat="46.40915" lon="5.40153">
        <ele>407.79998779297</ele>
        <time>2020-07-31T07:37:37.000Z</time>
      </trkpt>
      <trkpt lat="46.40925" lon="5.40156">
        <ele>408.60000610352</ele>
        <time>2020-07-31T07:37:39.000Z</time>
      </trkpt>
      <trkpt lat="46.40937" lon="5.4016">
        <ele>409.20001220703</ele>
        <time>2020-07-31T07:37:41.000Z</time>
      </trkpt>
      <trkpt lat="46.40948" lon="5.40163">
        <ele>409.60000610352</ele>
        <time>2020-07-31T07:37:43.000Z</time>
      </trkpt>
      <trkpt lat="46.40959" lon="5.40166">
        <ele>409.79998779297</ele>
        <time>2020-07-31T07:37:45.000Z</time>
      </trkpt>
      <trkpt lat="46.40972" lon="5.40168">
        <ele>410.20001220703</ele>
        <time>2020-07-31T07:37:47.000Z</time>
      </trkpt>
      <trkpt lat="46.40985" lon="5.40171">
        <ele>410.39999389648</ele>
        <time>2020-07-31T07:37:49.000Z</time>
      </trkpt>
      <trkpt lat="46.40992" lon="5.40172">
        <ele>410.60000610352</ele>
        <time>2020-07-31T07:37:50.000Z</time>
      </trkpt>
      <trkpt lat="46.40999" lon="5.40173">
        <ele>410.79998779297</ele>
        <time>2020-07-31T07:37:51.000Z</time>
      </trkpt>
      <trkpt lat="46.41012" lon="5.40176">
        <ele>410.79998779297</ele>
        <time>2020-07-31T07:37:53.000Z</time>
      </trkpt>
      <trkpt lat="46.41026" lon="5.40178">
        <ele>411</ele>
        <time>2020-07-31T07:37:55.000Z</time>
      </trkpt>
      <trkpt lat="46.4104" lon="5.40181">
        <ele>411</ele>
        <time>2020-07-31T07:37:57.000Z</time>
      </trkpt>
      <trkpt lat="46.41054" lon="5.40184">
        <ele>411</ele>
        <time>2020-07-31T07:37:59.000Z</time>
      </trkpt>
      <trkpt lat="46.41067" lon="5.40186">
        <ele>411.20001220703</ele>
        <time>2020-07-31T07:38:01.000Z</time>
      </trkpt>
      <trkpt lat="46.41081" lon="5.40188">
        <ele>411.20001220703</ele>
        <time>2020-07-31T07:38:03.000Z</time>
      </trkpt>
      <trkpt lat="46.41094" lon="5.40188">
        <ele>411.20001220703</ele>
        <time>2020-07-31T07:38:05.000Z</time>
      </trkpt>
      <trkpt lat="46.41107" lon="5.40186">
        <ele>411.20001220703</ele>
        <time>2020-07-31T07:38:07.000Z</time>
      </trkpt>
      <trkpt lat="46.4112" lon="5.40182">
        <ele>411.39999389648</ele>
        <time>2020-07-31T07:38:09.000Z</time>
      </trkpt>
      <trkpt lat="46.41133" lon="5.40176">
        <ele>411.60000610352</ele>
        <time>2020-07-31T07:38:11.000Z</time>
      </trkpt>
      <trkpt lat="46.4114" lon="5.40173">
        <ele>411.79998779297</ele>
        <time>2020-07-31T07:38:12.000Z</time>
      </trkpt>
      <trkpt lat="46.41146" lon="5.40169">
        <ele>412</ele>
        <time>2020-07-31T07:38:13.000Z</time>
      </trkpt>
      <trkpt lat="46.4116" lon="5.40162">
        <ele>412.20001220703</ele>
        <time>2020-07-31T07:38:15.000Z</time>
      </trkpt>
      <trkpt lat="46.41173" lon="5.40156">
        <ele>412.39999389648</ele>
        <time>2020-07-31T07:38:17.000Z</time>
      </trkpt>
      <trkpt lat="46.41186" lon="5.40148">
        <ele>412.60000610352</ele>
        <time>2020-07-31T07:38:19.000Z</time>
      </trkpt>
      <trkpt lat="46.41199" lon="5.40141">
        <ele>412.60000610352</ele>
        <time>2020-07-31T07:38:21.000Z</time>
      </trkpt>
      <trkpt lat="46.41213" lon="5.40134">
        <ele>412.79998779297</ele>
        <time>2020-07-31T07:38:23.000Z</time>
      </trkpt>
      <trkpt lat="46.41226" lon="5.40128">
        <ele>412.79998779297</ele>
        <time>2020-07-31T07:38:25.000Z</time>
      </trkpt>
      <trkpt lat="46.4124" lon="5.40123">
        <ele>412.79998779297</ele>
        <time>2020-07-31T07:38:27.000Z</time>
      </trkpt>
      <trkpt lat="46.41253" lon="5.4012">
        <ele>413</ele>
        <time>2020-07-31T07:38:29.000Z</time>
      </trkpt>
      <trkpt lat="46.4126" lon="5.40119">
        <ele>413</ele>
        <time>2020-07-31T07:38:30.000Z</time>
      </trkpt>
      <trkpt lat="46.41267" lon="5.40118">
        <ele>413</ele>
        <time>2020-07-31T07:38:31.000Z</time>
      </trkpt>
      <trkpt lat="46.4128" lon="5.40116">
        <ele>413</ele>
        <time>2020-07-31T07:38:33.000Z</time>
      </trkpt>
      <trkpt lat="46.41292" lon="5.40116">
        <ele>413</ele>
        <time>2020-07-31T07:38:35.000Z</time>
      </trkpt>
      <trkpt lat="46.41305" lon="5.40115">
        <ele>413.60000610352</ele>
        <time>2020-07-31T07:38:37.000Z</time>
      </trkpt>
      <trkpt lat="46.41312" lon="5.40114">
        <ele>413.79998779297</ele>
        <time>2020-07-31T07:38:38.000Z</time>
      </trkpt>
      <trkpt lat="46.41318" lon="5.40114">
        <ele>414</ele>
        <time>2020-07-31T07:38:39.000Z</time>
      </trkpt>
      <trkpt lat="46.41325" lon="5.40114">
        <ele>414.20001220703</ele>
        <time>2020-07-31T07:38:40.000Z</time>
      </trkpt>
      <trkpt lat="46.41331" lon="5.40114">
        <ele>414.39999389648</ele>
        <time>2020-07-31T07:38:41.000Z</time>
      </trkpt>
      <trkpt lat="46.41344" lon="5.40115">
        <ele>414.79998779297</ele>
        <time>2020-07-31T07:38:43.000Z</time>
      </trkpt>
      <trkpt lat="46.41356" lon="5.40115">
        <ele>415</ele>
        <time>2020-07-31T07:38:45.000Z</time>
      </trkpt>
      <trkpt lat="46.41369" lon="5.40115">
        <ele>415.20001220703</ele>
        <time>2020-07-31T07:38:47.000Z</time>
      </trkpt>
      <trkpt lat="46.41381" lon="5.40116">
        <ele>415.39999389648</ele>
        <time>2020-07-31T07:38:49.000Z</time>
      </trkpt>
      <trkpt lat="46.41388" lon="5.40116">
        <ele>415.60000610352</ele>
        <time>2020-07-31T07:38:50.000Z</time>
      </trkpt>
      <trkpt lat="46.41394" lon="5.40116">
        <ele>415.60000610352</ele>
        <time>2020-07-31T07:38:51.000Z</time>
      </trkpt>
      <trkpt lat="46.41406" lon="5.40116">
        <ele>416</ele>
        <time>2020-07-31T07:38:53.000Z</time>
      </trkpt>
      <trkpt lat="46.41418" lon="5.40115">
        <ele>416.60000610352</ele>
        <time>2020-07-31T07:38:55.000Z</time>
      </trkpt>
      <trkpt lat="46.4143" lon="5.40115">
        <ele>417</ele>
        <time>2020-07-31T07:38:57.000Z</time>
      </trkpt>
      <trkpt lat="46.41436" lon="5.40115">
        <ele>417.20001220703</ele>
        <time>2020-07-31T07:38:58.000Z</time>
      </trkpt>
      <trkpt lat="46.41442" lon="5.40114">
        <ele>417.20001220703</ele>
        <time>2020-07-31T07:38:59.000Z</time>
      </trkpt>
      <trkpt lat="46.41454" lon="5.40113">
        <ele>417.60000610352</ele>
        <time>2020-07-31T07:39:01.000Z</time>
      </trkpt>
      <trkpt lat="46.41465" lon="5.40112">
        <ele>418</ele>
        <time>2020-07-31T07:39:03.000Z</time>
      </trkpt>
      <trkpt lat="46.41471" lon="5.40112">
        <ele>418.60000610352</ele>
        <time>2020-07-31T07:39:04.000Z</time>
      </trkpt>
      <trkpt lat="46.41476" lon="5.40111">
        <ele>419</ele>
        <time>2020-07-31T07:39:05.000Z</time>
      </trkpt>
      <trkpt lat="46.41488" lon="5.40111">
        <ele>419.39999389648</ele>
        <time>2020-07-31T07:39:07.000Z</time>
      </trkpt>
      <trkpt lat="46.41493" lon="5.4011">
        <ele>419.39999389648</ele>
        <time>2020-07-31T07:39:08.000Z</time>
      </trkpt>
      <trkpt lat="46.41499" lon="5.4011">
        <ele>419.39999389648</ele>
        <time>2020-07-31T07:39:09.000Z</time>
      </trkpt>
      <trkpt lat="46.41509" lon="5.40109">
        <ele>419.79998779297</ele>
        <time>2020-07-31T07:39:11.000Z</time>
      </trkpt>
      <trkpt lat="46.4152" lon="5.40108">
        <ele>420.20001220703</ele>
        <time>2020-07-31T07:39:13.000Z</time>
      </trkpt>
      <trkpt lat="46.41531" lon="5.40107">
        <ele>420.39999389648</ele>
        <time>2020-07-31T07:39:15.000Z</time>
      </trkpt>
      <trkpt lat="46.41542" lon="5.40106">
        <ele>420.79998779297</ele>
        <time>2020-07-31T07:39:17.000Z</time>
      </trkpt>
      <trkpt lat="46.41547" lon="5.40105">
        <ele>421</ele>
        <time>2020-07-31T07:39:18.000Z</time>
      </trkpt>
      <trkpt lat="46.41552" lon="5.40104">
        <ele>421.20001220703</ele>
        <time>2020-07-31T07:39:19.000Z</time>
      </trkpt>
      <trkpt lat="46.41563" lon="5.40102">
        <ele>421.39999389648</ele>
        <time>2020-07-31T07:39:21.000Z</time>
      </trkpt>
      <trkpt lat="46.41573" lon="5.40101">
        <ele>421.39999389648</ele>
        <time>2020-07-31T07:39:23.000Z</time>
      </trkpt>
      <trkpt lat="46.41584" lon="5.40098">
        <ele>422</ele>
        <time>2020-07-31T07:39:25.000Z</time>
      </trkpt>
      <trkpt lat="46.41594" lon="5.40095">
        <ele>422.60000610352</ele>
        <time>2020-07-31T07:39:27.000Z</time>
      </trkpt>
      <trkpt lat="46.41603" lon="5.40092">
        <ele>423</ele>
        <time>2020-07-31T07:39:29.000Z</time>
      </trkpt>
      <trkpt lat="46.41608" lon="5.4009">
        <ele>423.20001220703</ele>
        <time>2020-07-31T07:39:30.000Z</time>
      </trkpt>
      <trkpt lat="46.41613" lon="5.40087">
        <ele>423.39999389648</ele>
        <time>2020-07-31T07:39:31.000Z</time>
      </trkpt>
      <trkpt lat="46.41617" lon="5.40085">
        <ele>423.79998779297</ele>
        <time>2020-07-31T07:39:32.000Z</time>
      </trkpt>
      <trkpt lat="46.41622" lon="5.40083">
        <ele>424</ele>
        <time>2020-07-31T07:39:33.000Z</time>
      </trkpt>
      <trkpt lat="46.41626" lon="5.40081">
        <ele>424.39999389648</ele>
        <time>2020-07-31T07:39:34.000Z</time>
      </trkpt>
      <trkpt lat="46.41631" lon="5.40079">
        <ele>424.60000610352</ele>
        <time>2020-07-31T07:39:35.000Z</time>
      </trkpt>
      <trkpt lat="46.41639" lon="5.40074">
        <ele>425</ele>
        <time>2020-07-31T07:39:37.000Z</time>
      </trkpt>
      <trkpt lat="46.41648" lon="5.40068">
        <ele>425.39999389648</ele>
        <time>2020-07-31T07:39:39.000Z</time>
      </trkpt>
      <trkpt lat="46.41652" lon="5.40066">
        <ele>425.60000610352</ele>
        <time>2020-07-31T07:39:40.000Z</time>
      </trkpt>
      <trkpt lat="46.41656" lon="5.40063">
        <ele>425.79998779297</ele>
        <time>2020-07-31T07:39:41.000Z</time>
      </trkpt>
      <trkpt lat="46.4166" lon="5.4006">
        <ele>425.79998779297</ele>
        <time>2020-07-31T07:39:42.000Z</time>
      </trkpt>
      <trkpt lat="46.41663" lon="5.40057">
        <ele>426</ele>
        <time>2020-07-31T07:39:43.000Z</time>
      </trkpt>
      <trkpt lat="46.41671" lon="5.40051">
        <ele>426.20001220703</ele>
        <time>2020-07-31T07:39:45.000Z</time>
      </trkpt>
      <trkpt lat="46.41678" lon="5.40045">
        <ele>426.79998779297</ele>
        <time>2020-07-31T07:39:47.000Z</time>
      </trkpt>
      <trkpt lat="46.41686" lon="5.4004">
        <ele>427.79998779297</ele>
        <time>2020-07-31T07:39:49.000Z</time>
      </trkpt>
      <trkpt lat="46.4169" lon="5.40037">
        <ele>428</ele>
        <time>2020-07-31T07:39:50.000Z</time>
      </trkpt>
      <trkpt lat="46.41694" lon="5.40035">
        <ele>428.20001220703</ele>
        <time>2020-07-31T07:39:51.000Z</time>
      </trkpt>
      <trkpt lat="46.41697" lon="5.40032">
        <ele>428.20001220703</ele>
        <time>2020-07-31T07:39:52.000Z</time>
      </trkpt>
      <trkpt lat="46.41701" lon="5.4003">
        <ele>428.39999389648</ele>
        <time>2020-07-31T07:39:53.000Z</time>
      </trkpt>
      <trkpt lat="46.41709" lon="5.40027">
        <ele>428.79998779297</ele>
        <time>2020-07-31T07:39:55.000Z</time>
      </trkpt>
      <trkpt lat="46.41713" lon="5.40025">
        <ele>429</ele>
        <time>2020-07-31T07:39:56.000Z</time>
      </trkpt>
      <trkpt lat="46.41716" lon="5.40024">
        <ele>429.20001220703</ele>
        <time>2020-07-31T07:39:57.000Z</time>
      </trkpt>
      <trkpt lat="46.41724" lon="5.40022">
        <ele>429.60000610352</ele>
        <time>2020-07-31T07:39:59.000Z</time>
      </trkpt>
      <trkpt lat="46.41728" lon="5.40021">
        <ele>429.79998779297</ele>
        <time>2020-07-31T07:40:00.000Z</time>
      </trkpt>
      <trkpt lat="46.41732" lon="5.40021">
        <ele>430</ele>
        <time>2020-07-31T07:40:01.000Z</time>
      </trkpt>
      <trkpt lat="46.41739" lon="5.4002">
        <ele>430.79998779297</ele>
        <time>2020-07-31T07:40:03.000Z</time>
      </trkpt>
      <trkpt lat="46.41743" lon="5.4002">
        <ele>431</ele>
        <time>2020-07-31T07:40:04.000Z</time>
      </trkpt>
      <trkpt lat="46.41747" lon="5.4002">
        <ele>431.39999389648</ele>
        <time>2020-07-31T07:40:05.000Z</time>
      </trkpt>
      <trkpt lat="46.41755" lon="5.40021">
        <ele>431.60000610352</ele>
        <time>2020-07-31T07:40:07.000Z</time>
      </trkpt>
      <trkpt lat="46.41763" lon="5.40023">
        <ele>432</ele>
        <time>2020-07-31T07:40:09.000Z</time>
      </trkpt>
      <trkpt lat="46.41767" lon="5.40024">
        <ele>432.20001220703</ele>
        <time>2020-07-31T07:40:10.000Z</time>
      </trkpt>
      <trkpt lat="46.41771" lon="5.40026">
        <ele>432.39999389648</ele>
        <time>2020-07-31T07:40:11.000Z</time>
      </trkpt>
      <trkpt lat="46.41778" lon="5.40028">
        <ele>432.79998779297</ele>
        <time>2020-07-31T07:40:13.000Z</time>
      </trkpt>
      <trkpt lat="46.41786" lon="5.40031">
        <ele>433.39999389648</ele>
        <time>2020-07-31T07:40:15.000Z</time>
      </trkpt>
      <trkpt lat="46.41793" lon="5.40034">
        <ele>433.60000610352</ele>
        <time>2020-07-31T07:40:17.000Z</time>
      </trkpt>
      <trkpt lat="46.41801" lon="5.40036">
        <ele>434</ele>
        <time>2020-07-31T07:40:19.000Z</time>
      </trkpt>
      <trkpt lat="46.41809" lon="5.40039">
        <ele>434.60000610352</ele>
        <time>2020-07-31T07:40:21.000Z</time>
      </trkpt>
      <trkpt lat="46.41817" lon="5.40042">
        <ele>435.20001220703</ele>
        <time>2020-07-31T07:40:23.000Z</time>
      </trkpt>
      <trkpt lat="46.41825" lon="5.40044">
        <ele>435.79998779297</ele>
        <time>2020-07-31T07:40:25.000Z</time>
      </trkpt>
      <trkpt lat="46.41829" lon="5.40045">
        <ele>436</ele>
        <time>2020-07-31T07:40:26.000Z</time>
      </trkpt>
      <trkpt lat="46.41833" lon="5.40047">
        <ele>436</ele>
        <time>2020-07-31T07:40:27.000Z</time>
      </trkpt>
      <trkpt lat="46.41837" lon="5.40048">
        <ele>436.20001220703</ele>
        <time>2020-07-31T07:40:28.000Z</time>
      </trkpt>
      <trkpt lat="46.41841" lon="5.40049">
        <ele>436.39999389648</ele>
        <time>2020-07-31T07:40:29.000Z</time>
      </trkpt>
      <trkpt lat="46.41848" lon="5.40051">
        <ele>436.39999389648</ele>
        <time>2020-07-31T07:40:31.000Z</time>
      </trkpt>
      <trkpt lat="46.41856" lon="5.40053">
        <ele>437</ele>
        <time>2020-07-31T07:40:33.000Z</time>
      </trkpt>
      <trkpt lat="46.41864" lon="5.40055">
        <ele>437.39999389648</ele>
        <time>2020-07-31T07:40:35.000Z</time>
      </trkpt>
      <trkpt lat="46.41868" lon="5.40056">
        <ele>437.60000610352</ele>
        <time>2020-07-31T07:40:36.000Z</time>
      </trkpt>
      <trkpt lat="46.41872" lon="5.40057">
        <ele>437.79998779297</ele>
        <time>2020-07-31T07:40:37.000Z</time>
      </trkpt>
      <trkpt lat="46.41876" lon="5.40058">
        <ele>438</ele>
        <time>2020-07-31T07:40:38.000Z</time>
      </trkpt>
      <trkpt lat="46.4188" lon="5.40059">
        <ele>438.20001220703</ele>
        <time>2020-07-31T07:40:39.000Z</time>
      </trkpt>
      <trkpt lat="46.41888" lon="5.4006">
        <ele>438.39999389648</ele>
        <time>2020-07-31T07:40:41.000Z</time>
      </trkpt>
      <trkpt lat="46.41897" lon="5.4006">
        <ele>439</ele>
        <time>2020-07-31T07:40:43.000Z</time>
      </trkpt>
      <trkpt lat="46.41901" lon="5.40061">
        <ele>439.20001220703</ele>
        <time>2020-07-31T07:40:44.000Z</time>
      </trkpt>
      <trkpt lat="46.41905" lon="5.40061">
        <ele>439.39999389648</ele>
        <time>2020-07-31T07:40:45.000Z</time>
      </trkpt>
      <trkpt lat="46.41913" lon="5.40062">
        <ele>439.79998779297</ele>
        <time>2020-07-31T07:40:47.000Z</time>
      </trkpt>
      <trkpt lat="46.41922" lon="5.40061">
        <ele>440.20001220703</ele>
        <time>2020-07-31T07:40:49.000Z</time>
      </trkpt>
      <trkpt lat="46.41935" lon="5.4006">
        <ele>440.60000610352</ele>
        <time>2020-07-31T07:40:52.000Z</time>
      </trkpt>
      <trkpt lat="46.41939" lon="5.40059">
        <ele>440.79998779297</ele>
        <time>2020-07-31T07:40:53.000Z</time>
      </trkpt>
      <trkpt lat="46.41943" lon="5.40058">
        <ele>440.79998779297</ele>
        <time>2020-07-31T07:40:54.000Z</time>
      </trkpt>
      <trkpt lat="46.41947" lon="5.40058">
        <ele>441</ele>
        <time>2020-07-31T07:40:55.000Z</time>
      </trkpt>
      <trkpt lat="46.41952" lon="5.40057">
        <ele>441.20001220703</ele>
        <time>2020-07-31T07:40:56.000Z</time>
      </trkpt>
      <trkpt lat="46.4196" lon="5.40057">
        <ele>441.60000610352</ele>
        <time>2020-07-31T07:40:58.000Z</time>
      </trkpt>
      <trkpt lat="46.41965" lon="5.40057">
        <ele>441.60000610352</ele>
        <time>2020-07-31T07:40:59.000Z</time>
      </trkpt>
      <trkpt lat="46.41973" lon="5.40057">
        <ele>442</ele>
        <time>2020-07-31T07:41:01.000Z</time>
      </trkpt>
      <trkpt lat="46.41977" lon="5.40057">
        <ele>442.20001220703</ele>
        <time>2020-07-31T07:41:02.000Z</time>
      </trkpt>
      <trkpt lat="46.41981" lon="5.40057">
        <ele>442.39999389648</ele>
        <time>2020-07-31T07:41:03.000Z</time>
      </trkpt>
      <trkpt lat="46.41985" lon="5.40058">
        <ele>442.60000610352</ele>
        <time>2020-07-31T07:41:04.000Z</time>
      </trkpt>
      <trkpt lat="46.41994" lon="5.40059">
        <ele>442.79998779297</ele>
        <time>2020-07-31T07:41:06.000Z</time>
      </trkpt>
      <trkpt lat="46.42002" lon="5.40061">
        <ele>443.39999389648</ele>
        <time>2020-07-31T07:41:08.000Z</time>
      </trkpt>
      <trkpt lat="46.4201" lon="5.40062">
        <ele>443.79998779297</ele>
        <time>2020-07-31T07:41:10.000Z</time>
      </trkpt>
      <trkpt lat="46.42018" lon="5.40064">
        <ele>444.39999389648</ele>
        <time>2020-07-31T07:41:12.000Z</time>
      </trkpt>
      <trkpt lat="46.42022" lon="5.40065">
        <ele>444.79998779297</ele>
        <time>2020-07-31T07:41:13.000Z</time>
      </trkpt>
      <trkpt lat="46.42027" lon="5.40066">
        <ele>445</ele>
        <time>2020-07-31T07:41:14.000Z</time>
      </trkpt>
      <trkpt lat="46.42035" lon="5.40068">
        <ele>445.39999389648</ele>
        <time>2020-07-31T07:41:16.000Z</time>
      </trkpt>
      <trkpt lat="46.42043" lon="5.40071">
        <ele>445.79998779297</ele>
        <time>2020-07-31T07:41:18.000Z</time>
      </trkpt>
      <trkpt lat="46.42051" lon="5.40073">
        <ele>446.20001220703</ele>
        <time>2020-07-31T07:41:20.000Z</time>
      </trkpt>
      <trkpt lat="46.42059" lon="5.40076">
        <ele>446.39999389648</ele>
        <time>2020-07-31T07:41:22.000Z</time>
      </trkpt>
      <trkpt lat="46.42067" lon="5.40078">
        <ele>447</ele>
        <time>2020-07-31T07:41:24.000Z</time>
      </trkpt>
      <trkpt lat="46.42075" lon="5.40081">
        <ele>447.39999389648</ele>
        <time>2020-07-31T07:41:26.000Z</time>
      </trkpt>
      <trkpt lat="46.42082" lon="5.40084">
        <ele>447.79998779297</ele>
        <time>2020-07-31T07:41:28.000Z</time>
      </trkpt>
      <trkpt lat="46.42086" lon="5.40085">
        <ele>448</ele>
        <time>2020-07-31T07:41:29.000Z</time>
      </trkpt>
      <trkpt lat="46.4209" lon="5.40086">
        <ele>448.20001220703</ele>
        <time>2020-07-31T07:41:30.000Z</time>
      </trkpt>
      <trkpt lat="46.42098" lon="5.40087">
        <ele>449</ele>
        <time>2020-07-31T07:41:32.000Z</time>
      </trkpt>
      <trkpt lat="46.42102" lon="5.40088">
        <ele>449.20001220703</ele>
        <time>2020-07-31T07:41:33.000Z</time>
      </trkpt>
      <trkpt lat="46.42111" lon="5.40088">
        <ele>449.39999389648</ele>
        <time>2020-07-31T07:41:35.000Z</time>
      </trkpt>
      <trkpt lat="46.4212" lon="5.40088">
        <ele>449.79998779297</ele>
        <time>2020-07-31T07:41:37.000Z</time>
      </trkpt>
      <trkpt lat="46.42129" lon="5.40086">
        <ele>450.20001220703</ele>
        <time>2020-07-31T07:41:39.000Z</time>
      </trkpt>
      <trkpt lat="46.42134" lon="5.40085">
        <ele>450.39999389648</ele>
        <time>2020-07-31T07:41:40.000Z</time>
      </trkpt>
      <trkpt lat="46.42139" lon="5.40084">
        <ele>450.60000610352</ele>
        <time>2020-07-31T07:41:41.000Z</time>
      </trkpt>
      <trkpt lat="46.42152" lon="5.4008">
        <ele>450.79998779297</ele>
        <time>2020-07-31T07:41:44.000Z</time>
      </trkpt>
      <trkpt lat="46.42161" lon="5.40078">
        <ele>451.20001220703</ele>
        <time>2020-07-31T07:41:46.000Z</time>
      </trkpt>
      <trkpt lat="46.4217" lon="5.40075">
        <ele>451.39999389648</ele>
        <time>2020-07-31T07:41:48.000Z</time>
      </trkpt>
      <trkpt lat="46.42179" lon="5.40072">
        <ele>451.79998779297</ele>
        <time>2020-07-31T07:41:50.000Z</time>
      </trkpt>
      <trkpt lat="46.42188" lon="5.40069">
        <ele>452.20001220703</ele>
        <time>2020-07-31T07:41:52.000Z</time>
      </trkpt>
      <trkpt lat="46.42197" lon="5.40066">
        <ele>452.60000610352</ele>
        <time>2020-07-31T07:41:54.000Z</time>
      </trkpt>
      <trkpt lat="46.42206" lon="5.40063">
        <ele>453</ele>
        <time>2020-07-31T07:41:56.000Z</time>
      </trkpt>
      <trkpt lat="46.42211" lon="5.40061">
        <ele>453.39999389648</ele>
        <time>2020-07-31T07:41:57.000Z</time>
      </trkpt>
      <trkpt lat="46.42216" lon="5.4006">
        <ele>453.60000610352</ele>
        <time>2020-07-31T07:41:58.000Z</time>
      </trkpt>
      <trkpt lat="46.42222" lon="5.40059">
        <ele>453.79998779297</ele>
        <time>2020-07-31T07:41:59.000Z</time>
      </trkpt>
      <trkpt lat="46.42227" lon="5.40057">
        <ele>453.79998779297</ele>
        <time>2020-07-31T07:42:00.000Z</time>
      </trkpt>
      <trkpt lat="46.42238" lon="5.40054">
        <ele>454</ele>
        <time>2020-07-31T07:42:02.000Z</time>
      </trkpt>
      <trkpt lat="46.42249" lon="5.4005">
        <ele>454.20001220703</ele>
        <time>2020-07-31T07:42:04.000Z</time>
      </trkpt>
      <trkpt lat="46.4226" lon="5.40047">
        <ele>454.20001220703</ele>
        <time>2020-07-31T07:42:06.000Z</time>
      </trkpt>
      <trkpt lat="46.42265" lon="5.40046">
        <ele>454.39999389648</ele>
        <time>2020-07-31T07:42:07.000Z</time>
      </trkpt>
      <trkpt lat="46.4227" lon="5.40044">
        <ele>454.39999389648</ele>
        <time>2020-07-31T07:42:08.000Z</time>
      </trkpt>
      <trkpt lat="46.4228" lon="5.40041">
        <ele>454.39999389648</ele>
        <time>2020-07-31T07:42:10.000Z</time>
      </trkpt>
      <trkpt lat="46.42285" lon="5.4004">
        <ele>454.60000610352</ele>
        <time>2020-07-31T07:42:11.000Z</time>
      </trkpt>
      <trkpt lat="46.42291" lon="5.40038">
        <ele>454.60000610352</ele>
        <time>2020-07-31T07:42:12.000Z</time>
      </trkpt>
      <trkpt lat="46.42301" lon="5.40035">
        <ele>455</ele>
        <time>2020-07-31T07:42:14.000Z</time>
      </trkpt>
      <trkpt lat="46.42312" lon="5.40031">
        <ele>455.20001220703</ele>
        <time>2020-07-31T07:42:16.000Z</time>
      </trkpt>
      <trkpt lat="46.42322" lon="5.40028">
        <ele>455.39999389648</ele>
        <time>2020-07-31T07:42:18.000Z</time>
      </trkpt>
      <trkpt lat="46.42333" lon="5.40024">
        <ele>455.60000610352</ele>
        <time>2020-07-31T07:42:20.000Z</time>
      </trkpt>
      <trkpt lat="46.42343" lon="5.40021">
        <ele>455.79998779297</ele>
        <time>2020-07-31T07:42:22.000Z</time>
      </trkpt>
      <trkpt lat="46.42354" lon="5.40017">
        <ele>456</ele>
        <time>2020-07-31T07:42:24.000Z</time>
      </trkpt>
      <trkpt lat="46.42364" lon="5.40014">
        <ele>456.20001220703</ele>
        <time>2020-07-31T07:42:26.000Z</time>
      </trkpt>
      <trkpt lat="46.42374" lon="5.4001">
        <ele>456.39999389648</ele>
        <time>2020-07-31T07:42:28.000Z</time>
      </trkpt>
      <trkpt lat="46.42379" lon="5.40008">
        <ele>456.60000610352</ele>
        <time>2020-07-31T07:42:29.000Z</time>
      </trkpt>
      <trkpt lat="46.42383" lon="5.40007">
        <ele>456.79998779297</ele>
        <time>2020-07-31T07:42:30.000Z</time>
      </trkpt>
      <trkpt lat="46.42391" lon="5.39999">
        <ele>457.20001220703</ele>
        <time>2020-07-31T07:42:32.000Z</time>
      </trkpt>
      <trkpt lat="46.42393" lon="5.39992">
        <ele>457.39999389648</ele>
        <time>2020-07-31T07:42:33.000Z</time>
      </trkpt>
      <trkpt lat="46.42394" lon="5.39984">
        <ele>457.60000610352</ele>
        <time>2020-07-31T07:42:34.000Z</time>
      </trkpt>
      <trkpt lat="46.42394" lon="5.39976">
        <ele>457.79998779297</ele>
        <time>2020-07-31T07:42:35.000Z</time>
      </trkpt>
      <trkpt lat="46.42395" lon="5.39967">
        <ele>458</ele>
        <time>2020-07-31T07:42:36.000Z</time>
      </trkpt>
      <trkpt lat="46.42395" lon="5.39958">
        <ele>458</ele>
        <time>2020-07-31T07:42:37.000Z</time>
      </trkpt>
      <trkpt lat="46.42395" lon="5.39949">
        <ele>458</ele>
        <time>2020-07-31T07:42:38.000Z</time>
      </trkpt>
      <trkpt lat="46.42395" lon="5.39931">
        <ele>458.39999389648</ele>
        <time>2020-07-31T07:42:40.000Z</time>
      </trkpt>
      <trkpt lat="46.42396" lon="5.39913">
        <ele>458.39999389648</ele>
        <time>2020-07-31T07:42:42.000Z</time>
      </trkpt>
      <trkpt lat="46.42396" lon="5.39896">
        <ele>458.60000610352</ele>
        <time>2020-07-31T07:42:44.000Z</time>
      </trkpt>
      <trkpt lat="46.42396" lon="5.39888">
        <ele>458.60000610352</ele>
        <time>2020-07-31T07:42:45.000Z</time>
      </trkpt>
      <trkpt lat="46.42397" lon="5.3988">
        <ele>459</ele>
        <time>2020-07-31T07:42:46.000Z</time>
      </trkpt>
      <trkpt lat="46.42397" lon="5.39872">
        <ele>459</ele>
        <time>2020-07-31T07:42:47.000Z</time>
      </trkpt>
      <trkpt lat="46.42397" lon="5.39864">
        <ele>459.20001220703</ele>
        <time>2020-07-31T07:42:48.000Z</time>
      </trkpt>
      <trkpt lat="46.42398" lon="5.39848">
        <ele>459.20001220703</ele>
        <time>2020-07-31T07:42:50.000Z</time>
      </trkpt>
      <trkpt lat="46.42398" lon="5.39832">
        <ele>459.39999389648</ele>
        <time>2020-07-31T07:42:52.000Z</time>
      </trkpt>
      <trkpt lat="46.42399" lon="5.39817">
        <ele>459.79998779297</ele>
        <time>2020-07-31T07:42:54.000Z</time>
      </trkpt>
      <trkpt lat="46.42399" lon="5.39809">
        <ele>460</ele>
        <time>2020-07-31T07:42:55.000Z</time>
      </trkpt>
      <trkpt lat="46.42402" lon="5.39803">
        <ele>460</ele>
        <time>2020-07-31T07:42:56.000Z</time>
      </trkpt>
      <trkpt lat="46.42405" lon="5.39797">
        <ele>460.39999389648</ele>
        <time>2020-07-31T07:42:57.000Z</time>
      </trkpt>
      <trkpt lat="46.4241" lon="5.39794">
        <ele>460.79998779297</ele>
        <time>2020-07-31T07:42:58.000Z</time>
      </trkpt>
      <trkpt lat="46.42421" lon="5.39793">
        <ele>461.20001220703</ele>
        <time>2020-07-31T07:43:00.000Z</time>
      </trkpt>
      <trkpt lat="46.42427" lon="5.39794">
        <ele>461.60000610352</ele>
        <time>2020-07-31T07:43:01.000Z</time>
      </trkpt>
      <trkpt lat="46.42433" lon="5.39796">
        <ele>461.60000610352</ele>
        <time>2020-07-31T07:43:02.000Z</time>
      </trkpt>
      <trkpt lat="46.42439" lon="5.39798">
        <ele>461.79998779297</ele>
        <time>2020-07-31T07:43:03.000Z</time>
      </trkpt>
      <trkpt lat="46.42446" lon="5.398">
        <ele>461.79998779297</ele>
        <time>2020-07-31T07:43:04.000Z</time>
      </trkpt>
      <trkpt lat="46.42453" lon="5.39804">
        <ele>461.79998779297</ele>
        <time>2020-07-31T07:43:05.000Z</time>
      </trkpt>
      <trkpt lat="46.42465" lon="5.39816">
        <ele>461.79998779297</ele>
        <time>2020-07-31T07:43:07.000Z</time>
      </trkpt>
      <trkpt lat="46.4247" lon="5.39823">
        <ele>461.79998779297</ele>
        <time>2020-07-31T07:43:08.000Z</time>
      </trkpt>
      <trkpt lat="46.42476" lon="5.39831">
        <ele>461.79998779297</ele>
        <time>2020-07-31T07:43:09.000Z</time>
      </trkpt>
      <trkpt lat="46.42487" lon="5.39846">
        <ele>461.79998779297</ele>
        <time>2020-07-31T07:43:11.000Z</time>
      </trkpt>
      <trkpt lat="46.42497" lon="5.39861">
        <ele>461.20001220703</ele>
        <time>2020-07-31T07:43:13.000Z</time>
      </trkpt>
      <trkpt lat="46.42509" lon="5.39875">
        <ele>460.79998779297</ele>
        <time>2020-07-31T07:43:15.000Z</time>
      </trkpt>
      <trkpt lat="46.42515" lon="5.39881">
        <ele>460.60000610352</ele>
        <time>2020-07-31T07:43:16.000Z</time>
      </trkpt>
      <trkpt lat="46.42522" lon="5.39887">
        <ele>460.39999389648</ele>
        <time>2020-07-31T07:43:17.000Z</time>
      </trkpt>
      <trkpt lat="46.42536" lon="5.39897">
        <ele>460.20001220703</ele>
        <time>2020-07-31T07:43:19.000Z</time>
      </trkpt>
      <trkpt lat="46.42543" lon="5.39903">
        <ele>460.20001220703</ele>
        <time>2020-07-31T07:43:20.000Z</time>
      </trkpt>
      <trkpt lat="46.4255" lon="5.39908">
        <ele>460.20001220703</ele>
        <time>2020-07-31T07:43:21.000Z</time>
      </trkpt>
      <trkpt lat="46.42557" lon="5.39913">
        <ele>460.20001220703</ele>
        <time>2020-07-31T07:43:22.000Z</time>
      </trkpt>
      <trkpt lat="46.42564" lon="5.39919">
        <ele>460.20001220703</ele>
        <time>2020-07-31T07:43:23.000Z</time>
      </trkpt>
      <trkpt lat="46.42578" lon="5.39929">
        <ele>460.20001220703</ele>
        <time>2020-07-31T07:43:25.000Z</time>
      </trkpt>
      <trkpt lat="46.42591" lon="5.39939">
        <ele>460.20001220703</ele>
        <time>2020-07-31T07:43:27.000Z</time>
      </trkpt>
      <trkpt lat="46.42604" lon="5.39946">
        <ele>460.39999389648</ele>
        <time>2020-07-31T07:43:29.000Z</time>
      </trkpt>
      <trkpt lat="46.42618" lon="5.39953">
        <ele>460.60000610352</ele>
        <time>2020-07-31T07:43:31.000Z</time>
      </trkpt>
      <trkpt lat="46.42631" lon="5.39959">
        <ele>460.60000610352</ele>
        <time>2020-07-31T07:43:33.000Z</time>
      </trkpt>
      <trkpt lat="46.42645" lon="5.39965">
        <ele>460.79998779297</ele>
        <time>2020-07-31T07:43:35.000Z</time>
      </trkpt>
      <trkpt lat="46.42658" lon="5.39972">
        <ele>461</ele>
        <time>2020-07-31T07:43:37.000Z</time>
      </trkpt>
      <trkpt lat="46.42665" lon="5.39975">
        <ele>461</ele>
        <time>2020-07-31T07:43:38.000Z</time>
      </trkpt>
      <trkpt lat="46.42672" lon="5.39979">
        <ele>461.20001220703</ele>
        <time>2020-07-31T07:43:39.000Z</time>
      </trkpt>
      <trkpt lat="46.42679" lon="5.39982">
        <ele>461.20001220703</ele>
        <time>2020-07-31T07:43:40.000Z</time>
      </trkpt>
      <trkpt lat="46.42687" lon="5.39985">
        <ele>461.39999389648</ele>
        <time>2020-07-31T07:43:41.000Z</time>
      </trkpt>
      <trkpt lat="46.42701" lon="5.39992">
        <ele>461.39999389648</ele>
        <time>2020-07-31T07:43:43.000Z</time>
      </trkpt>
      <trkpt lat="46.42716" lon="5.39999">
        <ele>461.39999389648</ele>
        <time>2020-07-31T07:43:45.000Z</time>
      </trkpt>
      <trkpt lat="46.42731" lon="5.40005">
        <ele>461.39999389648</ele>
        <time>2020-07-31T07:43:47.000Z</time>
      </trkpt>
      <trkpt lat="46.42738" lon="5.40008">
        <ele>461.39999389648</ele>
        <time>2020-07-31T07:43:48.000Z</time>
      </trkpt>
      <trkpt lat="46.42745" lon="5.40011">
        <ele>461.39999389648</ele>
        <time>2020-07-31T07:43:49.000Z</time>
      </trkpt>
      <trkpt lat="46.42759" lon="5.40016">
        <ele>461.39999389648</ele>
        <time>2020-07-31T07:43:51.000Z</time>
      </trkpt>
      <trkpt lat="46.42773" lon="5.40021">
        <ele>461.39999389648</ele>
        <time>2020-07-31T07:43:53.000Z</time>
      </trkpt>
      <trkpt lat="46.42786" lon="5.40027">
        <ele>461.60000610352</ele>
        <time>2020-07-31T07:43:55.000Z</time>
      </trkpt>
      <trkpt lat="46.428" lon="5.40032">
        <ele>461.60000610352</ele>
        <time>2020-07-31T07:43:57.000Z</time>
      </trkpt>
      <trkpt lat="46.42815" lon="5.40037">
        <ele>461.60000610352</ele>
        <time>2020-07-31T07:43:59.000Z</time>
      </trkpt>
      <trkpt lat="46.4283" lon="5.40043">
        <ele>461.60000610352</ele>
        <time>2020-07-31T07:44:01.000Z</time>
      </trkpt>
      <trkpt lat="46.42838" lon="5.40045">
        <ele>461.60000610352</ele>
        <time>2020-07-31T07:44:02.000Z</time>
      </trkpt>
      <trkpt lat="46.42846" lon="5.40048">
        <ele>461.60000610352</ele>
        <time>2020-07-31T07:44:03.000Z</time>
      </trkpt>
      <trkpt lat="46.42862" lon="5.40052">
        <ele>461.60000610352</ele>
        <time>2020-07-31T07:44:05.000Z</time>
      </trkpt>
      <trkpt lat="46.42877" lon="5.40056">
        <ele>461.79998779297</ele>
        <time>2020-07-31T07:44:07.000Z</time>
      </trkpt>
      <trkpt lat="46.42893" lon="5.40057">
        <ele>462.20001220703</ele>
        <time>2020-07-31T07:44:09.000Z</time>
      </trkpt>
      <trkpt lat="46.429" lon="5.40058">
        <ele>462.20001220703</ele>
        <time>2020-07-31T07:44:10.000Z</time>
      </trkpt>
      <trkpt lat="46.42908" lon="5.40059">
        <ele>462.39999389648</ele>
        <time>2020-07-31T07:44:11.000Z</time>
      </trkpt>
      <trkpt lat="46.42922" lon="5.4006">
        <ele>462.39999389648</ele>
        <time>2020-07-31T07:44:13.000Z</time>
      </trkpt>
      <trkpt lat="46.42936" lon="5.40061">
        <ele>462.39999389648</ele>
        <time>2020-07-31T07:44:15.000Z</time>
      </trkpt>
      <trkpt lat="46.4295" lon="5.40062">
        <ele>462.39999389648</ele>
        <time>2020-07-31T07:44:17.000Z</time>
      </trkpt>
      <trkpt lat="46.42957" lon="5.40063">
        <ele>462.60000610352</ele>
        <time>2020-07-31T07:44:18.000Z</time>
      </trkpt>
      <trkpt lat="46.42964" lon="5.40064">
        <ele>462.79998779297</ele>
        <time>2020-07-31T07:44:19.000Z</time>
      </trkpt>
      <trkpt lat="46.42977" lon="5.40066">
        <ele>463.79998779297</ele>
        <time>2020-07-31T07:44:21.000Z</time>
      </trkpt>
      <trkpt lat="46.42992" lon="5.40069">
        <ele>464.60000610352</ele>
        <time>2020-07-31T07:44:23.000Z</time>
      </trkpt>
      <trkpt lat="46.42999" lon="5.40071">
        <ele>464.60000610352</ele>
        <time>2020-07-31T07:44:24.000Z</time>
      </trkpt>
      <trkpt lat="46.43006" lon="5.40072">
        <ele>464.79998779297</ele>
        <time>2020-07-31T07:44:25.000Z</time>
      </trkpt>
      <trkpt lat="46.43021" lon="5.40075">
        <ele>465.60000610352</ele>
        <time>2020-07-31T07:44:27.000Z</time>
      </trkpt>
      <trkpt lat="46.43028" lon="5.40076">
        <ele>465.79998779297</ele>
        <time>2020-07-31T07:44:28.000Z</time>
      </trkpt>
      <trkpt lat="46.43036" lon="5.40077">
        <ele>466</ele>
        <time>2020-07-31T07:44:29.000Z</time>
      </trkpt>
      <trkpt lat="46.4305" lon="5.40078">
        <ele>466</ele>
        <time>2020-07-31T07:44:31.000Z</time>
      </trkpt>
      <trkpt lat="46.43066" lon="5.40077">
        <ele>466</ele>
        <time>2020-07-31T07:44:33.000Z</time>
      </trkpt>
      <trkpt lat="46.43081" lon="5.40078">
        <ele>466.20001220703</ele>
        <time>2020-07-31T07:44:35.000Z</time>
      </trkpt>
      <trkpt lat="46.43098" lon="5.40082">
        <ele>466</ele>
        <time>2020-07-31T07:44:37.000Z</time>
      </trkpt>
      <trkpt lat="46.43107" lon="5.40084">
        <ele>466</ele>
        <time>2020-07-31T07:44:38.000Z</time>
      </trkpt>
      <trkpt lat="46.43116" lon="5.40086">
        <ele>466</ele>
        <time>2020-07-31T07:44:39.000Z</time>
      </trkpt>
      <trkpt lat="46.43135" lon="5.4009">
        <ele>465.79998779297</ele>
        <time>2020-07-31T07:44:41.000Z</time>
      </trkpt>
      <trkpt lat="46.43154" lon="5.40092">
        <ele>465.79998779297</ele>
        <time>2020-07-31T07:44:43.000Z</time>
      </trkpt>
      <trkpt lat="46.43163" lon="5.40093">
        <ele>465.79998779297</ele>
        <time>2020-07-31T07:44:44.000Z</time>
      </trkpt>
      <trkpt lat="46.43173" lon="5.40095">
        <ele>465.60000610352</ele>
        <time>2020-07-31T07:44:45.000Z</time>
      </trkpt>
      <trkpt lat="46.43191" lon="5.40101">
        <ele>464.39999389648</ele>
        <time>2020-07-31T07:44:47.000Z</time>
      </trkpt>
      <trkpt lat="46.43199" lon="5.40106">
        <ele>463.79998779297</ele>
        <time>2020-07-31T07:44:48.000Z</time>
      </trkpt>
      <trkpt lat="46.43208" lon="5.40111">
        <ele>463.60000610352</ele>
        <time>2020-07-31T07:44:49.000Z</time>
      </trkpt>
      <trkpt lat="46.43225" lon="5.40119">
        <ele>463.20001220703</ele>
        <time>2020-07-31T07:44:51.000Z</time>
      </trkpt>
      <trkpt lat="46.43244" lon="5.40123">
        <ele>462.79998779297</ele>
        <time>2020-07-31T07:44:53.000Z</time>
      </trkpt>
      <trkpt lat="46.43253" lon="5.40124">
        <ele>462.60000610352</ele>
        <time>2020-07-31T07:44:54.000Z</time>
      </trkpt>
      <trkpt lat="46.43262" lon="5.40123">
        <ele>462.39999389648</ele>
        <time>2020-07-31T07:44:55.000Z</time>
      </trkpt>
      <trkpt lat="46.4328" lon="5.40121">
        <ele>462</ele>
        <time>2020-07-31T07:44:57.000Z</time>
      </trkpt>
      <trkpt lat="46.43289" lon="5.4012">
        <ele>461.79998779297</ele>
        <time>2020-07-31T07:44:58.000Z</time>
      </trkpt>
      <trkpt lat="46.43297" lon="5.40119">
        <ele>461.79998779297</ele>
        <time>2020-07-31T07:44:59.000Z</time>
      </trkpt>
      <trkpt lat="46.43316" lon="5.40118">
        <ele>461.79998779297</ele>
        <time>2020-07-31T07:45:01.000Z</time>
      </trkpt>
      <trkpt lat="46.43334" lon="5.40118">
        <ele>461.79998779297</ele>
        <time>2020-07-31T07:45:03.000Z</time>
      </trkpt>
      <trkpt lat="46.43352" lon="5.40118">
        <ele>461.60000610352</ele>
        <time>2020-07-31T07:45:05.000Z</time>
      </trkpt>
      <trkpt lat="46.4337" lon="5.4012">
        <ele>461.60000610352</ele>
        <time>2020-07-31T07:45:07.000Z</time>
      </trkpt>
      <trkpt lat="46.43378" lon="5.40122">
        <ele>461.79998779297</ele>
        <time>2020-07-31T07:45:08.000Z</time>
      </trkpt>
      <trkpt lat="46.43396" lon="5.40128">
        <ele>461.79998779297</ele>
        <time>2020-07-31T07:45:10.000Z</time>
      </trkpt>
      <trkpt lat="46.43414" lon="5.40134">
        <ele>461.79998779297</ele>
        <time>2020-07-31T07:45:12.000Z</time>
      </trkpt>
      <trkpt lat="46.43432" lon="5.40141">
        <ele>461.60000610352</ele>
        <time>2020-07-31T07:45:14.000Z</time>
      </trkpt>
      <trkpt lat="46.43449" lon="5.40149">
        <ele>461.60000610352</ele>
        <time>2020-07-31T07:45:16.000Z</time>
      </trkpt>
      <trkpt lat="46.43464" lon="5.40157">
        <ele>461.60000610352</ele>
        <time>2020-07-31T07:45:18.000Z</time>
      </trkpt>
      <trkpt lat="46.4348" lon="5.40165">
        <ele>461.60000610352</ele>
        <time>2020-07-31T07:45:20.000Z</time>
      </trkpt>
      <trkpt lat="46.43495" lon="5.40172">
        <ele>461.79998779297</ele>
        <time>2020-07-31T07:45:22.000Z</time>
      </trkpt>
      <trkpt lat="46.43503" lon="5.40174">
        <ele>461.79998779297</ele>
        <time>2020-07-31T07:45:23.000Z</time>
      </trkpt>
      <trkpt lat="46.43511" lon="5.40175">
        <ele>461.79998779297</ele>
        <time>2020-07-31T07:45:24.000Z</time>
      </trkpt>
      <trkpt lat="46.43526" lon="5.40176">
        <ele>461.79998779297</ele>
        <time>2020-07-31T07:45:26.000Z</time>
      </trkpt>
      <trkpt lat="46.43542" lon="5.40177">
        <ele>461.79998779297</ele>
        <time>2020-07-31T07:45:28.000Z</time>
      </trkpt>
      <trkpt lat="46.4355" lon="5.40178">
        <ele>462</ele>
        <time>2020-07-31T07:45:29.000Z</time>
      </trkpt>
      <trkpt lat="46.43558" lon="5.4018">
        <ele>462</ele>
        <time>2020-07-31T07:45:30.000Z</time>
      </trkpt>
      <trkpt lat="46.43575" lon="5.40183">
        <ele>462.20001220703</ele>
        <time>2020-07-31T07:45:32.000Z</time>
      </trkpt>
      <trkpt lat="46.43592" lon="5.40187">
        <ele>462.20001220703</ele>
        <time>2020-07-31T07:45:34.000Z</time>
      </trkpt>
      <trkpt lat="46.43601" lon="5.40189">
        <ele>462.20001220703</ele>
        <time>2020-07-31T07:45:35.000Z</time>
      </trkpt>
      <trkpt lat="46.43609" lon="5.40191">
        <ele>462.20001220703</ele>
        <time>2020-07-31T07:45:36.000Z</time>
      </trkpt>
      <trkpt lat="46.43626" lon="5.40191">
        <ele>462.20001220703</ele>
        <time>2020-07-31T07:45:38.000Z</time>
      </trkpt>
      <trkpt lat="46.43642" lon="5.40189">
        <ele>462.39999389648</ele>
        <time>2020-07-31T07:45:40.000Z</time>
      </trkpt>
      <trkpt lat="46.43657" lon="5.40187">
        <ele>462.60000610352</ele>
        <time>2020-07-31T07:45:42.000Z</time>
      </trkpt>
      <trkpt lat="46.43672" lon="5.40185">
        <ele>462.79998779297</ele>
        <time>2020-07-31T07:45:44.000Z</time>
      </trkpt>
      <trkpt lat="46.43687" lon="5.40182">
        <ele>462.79998779297</ele>
        <time>2020-07-31T07:45:46.000Z</time>
      </trkpt>
      <trkpt lat="46.43702" lon="5.4018">
        <ele>462.79998779297</ele>
        <time>2020-07-31T07:45:48.000Z</time>
      </trkpt>
      <trkpt lat="46.43709" lon="5.40179">
        <ele>463.20001220703</ele>
        <time>2020-07-31T07:45:49.000Z</time>
      </trkpt>
      <trkpt lat="46.43716" lon="5.40178">
        <ele>463.39999389648</ele>
        <time>2020-07-31T07:45:50.000Z</time>
      </trkpt>
      <trkpt lat="46.4373" lon="5.40175">
        <ele>463.79998779297</ele>
        <time>2020-07-31T07:45:52.000Z</time>
      </trkpt>
      <trkpt lat="46.43737" lon="5.40174">
        <ele>464.20001220703</ele>
        <time>2020-07-31T07:45:53.000Z</time>
      </trkpt>
      <trkpt lat="46.43745" lon="5.40173">
        <ele>464.20001220703</ele>
        <time>2020-07-31T07:45:54.000Z</time>
      </trkpt>
      <trkpt lat="46.4376" lon="5.4017">
        <ele>464.60000610352</ele>
        <time>2020-07-31T07:45:56.000Z</time>
      </trkpt>
      <trkpt lat="46.43768" lon="5.40167">
        <ele>465</ele>
        <time>2020-07-31T07:45:57.000Z</time>
      </trkpt>
      <trkpt lat="46.43777" lon="5.40165">
        <ele>465.39999389648</ele>
        <time>2020-07-31T07:45:58.000Z</time>
      </trkpt>
      <trkpt lat="46.43793" lon="5.40159">
        <ele>465.60000610352</ele>
        <time>2020-07-31T07:46:00.000Z</time>
      </trkpt>
      <trkpt lat="46.43808" lon="5.40154">
        <ele>465.60000610352</ele>
        <time>2020-07-31T07:46:02.000Z</time>
      </trkpt>
      <trkpt lat="46.43823" lon="5.40148">
        <ele>465.79998779297</ele>
        <time>2020-07-31T07:46:04.000Z</time>
      </trkpt>
      <trkpt lat="46.4383" lon="5.40146">
        <ele>465.79998779297</ele>
        <time>2020-07-31T07:46:05.000Z</time>
      </trkpt>
      <trkpt lat="46.43838" lon="5.40143">
        <ele>466</ele>
        <time>2020-07-31T07:46:06.000Z</time>
      </trkpt>
      <trkpt lat="46.43855" lon="5.40138">
        <ele>466</ele>
        <time>2020-07-31T07:46:08.000Z</time>
      </trkpt>
      <trkpt lat="46.43873" lon="5.4013">
        <ele>466</ele>
        <time>2020-07-31T07:46:10.000Z</time>
      </trkpt>
      <trkpt lat="46.43889" lon="5.40117">
        <ele>465.79998779297</ele>
        <time>2020-07-31T07:46:12.000Z</time>
      </trkpt>
      <trkpt lat="46.43904" lon="5.40103">
        <ele>465.60000610352</ele>
        <time>2020-07-31T07:46:14.000Z</time>
      </trkpt>
      <trkpt lat="46.43919" lon="5.40093">
        <ele>465.39999389648</ele>
        <time>2020-07-31T07:46:16.000Z</time>
      </trkpt>
      <trkpt lat="46.43935" lon="5.40087">
        <ele>464.60000610352</ele>
        <time>2020-07-31T07:46:18.000Z</time>
      </trkpt>
      <trkpt lat="46.43952" lon="5.40085">
        <ele>464.20001220703</ele>
        <time>2020-07-31T07:46:20.000Z</time>
      </trkpt>
      <trkpt lat="46.43961" lon="5.40086">
        <ele>463.79998779297</ele>
        <time>2020-07-31T07:46:21.000Z</time>
      </trkpt>
      <trkpt lat="46.43971" lon="5.40086">
        <ele>463.79998779297</ele>
        <time>2020-07-31T07:46:22.000Z</time>
      </trkpt>
      <trkpt lat="46.43989" lon="5.40084">
        <ele>463.60000610352</ele>
        <time>2020-07-31T07:46:24.000Z</time>
      </trkpt>
      <trkpt lat="46.44007" lon="5.40081">
        <ele>463.20001220703</ele>
        <time>2020-07-31T07:46:26.000Z</time>
      </trkpt>
      <trkpt lat="46.44016" lon="5.4008">
        <ele>463</ele>
        <time>2020-07-31T07:46:27.000Z</time>
      </trkpt>
      <trkpt lat="46.44024" lon="5.40078">
        <ele>463</ele>
        <time>2020-07-31T07:46:28.000Z</time>
      </trkpt>
      <trkpt lat="46.44041" lon="5.40074">
        <ele>463.20001220703</ele>
        <time>2020-07-31T07:46:30.000Z</time>
      </trkpt>
      <trkpt lat="46.44057" lon="5.40069">
        <ele>463.39999389648</ele>
        <time>2020-07-31T07:46:32.000Z</time>
      </trkpt>
      <trkpt lat="46.44073" lon="5.40065">
        <ele>463.60000610352</ele>
        <time>2020-07-31T07:46:34.000Z</time>
      </trkpt>
      <trkpt lat="46.4409" lon="5.40061">
        <ele>463.60000610352</ele>
        <time>2020-07-31T07:46:36.000Z</time>
      </trkpt>
      <trkpt lat="46.44105" lon="5.40057">
        <ele>463.79998779297</ele>
        <time>2020-07-31T07:46:38.000Z</time>
      </trkpt>
      <trkpt lat="46.44121" lon="5.40052">
        <ele>464</ele>
        <time>2020-07-31T07:46:40.000Z</time>
      </trkpt>
      <trkpt lat="46.44129" lon="5.40049">
        <ele>464.20001220703</ele>
        <time>2020-07-31T07:46:41.000Z</time>
      </trkpt>
      <trkpt lat="46.44136" lon="5.40044">
        <ele>464.39999389648</ele>
        <time>2020-07-31T07:46:42.000Z</time>
      </trkpt>
      <trkpt lat="46.4415" lon="5.40034">
        <ele>464.60000610352</ele>
        <time>2020-07-31T07:46:44.000Z</time>
      </trkpt>
      <trkpt lat="46.44163" lon="5.40022">
        <ele>464.60000610352</ele>
        <time>2020-07-31T07:46:46.000Z</time>
      </trkpt>
      <trkpt lat="46.44176" lon="5.40011">
        <ele>464.79998779297</ele>
        <time>2020-07-31T07:46:48.000Z</time>
      </trkpt>
      <trkpt lat="46.44188" lon="5.39999">
        <ele>465</ele>
        <time>2020-07-31T07:46:50.000Z</time>
      </trkpt>
      <trkpt lat="46.44194" lon="5.39993">
        <ele>465.20001220703</ele>
        <time>2020-07-31T07:46:51.000Z</time>
      </trkpt>
      <trkpt lat="46.44201" lon="5.39987">
        <ele>465.20001220703</ele>
        <time>2020-07-31T07:46:52.000Z</time>
      </trkpt>
      <trkpt lat="46.44214" lon="5.39976">
        <ele>466</ele>
        <time>2020-07-31T07:46:54.000Z</time>
      </trkpt>
      <trkpt lat="46.44229" lon="5.39965">
        <ele>466.20001220703</ele>
        <time>2020-07-31T07:46:56.000Z</time>
      </trkpt>
      <trkpt lat="46.44245" lon="5.39956">
        <ele>466.20001220703</ele>
        <time>2020-07-31T07:46:58.000Z</time>
      </trkpt>
      <trkpt lat="46.44253" lon="5.39954">
        <ele>466.20001220703</ele>
        <time>2020-07-31T07:46:59.000Z</time>
      </trkpt>
      <trkpt lat="46.4427" lon="5.39953">
        <ele>466.20001220703</ele>
        <time>2020-07-31T07:47:01.000Z</time>
      </trkpt>
      <trkpt lat="46.44285" lon="5.39953">
        <ele>466.20001220703</ele>
        <time>2020-07-31T07:47:03.000Z</time>
      </trkpt>
      <trkpt lat="46.44299" lon="5.39953">
        <ele>466.20001220703</ele>
        <time>2020-07-31T07:47:05.000Z</time>
      </trkpt>
      <trkpt lat="46.44312" lon="5.39952">
        <ele>466.20001220703</ele>
        <time>2020-07-31T07:47:07.000Z</time>
      </trkpt>
      <trkpt lat="46.44325" lon="5.39951">
        <ele>466.20001220703</ele>
        <time>2020-07-31T07:47:09.000Z</time>
      </trkpt>
      <trkpt lat="46.44331" lon="5.39952">
        <ele>466.20001220703</ele>
        <time>2020-07-31T07:47:10.000Z</time>
      </trkpt>
      <trkpt lat="46.44337" lon="5.39952">
        <ele>466.20001220703</ele>
        <time>2020-07-31T07:47:11.000Z</time>
      </trkpt>
      <trkpt lat="46.44343" lon="5.39953">
        <ele>466.20001220703</ele>
        <time>2020-07-31T07:47:12.000Z</time>
      </trkpt>
      <trkpt lat="46.44349" lon="5.39952">
        <ele>466.39999389648</ele>
        <time>2020-07-31T07:47:13.000Z</time>
      </trkpt>
      <trkpt lat="46.44362" lon="5.39952">
        <ele>467.20001220703</ele>
        <time>2020-07-31T07:47:15.000Z</time>
      </trkpt>
      <trkpt lat="46.44375" lon="5.39952">
        <ele>468.60000610352</ele>
        <time>2020-07-31T07:47:17.000Z</time>
      </trkpt>
      <trkpt lat="46.44389" lon="5.39951">
        <ele>469.39999389648</ele>
        <time>2020-07-31T07:47:19.000Z</time>
      </trkpt>
      <trkpt lat="46.44397" lon="5.3995">
        <ele>469.79998779297</ele>
        <time>2020-07-31T07:47:20.000Z</time>
      </trkpt>
      <trkpt lat="46.44405" lon="5.3995">
        <ele>469.79998779297</ele>
        <time>2020-07-31T07:47:21.000Z</time>
      </trkpt>
      <trkpt lat="46.44421" lon="5.39948">
        <ele>469.79998779297</ele>
        <time>2020-07-31T07:47:23.000Z</time>
      </trkpt>
      <trkpt lat="46.44437" lon="5.39944">
        <ele>469.79998779297</ele>
        <time>2020-07-31T07:47:25.000Z</time>
      </trkpt>
      <trkpt lat="46.44454" lon="5.39937">
        <ele>469.79998779297</ele>
        <time>2020-07-31T07:47:27.000Z</time>
      </trkpt>
      <trkpt lat="46.44469" lon="5.39929">
        <ele>469.79998779297</ele>
        <time>2020-07-31T07:47:29.000Z</time>
      </trkpt>
      <trkpt lat="46.44484" lon="5.39922">
        <ele>469.39999389648</ele>
        <time>2020-07-31T07:47:31.000Z</time>
      </trkpt>
      <trkpt lat="46.44499" lon="5.39915">
        <ele>469.20001220703</ele>
        <time>2020-07-31T07:47:33.000Z</time>
      </trkpt>
      <trkpt lat="46.44513" lon="5.39908">
        <ele>469.20001220703</ele>
        <time>2020-07-31T07:47:35.000Z</time>
      </trkpt>
      <trkpt lat="46.44527" lon="5.39901">
        <ele>469.20001220703</ele>
        <time>2020-07-31T07:47:37.000Z</time>
      </trkpt>
      <trkpt lat="46.44534" lon="5.39898">
        <ele>469.20001220703</ele>
        <time>2020-07-31T07:47:38.000Z</time>
      </trkpt>
      <trkpt lat="46.44541" lon="5.39895">
        <ele>469.20001220703</ele>
        <time>2020-07-31T07:47:39.000Z</time>
      </trkpt>
      <trkpt lat="46.44555" lon="5.39888">
        <ele>469.20001220703</ele>
        <time>2020-07-31T07:47:41.000Z</time>
      </trkpt>
      <trkpt lat="46.44571" lon="5.39881">
        <ele>469.60000610352</ele>
        <time>2020-07-31T07:47:43.000Z</time>
      </trkpt>
      <trkpt lat="46.44585" lon="5.39873">
        <ele>469.79998779297</ele>
        <time>2020-07-31T07:47:45.000Z</time>
      </trkpt>
      <trkpt lat="46.44599" lon="5.39862">
        <ele>470</ele>
        <time>2020-07-31T07:47:47.000Z</time>
      </trkpt>
      <trkpt lat="46.4461" lon="5.39849">
        <ele>470.20001220703</ele>
        <time>2020-07-31T07:47:49.000Z</time>
      </trkpt>
      <trkpt lat="46.44621" lon="5.39834">
        <ele>470.39999389648</ele>
        <time>2020-07-31T07:47:51.000Z</time>
      </trkpt>
      <trkpt lat="46.44633" lon="5.39821">
        <ele>470.39999389648</ele>
        <time>2020-07-31T07:47:53.000Z</time>
      </trkpt>
      <trkpt lat="46.44648" lon="5.39809">
        <ele>470.39999389648</ele>
        <time>2020-07-31T07:47:55.000Z</time>
      </trkpt>
      <trkpt lat="46.44665" lon="5.398">
        <ele>470.39999389648</ele>
        <time>2020-07-31T07:47:57.000Z</time>
      </trkpt>
      <trkpt lat="46.44684" lon="5.39797">
        <ele>470.39999389648</ele>
        <time>2020-07-31T07:47:59.000Z</time>
      </trkpt>
      <trkpt lat="46.44702" lon="5.39797">
        <ele>470.39999389648</ele>
        <time>2020-07-31T07:48:01.000Z</time>
      </trkpt>
      <trkpt lat="46.44719" lon="5.39798">
        <ele>469.79998779297</ele>
        <time>2020-07-31T07:48:03.000Z</time>
      </trkpt>
      <trkpt lat="46.44734" lon="5.39799">
        <ele>469.60000610352</ele>
        <time>2020-07-31T07:48:05.000Z</time>
      </trkpt>
      <trkpt lat="46.44748" lon="5.39801">
        <ele>469.39999389648</ele>
        <time>2020-07-31T07:48:07.000Z</time>
      </trkpt>
      <trkpt lat="46.44762" lon="5.39802">
        <ele>469.39999389648</ele>
        <time>2020-07-31T07:48:09.000Z</time>
      </trkpt>
      <trkpt lat="46.44775" lon="5.39801">
        <ele>469.39999389648</ele>
        <time>2020-07-31T07:48:11.000Z</time>
      </trkpt>
      <trkpt lat="46.44788" lon="5.398">
        <ele>469.60000610352</ele>
        <time>2020-07-31T07:48:13.000Z</time>
      </trkpt>
      <trkpt lat="46.44802" lon="5.39797">
        <ele>470.39999389648</ele>
        <time>2020-07-31T07:48:15.000Z</time>
      </trkpt>
      <trkpt lat="46.44809" lon="5.39794">
        <ele>470.79998779297</ele>
        <time>2020-07-31T07:48:16.000Z</time>
      </trkpt>
      <trkpt lat="46.44816" lon="5.39791">
        <ele>471.39999389648</ele>
        <time>2020-07-31T07:48:17.000Z</time>
      </trkpt>
      <trkpt lat="46.44823" lon="5.39786">
        <ele>472</ele>
        <time>2020-07-31T07:48:18.000Z</time>
      </trkpt>
      <trkpt lat="46.44831" lon="5.39781">
        <ele>472</ele>
        <time>2020-07-31T07:48:19.000Z</time>
      </trkpt>
      <trkpt lat="46.44838" lon="5.39776">
        <ele>472</ele>
        <time>2020-07-31T07:48:20.000Z</time>
      </trkpt>
      <trkpt lat="46.44846" lon="5.39771">
        <ele>472</ele>
        <time>2020-07-31T07:48:21.000Z</time>
      </trkpt>
      <trkpt lat="46.44854" lon="5.39767">
        <ele>472</ele>
        <time>2020-07-31T07:48:22.000Z</time>
      </trkpt>
      <trkpt lat="46.44862" lon="5.39763">
        <ele>472</ele>
        <time>2020-07-31T07:48:23.000Z</time>
      </trkpt>
      <trkpt lat="46.44878" lon="5.39757">
        <ele>472</ele>
        <time>2020-07-31T07:48:25.000Z</time>
      </trkpt>
      <trkpt lat="46.44892" lon="5.39754">
        <ele>472.20001220703</ele>
        <time>2020-07-31T07:48:27.000Z</time>
      </trkpt>
      <trkpt lat="46.44906" lon="5.39751">
        <ele>472.20001220703</ele>
        <time>2020-07-31T07:48:29.000Z</time>
      </trkpt>
      <trkpt lat="46.44918" lon="5.39747">
        <ele>472.20001220703</ele>
        <time>2020-07-31T07:48:31.000Z</time>
      </trkpt>
      <trkpt lat="46.44932" lon="5.39742">
        <ele>472.20001220703</ele>
        <time>2020-07-31T07:48:33.000Z</time>
      </trkpt>
      <trkpt lat="46.44946" lon="5.39738">
        <ele>472.60000610352</ele>
        <time>2020-07-31T07:48:35.000Z</time>
      </trkpt>
      <trkpt lat="46.44961" lon="5.39734">
        <ele>473</ele>
        <time>2020-07-31T07:48:37.000Z</time>
      </trkpt>
      <trkpt lat="46.44976" lon="5.39727">
        <ele>473.20001220703</ele>
        <time>2020-07-31T07:48:39.000Z</time>
      </trkpt>
      <trkpt lat="46.4499" lon="5.39717">
        <ele>473.20001220703</ele>
        <time>2020-07-31T07:48:41.000Z</time>
      </trkpt>
      <trkpt lat="46.45002" lon="5.39704">
        <ele>473.39999389648</ele>
        <time>2020-07-31T07:48:43.000Z</time>
      </trkpt>
      <trkpt lat="46.45013" lon="5.39692">
        <ele>473.39999389648</ele>
        <time>2020-07-31T07:48:45.000Z</time>
      </trkpt>
      <trkpt lat="46.45024" lon="5.39681">
        <ele>473.60000610352</ele>
        <time>2020-07-31T07:48:47.000Z</time>
      </trkpt>
      <trkpt lat="46.45029" lon="5.39676">
        <ele>473.60000610352</ele>
        <time>2020-07-31T07:48:48.000Z</time>
      </trkpt>
      <trkpt lat="46.45035" lon="5.39671">
        <ele>473.60000610352</ele>
        <time>2020-07-31T07:48:49.000Z</time>
      </trkpt>
      <trkpt lat="46.45045" lon="5.39661">
        <ele>473.60000610352</ele>
        <time>2020-07-31T07:48:51.000Z</time>
      </trkpt>
      <trkpt lat="46.45056" lon="5.39653">
        <ele>473.79998779297</ele>
        <time>2020-07-31T07:48:53.000Z</time>
      </trkpt>
      <trkpt lat="46.45067" lon="5.39644">
        <ele>474.20001220703</ele>
        <time>2020-07-31T07:48:55.000Z</time>
      </trkpt>
      <trkpt lat="46.45078" lon="5.39636">
        <ele>474.60000610352</ele>
        <time>2020-07-31T07:48:57.000Z</time>
      </trkpt>
      <trkpt lat="46.45089" lon="5.39628">
        <ele>475.39999389648</ele>
        <time>2020-07-31T07:48:59.000Z</time>
      </trkpt>
      <trkpt lat="46.451" lon="5.39621">
        <ele>476</ele>
        <time>2020-07-31T07:49:01.000Z</time>
      </trkpt>
      <trkpt lat="46.45111" lon="5.39614">
        <ele>476.39999389648</ele>
        <time>2020-07-31T07:49:03.000Z</time>
      </trkpt>
      <trkpt lat="46.45117" lon="5.39611">
        <ele>476.60000610352</ele>
        <time>2020-07-31T07:49:04.000Z</time>
      </trkpt>
      <trkpt lat="46.45129" lon="5.39604">
        <ele>477.20001220703</ele>
        <time>2020-07-31T07:49:06.000Z</time>
      </trkpt>
      <trkpt lat="46.45136" lon="5.39601">
        <ele>477.60000610352</ele>
        <time>2020-07-31T07:49:07.000Z</time>
      </trkpt>
      <trkpt lat="46.45142" lon="5.39598">
        <ele>477.60000610352</ele>
        <time>2020-07-31T07:49:08.000Z</time>
      </trkpt>
      <trkpt lat="46.45156" lon="5.39591">
        <ele>477.79998779297</ele>
        <time>2020-07-31T07:49:10.000Z</time>
      </trkpt>
      <trkpt lat="46.4517" lon="5.39584">
        <ele>477.79998779297</ele>
        <time>2020-07-31T07:49:12.000Z</time>
      </trkpt>
      <trkpt lat="46.45185" lon="5.39578">
        <ele>477.79998779297</ele>
        <time>2020-07-31T07:49:14.000Z</time>
      </trkpt>
      <trkpt lat="46.45201" lon="5.3957">
        <ele>477.79998779297</ele>
        <time>2020-07-31T07:49:16.000Z</time>
      </trkpt>
      <trkpt lat="46.45218" lon="5.39563">
        <ele>477.60000610352</ele>
        <time>2020-07-31T07:49:18.000Z</time>
      </trkpt>
      <trkpt lat="46.45236" lon="5.39554">
        <ele>477.20001220703</ele>
        <time>2020-07-31T07:49:20.000Z</time>
      </trkpt>
      <trkpt lat="46.45244" lon="5.39549">
        <ele>476.79998779297</ele>
        <time>2020-07-31T07:49:21.000Z</time>
      </trkpt>
      <trkpt lat="46.45253" lon="5.39543">
        <ele>476.20001220703</ele>
        <time>2020-07-31T07:49:22.000Z</time>
      </trkpt>
      <trkpt lat="46.45269" lon="5.39529">
        <ele>475.20001220703</ele>
        <time>2020-07-31T07:49:24.000Z</time>
      </trkpt>
      <trkpt lat="46.45276" lon="5.39521">
        <ele>474.79998779297</ele>
        <time>2020-07-31T07:49:25.000Z</time>
      </trkpt>
      <trkpt lat="46.45284" lon="5.39513">
        <ele>474.20001220703</ele>
        <time>2020-07-31T07:49:26.000Z</time>
      </trkpt>
      <trkpt lat="46.45291" lon="5.39505">
        <ele>473.60000610352</ele>
        <time>2020-07-31T07:49:27.000Z</time>
      </trkpt>
      <trkpt lat="46.45297" lon="5.39496">
        <ele>473.20001220703</ele>
        <time>2020-07-31T07:49:28.000Z</time>
      </trkpt>
      <trkpt lat="46.45309" lon="5.39478">
        <ele>472.39999389648</ele>
        <time>2020-07-31T07:49:30.000Z</time>
      </trkpt>
      <trkpt lat="46.45314" lon="5.39469">
        <ele>472.20001220703</ele>
        <time>2020-07-31T07:49:31.000Z</time>
      </trkpt>
      <trkpt lat="46.45324" lon="5.3945">
        <ele>472</ele>
        <time>2020-07-31T07:49:33.000Z</time>
      </trkpt>
      <trkpt lat="46.45333" lon="5.39429">
        <ele>472</ele>
        <time>2020-07-31T07:49:35.000Z</time>
      </trkpt>
      <trkpt lat="46.45341" lon="5.39406">
        <ele>471.79998779297</ele>
        <time>2020-07-31T07:49:37.000Z</time>
      </trkpt>
      <trkpt lat="46.45349" lon="5.39382">
        <ele>471.79998779297</ele>
        <time>2020-07-31T07:49:39.000Z</time>
      </trkpt>
      <trkpt lat="46.45358" lon="5.39357">
        <ele>471.60000610352</ele>
        <time>2020-07-31T07:49:41.000Z</time>
      </trkpt>
      <trkpt lat="46.45363" lon="5.39344">
        <ele>471.39999389648</ele>
        <time>2020-07-31T07:49:42.000Z</time>
      </trkpt>
      <trkpt lat="46.45367" lon="5.39331">
        <ele>471.20001220703</ele>
        <time>2020-07-31T07:49:43.000Z</time>
      </trkpt>
      <trkpt lat="46.45377" lon="5.39305">
        <ele>470.79998779297</ele>
        <time>2020-07-31T07:49:45.000Z</time>
      </trkpt>
      <trkpt lat="46.45381" lon="5.39292">
        <ele>469.39999389648</ele>
        <time>2020-07-31T07:49:46.000Z</time>
      </trkpt>
      <trkpt lat="46.45386" lon="5.39279">
        <ele>469.20001220703</ele>
        <time>2020-07-31T07:49:47.000Z</time>
      </trkpt>
      <trkpt lat="46.45395" lon="5.39255">
        <ele>468</ele>
        <time>2020-07-31T07:49:49.000Z</time>
      </trkpt>
      <trkpt lat="46.45404" lon="5.39232">
        <ele>466.39999389648</ele>
        <time>2020-07-31T07:49:51.000Z</time>
      </trkpt>
      <trkpt lat="46.45408" lon="5.3922">
        <ele>465.20001220703</ele>
        <time>2020-07-31T07:49:52.000Z</time>
      </trkpt>
      <trkpt lat="46.45412" lon="5.39209">
        <ele>464.60000610352</ele>
        <time>2020-07-31T07:49:53.000Z</time>
      </trkpt>
      <trkpt lat="46.45415" lon="5.39198">
        <ele>464.20001220703</ele>
        <time>2020-07-31T07:49:54.000Z</time>
      </trkpt>
      <trkpt lat="46.45419" lon="5.39187">
        <ele>464</ele>
        <time>2020-07-31T07:49:55.000Z</time>
      </trkpt>
      <trkpt lat="46.45428" lon="5.39166">
        <ele>463.79998779297</ele>
        <time>2020-07-31T07:49:57.000Z</time>
      </trkpt>
      <trkpt lat="46.45435" lon="5.39145">
        <ele>463.60000610352</ele>
        <time>2020-07-31T07:49:59.000Z</time>
      </trkpt>
      <trkpt lat="46.45444" lon="5.39124">
        <ele>463.39999389648</ele>
        <time>2020-07-31T07:50:01.000Z</time>
      </trkpt>
      <trkpt lat="46.4545" lon="5.39115">
        <ele>463.39999389648</ele>
        <time>2020-07-31T07:50:02.000Z</time>
      </trkpt>
      <trkpt lat="46.4546" lon="5.39097">
        <ele>463.39999389648</ele>
        <time>2020-07-31T07:50:04.000Z</time>
      </trkpt>
      <trkpt lat="46.45464" lon="5.39089">
        <ele>463.20001220703</ele>
        <time>2020-07-31T07:50:05.000Z</time>
      </trkpt>
      <trkpt lat="46.45467" lon="5.39078">
        <ele>463.20001220703</ele>
        <time>2020-07-31T07:50:06.000Z</time>
      </trkpt>
      <trkpt lat="46.45471" lon="5.39054">
        <ele>463</ele>
        <time>2020-07-31T07:50:08.000Z</time>
      </trkpt>
      <trkpt lat="46.45477" lon="5.39029">
        <ele>462.60000610352</ele>
        <time>2020-07-31T07:50:10.000Z</time>
      </trkpt>
      <trkpt lat="46.45483" lon="5.39019">
        <ele>462.20001220703</ele>
        <time>2020-07-31T07:50:11.000Z</time>
      </trkpt>
      <trkpt lat="46.4549" lon="5.39009">
        <ele>461.39999389648</ele>
        <time>2020-07-31T07:50:12.000Z</time>
      </trkpt>
      <trkpt lat="46.45499" lon="5.39002">
        <ele>460.79998779297</ele>
        <time>2020-07-31T07:50:13.000Z</time>
      </trkpt>
      <trkpt lat="46.45508" lon="5.38998">
        <ele>460.20001220703</ele>
        <time>2020-07-31T07:50:14.000Z</time>
      </trkpt>
      <trkpt lat="46.45518" lon="5.38998">
        <ele>458.79998779297</ele>
        <time>2020-07-31T07:50:15.000Z</time>
      </trkpt>
      <trkpt lat="46.45528" lon="5.39001">
        <ele>457.60000610352</ele>
        <time>2020-07-31T07:50:16.000Z</time>
      </trkpt>
      <trkpt lat="46.45546" lon="5.39017">
        <ele>456.20001220703</ele>
        <time>2020-07-31T07:50:18.000Z</time>
      </trkpt>
      <trkpt lat="46.45554" lon="5.39027">
        <ele>455.79998779297</ele>
        <time>2020-07-31T07:50:19.000Z</time>
      </trkpt>
      <trkpt lat="46.45567" lon="5.39051">
        <ele>455</ele>
        <time>2020-07-31T07:50:21.000Z</time>
      </trkpt>
      <trkpt lat="46.45579" lon="5.39075">
        <ele>453.79998779297</ele>
        <time>2020-07-31T07:50:23.000Z</time>
      </trkpt>
      <trkpt lat="46.45591" lon="5.391">
        <ele>452.79998779297</ele>
        <time>2020-07-31T07:50:25.000Z</time>
      </trkpt>
      <trkpt lat="46.45597" lon="5.39112">
        <ele>452</ele>
        <time>2020-07-31T07:50:26.000Z</time>
      </trkpt>
      <trkpt lat="46.45603" lon="5.39125">
        <ele>451.60000610352</ele>
        <time>2020-07-31T07:50:27.000Z</time>
      </trkpt>
      <trkpt lat="46.45614" lon="5.39151">
        <ele>450.39999389648</ele>
        <time>2020-07-31T07:50:29.000Z</time>
      </trkpt>
      <trkpt lat="46.4562" lon="5.39164">
        <ele>450</ele>
        <time>2020-07-31T07:50:30.000Z</time>
      </trkpt>
      <trkpt lat="46.45627" lon="5.39176">
        <ele>449.60000610352</ele>
        <time>2020-07-31T07:50:31.000Z</time>
      </trkpt>
      <trkpt lat="46.45634" lon="5.39188">
        <ele>448.79998779297</ele>
        <time>2020-07-31T07:50:32.000Z</time>
      </trkpt>
      <trkpt lat="46.45642" lon="5.39197">
        <ele>448</ele>
        <time>2020-07-31T07:50:33.000Z</time>
      </trkpt>
      <trkpt lat="46.45652" lon="5.39203">
        <ele>447.20001220703</ele>
        <time>2020-07-31T07:50:34.000Z</time>
      </trkpt>
      <trkpt lat="46.45663" lon="5.39206">
        <ele>446.79998779297</ele>
        <time>2020-07-31T07:50:35.000Z</time>
      </trkpt>
      <trkpt lat="46.45687" lon="5.39204">
        <ele>445.60000610352</ele>
        <time>2020-07-31T07:50:37.000Z</time>
      </trkpt>
      <trkpt lat="46.457" lon="5.39202">
        <ele>445.20001220703</ele>
        <time>2020-07-31T07:50:38.000Z</time>
      </trkpt>
      <trkpt lat="46.45712" lon="5.39199">
        <ele>444.79998779297</ele>
        <time>2020-07-31T07:50:39.000Z</time>
      </trkpt>
      <trkpt lat="46.45724" lon="5.39196">
        <ele>444.20001220703</ele>
        <time>2020-07-31T07:50:40.000Z</time>
      </trkpt>
      <trkpt lat="46.45736" lon="5.39193">
        <ele>443.79998779297</ele>
        <time>2020-07-31T07:50:41.000Z</time>
      </trkpt>
      <trkpt lat="46.45748" lon="5.3919">
        <ele>443</ele>
        <time>2020-07-31T07:50:42.000Z</time>
      </trkpt>
      <trkpt lat="46.4576" lon="5.39185">
        <ele>442.39999389648</ele>
        <time>2020-07-31T07:50:43.000Z</time>
      </trkpt>
      <trkpt lat="46.45772" lon="5.3918">
        <ele>441</ele>
        <time>2020-07-31T07:50:44.000Z</time>
      </trkpt>
      <trkpt lat="46.45784" lon="5.39175">
        <ele>440</ele>
        <time>2020-07-31T07:50:45.000Z</time>
      </trkpt>
      <trkpt lat="46.45795" lon="5.39169">
        <ele>439.20001220703</ele>
        <time>2020-07-31T07:50:46.000Z</time>
      </trkpt>
      <trkpt lat="46.45807" lon="5.39163">
        <ele>438.39999389648</ele>
        <time>2020-07-31T07:50:47.000Z</time>
      </trkpt>
      <trkpt lat="46.45818" lon="5.39156">
        <ele>437.60000610352</ele>
        <time>2020-07-31T07:50:48.000Z</time>
      </trkpt>
      <trkpt lat="46.45829" lon="5.3915">
        <ele>436.79998779297</ele>
        <time>2020-07-31T07:50:49.000Z</time>
      </trkpt>
      <trkpt lat="46.45841" lon="5.39144">
        <ele>436</ele>
        <time>2020-07-31T07:50:50.000Z</time>
      </trkpt>
      <trkpt lat="46.45852" lon="5.39137">
        <ele>435.20001220703</ele>
        <time>2020-07-31T07:50:51.000Z</time>
      </trkpt>
      <trkpt lat="46.45864" lon="5.39134">
        <ele>434.79998779297</ele>
        <time>2020-07-31T07:50:52.000Z</time>
      </trkpt>
      <trkpt lat="46.45876" lon="5.39132">
        <ele>434.39999389648</ele>
        <time>2020-07-31T07:50:53.000Z</time>
      </trkpt>
      <trkpt lat="46.45897" lon="5.39116">
        <ele>433.39999389648</ele>
        <time>2020-07-31T07:50:55.000Z</time>
      </trkpt>
      <trkpt lat="46.45904" lon="5.39102">
        <ele>432.39999389648</ele>
        <time>2020-07-31T07:50:56.000Z</time>
      </trkpt>
      <trkpt lat="46.45907" lon="5.39085">
        <ele>431.60000610352</ele>
        <time>2020-07-31T07:50:57.000Z</time>
      </trkpt>
      <trkpt lat="46.45911" lon="5.39074">
        <ele>431</ele>
        <time>2020-07-31T07:50:58.000Z</time>
      </trkpt>
      <trkpt lat="46.45913" lon="5.39056">
        <ele>429.79998779297</ele>
        <time>2020-07-31T07:50:59.000Z</time>
      </trkpt>
      <trkpt lat="46.45919" lon="5.3904">
        <ele>429</ele>
        <time>2020-07-31T07:51:00.000Z</time>
      </trkpt>
      <trkpt lat="46.45927" lon="5.39027">
        <ele>428.39999389648</ele>
        <time>2020-07-31T07:51:01.000Z</time>
      </trkpt>
      <trkpt lat="46.45936" lon="5.39017">
        <ele>428</ele>
        <time>2020-07-31T07:51:02.000Z</time>
      </trkpt>
      <trkpt lat="46.45947" lon="5.39014">
        <ele>427.60000610352</ele>
        <time>2020-07-31T07:51:03.000Z</time>
      </trkpt>
      <trkpt lat="46.45958" lon="5.39013">
        <ele>427</ele>
        <time>2020-07-31T07:51:04.000Z</time>
      </trkpt>
      <trkpt lat="46.4597" lon="5.39011">
        <ele>426.39999389648</ele>
        <time>2020-07-31T07:51:05.000Z</time>
      </trkpt>
      <trkpt lat="46.45993" lon="5.38998">
        <ele>425.79998779297</ele>
        <time>2020-07-31T07:51:07.000Z</time>
      </trkpt>
      <trkpt lat="46.46004" lon="5.38968">
        <ele>423.79998779297</ele>
        <time>2020-07-31T07:51:09.000Z</time>
      </trkpt>
      <trkpt lat="46.46003" lon="5.38933">
        <ele>422.20001220703</ele>
        <time>2020-07-31T07:51:11.000Z</time>
      </trkpt>
      <trkpt lat="46.46002" lon="5.38915">
        <ele>421.79998779297</ele>
        <time>2020-07-31T07:51:12.000Z</time>
      </trkpt>
      <trkpt lat="46.46003" lon="5.38897">
        <ele>420.20001220703</ele>
        <time>2020-07-31T07:51:13.000Z</time>
      </trkpt>
      <trkpt lat="46.46006" lon="5.3888">
        <ele>419.39999389648</ele>
        <time>2020-07-31T07:51:14.000Z</time>
      </trkpt>
      <trkpt lat="46.4601" lon="5.38864">
        <ele>418.39999389648</ele>
        <time>2020-07-31T07:51:15.000Z</time>
      </trkpt>
      <trkpt lat="46.46018" lon="5.3883">
        <ele>416.79998779297</ele>
        <time>2020-07-31T07:51:17.000Z</time>
      </trkpt>
      <trkpt lat="46.46023" lon="5.38794">
        <ele>414.60000610352</ele>
        <time>2020-07-31T07:51:19.000Z</time>
      </trkpt>
      <trkpt lat="46.46027" lon="5.38777">
        <ele>413.20001220703</ele>
        <time>2020-07-31T07:51:20.000Z</time>
      </trkpt>
      <trkpt lat="46.46032" lon="5.38761">
        <ele>412</ele>
        <time>2020-07-31T07:51:21.000Z</time>
      </trkpt>
      <trkpt lat="46.4605" lon="5.38734">
        <ele>410.79998779297</ele>
        <time>2020-07-31T07:51:23.000Z</time>
      </trkpt>
      <trkpt lat="46.4607" lon="5.38716">
        <ele>410</ele>
        <time>2020-07-31T07:51:25.000Z</time>
      </trkpt>
      <trkpt lat="46.46078" lon="5.38706">
        <ele>409.60000610352</ele>
        <time>2020-07-31T07:51:26.000Z</time>
      </trkpt>
      <trkpt lat="46.46084" lon="5.38695">
        <ele>409.20001220703</ele>
        <time>2020-07-31T07:51:27.000Z</time>
      </trkpt>
      <trkpt lat="46.46086" lon="5.38682">
        <ele>408.79998779297</ele>
        <time>2020-07-31T07:51:28.000Z</time>
      </trkpt>
      <trkpt lat="46.46085" lon="5.38669">
        <ele>408.79998779297</ele>
        <time>2020-07-31T07:51:29.000Z</time>
      </trkpt>
      <trkpt lat="46.46081" lon="5.38655">
        <ele>408.60000610352</ele>
        <time>2020-07-31T07:51:30.000Z</time>
      </trkpt>
      <trkpt lat="46.46076" lon="5.38642">
        <ele>407.20001220703</ele>
        <time>2020-07-31T07:51:31.000Z</time>
      </trkpt>
      <trkpt lat="46.46065" lon="5.38615">
        <ele>406</ele>
        <time>2020-07-31T07:51:33.000Z</time>
      </trkpt>
      <trkpt lat="46.46053" lon="5.38586">
        <ele>405.39999389648</ele>
        <time>2020-07-31T07:51:35.000Z</time>
      </trkpt>
      <trkpt lat="46.46039" lon="5.38558">
        <ele>404.60000610352</ele>
        <time>2020-07-31T07:51:37.000Z</time>
      </trkpt>
      <trkpt lat="46.46031" lon="5.38545">
        <ele>403.60000610352</ele>
        <time>2020-07-31T07:51:38.000Z</time>
      </trkpt>
      <trkpt lat="46.46022" lon="5.38534">
        <ele>403</ele>
        <time>2020-07-31T07:51:39.000Z</time>
      </trkpt>
      <trkpt lat="46.46003" lon="5.38512">
        <ele>402</ele>
        <time>2020-07-31T07:51:41.000Z</time>
      </trkpt>
      <trkpt lat="46.45985" lon="5.3849">
        <ele>401.20001220703</ele>
        <time>2020-07-31T07:51:43.000Z</time>
      </trkpt>
      <trkpt lat="46.45976" lon="5.38479">
        <ele>400.39999389648</ele>
        <time>2020-07-31T07:51:44.000Z</time>
      </trkpt>
      <trkpt lat="46.45966" lon="5.38468">
        <ele>399.39999389648</ele>
        <time>2020-07-31T07:51:45.000Z</time>
      </trkpt>
      <trkpt lat="46.45957" lon="5.38456">
        <ele>398.39999389648</ele>
        <time>2020-07-31T07:51:46.000Z</time>
      </trkpt>
      <trkpt lat="46.45948" lon="5.38445">
        <ele>396.60000610352</ele>
        <time>2020-07-31T07:51:47.000Z</time>
      </trkpt>
      <trkpt lat="46.45939" lon="5.38434">
        <ele>395.20001220703</ele>
        <time>2020-07-31T07:51:48.000Z</time>
      </trkpt>
      <trkpt lat="46.4593" lon="5.38422">
        <ele>394.39999389648</ele>
        <time>2020-07-31T07:51:49.000Z</time>
      </trkpt>
      <trkpt lat="46.45922" lon="5.3841">
        <ele>393.60000610352</ele>
        <time>2020-07-31T07:51:50.000Z</time>
      </trkpt>
      <trkpt lat="46.45913" lon="5.38398">
        <ele>393</ele>
        <time>2020-07-31T07:51:51.000Z</time>
      </trkpt>
      <trkpt lat="46.45905" lon="5.38385">
        <ele>392.60000610352</ele>
        <time>2020-07-31T07:51:52.000Z</time>
      </trkpt>
      <trkpt lat="46.45897" lon="5.38373">
        <ele>392</ele>
        <time>2020-07-31T07:51:53.000Z</time>
      </trkpt>
      <trkpt lat="46.45889" lon="5.3836">
        <ele>391.20001220703</ele>
        <time>2020-07-31T07:51:54.000Z</time>
      </trkpt>
      <trkpt lat="46.4588" lon="5.38347">
        <ele>389.60000610352</ele>
        <time>2020-07-31T07:51:55.000Z</time>
      </trkpt>
      <trkpt lat="46.45862" lon="5.38322">
        <ele>387.79998779297</ele>
        <time>2020-07-31T07:51:57.000Z</time>
      </trkpt>
      <trkpt lat="46.45843" lon="5.38299">
        <ele>387.20001220703</ele>
        <time>2020-07-31T07:51:59.000Z</time>
      </trkpt>
      <trkpt lat="46.45821" lon="5.38281">
        <ele>386.79998779297</ele>
        <time>2020-07-31T07:52:01.000Z</time>
      </trkpt>
      <trkpt lat="46.45799" lon="5.38263">
        <ele>386.79998779297</ele>
        <time>2020-07-31T07:52:03.000Z</time>
      </trkpt>
      <trkpt lat="46.45778" lon="5.38243">
        <ele>385.60000610352</ele>
        <time>2020-07-31T07:52:05.000Z</time>
      </trkpt>
      <trkpt lat="46.45769" lon="5.38232">
        <ele>384.60000610352</ele>
        <time>2020-07-31T07:52:06.000Z</time>
      </trkpt>
      <trkpt lat="46.4576" lon="5.38219">
        <ele>383.39999389648</ele>
        <time>2020-07-31T07:52:07.000Z</time>
      </trkpt>
      <trkpt lat="46.45746" lon="5.38189">
        <ele>382.20001220703</ele>
        <time>2020-07-31T07:52:09.000Z</time>
      </trkpt>
      <trkpt lat="46.4574" lon="5.38173">
        <ele>381.79998779297</ele>
        <time>2020-07-31T07:52:10.000Z</time>
      </trkpt>
      <trkpt lat="46.45736" lon="5.38156">
        <ele>380.79998779297</ele>
        <time>2020-07-31T07:52:11.000Z</time>
      </trkpt>
      <trkpt lat="46.45733" lon="5.38121">
        <ele>378.79998779297</ele>
        <time>2020-07-31T07:52:13.000Z</time>
      </trkpt>
      <trkpt lat="46.45734" lon="5.38086">
        <ele>377</ele>
        <time>2020-07-31T07:52:15.000Z</time>
      </trkpt>
      <trkpt lat="46.45735" lon="5.38069">
        <ele>376</ele>
        <time>2020-07-31T07:52:16.000Z</time>
      </trkpt>
      <trkpt lat="46.45734" lon="5.38051">
        <ele>375.20001220703</ele>
        <time>2020-07-31T07:52:17.000Z</time>
      </trkpt>
      <trkpt lat="46.45731" lon="5.38034">
        <ele>374.39999389648</ele>
        <time>2020-07-31T07:52:18.000Z</time>
      </trkpt>
      <trkpt lat="46.45729" lon="5.38016">
        <ele>373.39999389648</ele>
        <time>2020-07-31T07:52:19.000Z</time>
      </trkpt>
      <trkpt lat="46.45728" lon="5.37998">
        <ele>372.39999389648</ele>
        <time>2020-07-31T07:52:20.000Z</time>
      </trkpt>
      <trkpt lat="46.45728" lon="5.3798">
        <ele>371.39999389648</ele>
        <time>2020-07-31T07:52:21.000Z</time>
      </trkpt>
      <trkpt lat="46.45729" lon="5.37944">
        <ele>370.39999389648</ele>
        <time>2020-07-31T07:52:23.000Z</time>
      </trkpt>
      <trkpt lat="46.45729" lon="5.37927">
        <ele>370.20001220703</ele>
        <time>2020-07-31T07:52:24.000Z</time>
      </trkpt>
      <trkpt lat="46.45728" lon="5.3791">
        <ele>370</ele>
        <time>2020-07-31T07:52:25.000Z</time>
      </trkpt>
      <trkpt lat="46.45723" lon="5.37877">
        <ele>369.60000610352</ele>
        <time>2020-07-31T07:52:27.000Z</time>
      </trkpt>
      <trkpt lat="46.45718" lon="5.37844">
        <ele>368.39999389648</ele>
        <time>2020-07-31T07:52:29.000Z</time>
      </trkpt>
      <trkpt lat="46.45716" lon="5.37828">
        <ele>366.39999389648</ele>
        <time>2020-07-31T07:52:30.000Z</time>
      </trkpt>
      <trkpt lat="46.45714" lon="5.37811">
        <ele>364.79998779297</ele>
        <time>2020-07-31T07:52:31.000Z</time>
      </trkpt>
      <trkpt lat="46.45713" lon="5.37795">
        <ele>364</ele>
        <time>2020-07-31T07:52:32.000Z</time>
      </trkpt>
      <trkpt lat="46.45711" lon="5.37778">
        <ele>363.39999389648</ele>
        <time>2020-07-31T07:52:33.000Z</time>
      </trkpt>
      <trkpt lat="46.45707" lon="5.37746">
        <ele>362.20001220703</ele>
        <time>2020-07-31T07:52:35.000Z</time>
      </trkpt>
      <trkpt lat="46.45702" lon="5.37714">
        <ele>361.20001220703</ele>
        <time>2020-07-31T07:52:37.000Z</time>
      </trkpt>
      <trkpt lat="46.457" lon="5.37698">
        <ele>360.60000610352</ele>
        <time>2020-07-31T07:52:38.000Z</time>
      </trkpt>
      <trkpt lat="46.45699" lon="5.37681">
        <ele>360.20001220703</ele>
        <time>2020-07-31T07:52:39.000Z</time>
      </trkpt>
      <trkpt lat="46.45699" lon="5.37664">
        <ele>360</ele>
        <time>2020-07-31T07:52:40.000Z</time>
      </trkpt>
      <trkpt lat="46.45701" lon="5.37647">
        <ele>359</ele>
        <time>2020-07-31T07:52:41.000Z</time>
      </trkpt>
      <trkpt lat="46.45703" lon="5.37629">
        <ele>358.60000610352</ele>
        <time>2020-07-31T07:52:42.000Z</time>
      </trkpt>
      <trkpt lat="46.45705" lon="5.37612">
        <ele>358.39999389648</ele>
        <time>2020-07-31T07:52:43.000Z</time>
      </trkpt>
      <trkpt lat="46.45709" lon="5.37594">
        <ele>358</ele>
        <time>2020-07-31T07:52:44.000Z</time>
      </trkpt>
      <trkpt lat="46.45712" lon="5.37576">
        <ele>357.60000610352</ele>
        <time>2020-07-31T07:52:45.000Z</time>
      </trkpt>
      <trkpt lat="46.45718" lon="5.3754">
        <ele>357.20001220703</ele>
        <time>2020-07-31T07:52:47.000Z</time>
      </trkpt>
      <trkpt lat="46.45719" lon="5.37522">
        <ele>356.79998779297</ele>
        <time>2020-07-31T07:52:48.000Z</time>
      </trkpt>
      <trkpt lat="46.4572" lon="5.37503">
        <ele>356.60000610352</ele>
        <time>2020-07-31T07:52:49.000Z</time>
      </trkpt>
      <trkpt lat="46.4572" lon="5.37484">
        <ele>356.39999389648</ele>
        <time>2020-07-31T07:52:50.000Z</time>
      </trkpt>
      <trkpt lat="46.4572" lon="5.37466">
        <ele>356.39999389648</ele>
        <time>2020-07-31T07:52:51.000Z</time>
      </trkpt>
      <trkpt lat="46.45724" lon="5.37429">
        <ele>355.79998779297</ele>
        <time>2020-07-31T07:52:53.000Z</time>
      </trkpt>
      <trkpt lat="46.45726" lon="5.37411">
        <ele>355.39999389648</ele>
        <time>2020-07-31T07:52:54.000Z</time>
      </trkpt>
      <trkpt lat="46.45729" lon="5.37393">
        <ele>354.60000610352</ele>
        <time>2020-07-31T07:52:55.000Z</time>
      </trkpt>
      <trkpt lat="46.45732" lon="5.37375">
        <ele>353.39999389648</ele>
        <time>2020-07-31T07:52:56.000Z</time>
      </trkpt>
      <trkpt lat="46.45735" lon="5.37357">
        <ele>352.20001220703</ele>
        <time>2020-07-31T07:52:57.000Z</time>
      </trkpt>
      <trkpt lat="46.45739" lon="5.3734">
        <ele>350.79998779297</ele>
        <time>2020-07-31T07:52:58.000Z</time>
      </trkpt>
      <trkpt lat="46.45744" lon="5.37323">
        <ele>349.79998779297</ele>
        <time>2020-07-31T07:52:59.000Z</time>
      </trkpt>
      <trkpt lat="46.45755" lon="5.3729">
        <ele>348.39999389648</ele>
        <time>2020-07-31T07:53:01.000Z</time>
      </trkpt>
      <trkpt lat="46.45765" lon="5.37256">
        <ele>347.60000610352</ele>
        <time>2020-07-31T07:53:03.000Z</time>
      </trkpt>
      <trkpt lat="46.45766" lon="5.37239">
        <ele>347.20001220703</ele>
        <time>2020-07-31T07:53:04.000Z</time>
      </trkpt>
      <trkpt lat="46.45763" lon="5.37221">
        <ele>346.60000610352</ele>
        <time>2020-07-31T07:53:05.000Z</time>
      </trkpt>
      <trkpt lat="46.45758" lon="5.37205">
        <ele>346</ele>
        <time>2020-07-31T07:53:06.000Z</time>
      </trkpt>
      <trkpt lat="46.4575" lon="5.37192">
        <ele>345.39999389648</ele>
        <time>2020-07-31T07:53:07.000Z</time>
      </trkpt>
      <trkpt lat="46.45741" lon="5.3718">
        <ele>345</ele>
        <time>2020-07-31T07:53:08.000Z</time>
      </trkpt>
      <trkpt lat="46.45724" lon="5.37154">
        <ele>342.60000610352</ele>
        <time>2020-07-31T07:53:10.000Z</time>
      </trkpt>
      <trkpt lat="46.45717" lon="5.3714">
        <ele>341.39999389648</ele>
        <time>2020-07-31T07:53:11.000Z</time>
      </trkpt>
      <trkpt lat="46.45711" lon="5.37125">
        <ele>340.60000610352</ele>
        <time>2020-07-31T07:53:12.000Z</time>
      </trkpt>
      <trkpt lat="46.45706" lon="5.37108">
        <ele>340</ele>
        <time>2020-07-31T07:53:13.000Z</time>
      </trkpt>
      <trkpt lat="46.45704" lon="5.37091">
        <ele>339.39999389648</ele>
        <time>2020-07-31T07:53:14.000Z</time>
      </trkpt>
      <trkpt lat="46.45702" lon="5.37074">
        <ele>339</ele>
        <time>2020-07-31T07:53:15.000Z</time>
      </trkpt>
      <trkpt lat="46.45702" lon="5.37057">
        <ele>338.39999389648</ele>
        <time>2020-07-31T07:53:16.000Z</time>
      </trkpt>
      <trkpt lat="46.45703" lon="5.37039">
        <ele>337.79998779297</ele>
        <time>2020-07-31T07:53:17.000Z</time>
      </trkpt>
      <trkpt lat="46.45703" lon="5.37022">
        <ele>337</ele>
        <time>2020-07-31T07:53:18.000Z</time>
      </trkpt>
      <trkpt lat="46.45704" lon="5.37004">
        <ele>336.20001220703</ele>
        <time>2020-07-31T07:53:19.000Z</time>
      </trkpt>
      <trkpt lat="46.45706" lon="5.36987">
        <ele>335.60000610352</ele>
        <time>2020-07-31T07:53:20.000Z</time>
      </trkpt>
      <trkpt lat="46.45707" lon="5.36969">
        <ele>335</ele>
        <time>2020-07-31T07:53:21.000Z</time>
      </trkpt>
      <trkpt lat="46.45711" lon="5.36934">
        <ele>334.20001220703</ele>
        <time>2020-07-31T07:53:23.000Z</time>
      </trkpt>
      <trkpt lat="46.45714" lon="5.36917">
        <ele>333.79998779297</ele>
        <time>2020-07-31T07:53:24.000Z</time>
      </trkpt>
      <trkpt lat="46.45719" lon="5.369">
        <ele>333.39999389648</ele>
        <time>2020-07-31T07:53:25.000Z</time>
      </trkpt>
      <trkpt lat="46.45724" lon="5.36884">
        <ele>332.79998779297</ele>
        <time>2020-07-31T07:53:26.000Z</time>
      </trkpt>
      <trkpt lat="46.45729" lon="5.36868">
        <ele>332</ele>
        <time>2020-07-31T07:53:27.000Z</time>
      </trkpt>
      <trkpt lat="46.45734" lon="5.36852">
        <ele>331</ele>
        <time>2020-07-31T07:53:28.000Z</time>
      </trkpt>
      <trkpt lat="46.4574" lon="5.36836">
        <ele>330.60000610352</ele>
        <time>2020-07-31T07:53:29.000Z</time>
      </trkpt>
      <trkpt lat="46.45751" lon="5.36805">
        <ele>329.60000610352</ele>
        <time>2020-07-31T07:53:31.000Z</time>
      </trkpt>
      <trkpt lat="46.45762" lon="5.36774">
        <ele>328</ele>
        <time>2020-07-31T07:53:33.000Z</time>
      </trkpt>
      <trkpt lat="46.45768" lon="5.36758">
        <ele>327</ele>
        <time>2020-07-31T07:53:34.000Z</time>
      </trkpt>
      <trkpt lat="46.45773" lon="5.36742">
        <ele>326.20001220703</ele>
        <time>2020-07-31T07:53:35.000Z</time>
      </trkpt>
      <trkpt lat="46.45778" lon="5.36726">
        <ele>325.60000610352</ele>
        <time>2020-07-31T07:53:36.000Z</time>
      </trkpt>
      <trkpt lat="46.45783" lon="5.36709">
        <ele>325</ele>
        <time>2020-07-31T07:53:37.000Z</time>
      </trkpt>
      <trkpt lat="46.45788" lon="5.36693">
        <ele>324.60000610352</ele>
        <time>2020-07-31T07:53:38.000Z</time>
      </trkpt>
      <trkpt lat="46.45793" lon="5.36677">
        <ele>324</ele>
        <time>2020-07-31T07:53:39.000Z</time>
      </trkpt>
      <trkpt lat="46.458" lon="5.36661">
        <ele>323.39999389648</ele>
        <time>2020-07-31T07:53:40.000Z</time>
      </trkpt>
      <trkpt lat="46.45807" lon="5.36646">
        <ele>322.79998779297</ele>
        <time>2020-07-31T07:53:41.000Z</time>
      </trkpt>
      <trkpt lat="46.45816" lon="5.36632">
        <ele>322.20001220703</ele>
        <time>2020-07-31T07:53:42.000Z</time>
      </trkpt>
      <trkpt lat="46.45825" lon="5.36619">
        <ele>321.60000610352</ele>
        <time>2020-07-31T07:53:43.000Z</time>
      </trkpt>
      <trkpt lat="46.45834" lon="5.36606">
        <ele>321</ele>
        <time>2020-07-31T07:53:44.000Z</time>
      </trkpt>
      <trkpt lat="46.45843" lon="5.36592">
        <ele>320.39999389648</ele>
        <time>2020-07-31T07:53:45.000Z</time>
      </trkpt>
      <trkpt lat="46.45851" lon="5.36578">
        <ele>319.60000610352</ele>
        <time>2020-07-31T07:53:46.000Z</time>
      </trkpt>
      <trkpt lat="46.45858" lon="5.36563">
        <ele>319</ele>
        <time>2020-07-31T07:53:47.000Z</time>
      </trkpt>
      <trkpt lat="46.45863" lon="5.36548">
        <ele>318</ele>
        <time>2020-07-31T07:53:48.000Z</time>
      </trkpt>
      <trkpt lat="46.45866" lon="5.36531">
        <ele>317.20001220703</ele>
        <time>2020-07-31T07:53:49.000Z</time>
      </trkpt>
      <trkpt lat="46.45865" lon="5.36515">
        <ele>316.20001220703</ele>
        <time>2020-07-31T07:53:50.000Z</time>
      </trkpt>
      <trkpt lat="46.4586" lon="5.36501">
        <ele>315.39999389648</ele>
        <time>2020-07-31T07:53:51.000Z</time>
      </trkpt>
      <trkpt lat="46.45853" lon="5.36489">
        <ele>314.79998779297</ele>
        <time>2020-07-31T07:53:52.000Z</time>
      </trkpt>
      <trkpt lat="46.45843" lon="5.36481">
        <ele>314.39999389648</ele>
        <time>2020-07-31T07:53:53.000Z</time>
      </trkpt>
      <trkpt lat="46.45832" lon="5.36478">
        <ele>313.79998779297</ele>
        <time>2020-07-31T07:53:54.000Z</time>
      </trkpt>
      <trkpt lat="46.45821" lon="5.36478">
        <ele>313.20001220703</ele>
        <time>2020-07-31T07:53:55.000Z</time>
      </trkpt>
      <trkpt lat="46.45811" lon="5.3648">
        <ele>312.79998779297</ele>
        <time>2020-07-31T07:53:56.000Z</time>
      </trkpt>
      <trkpt lat="46.45801" lon="5.36482">
        <ele>312.39999389648</ele>
        <time>2020-07-31T07:53:57.000Z</time>
      </trkpt>
      <trkpt lat="46.45791" lon="5.36482">
        <ele>312</ele>
        <time>2020-07-31T07:53:58.000Z</time>
      </trkpt>
      <trkpt lat="46.45781" lon="5.3648">
        <ele>311.20001220703</ele>
        <time>2020-07-31T07:53:59.000Z</time>
      </trkpt>
      <trkpt lat="46.45773" lon="5.36473">
        <ele>309.79998779297</ele>
        <time>2020-07-31T07:54:00.000Z</time>
      </trkpt>
      <trkpt lat="46.45766" lon="5.36462">
        <ele>308.79998779297</ele>
        <time>2020-07-31T07:54:01.000Z</time>
      </trkpt>
      <trkpt lat="46.45763" lon="5.36434">
        <ele>307.60000610352</ele>
        <time>2020-07-31T07:54:03.000Z</time>
      </trkpt>
      <trkpt lat="46.45771" lon="5.36405">
        <ele>306.79998779297</ele>
        <time>2020-07-31T07:54:05.000Z</time>
      </trkpt>
      <trkpt lat="46.45777" lon="5.36393">
        <ele>306.39999389648</ele>
        <time>2020-07-31T07:54:06.000Z</time>
      </trkpt>
      <trkpt lat="46.45785" lon="5.36382">
        <ele>305.60000610352</ele>
        <time>2020-07-31T07:54:07.000Z</time>
      </trkpt>
      <trkpt lat="46.45794" lon="5.36373">
        <ele>305</ele>
        <time>2020-07-31T07:54:08.000Z</time>
      </trkpt>
      <trkpt lat="46.45801" lon="5.36363">
        <ele>304.60000610352</ele>
        <time>2020-07-31T07:54:09.000Z</time>
      </trkpt>
      <trkpt lat="46.45807" lon="5.36351">
        <ele>304.20001220703</ele>
        <time>2020-07-31T07:54:10.000Z</time>
      </trkpt>
      <trkpt lat="46.45809" lon="5.36338">
        <ele>303.60000610352</ele>
        <time>2020-07-31T07:54:11.000Z</time>
      </trkpt>
      <trkpt lat="46.45807" lon="5.36325">
        <ele>302.79998779297</ele>
        <time>2020-07-31T07:54:12.000Z</time>
      </trkpt>
      <trkpt lat="46.45802" lon="5.36315">
        <ele>302.20001220703</ele>
        <time>2020-07-31T07:54:13.000Z</time>
      </trkpt>
      <trkpt lat="46.45794" lon="5.36309">
        <ele>301.60000610352</ele>
        <time>2020-07-31T07:54:14.000Z</time>
      </trkpt>
      <trkpt lat="46.45785" lon="5.36309">
        <ele>301</ele>
        <time>2020-07-31T07:54:15.000Z</time>
      </trkpt>
      <trkpt lat="46.45776" lon="5.36313">
        <ele>300.79998779297</ele>
        <time>2020-07-31T07:54:16.000Z</time>
      </trkpt>
      <trkpt lat="46.45769" lon="5.36322">
        <ele>300.60000610352</ele>
        <time>2020-07-31T07:54:17.000Z</time>
      </trkpt>
      <trkpt lat="46.45758" lon="5.36343">
        <ele>300.20001220703</ele>
        <time>2020-07-31T07:54:19.000Z</time>
      </trkpt>
      <trkpt lat="46.45753" lon="5.36355">
        <ele>299.79998779297</ele>
        <time>2020-07-31T07:54:20.000Z</time>
      </trkpt>
      <trkpt lat="46.45749" lon="5.36366">
        <ele>299.39999389648</ele>
        <time>2020-07-31T07:54:21.000Z</time>
      </trkpt>
      <trkpt lat="46.45744" lon="5.36378">
        <ele>298.60000610352</ele>
        <time>2020-07-31T07:54:22.000Z</time>
      </trkpt>
      <trkpt lat="46.45739" lon="5.36389">
        <ele>297.60000610352</ele>
        <time>2020-07-31T07:54:23.000Z</time>
      </trkpt>
      <trkpt lat="46.45734" lon="5.364">
        <ele>297</ele>
        <time>2020-07-31T07:54:24.000Z</time>
      </trkpt>
      <trkpt lat="46.4573" lon="5.36412">
        <ele>296.39999389648</ele>
        <time>2020-07-31T07:54:25.000Z</time>
      </trkpt>
      <trkpt lat="46.45725" lon="5.36424">
        <ele>295.79998779297</ele>
        <time>2020-07-31T07:54:26.000Z</time>
      </trkpt>
      <trkpt lat="46.45719" lon="5.36435">
        <ele>295.39999389648</ele>
        <time>2020-07-31T07:54:27.000Z</time>
      </trkpt>
      <trkpt lat="46.45705" lon="5.36454">
        <ele>295</ele>
        <time>2020-07-31T07:54:29.000Z</time>
      </trkpt>
      <trkpt lat="46.45696" lon="5.3646">
        <ele>294.79998779297</ele>
        <time>2020-07-31T07:54:30.000Z</time>
      </trkpt>
      <trkpt lat="46.45688" lon="5.36462">
        <ele>294.79998779297</ele>
        <time>2020-07-31T07:54:31.000Z</time>
      </trkpt>
      <trkpt lat="46.45673" lon="5.36451">
        <ele>294.60000610352</ele>
        <time>2020-07-31T07:54:33.000Z</time>
      </trkpt>
      <trkpt lat="46.45669" lon="5.36428">
        <ele>293.79998779297</ele>
        <time>2020-07-31T07:54:35.000Z</time>
      </trkpt>
      <trkpt lat="46.45674" lon="5.36404">
        <ele>292.60000610352</ele>
        <time>2020-07-31T07:54:37.000Z</time>
      </trkpt>
      <trkpt lat="46.45678" lon="5.36392">
        <ele>292.39999389648</ele>
        <time>2020-07-31T07:54:38.000Z</time>
      </trkpt>
      <trkpt lat="46.45683" lon="5.3638">
        <ele>292</ele>
        <time>2020-07-31T07:54:39.000Z</time>
      </trkpt>
      <trkpt lat="46.45691" lon="5.36356">
        <ele>291</ele>
        <time>2020-07-31T07:54:41.000Z</time>
      </trkpt>
      <trkpt lat="46.45699" lon="5.3633">
        <ele>289.79998779297</ele>
        <time>2020-07-31T07:54:43.000Z</time>
      </trkpt>
      <trkpt lat="46.45703" lon="5.36317">
        <ele>289.39999389648</ele>
        <time>2020-07-31T07:54:44.000Z</time>
      </trkpt>
      <trkpt lat="46.45708" lon="5.36304">
        <ele>289.20001220703</ele>
        <time>2020-07-31T07:54:45.000Z</time>
      </trkpt>
      <trkpt lat="46.45717" lon="5.36276">
        <ele>289</ele>
        <time>2020-07-31T07:54:47.000Z</time>
      </trkpt>
      <trkpt lat="46.45722" lon="5.36263">
        <ele>288.60000610352</ele>
        <time>2020-07-31T07:54:48.000Z</time>
      </trkpt>
      <trkpt lat="46.45727" lon="5.36249">
        <ele>288.20001220703</ele>
        <time>2020-07-31T07:54:49.000Z</time>
      </trkpt>
      <trkpt lat="46.45737" lon="5.36221">
        <ele>287</ele>
        <time>2020-07-31T07:54:51.000Z</time>
      </trkpt>
      <trkpt lat="46.45747" lon="5.36192">
        <ele>285.60000610352</ele>
        <time>2020-07-31T07:54:53.000Z</time>
      </trkpt>
      <trkpt lat="46.45756" lon="5.36163">
        <ele>283.60000610352</ele>
        <time>2020-07-31T07:54:55.000Z</time>
      </trkpt>
      <trkpt lat="46.45758" lon="5.36147">
        <ele>282.20001220703</ele>
        <time>2020-07-31T07:54:56.000Z</time>
      </trkpt>
      <trkpt lat="46.45759" lon="5.36131">
        <ele>281.20001220703</ele>
        <time>2020-07-31T07:54:57.000Z</time>
      </trkpt>
      <trkpt lat="46.45759" lon="5.36115">
        <ele>280.39999389648</ele>
        <time>2020-07-31T07:54:58.000Z</time>
      </trkpt>
      <trkpt lat="46.45759" lon="5.36099">
        <ele>279.60000610352</ele>
        <time>2020-07-31T07:54:59.000Z</time>
      </trkpt>
      <trkpt lat="46.4576" lon="5.36084">
        <ele>279.20001220703</ele>
        <time>2020-07-31T07:55:00.000Z</time>
      </trkpt>
      <trkpt lat="46.45762" lon="5.36069">
        <ele>278.79998779297</ele>
        <time>2020-07-31T07:55:01.000Z</time>
      </trkpt>
      <trkpt lat="46.45766" lon="5.36057">
        <ele>278</ele>
        <time>2020-07-31T07:55:02.000Z</time>
      </trkpt>
      <trkpt lat="46.45772" lon="5.36046">
        <ele>277.60000610352</ele>
        <time>2020-07-31T07:55:03.000Z</time>
      </trkpt>
      <trkpt lat="46.45778" lon="5.36037">
        <ele>277.20001220703</ele>
        <time>2020-07-31T07:55:04.000Z</time>
      </trkpt>
      <trkpt lat="46.45785" lon="5.36031">
        <ele>277.20001220703</ele>
        <time>2020-07-31T07:55:05.000Z</time>
      </trkpt>
      <trkpt lat="46.45793" lon="5.36025">
        <ele>277.20001220703</ele>
        <time>2020-07-31T07:55:06.000Z</time>
      </trkpt>
      <trkpt lat="46.45801" lon="5.36021">
        <ele>277.20001220703</ele>
        <time>2020-07-31T07:55:07.000Z</time>
      </trkpt>
      <trkpt lat="46.45808" lon="5.36016">
        <ele>277</ele>
        <time>2020-07-31T07:55:08.000Z</time>
      </trkpt>
      <trkpt lat="46.45824" lon="5.36007">
        <ele>277</ele>
        <time>2020-07-31T07:55:10.000Z</time>
      </trkpt>
      <trkpt lat="46.45831" lon="5.36003">
        <ele>277.20001220703</ele>
        <time>2020-07-31T07:55:11.000Z</time>
      </trkpt>
      <trkpt lat="46.45846" lon="5.35994">
        <ele>278</ele>
        <time>2020-07-31T07:55:13.000Z</time>
      </trkpt>
      <trkpt lat="46.45854" lon="5.3599">
        <ele>278.39999389648</ele>
        <time>2020-07-31T07:55:14.000Z</time>
      </trkpt>
      <trkpt lat="46.45869" lon="5.35982">
        <ele>279</ele>
        <time>2020-07-31T07:55:16.000Z</time>
      </trkpt>
      <trkpt lat="46.45884" lon="5.35974">
        <ele>279.39999389648</ele>
        <time>2020-07-31T07:55:18.000Z</time>
      </trkpt>
      <trkpt lat="46.45899" lon="5.35966">
        <ele>279.60000610352</ele>
        <time>2020-07-31T07:55:20.000Z</time>
      </trkpt>
      <trkpt lat="46.45907" lon="5.35962">
        <ele>279.60000610352</ele>
        <time>2020-07-31T07:55:21.000Z</time>
      </trkpt>
      <trkpt lat="46.45922" lon="5.35954">
        <ele>279.79998779297</ele>
        <time>2020-07-31T07:55:23.000Z</time>
      </trkpt>
      <trkpt lat="46.45937" lon="5.35945">
        <ele>279.79998779297</ele>
        <time>2020-07-31T07:55:25.000Z</time>
      </trkpt>
      <trkpt lat="46.45942" lon="5.35938">
        <ele>279.79998779297</ele>
        <time>2020-07-31T07:55:26.000Z</time>
      </trkpt>
      <trkpt lat="46.45947" lon="5.35919">
        <ele>279.79998779297</ele>
        <time>2020-07-31T07:55:28.000Z</time>
      </trkpt>
      <trkpt lat="46.45946" lon="5.35909">
        <ele>279.60000610352</ele>
        <time>2020-07-31T07:55:29.000Z</time>
      </trkpt>
      <trkpt lat="46.4594" lon="5.35889">
        <ele>279.39999389648</ele>
        <time>2020-07-31T07:55:31.000Z</time>
      </trkpt>
      <trkpt lat="46.45932" lon="5.35859">
        <ele>279.20001220703</ele>
        <time>2020-07-31T07:55:34.000Z</time>
      </trkpt>
      <trkpt lat="46.45928" lon="5.35838">
        <ele>278.79998779297</ele>
        <time>2020-07-31T07:55:36.000Z</time>
      </trkpt>
      <trkpt lat="46.45926" lon="5.35827">
        <ele>278.60000610352</ele>
        <time>2020-07-31T07:55:37.000Z</time>
      </trkpt>
      <trkpt lat="46.45925" lon="5.35817">
        <ele>278</ele>
        <time>2020-07-31T07:55:38.000Z</time>
      </trkpt>
      <trkpt lat="46.45922" lon="5.35796">
        <ele>277.20001220703</ele>
        <time>2020-07-31T07:55:40.000Z</time>
      </trkpt>
      <trkpt lat="46.45921" lon="5.35786">
        <ele>277</ele>
        <time>2020-07-31T07:55:41.000Z</time>
      </trkpt>
      <trkpt lat="46.4592" lon="5.35776">
        <ele>277</ele>
        <time>2020-07-31T07:55:42.000Z</time>
      </trkpt>
      <trkpt lat="46.45918" lon="5.35755">
        <ele>276.79998779297</ele>
        <time>2020-07-31T07:55:44.000Z</time>
      </trkpt>
      <trkpt lat="46.45916" lon="5.35736">
        <ele>276.60000610352</ele>
        <time>2020-07-31T07:55:46.000Z</time>
      </trkpt>
      <trkpt lat="46.45915" lon="5.35716">
        <ele>276.60000610352</ele>
        <time>2020-07-31T07:55:48.000Z</time>
      </trkpt>
      <trkpt lat="46.45914" lon="5.35699">
        <ele>277</ele>
        <time>2020-07-31T07:55:50.000Z</time>
      </trkpt>
      <trkpt lat="46.45913" lon="5.35682">
        <ele>277</ele>
        <time>2020-07-31T07:55:52.000Z</time>
      </trkpt>
      <trkpt lat="46.45913" lon="5.35666">
        <ele>277.20001220703</ele>
        <time>2020-07-31T07:55:54.000Z</time>
      </trkpt>
      <trkpt lat="46.45912" lon="5.3565">
        <ele>277.39999389648</ele>
        <time>2020-07-31T07:55:56.000Z</time>
      </trkpt>
      <trkpt lat="46.45912" lon="5.35635">
        <ele>278.20001220703</ele>
        <time>2020-07-31T07:55:58.000Z</time>
      </trkpt>
      <trkpt lat="46.4591" lon="5.3562">
        <ele>279.39999389648</ele>
        <time>2020-07-31T07:56:00.000Z</time>
      </trkpt>
      <trkpt lat="46.4591" lon="5.35612">
        <ele>280</ele>
        <time>2020-07-31T07:56:01.000Z</time>
      </trkpt>
      <trkpt lat="46.45909" lon="5.35604">
        <ele>280.60000610352</ele>
        <time>2020-07-31T07:56:02.000Z</time>
      </trkpt>
      <trkpt lat="46.45908" lon="5.35588">
        <ele>281.20001220703</ele>
        <time>2020-07-31T07:56:04.000Z</time>
      </trkpt>
      <trkpt lat="46.45906" lon="5.35561">
        <ele>281.39999389648</ele>
        <time>2020-07-31T07:56:07.000Z</time>
      </trkpt>
      <trkpt lat="46.45906" lon="5.35553">
        <ele>281.39999389648</ele>
        <time>2020-07-31T07:56:08.000Z</time>
      </trkpt>
      <trkpt lat="46.45907" lon="5.35546">
        <ele>281.39999389648</ele>
        <time>2020-07-31T07:56:09.000Z</time>
      </trkpt>
      <trkpt lat="46.4591" lon="5.35535">
        <ele>281.39999389648</ele>
        <time>2020-07-31T07:56:11.000Z</time>
      </trkpt>
      <trkpt lat="46.45912" lon="5.35531">
        <ele>281.39999389648</ele>
        <time>2020-07-31T07:56:12.000Z</time>
      </trkpt>
      <trkpt lat="46.45913" lon="5.35526">
        <ele>281.20001220703</ele>
        <time>2020-07-31T07:56:14.000Z</time>
      </trkpt>
      <trkpt lat="46.45913" lon="5.35526">
        <ele>280.79998779297</ele>
        <time>2020-07-31T07:56:15.000Z</time>
      </trkpt>
      <trkpt lat="46.45913" lon="5.35525">
        <ele>280.60000610352</ele>
        <time>2020-07-31T07:56:16.000Z</time>
      </trkpt>
      <trkpt lat="46.45914" lon="5.35522">
        <ele>280.39999389648</ele>
        <time>2020-07-31T07:56:18.000Z</time>
      </trkpt>
      <trkpt lat="46.45914" lon="5.35519">
        <ele>280.20001220703</ele>
        <time>2020-07-31T07:56:19.000Z</time>
      </trkpt>
      <trkpt lat="46.45912" lon="5.35511">
        <ele>280.20001220703</ele>
        <time>2020-07-31T07:56:21.000Z</time>
      </trkpt>
      <trkpt lat="46.45909" lon="5.35508">
        <ele>280</ele>
        <time>2020-07-31T07:56:22.000Z</time>
      </trkpt>
      <trkpt lat="46.45906" lon="5.35505">
        <ele>280</ele>
        <time>2020-07-31T07:56:23.000Z</time>
      </trkpt>
      <trkpt lat="46.45902" lon="5.35503">
        <ele>280</ele>
        <time>2020-07-31T07:56:24.000Z</time>
      </trkpt>
      <trkpt lat="46.45895" lon="5.35497">
        <ele>279.79998779297</ele>
        <time>2020-07-31T07:56:26.000Z</time>
      </trkpt>
      <trkpt lat="46.4589" lon="5.35494">
        <ele>279.60000610352</ele>
        <time>2020-07-31T07:56:27.000Z</time>
      </trkpt>
      <trkpt lat="46.45885" lon="5.3549">
        <ele>279.60000610352</ele>
        <time>2020-07-31T07:56:28.000Z</time>
      </trkpt>
      <trkpt lat="46.4588" lon="5.35487">
        <ele>279.60000610352</ele>
        <time>2020-07-31T07:56:29.000Z</time>
      </trkpt>
      <trkpt lat="46.45875" lon="5.35483">
        <ele>279.20001220703</ele>
        <time>2020-07-31T07:56:30.000Z</time>
      </trkpt>
      <trkpt lat="46.45864" lon="5.35474">
        <ele>278.60000610352</ele>
        <time>2020-07-31T07:56:32.000Z</time>
      </trkpt>
      <trkpt lat="46.45859" lon="5.3547">
        <ele>278.39999389648</ele>
        <time>2020-07-31T07:56:33.000Z</time>
      </trkpt>
      <trkpt lat="46.45853" lon="5.35466">
        <ele>278</ele>
        <time>2020-07-31T07:56:34.000Z</time>
      </trkpt>
      <trkpt lat="46.45842" lon="5.35457">
        <ele>277.60000610352</ele>
        <time>2020-07-31T07:56:36.000Z</time>
      </trkpt>
      <trkpt lat="46.4583" lon="5.35448">
        <ele>277.39999389648</ele>
        <time>2020-07-31T07:56:38.000Z</time>
      </trkpt>
      <trkpt lat="46.45819" lon="5.35438">
        <ele>277.39999389648</ele>
        <time>2020-07-31T07:56:40.000Z</time>
      </trkpt>
      <trkpt lat="46.45807" lon="5.35429">
        <ele>276.79998779297</ele>
        <time>2020-07-31T07:56:42.000Z</time>
      </trkpt>
      <trkpt lat="46.45801" lon="5.35424">
        <ele>276.39999389648</ele>
        <time>2020-07-31T07:56:43.000Z</time>
      </trkpt>
      <trkpt lat="46.45796" lon="5.35419">
        <ele>276</ele>
        <time>2020-07-31T07:56:44.000Z</time>
      </trkpt>
      <trkpt lat="46.45786" lon="5.35411">
        <ele>275.39999389648</ele>
        <time>2020-07-31T07:56:46.000Z</time>
      </trkpt>
      <trkpt lat="46.45782" lon="5.35406">
        <ele>275.39999389648</ele>
        <time>2020-07-31T07:56:47.000Z</time>
      </trkpt>
      <trkpt lat="46.45781" lon="5.35401">
        <ele>275.20001220703</ele>
        <time>2020-07-31T07:56:48.000Z</time>
      </trkpt>
      <trkpt lat="46.45781" lon="5.35389">
        <ele>275</ele>
        <time>2020-07-31T07:56:50.000Z</time>
      </trkpt>
      <trkpt lat="46.45782" lon="5.35377">
        <ele>275</ele>
        <time>2020-07-31T07:56:52.000Z</time>
      </trkpt>
      <trkpt lat="46.45782" lon="5.35366">
        <ele>275</ele>
        <time>2020-07-31T07:56:54.000Z</time>
      </trkpt>
      <trkpt lat="46.45782" lon="5.35354">
        <ele>275</ele>
        <time>2020-07-31T07:56:56.000Z</time>
      </trkpt>
      <trkpt lat="46.45781" lon="5.35342">
        <ele>275.20001220703</ele>
        <time>2020-07-31T07:56:58.000Z</time>
      </trkpt>
      <trkpt lat="46.4578" lon="5.35331">
        <ele>276.20001220703</ele>
        <time>2020-07-31T07:57:00.000Z</time>
      </trkpt>
      <trkpt lat="46.4578" lon="5.35325">
        <ele>276.60000610352</ele>
        <time>2020-07-31T07:57:01.000Z</time>
      </trkpt>
      <trkpt lat="46.4578" lon="5.35319">
        <ele>276.79998779297</ele>
        <time>2020-07-31T07:57:02.000Z</time>
      </trkpt>
      <trkpt lat="46.45779" lon="5.35313">
        <ele>276.79998779297</ele>
        <time>2020-07-31T07:57:03.000Z</time>
      </trkpt>
      <trkpt lat="46.45779" lon="5.35308">
        <ele>277</ele>
        <time>2020-07-31T07:57:04.000Z</time>
      </trkpt>
      <trkpt lat="46.45777" lon="5.35295">
        <ele>277.60000610352</ele>
        <time>2020-07-31T07:57:06.000Z</time>
      </trkpt>
      <trkpt lat="46.45776" lon="5.35289">
        <ele>277.79998779297</ele>
        <time>2020-07-31T07:57:07.000Z</time>
      </trkpt>
      <trkpt lat="46.45775" lon="5.35282">
        <ele>278</ele>
        <time>2020-07-31T07:57:08.000Z</time>
      </trkpt>
      <trkpt lat="46.45773" lon="5.35269">
        <ele>278.39999389648</ele>
        <time>2020-07-31T07:57:10.000Z</time>
      </trkpt>
      <trkpt lat="46.4577" lon="5.35255">
        <ele>278.79998779297</ele>
        <time>2020-07-31T07:57:12.000Z</time>
      </trkpt>
      <trkpt lat="46.45768" lon="5.35248">
        <ele>278.79998779297</ele>
        <time>2020-07-31T07:57:13.000Z</time>
      </trkpt>
      <trkpt lat="46.45767" lon="5.35241">
        <ele>279</ele>
        <time>2020-07-31T07:57:14.000Z</time>
      </trkpt>
      <trkpt lat="46.45765" lon="5.35227">
        <ele>279</ele>
        <time>2020-07-31T07:57:16.000Z</time>
      </trkpt>
      <trkpt lat="46.45763" lon="5.35214">
        <ele>279</ele>
        <time>2020-07-31T07:57:18.000Z</time>
      </trkpt>
      <trkpt lat="46.45761" lon="5.352">
        <ele>279.20001220703</ele>
        <time>2020-07-31T07:57:20.000Z</time>
      </trkpt>
      <trkpt lat="46.4576" lon="5.35194">
        <ele>279.20001220703</ele>
        <time>2020-07-31T07:57:21.000Z</time>
      </trkpt>
      <trkpt lat="46.4576" lon="5.35187">
        <ele>279.39999389648</ele>
        <time>2020-07-31T07:57:22.000Z</time>
      </trkpt>
      <trkpt lat="46.45759" lon="5.35173">
        <ele>279.39999389648</ele>
        <time>2020-07-31T07:57:24.000Z</time>
      </trkpt>
      <trkpt lat="46.45759" lon="5.3516">
        <ele>279.79998779297</ele>
        <time>2020-07-31T07:57:26.000Z</time>
      </trkpt>
      <trkpt lat="46.45759" lon="5.35154">
        <ele>279.79998779297</ele>
        <time>2020-07-31T07:57:27.000Z</time>
      </trkpt>
      <trkpt lat="46.4576" lon="5.35148">
        <ele>280</ele>
        <time>2020-07-31T07:57:28.000Z</time>
      </trkpt>
      <trkpt lat="46.45763" lon="5.35131">
        <ele>281</ele>
        <time>2020-07-31T07:57:31.000Z</time>
      </trkpt>
      <trkpt lat="46.45765" lon="5.3512">
        <ele>281.39999389648</ele>
        <time>2020-07-31T07:57:33.000Z</time>
      </trkpt>
      <trkpt lat="46.45767" lon="5.35115">
        <ele>282</ele>
        <time>2020-07-31T07:57:34.000Z</time>
      </trkpt>
      <trkpt lat="46.45769" lon="5.35111">
        <ele>282.20001220703</ele>
        <time>2020-07-31T07:57:35.000Z</time>
      </trkpt>
      <trkpt lat="46.45774" lon="5.35102">
        <ele>282.60000610352</ele>
        <time>2020-07-31T07:57:37.000Z</time>
      </trkpt>
      <trkpt lat="46.45779" lon="5.35093">
        <ele>283.39999389648</ele>
        <time>2020-07-31T07:57:39.000Z</time>
      </trkpt>
      <trkpt lat="46.45784" lon="5.35084">
        <ele>284</ele>
        <time>2020-07-31T07:57:41.000Z</time>
      </trkpt>
      <trkpt lat="46.45788" lon="5.35074">
        <ele>284.79998779297</ele>
        <time>2020-07-31T07:57:43.000Z</time>
      </trkpt>
      <trkpt lat="46.45792" lon="5.35063">
        <ele>285.39999389648</ele>
        <time>2020-07-31T07:57:45.000Z</time>
      </trkpt>
      <trkpt lat="46.45796" lon="5.35052">
        <ele>286</ele>
        <time>2020-07-31T07:57:47.000Z</time>
      </trkpt>
      <trkpt lat="46.45799" lon="5.3504">
        <ele>286.60000610352</ele>
        <time>2020-07-31T07:57:49.000Z</time>
      </trkpt>
      <trkpt lat="46.45801" lon="5.35028">
        <ele>286.79998779297</ele>
        <time>2020-07-31T07:57:51.000Z</time>
      </trkpt>
      <trkpt lat="46.45805" lon="5.35014">
        <ele>286.79998779297</ele>
        <time>2020-07-31T07:57:53.000Z</time>
      </trkpt>
      <trkpt lat="46.45808" lon="5.35001">
        <ele>286.79998779297</ele>
        <time>2020-07-31T07:57:55.000Z</time>
      </trkpt>
      <trkpt lat="46.45813" lon="5.34979">
        <ele>287</ele>
        <time>2020-07-31T07:57:58.000Z</time>
      </trkpt>
      <trkpt lat="46.45814" lon="5.34971">
        <ele>287</ele>
        <time>2020-07-31T07:57:59.000Z</time>
      </trkpt>
      <trkpt lat="46.45816" lon="5.34964">
        <ele>287.20001220703</ele>
        <time>2020-07-31T07:58:00.000Z</time>
      </trkpt>
      <trkpt lat="46.45818" lon="5.34949">
        <ele>287.20001220703</ele>
        <time>2020-07-31T07:58:02.000Z</time>
      </trkpt>
      <trkpt lat="46.4582" lon="5.34934">
        <ele>287.39999389648</ele>
        <time>2020-07-31T07:58:04.000Z</time>
      </trkpt>
      <trkpt lat="46.45821" lon="5.34919">
        <ele>287.39999389648</ele>
        <time>2020-07-31T07:58:06.000Z</time>
      </trkpt>
      <trkpt lat="46.45821" lon="5.34904">
        <ele>287.60000610352</ele>
        <time>2020-07-31T07:58:08.000Z</time>
      </trkpt>
      <trkpt lat="46.45821" lon="5.3489">
        <ele>287.79998779297</ele>
        <time>2020-07-31T07:58:10.000Z</time>
      </trkpt>
      <trkpt lat="46.45817" lon="5.34876">
        <ele>288</ele>
        <time>2020-07-31T07:58:12.000Z</time>
      </trkpt>
      <trkpt lat="46.45811" lon="5.34863">
        <ele>288</ele>
        <time>2020-07-31T07:58:14.000Z</time>
      </trkpt>
      <trkpt lat="46.45802" lon="5.3485">
        <ele>288</ele>
        <time>2020-07-31T07:58:16.000Z</time>
      </trkpt>
      <trkpt lat="46.45792" lon="5.34836">
        <ele>287.79998779297</ele>
        <time>2020-07-31T07:58:18.000Z</time>
      </trkpt>
      <trkpt lat="46.45784" lon="5.34821">
        <ele>287.60000610352</ele>
        <time>2020-07-31T07:58:20.000Z</time>
      </trkpt>
      <trkpt lat="46.45781" lon="5.34812">
        <ele>287.79998779297</ele>
        <time>2020-07-31T07:58:21.000Z</time>
      </trkpt>
      <trkpt lat="46.45779" lon="5.34802">
        <ele>287.39999389648</ele>
        <time>2020-07-31T07:58:22.000Z</time>
      </trkpt>
      <trkpt lat="46.4578" lon="5.34792">
        <ele>287.20001220703</ele>
        <time>2020-07-31T07:58:23.000Z</time>
      </trkpt>
      <trkpt lat="46.45785" lon="5.3477">
        <ele>286.20001220703</ele>
        <time>2020-07-31T07:58:25.000Z</time>
      </trkpt>
      <trkpt lat="46.45786" lon="5.34759">
        <ele>285.39999389648</ele>
        <time>2020-07-31T07:58:26.000Z</time>
      </trkpt>
      <trkpt lat="46.45784" lon="5.34748">
        <ele>285.20001220703</ele>
        <time>2020-07-31T07:58:27.000Z</time>
      </trkpt>
      <trkpt lat="46.45781" lon="5.34737">
        <ele>284.79998779297</ele>
        <time>2020-07-31T07:58:28.000Z</time>
      </trkpt>
      <trkpt lat="46.45768" lon="5.34719">
        <ele>284</ele>
        <time>2020-07-31T07:58:30.000Z</time>
      </trkpt>
      <trkpt lat="46.4576" lon="5.34711">
        <ele>283.60000610352</ele>
        <time>2020-07-31T07:58:31.000Z</time>
      </trkpt>
      <trkpt lat="46.45753" lon="5.34703">
        <ele>283.20001220703</ele>
        <time>2020-07-31T07:58:32.000Z</time>
      </trkpt>
      <trkpt lat="46.45737" lon="5.34686">
        <ele>282.60000610352</ele>
        <time>2020-07-31T07:58:34.000Z</time>
      </trkpt>
      <trkpt lat="46.45722" lon="5.34668">
        <ele>280.79998779297</ele>
        <time>2020-07-31T07:58:36.000Z</time>
      </trkpt>
      <trkpt lat="46.45714" lon="5.34658">
        <ele>280</ele>
        <time>2020-07-31T07:58:37.000Z</time>
      </trkpt>
      <trkpt lat="46.45706" lon="5.34648">
        <ele>278.79998779297</ele>
        <time>2020-07-31T07:58:38.000Z</time>
      </trkpt>
      <trkpt lat="46.45691" lon="5.34629">
        <ele>278</ele>
        <time>2020-07-31T07:58:40.000Z</time>
      </trkpt>
      <trkpt lat="46.45685" lon="5.34621">
        <ele>277.79998779297</ele>
        <time>2020-07-31T07:58:41.000Z</time>
      </trkpt>
      <trkpt lat="46.45681" lon="5.34615">
        <ele>277.39999389648</ele>
        <time>2020-07-31T07:58:42.000Z</time>
      </trkpt>
      <trkpt lat="46.45678" lon="5.34608">
        <ele>276.60000610352</ele>
        <time>2020-07-31T07:58:43.000Z</time>
      </trkpt>
      <trkpt lat="46.45678" lon="5.34601">
        <ele>276</ele>
        <time>2020-07-31T07:58:44.000Z</time>
      </trkpt>
      <trkpt lat="46.45683" lon="5.34587">
        <ele>275.60000610352</ele>
        <time>2020-07-31T07:58:46.000Z</time>
      </trkpt>
      <trkpt lat="46.45687" lon="5.34581">
        <ele>275.39999389648</ele>
        <time>2020-07-31T07:58:47.000Z</time>
      </trkpt>
      <trkpt lat="46.45693" lon="5.34575">
        <ele>275.20001220703</ele>
        <time>2020-07-31T07:58:48.000Z</time>
      </trkpt>
      <trkpt lat="46.45708" lon="5.34568">
        <ele>274.79998779297</ele>
        <time>2020-07-31T07:58:50.000Z</time>
      </trkpt>
      <trkpt lat="46.45726" lon="5.34568">
        <ele>274.39999389648</ele>
        <time>2020-07-31T07:58:52.000Z</time>
      </trkpt>
      <trkpt lat="46.45735" lon="5.3457">
        <ele>274.60000610352</ele>
        <time>2020-07-31T07:58:53.000Z</time>
      </trkpt>
      <trkpt lat="46.45745" lon="5.34573">
        <ele>274.20001220703</ele>
        <time>2020-07-31T07:58:54.000Z</time>
      </trkpt>
      <trkpt lat="46.45754" lon="5.34577">
        <ele>274</ele>
        <time>2020-07-31T07:58:55.000Z</time>
      </trkpt>
      <trkpt lat="46.45774" lon="5.34584">
        <ele>274</ele>
        <time>2020-07-31T07:58:57.000Z</time>
      </trkpt>
      <trkpt lat="46.45793" lon="5.34592">
        <ele>274</ele>
        <time>2020-07-31T07:58:59.000Z</time>
      </trkpt>
      <trkpt lat="46.45803" lon="5.34596">
        <ele>273.60000610352</ele>
        <time>2020-07-31T07:59:00.000Z</time>
      </trkpt>
      <trkpt lat="46.45812" lon="5.346">
        <ele>273</ele>
        <time>2020-07-31T07:59:01.000Z</time>
      </trkpt>
      <trkpt lat="46.45831" lon="5.34608">
        <ele>272.20001220703</ele>
        <time>2020-07-31T07:59:03.000Z</time>
      </trkpt>
      <trkpt lat="46.45849" lon="5.34613">
        <ele>271.39999389648</ele>
        <time>2020-07-31T07:59:05.000Z</time>
      </trkpt>
      <trkpt lat="46.45859" lon="5.34613">
        <ele>271.20001220703</ele>
        <time>2020-07-31T07:59:06.000Z</time>
      </trkpt>
      <trkpt lat="46.45868" lon="5.3461">
        <ele>271</ele>
        <time>2020-07-31T07:59:07.000Z</time>
      </trkpt>
      <trkpt lat="46.45885" lon="5.34601">
        <ele>270.60000610352</ele>
        <time>2020-07-31T07:59:09.000Z</time>
      </trkpt>
      <trkpt lat="46.45913" lon="5.34597">
        <ele>270.20001220703</ele>
        <time>2020-07-31T07:59:12.000Z</time>
      </trkpt>
      <trkpt lat="46.45923" lon="5.34599">
        <ele>270.20001220703</ele>
        <time>2020-07-31T07:59:13.000Z</time>
      </trkpt>
      <trkpt lat="46.45933" lon="5.34602">
        <ele>270</ele>
        <time>2020-07-31T07:59:14.000Z</time>
      </trkpt>
      <trkpt lat="46.45953" lon="5.34608">
        <ele>270</ele>
        <time>2020-07-31T07:59:16.000Z</time>
      </trkpt>
      <trkpt lat="46.45974" lon="5.34613">
        <ele>269.79998779297</ele>
        <time>2020-07-31T07:59:18.000Z</time>
      </trkpt>
      <trkpt lat="46.45984" lon="5.34615">
        <ele>269.79998779297</ele>
        <time>2020-07-31T07:59:19.000Z</time>
      </trkpt>
      <trkpt lat="46.45994" lon="5.34617">
        <ele>269.60000610352</ele>
        <time>2020-07-31T07:59:20.000Z</time>
      </trkpt>
      <trkpt lat="46.46014" lon="5.34618">
        <ele>269.20001220703</ele>
        <time>2020-07-31T07:59:22.000Z</time>
      </trkpt>
      <trkpt lat="46.46024" lon="5.34619">
        <ele>269</ele>
        <time>2020-07-31T07:59:23.000Z</time>
      </trkpt>
      <trkpt lat="46.46041" lon="5.34624">
        <ele>268.79998779297</ele>
        <time>2020-07-31T07:59:25.000Z</time>
      </trkpt>
      <trkpt lat="46.46057" lon="5.34628">
        <ele>268.60000610352</ele>
        <time>2020-07-31T07:59:27.000Z</time>
      </trkpt>
      <trkpt lat="46.46073" lon="5.3463">
        <ele>268.60000610352</ele>
        <time>2020-07-31T07:59:29.000Z</time>
      </trkpt>
      <trkpt lat="46.46087" lon="5.3463">
        <ele>268.60000610352</ele>
        <time>2020-07-31T07:59:31.000Z</time>
      </trkpt>
      <trkpt lat="46.46094" lon="5.34629">
        <ele>268.60000610352</ele>
        <time>2020-07-31T07:59:32.000Z</time>
      </trkpt>
      <trkpt lat="46.46108" lon="5.3463">
        <ele>268.79998779297</ele>
        <time>2020-07-31T07:59:34.000Z</time>
      </trkpt>
      <trkpt lat="46.46122" lon="5.34634">
        <ele>269</ele>
        <time>2020-07-31T07:59:36.000Z</time>
      </trkpt>
      <trkpt lat="46.46129" lon="5.34636">
        <ele>269.20001220703</ele>
        <time>2020-07-31T07:59:37.000Z</time>
      </trkpt>
      <trkpt lat="46.46144" lon="5.34644">
        <ele>269.20001220703</ele>
        <time>2020-07-31T07:59:39.000Z</time>
      </trkpt>
      <trkpt lat="46.46166" lon="5.34657">
        <ele>269.20001220703</ele>
        <time>2020-07-31T07:59:42.000Z</time>
      </trkpt>
      <trkpt lat="46.4618" lon="5.34665">
        <ele>269</ele>
        <time>2020-07-31T07:59:44.000Z</time>
      </trkpt>
      <trkpt lat="46.46195" lon="5.34671">
        <ele>269</ele>
        <time>2020-07-31T07:59:46.000Z</time>
      </trkpt>
      <trkpt lat="46.46203" lon="5.34675">
        <ele>269</ele>
        <time>2020-07-31T07:59:47.000Z</time>
      </trkpt>
      <trkpt lat="46.4621" lon="5.34678">
        <ele>268.79998779297</ele>
        <time>2020-07-31T07:59:48.000Z</time>
      </trkpt>
      <trkpt lat="46.46224" lon="5.34685">
        <ele>268.79998779297</ele>
        <time>2020-07-31T07:59:50.000Z</time>
      </trkpt>
      <trkpt lat="46.46239" lon="5.34692">
        <ele>268.60000610352</ele>
        <time>2020-07-31T07:59:52.000Z</time>
      </trkpt>
      <trkpt lat="46.46247" lon="5.34696">
        <ele>268.60000610352</ele>
        <time>2020-07-31T07:59:53.000Z</time>
      </trkpt>
      <trkpt lat="46.46255" lon="5.347">
        <ele>268.39999389648</ele>
        <time>2020-07-31T07:59:54.000Z</time>
      </trkpt>
      <trkpt lat="46.46271" lon="5.34707">
        <ele>268.20001220703</ele>
        <time>2020-07-31T07:59:56.000Z</time>
      </trkpt>
      <trkpt lat="46.46279" lon="5.34709">
        <ele>268</ele>
        <time>2020-07-31T07:59:57.000Z</time>
      </trkpt>
      <trkpt lat="46.46288" lon="5.34712">
        <ele>268</ele>
        <time>2020-07-31T07:59:58.000Z</time>
      </trkpt>
      <trkpt lat="46.46305" lon="5.34721">
        <ele>267.39999389648</ele>
        <time>2020-07-31T08:00:00.000Z</time>
      </trkpt>
      <trkpt lat="46.46314" lon="5.34726">
        <ele>267</ele>
        <time>2020-07-31T08:00:01.000Z</time>
      </trkpt>
      <trkpt lat="46.46323" lon="5.34731">
        <ele>266.39999389648</ele>
        <time>2020-07-31T08:00:02.000Z</time>
      </trkpt>
      <trkpt lat="46.46332" lon="5.34737">
        <ele>265.79998779297</ele>
        <time>2020-07-31T08:00:03.000Z</time>
      </trkpt>
      <trkpt lat="46.46342" lon="5.34744">
        <ele>265.39999389648</ele>
        <time>2020-07-31T08:00:04.000Z</time>
      </trkpt>
      <trkpt lat="46.46358" lon="5.34765">
        <ele>264.79998779297</ele>
        <time>2020-07-31T08:00:06.000Z</time>
      </trkpt>
      <trkpt lat="46.46364" lon="5.34779">
        <ele>264.60000610352</ele>
        <time>2020-07-31T08:00:07.000Z</time>
      </trkpt>
      <trkpt lat="46.46374" lon="5.3481">
        <ele>263.20001220703</ele>
        <time>2020-07-31T08:00:09.000Z</time>
      </trkpt>
      <trkpt lat="46.46384" lon="5.34843">
        <ele>261.20001220703</ele>
        <time>2020-07-31T08:00:11.000Z</time>
      </trkpt>
      <trkpt lat="46.46389" lon="5.3486">
        <ele>260</ele>
        <time>2020-07-31T08:00:12.000Z</time>
      </trkpt>
      <trkpt lat="46.46393" lon="5.34877">
        <ele>258.79998779297</ele>
        <time>2020-07-31T08:00:13.000Z</time>
      </trkpt>
      <trkpt lat="46.46398" lon="5.34894">
        <ele>257.39999389648</ele>
        <time>2020-07-31T08:00:14.000Z</time>
      </trkpt>
      <trkpt lat="46.46403" lon="5.3491">
        <ele>256</ele>
        <time>2020-07-31T08:00:15.000Z</time>
      </trkpt>
      <trkpt lat="46.46409" lon="5.34926">
        <ele>254.39999389648</ele>
        <time>2020-07-31T08:00:16.000Z</time>
      </trkpt>
      <trkpt lat="46.46414" lon="5.34941">
        <ele>253</ele>
        <time>2020-07-31T08:00:17.000Z</time>
      </trkpt>
      <trkpt lat="46.46419" lon="5.34956">
        <ele>251.80000305176</ele>
        <time>2020-07-31T08:00:18.000Z</time>
      </trkpt>
      <trkpt lat="46.46426" lon="5.3497">
        <ele>251</ele>
        <time>2020-07-31T08:00:19.000Z</time>
      </trkpt>
      <trkpt lat="46.46433" lon="5.34981">
        <ele>250.60000610352</ele>
        <time>2020-07-31T08:00:20.000Z</time>
      </trkpt>
      <trkpt lat="46.46441" lon="5.34988">
        <ele>250.39999389648</ele>
        <time>2020-07-31T08:00:21.000Z</time>
      </trkpt>
      <trkpt lat="46.46458" lon="5.34998">
        <ele>250</ele>
        <time>2020-07-31T08:00:23.000Z</time>
      </trkpt>
      <trkpt lat="46.46476" lon="5.35007">
        <ele>250</ele>
        <time>2020-07-31T08:00:25.000Z</time>
      </trkpt>
      <trkpt lat="46.46491" lon="5.35017">
        <ele>250</ele>
        <time>2020-07-31T08:00:27.000Z</time>
      </trkpt>
      <trkpt lat="46.46499" lon="5.35023">
        <ele>250</ele>
        <time>2020-07-31T08:00:28.000Z</time>
      </trkpt>
      <trkpt lat="46.46506" lon="5.3503">
        <ele>250</ele>
        <time>2020-07-31T08:00:29.000Z</time>
      </trkpt>
      <trkpt lat="46.46519" lon="5.35044">
        <ele>250.39999389648</ele>
        <time>2020-07-31T08:00:31.000Z</time>
      </trkpt>
      <trkpt lat="46.46531" lon="5.35057">
        <ele>252.19999694824</ele>
        <time>2020-07-31T08:00:33.000Z</time>
      </trkpt>
      <trkpt lat="46.46536" lon="5.35064">
        <ele>253</ele>
        <time>2020-07-31T08:00:34.000Z</time>
      </trkpt>
      <trkpt lat="46.46542" lon="5.35071">
        <ele>254</ele>
        <time>2020-07-31T08:00:35.000Z</time>
      </trkpt>
      <trkpt lat="46.46547" lon="5.35078">
        <ele>254.39999389648</ele>
        <time>2020-07-31T08:00:36.000Z</time>
      </trkpt>
      <trkpt lat="46.46558" lon="5.35095">
        <ele>254.80000305176</ele>
        <time>2020-07-31T08:00:38.000Z</time>
      </trkpt>
      <trkpt lat="46.46563" lon="5.35105">
        <ele>254.80000305176</ele>
        <time>2020-07-31T08:00:39.000Z</time>
      </trkpt>
      <trkpt lat="46.46569" lon="5.35114">
        <ele>255</ele>
        <time>2020-07-31T08:00:40.000Z</time>
      </trkpt>
      <trkpt lat="46.46574" lon="5.35123">
        <ele>255</ele>
        <time>2020-07-31T08:00:41.000Z</time>
      </trkpt>
      <trkpt lat="46.46588" lon="5.35138">
        <ele>255</ele>
        <time>2020-07-31T08:00:43.000Z</time>
      </trkpt>
      <trkpt lat="46.46603" lon="5.35151">
        <ele>255</ele>
        <time>2020-07-31T08:00:45.000Z</time>
      </trkpt>
      <trkpt lat="46.46614" lon="5.35167">
        <ele>255</ele>
        <time>2020-07-31T08:00:47.000Z</time>
      </trkpt>
      <trkpt lat="46.46622" lon="5.35183">
        <ele>255.19999694824</ele>
        <time>2020-07-31T08:00:49.000Z</time>
      </trkpt>
      <trkpt lat="46.46629" lon="5.35197">
        <ele>255.39999389648</ele>
        <time>2020-07-31T08:00:51.000Z</time>
      </trkpt>
      <trkpt lat="46.46633" lon="5.35203">
        <ele>255.39999389648</ele>
        <time>2020-07-31T08:00:52.000Z</time>
      </trkpt>
      <trkpt lat="46.46636" lon="5.35209">
        <ele>255.39999389648</ele>
        <time>2020-07-31T08:00:53.000Z</time>
      </trkpt>
      <trkpt lat="46.46642" lon="5.35218">
        <ele>255.60000610352</ele>
        <time>2020-07-31T08:00:55.000Z</time>
      </trkpt>
      <trkpt lat="46.46648" lon="5.35227">
        <ele>256.20001220703</ele>
        <time>2020-07-31T08:00:57.000Z</time>
      </trkpt>
      <trkpt lat="46.4665" lon="5.35231">
        <ele>256.60000610352</ele>
        <time>2020-07-31T08:00:58.000Z</time>
      </trkpt>
      <trkpt lat="46.46652" lon="5.35235">
        <ele>257.20001220703</ele>
        <time>2020-07-31T08:00:59.000Z</time>
      </trkpt>
      <trkpt lat="46.46655" lon="5.35239">
        <ele>257.39999389648</ele>
        <time>2020-07-31T08:01:00.000Z</time>
      </trkpt>
      <trkpt lat="46.46657" lon="5.35242">
        <ele>258</ele>
        <time>2020-07-31T08:01:01.000Z</time>
      </trkpt>
      <trkpt lat="46.46663" lon="5.35246">
        <ele>259</ele>
        <time>2020-07-31T08:01:03.000Z</time>
      </trkpt>
      <trkpt lat="46.46666" lon="5.35245">
        <ele>259.60000610352</ele>
        <time>2020-07-31T08:01:04.000Z</time>
      </trkpt>
      <trkpt lat="46.46668" lon="5.35241">
        <ele>260</ele>
        <time>2020-07-31T08:01:05.000Z</time>
      </trkpt>
      <trkpt lat="46.46671" lon="5.3523">
        <ele>261.39999389648</ele>
        <time>2020-07-31T08:01:07.000Z</time>
      </trkpt>
      <trkpt lat="46.46673" lon="5.35216">
        <ele>262.20001220703</ele>
        <time>2020-07-31T08:01:09.000Z</time>
      </trkpt>
      <trkpt lat="46.46674" lon="5.35209">
        <ele>262.60000610352</ele>
        <time>2020-07-31T08:01:10.000Z</time>
      </trkpt>
      <trkpt lat="46.46676" lon="5.35202">
        <ele>262.60000610352</ele>
        <time>2020-07-31T08:01:11.000Z</time>
      </trkpt>
      <trkpt lat="46.46678" lon="5.35187">
        <ele>262.79998779297</ele>
        <time>2020-07-31T08:01:13.000Z</time>
      </trkpt>
      <trkpt lat="46.4668" lon="5.35179">
        <ele>262.79998779297</ele>
        <time>2020-07-31T08:01:14.000Z</time>
      </trkpt>
      <trkpt lat="46.46682" lon="5.35172">
        <ele>262.79998779297</ele>
        <time>2020-07-31T08:01:15.000Z</time>
      </trkpt>
      <trkpt lat="46.46688" lon="5.35158">
        <ele>262.79998779297</ele>
        <time>2020-07-31T08:01:17.000Z</time>
      </trkpt>
      <trkpt lat="46.46692" lon="5.35152">
        <ele>262.79998779297</ele>
        <time>2020-07-31T08:01:18.000Z</time>
      </trkpt>
      <trkpt lat="46.46697" lon="5.35146">
        <ele>262.60000610352</ele>
        <time>2020-07-31T08:01:19.000Z</time>
      </trkpt>
      <trkpt lat="46.46707" lon="5.35137">
        <ele>262.60000610352</ele>
        <time>2020-07-31T08:01:21.000Z</time>
      </trkpt>
      <trkpt lat="46.46713" lon="5.35133">
        <ele>262.60000610352</ele>
        <time>2020-07-31T08:01:22.000Z</time>
      </trkpt>
      <trkpt lat="46.46719" lon="5.3513">
        <ele>262.39999389648</ele>
        <time>2020-07-31T08:01:23.000Z</time>
      </trkpt>
      <trkpt lat="46.46725" lon="5.35126">
        <ele>262.39999389648</ele>
        <time>2020-07-31T08:01:24.000Z</time>
      </trkpt>
      <trkpt lat="46.46731" lon="5.35123">
        <ele>262.39999389648</ele>
        <time>2020-07-31T08:01:25.000Z</time>
      </trkpt>
      <trkpt lat="46.46743" lon="5.35116">
        <ele>262.20001220703</ele>
        <time>2020-07-31T08:01:27.000Z</time>
      </trkpt>
      <trkpt lat="46.46756" lon="5.35108">
        <ele>262.20001220703</ele>
        <time>2020-07-31T08:01:29.000Z</time>
      </trkpt>
      <trkpt lat="46.46762" lon="5.35104">
        <ele>262.20001220703</ele>
        <time>2020-07-31T08:01:30.000Z</time>
      </trkpt>
      <trkpt lat="46.46769" lon="5.35101">
        <ele>262.20001220703</ele>
        <time>2020-07-31T08:01:31.000Z</time>
      </trkpt>
      <trkpt lat="46.46782" lon="5.35094">
        <ele>262.20001220703</ele>
        <time>2020-07-31T08:01:33.000Z</time>
      </trkpt>
      <trkpt lat="46.46794" lon="5.35087">
        <ele>262.20001220703</ele>
        <time>2020-07-31T08:01:35.000Z</time>
      </trkpt>
      <trkpt lat="46.46807" lon="5.35079">
        <ele>262.20001220703</ele>
        <time>2020-07-31T08:01:37.000Z</time>
      </trkpt>
      <trkpt lat="46.46813" lon="5.35075">
        <ele>262</ele>
        <time>2020-07-31T08:01:38.000Z</time>
      </trkpt>
      <trkpt lat="46.46819" lon="5.35072">
        <ele>262</ele>
        <time>2020-07-31T08:01:39.000Z</time>
      </trkpt>
      <trkpt lat="46.46832" lon="5.35075">
        <ele>262</ele>
        <time>2020-07-31T08:01:41.000Z</time>
      </trkpt>
      <trkpt lat="46.46836" lon="5.35081">
        <ele>261.79998779297</ele>
        <time>2020-07-31T08:01:42.000Z</time>
      </trkpt>
      <trkpt lat="46.46838" lon="5.3509">
        <ele>261.79998779297</ele>
        <time>2020-07-31T08:01:43.000Z</time>
      </trkpt>
      <trkpt lat="46.4684" lon="5.35098">
        <ele>261.79998779297</ele>
        <time>2020-07-31T08:01:44.000Z</time>
      </trkpt>
      <trkpt lat="46.46842" lon="5.35106">
        <ele>261.79998779297</ele>
        <time>2020-07-31T08:01:45.000Z</time>
      </trkpt>
      <trkpt lat="46.46843" lon="5.35114">
        <ele>261.79998779297</ele>
        <time>2020-07-31T08:01:46.000Z</time>
      </trkpt>
      <trkpt lat="46.46846" lon="5.3513">
        <ele>262</ele>
        <time>2020-07-31T08:01:48.000Z</time>
      </trkpt>
      <trkpt lat="46.46848" lon="5.35145">
        <ele>262</ele>
        <time>2020-07-31T08:01:50.000Z</time>
      </trkpt>
      <trkpt lat="46.46851" lon="5.35159">
        <ele>262.20001220703</ele>
        <time>2020-07-31T08:01:52.000Z</time>
      </trkpt>
      <trkpt lat="46.46852" lon="5.35172">
        <ele>262.60000610352</ele>
        <time>2020-07-31T08:01:54.000Z</time>
      </trkpt>
      <trkpt lat="46.46854" lon="5.35185">
        <ele>263.39999389648</ele>
        <time>2020-07-31T08:01:56.000Z</time>
      </trkpt>
      <trkpt lat="46.46855" lon="5.35197">
        <ele>264</ele>
        <time>2020-07-31T08:01:58.000Z</time>
      </trkpt>
      <trkpt lat="46.46856" lon="5.35209">
        <ele>264.39999389648</ele>
        <time>2020-07-31T08:02:00.000Z</time>
      </trkpt>
      <trkpt lat="46.46856" lon="5.35221">
        <ele>265.20001220703</ele>
        <time>2020-07-31T08:02:02.000Z</time>
      </trkpt>
      <trkpt lat="46.46857" lon="5.35227">
        <ele>265.60000610352</ele>
        <time>2020-07-31T08:02:03.000Z</time>
      </trkpt>
      <trkpt lat="46.46857" lon="5.35233">
        <ele>265.79998779297</ele>
        <time>2020-07-31T08:02:04.000Z</time>
      </trkpt>
      <trkpt lat="46.46857" lon="5.35244">
        <ele>266.39999389648</ele>
        <time>2020-07-31T08:02:06.000Z</time>
      </trkpt>
      <trkpt lat="46.46857" lon="5.35255">
        <ele>267</ele>
        <time>2020-07-31T08:02:08.000Z</time>
      </trkpt>
      <trkpt lat="46.46856" lon="5.3526">
        <ele>267.39999389648</ele>
        <time>2020-07-31T08:02:09.000Z</time>
      </trkpt>
      <trkpt lat="46.46856" lon="5.35266">
        <ele>267.60000610352</ele>
        <time>2020-07-31T08:02:10.000Z</time>
      </trkpt>
      <trkpt lat="46.46854" lon="5.35276">
        <ele>268.39999389648</ele>
        <time>2020-07-31T08:02:12.000Z</time>
      </trkpt>
      <trkpt lat="46.46853" lon="5.35281">
        <ele>268.79998779297</ele>
        <time>2020-07-31T08:02:13.000Z</time>
      </trkpt>
      <trkpt lat="46.46852" lon="5.35285">
        <ele>269.20001220703</ele>
        <time>2020-07-31T08:02:14.000Z</time>
      </trkpt>
      <trkpt lat="46.4685" lon="5.35295">
        <ele>269.60000610352</ele>
        <time>2020-07-31T08:02:16.000Z</time>
      </trkpt>
      <trkpt lat="46.46848" lon="5.35299">
        <ele>269.79998779297</ele>
        <time>2020-07-31T08:02:17.000Z</time>
      </trkpt>
      <trkpt lat="46.46847" lon="5.35303">
        <ele>270.20001220703</ele>
        <time>2020-07-31T08:02:18.000Z</time>
      </trkpt>
      <trkpt lat="46.46843" lon="5.35311">
        <ele>270.79998779297</ele>
        <time>2020-07-31T08:02:20.000Z</time>
      </trkpt>
      <trkpt lat="46.46841" lon="5.35314">
        <ele>271</ele>
        <time>2020-07-31T08:02:21.000Z</time>
      </trkpt>
      <trkpt lat="46.46837" lon="5.35322">
        <ele>271.60000610352</ele>
        <time>2020-07-31T08:02:23.000Z</time>
      </trkpt>
      <trkpt lat="46.46834" lon="5.35329">
        <ele>272</ele>
        <time>2020-07-31T08:02:25.000Z</time>
      </trkpt>
      <trkpt lat="46.46832" lon="5.35332">
        <ele>272.39999389648</ele>
        <time>2020-07-31T08:02:26.000Z</time>
      </trkpt>
      <trkpt lat="46.4683" lon="5.35336">
        <ele>272.79998779297</ele>
        <time>2020-07-31T08:02:27.000Z</time>
      </trkpt>
      <trkpt lat="46.46826" lon="5.35342">
        <ele>273.20001220703</ele>
        <time>2020-07-31T08:02:29.000Z</time>
      </trkpt>
      <trkpt lat="46.46824" lon="5.35345">
        <ele>273.39999389648</ele>
        <time>2020-07-31T08:02:30.000Z</time>
      </trkpt>
      <trkpt lat="46.46822" lon="5.35348">
        <ele>273.60000610352</ele>
        <time>2020-07-31T08:02:31.000Z</time>
      </trkpt>
      <trkpt lat="46.46817" lon="5.35354">
        <ele>274.20001220703</ele>
        <time>2020-07-31T08:02:33.000Z</time>
      </trkpt>
      <trkpt lat="46.46813" lon="5.3536">
        <ele>274.60000610352</ele>
        <time>2020-07-31T08:02:35.000Z</time>
      </trkpt>
      <trkpt lat="46.46809" lon="5.35366">
        <ele>275.20001220703</ele>
        <time>2020-07-31T08:02:37.000Z</time>
      </trkpt>
      <trkpt lat="46.46806" lon="5.35374">
        <ele>275.60000610352</ele>
        <time>2020-07-31T08:02:39.000Z</time>
      </trkpt>
      <trkpt lat="46.46804" lon="5.35378">
        <ele>275.79998779297</ele>
        <time>2020-07-31T08:02:40.000Z</time>
      </trkpt>
      <trkpt lat="46.46803" lon="5.35382">
        <ele>276</ele>
        <time>2020-07-31T08:02:41.000Z</time>
      </trkpt>
      <trkpt lat="46.46802" lon="5.35395">
        <ele>276.60000610352</ele>
        <time>2020-07-31T08:02:44.000Z</time>
      </trkpt>
      <trkpt lat="46.46803" lon="5.354">
        <ele>277</ele>
        <time>2020-07-31T08:02:45.000Z</time>
      </trkpt>
      <trkpt lat="46.46804" lon="5.35404">
        <ele>277.39999389648</ele>
        <time>2020-07-31T08:02:46.000Z</time>
      </trkpt>
      <trkpt lat="46.46807" lon="5.35411">
        <ele>277.79998779297</ele>
        <time>2020-07-31T08:02:48.000Z</time>
      </trkpt>
      <trkpt lat="46.4681" lon="5.35414">
        <ele>278.60000610352</ele>
        <time>2020-07-31T08:02:49.000Z</time>
      </trkpt>
      <trkpt lat="46.46814" lon="5.35418">
        <ele>279.20001220703</ele>
        <time>2020-07-31T08:02:51.000Z</time>
      </trkpt>
      <trkpt lat="46.4682" lon="5.35419">
        <ele>279.60000610352</ele>
        <time>2020-07-31T08:02:53.000Z</time>
      </trkpt>
      <trkpt lat="46.46822" lon="5.35421">
        <ele>279.79998779297</ele>
        <time>2020-07-31T08:02:54.000Z</time>
      </trkpt>
      <trkpt lat="46.46825" lon="5.35422">
        <ele>280</ele>
        <time>2020-07-31T08:02:55.000Z</time>
      </trkpt>
      <trkpt lat="46.4683" lon="5.35424">
        <ele>280.39999389648</ele>
        <time>2020-07-31T08:02:57.000Z</time>
      </trkpt>
      <trkpt lat="46.46833" lon="5.35425">
        <ele>280.79998779297</ele>
        <time>2020-07-31T08:02:58.000Z</time>
      </trkpt>
      <trkpt lat="46.46836" lon="5.35427">
        <ele>281.20001220703</ele>
        <time>2020-07-31T08:02:59.000Z</time>
      </trkpt>
      <trkpt lat="46.46844" lon="5.3543">
        <ele>281.60000610352</ele>
        <time>2020-07-31T08:03:01.000Z</time>
      </trkpt>
      <trkpt lat="46.46852" lon="5.35433">
        <ele>282</ele>
        <time>2020-07-31T08:03:03.000Z</time>
      </trkpt>
      <trkpt lat="46.46855" lon="5.35435">
        <ele>282</ele>
        <time>2020-07-31T08:03:04.000Z</time>
      </trkpt>
      <trkpt lat="46.46859" lon="5.35437">
        <ele>282.20001220703</ele>
        <time>2020-07-31T08:03:05.000Z</time>
      </trkpt>
      <trkpt lat="46.46868" lon="5.3544">
        <ele>282.60000610352</ele>
        <time>2020-07-31T08:03:07.000Z</time>
      </trkpt>
      <trkpt lat="46.46876" lon="5.35444">
        <ele>282.79998779297</ele>
        <time>2020-07-31T08:03:09.000Z</time>
      </trkpt>
      <trkpt lat="46.46885" lon="5.35447">
        <ele>283</ele>
        <time>2020-07-31T08:03:11.000Z</time>
      </trkpt>
      <trkpt lat="46.46889" lon="5.35448">
        <ele>283</ele>
        <time>2020-07-31T08:03:12.000Z</time>
      </trkpt>
      <trkpt lat="46.46894" lon="5.35449">
        <ele>283.20001220703</ele>
        <time>2020-07-31T08:03:13.000Z</time>
      </trkpt>
      <trkpt lat="46.46904" lon="5.3545">
        <ele>283.39999389648</ele>
        <time>2020-07-31T08:03:15.000Z</time>
      </trkpt>
      <trkpt lat="46.46913" lon="5.35452">
        <ele>283.60000610352</ele>
        <time>2020-07-31T08:03:17.000Z</time>
      </trkpt>
      <trkpt lat="46.46923" lon="5.35455">
        <ele>284</ele>
        <time>2020-07-31T08:03:19.000Z</time>
      </trkpt>
      <trkpt lat="46.46928" lon="5.35456">
        <ele>284.20001220703</ele>
        <time>2020-07-31T08:03:20.000Z</time>
      </trkpt>
      <trkpt lat="46.46933" lon="5.35458">
        <ele>284.39999389648</ele>
        <time>2020-07-31T08:03:21.000Z</time>
      </trkpt>
      <trkpt lat="46.46943" lon="5.35461">
        <ele>284.60000610352</ele>
        <time>2020-07-31T08:03:23.000Z</time>
      </trkpt>
      <trkpt lat="46.46953" lon="5.35463">
        <ele>284.79998779297</ele>
        <time>2020-07-31T08:03:25.000Z</time>
      </trkpt>
      <trkpt lat="46.46963" lon="5.35465">
        <ele>285</ele>
        <time>2020-07-31T08:03:27.000Z</time>
      </trkpt>
      <trkpt lat="46.46974" lon="5.35467">
        <ele>285.20001220703</ele>
        <time>2020-07-31T08:03:29.000Z</time>
      </trkpt>
      <trkpt lat="46.46985" lon="5.35469">
        <ele>285.20001220703</ele>
        <time>2020-07-31T08:03:31.000Z</time>
      </trkpt>
      <trkpt lat="46.46996" lon="5.35472">
        <ele>285.39999389648</ele>
        <time>2020-07-31T08:03:33.000Z</time>
      </trkpt>
      <trkpt lat="46.47007" lon="5.35474">
        <ele>285.60000610352</ele>
        <time>2020-07-31T08:03:35.000Z</time>
      </trkpt>
      <trkpt lat="46.47018" lon="5.35478">
        <ele>285.79998779297</ele>
        <time>2020-07-31T08:03:37.000Z</time>
      </trkpt>
      <trkpt lat="46.47029" lon="5.35481">
        <ele>286</ele>
        <time>2020-07-31T08:03:39.000Z</time>
      </trkpt>
      <trkpt lat="46.4704" lon="5.35486">
        <ele>286.20001220703</ele>
        <time>2020-07-31T08:03:41.000Z</time>
      </trkpt>
      <trkpt lat="46.47051" lon="5.35491">
        <ele>286.20001220703</ele>
        <time>2020-07-31T08:03:43.000Z</time>
      </trkpt>
      <trkpt lat="46.47062" lon="5.35496">
        <ele>286.39999389648</ele>
        <time>2020-07-31T08:03:45.000Z</time>
      </trkpt>
      <trkpt lat="46.47073" lon="5.35502">
        <ele>287</ele>
        <time>2020-07-31T08:03:47.000Z</time>
      </trkpt>
      <trkpt lat="46.47085" lon="5.35509">
        <ele>287</ele>
        <time>2020-07-31T08:03:49.000Z</time>
      </trkpt>
      <trkpt lat="46.47097" lon="5.35518">
        <ele>287.20001220703</ele>
        <time>2020-07-31T08:03:51.000Z</time>
      </trkpt>
      <trkpt lat="46.47109" lon="5.35526">
        <ele>287.39999389648</ele>
        <time>2020-07-31T08:03:53.000Z</time>
      </trkpt>
      <trkpt lat="46.47121" lon="5.35534">
        <ele>287.79998779297</ele>
        <time>2020-07-31T08:03:55.000Z</time>
      </trkpt>
      <trkpt lat="46.47133" lon="5.35542">
        <ele>288.20001220703</ele>
        <time>2020-07-31T08:03:57.000Z</time>
      </trkpt>
      <trkpt lat="46.47145" lon="5.3555">
        <ele>288.60000610352</ele>
        <time>2020-07-31T08:03:59.000Z</time>
      </trkpt>
      <trkpt lat="46.47158" lon="5.35557">
        <ele>288.79998779297</ele>
        <time>2020-07-31T08:04:01.000Z</time>
      </trkpt>
      <trkpt lat="46.47164" lon="5.3556">
        <ele>288.79998779297</ele>
        <time>2020-07-31T08:04:02.000Z</time>
      </trkpt>
      <trkpt lat="46.47171" lon="5.35562">
        <ele>289</ele>
        <time>2020-07-31T08:04:03.000Z</time>
      </trkpt>
      <trkpt lat="46.47177" lon="5.35565">
        <ele>289</ele>
        <time>2020-07-31T08:04:04.000Z</time>
      </trkpt>
      <trkpt lat="46.47191" lon="5.3557">
        <ele>289.20001220703</ele>
        <time>2020-07-31T08:04:06.000Z</time>
      </trkpt>
      <trkpt lat="46.47206" lon="5.35575">
        <ele>289.39999389648</ele>
        <time>2020-07-31T08:04:08.000Z</time>
      </trkpt>
      <trkpt lat="46.47221" lon="5.35582">
        <ele>289.39999389648</ele>
        <time>2020-07-31T08:04:10.000Z</time>
      </trkpt>
      <trkpt lat="46.47236" lon="5.35589">
        <ele>289.39999389648</ele>
        <time>2020-07-31T08:04:12.000Z</time>
      </trkpt>
      <trkpt lat="46.47252" lon="5.35595">
        <ele>289.60000610352</ele>
        <time>2020-07-31T08:04:14.000Z</time>
      </trkpt>
      <trkpt lat="46.47267" lon="5.35602">
        <ele>289.60000610352</ele>
        <time>2020-07-31T08:04:16.000Z</time>
      </trkpt>
      <trkpt lat="46.47283" lon="5.35609">
        <ele>289.60000610352</ele>
        <time>2020-07-31T08:04:18.000Z</time>
      </trkpt>
      <trkpt lat="46.47298" lon="5.35617">
        <ele>289.60000610352</ele>
        <time>2020-07-31T08:04:20.000Z</time>
      </trkpt>
      <trkpt lat="46.47312" lon="5.35626">
        <ele>289.60000610352</ele>
        <time>2020-07-31T08:04:22.000Z</time>
      </trkpt>
      <trkpt lat="46.47326" lon="5.35636">
        <ele>289.60000610352</ele>
        <time>2020-07-31T08:04:24.000Z</time>
      </trkpt>
      <trkpt lat="46.47339" lon="5.35645">
        <ele>289.79998779297</ele>
        <time>2020-07-31T08:04:26.000Z</time>
      </trkpt>
      <trkpt lat="46.47351" lon="5.35654">
        <ele>289.79998779297</ele>
        <time>2020-07-31T08:04:28.000Z</time>
      </trkpt>
      <trkpt lat="46.47361" lon="5.35663">
        <ele>289.79998779297</ele>
        <time>2020-07-31T08:04:30.000Z</time>
      </trkpt>
      <trkpt lat="46.47369" lon="5.3567">
        <ele>289.79998779297</ele>
        <time>2020-07-31T08:04:32.000Z</time>
      </trkpt>
      <trkpt lat="46.47374" lon="5.35679">
        <ele>290</ele>
        <time>2020-07-31T08:04:34.000Z</time>
      </trkpt>
      <trkpt lat="46.47378" lon="5.35687">
        <ele>290</ele>
        <time>2020-07-31T08:04:36.000Z</time>
      </trkpt>
      <trkpt lat="46.47381" lon="5.35691">
        <ele>290</ele>
        <time>2020-07-31T08:04:37.000Z</time>
      </trkpt>
      <trkpt lat="46.47384" lon="5.35693">
        <ele>290</ele>
        <time>2020-07-31T08:04:38.000Z</time>
      </trkpt>
      <trkpt lat="46.47388" lon="5.35696">
        <ele>290</ele>
        <time>2020-07-31T08:04:39.000Z</time>
      </trkpt>
      <trkpt lat="46.47393" lon="5.35701">
        <ele>290</ele>
        <time>2020-07-31T08:04:40.000Z</time>
      </trkpt>
      <trkpt lat="46.47403" lon="5.35713">
        <ele>289.60000610352</ele>
        <time>2020-07-31T08:04:42.000Z</time>
      </trkpt>
      <trkpt lat="46.47417" lon="5.35728">
        <ele>289.39999389648</ele>
        <time>2020-07-31T08:04:44.000Z</time>
      </trkpt>
      <trkpt lat="46.47432" lon="5.35743">
        <ele>288.79998779297</ele>
        <time>2020-07-31T08:04:46.000Z</time>
      </trkpt>
      <trkpt lat="46.47446" lon="5.35759">
        <ele>288.20001220703</ele>
        <time>2020-07-31T08:04:48.000Z</time>
      </trkpt>
      <trkpt lat="46.47452" lon="5.35767">
        <ele>287.60000610352</ele>
        <time>2020-07-31T08:04:49.000Z</time>
      </trkpt>
      <trkpt lat="46.47459" lon="5.35775">
        <ele>287</ele>
        <time>2020-07-31T08:04:50.000Z</time>
      </trkpt>
      <trkpt lat="46.47472" lon="5.35789">
        <ele>286.39999389648</ele>
        <time>2020-07-31T08:04:52.000Z</time>
      </trkpt>
      <trkpt lat="46.47485" lon="5.35803">
        <ele>286.20001220703</ele>
        <time>2020-07-31T08:04:54.000Z</time>
      </trkpt>
      <trkpt lat="46.47496" lon="5.35817">
        <ele>286.20001220703</ele>
        <time>2020-07-31T08:04:56.000Z</time>
      </trkpt>
      <trkpt lat="46.47503" lon="5.35829">
        <ele>286.20001220703</ele>
        <time>2020-07-31T08:04:58.000Z</time>
      </trkpt>
      <trkpt lat="46.47507" lon="5.35832">
        <ele>286.20001220703</ele>
        <time>2020-07-31T08:04:59.000Z</time>
      </trkpt>
      <trkpt lat="46.47511" lon="5.35833">
        <ele>286.20001220703</ele>
        <time>2020-07-31T08:05:00.000Z</time>
      </trkpt>
      <trkpt lat="46.47524" lon="5.3583">
        <ele>286.39999389648</ele>
        <time>2020-07-31T08:05:02.000Z</time>
      </trkpt>
      <trkpt lat="46.4754" lon="5.3583">
        <ele>286.60000610352</ele>
        <time>2020-07-31T08:05:04.000Z</time>
      </trkpt>
      <trkpt lat="46.47549" lon="5.35832">
        <ele>286.60000610352</ele>
        <time>2020-07-31T08:05:05.000Z</time>
      </trkpt>
      <trkpt lat="46.47559" lon="5.35834">
        <ele>286.60000610352</ele>
        <time>2020-07-31T08:05:06.000Z</time>
      </trkpt>
      <trkpt lat="46.47578" lon="5.35839">
        <ele>286.60000610352</ele>
        <time>2020-07-31T08:05:08.000Z</time>
      </trkpt>
      <trkpt lat="46.47596" lon="5.35843">
        <ele>286.60000610352</ele>
        <time>2020-07-31T08:05:10.000Z</time>
      </trkpt>
      <trkpt lat="46.47605" lon="5.35844">
        <ele>286.60000610352</ele>
        <time>2020-07-31T08:05:11.000Z</time>
      </trkpt>
      <trkpt lat="46.47613" lon="5.35842">
        <ele>286.20001220703</ele>
        <time>2020-07-31T08:05:12.000Z</time>
      </trkpt>
      <trkpt lat="46.47621" lon="5.35837">
        <ele>285.60000610352</ele>
        <time>2020-07-31T08:05:13.000Z</time>
      </trkpt>
      <trkpt lat="46.47629" lon="5.3583">
        <ele>283.79998779297</ele>
        <time>2020-07-31T08:05:14.000Z</time>
      </trkpt>
      <trkpt lat="46.47636" lon="5.35822">
        <ele>283</ele>
        <time>2020-07-31T08:05:15.000Z</time>
      </trkpt>
      <trkpt lat="46.47643" lon="5.35814">
        <ele>282.39999389648</ele>
        <time>2020-07-31T08:05:16.000Z</time>
      </trkpt>
      <trkpt lat="46.4765" lon="5.35806">
        <ele>282.20001220703</ele>
        <time>2020-07-31T08:05:17.000Z</time>
      </trkpt>
      <trkpt lat="46.47656" lon="5.35799">
        <ele>282</ele>
        <time>2020-07-31T08:05:18.000Z</time>
      </trkpt>
      <trkpt lat="46.47668" lon="5.35784">
        <ele>281.79998779297</ele>
        <time>2020-07-31T08:05:20.000Z</time>
      </trkpt>
      <trkpt lat="46.47674" lon="5.35776">
        <ele>281.20001220703</ele>
        <time>2020-07-31T08:05:21.000Z</time>
      </trkpt>
      <trkpt lat="46.4768" lon="5.35767">
        <ele>281</ele>
        <time>2020-07-31T08:05:22.000Z</time>
      </trkpt>
      <trkpt lat="46.47686" lon="5.35758">
        <ele>280.39999389648</ele>
        <time>2020-07-31T08:05:23.000Z</time>
      </trkpt>
      <trkpt lat="46.47692" lon="5.3575">
        <ele>280</ele>
        <time>2020-07-31T08:05:24.000Z</time>
      </trkpt>
      <trkpt lat="46.47703" lon="5.35734">
        <ele>279.39999389648</ele>
        <time>2020-07-31T08:05:26.000Z</time>
      </trkpt>
      <trkpt lat="46.47708" lon="5.35724">
        <ele>278.79998779297</ele>
        <time>2020-07-31T08:05:27.000Z</time>
      </trkpt>
      <trkpt lat="46.47712" lon="5.35714">
        <ele>278.39999389648</ele>
        <time>2020-07-31T08:05:28.000Z</time>
      </trkpt>
      <trkpt lat="46.47721" lon="5.35692">
        <ele>277.60000610352</ele>
        <time>2020-07-31T08:05:30.000Z</time>
      </trkpt>
      <trkpt lat="46.47727" lon="5.35683">
        <ele>277.39999389648</ele>
        <time>2020-07-31T08:05:31.000Z</time>
      </trkpt>
      <trkpt lat="46.47734" lon="5.35676">
        <ele>277.20001220703</ele>
        <time>2020-07-31T08:05:32.000Z</time>
      </trkpt>
      <trkpt lat="46.47748" lon="5.35666">
        <ele>277</ele>
        <time>2020-07-31T08:05:34.000Z</time>
      </trkpt>
      <trkpt lat="46.47756" lon="5.35665">
        <ele>276.79998779297</ele>
        <time>2020-07-31T08:05:35.000Z</time>
      </trkpt>
      <trkpt lat="46.47764" lon="5.35664">
        <ele>276.60000610352</ele>
        <time>2020-07-31T08:05:36.000Z</time>
      </trkpt>
      <trkpt lat="46.4778" lon="5.35664">
        <ele>276.20001220703</ele>
        <time>2020-07-31T08:05:38.000Z</time>
      </trkpt>
      <trkpt lat="46.47795" lon="5.35666">
        <ele>276</ele>
        <time>2020-07-31T08:05:40.000Z</time>
      </trkpt>
      <trkpt lat="46.47803" lon="5.35669">
        <ele>276</ele>
        <time>2020-07-31T08:05:41.000Z</time>
      </trkpt>
      <trkpt lat="46.47811" lon="5.35672">
        <ele>276</ele>
        <time>2020-07-31T08:05:42.000Z</time>
      </trkpt>
      <trkpt lat="46.47836" lon="5.35679">
        <ele>275.60000610352</ele>
        <time>2020-07-31T08:05:45.000Z</time>
      </trkpt>
      <trkpt lat="46.47845" lon="5.35682">
        <ele>275.60000610352</ele>
        <time>2020-07-31T08:05:46.000Z</time>
      </trkpt>
      <trkpt lat="46.47854" lon="5.35684">
        <ele>275.60000610352</ele>
        <time>2020-07-31T08:05:47.000Z</time>
      </trkpt>
      <trkpt lat="46.47873" lon="5.35689">
        <ele>275.39999389648</ele>
        <time>2020-07-31T08:05:49.000Z</time>
      </trkpt>
      <trkpt lat="46.47892" lon="5.35692">
        <ele>275.39999389648</ele>
        <time>2020-07-31T08:05:51.000Z</time>
      </trkpt>
      <trkpt lat="46.47911" lon="5.35696">
        <ele>274.79998779297</ele>
        <time>2020-07-31T08:05:53.000Z</time>
      </trkpt>
      <trkpt lat="46.47921" lon="5.35699">
        <ele>274.20001220703</ele>
        <time>2020-07-31T08:05:54.000Z</time>
      </trkpt>
      <trkpt lat="46.4793" lon="5.35701">
        <ele>273.60000610352</ele>
        <time>2020-07-31T08:05:55.000Z</time>
      </trkpt>
      <trkpt lat="46.47939" lon="5.35704">
        <ele>272.79998779297</ele>
        <time>2020-07-31T08:05:56.000Z</time>
      </trkpt>
      <trkpt lat="46.47947" lon="5.35707">
        <ele>272.39999389648</ele>
        <time>2020-07-31T08:05:57.000Z</time>
      </trkpt>
      <trkpt lat="46.47963" lon="5.35713">
        <ele>272</ele>
        <time>2020-07-31T08:05:59.000Z</time>
      </trkpt>
      <trkpt lat="46.47971" lon="5.35715">
        <ele>272</ele>
        <time>2020-07-31T08:06:00.000Z</time>
      </trkpt>
      <trkpt lat="46.47979" lon="5.35716">
        <ele>272</ele>
        <time>2020-07-31T08:06:01.000Z</time>
      </trkpt>
      <trkpt lat="46.47987" lon="5.35715">
        <ele>271.79998779297</ele>
        <time>2020-07-31T08:06:02.000Z</time>
      </trkpt>
      <trkpt lat="46.47995" lon="5.35713">
        <ele>271.79998779297</ele>
        <time>2020-07-31T08:06:03.000Z</time>
      </trkpt>
      <trkpt lat="46.48003" lon="5.35711">
        <ele>271.79998779297</ele>
        <time>2020-07-31T08:06:04.000Z</time>
      </trkpt>
      <trkpt lat="46.4801" lon="5.35708">
        <ele>271.79998779297</ele>
        <time>2020-07-31T08:06:05.000Z</time>
      </trkpt>
      <trkpt lat="46.48026" lon="5.35702">
        <ele>272</ele>
        <time>2020-07-31T08:06:07.000Z</time>
      </trkpt>
      <trkpt lat="46.48042" lon="5.35696">
        <ele>272.20001220703</ele>
        <time>2020-07-31T08:06:09.000Z</time>
      </trkpt>
      <trkpt lat="46.48059" lon="5.35694">
        <ele>272.20001220703</ele>
        <time>2020-07-31T08:06:11.000Z</time>
      </trkpt>
      <trkpt lat="46.48075" lon="5.35698">
        <ele>272.20001220703</ele>
        <time>2020-07-31T08:06:13.000Z</time>
      </trkpt>
      <trkpt lat="46.48084" lon="5.35702">
        <ele>272.20001220703</ele>
        <time>2020-07-31T08:06:14.000Z</time>
      </trkpt>
      <trkpt lat="46.48091" lon="5.35707">
        <ele>272.20001220703</ele>
        <time>2020-07-31T08:06:15.000Z</time>
      </trkpt>
      <trkpt lat="46.48107" lon="5.35716">
        <ele>271.60000610352</ele>
        <time>2020-07-31T08:06:17.000Z</time>
      </trkpt>
      <trkpt lat="46.48122" lon="5.35728">
        <ele>271.20001220703</ele>
        <time>2020-07-31T08:06:19.000Z</time>
      </trkpt>
      <trkpt lat="46.48129" lon="5.35734">
        <ele>271</ele>
        <time>2020-07-31T08:06:20.000Z</time>
      </trkpt>
      <trkpt lat="46.48144" lon="5.35749">
        <ele>270.79998779297</ele>
        <time>2020-07-31T08:06:22.000Z</time>
      </trkpt>
      <trkpt lat="46.48158" lon="5.35764">
        <ele>270.79998779297</ele>
        <time>2020-07-31T08:06:24.000Z</time>
      </trkpt>
      <trkpt lat="46.48165" lon="5.35772">
        <ele>270.79998779297</ele>
        <time>2020-07-31T08:06:25.000Z</time>
      </trkpt>
      <trkpt lat="46.48172" lon="5.3578">
        <ele>270.60000610352</ele>
        <time>2020-07-31T08:06:26.000Z</time>
      </trkpt>
      <trkpt lat="46.48187" lon="5.35797">
        <ele>270.39999389648</ele>
        <time>2020-07-31T08:06:28.000Z</time>
      </trkpt>
      <trkpt lat="46.48201" lon="5.35813">
        <ele>270</ele>
        <time>2020-07-31T08:06:30.000Z</time>
      </trkpt>
      <trkpt lat="46.48209" lon="5.3582">
        <ele>269.79998779297</ele>
        <time>2020-07-31T08:06:31.000Z</time>
      </trkpt>
      <trkpt lat="46.48216" lon="5.35827">
        <ele>269.60000610352</ele>
        <time>2020-07-31T08:06:32.000Z</time>
      </trkpt>
      <trkpt lat="46.4823" lon="5.35841">
        <ele>269.39999389648</ele>
        <time>2020-07-31T08:06:34.000Z</time>
      </trkpt>
      <trkpt lat="46.48242" lon="5.35855">
        <ele>269.39999389648</ele>
        <time>2020-07-31T08:06:36.000Z</time>
      </trkpt>
      <trkpt lat="46.48247" lon="5.35862">
        <ele>269.39999389648</ele>
        <time>2020-07-31T08:06:37.000Z</time>
      </trkpt>
      <trkpt lat="46.48258" lon="5.35878">
        <ele>269.39999389648</ele>
        <time>2020-07-31T08:06:39.000Z</time>
      </trkpt>
      <trkpt lat="46.48263" lon="5.35886">
        <ele>269.39999389648</ele>
        <time>2020-07-31T08:06:40.000Z</time>
      </trkpt>
      <trkpt lat="46.48273" lon="5.35901">
        <ele>269.39999389648</ele>
        <time>2020-07-31T08:06:42.000Z</time>
      </trkpt>
      <trkpt lat="46.48279" lon="5.35907">
        <ele>269.60000610352</ele>
        <time>2020-07-31T08:06:43.000Z</time>
      </trkpt>
      <trkpt lat="46.48291" lon="5.35915">
        <ele>270.39999389648</ele>
        <time>2020-07-31T08:06:45.000Z</time>
      </trkpt>
      <trkpt lat="46.48298" lon="5.35918">
        <ele>270.79998779297</ele>
        <time>2020-07-31T08:06:46.000Z</time>
      </trkpt>
      <trkpt lat="46.48305" lon="5.35919">
        <ele>271.39999389648</ele>
        <time>2020-07-31T08:06:47.000Z</time>
      </trkpt>
      <trkpt lat="46.48321" lon="5.35922">
        <ele>272.20001220703</ele>
        <time>2020-07-31T08:06:49.000Z</time>
      </trkpt>
      <trkpt lat="46.48329" lon="5.35923">
        <ele>272.60000610352</ele>
        <time>2020-07-31T08:06:50.000Z</time>
      </trkpt>
      <trkpt lat="46.48345" lon="5.35926">
        <ele>272.79998779297</ele>
        <time>2020-07-31T08:06:52.000Z</time>
      </trkpt>
      <trkpt lat="46.48353" lon="5.35927">
        <ele>272.79998779297</ele>
        <time>2020-07-31T08:06:53.000Z</time>
      </trkpt>
      <trkpt lat="46.48361" lon="5.35929">
        <ele>272.79998779297</ele>
        <time>2020-07-31T08:06:54.000Z</time>
      </trkpt>
      <trkpt lat="46.48378" lon="5.35931">
        <ele>272.79998779297</ele>
        <time>2020-07-31T08:06:56.000Z</time>
      </trkpt>
      <trkpt lat="46.48397" lon="5.35934">
        <ele>272.79998779297</ele>
        <time>2020-07-31T08:06:58.000Z</time>
      </trkpt>
      <trkpt lat="46.48407" lon="5.35934">
        <ele>272.79998779297</ele>
        <time>2020-07-31T08:06:59.000Z</time>
      </trkpt>
      <trkpt lat="46.48416" lon="5.35931">
        <ele>272.60000610352</ele>
        <time>2020-07-31T08:07:00.000Z</time>
      </trkpt>
      <trkpt lat="46.48436" lon="5.3592">
        <ele>272.39999389648</ele>
        <time>2020-07-31T08:07:02.000Z</time>
      </trkpt>
      <trkpt lat="46.48446" lon="5.35912">
        <ele>272.20001220703</ele>
        <time>2020-07-31T08:07:03.000Z</time>
      </trkpt>
      <trkpt lat="46.48456" lon="5.35905">
        <ele>271.79998779297</ele>
        <time>2020-07-31T08:07:04.000Z</time>
      </trkpt>
      <trkpt lat="46.48467" lon="5.35899">
        <ele>271.39999389648</ele>
        <time>2020-07-31T08:07:05.000Z</time>
      </trkpt>
      <trkpt lat="46.48479" lon="5.35898">
        <ele>271</ele>
        <time>2020-07-31T08:07:06.000Z</time>
      </trkpt>
      <trkpt lat="46.48503" lon="5.35897">
        <ele>269.79998779297</ele>
        <time>2020-07-31T08:07:08.000Z</time>
      </trkpt>
      <trkpt lat="46.48515" lon="5.35898">
        <ele>268.79998779297</ele>
        <time>2020-07-31T08:07:09.000Z</time>
      </trkpt>
      <trkpt lat="46.48527" lon="5.35901">
        <ele>267</ele>
        <time>2020-07-31T08:07:10.000Z</time>
      </trkpt>
      <trkpt lat="46.48539" lon="5.35904">
        <ele>265.60000610352</ele>
        <time>2020-07-31T08:07:11.000Z</time>
      </trkpt>
      <trkpt lat="46.48552" lon="5.35908">
        <ele>264.20001220703</ele>
        <time>2020-07-31T08:07:12.000Z</time>
      </trkpt>
      <trkpt lat="46.48564" lon="5.35913">
        <ele>262</ele>
        <time>2020-07-31T08:07:13.000Z</time>
      </trkpt>
      <trkpt lat="46.48576" lon="5.35919">
        <ele>261</ele>
        <time>2020-07-31T08:07:14.000Z</time>
      </trkpt>
      <trkpt lat="46.48598" lon="5.35933">
        <ele>259.39999389648</ele>
        <time>2020-07-31T08:07:16.000Z</time>
      </trkpt>
      <trkpt lat="46.48608" lon="5.3594">
        <ele>258.39999389648</ele>
        <time>2020-07-31T08:07:17.000Z</time>
      </trkpt>
      <trkpt lat="46.48618" lon="5.35947">
        <ele>257</ele>
        <time>2020-07-31T08:07:18.000Z</time>
      </trkpt>
      <trkpt lat="46.48635" lon="5.35956">
        <ele>255.19999694824</ele>
        <time>2020-07-31T08:07:20.000Z</time>
      </trkpt>
      <trkpt lat="46.48644" lon="5.35958">
        <ele>254.60000610352</ele>
        <time>2020-07-31T08:07:21.000Z</time>
      </trkpt>
      <trkpt lat="46.48652" lon="5.35956">
        <ele>254</ele>
        <time>2020-07-31T08:07:22.000Z</time>
      </trkpt>
      <trkpt lat="46.48659" lon="5.35951">
        <ele>253.80000305176</ele>
        <time>2020-07-31T08:07:23.000Z</time>
      </trkpt>
      <trkpt lat="46.48666" lon="5.35945">
        <ele>253.19999694824</ele>
        <time>2020-07-31T08:07:24.000Z</time>
      </trkpt>
      <trkpt lat="46.48671" lon="5.3594">
        <ele>252.60000610352</ele>
        <time>2020-07-31T08:07:25.000Z</time>
      </trkpt>
      <trkpt lat="46.48676" lon="5.35937">
        <ele>251.80000305176</ele>
        <time>2020-07-31T08:07:26.000Z</time>
      </trkpt>
      <trkpt lat="46.4868" lon="5.35937">
        <ele>251.19999694824</ele>
        <time>2020-07-31T08:07:27.000Z</time>
      </trkpt>
      <trkpt lat="46.48682" lon="5.35942">
        <ele>251.19999694824</ele>
        <time>2020-07-31T08:07:28.000Z</time>
      </trkpt>
      <trkpt lat="46.48682" lon="5.35955">
        <ele>250.60000610352</ele>
        <time>2020-07-31T08:07:30.000Z</time>
      </trkpt>
      <trkpt lat="46.48681" lon="5.35962">
        <ele>250.60000610352</ele>
        <time>2020-07-31T08:07:31.000Z</time>
      </trkpt>
      <trkpt lat="46.48679" lon="5.3597">
        <ele>250.39999389648</ele>
        <time>2020-07-31T08:07:32.000Z</time>
      </trkpt>
      <trkpt lat="46.48678" lon="5.35979">
        <ele>250.39999389648</ele>
        <time>2020-07-31T08:07:33.000Z</time>
      </trkpt>
      <trkpt lat="46.48675" lon="5.35997">
        <ele>250.19999694824</ele>
        <time>2020-07-31T08:07:35.000Z</time>
      </trkpt>
      <trkpt lat="46.48671" lon="5.36015">
        <ele>250</ele>
        <time>2020-07-31T08:07:37.000Z</time>
      </trkpt>
      <trkpt lat="46.48668" lon="5.36035">
        <ele>249.60000610352</ele>
        <time>2020-07-31T08:07:39.000Z</time>
      </trkpt>
      <trkpt lat="46.48663" lon="5.36057">
        <ele>249.39999389648</ele>
        <time>2020-07-31T08:07:41.000Z</time>
      </trkpt>
      <trkpt lat="46.48658" lon="5.3608">
        <ele>249.19999694824</ele>
        <time>2020-07-31T08:07:43.000Z</time>
      </trkpt>
      <trkpt lat="46.48653" lon="5.36104">
        <ele>249.19999694824</ele>
        <time>2020-07-31T08:07:45.000Z</time>
      </trkpt>
      <trkpt lat="46.48648" lon="5.36128">
        <ele>248.60000610352</ele>
        <time>2020-07-31T08:07:47.000Z</time>
      </trkpt>
      <trkpt lat="46.48646" lon="5.36139">
        <ele>248</ele>
        <time>2020-07-31T08:07:48.000Z</time>
      </trkpt>
      <trkpt lat="46.48644" lon="5.36151">
        <ele>247.80000305176</ele>
        <time>2020-07-31T08:07:49.000Z</time>
      </trkpt>
      <trkpt lat="46.48642" lon="5.36173">
        <ele>247.39999389648</ele>
        <time>2020-07-31T08:07:51.000Z</time>
      </trkpt>
      <trkpt lat="46.4864" lon="5.36196">
        <ele>246.80000305176</ele>
        <time>2020-07-31T08:07:53.000Z</time>
      </trkpt>
      <trkpt lat="46.48639" lon="5.36217">
        <ele>247</ele>
        <time>2020-07-31T08:07:55.000Z</time>
      </trkpt>
      <trkpt lat="46.48636" lon="5.36239">
        <ele>246.80000305176</ele>
        <time>2020-07-31T08:07:57.000Z</time>
      </trkpt>
      <trkpt lat="46.48634" lon="5.36259">
        <ele>246.80000305176</ele>
        <time>2020-07-31T08:07:59.000Z</time>
      </trkpt>
      <trkpt lat="46.48631" lon="5.36278">
        <ele>246.80000305176</ele>
        <time>2020-07-31T08:08:01.000Z</time>
      </trkpt>
      <trkpt lat="46.48629" lon="5.36287">
        <ele>246.80000305176</ele>
        <time>2020-07-31T08:08:02.000Z</time>
      </trkpt>
      <trkpt lat="46.48627" lon="5.36295">
        <ele>247</ele>
        <time>2020-07-31T08:08:03.000Z</time>
      </trkpt>
      <trkpt lat="46.48624" lon="5.36303">
        <ele>247.39999389648</ele>
        <time>2020-07-31T08:08:04.000Z</time>
      </trkpt>
      <trkpt lat="46.4862" lon="5.36309">
        <ele>247.60000610352</ele>
        <time>2020-07-31T08:08:05.000Z</time>
      </trkpt>
      <trkpt lat="46.48616" lon="5.36314">
        <ele>247.60000610352</ele>
        <time>2020-07-31T08:08:06.000Z</time>
      </trkpt>
      <trkpt lat="46.48605" lon="5.36318">
        <ele>248.19999694824</ele>
        <time>2020-07-31T08:08:08.000Z</time>
      </trkpt>
      <trkpt lat="46.48594" lon="5.3632">
        <ele>248.60000610352</ele>
        <time>2020-07-31T08:08:10.000Z</time>
      </trkpt>
      <trkpt lat="46.48584" lon="5.36322">
        <ele>249.19999694824</ele>
        <time>2020-07-31T08:08:12.000Z</time>
      </trkpt>
      <trkpt lat="46.48574" lon="5.36323">
        <ele>249.80000305176</ele>
        <time>2020-07-31T08:08:14.000Z</time>
      </trkpt>
      <trkpt lat="46.48569" lon="5.36324">
        <ele>250.19999694824</ele>
        <time>2020-07-31T08:08:15.000Z</time>
      </trkpt>
      <trkpt lat="46.48564" lon="5.36325">
        <ele>250.60000610352</ele>
        <time>2020-07-31T08:08:16.000Z</time>
      </trkpt>
      <trkpt lat="46.48554" lon="5.36326">
        <ele>251</ele>
        <time>2020-07-31T08:08:18.000Z</time>
      </trkpt>
      <trkpt lat="46.48549" lon="5.36327">
        <ele>251</ele>
        <time>2020-07-31T08:08:19.000Z</time>
      </trkpt>
      <trkpt lat="46.48544" lon="5.36328">
        <ele>251.19999694824</ele>
        <time>2020-07-31T08:08:20.000Z</time>
      </trkpt>
      <trkpt lat="46.48534" lon="5.36329">
        <ele>251.19999694824</ele>
        <time>2020-07-31T08:08:22.000Z</time>
      </trkpt>
      <trkpt lat="46.48524" lon="5.36331">
        <ele>251.39999389648</ele>
        <time>2020-07-31T08:08:24.000Z</time>
      </trkpt>
      <trkpt lat="46.48514" lon="5.36332">
        <ele>252</ele>
        <time>2020-07-31T08:08:26.000Z</time>
      </trkpt>
      <trkpt lat="46.48509" lon="5.36333">
        <ele>252.60000610352</ele>
        <time>2020-07-31T08:08:27.000Z</time>
      </trkpt>
      <trkpt lat="46.48504" lon="5.36334">
        <ele>253</ele>
        <time>2020-07-31T08:08:28.000Z</time>
      </trkpt>
      <trkpt lat="46.48494" lon="5.36336">
        <ele>253.39999389648</ele>
        <time>2020-07-31T08:08:30.000Z</time>
      </trkpt>
      <trkpt lat="46.48489" lon="5.36337">
        <ele>253.60000610352</ele>
        <time>2020-07-31T08:08:31.000Z</time>
      </trkpt>
      <trkpt lat="46.48484" lon="5.36338">
        <ele>253.80000305176</ele>
        <time>2020-07-31T08:08:32.000Z</time>
      </trkpt>
      <trkpt lat="46.48473" lon="5.36339">
        <ele>253.80000305176</ele>
        <time>2020-07-31T08:08:34.000Z</time>
      </trkpt>
      <trkpt lat="46.48462" lon="5.36341">
        <ele>254</ele>
        <time>2020-07-31T08:08:36.000Z</time>
      </trkpt>
      <trkpt lat="46.4845" lon="5.36343">
        <ele>254.19999694824</ele>
        <time>2020-07-31T08:08:38.000Z</time>
      </trkpt>
      <trkpt lat="46.48445" lon="5.36344">
        <ele>254.39999389648</ele>
        <time>2020-07-31T08:08:39.000Z</time>
      </trkpt>
      <trkpt lat="46.48439" lon="5.36345">
        <ele>254.39999389648</ele>
        <time>2020-07-31T08:08:40.000Z</time>
      </trkpt>
      <trkpt lat="46.48427" lon="5.36349">
        <ele>254.39999389648</ele>
        <time>2020-07-31T08:08:42.000Z</time>
      </trkpt>
      <trkpt lat="46.48416" lon="5.36354">
        <ele>254.60000610352</ele>
        <time>2020-07-31T08:08:44.000Z</time>
      </trkpt>
      <trkpt lat="46.4841" lon="5.36357">
        <ele>254.60000610352</ele>
        <time>2020-07-31T08:08:45.000Z</time>
      </trkpt>
      <trkpt lat="46.48405" lon="5.36361">
        <ele>254.60000610352</ele>
        <time>2020-07-31T08:08:46.000Z</time>
      </trkpt>
      <trkpt lat="46.48394" lon="5.36369">
        <ele>254.60000610352</ele>
        <time>2020-07-31T08:08:48.000Z</time>
      </trkpt>
      <trkpt lat="46.48384" lon="5.36379">
        <ele>254.60000610352</ele>
        <time>2020-07-31T08:08:50.000Z</time>
      </trkpt>
      <trkpt lat="46.4838" lon="5.36384">
        <ele>254.39999389648</ele>
        <time>2020-07-31T08:08:51.000Z</time>
      </trkpt>
      <trkpt lat="46.4837" lon="5.36395">
        <ele>254.60000610352</ele>
        <time>2020-07-31T08:08:53.000Z</time>
      </trkpt>
      <trkpt lat="46.4836" lon="5.36405">
        <ele>254.60000610352</ele>
        <time>2020-07-31T08:08:55.000Z</time>
      </trkpt>
      <trkpt lat="46.48351" lon="5.36416">
        <ele>254.60000610352</ele>
        <time>2020-07-31T08:08:57.000Z</time>
      </trkpt>
      <trkpt lat="46.48342" lon="5.36426">
        <ele>254.60000610352</ele>
        <time>2020-07-31T08:08:59.000Z</time>
      </trkpt>
      <trkpt lat="46.48333" lon="5.36435">
        <ele>254.60000610352</ele>
        <time>2020-07-31T08:09:01.000Z</time>
      </trkpt>
      <trkpt lat="46.48324" lon="5.36445">
        <ele>255.19999694824</ele>
        <time>2020-07-31T08:09:03.000Z</time>
      </trkpt>
      <trkpt lat="46.48316" lon="5.36455">
        <ele>255.39999389648</ele>
        <time>2020-07-31T08:09:05.000Z</time>
      </trkpt>
      <trkpt lat="46.48307" lon="5.36464">
        <ele>255.80000305176</ele>
        <time>2020-07-31T08:09:07.000Z</time>
      </trkpt>
      <trkpt lat="46.48299" lon="5.36474">
        <ele>256</ele>
        <time>2020-07-31T08:09:09.000Z</time>
      </trkpt>
      <trkpt lat="46.4829" lon="5.36483">
        <ele>256</ele>
        <time>2020-07-31T08:09:11.000Z</time>
      </trkpt>
      <trkpt lat="46.48286" lon="5.36487">
        <ele>256.20001220703</ele>
        <time>2020-07-31T08:09:12.000Z</time>
      </trkpt>
      <trkpt lat="46.48282" lon="5.36492">
        <ele>256.20001220703</ele>
        <time>2020-07-31T08:09:13.000Z</time>
      </trkpt>
      <trkpt lat="46.48278" lon="5.36497">
        <ele>256.39999389648</ele>
        <time>2020-07-31T08:09:14.000Z</time>
      </trkpt>
      <trkpt lat="46.48274" lon="5.36502">
        <ele>256.79998779297</ele>
        <time>2020-07-31T08:09:15.000Z</time>
      </trkpt>
      <trkpt lat="46.4827" lon="5.36506">
        <ele>257.20001220703</ele>
        <time>2020-07-31T08:09:16.000Z</time>
      </trkpt>
      <trkpt lat="46.48266" lon="5.36511">
        <ele>257.39999389648</ele>
        <time>2020-07-31T08:09:17.000Z</time>
      </trkpt>
      <trkpt lat="46.48257" lon="5.3652">
        <ele>257.79998779297</ele>
        <time>2020-07-31T08:09:19.000Z</time>
      </trkpt>
      <trkpt lat="46.48249" lon="5.36529">
        <ele>258</ele>
        <time>2020-07-31T08:09:21.000Z</time>
      </trkpt>
      <trkpt lat="46.48241" lon="5.36538">
        <ele>258.39999389648</ele>
        <time>2020-07-31T08:09:23.000Z</time>
      </trkpt>
      <trkpt lat="46.48237" lon="5.36543">
        <ele>258.60000610352</ele>
        <time>2020-07-31T08:09:24.000Z</time>
      </trkpt>
      <trkpt lat="46.48233" lon="5.36547">
        <ele>258.79998779297</ele>
        <time>2020-07-31T08:09:25.000Z</time>
      </trkpt>
      <trkpt lat="46.48224" lon="5.36555">
        <ele>259.20001220703</ele>
        <time>2020-07-31T08:09:27.000Z</time>
      </trkpt>
      <trkpt lat="46.48219" lon="5.36557">
        <ele>259.20001220703</ele>
        <time>2020-07-31T08:09:28.000Z</time>
      </trkpt>
      <trkpt lat="46.48213" lon="5.36557">
        <ele>259.39999389648</ele>
        <time>2020-07-31T08:09:29.000Z</time>
      </trkpt>
      <trkpt lat="46.48203" lon="5.36558">
        <ele>259.60000610352</ele>
        <time>2020-07-31T08:09:31.000Z</time>
      </trkpt>
      <trkpt lat="46.48193" lon="5.36564">
        <ele>259.79998779297</ele>
        <time>2020-07-31T08:09:33.000Z</time>
      </trkpt>
      <trkpt lat="46.4819" lon="5.3657">
        <ele>260</ele>
        <time>2020-07-31T08:09:34.000Z</time>
      </trkpt>
      <trkpt lat="46.48185" lon="5.36584">
        <ele>260.20001220703</ele>
        <time>2020-07-31T08:09:36.000Z</time>
      </trkpt>
      <trkpt lat="46.4818" lon="5.36599">
        <ele>260.39999389648</ele>
        <time>2020-07-31T08:09:38.000Z</time>
      </trkpt>
      <trkpt lat="46.48176" lon="5.36605">
        <ele>260.39999389648</ele>
        <time>2020-07-31T08:09:39.000Z</time>
      </trkpt>
      <trkpt lat="46.48171" lon="5.3661">
        <ele>260.39999389648</ele>
        <time>2020-07-31T08:09:40.000Z</time>
      </trkpt>
      <trkpt lat="46.48163" lon="5.36621">
        <ele>260.60000610352</ele>
        <time>2020-07-31T08:09:42.000Z</time>
      </trkpt>
      <trkpt lat="46.48154" lon="5.3663">
        <ele>260.79998779297</ele>
        <time>2020-07-31T08:09:44.000Z</time>
      </trkpt>
      <trkpt lat="46.48145" lon="5.36639">
        <ele>261</ele>
        <time>2020-07-31T08:09:46.000Z</time>
      </trkpt>
      <trkpt lat="46.48141" lon="5.36644">
        <ele>261</ele>
        <time>2020-07-31T08:09:47.000Z</time>
      </trkpt>
      <trkpt lat="46.48136" lon="5.36647">
        <ele>261.20001220703</ele>
        <time>2020-07-31T08:09:48.000Z</time>
      </trkpt>
      <trkpt lat="46.48127" lon="5.36657">
        <ele>261.39999389648</ele>
        <time>2020-07-31T08:09:50.000Z</time>
      </trkpt>
      <trkpt lat="46.48123" lon="5.36662">
        <ele>261.60000610352</ele>
        <time>2020-07-31T08:09:51.000Z</time>
      </trkpt>
      <trkpt lat="46.48119" lon="5.36667">
        <ele>261.79998779297</ele>
        <time>2020-07-31T08:09:52.000Z</time>
      </trkpt>
      <trkpt lat="46.48112" lon="5.36676">
        <ele>262.20001220703</ele>
        <time>2020-07-31T08:09:54.000Z</time>
      </trkpt>
      <trkpt lat="46.48105" lon="5.36683">
        <ele>262.39999389648</ele>
        <time>2020-07-31T08:09:56.000Z</time>
      </trkpt>
      <trkpt lat="46.48103" lon="5.36687">
        <ele>262.39999389648</ele>
        <time>2020-07-31T08:09:57.000Z</time>
      </trkpt>
      <trkpt lat="46.48102" lon="5.36693">
        <ele>262.39999389648</ele>
        <time>2020-07-31T08:09:58.000Z</time>
      </trkpt>
      <trkpt lat="46.48106" lon="5.36704">
        <ele>262.39999389648</ele>
        <time>2020-07-31T08:10:00.000Z</time>
      </trkpt>
      <trkpt lat="46.48113" lon="5.36712">
        <ele>262.60000610352</ele>
        <time>2020-07-31T08:10:02.000Z</time>
      </trkpt>
      <trkpt lat="46.48116" lon="5.36715">
        <ele>263.20001220703</ele>
        <time>2020-07-31T08:10:03.000Z</time>
      </trkpt>
      <trkpt lat="46.4812" lon="5.36719">
        <ele>263.39999389648</ele>
        <time>2020-07-31T08:10:04.000Z</time>
      </trkpt>
      <trkpt lat="46.48128" lon="5.36725">
        <ele>264</ele>
        <time>2020-07-31T08:10:06.000Z</time>
      </trkpt>
      <trkpt lat="46.48131" lon="5.36729">
        <ele>264.39999389648</ele>
        <time>2020-07-31T08:10:07.000Z</time>
      </trkpt>
      <trkpt lat="46.48135" lon="5.36732">
        <ele>264.60000610352</ele>
        <time>2020-07-31T08:10:08.000Z</time>
      </trkpt>
      <trkpt lat="46.48143" lon="5.36738">
        <ele>264.79998779297</ele>
        <time>2020-07-31T08:10:10.000Z</time>
      </trkpt>
      <trkpt lat="46.4815" lon="5.36744">
        <ele>265.20001220703</ele>
        <time>2020-07-31T08:10:12.000Z</time>
      </trkpt>
      <trkpt lat="46.48154" lon="5.36748">
        <ele>265.39999389648</ele>
        <time>2020-07-31T08:10:13.000Z</time>
      </trkpt>
      <trkpt lat="46.48157" lon="5.36751">
        <ele>265.60000610352</ele>
        <time>2020-07-31T08:10:14.000Z</time>
      </trkpt>
      <trkpt lat="46.48165" lon="5.36756">
        <ele>266</ele>
        <time>2020-07-31T08:10:16.000Z</time>
      </trkpt>
      <trkpt lat="46.48172" lon="5.36762">
        <ele>266.20001220703</ele>
        <time>2020-07-31T08:10:18.000Z</time>
      </trkpt>
      <trkpt lat="46.48179" lon="5.36768">
        <ele>266.60000610352</ele>
        <time>2020-07-31T08:10:20.000Z</time>
      </trkpt>
      <trkpt lat="46.48186" lon="5.36774">
        <ele>267</ele>
        <time>2020-07-31T08:10:22.000Z</time>
      </trkpt>
      <trkpt lat="46.48193" lon="5.3678">
        <ele>267.39999389648</ele>
        <time>2020-07-31T08:10:24.000Z</time>
      </trkpt>
      <trkpt lat="46.48197" lon="5.36783">
        <ele>267.60000610352</ele>
        <time>2020-07-31T08:10:25.000Z</time>
      </trkpt>
      <trkpt lat="46.482" lon="5.36786">
        <ele>268</ele>
        <time>2020-07-31T08:10:26.000Z</time>
      </trkpt>
      <trkpt lat="46.48207" lon="5.36791">
        <ele>268.39999389648</ele>
        <time>2020-07-31T08:10:28.000Z</time>
      </trkpt>
      <trkpt lat="46.48214" lon="5.36795">
        <ele>268.60000610352</ele>
        <time>2020-07-31T08:10:30.000Z</time>
      </trkpt>
      <trkpt lat="46.48217" lon="5.36798">
        <ele>268.79998779297</ele>
        <time>2020-07-31T08:10:31.000Z</time>
      </trkpt>
      <trkpt lat="46.4822" lon="5.36801">
        <ele>269.39999389648</ele>
        <time>2020-07-31T08:10:32.000Z</time>
      </trkpt>
      <trkpt lat="46.48227" lon="5.36808">
        <ele>269.60000610352</ele>
        <time>2020-07-31T08:10:34.000Z</time>
      </trkpt>
      <trkpt lat="46.48233" lon="5.36813">
        <ele>270.20001220703</ele>
        <time>2020-07-31T08:10:36.000Z</time>
      </trkpt>
      <trkpt lat="46.48236" lon="5.36816">
        <ele>270.60000610352</ele>
        <time>2020-07-31T08:10:37.000Z</time>
      </trkpt>
      <trkpt lat="46.48239" lon="5.36818">
        <ele>270.79998779297</ele>
        <time>2020-07-31T08:10:38.000Z</time>
      </trkpt>
      <trkpt lat="46.48245" lon="5.36824">
        <ele>271.20001220703</ele>
        <time>2020-07-31T08:10:40.000Z</time>
      </trkpt>
      <trkpt lat="46.48252" lon="5.3683">
        <ele>271.60000610352</ele>
        <time>2020-07-31T08:10:42.000Z</time>
      </trkpt>
      <trkpt lat="46.48255" lon="5.36833">
        <ele>271.79998779297</ele>
        <time>2020-07-31T08:10:43.000Z</time>
      </trkpt>
    </trkseg>
  </trk>
</gpx>